<?xml version="1.0" encoding="UTF-8" standalone="no" ?>
<gpx xmlns="http://www.topografix.com/GPX/1/1" xmlns:xsi="http://www.w3.org/2001/XMLSchema-instance" xsi:schemaLocation="http://www.topografix.com/GPX/1/1 http://www.topografix.com/GPX/1/1/gpx.xsd" version="1.1" creator="VisuGPX - https://www.visugpx.com">
  <metadata>
    <name>26-03-14</name>
    <desc><![CDATA[Centrionales de Piriac-sur-Mer Acte 1
Avec Eric Crey.]]></desc>
  </metadata>
  <trk>
    <name><![CDATA[26-03-14_1]]></name>
    <trkseg>
      <trkpt lat="46.72406" lon="2.46187">
        <ele>175.2</ele>
        <time>2026-03-14T04:45:42Z</time>
      </trkpt>
      <trkpt lat="46.72406" lon="2.46187">
        <ele>175</ele>
        <time>2026-03-14T04:45:43Z</time>
      </trkpt>
      <trkpt lat="46.72411" lon="2.46191">
        <ele>179.8</ele>
        <time>2026-03-14T04:45:51Z</time>
      </trkpt>
      <trkpt lat="46.72411" lon="2.46197">
        <ele>180</ele>
        <time>2026-03-14T04:45:53Z</time>
      </trkpt>
      <trkpt lat="46.72409" lon="2.46219">
        <ele>180</ele>
        <time>2026-03-14T04:45:59Z</time>
      </trkpt>
      <trkpt lat="46.72408" lon="2.46227">
        <ele>180.4</ele>
        <time>2026-03-14T04:46:01Z</time>
      </trkpt>
      <trkpt lat="46.72402" lon="2.46236">
        <ele>181</ele>
        <time>2026-03-14T04:46:05Z</time>
      </trkpt>
      <trkpt lat="46.724" lon="2.46236">
        <ele>181</ele>
        <time>2026-03-14T04:46:06Z</time>
      </trkpt>
      <trkpt lat="46.7239" lon="2.46227">
        <ele>181.4</ele>
        <time>2026-03-14T04:46:11Z</time>
      </trkpt>
      <trkpt lat="46.72388" lon="2.46221">
        <ele>181.6</ele>
        <time>2026-03-14T04:46:13Z</time>
      </trkpt>
      <trkpt lat="46.72386" lon="2.46208">
        <ele>181.6</ele>
        <time>2026-03-14T04:46:16Z</time>
      </trkpt>
      <trkpt lat="46.72385" lon="2.46183">
        <ele>181.8</ele>
        <time>2026-03-14T04:46:21Z</time>
      </trkpt>
      <trkpt lat="46.72387" lon="2.46161">
        <ele>181.8</ele>
        <time>2026-03-14T04:46:25Z</time>
      </trkpt>
      <trkpt lat="46.72388" lon="2.46142">
        <ele>181.8</ele>
        <time>2026-03-14T04:46:28Z</time>
      </trkpt>
      <trkpt lat="46.72391" lon="2.46094">
        <ele>182</ele>
        <time>2026-03-14T04:46:35Z</time>
      </trkpt>
      <trkpt lat="46.72395" lon="2.46068">
        <ele>182</ele>
        <time>2026-03-14T04:46:39Z</time>
      </trkpt>
      <trkpt lat="46.72399" lon="2.46047">
        <ele>182</ele>
        <time>2026-03-14T04:46:42Z</time>
      </trkpt>
      <trkpt lat="46.72404" lon="2.46028">
        <ele>182</ele>
        <time>2026-03-14T04:46:45Z</time>
      </trkpt>
      <trkpt lat="46.72413" lon="2.46005">
        <ele>182</ele>
        <time>2026-03-14T04:46:49Z</time>
      </trkpt>
      <trkpt lat="46.72416" lon="2.46">
        <ele>182</ele>
        <time>2026-03-14T04:46:50Z</time>
      </trkpt>
      <trkpt lat="46.72419" lon="2.45996">
        <ele>182.2</ele>
        <time>2026-03-14T04:46:51Z</time>
      </trkpt>
      <trkpt lat="46.72427" lon="2.45991">
        <ele>182.2</ele>
        <time>2026-03-14T04:46:53Z</time>
      </trkpt>
      <trkpt lat="46.72431" lon="2.45988">
        <ele>182.4</ele>
        <time>2026-03-14T04:46:54Z</time>
      </trkpt>
      <trkpt lat="46.72437" lon="2.45979">
        <ele>182.6</ele>
        <time>2026-03-14T04:46:56Z</time>
      </trkpt>
      <trkpt lat="46.7244" lon="2.45966">
        <ele>183.2</ele>
        <time>2026-03-14T04:46:58Z</time>
      </trkpt>
      <trkpt lat="46.7244" lon="2.4596">
        <ele>183.2</ele>
        <time>2026-03-14T04:46:59Z</time>
      </trkpt>
      <trkpt lat="46.72438" lon="2.45953">
        <ele>183.2</ele>
        <time>2026-03-14T04:47:00Z</time>
      </trkpt>
      <trkpt lat="46.72433" lon="2.45941">
        <ele>183.2</ele>
        <time>2026-03-14T04:47:02Z</time>
      </trkpt>
      <trkpt lat="46.72427" lon="2.45929">
        <ele>183.4</ele>
        <time>2026-03-14T04:47:04Z</time>
      </trkpt>
      <trkpt lat="46.72424" lon="2.45921">
        <ele>183.2</ele>
        <time>2026-03-14T04:47:05Z</time>
      </trkpt>
      <trkpt lat="46.72423" lon="2.45913">
        <ele>183.2</ele>
        <time>2026-03-14T04:47:06Z</time>
      </trkpt>
      <trkpt lat="46.72422" lon="2.45905">
        <ele>183.2</ele>
        <time>2026-03-14T04:47:07Z</time>
      </trkpt>
      <trkpt lat="46.72418" lon="2.45844">
        <ele>182.6</ele>
        <time>2026-03-14T04:47:15Z</time>
      </trkpt>
      <trkpt lat="46.72416" lon="2.45815">
        <ele>182.6</ele>
        <time>2026-03-14T04:47:19Z</time>
      </trkpt>
      <trkpt lat="46.72416" lon="2.4578">
        <ele>182.8</ele>
        <time>2026-03-14T04:47:24Z</time>
      </trkpt>
      <trkpt lat="46.7242" lon="2.45716">
        <ele>183.4</ele>
        <time>2026-03-14T04:47:33Z</time>
      </trkpt>
      <trkpt lat="46.72427" lon="2.45645">
        <ele>184.2</ele>
        <time>2026-03-14T04:47:43Z</time>
      </trkpt>
      <trkpt lat="46.72427" lon="2.45637">
        <ele>184.4</ele>
        <time>2026-03-14T04:47:44Z</time>
      </trkpt>
      <trkpt lat="46.72429" lon="2.45615">
        <ele>184.6</ele>
        <time>2026-03-14T04:47:47Z</time>
      </trkpt>
      <trkpt lat="46.72435" lon="2.45541">
        <ele>184.8</ele>
        <time>2026-03-14T04:47:57Z</time>
      </trkpt>
      <trkpt lat="46.72435" lon="2.45533">
        <ele>184.8</ele>
        <time>2026-03-14T04:47:58Z</time>
      </trkpt>
      <trkpt lat="46.72442" lon="2.45462">
        <ele>184.4</ele>
        <time>2026-03-14T04:48:06Z</time>
      </trkpt>
      <trkpt lat="46.72447" lon="2.45403">
        <ele>183.4</ele>
        <time>2026-03-14T04:48:12Z</time>
      </trkpt>
      <trkpt lat="46.72448" lon="2.4539">
        <ele>183.2</ele>
        <time>2026-03-14T04:48:13Z</time>
      </trkpt>
      <trkpt lat="46.72452" lon="2.45336">
        <ele>182.2</ele>
        <time>2026-03-14T04:48:18Z</time>
      </trkpt>
      <trkpt lat="46.72455" lon="2.45306">
        <ele>181.2</ele>
        <time>2026-03-14T04:48:21Z</time>
      </trkpt>
      <trkpt lat="46.72456" lon="2.45293">
        <ele>181</ele>
        <time>2026-03-14T04:48:22Z</time>
      </trkpt>
      <trkpt lat="46.72457" lon="2.45282">
        <ele>180.8</ele>
        <time>2026-03-14T04:48:23Z</time>
      </trkpt>
      <trkpt lat="46.72463" lon="2.45219">
        <ele>179.8</ele>
        <time>2026-03-14T04:48:29Z</time>
      </trkpt>
      <trkpt lat="46.72467" lon="2.45173">
        <ele>179.8</ele>
        <time>2026-03-14T04:48:34Z</time>
      </trkpt>
      <trkpt lat="46.7247" lon="2.45144">
        <ele>179.8</ele>
        <time>2026-03-14T04:48:37Z</time>
      </trkpt>
      <trkpt lat="46.72474" lon="2.45091">
        <ele>179.8</ele>
        <time>2026-03-14T04:48:43Z</time>
      </trkpt>
      <trkpt lat="46.72478" lon="2.45025">
        <ele>180</ele>
        <time>2026-03-14T04:48:51Z</time>
      </trkpt>
      <trkpt lat="46.72479" lon="2.45012">
        <ele>180.2</ele>
        <time>2026-03-14T04:48:53Z</time>
      </trkpt>
      <trkpt lat="46.72482" lon="2.44978">
        <ele>181</ele>
        <time>2026-03-14T04:48:58Z</time>
      </trkpt>
      <trkpt lat="46.72486" lon="2.44932">
        <ele>182</ele>
        <time>2026-03-14T04:49:05Z</time>
      </trkpt>
      <trkpt lat="46.72486" lon="2.44925">
        <ele>182.2</ele>
        <time>2026-03-14T04:49:06Z</time>
      </trkpt>
      <trkpt lat="46.72487" lon="2.44913">
        <ele>182.4</ele>
        <time>2026-03-14T04:49:08Z</time>
      </trkpt>
      <trkpt lat="46.72492" lon="2.44846">
        <ele>183</ele>
        <time>2026-03-14T04:49:17Z</time>
      </trkpt>
      <trkpt lat="46.72495" lon="2.44793">
        <ele>182.8</ele>
        <time>2026-03-14T04:49:23Z</time>
      </trkpt>
      <trkpt lat="46.72496" lon="2.44775">
        <ele>182.6</ele>
        <time>2026-03-14T04:49:25Z</time>
      </trkpt>
      <trkpt lat="46.72503" lon="2.44696">
        <ele>182.4</ele>
        <time>2026-03-14T04:49:34Z</time>
      </trkpt>
      <trkpt lat="46.72504" lon="2.4468">
        <ele>182.4</ele>
        <time>2026-03-14T04:49:36Z</time>
      </trkpt>
      <trkpt lat="46.72508" lon="2.44628">
        <ele>182.6</ele>
        <time>2026-03-14T04:49:42Z</time>
      </trkpt>
      <trkpt lat="46.72511" lon="2.44587">
        <ele>182.6</ele>
        <time>2026-03-14T04:49:47Z</time>
      </trkpt>
      <trkpt lat="46.72517" lon="2.44505">
        <ele>183</ele>
        <time>2026-03-14T04:49:57Z</time>
      </trkpt>
      <trkpt lat="46.72518" lon="2.44498">
        <ele>183</ele>
        <time>2026-03-14T04:49:58Z</time>
      </trkpt>
      <trkpt lat="46.7252" lon="2.44471">
        <ele>183</ele>
        <time>2026-03-14T04:50:01Z</time>
      </trkpt>
      <trkpt lat="46.7252" lon="2.44462">
        <ele>183.2</ele>
        <time>2026-03-14T04:50:02Z</time>
      </trkpt>
      <trkpt lat="46.72525" lon="2.44395">
        <ele>183.4</ele>
        <time>2026-03-14T04:50:10Z</time>
      </trkpt>
      <trkpt lat="46.72532" lon="2.44323">
        <ele>183.6</ele>
        <time>2026-03-14T04:50:19Z</time>
      </trkpt>
      <trkpt lat="46.72537" lon="2.44274">
        <ele>183.8</ele>
        <time>2026-03-14T04:50:25Z</time>
      </trkpt>
      <trkpt lat="46.72542" lon="2.44225">
        <ele>184</ele>
        <time>2026-03-14T04:50:31Z</time>
      </trkpt>
      <trkpt lat="46.72549" lon="2.44142">
        <ele>183.2</ele>
        <time>2026-03-14T04:50:40Z</time>
      </trkpt>
      <trkpt lat="46.72556" lon="2.44059">
        <ele>183</ele>
        <time>2026-03-14T04:50:49Z</time>
      </trkpt>
      <trkpt lat="46.72558" lon="2.44029">
        <ele>182.8</ele>
        <time>2026-03-14T04:50:52Z</time>
      </trkpt>
      <trkpt lat="46.7256" lon="2.44008">
        <ele>182.4</ele>
        <time>2026-03-14T04:50:54Z</time>
      </trkpt>
      <trkpt lat="46.72567" lon="2.43957">
        <ele>181.6</ele>
        <time>2026-03-14T04:50:59Z</time>
      </trkpt>
      <trkpt lat="46.72568" lon="2.43947">
        <ele>181.6</ele>
        <time>2026-03-14T04:51:00Z</time>
      </trkpt>
      <trkpt lat="46.72576" lon="2.43896">
        <ele>180.6</ele>
        <time>2026-03-14T04:51:05Z</time>
      </trkpt>
      <trkpt lat="46.72585" lon="2.43834">
        <ele>179.6</ele>
        <time>2026-03-14T04:51:11Z</time>
      </trkpt>
      <trkpt lat="46.72587" lon="2.43824">
        <ele>179.6</ele>
        <time>2026-03-14T04:51:12Z</time>
      </trkpt>
      <trkpt lat="46.72598" lon="2.43751">
        <ele>179.2</ele>
        <time>2026-03-14T04:51:20Z</time>
      </trkpt>
      <trkpt lat="46.72599" lon="2.43742">
        <ele>179.2</ele>
        <time>2026-03-14T04:51:21Z</time>
      </trkpt>
      <trkpt lat="46.72612" lon="2.43661">
        <ele>179.4</ele>
        <time>2026-03-14T04:51:30Z</time>
      </trkpt>
      <trkpt lat="46.72624" lon="2.43578">
        <ele>179.8</ele>
        <time>2026-03-14T04:51:40Z</time>
      </trkpt>
      <trkpt lat="46.72625" lon="2.43572">
        <ele>179.8</ele>
        <time>2026-03-14T04:51:41Z</time>
      </trkpt>
      <trkpt lat="46.72645" lon="2.43499">
        <ele>180</ele>
        <time>2026-03-14T04:51:50Z</time>
      </trkpt>
      <trkpt lat="46.72661" lon="2.43462">
        <ele>179.8</ele>
        <time>2026-03-14T04:51:55Z</time>
      </trkpt>
      <trkpt lat="46.72668" lon="2.4345">
        <ele>179.8</ele>
        <time>2026-03-14T04:51:57Z</time>
      </trkpt>
      <trkpt lat="46.72703" lon="2.43401">
        <ele>179.6</ele>
        <time>2026-03-14T04:52:05Z</time>
      </trkpt>
      <trkpt lat="46.72745" lon="2.43357">
        <ele>178.8</ele>
        <time>2026-03-14T04:52:13Z</time>
      </trkpt>
      <trkpt lat="46.72785" lon="2.43317">
        <ele>178.8</ele>
        <time>2026-03-14T04:52:21Z</time>
      </trkpt>
      <trkpt lat="46.72834" lon="2.43267">
        <ele>178.4</ele>
        <time>2026-03-14T04:52:30Z</time>
      </trkpt>
      <trkpt lat="46.7284" lon="2.43262">
        <ele>178.2</ele>
        <time>2026-03-14T04:52:31Z</time>
      </trkpt>
      <trkpt lat="46.72861" lon="2.43239">
        <ele>177.8</ele>
        <time>2026-03-14T04:52:35Z</time>
      </trkpt>
      <trkpt lat="46.72887" lon="2.43213">
        <ele>177.4</ele>
        <time>2026-03-14T04:52:40Z</time>
      </trkpt>
      <trkpt lat="46.7292" lon="2.43185">
        <ele>177.4</ele>
        <time>2026-03-14T04:52:46Z</time>
      </trkpt>
      <trkpt lat="46.7293" lon="2.43177">
        <ele>177.2</ele>
        <time>2026-03-14T04:52:48Z</time>
      </trkpt>
      <trkpt lat="46.72966" lon="2.43153">
        <ele>177.4</ele>
        <time>2026-03-14T04:52:55Z</time>
      </trkpt>
      <trkpt lat="46.72998" lon="2.4313">
        <ele>178.4</ele>
        <time>2026-03-14T04:53:02Z</time>
      </trkpt>
      <trkpt lat="46.73007" lon="2.43124">
        <ele>178.4</ele>
        <time>2026-03-14T04:53:04Z</time>
      </trkpt>
      <trkpt lat="46.73034" lon="2.43095">
        <ele>179.4</ele>
        <time>2026-03-14T04:53:11Z</time>
      </trkpt>
      <trkpt lat="46.73038" lon="2.4309">
        <ele>179.4</ele>
        <time>2026-03-14T04:53:12Z</time>
      </trkpt>
      <trkpt lat="46.73062" lon="2.43056">
        <ele>180</ele>
        <time>2026-03-14T04:53:19Z</time>
      </trkpt>
      <trkpt lat="46.73071" lon="2.4304">
        <ele>180.4</ele>
        <time>2026-03-14T04:53:22Z</time>
      </trkpt>
      <trkpt lat="46.73089" lon="2.43">
        <ele>180.8</ele>
        <time>2026-03-14T04:53:29Z</time>
      </trkpt>
      <trkpt lat="46.73107" lon="2.42934">
        <ele>181</ele>
        <time>2026-03-14T04:53:38Z</time>
      </trkpt>
      <trkpt lat="46.73114" lon="2.42883">
        <ele>180.6</ele>
        <time>2026-03-14T04:53:44Z</time>
      </trkpt>
      <trkpt lat="46.73116" lon="2.42819">
        <ele>179.6</ele>
        <time>2026-03-14T04:53:50Z</time>
      </trkpt>
      <trkpt lat="46.73114" lon="2.42793">
        <ele>179.2</ele>
        <time>2026-03-14T04:53:52Z</time>
      </trkpt>
      <trkpt lat="46.73113" lon="2.4276">
        <ele>178.2</ele>
        <time>2026-03-14T04:53:55Z</time>
      </trkpt>
      <trkpt lat="46.73111" lon="2.42733">
        <ele>177.6</ele>
        <time>2026-03-14T04:53:57Z</time>
      </trkpt>
      <trkpt lat="46.73109" lon="2.42697">
        <ele>177</ele>
        <time>2026-03-14T04:54:00Z</time>
      </trkpt>
      <trkpt lat="46.73108" lon="2.42664">
        <ele>175.8</ele>
        <time>2026-03-14T04:54:03Z</time>
      </trkpt>
      <trkpt lat="46.73106" lon="2.42628">
        <ele>175.2</ele>
        <time>2026-03-14T04:54:06Z</time>
      </trkpt>
      <trkpt lat="46.73104" lon="2.42588">
        <ele>174.8</ele>
        <time>2026-03-14T04:54:10Z</time>
      </trkpt>
      <trkpt lat="46.73103" lon="2.42545">
        <ele>174.4</ele>
        <time>2026-03-14T04:54:14Z</time>
      </trkpt>
      <trkpt lat="46.73101" lon="2.42481">
        <ele>174</ele>
        <time>2026-03-14T04:54:21Z</time>
      </trkpt>
      <trkpt lat="46.731" lon="2.42462">
        <ele>174</ele>
        <time>2026-03-14T04:54:23Z</time>
      </trkpt>
      <trkpt lat="46.73098" lon="2.42387">
        <ele>174.6</ele>
        <time>2026-03-14T04:54:32Z</time>
      </trkpt>
      <trkpt lat="46.73095" lon="2.42319">
        <ele>175.4</ele>
        <time>2026-03-14T04:54:41Z</time>
      </trkpt>
      <trkpt lat="46.73094" lon="2.42296">
        <ele>175.8</ele>
        <time>2026-03-14T04:54:44Z</time>
      </trkpt>
      <trkpt lat="46.73092" lon="2.42247">
        <ele>176.4</ele>
        <time>2026-03-14T04:54:51Z</time>
      </trkpt>
      <trkpt lat="46.73091" lon="2.42219">
        <ele>176.8</ele>
        <time>2026-03-14T04:54:55Z</time>
      </trkpt>
      <trkpt lat="46.73089" lon="2.42191">
        <ele>177.2</ele>
        <time>2026-03-14T04:54:59Z</time>
      </trkpt>
      <trkpt lat="46.73087" lon="2.42136">
        <ele>177.8</ele>
        <time>2026-03-14T04:55:07Z</time>
      </trkpt>
      <trkpt lat="46.73087" lon="2.42129">
        <ele>177.8</ele>
        <time>2026-03-14T04:55:08Z</time>
      </trkpt>
      <trkpt lat="46.73085" lon="2.42066">
        <ele>178.8</ele>
        <time>2026-03-14T04:55:18Z</time>
      </trkpt>
      <trkpt lat="46.73084" lon="2.42051">
        <ele>179</ele>
        <time>2026-03-14T04:55:20Z</time>
      </trkpt>
      <trkpt lat="46.73081" lon="2.41994">
        <ele>179.8</ele>
        <time>2026-03-14T04:55:29Z</time>
      </trkpt>
      <trkpt lat="46.73079" lon="2.41967">
        <ele>180</ele>
        <time>2026-03-14T04:55:33Z</time>
      </trkpt>
      <trkpt lat="46.73076" lon="2.4192">
        <ele>180.6</ele>
        <time>2026-03-14T04:55:40Z</time>
      </trkpt>
      <trkpt lat="46.73073" lon="2.41879">
        <ele>181</ele>
        <time>2026-03-14T04:55:46Z</time>
      </trkpt>
      <trkpt lat="46.73072" lon="2.41852">
        <ele>181.4</ele>
        <time>2026-03-14T04:55:50Z</time>
      </trkpt>
      <trkpt lat="46.73069" lon="2.41772">
        <ele>181.8</ele>
        <time>2026-03-14T04:56:01Z</time>
      </trkpt>
      <trkpt lat="46.73067" lon="2.41692">
        <ele>181.6</ele>
        <time>2026-03-14T04:56:11Z</time>
      </trkpt>
      <trkpt lat="46.73065" lon="2.41624">
        <ele>181.2</ele>
        <time>2026-03-14T04:56:19Z</time>
      </trkpt>
      <trkpt lat="46.73061" lon="2.41545">
        <ele>180.8</ele>
        <time>2026-03-14T04:56:28Z</time>
      </trkpt>
      <trkpt lat="46.7306" lon="2.41536">
        <ele>180.6</ele>
        <time>2026-03-14T04:56:29Z</time>
      </trkpt>
      <trkpt lat="46.73057" lon="2.41455">
        <ele>180</ele>
        <time>2026-03-14T04:56:38Z</time>
      </trkpt>
      <trkpt lat="46.73056" lon="2.41438">
        <ele>180</ele>
        <time>2026-03-14T04:56:40Z</time>
      </trkpt>
      <trkpt lat="46.73054" lon="2.41401">
        <ele>179.8</ele>
        <time>2026-03-14T04:56:44Z</time>
      </trkpt>
      <trkpt lat="46.73051" lon="2.41347">
        <ele>179.6</ele>
        <time>2026-03-14T04:56:50Z</time>
      </trkpt>
      <trkpt lat="46.73047" lon="2.41266">
        <ele>179.2</ele>
        <time>2026-03-14T04:56:59Z</time>
      </trkpt>
      <trkpt lat="46.73046" lon="2.4124">
        <ele>179.4</ele>
        <time>2026-03-14T04:57:02Z</time>
      </trkpt>
      <trkpt lat="46.73043" lon="2.41174">
        <ele>180</ele>
        <time>2026-03-14T04:57:10Z</time>
      </trkpt>
      <trkpt lat="46.7304" lon="2.4112">
        <ele>181</ele>
        <time>2026-03-14T04:57:17Z</time>
      </trkpt>
      <trkpt lat="46.7304" lon="2.41112">
        <ele>181</ele>
        <time>2026-03-14T04:57:18Z</time>
      </trkpt>
      <trkpt lat="46.73037" lon="2.41043">
        <ele>182</ele>
        <time>2026-03-14T04:57:27Z</time>
      </trkpt>
      <trkpt lat="46.73036" lon="2.41028">
        <ele>182.2</ele>
        <time>2026-03-14T04:57:29Z</time>
      </trkpt>
      <trkpt lat="46.73036" lon="2.40994">
        <ele>183</ele>
        <time>2026-03-14T04:57:34Z</time>
      </trkpt>
      <trkpt lat="46.73035" lon="2.40987">
        <ele>183.2</ele>
        <time>2026-03-14T04:57:35Z</time>
      </trkpt>
      <trkpt lat="46.73034" lon="2.4096">
        <ele>184</ele>
        <time>2026-03-14T04:57:39Z</time>
      </trkpt>
      <trkpt lat="46.73033" lon="2.40927">
        <ele>185</ele>
        <time>2026-03-14T04:57:44Z</time>
      </trkpt>
      <trkpt lat="46.73032" lon="2.40915">
        <ele>185.4</ele>
        <time>2026-03-14T04:57:46Z</time>
      </trkpt>
      <trkpt lat="46.73031" lon="2.40877">
        <ele>186.6</ele>
        <time>2026-03-14T04:57:52Z</time>
      </trkpt>
      <trkpt lat="46.7303" lon="2.40871">
        <ele>186.8</ele>
        <time>2026-03-14T04:57:53Z</time>
      </trkpt>
      <trkpt lat="46.73029" lon="2.40847">
        <ele>187.6</ele>
        <time>2026-03-14T04:57:57Z</time>
      </trkpt>
      <trkpt lat="46.73027" lon="2.40824">
        <ele>188.8</ele>
        <time>2026-03-14T04:58:01Z</time>
      </trkpt>
      <trkpt lat="46.73026" lon="2.40813">
        <ele>189</ele>
        <time>2026-03-14T04:58:03Z</time>
      </trkpt>
      <trkpt lat="46.73024" lon="2.4079">
        <ele>189.8</ele>
        <time>2026-03-14T04:58:07Z</time>
      </trkpt>
      <trkpt lat="46.73022" lon="2.40755">
        <ele>190.6</ele>
        <time>2026-03-14T04:58:13Z</time>
      </trkpt>
      <trkpt lat="46.73021" lon="2.40745">
        <ele>191</ele>
        <time>2026-03-14T04:58:15Z</time>
      </trkpt>
      <trkpt lat="46.73019" lon="2.40712">
        <ele>192.2</ele>
        <time>2026-03-14T04:58:21Z</time>
      </trkpt>
      <trkpt lat="46.73017" lon="2.40681">
        <ele>193.4</ele>
        <time>2026-03-14T04:58:26Z</time>
      </trkpt>
      <trkpt lat="46.73015" lon="2.40657">
        <ele>194</ele>
        <time>2026-03-14T04:58:30Z</time>
      </trkpt>
      <trkpt lat="46.73015" lon="2.40644">
        <ele>194.6</ele>
        <time>2026-03-14T04:58:32Z</time>
      </trkpt>
      <trkpt lat="46.73015" lon="2.40615">
        <ele>195.6</ele>
        <time>2026-03-14T04:58:37Z</time>
      </trkpt>
      <trkpt lat="46.73015" lon="2.40603">
        <ele>195.8</ele>
        <time>2026-03-14T04:58:39Z</time>
      </trkpt>
      <trkpt lat="46.73016" lon="2.4057">
        <ele>196.8</ele>
        <time>2026-03-14T04:58:44Z</time>
      </trkpt>
      <trkpt lat="46.73019" lon="2.40545">
        <ele>197.2</ele>
        <time>2026-03-14T04:58:48Z</time>
      </trkpt>
      <trkpt lat="46.73021" lon="2.40518">
        <ele>197.8</ele>
        <time>2026-03-14T04:58:52Z</time>
      </trkpt>
      <trkpt lat="46.73024" lon="2.40503">
        <ele>198</ele>
        <time>2026-03-14T04:58:54Z</time>
      </trkpt>
      <trkpt lat="46.73026" lon="2.40489">
        <ele>198.2</ele>
        <time>2026-03-14T04:58:56Z</time>
      </trkpt>
      <trkpt lat="46.73032" lon="2.40448">
        <ele>198.8</ele>
        <time>2026-03-14T04:59:02Z</time>
      </trkpt>
      <trkpt lat="46.73037" lon="2.40416">
        <ele>199</ele>
        <time>2026-03-14T04:59:06Z</time>
      </trkpt>
      <trkpt lat="46.73047" lon="2.40351">
        <ele>199.2</ele>
        <time>2026-03-14T04:59:14Z</time>
      </trkpt>
      <trkpt lat="46.73058" lon="2.40272">
        <ele>199.4</ele>
        <time>2026-03-14T04:59:24Z</time>
      </trkpt>
      <trkpt lat="46.73059" lon="2.40264">
        <ele>199.4</ele>
        <time>2026-03-14T04:59:25Z</time>
      </trkpt>
      <trkpt lat="46.7307" lon="2.40195">
        <ele>199.6</ele>
        <time>2026-03-14T04:59:34Z</time>
      </trkpt>
      <trkpt lat="46.73076" lon="2.40158">
        <ele>200</ele>
        <time>2026-03-14T04:59:39Z</time>
      </trkpt>
      <trkpt lat="46.73081" lon="2.40126">
        <ele>200.4</ele>
        <time>2026-03-14T04:59:44Z</time>
      </trkpt>
      <trkpt lat="46.73082" lon="2.40113">
        <ele>200.6</ele>
        <time>2026-03-14T04:59:46Z</time>
      </trkpt>
      <trkpt lat="46.73085" lon="2.40093">
        <ele>201</ele>
        <time>2026-03-14T04:59:49Z</time>
      </trkpt>
      <trkpt lat="46.7309" lon="2.40057">
        <ele>201.8</ele>
        <time>2026-03-14T04:59:55Z</time>
      </trkpt>
      <trkpt lat="46.73093" lon="2.40039">
        <ele>202.2</ele>
        <time>2026-03-14T04:59:58Z</time>
      </trkpt>
      <trkpt lat="46.73096" lon="2.40016">
        <ele>203.4</ele>
        <time>2026-03-14T05:00:02Z</time>
      </trkpt>
      <trkpt lat="46.73098" lon="2.39999">
        <ele>203.8</ele>
        <time>2026-03-14T05:00:05Z</time>
      </trkpt>
      <trkpt lat="46.73101" lon="2.39978">
        <ele>204.6</ele>
        <time>2026-03-14T05:00:09Z</time>
      </trkpt>
      <trkpt lat="46.73105" lon="2.39958">
        <ele>205.6</ele>
        <time>2026-03-14T05:00:13Z</time>
      </trkpt>
      <trkpt lat="46.73106" lon="2.39953">
        <ele>205.6</ele>
        <time>2026-03-14T05:00:14Z</time>
      </trkpt>
      <trkpt lat="46.7311" lon="2.39921">
        <ele>206.8</ele>
        <time>2026-03-14T05:00:20Z</time>
      </trkpt>
      <trkpt lat="46.73112" lon="2.39899">
        <ele>208</ele>
        <time>2026-03-14T05:00:24Z</time>
      </trkpt>
      <trkpt lat="46.73116" lon="2.39862">
        <ele>209.2</ele>
        <time>2026-03-14T05:00:31Z</time>
      </trkpt>
      <trkpt lat="46.73118" lon="2.39845">
        <ele>210</ele>
        <time>2026-03-14T05:00:34Z</time>
      </trkpt>
      <trkpt lat="46.73119" lon="2.39833">
        <ele>210.4</ele>
        <time>2026-03-14T05:00:36Z</time>
      </trkpt>
      <trkpt lat="46.73122" lon="2.39809">
        <ele>211.4</ele>
        <time>2026-03-14T05:00:40Z</time>
      </trkpt>
      <trkpt lat="46.73123" lon="2.39803">
        <ele>211.8</ele>
        <time>2026-03-14T05:00:41Z</time>
      </trkpt>
      <trkpt lat="46.73126" lon="2.39781">
        <ele>212.6</ele>
        <time>2026-03-14T05:00:45Z</time>
      </trkpt>
      <trkpt lat="46.73129" lon="2.3976">
        <ele>213.6</ele>
        <time>2026-03-14T05:00:50Z</time>
      </trkpt>
      <trkpt lat="46.73133" lon="2.39733">
        <ele>214.2</ele>
        <time>2026-03-14T05:00:54Z</time>
      </trkpt>
      <trkpt lat="46.73134" lon="2.39727">
        <ele>214.6</ele>
        <time>2026-03-14T05:00:56Z</time>
      </trkpt>
      <trkpt lat="46.7314" lon="2.39692">
        <ele>215.6</ele>
        <time>2026-03-14T05:01:02Z</time>
      </trkpt>
      <trkpt lat="46.73143" lon="2.39674">
        <ele>215.8</ele>
        <time>2026-03-14T05:01:04Z</time>
      </trkpt>
      <trkpt lat="46.73149" lon="2.39633">
        <ele>216.4</ele>
        <time>2026-03-14T05:01:11Z</time>
      </trkpt>
      <trkpt lat="46.7315" lon="2.39628">
        <ele>216.8</ele>
        <time>2026-03-14T05:01:13Z</time>
      </trkpt>
      <trkpt lat="46.73152" lon="2.39611">
        <ele>217</ele>
        <time>2026-03-14T05:01:15Z</time>
      </trkpt>
      <trkpt lat="46.73153" lon="2.39605">
        <ele>217.2</ele>
        <time>2026-03-14T05:01:16Z</time>
      </trkpt>
      <trkpt lat="46.73155" lon="2.39594">
        <ele>217.4</ele>
        <time>2026-03-14T05:01:18Z</time>
      </trkpt>
      <trkpt lat="46.73158" lon="2.39577">
        <ele>218.2</ele>
        <time>2026-03-14T05:01:22Z</time>
      </trkpt>
      <trkpt lat="46.73158" lon="2.39567">
        <ele>218.8</ele>
        <time>2026-03-14T05:01:24Z</time>
      </trkpt>
      <trkpt lat="46.7316" lon="2.3954">
        <ele>220</ele>
        <time>2026-03-14T05:01:29Z</time>
      </trkpt>
      <trkpt lat="46.73164" lon="2.39498">
        <ele>221.2</ele>
        <time>2026-03-14T05:01:36Z</time>
      </trkpt>
      <trkpt lat="46.73167" lon="2.39474">
        <ele>222.2</ele>
        <time>2026-03-14T05:01:42Z</time>
      </trkpt>
      <trkpt lat="46.73171" lon="2.39448">
        <ele>223.2</ele>
        <time>2026-03-14T05:01:47Z</time>
      </trkpt>
      <trkpt lat="46.73176" lon="2.39423">
        <ele>224.2</ele>
        <time>2026-03-14T05:01:51Z</time>
      </trkpt>
      <trkpt lat="46.73176" lon="2.39423">
        <ele>224.4</ele>
        <time>2026-03-14T05:01:52Z</time>
      </trkpt>
      <trkpt lat="46.73182" lon="2.39392">
        <ele>225.8</ele>
        <time>2026-03-14T05:01:58Z</time>
      </trkpt>
      <trkpt lat="46.73185" lon="2.39371">
        <ele>226.4</ele>
        <time>2026-03-14T05:02:01Z</time>
      </trkpt>
      <trkpt lat="46.73186" lon="2.39361">
        <ele>227</ele>
        <time>2026-03-14T05:02:04Z</time>
      </trkpt>
      <trkpt lat="46.73191" lon="2.39335">
        <ele>228</ele>
        <time>2026-03-14T05:02:09Z</time>
      </trkpt>
      <trkpt lat="46.73193" lon="2.39319">
        <ele>228.6</ele>
        <time>2026-03-14T05:02:11Z</time>
      </trkpt>
      <trkpt lat="46.73195" lon="2.39308">
        <ele>229.2</ele>
        <time>2026-03-14T05:02:14Z</time>
      </trkpt>
      <trkpt lat="46.73201" lon="2.39278">
        <ele>230.2</ele>
        <time>2026-03-14T05:02:20Z</time>
      </trkpt>
      <trkpt lat="46.73204" lon="2.39264">
        <ele>231.2</ele>
        <time>2026-03-14T05:02:23Z</time>
      </trkpt>
      <trkpt lat="46.73205" lon="2.39259">
        <ele>231.4</ele>
        <time>2026-03-14T05:02:24Z</time>
      </trkpt>
      <trkpt lat="46.73207" lon="2.39214">
        <ele>232.4</ele>
        <time>2026-03-14T05:02:31Z</time>
      </trkpt>
      <trkpt lat="46.73208" lon="2.39209">
        <ele>232.6</ele>
        <time>2026-03-14T05:02:32Z</time>
      </trkpt>
      <trkpt lat="46.73213" lon="2.39174">
        <ele>233.6</ele>
        <time>2026-03-14T05:02:39Z</time>
      </trkpt>
      <trkpt lat="46.73214" lon="2.39162">
        <ele>233.8</ele>
        <time>2026-03-14T05:02:41Z</time>
      </trkpt>
      <trkpt lat="46.73219" lon="2.39131">
        <ele>234.6</ele>
        <time>2026-03-14T05:02:46Z</time>
      </trkpt>
      <trkpt lat="46.73227" lon="2.39077">
        <ele>235.2</ele>
        <time>2026-03-14T05:02:54Z</time>
      </trkpt>
      <trkpt lat="46.73241" lon="2.38998">
        <ele>235.2</ele>
        <time>2026-03-14T05:03:03Z</time>
      </trkpt>
      <trkpt lat="46.73252" lon="2.38937">
        <ele>234.6</ele>
        <time>2026-03-14T05:03:11Z</time>
      </trkpt>
      <trkpt lat="46.73262" lon="2.38864">
        <ele>233.6</ele>
        <time>2026-03-14T05:03:19Z</time>
      </trkpt>
      <trkpt lat="46.73264" lon="2.38845">
        <ele>233.6</ele>
        <time>2026-03-14T05:03:21Z</time>
      </trkpt>
      <trkpt lat="46.73275" lon="2.38768">
        <ele>233</ele>
        <time>2026-03-14T05:03:28Z</time>
      </trkpt>
      <trkpt lat="46.73277" lon="2.38749">
        <ele>232.8</ele>
        <time>2026-03-14T05:03:31Z</time>
      </trkpt>
      <trkpt lat="46.73281" lon="2.38719">
        <ele>232.6</ele>
        <time>2026-03-14T05:03:33Z</time>
      </trkpt>
      <trkpt lat="46.73291" lon="2.38644">
        <ele>231.8</ele>
        <time>2026-03-14T05:03:42Z</time>
      </trkpt>
      <trkpt lat="46.73293" lon="2.38622">
        <ele>231.6</ele>
        <time>2026-03-14T05:03:44Z</time>
      </trkpt>
      <trkpt lat="46.73304" lon="2.38545">
        <ele>231</ele>
        <time>2026-03-14T05:03:52Z</time>
      </trkpt>
      <trkpt lat="46.73307" lon="2.38526">
        <ele>230.8</ele>
        <time>2026-03-14T05:03:54Z</time>
      </trkpt>
      <trkpt lat="46.73314" lon="2.38477">
        <ele>230.6</ele>
        <time>2026-03-14T05:03:58Z</time>
      </trkpt>
      <trkpt lat="46.73317" lon="2.38458">
        <ele>230.4</ele>
        <time>2026-03-14T05:04:02Z</time>
      </trkpt>
      <trkpt lat="46.73329" lon="2.38372">
        <ele>230.4</ele>
        <time>2026-03-14T05:04:09Z</time>
      </trkpt>
      <trkpt lat="46.73334" lon="2.38335">
        <ele>230</ele>
        <time>2026-03-14T05:04:13Z</time>
      </trkpt>
      <trkpt lat="46.73342" lon="2.38277">
        <ele>229.6</ele>
        <time>2026-03-14T05:04:19Z</time>
      </trkpt>
      <trkpt lat="46.73353" lon="2.38197">
        <ele>228.8</ele>
        <time>2026-03-14T05:04:28Z</time>
      </trkpt>
      <trkpt lat="46.73357" lon="2.38166">
        <ele>228.6</ele>
        <time>2026-03-14T05:04:31Z</time>
      </trkpt>
      <trkpt lat="46.73369" lon="2.38082">
        <ele>227.8</ele>
        <time>2026-03-14T05:04:38Z</time>
      </trkpt>
      <trkpt lat="46.7337" lon="2.38072">
        <ele>227.8</ele>
        <time>2026-03-14T05:04:39Z</time>
      </trkpt>
      <trkpt lat="46.73377" lon="2.38022">
        <ele>227.4</ele>
        <time>2026-03-14T05:04:44Z</time>
      </trkpt>
      <trkpt lat="46.73383" lon="2.37982">
        <ele>227.2</ele>
        <time>2026-03-14T05:04:48Z</time>
      </trkpt>
      <trkpt lat="46.73394" lon="2.37904">
        <ele>226.6</ele>
        <time>2026-03-14T05:04:56Z</time>
      </trkpt>
      <trkpt lat="46.73397" lon="2.37885">
        <ele>226.4</ele>
        <time>2026-03-14T05:04:58Z</time>
      </trkpt>
      <trkpt lat="46.73398" lon="2.37875">
        <ele>226.4</ele>
        <time>2026-03-14T05:04:59Z</time>
      </trkpt>
      <trkpt lat="46.7341" lon="2.37791">
        <ele>226.4</ele>
        <time>2026-03-14T05:05:08Z</time>
      </trkpt>
      <trkpt lat="46.73411" lon="2.37781">
        <ele>226.4</ele>
        <time>2026-03-14T05:05:09Z</time>
      </trkpt>
      <trkpt lat="46.73422" lon="2.37706">
        <ele>226.2</ele>
        <time>2026-03-14T05:05:17Z</time>
      </trkpt>
      <trkpt lat="46.73435" lon="2.37624">
        <ele>226.2</ele>
        <time>2026-03-14T05:05:26Z</time>
      </trkpt>
      <trkpt lat="46.73436" lon="2.37614">
        <ele>226.2</ele>
        <time>2026-03-14T05:05:27Z</time>
      </trkpt>
      <trkpt lat="46.73447" lon="2.37535">
        <ele>226.4</ele>
        <time>2026-03-14T05:05:36Z</time>
      </trkpt>
      <trkpt lat="46.73451" lon="2.37508">
        <ele>226.4</ele>
        <time>2026-03-14T05:05:39Z</time>
      </trkpt>
      <trkpt lat="46.73462" lon="2.37426">
        <ele>226.6</ele>
        <time>2026-03-14T05:05:48Z</time>
      </trkpt>
      <trkpt lat="46.73475" lon="2.37337">
        <ele>225.8</ele>
        <time>2026-03-14T05:05:57Z</time>
      </trkpt>
      <trkpt lat="46.73476" lon="2.37326">
        <ele>225.6</ele>
        <time>2026-03-14T05:05:58Z</time>
      </trkpt>
      <trkpt lat="46.73477" lon="2.37316">
        <ele>225.4</ele>
        <time>2026-03-14T05:06:00Z</time>
      </trkpt>
      <trkpt lat="46.73488" lon="2.37234">
        <ele>224.4</ele>
        <time>2026-03-14T05:06:07Z</time>
      </trkpt>
      <trkpt lat="46.7349" lon="2.37224">
        <ele>224.4</ele>
        <time>2026-03-14T05:06:08Z</time>
      </trkpt>
      <trkpt lat="46.73491" lon="2.37215">
        <ele>224.2</ele>
        <time>2026-03-14T05:06:09Z</time>
      </trkpt>
      <trkpt lat="46.735" lon="2.37148">
        <ele>224</ele>
        <time>2026-03-14T05:06:16Z</time>
      </trkpt>
      <trkpt lat="46.73512" lon="2.37062">
        <ele>224</ele>
        <time>2026-03-14T05:06:25Z</time>
      </trkpt>
      <trkpt lat="46.73513" lon="2.37053">
        <ele>223.8</ele>
        <time>2026-03-14T05:06:26Z</time>
      </trkpt>
      <trkpt lat="46.73524" lon="2.36972">
        <ele>224</ele>
        <time>2026-03-14T05:06:35Z</time>
      </trkpt>
      <trkpt lat="46.73534" lon="2.36905">
        <ele>224.4</ele>
        <time>2026-03-14T05:06:43Z</time>
      </trkpt>
      <trkpt lat="46.73544" lon="2.36833">
        <ele>224.8</ele>
        <time>2026-03-14T05:06:52Z</time>
      </trkpt>
      <trkpt lat="46.73556" lon="2.3675">
        <ele>225</ele>
        <time>2026-03-14T05:07:02Z</time>
      </trkpt>
      <trkpt lat="46.73557" lon="2.36741">
        <ele>225</ele>
        <time>2026-03-14T05:07:03Z</time>
      </trkpt>
      <trkpt lat="46.73568" lon="2.36661">
        <ele>224.8</ele>
        <time>2026-03-14T05:07:12Z</time>
      </trkpt>
      <trkpt lat="46.7357" lon="2.36652">
        <ele>224.8</ele>
        <time>2026-03-14T05:07:13Z</time>
      </trkpt>
      <trkpt lat="46.73581" lon="2.36578">
        <ele>224.6</ele>
        <time>2026-03-14T05:07:21Z</time>
      </trkpt>
      <trkpt lat="46.73594" lon="2.36491">
        <ele>224</ele>
        <time>2026-03-14T05:07:30Z</time>
      </trkpt>
      <trkpt lat="46.73597" lon="2.36472">
        <ele>223.8</ele>
        <time>2026-03-14T05:07:32Z</time>
      </trkpt>
      <trkpt lat="46.73606" lon="2.36403">
        <ele>223.2</ele>
        <time>2026-03-14T05:07:39Z</time>
      </trkpt>
      <trkpt lat="46.7361" lon="2.36373">
        <ele>223</ele>
        <time>2026-03-14T05:07:42Z</time>
      </trkpt>
      <trkpt lat="46.73622" lon="2.36294">
        <ele>222.4</ele>
        <time>2026-03-14T05:07:50Z</time>
      </trkpt>
      <trkpt lat="46.73624" lon="2.36274">
        <ele>222.2</ele>
        <time>2026-03-14T05:07:52Z</time>
      </trkpt>
      <trkpt lat="46.73626" lon="2.36264">
        <ele>222.2</ele>
        <time>2026-03-14T05:07:53Z</time>
      </trkpt>
      <trkpt lat="46.73637" lon="2.36184">
        <ele>221.4</ele>
        <time>2026-03-14T05:08:01Z</time>
      </trkpt>
      <trkpt lat="46.73645" lon="2.36133">
        <ele>221</ele>
        <time>2026-03-14T05:08:06Z</time>
      </trkpt>
      <trkpt lat="46.73656" lon="2.3606">
        <ele>220.2</ele>
        <time>2026-03-14T05:08:13Z</time>
      </trkpt>
      <trkpt lat="46.73657" lon="2.36049">
        <ele>220</ele>
        <time>2026-03-14T05:08:14Z</time>
      </trkpt>
      <trkpt lat="46.7367" lon="2.35965">
        <ele>219.2</ele>
        <time>2026-03-14T05:08:22Z</time>
      </trkpt>
      <trkpt lat="46.73672" lon="2.35954">
        <ele>219</ele>
        <time>2026-03-14T05:08:24Z</time>
      </trkpt>
      <trkpt lat="46.73685" lon="2.35869">
        <ele>218.4</ele>
        <time>2026-03-14T05:08:31Z</time>
      </trkpt>
      <trkpt lat="46.73687" lon="2.35858">
        <ele>218.2</ele>
        <time>2026-03-14T05:08:33Z</time>
      </trkpt>
      <trkpt lat="46.73694" lon="2.35815">
        <ele>217.8</ele>
        <time>2026-03-14T05:08:36Z</time>
      </trkpt>
      <trkpt lat="46.73702" lon="2.35758">
        <ele>216.8</ele>
        <time>2026-03-14T05:08:41Z</time>
      </trkpt>
      <trkpt lat="46.73704" lon="2.35747">
        <ele>216.6</ele>
        <time>2026-03-14T05:08:42Z</time>
      </trkpt>
      <trkpt lat="46.73713" lon="2.35678">
        <ele>215.4</ele>
        <time>2026-03-14T05:08:48Z</time>
      </trkpt>
      <trkpt lat="46.73718" lon="2.35646">
        <ele>215</ele>
        <time>2026-03-14T05:08:51Z</time>
      </trkpt>
      <trkpt lat="46.73723" lon="2.35613">
        <ele>214.4</ele>
        <time>2026-03-14T05:08:54Z</time>
      </trkpt>
      <trkpt lat="46.7373" lon="2.35559">
        <ele>214</ele>
        <time>2026-03-14T05:08:59Z</time>
      </trkpt>
      <trkpt lat="46.73736" lon="2.35506">
        <ele>213.4</ele>
        <time>2026-03-14T05:09:04Z</time>
      </trkpt>
      <trkpt lat="46.73743" lon="2.35456">
        <ele>213.2</ele>
        <time>2026-03-14T05:09:09Z</time>
      </trkpt>
      <trkpt lat="46.73755" lon="2.35376">
        <ele>213</ele>
        <time>2026-03-14T05:09:17Z</time>
      </trkpt>
      <trkpt lat="46.73756" lon="2.35366">
        <ele>213</ele>
        <time>2026-03-14T05:09:18Z</time>
      </trkpt>
      <trkpt lat="46.73766" lon="2.35284">
        <ele>212.6</ele>
        <time>2026-03-14T05:09:26Z</time>
      </trkpt>
      <trkpt lat="46.73771" lon="2.35253">
        <ele>212.4</ele>
        <time>2026-03-14T05:09:29Z</time>
      </trkpt>
      <trkpt lat="46.73774" lon="2.35232">
        <ele>212.2</ele>
        <time>2026-03-14T05:09:31Z</time>
      </trkpt>
      <trkpt lat="46.73786" lon="2.35145">
        <ele>211</ele>
        <time>2026-03-14T05:09:39Z</time>
      </trkpt>
      <trkpt lat="46.73789" lon="2.35123">
        <ele>210.6</ele>
        <time>2026-03-14T05:09:41Z</time>
      </trkpt>
      <trkpt lat="46.73797" lon="2.35068">
        <ele>209.8</ele>
        <time>2026-03-14T05:09:46Z</time>
      </trkpt>
      <trkpt lat="46.73805" lon="2.35012">
        <ele>209</ele>
        <time>2026-03-14T05:09:51Z</time>
      </trkpt>
      <trkpt lat="46.73808" lon="2.3499">
        <ele>208.6</ele>
        <time>2026-03-14T05:09:53Z</time>
      </trkpt>
      <trkpt lat="46.73818" lon="2.34925">
        <ele>207.6</ele>
        <time>2026-03-14T05:09:59Z</time>
      </trkpt>
      <trkpt lat="46.73832" lon="2.34839">
        <ele>206.8</ele>
        <time>2026-03-14T05:10:07Z</time>
      </trkpt>
      <trkpt lat="46.73836" lon="2.34816">
        <ele>206.6</ele>
        <time>2026-03-14T05:10:09Z</time>
      </trkpt>
      <trkpt lat="46.7384" lon="2.34786">
        <ele>206.6</ele>
        <time>2026-03-14T05:10:12Z</time>
      </trkpt>
      <trkpt lat="46.73848" lon="2.34734">
        <ele>206.2</ele>
        <time>2026-03-14T05:10:17Z</time>
      </trkpt>
      <trkpt lat="46.73859" lon="2.34661">
        <ele>206</ele>
        <time>2026-03-14T05:10:24Z</time>
      </trkpt>
      <trkpt lat="46.73871" lon="2.34575">
        <ele>205.8</ele>
        <time>2026-03-14T05:10:32Z</time>
      </trkpt>
      <trkpt lat="46.73879" lon="2.34522">
        <ele>205.4</ele>
        <time>2026-03-14T05:10:37Z</time>
      </trkpt>
      <trkpt lat="46.73881" lon="2.34512">
        <ele>205.4</ele>
        <time>2026-03-14T05:10:38Z</time>
      </trkpt>
      <trkpt lat="46.73893" lon="2.34426">
        <ele>204.6</ele>
        <time>2026-03-14T05:10:46Z</time>
      </trkpt>
      <trkpt lat="46.73901" lon="2.34376">
        <ele>204.4</ele>
        <time>2026-03-14T05:10:51Z</time>
      </trkpt>
      <trkpt lat="46.73907" lon="2.34336">
        <ele>204.4</ele>
        <time>2026-03-14T05:10:55Z</time>
      </trkpt>
      <trkpt lat="46.73914" lon="2.34278">
        <ele>204.2</ele>
        <time>2026-03-14T05:11:01Z</time>
      </trkpt>
      <trkpt lat="46.73924" lon="2.34193">
        <ele>204</ele>
        <time>2026-03-14T05:11:10Z</time>
      </trkpt>
      <trkpt lat="46.73936" lon="2.34111">
        <ele>204</ele>
        <time>2026-03-14T05:11:19Z</time>
      </trkpt>
      <trkpt lat="46.73937" lon="2.34102">
        <ele>204</ele>
        <time>2026-03-14T05:11:20Z</time>
      </trkpt>
      <trkpt lat="46.73948" lon="2.34029">
        <ele>204</ele>
        <time>2026-03-14T05:11:28Z</time>
      </trkpt>
      <trkpt lat="46.7396" lon="2.33947">
        <ele>203.8</ele>
        <time>2026-03-14T05:11:37Z</time>
      </trkpt>
      <trkpt lat="46.73961" lon="2.33938">
        <ele>203.8</ele>
        <time>2026-03-14T05:11:38Z</time>
      </trkpt>
      <trkpt lat="46.73972" lon="2.33867">
        <ele>203.4</ele>
        <time>2026-03-14T05:11:45Z</time>
      </trkpt>
      <trkpt lat="46.73976" lon="2.33836">
        <ele>203</ele>
        <time>2026-03-14T05:11:48Z</time>
      </trkpt>
      <trkpt lat="46.73986" lon="2.33773">
        <ele>202.4</ele>
        <time>2026-03-14T05:11:54Z</time>
      </trkpt>
      <trkpt lat="46.7399" lon="2.33742">
        <ele>201.8</ele>
        <time>2026-03-14T05:11:57Z</time>
      </trkpt>
      <trkpt lat="46.73995" lon="2.33709">
        <ele>201.2</ele>
        <time>2026-03-14T05:12:00Z</time>
      </trkpt>
      <trkpt lat="46.74002" lon="2.33662">
        <ele>200.6</ele>
        <time>2026-03-14T05:12:04Z</time>
      </trkpt>
      <trkpt lat="46.74005" lon="2.33642">
        <ele>199.8</ele>
        <time>2026-03-14T05:12:06Z</time>
      </trkpt>
      <trkpt lat="46.74017" lon="2.33561">
        <ele>198.8</ele>
        <time>2026-03-14T05:12:13Z</time>
      </trkpt>
      <trkpt lat="46.74018" lon="2.33552">
        <ele>198.8</ele>
        <time>2026-03-14T05:12:14Z</time>
      </trkpt>
      <trkpt lat="46.74031" lon="2.33471">
        <ele>197.8</ele>
        <time>2026-03-14T05:12:21Z</time>
      </trkpt>
      <trkpt lat="46.74035" lon="2.33449">
        <ele>197.2</ele>
        <time>2026-03-14T05:12:23Z</time>
      </trkpt>
      <trkpt lat="46.74046" lon="2.33377">
        <ele>196.6</ele>
        <time>2026-03-14T05:12:30Z</time>
      </trkpt>
      <trkpt lat="46.74051" lon="2.33344">
        <ele>196.4</ele>
        <time>2026-03-14T05:12:33Z</time>
      </trkpt>
      <trkpt lat="46.74062" lon="2.33263">
        <ele>196.4</ele>
        <time>2026-03-14T05:12:41Z</time>
      </trkpt>
      <trkpt lat="46.74066" lon="2.33232">
        <ele>196.2</ele>
        <time>2026-03-14T05:12:44Z</time>
      </trkpt>
      <trkpt lat="46.74078" lon="2.33155">
        <ele>196.4</ele>
        <time>2026-03-14T05:12:52Z</time>
      </trkpt>
      <trkpt lat="46.74085" lon="2.33101">
        <ele>196.6</ele>
        <time>2026-03-14T05:12:58Z</time>
      </trkpt>
      <trkpt lat="46.74095" lon="2.33031">
        <ele>197.8</ele>
        <time>2026-03-14T05:13:06Z</time>
      </trkpt>
      <trkpt lat="46.74098" lon="2.33014">
        <ele>198</ele>
        <time>2026-03-14T05:13:08Z</time>
      </trkpt>
      <trkpt lat="46.74106" lon="2.32954">
        <ele>198.8</ele>
        <time>2026-03-14T05:13:15Z</time>
      </trkpt>
      <trkpt lat="46.74111" lon="2.32919">
        <ele>199.2</ele>
        <time>2026-03-14T05:13:19Z</time>
      </trkpt>
      <trkpt lat="46.74114" lon="2.32896">
        <ele>199.6</ele>
        <time>2026-03-14T05:13:22Z</time>
      </trkpt>
      <trkpt lat="46.74118" lon="2.32869">
        <ele>199.8</ele>
        <time>2026-03-14T05:13:25Z</time>
      </trkpt>
      <trkpt lat="46.74133" lon="2.32789">
        <ele>200.4</ele>
        <time>2026-03-14T05:13:34Z</time>
      </trkpt>
      <trkpt lat="46.74143" lon="2.32717">
        <ele>200.2</ele>
        <time>2026-03-14T05:13:42Z</time>
      </trkpt>
      <trkpt lat="46.74156" lon="2.32637">
        <ele>200.2</ele>
        <time>2026-03-14T05:13:51Z</time>
      </trkpt>
      <trkpt lat="46.74157" lon="2.32626">
        <ele>200.2</ele>
        <time>2026-03-14T05:13:52Z</time>
      </trkpt>
      <trkpt lat="46.74159" lon="2.32608">
        <ele>200.2</ele>
        <time>2026-03-14T05:13:54Z</time>
      </trkpt>
      <trkpt lat="46.74163" lon="2.32572">
        <ele>200.4</ele>
        <time>2026-03-14T05:13:58Z</time>
      </trkpt>
      <trkpt lat="46.74168" lon="2.32537">
        <ele>200.4</ele>
        <time>2026-03-14T05:14:02Z</time>
      </trkpt>
      <trkpt lat="46.74172" lon="2.32509">
        <ele>200.6</ele>
        <time>2026-03-14T05:14:05Z</time>
      </trkpt>
      <trkpt lat="46.74182" lon="2.32453">
        <ele>200.4</ele>
        <time>2026-03-14T05:14:11Z</time>
      </trkpt>
      <trkpt lat="46.74185" lon="2.32428">
        <ele>200.4</ele>
        <time>2026-03-14T05:14:14Z</time>
      </trkpt>
      <trkpt lat="46.7419" lon="2.32383">
        <ele>200.6</ele>
        <time>2026-03-14T05:14:19Z</time>
      </trkpt>
      <trkpt lat="46.74198" lon="2.32313">
        <ele>201.2</ele>
        <time>2026-03-14T05:14:27Z</time>
      </trkpt>
      <trkpt lat="46.74208" lon="2.32262">
        <ele>201.2</ele>
        <time>2026-03-14T05:14:32Z</time>
      </trkpt>
      <trkpt lat="46.74223" lon="2.32174">
        <ele>200.4</ele>
        <time>2026-03-14T05:14:40Z</time>
      </trkpt>
      <trkpt lat="46.74224" lon="2.32163">
        <ele>200.2</ele>
        <time>2026-03-14T05:14:41Z</time>
      </trkpt>
      <trkpt lat="46.74232" lon="2.32106">
        <ele>198.8</ele>
        <time>2026-03-14T05:14:46Z</time>
      </trkpt>
      <trkpt lat="46.7424" lon="2.32055">
        <ele>197.4</ele>
        <time>2026-03-14T05:14:50Z</time>
      </trkpt>
      <trkpt lat="46.74245" lon="2.3202">
        <ele>196.4</ele>
        <time>2026-03-14T05:14:53Z</time>
      </trkpt>
      <trkpt lat="46.74247" lon="2.32005">
        <ele>196</ele>
        <time>2026-03-14T05:14:54Z</time>
      </trkpt>
      <trkpt lat="46.74251" lon="2.31981">
        <ele>195.2</ele>
        <time>2026-03-14T05:14:56Z</time>
      </trkpt>
      <trkpt lat="46.7426" lon="2.31926">
        <ele>193.8</ele>
        <time>2026-03-14T05:15:01Z</time>
      </trkpt>
      <trkpt lat="46.7427" lon="2.31856">
        <ele>193</ele>
        <time>2026-03-14T05:15:07Z</time>
      </trkpt>
      <trkpt lat="46.74273" lon="2.31834">
        <ele>192.8</ele>
        <time>2026-03-14T05:15:09Z</time>
      </trkpt>
      <trkpt lat="46.74281" lon="2.3178">
        <ele>191.8</ele>
        <time>2026-03-14T05:15:14Z</time>
      </trkpt>
      <trkpt lat="46.74284" lon="2.31761">
        <ele>191.6</ele>
        <time>2026-03-14T05:15:16Z</time>
      </trkpt>
      <trkpt lat="46.74297" lon="2.31679">
        <ele>190.6</ele>
        <time>2026-03-14T05:15:24Z</time>
      </trkpt>
      <trkpt lat="46.74309" lon="2.31598">
        <ele>190.4</ele>
        <time>2026-03-14T05:15:32Z</time>
      </trkpt>
      <trkpt lat="46.74311" lon="2.31581">
        <ele>190.4</ele>
        <time>2026-03-14T05:15:34Z</time>
      </trkpt>
      <trkpt lat="46.74322" lon="2.31509">
        <ele>189.8</ele>
        <time>2026-03-14T05:15:41Z</time>
      </trkpt>
      <trkpt lat="46.74334" lon="2.31428">
        <ele>191.6</ele>
        <time>2026-03-14T05:15:49Z</time>
      </trkpt>
      <trkpt lat="46.74338" lon="2.31399">
        <ele>189.8</ele>
        <time>2026-03-14T05:15:52Z</time>
      </trkpt>
      <trkpt lat="46.74345" lon="2.31355">
        <ele>189.2</ele>
        <time>2026-03-14T05:15:56Z</time>
      </trkpt>
      <trkpt lat="46.7435" lon="2.31324">
        <ele>189</ele>
        <time>2026-03-14T05:15:59Z</time>
      </trkpt>
      <trkpt lat="46.74359" lon="2.31259">
        <ele>188.2</ele>
        <time>2026-03-14T05:16:05Z</time>
      </trkpt>
      <trkpt lat="46.74362" lon="2.3124">
        <ele>188</ele>
        <time>2026-03-14T05:16:07Z</time>
      </trkpt>
      <trkpt lat="46.74367" lon="2.31207">
        <ele>187.2</ele>
        <time>2026-03-14T05:16:10Z</time>
      </trkpt>
      <trkpt lat="46.74378" lon="2.31129">
        <ele>186.2</ele>
        <time>2026-03-14T05:16:17Z</time>
      </trkpt>
      <trkpt lat="46.7438" lon="2.31118">
        <ele>186</ele>
        <time>2026-03-14T05:16:18Z</time>
      </trkpt>
      <trkpt lat="46.74383" lon="2.31099">
        <ele>185.6</ele>
        <time>2026-03-14T05:16:20Z</time>
      </trkpt>
      <trkpt lat="46.74391" lon="2.31044">
        <ele>185</ele>
        <time>2026-03-14T05:16:25Z</time>
      </trkpt>
      <trkpt lat="46.744" lon="2.30987">
        <ele>184</ele>
        <time>2026-03-14T05:16:30Z</time>
      </trkpt>
      <trkpt lat="46.74404" lon="2.30963">
        <ele>183.8</ele>
        <time>2026-03-14T05:16:32Z</time>
      </trkpt>
      <trkpt lat="46.74413" lon="2.30898">
        <ele>182.6</ele>
        <time>2026-03-14T05:16:38Z</time>
      </trkpt>
      <trkpt lat="46.74419" lon="2.30858">
        <ele>182.4</ele>
        <time>2026-03-14T05:16:42Z</time>
      </trkpt>
      <trkpt lat="46.74433" lon="2.30771">
        <ele>182.4</ele>
        <time>2026-03-14T05:16:51Z</time>
      </trkpt>
      <trkpt lat="46.74446" lon="2.30685">
        <ele>182.6</ele>
        <time>2026-03-14T05:17:00Z</time>
      </trkpt>
      <trkpt lat="46.74447" lon="2.30676">
        <ele>182.6</ele>
        <time>2026-03-14T05:17:01Z</time>
      </trkpt>
      <trkpt lat="46.7446" lon="2.30593">
        <ele>182.8</ele>
        <time>2026-03-14T05:17:10Z</time>
      </trkpt>
      <trkpt lat="46.74462" lon="2.30585">
        <ele>182.8</ele>
        <time>2026-03-14T05:17:11Z</time>
      </trkpt>
      <trkpt lat="46.74473" lon="2.30501">
        <ele>183</ele>
        <time>2026-03-14T05:17:20Z</time>
      </trkpt>
      <trkpt lat="46.7448" lon="2.30425">
        <ele>183</ele>
        <time>2026-03-14T05:17:28Z</time>
      </trkpt>
      <trkpt lat="46.74486" lon="2.3035">
        <ele>182.8</ele>
        <time>2026-03-14T05:17:36Z</time>
      </trkpt>
      <trkpt lat="46.74492" lon="2.30268">
        <ele>183</ele>
        <time>2026-03-14T05:17:45Z</time>
      </trkpt>
      <trkpt lat="46.74493" lon="2.30251">
        <ele>183</ele>
        <time>2026-03-14T05:17:47Z</time>
      </trkpt>
      <trkpt lat="46.745" lon="2.30174">
        <ele>183.4</ele>
        <time>2026-03-14T05:17:56Z</time>
      </trkpt>
      <trkpt lat="46.74501" lon="2.30157">
        <ele>183.4</ele>
        <time>2026-03-14T05:17:58Z</time>
      </trkpt>
      <trkpt lat="46.74505" lon="2.30103">
        <ele>183.8</ele>
        <time>2026-03-14T05:18:04Z</time>
      </trkpt>
      <trkpt lat="46.74511" lon="2.30022">
        <ele>184.2</ele>
        <time>2026-03-14T05:18:13Z</time>
      </trkpt>
      <trkpt lat="46.74512" lon="2.30012">
        <ele>184.2</ele>
        <time>2026-03-14T05:18:14Z</time>
      </trkpt>
      <trkpt lat="46.74516" lon="2.29949">
        <ele>183.8</ele>
        <time>2026-03-14T05:18:20Z</time>
      </trkpt>
      <trkpt lat="46.74522" lon="2.29875">
        <ele>182.8</ele>
        <time>2026-03-14T05:18:27Z</time>
      </trkpt>
      <trkpt lat="46.74526" lon="2.29833">
        <ele>182.2</ele>
        <time>2026-03-14T05:18:31Z</time>
      </trkpt>
      <trkpt lat="46.74531" lon="2.2976">
        <ele>181.4</ele>
        <time>2026-03-14T05:18:38Z</time>
      </trkpt>
      <trkpt lat="46.74532" lon="2.29738">
        <ele>181</ele>
        <time>2026-03-14T05:18:40Z</time>
      </trkpt>
      <trkpt lat="46.74539" lon="2.29653">
        <ele>180.4</ele>
        <time>2026-03-14T05:18:48Z</time>
      </trkpt>
      <trkpt lat="46.7454" lon="2.29643">
        <ele>180.2</ele>
        <time>2026-03-14T05:18:49Z</time>
      </trkpt>
      <trkpt lat="46.74541" lon="2.29622">
        <ele>180</ele>
        <time>2026-03-14T05:18:51Z</time>
      </trkpt>
      <trkpt lat="46.74547" lon="2.29544">
        <ele>179.8</ele>
        <time>2026-03-14T05:18:59Z</time>
      </trkpt>
      <trkpt lat="46.74555" lon="2.2946">
        <ele>179.8</ele>
        <time>2026-03-14T05:19:08Z</time>
      </trkpt>
      <trkpt lat="46.7456" lon="2.2938">
        <ele>180.4</ele>
        <time>2026-03-14T05:19:17Z</time>
      </trkpt>
      <trkpt lat="46.74565" lon="2.29305">
        <ele>181.2</ele>
        <time>2026-03-14T05:19:26Z</time>
      </trkpt>
      <trkpt lat="46.74569" lon="2.29259">
        <ele>182.2</ele>
        <time>2026-03-14T05:19:32Z</time>
      </trkpt>
      <trkpt lat="46.74569" lon="2.29253">
        <ele>182.2</ele>
        <time>2026-03-14T05:19:33Z</time>
      </trkpt>
      <trkpt lat="46.7457" lon="2.29246">
        <ele>182.4</ele>
        <time>2026-03-14T05:19:34Z</time>
      </trkpt>
      <trkpt lat="46.74574" lon="2.29199">
        <ele>183.2</ele>
        <time>2026-03-14T05:19:40Z</time>
      </trkpt>
      <trkpt lat="46.74575" lon="2.29191">
        <ele>183.2</ele>
        <time>2026-03-14T05:19:41Z</time>
      </trkpt>
      <trkpt lat="46.74577" lon="2.29178">
        <ele>183.4</ele>
        <time>2026-03-14T05:19:43Z</time>
      </trkpt>
      <trkpt lat="46.74579" lon="2.29154">
        <ele>184</ele>
        <time>2026-03-14T05:19:46Z</time>
      </trkpt>
      <trkpt lat="46.74579" lon="2.29148">
        <ele>184</ele>
        <time>2026-03-14T05:19:47Z</time>
      </trkpt>
      <trkpt lat="46.74582" lon="2.29116">
        <ele>184.6</ele>
        <time>2026-03-14T05:19:51Z</time>
      </trkpt>
      <trkpt lat="46.74584" lon="2.29094">
        <ele>184.8</ele>
        <time>2026-03-14T05:19:54Z</time>
      </trkpt>
      <trkpt lat="46.74587" lon="2.29057">
        <ele>185.6</ele>
        <time>2026-03-14T05:19:59Z</time>
      </trkpt>
      <trkpt lat="46.74591" lon="2.29011">
        <ele>186.4</ele>
        <time>2026-03-14T05:20:05Z</time>
      </trkpt>
      <trkpt lat="46.74591" lon="2.29002">
        <ele>186.6</ele>
        <time>2026-03-14T05:20:06Z</time>
      </trkpt>
      <trkpt lat="46.74596" lon="2.28944">
        <ele>187</ele>
        <time>2026-03-14T05:20:13Z</time>
      </trkpt>
      <trkpt lat="46.74603" lon="2.2886">
        <ele>187.4</ele>
        <time>2026-03-14T05:20:23Z</time>
      </trkpt>
      <trkpt lat="46.74609" lon="2.28772">
        <ele>187.6</ele>
        <time>2026-03-14T05:20:33Z</time>
      </trkpt>
      <trkpt lat="46.74615" lon="2.28693">
        <ele>187.6</ele>
        <time>2026-03-14T05:20:42Z</time>
      </trkpt>
      <trkpt lat="46.74615" lon="2.28686">
        <ele>187.6</ele>
        <time>2026-03-14T05:20:43Z</time>
      </trkpt>
      <trkpt lat="46.74617" lon="2.28669">
        <ele>187.8</ele>
        <time>2026-03-14T05:20:45Z</time>
      </trkpt>
      <trkpt lat="46.74622" lon="2.28617">
        <ele>188</ele>
        <time>2026-03-14T05:20:51Z</time>
      </trkpt>
      <trkpt lat="46.74627" lon="2.28543">
        <ele>188.2</ele>
        <time>2026-03-14T05:20:59Z</time>
      </trkpt>
      <trkpt lat="46.74634" lon="2.28464">
        <ele>188</ele>
        <time>2026-03-14T05:21:07Z</time>
      </trkpt>
      <trkpt lat="46.74635" lon="2.28453">
        <ele>187.8</ele>
        <time>2026-03-14T05:21:08Z</time>
      </trkpt>
      <trkpt lat="46.7464" lon="2.28379">
        <ele>186.6</ele>
        <time>2026-03-14T05:21:15Z</time>
      </trkpt>
      <trkpt lat="46.74642" lon="2.28347">
        <ele>186</ele>
        <time>2026-03-14T05:21:18Z</time>
      </trkpt>
      <trkpt lat="46.74645" lon="2.28315">
        <ele>185.4</ele>
        <time>2026-03-14T05:21:21Z</time>
      </trkpt>
      <trkpt lat="46.74652" lon="2.28233">
        <ele>184.6</ele>
        <time>2026-03-14T05:21:29Z</time>
      </trkpt>
      <trkpt lat="46.74653" lon="2.28221">
        <ele>184.6</ele>
        <time>2026-03-14T05:21:30Z</time>
      </trkpt>
      <trkpt lat="46.74657" lon="2.2817">
        <ele>184.8</ele>
        <time>2026-03-14T05:21:36Z</time>
      </trkpt>
      <trkpt lat="46.7466" lon="2.28124">
        <ele>185.4</ele>
        <time>2026-03-14T05:21:42Z</time>
      </trkpt>
      <trkpt lat="46.74664" lon="2.2808">
        <ele>186.8</ele>
        <time>2026-03-14T05:21:48Z</time>
      </trkpt>
      <trkpt lat="46.7467" lon="2.28024">
        <ele>187.8</ele>
        <time>2026-03-14T05:21:56Z</time>
      </trkpt>
      <trkpt lat="46.7467" lon="2.28016">
        <ele>187.8</ele>
        <time>2026-03-14T05:21:57Z</time>
      </trkpt>
      <trkpt lat="46.74674" lon="2.27957">
        <ele>189</ele>
        <time>2026-03-14T05:22:05Z</time>
      </trkpt>
      <trkpt lat="46.74675" lon="2.27949">
        <ele>189</ele>
        <time>2026-03-14T05:22:06Z</time>
      </trkpt>
      <trkpt lat="46.74681" lon="2.27881">
        <ele>189</ele>
        <time>2026-03-14T05:22:14Z</time>
      </trkpt>
      <trkpt lat="46.74686" lon="2.27821">
        <ele>188.4</ele>
        <time>2026-03-14T05:22:20Z</time>
      </trkpt>
      <trkpt lat="46.74688" lon="2.27788">
        <ele>187.8</ele>
        <time>2026-03-14T05:22:23Z</time>
      </trkpt>
      <trkpt lat="46.74692" lon="2.27745">
        <ele>187.4</ele>
        <time>2026-03-14T05:22:27Z</time>
      </trkpt>
      <trkpt lat="46.74695" lon="2.27714">
        <ele>186.8</ele>
        <time>2026-03-14T05:22:30Z</time>
      </trkpt>
      <trkpt lat="46.74699" lon="2.2766">
        <ele>185.6</ele>
        <time>2026-03-14T05:22:35Z</time>
      </trkpt>
      <trkpt lat="46.74701" lon="2.2764">
        <ele>185.4</ele>
        <time>2026-03-14T05:22:37Z</time>
      </trkpt>
      <trkpt lat="46.74708" lon="2.27554">
        <ele>185.2</ele>
        <time>2026-03-14T05:22:46Z</time>
      </trkpt>
      <trkpt lat="46.74714" lon="2.27476">
        <ele>185.4</ele>
        <time>2026-03-14T05:22:55Z</time>
      </trkpt>
      <trkpt lat="46.74719" lon="2.27413">
        <ele>186.4</ele>
        <time>2026-03-14T05:23:03Z</time>
      </trkpt>
      <trkpt lat="46.7472" lon="2.27406">
        <ele>186.6</ele>
        <time>2026-03-14T05:23:04Z</time>
      </trkpt>
      <trkpt lat="46.7472" lon="2.27398">
        <ele>186.6</ele>
        <time>2026-03-14T05:23:05Z</time>
      </trkpt>
      <trkpt lat="46.74723" lon="2.27377">
        <ele>186.8</ele>
        <time>2026-03-14T05:23:08Z</time>
      </trkpt>
      <trkpt lat="46.74724" lon="2.27349">
        <ele>187.2</ele>
        <time>2026-03-14T05:23:12Z</time>
      </trkpt>
      <trkpt lat="46.74728" lon="2.27318">
        <ele>187.8</ele>
        <time>2026-03-14T05:23:16Z</time>
      </trkpt>
      <trkpt lat="46.74729" lon="2.273">
        <ele>187.8</ele>
        <time>2026-03-14T05:23:18Z</time>
      </trkpt>
      <trkpt lat="46.74735" lon="2.27235">
        <ele>188</ele>
        <time>2026-03-14T05:23:26Z</time>
      </trkpt>
      <trkpt lat="46.74741" lon="2.27149">
        <ele>188.2</ele>
        <time>2026-03-14T05:23:36Z</time>
      </trkpt>
      <trkpt lat="46.74748" lon="2.27075">
        <ele>188.2</ele>
        <time>2026-03-14T05:23:45Z</time>
      </trkpt>
      <trkpt lat="46.74754" lon="2.27003">
        <ele>188.4</ele>
        <time>2026-03-14T05:23:54Z</time>
      </trkpt>
      <trkpt lat="46.74759" lon="2.26941">
        <ele>189</ele>
        <time>2026-03-14T05:24:02Z</time>
      </trkpt>
      <trkpt lat="46.74761" lon="2.26918">
        <ele>189.2</ele>
        <time>2026-03-14T05:24:05Z</time>
      </trkpt>
      <trkpt lat="46.74768" lon="2.2684">
        <ele>189.6</ele>
        <time>2026-03-14T05:24:14Z</time>
      </trkpt>
      <trkpt lat="46.74774" lon="2.26767">
        <ele>188.4</ele>
        <time>2026-03-14T05:24:22Z</time>
      </trkpt>
      <trkpt lat="46.74778" lon="2.26716">
        <ele>187.8</ele>
        <time>2026-03-14T05:24:27Z</time>
      </trkpt>
      <trkpt lat="46.74782" lon="2.26675">
        <ele>187.2</ele>
        <time>2026-03-14T05:24:31Z</time>
      </trkpt>
      <trkpt lat="46.74784" lon="2.26652">
        <ele>186.8</ele>
        <time>2026-03-14T05:24:33Z</time>
      </trkpt>
      <trkpt lat="46.74792" lon="2.26566">
        <ele>185.8</ele>
        <time>2026-03-14T05:24:42Z</time>
      </trkpt>
      <trkpt lat="46.74792" lon="2.26557">
        <ele>185.8</ele>
        <time>2026-03-14T05:24:43Z</time>
      </trkpt>
      <trkpt lat="46.74799" lon="2.26478">
        <ele>185.8</ele>
        <time>2026-03-14T05:24:52Z</time>
      </trkpt>
      <trkpt lat="46.74806" lon="2.26399">
        <ele>185.8</ele>
        <time>2026-03-14T05:25:01Z</time>
      </trkpt>
      <trkpt lat="46.74811" lon="2.26341">
        <ele>185.4</ele>
        <time>2026-03-14T05:25:07Z</time>
      </trkpt>
      <trkpt lat="46.74814" lon="2.26298">
        <ele>185.4</ele>
        <time>2026-03-14T05:25:12Z</time>
      </trkpt>
      <trkpt lat="46.74822" lon="2.26211">
        <ele>185</ele>
        <time>2026-03-14T05:25:21Z</time>
      </trkpt>
      <trkpt lat="46.74825" lon="2.26181">
        <ele>184.4</ele>
        <time>2026-03-14T05:25:24Z</time>
      </trkpt>
      <trkpt lat="46.7483" lon="2.26119">
        <ele>183.4</ele>
        <time>2026-03-14T05:25:30Z</time>
      </trkpt>
      <trkpt lat="46.74831" lon="2.261">
        <ele>183.2</ele>
        <time>2026-03-14T05:25:32Z</time>
      </trkpt>
      <trkpt lat="46.74838" lon="2.26015">
        <ele>182.2</ele>
        <time>2026-03-14T05:25:40Z</time>
      </trkpt>
      <trkpt lat="46.74839" lon="2.26005">
        <ele>182.2</ele>
        <time>2026-03-14T05:25:41Z</time>
      </trkpt>
      <trkpt lat="46.74846" lon="2.25922">
        <ele>181.6</ele>
        <time>2026-03-14T05:25:49Z</time>
      </trkpt>
      <trkpt lat="46.74848" lon="2.25905">
        <ele>181.6</ele>
        <time>2026-03-14T05:25:51Z</time>
      </trkpt>
      <trkpt lat="46.74854" lon="2.25823">
        <ele>181.6</ele>
        <time>2026-03-14T05:26:00Z</time>
      </trkpt>
      <trkpt lat="46.74855" lon="2.25813">
        <ele>181.6</ele>
        <time>2026-03-14T05:26:01Z</time>
      </trkpt>
      <trkpt lat="46.74862" lon="2.2574">
        <ele>182.6</ele>
        <time>2026-03-14T05:26:10Z</time>
      </trkpt>
      <trkpt lat="46.74867" lon="2.2568">
        <ele>183.2</ele>
        <time>2026-03-14T05:26:17Z</time>
      </trkpt>
      <trkpt lat="46.7487" lon="2.25646">
        <ele>183.4</ele>
        <time>2026-03-14T05:26:21Z</time>
      </trkpt>
      <trkpt lat="46.74877" lon="2.25563">
        <ele>183.4</ele>
        <time>2026-03-14T05:26:30Z</time>
      </trkpt>
      <trkpt lat="46.74879" lon="2.25535">
        <ele>183.4</ele>
        <time>2026-03-14T05:26:33Z</time>
      </trkpt>
      <trkpt lat="46.74887" lon="2.25451">
        <ele>182.6</ele>
        <time>2026-03-14T05:26:41Z</time>
      </trkpt>
      <trkpt lat="46.7489" lon="2.25418">
        <ele>182.2</ele>
        <time>2026-03-14T05:26:44Z</time>
      </trkpt>
      <trkpt lat="46.74897" lon="2.25337">
        <ele>181</ele>
        <time>2026-03-14T05:26:52Z</time>
      </trkpt>
      <trkpt lat="46.74899" lon="2.25316">
        <ele>180.8</ele>
        <time>2026-03-14T05:26:54Z</time>
      </trkpt>
      <trkpt lat="46.74906" lon="2.2524">
        <ele>180.4</ele>
        <time>2026-03-14T05:27:02Z</time>
      </trkpt>
      <trkpt lat="46.74912" lon="2.25171">
        <ele>180.4</ele>
        <time>2026-03-14T05:27:10Z</time>
      </trkpt>
      <trkpt lat="46.74918" lon="2.25109">
        <ele>180.6</ele>
        <time>2026-03-14T05:27:17Z</time>
      </trkpt>
      <trkpt lat="46.74925" lon="2.25029">
        <ele>180.6</ele>
        <time>2026-03-14T05:27:26Z</time>
      </trkpt>
      <trkpt lat="46.74927" lon="2.25004">
        <ele>180.6</ele>
        <time>2026-03-14T05:27:29Z</time>
      </trkpt>
      <trkpt lat="46.74935" lon="2.2492">
        <ele>180.4</ele>
        <time>2026-03-14T05:27:38Z</time>
      </trkpt>
      <trkpt lat="46.74942" lon="2.24838">
        <ele>180.4</ele>
        <time>2026-03-14T05:27:47Z</time>
      </trkpt>
      <trkpt lat="46.74943" lon="2.24827">
        <ele>180.4</ele>
        <time>2026-03-14T05:27:48Z</time>
      </trkpt>
      <trkpt lat="46.74949" lon="2.24757">
        <ele>181.6</ele>
        <time>2026-03-14T05:27:57Z</time>
      </trkpt>
      <trkpt lat="46.74954" lon="2.24704">
        <ele>182</ele>
        <time>2026-03-14T05:28:04Z</time>
      </trkpt>
      <trkpt lat="46.74955" lon="2.24698">
        <ele>182.2</ele>
        <time>2026-03-14T05:28:05Z</time>
      </trkpt>
      <trkpt lat="46.7496" lon="2.24638">
        <ele>182.8</ele>
        <time>2026-03-14T05:28:13Z</time>
      </trkpt>
      <trkpt lat="46.74962" lon="2.24616">
        <ele>183.2</ele>
        <time>2026-03-14T05:28:16Z</time>
      </trkpt>
      <trkpt lat="46.74965" lon="2.24588">
        <ele>183.6</ele>
        <time>2026-03-14T05:28:20Z</time>
      </trkpt>
      <trkpt lat="46.74968" lon="2.24553">
        <ele>184.2</ele>
        <time>2026-03-14T05:28:25Z</time>
      </trkpt>
      <trkpt lat="46.7497" lon="2.24537">
        <ele>184.6</ele>
        <time>2026-03-14T05:28:27Z</time>
      </trkpt>
      <trkpt lat="46.74975" lon="2.2448">
        <ele>185.4</ele>
        <time>2026-03-14T05:28:35Z</time>
      </trkpt>
      <trkpt lat="46.7498" lon="2.24418">
        <ele>186.2</ele>
        <time>2026-03-14T05:28:44Z</time>
      </trkpt>
      <trkpt lat="46.74981" lon="2.2441">
        <ele>186.4</ele>
        <time>2026-03-14T05:28:45Z</time>
      </trkpt>
      <trkpt lat="46.74986" lon="2.24345">
        <ele>187</ele>
        <time>2026-03-14T05:28:54Z</time>
      </trkpt>
      <trkpt lat="46.74988" lon="2.24324">
        <ele>187.4</ele>
        <time>2026-03-14T05:28:57Z</time>
      </trkpt>
      <trkpt lat="46.74992" lon="2.24284">
        <ele>187.6</ele>
        <time>2026-03-14T05:29:02Z</time>
      </trkpt>
      <trkpt lat="46.74997" lon="2.24232">
        <ele>187.2</ele>
        <time>2026-03-14T05:29:08Z</time>
      </trkpt>
      <trkpt lat="46.75003" lon="2.24166">
        <ele>186</ele>
        <time>2026-03-14T05:29:15Z</time>
      </trkpt>
      <trkpt lat="46.75005" lon="2.24145">
        <ele>185.6</ele>
        <time>2026-03-14T05:29:17Z</time>
      </trkpt>
      <trkpt lat="46.7501" lon="2.24091">
        <ele>184.8</ele>
        <time>2026-03-14T05:29:22Z</time>
      </trkpt>
      <trkpt lat="46.75012" lon="2.24069">
        <ele>184</ele>
        <time>2026-03-14T05:29:24Z</time>
      </trkpt>
      <trkpt lat="46.75014" lon="2.24047">
        <ele>183.6</ele>
        <time>2026-03-14T05:29:26Z</time>
      </trkpt>
      <trkpt lat="46.75021" lon="2.23972">
        <ele>183</ele>
        <time>2026-03-14T05:29:33Z</time>
      </trkpt>
      <trkpt lat="46.75029" lon="2.23891">
        <ele>182.6</ele>
        <time>2026-03-14T05:29:41Z</time>
      </trkpt>
      <trkpt lat="46.75029" lon="2.23881">
        <ele>182.6</ele>
        <time>2026-03-14T05:29:42Z</time>
      </trkpt>
      <trkpt lat="46.75036" lon="2.23805">
        <ele>182.8</ele>
        <time>2026-03-14T05:29:50Z</time>
      </trkpt>
      <trkpt lat="46.75042" lon="2.23736">
        <ele>183.2</ele>
        <time>2026-03-14T05:29:58Z</time>
      </trkpt>
      <trkpt lat="46.75043" lon="2.23728">
        <ele>183.2</ele>
        <time>2026-03-14T05:29:59Z</time>
      </trkpt>
      <trkpt lat="46.75047" lon="2.23684">
        <ele>183.6</ele>
        <time>2026-03-14T05:30:05Z</time>
      </trkpt>
      <trkpt lat="46.75052" lon="2.23628">
        <ele>184.2</ele>
        <time>2026-03-14T05:30:13Z</time>
      </trkpt>
      <trkpt lat="46.75054" lon="2.23594">
        <ele>184.8</ele>
        <time>2026-03-14T05:30:18Z</time>
      </trkpt>
      <trkpt lat="46.7506" lon="2.23543">
        <ele>185.8</ele>
        <time>2026-03-14T05:30:25Z</time>
      </trkpt>
      <trkpt lat="46.75061" lon="2.23527">
        <ele>186.2</ele>
        <time>2026-03-14T05:30:27Z</time>
      </trkpt>
      <trkpt lat="46.75064" lon="2.23493">
        <ele>186.8</ele>
        <time>2026-03-14T05:30:32Z</time>
      </trkpt>
      <trkpt lat="46.75065" lon="2.2348">
        <ele>187.2</ele>
        <time>2026-03-14T05:30:34Z</time>
      </trkpt>
      <trkpt lat="46.75069" lon="2.23438">
        <ele>187.8</ele>
        <time>2026-03-14T05:30:40Z</time>
      </trkpt>
      <trkpt lat="46.75072" lon="2.23409">
        <ele>188.2</ele>
        <time>2026-03-14T05:30:44Z</time>
      </trkpt>
      <trkpt lat="46.75076" lon="2.23367">
        <ele>188.6</ele>
        <time>2026-03-14T05:30:50Z</time>
      </trkpt>
      <trkpt lat="46.75078" lon="2.2334">
        <ele>189</ele>
        <time>2026-03-14T05:30:54Z</time>
      </trkpt>
      <trkpt lat="46.75081" lon="2.23303">
        <ele>189.4</ele>
        <time>2026-03-14T05:30:59Z</time>
      </trkpt>
      <trkpt lat="46.75088" lon="2.23244">
        <ele>190.2</ele>
        <time>2026-03-14T05:31:07Z</time>
      </trkpt>
      <trkpt lat="46.75088" lon="2.23236">
        <ele>190.2</ele>
        <time>2026-03-14T05:31:08Z</time>
      </trkpt>
      <trkpt lat="46.75095" lon="2.23167">
        <ele>191.2</ele>
        <time>2026-03-14T05:31:17Z</time>
      </trkpt>
      <trkpt lat="46.75097" lon="2.23149">
        <ele>191.4</ele>
        <time>2026-03-14T05:31:19Z</time>
      </trkpt>
      <trkpt lat="46.75102" lon="2.23077">
        <ele>192</ele>
        <time>2026-03-14T05:31:28Z</time>
      </trkpt>
      <trkpt lat="46.75104" lon="2.23054">
        <ele>192.2</ele>
        <time>2026-03-14T05:31:31Z</time>
      </trkpt>
      <trkpt lat="46.7511" lon="2.23002">
        <ele>192.6</ele>
        <time>2026-03-14T05:31:37Z</time>
      </trkpt>
      <trkpt lat="46.75119" lon="2.22916">
        <ele>192.8</ele>
        <time>2026-03-14T05:31:47Z</time>
      </trkpt>
      <trkpt lat="46.7512" lon="2.229">
        <ele>192.8</ele>
        <time>2026-03-14T05:31:49Z</time>
      </trkpt>
      <trkpt lat="46.75128" lon="2.22816">
        <ele>192.6</ele>
        <time>2026-03-14T05:31:58Z</time>
      </trkpt>
      <trkpt lat="46.75136" lon="2.22736">
        <ele>192.2</ele>
        <time>2026-03-14T05:32:06Z</time>
      </trkpt>
      <trkpt lat="46.75137" lon="2.22718">
        <ele>192</ele>
        <time>2026-03-14T05:32:08Z</time>
      </trkpt>
      <trkpt lat="46.75143" lon="2.22659">
        <ele>191</ele>
        <time>2026-03-14T05:32:14Z</time>
      </trkpt>
      <trkpt lat="46.75149" lon="2.22587">
        <ele>190.4</ele>
        <time>2026-03-14T05:32:21Z</time>
      </trkpt>
      <trkpt lat="46.75152" lon="2.22557">
        <ele>190</ele>
        <time>2026-03-14T05:32:24Z</time>
      </trkpt>
      <trkpt lat="46.7516" lon="2.22468">
        <ele>189.4</ele>
        <time>2026-03-14T05:32:33Z</time>
      </trkpt>
      <trkpt lat="46.75169" lon="2.22383">
        <ele>189</ele>
        <time>2026-03-14T05:32:42Z</time>
      </trkpt>
      <trkpt lat="46.75171" lon="2.22371">
        <ele>189</ele>
        <time>2026-03-14T05:32:43Z</time>
      </trkpt>
      <trkpt lat="46.75184" lon="2.22316">
        <ele>188.6</ele>
        <time>2026-03-14T05:32:49Z</time>
      </trkpt>
      <trkpt lat="46.75208" lon="2.22249">
        <ele>188.6</ele>
        <time>2026-03-14T05:32:57Z</time>
      </trkpt>
      <trkpt lat="46.75237" lon="2.22179">
        <ele>189.4</ele>
        <time>2026-03-14T05:33:06Z</time>
      </trkpt>
      <trkpt lat="46.75247" lon="2.22153">
        <ele>190.2</ele>
        <time>2026-03-14T05:33:10Z</time>
      </trkpt>
      <trkpt lat="46.75249" lon="2.22145">
        <ele>190.2</ele>
        <time>2026-03-14T05:33:11Z</time>
      </trkpt>
      <trkpt lat="46.75251" lon="2.22138">
        <ele>190.4</ele>
        <time>2026-03-14T05:33:12Z</time>
      </trkpt>
      <trkpt lat="46.75263" lon="2.22091">
        <ele>191.2</ele>
        <time>2026-03-14T05:33:19Z</time>
      </trkpt>
      <trkpt lat="46.75271" lon="2.22056">
        <ele>192.2</ele>
        <time>2026-03-14T05:33:24Z</time>
      </trkpt>
      <trkpt lat="46.75276" lon="2.22037">
        <ele>192.6</ele>
        <time>2026-03-14T05:33:27Z</time>
      </trkpt>
      <trkpt lat="46.75281" lon="2.22015">
        <ele>193.4</ele>
        <time>2026-03-14T05:33:30Z</time>
      </trkpt>
      <trkpt lat="46.75293" lon="2.2197">
        <ele>194.2</ele>
        <time>2026-03-14T05:33:37Z</time>
      </trkpt>
      <trkpt lat="46.75296" lon="2.21954">
        <ele>194.4</ele>
        <time>2026-03-14T05:33:39Z</time>
      </trkpt>
      <trkpt lat="46.75304" lon="2.21919">
        <ele>194.8</ele>
        <time>2026-03-14T05:33:44Z</time>
      </trkpt>
      <trkpt lat="46.75313" lon="2.2187">
        <ele>195.4</ele>
        <time>2026-03-14T05:33:51Z</time>
      </trkpt>
      <trkpt lat="46.75314" lon="2.21863">
        <ele>195.6</ele>
        <time>2026-03-14T05:33:52Z</time>
      </trkpt>
      <trkpt lat="46.75319" lon="2.21816">
        <ele>196.4</ele>
        <time>2026-03-14T05:33:58Z</time>
      </trkpt>
      <trkpt lat="46.75323" lon="2.21778">
        <ele>196.6</ele>
        <time>2026-03-14T05:34:03Z</time>
      </trkpt>
      <trkpt lat="46.75328" lon="2.21727">
        <ele>197.2</ele>
        <time>2026-03-14T05:34:10Z</time>
      </trkpt>
      <trkpt lat="46.75329" lon="2.21718">
        <ele>197.4</ele>
        <time>2026-03-14T05:34:11Z</time>
      </trkpt>
      <trkpt lat="46.75339" lon="2.21635">
        <ele>197.8</ele>
        <time>2026-03-14T05:34:22Z</time>
      </trkpt>
      <trkpt lat="46.75341" lon="2.21621">
        <ele>198</ele>
        <time>2026-03-14T05:34:24Z</time>
      </trkpt>
      <trkpt lat="46.75345" lon="2.2159">
        <ele>198.4</ele>
        <time>2026-03-14T05:34:28Z</time>
      </trkpt>
      <trkpt lat="46.75353" lon="2.21543">
        <ele>199</ele>
        <time>2026-03-14T05:34:34Z</time>
      </trkpt>
      <trkpt lat="46.75364" lon="2.21479">
        <ele>198.8</ele>
        <time>2026-03-14T05:34:41Z</time>
      </trkpt>
      <trkpt lat="46.75376" lon="2.21399">
        <ele>197.6</ele>
        <time>2026-03-14T05:34:49Z</time>
      </trkpt>
      <trkpt lat="46.75377" lon="2.21389">
        <ele>197.4</ele>
        <time>2026-03-14T05:34:50Z</time>
      </trkpt>
      <trkpt lat="46.75378" lon="2.2138">
        <ele>197.2</ele>
        <time>2026-03-14T05:34:51Z</time>
      </trkpt>
      <trkpt lat="46.75384" lon="2.21333">
        <ele>196</ele>
        <time>2026-03-14T05:34:55Z</time>
      </trkpt>
      <trkpt lat="46.75388" lon="2.21287">
        <ele>195.2</ele>
        <time>2026-03-14T05:34:58Z</time>
      </trkpt>
      <trkpt lat="46.75388" lon="2.21275">
        <ele>194.8</ele>
        <time>2026-03-14T05:34:59Z</time>
      </trkpt>
      <trkpt lat="46.75387" lon="2.21228">
        <ele>193.4</ele>
        <time>2026-03-14T05:35:04Z</time>
      </trkpt>
      <trkpt lat="46.75386" lon="2.21207">
        <ele>192.8</ele>
        <time>2026-03-14T05:35:05Z</time>
      </trkpt>
      <trkpt lat="46.75383" lon="2.2117">
        <ele>192</ele>
        <time>2026-03-14T05:35:08Z</time>
      </trkpt>
      <trkpt lat="46.75381" lon="2.21134">
        <ele>190.8</ele>
        <time>2026-03-14T05:35:12Z</time>
      </trkpt>
      <trkpt lat="46.75378" lon="2.21088">
        <ele>189.6</ele>
        <time>2026-03-14T05:35:16Z</time>
      </trkpt>
      <trkpt lat="46.75376" lon="2.21062">
        <ele>189.2</ele>
        <time>2026-03-14T05:35:18Z</time>
      </trkpt>
      <trkpt lat="46.75375" lon="2.2104">
        <ele>188.4</ele>
        <time>2026-03-14T05:35:20Z</time>
      </trkpt>
      <trkpt lat="46.7537" lon="2.20981">
        <ele>187.2</ele>
        <time>2026-03-14T05:35:24Z</time>
      </trkpt>
      <trkpt lat="46.75366" lon="2.20957">
        <ele>186.4</ele>
        <time>2026-03-14T05:35:27Z</time>
      </trkpt>
      <trkpt lat="46.7536" lon="2.20924">
        <ele>185.8</ele>
        <time>2026-03-14T05:35:29Z</time>
      </trkpt>
      <trkpt lat="46.75352" lon="2.2089">
        <ele>185</ele>
        <time>2026-03-14T05:35:33Z</time>
      </trkpt>
      <trkpt lat="46.75341" lon="2.20849">
        <ele>184.6</ele>
        <time>2026-03-14T05:35:36Z</time>
      </trkpt>
      <trkpt lat="46.75329" lon="2.20807">
        <ele>183.4</ele>
        <time>2026-03-14T05:35:41Z</time>
      </trkpt>
      <trkpt lat="46.75317" lon="2.20764">
        <ele>182.6</ele>
        <time>2026-03-14T05:35:44Z</time>
      </trkpt>
      <trkpt lat="46.7531" lon="2.20742">
        <ele>182.2</ele>
        <time>2026-03-14T05:35:46Z</time>
      </trkpt>
      <trkpt lat="46.75291" lon="2.20677">
        <ele>181</ele>
        <time>2026-03-14T05:35:52Z</time>
      </trkpt>
      <trkpt lat="46.75276" lon="2.20625">
        <ele>179.8</ele>
        <time>2026-03-14T05:35:57Z</time>
      </trkpt>
      <trkpt lat="46.75273" lon="2.20615">
        <ele>179.8</ele>
        <time>2026-03-14T05:35:58Z</time>
      </trkpt>
      <trkpt lat="46.75261" lon="2.20572">
        <ele>178.6</ele>
        <time>2026-03-14T05:36:02Z</time>
      </trkpt>
      <trkpt lat="46.75243" lon="2.20507">
        <ele>177.6</ele>
        <time>2026-03-14T05:36:08Z</time>
      </trkpt>
      <trkpt lat="46.75239" lon="2.20495">
        <ele>177.4</ele>
        <time>2026-03-14T05:36:09Z</time>
      </trkpt>
      <trkpt lat="46.75216" lon="2.20414">
        <ele>176.6</ele>
        <time>2026-03-14T05:36:17Z</time>
      </trkpt>
      <trkpt lat="46.75209" lon="2.20392">
        <ele>176.4</ele>
        <time>2026-03-14T05:36:19Z</time>
      </trkpt>
      <trkpt lat="46.75183" lon="2.20302">
        <ele>175.4</ele>
        <time>2026-03-14T05:36:29Z</time>
      </trkpt>
      <trkpt lat="46.75161" lon="2.20226">
        <ele>175.8</ele>
        <time>2026-03-14T05:36:38Z</time>
      </trkpt>
      <trkpt lat="46.75157" lon="2.20212">
        <ele>175.8</ele>
        <time>2026-03-14T05:36:40Z</time>
      </trkpt>
      <trkpt lat="46.7515" lon="2.20192">
        <ele>176.2</ele>
        <time>2026-03-14T05:36:43Z</time>
      </trkpt>
      <trkpt lat="46.75132" lon="2.20131">
        <ele>177.4</ele>
        <time>2026-03-14T05:36:52Z</time>
      </trkpt>
      <trkpt lat="46.75117" lon="2.20079">
        <ele>178.2</ele>
        <time>2026-03-14T05:37:00Z</time>
      </trkpt>
      <trkpt lat="46.75117" lon="2.20079">
        <ele>178.4</ele>
        <time>2026-03-14T05:37:01Z</time>
      </trkpt>
      <trkpt lat="46.75113" lon="2.20066">
        <ele>178.4</ele>
        <time>2026-03-14T05:37:02Z</time>
      </trkpt>
      <trkpt lat="46.75102" lon="2.20028">
        <ele>178.8</ele>
        <time>2026-03-14T05:37:07Z</time>
      </trkpt>
      <trkpt lat="46.7508" lon="2.19949">
        <ele>178.6</ele>
        <time>2026-03-14T05:37:17Z</time>
      </trkpt>
      <trkpt lat="46.75058" lon="2.19872">
        <ele>178</ele>
        <time>2026-03-14T05:37:26Z</time>
      </trkpt>
      <trkpt lat="46.75034" lon="2.19792">
        <ele>177.4</ele>
        <time>2026-03-14T05:37:35Z</time>
      </trkpt>
      <trkpt lat="46.7503" lon="2.19776">
        <ele>177.4</ele>
        <time>2026-03-14T05:37:37Z</time>
      </trkpt>
      <trkpt lat="46.75019" lon="2.19738">
        <ele>177.2</ele>
        <time>2026-03-14T05:37:41Z</time>
      </trkpt>
      <trkpt lat="46.74998" lon="2.19663">
        <ele>176</ele>
        <time>2026-03-14T05:37:49Z</time>
      </trkpt>
      <trkpt lat="46.74993" lon="2.19646">
        <ele>175.8</ele>
        <time>2026-03-14T05:37:51Z</time>
      </trkpt>
      <trkpt lat="46.74976" lon="2.19588">
        <ele>175</ele>
        <time>2026-03-14T05:37:57Z</time>
      </trkpt>
      <trkpt lat="46.74962" lon="2.19541">
        <ele>174</ele>
        <time>2026-03-14T05:38:02Z</time>
      </trkpt>
      <trkpt lat="46.74959" lon="2.19529">
        <ele>173.8</ele>
        <time>2026-03-14T05:38:03Z</time>
      </trkpt>
      <trkpt lat="46.74939" lon="2.19457">
        <ele>173.2</ele>
        <time>2026-03-14T05:38:11Z</time>
      </trkpt>
      <trkpt lat="46.74918" lon="2.19385">
        <ele>173.2</ele>
        <time>2026-03-14T05:38:19Z</time>
      </trkpt>
      <trkpt lat="46.74906" lon="2.19336">
        <ele>173.4</ele>
        <time>2026-03-14T05:38:26Z</time>
      </trkpt>
      <trkpt lat="46.749" lon="2.19273">
        <ele>173.8</ele>
        <time>2026-03-14T05:38:32Z</time>
      </trkpt>
      <trkpt lat="46.74901" lon="2.1922">
        <ele>174</ele>
        <time>2026-03-14T05:38:38Z</time>
      </trkpt>
      <trkpt lat="46.74903" lon="2.19141">
        <ele>174.2</ele>
        <time>2026-03-14T05:38:47Z</time>
      </trkpt>
      <trkpt lat="46.74907" lon="2.191">
        <ele>174.8</ele>
        <time>2026-03-14T05:38:52Z</time>
      </trkpt>
      <trkpt lat="46.74907" lon="2.19094">
        <ele>174.8</ele>
        <time>2026-03-14T05:38:53Z</time>
      </trkpt>
      <trkpt lat="46.74913" lon="2.19064">
        <ele>176</ele>
        <time>2026-03-14T05:38:57Z</time>
      </trkpt>
      <trkpt lat="46.74921" lon="2.1903">
        <ele>176.6</ele>
        <time>2026-03-14T05:39:01Z</time>
      </trkpt>
      <trkpt lat="46.74931" lon="2.19001">
        <ele>176.8</ele>
        <time>2026-03-14T05:39:05Z</time>
      </trkpt>
      <trkpt lat="46.74937" lon="2.18986">
        <ele>177</ele>
        <time>2026-03-14T05:39:07Z</time>
      </trkpt>
      <trkpt lat="46.74941" lon="2.18979">
        <ele>177</ele>
        <time>2026-03-14T05:39:08Z</time>
      </trkpt>
      <trkpt lat="46.74969" lon="2.18923">
        <ele>177.6</ele>
        <time>2026-03-14T05:39:16Z</time>
      </trkpt>
      <trkpt lat="46.74999" lon="2.1889">
        <ele>177.6</ele>
        <time>2026-03-14T05:39:22Z</time>
      </trkpt>
      <trkpt lat="46.75051" lon="2.18845">
        <ele>176.8</ele>
        <time>2026-03-14T05:39:31Z</time>
      </trkpt>
      <trkpt lat="46.75106" lon="2.18805">
        <ele>175.6</ele>
        <time>2026-03-14T05:39:39Z</time>
      </trkpt>
      <trkpt lat="46.75139" lon="2.18778">
        <ele>174.2</ele>
        <time>2026-03-14T05:39:44Z</time>
      </trkpt>
      <trkpt lat="46.75161" lon="2.18757">
        <ele>173.8</ele>
        <time>2026-03-14T05:39:47Z</time>
      </trkpt>
      <trkpt lat="46.75168" lon="2.1875">
        <ele>173.8</ele>
        <time>2026-03-14T05:39:48Z</time>
      </trkpt>
      <trkpt lat="46.75179" lon="2.18736">
        <ele>173.2</ele>
        <time>2026-03-14T05:39:50Z</time>
      </trkpt>
      <trkpt lat="46.75204" lon="2.18707">
        <ele>172</ele>
        <time>2026-03-14T05:39:54Z</time>
      </trkpt>
      <trkpt lat="46.75231" lon="2.18676">
        <ele>171.4</ele>
        <time>2026-03-14T05:39:58Z</time>
      </trkpt>
      <trkpt lat="46.75236" lon="2.1867">
        <ele>170.8</ele>
        <time>2026-03-14T05:40:00Z</time>
      </trkpt>
      <trkpt lat="46.75279" lon="2.18634">
        <ele>169.6</ele>
        <time>2026-03-14T05:40:05Z</time>
      </trkpt>
      <trkpt lat="46.75314" lon="2.18613">
        <ele>168.6</ele>
        <time>2026-03-14T05:40:10Z</time>
      </trkpt>
      <trkpt lat="46.75321" lon="2.18611">
        <ele>168.4</ele>
        <time>2026-03-14T05:40:11Z</time>
      </trkpt>
      <trkpt lat="46.75357" lon="2.18599">
        <ele>167.4</ele>
        <time>2026-03-14T05:40:16Z</time>
      </trkpt>
      <trkpt lat="46.75369" lon="2.18595">
        <ele>166.8</ele>
        <time>2026-03-14T05:40:18Z</time>
      </trkpt>
      <trkpt lat="46.75385" lon="2.18589">
        <ele>166.4</ele>
        <time>2026-03-14T05:40:20Z</time>
      </trkpt>
      <trkpt lat="46.7539" lon="2.18585">
        <ele>166.4</ele>
        <time>2026-03-14T05:40:21Z</time>
      </trkpt>
      <trkpt lat="46.75393" lon="2.18582">
        <ele>166.2</ele>
        <time>2026-03-14T05:40:22Z</time>
      </trkpt>
      <trkpt lat="46.75409" lon="2.18558">
        <ele>165.4</ele>
        <time>2026-03-14T05:40:27Z</time>
      </trkpt>
      <trkpt lat="46.75412" lon="2.18547">
        <ele>165.2</ele>
        <time>2026-03-14T05:40:30Z</time>
      </trkpt>
      <trkpt lat="46.75411" lon="2.18542">
        <ele>165.2</ele>
        <time>2026-03-14T05:40:31Z</time>
      </trkpt>
      <trkpt lat="46.754" lon="2.18514">
        <ele>164.8</ele>
        <time>2026-03-14T05:40:36Z</time>
      </trkpt>
      <trkpt lat="46.75383" lon="2.18472">
        <ele>164.6</ele>
        <time>2026-03-14T05:40:42Z</time>
      </trkpt>
      <trkpt lat="46.75365" lon="2.18416">
        <ele>164.6</ele>
        <time>2026-03-14T05:40:49Z</time>
      </trkpt>
      <trkpt lat="46.75343" lon="2.18366">
        <ele>164.8</ele>
        <time>2026-03-14T05:40:56Z</time>
      </trkpt>
      <trkpt lat="46.75323" lon="2.18312">
        <ele>165</ele>
        <time>2026-03-14T05:41:03Z</time>
      </trkpt>
      <trkpt lat="46.75296" lon="2.18242">
        <ele>165.4</ele>
        <time>2026-03-14T05:41:13Z</time>
      </trkpt>
      <trkpt lat="46.75277" lon="2.18192">
        <ele>165.6</ele>
        <time>2026-03-14T05:41:20Z</time>
      </trkpt>
      <trkpt lat="46.75267" lon="2.1816">
        <ele>165.6</ele>
        <time>2026-03-14T05:41:24Z</time>
      </trkpt>
      <trkpt lat="46.75263" lon="2.1814">
        <ele>165.2</ele>
        <time>2026-03-14T05:41:26Z</time>
      </trkpt>
      <trkpt lat="46.75263" lon="2.18131">
        <ele>165</ele>
        <time>2026-03-14T05:41:27Z</time>
      </trkpt>
      <trkpt lat="46.7526" lon="2.18076">
        <ele>164.4</ele>
        <time>2026-03-14T05:41:34Z</time>
      </trkpt>
      <trkpt lat="46.75255" lon="2.1799">
        <ele>164.4</ele>
        <time>2026-03-14T05:41:43Z</time>
      </trkpt>
      <trkpt lat="46.75248" lon="2.17922">
        <ele>164.6</ele>
        <time>2026-03-14T05:41:51Z</time>
      </trkpt>
      <trkpt lat="46.75246" lon="2.179">
        <ele>164.6</ele>
        <time>2026-03-14T05:41:54Z</time>
      </trkpt>
      <trkpt lat="46.75247" lon="2.17894">
        <ele>164.6</ele>
        <time>2026-03-14T05:41:55Z</time>
      </trkpt>
      <trkpt lat="46.7525" lon="2.17887">
        <ele>164.6</ele>
        <time>2026-03-14T05:41:56Z</time>
      </trkpt>
      <trkpt lat="46.75258" lon="2.17878">
        <ele>164.6</ele>
        <time>2026-03-14T05:41:58Z</time>
      </trkpt>
      <trkpt lat="46.7529" lon="2.17854">
        <ele>164</ele>
        <time>2026-03-14T05:42:04Z</time>
      </trkpt>
      <trkpt lat="46.75294" lon="2.17842">
        <ele>163.8</ele>
        <time>2026-03-14T05:42:06Z</time>
      </trkpt>
      <trkpt lat="46.75295" lon="2.17835">
        <ele>163.6</ele>
        <time>2026-03-14T05:42:07Z</time>
      </trkpt>
      <trkpt lat="46.75297" lon="2.17817">
        <ele>163.6</ele>
        <time>2026-03-14T05:42:09Z</time>
      </trkpt>
      <trkpt lat="46.75296" lon="2.17802">
        <ele>163.4</ele>
        <time>2026-03-14T05:42:11Z</time>
      </trkpt>
      <trkpt lat="46.75293" lon="2.17784">
        <ele>163.4</ele>
        <time>2026-03-14T05:42:13Z</time>
      </trkpt>
      <trkpt lat="46.75288" lon="2.17762">
        <ele>163.4</ele>
        <time>2026-03-14T05:42:16Z</time>
      </trkpt>
      <trkpt lat="46.7527" lon="2.1771">
        <ele>164</ele>
        <time>2026-03-14T05:42:23Z</time>
      </trkpt>
      <trkpt lat="46.75267" lon="2.17703">
        <ele>164.2</ele>
        <time>2026-03-14T05:42:24Z</time>
      </trkpt>
      <trkpt lat="46.75244" lon="2.17644">
        <ele>164</ele>
        <time>2026-03-14T05:42:33Z</time>
      </trkpt>
      <trkpt lat="46.75239" lon="2.17618">
        <ele>163.6</ele>
        <time>2026-03-14T05:42:37Z</time>
      </trkpt>
      <trkpt lat="46.7524" lon="2.17609">
        <ele>163.6</ele>
        <time>2026-03-14T05:42:38Z</time>
      </trkpt>
      <trkpt lat="46.75245" lon="2.17572">
        <ele>163.8</ele>
        <time>2026-03-14T05:42:43Z</time>
      </trkpt>
      <trkpt lat="46.75244" lon="2.17565">
        <ele>164</ele>
        <time>2026-03-14T05:42:44Z</time>
      </trkpt>
      <trkpt lat="46.75244" lon="2.17502">
        <ele>164.2</ele>
        <time>2026-03-14T05:42:52Z</time>
      </trkpt>
      <trkpt lat="46.75244" lon="2.17495">
        <ele>164.4</ele>
        <time>2026-03-14T05:42:53Z</time>
      </trkpt>
      <trkpt lat="46.75251" lon="2.17435">
        <ele>164.8</ele>
        <time>2026-03-14T05:43:01Z</time>
      </trkpt>
      <trkpt lat="46.7526" lon="2.17386">
        <ele>165.6</ele>
        <time>2026-03-14T05:43:08Z</time>
      </trkpt>
      <trkpt lat="46.75261" lon="2.1738">
        <ele>165.8</ele>
        <time>2026-03-14T05:43:09Z</time>
      </trkpt>
      <trkpt lat="46.75267" lon="2.17369">
        <ele>166</ele>
        <time>2026-03-14T05:43:11Z</time>
      </trkpt>
      <trkpt lat="46.7527" lon="2.17365">
        <ele>166</ele>
        <time>2026-03-14T05:43:12Z</time>
      </trkpt>
      <trkpt lat="46.75276" lon="2.17356">
        <ele>166.4</ele>
        <time>2026-03-14T05:43:14Z</time>
      </trkpt>
      <trkpt lat="46.75279" lon="2.17342">
        <ele>166.6</ele>
        <time>2026-03-14T05:43:16Z</time>
      </trkpt>
      <trkpt lat="46.75282" lon="2.17322">
        <ele>167</ele>
        <time>2026-03-14T05:43:19Z</time>
      </trkpt>
      <trkpt lat="46.75287" lon="2.17292">
        <ele>167.2</ele>
        <time>2026-03-14T05:43:23Z</time>
      </trkpt>
      <trkpt lat="46.75295" lon="2.17226">
        <ele>167.6</ele>
        <time>2026-03-14T05:43:32Z</time>
      </trkpt>
      <trkpt lat="46.75302" lon="2.17171">
        <ele>168.2</ele>
        <time>2026-03-14T05:43:40Z</time>
      </trkpt>
      <trkpt lat="46.75307" lon="2.17125">
        <ele>169</ele>
        <time>2026-03-14T05:43:47Z</time>
      </trkpt>
      <trkpt lat="46.75308" lon="2.17119">
        <ele>169.2</ele>
        <time>2026-03-14T05:43:48Z</time>
      </trkpt>
      <trkpt lat="46.75313" lon="2.17069">
        <ele>169.8</ele>
        <time>2026-03-14T05:43:56Z</time>
      </trkpt>
      <trkpt lat="46.75316" lon="2.17049">
        <ele>170.2</ele>
        <time>2026-03-14T05:43:59Z</time>
      </trkpt>
      <trkpt lat="46.75321" lon="2.17001">
        <ele>170.6</ele>
        <time>2026-03-14T05:44:06Z</time>
      </trkpt>
      <trkpt lat="46.75324" lon="2.16972">
        <ele>171.2</ele>
        <time>2026-03-14T05:44:10Z</time>
      </trkpt>
      <trkpt lat="46.75328" lon="2.16936">
        <ele>171.6</ele>
        <time>2026-03-14T05:44:15Z</time>
      </trkpt>
      <trkpt lat="46.75336" lon="2.1688">
        <ele>171.8</ele>
        <time>2026-03-14T05:44:23Z</time>
      </trkpt>
      <trkpt lat="46.75337" lon="2.16871">
        <ele>171.8</ele>
        <time>2026-03-14T05:44:24Z</time>
      </trkpt>
      <trkpt lat="46.75339" lon="2.16849">
        <ele>172.2</ele>
        <time>2026-03-14T05:44:27Z</time>
      </trkpt>
      <trkpt lat="46.75342" lon="2.16829">
        <ele>172.6</ele>
        <time>2026-03-14T05:44:30Z</time>
      </trkpt>
      <trkpt lat="46.75348" lon="2.16773">
        <ele>173</ele>
        <time>2026-03-14T05:44:38Z</time>
      </trkpt>
      <trkpt lat="46.75354" lon="2.1674">
        <ele>173.2</ele>
        <time>2026-03-14T05:44:43Z</time>
      </trkpt>
      <trkpt lat="46.75357" lon="2.16734">
        <ele>173.2</ele>
        <time>2026-03-14T05:44:44Z</time>
      </trkpt>
      <trkpt lat="46.75378" lon="2.16675">
        <ele>173.8</ele>
        <time>2026-03-14T05:44:53Z</time>
      </trkpt>
      <trkpt lat="46.75393" lon="2.16634">
        <ele>174.2</ele>
        <time>2026-03-14T05:44:59Z</time>
      </trkpt>
      <trkpt lat="46.75395" lon="2.16627">
        <ele>174.4</ele>
        <time>2026-03-14T05:45:00Z</time>
      </trkpt>
      <trkpt lat="46.75409" lon="2.16588">
        <ele>175.2</ele>
        <time>2026-03-14T05:45:06Z</time>
      </trkpt>
      <trkpt lat="46.75413" lon="2.16576">
        <ele>175.6</ele>
        <time>2026-03-14T05:45:08Z</time>
      </trkpt>
      <trkpt lat="46.75428" lon="2.1654">
        <ele>176.4</ele>
        <time>2026-03-14T05:45:14Z</time>
      </trkpt>
      <trkpt lat="46.75433" lon="2.16528">
        <ele>176.8</ele>
        <time>2026-03-14T05:45:17Z</time>
      </trkpt>
      <trkpt lat="46.75446" lon="2.16493">
        <ele>177.2</ele>
        <time>2026-03-14T05:45:22Z</time>
      </trkpt>
      <trkpt lat="46.75451" lon="2.1648">
        <ele>177.6</ele>
        <time>2026-03-14T05:45:24Z</time>
      </trkpt>
      <trkpt lat="46.75463" lon="2.1645">
        <ele>178.2</ele>
        <time>2026-03-14T05:45:29Z</time>
      </trkpt>
      <trkpt lat="46.75468" lon="2.16432">
        <ele>178.6</ele>
        <time>2026-03-14T05:45:32Z</time>
      </trkpt>
      <trkpt lat="46.7547" lon="2.16426">
        <ele>178.6</ele>
        <time>2026-03-14T05:45:33Z</time>
      </trkpt>
      <trkpt lat="46.75473" lon="2.16418">
        <ele>178.8</ele>
        <time>2026-03-14T05:45:34Z</time>
      </trkpt>
      <trkpt lat="46.75478" lon="2.16394">
        <ele>179</ele>
        <time>2026-03-14T05:45:38Z</time>
      </trkpt>
      <trkpt lat="46.75482" lon="2.16376">
        <ele>179.8</ele>
        <time>2026-03-14T05:45:41Z</time>
      </trkpt>
      <trkpt lat="46.75483" lon="2.16362">
        <ele>180</ele>
        <time>2026-03-14T05:45:43Z</time>
      </trkpt>
      <trkpt lat="46.75485" lon="2.16344">
        <ele>180.8</ele>
        <time>2026-03-14T05:45:46Z</time>
      </trkpt>
      <trkpt lat="46.75485" lon="2.16338">
        <ele>181</ele>
        <time>2026-03-14T05:45:47Z</time>
      </trkpt>
      <trkpt lat="46.75486" lon="2.16311">
        <ele>181.8</ele>
        <time>2026-03-14T05:45:51Z</time>
      </trkpt>
      <trkpt lat="46.75486" lon="2.16285">
        <ele>182.8</ele>
        <time>2026-03-14T05:45:55Z</time>
      </trkpt>
      <trkpt lat="46.75487" lon="2.16259">
        <ele>184.2</ele>
        <time>2026-03-14T05:45:59Z</time>
      </trkpt>
      <trkpt lat="46.75489" lon="2.16234">
        <ele>185.4</ele>
        <time>2026-03-14T05:46:03Z</time>
      </trkpt>
      <trkpt lat="46.75489" lon="2.16229">
        <ele>185.6</ele>
        <time>2026-03-14T05:46:04Z</time>
      </trkpt>
      <trkpt lat="46.7549" lon="2.1621">
        <ele>186.2</ele>
        <time>2026-03-14T05:46:07Z</time>
      </trkpt>
      <trkpt lat="46.7549" lon="2.16202">
        <ele>186.6</ele>
        <time>2026-03-14T05:46:08Z</time>
      </trkpt>
      <trkpt lat="46.7549" lon="2.16174">
        <ele>187.6</ele>
        <time>2026-03-14T05:46:12Z</time>
      </trkpt>
      <trkpt lat="46.7549" lon="2.16155">
        <ele>188.2</ele>
        <time>2026-03-14T05:46:15Z</time>
      </trkpt>
      <trkpt lat="46.75492" lon="2.16133">
        <ele>188.8</ele>
        <time>2026-03-14T05:46:18Z</time>
      </trkpt>
      <trkpt lat="46.75495" lon="2.1608">
        <ele>189.6</ele>
        <time>2026-03-14T05:46:26Z</time>
      </trkpt>
      <trkpt lat="46.75495" lon="2.16068">
        <ele>190</ele>
        <time>2026-03-14T05:46:28Z</time>
      </trkpt>
      <trkpt lat="46.75499" lon="2.1602">
        <ele>191.2</ele>
        <time>2026-03-14T05:46:35Z</time>
      </trkpt>
      <trkpt lat="46.755" lon="2.16013">
        <ele>191.2</ele>
        <time>2026-03-14T05:46:36Z</time>
      </trkpt>
      <trkpt lat="46.75509" lon="2.15971">
        <ele>192.2</ele>
        <time>2026-03-14T05:46:43Z</time>
      </trkpt>
      <trkpt lat="46.75513" lon="2.15959">
        <ele>192.4</ele>
        <time>2026-03-14T05:46:45Z</time>
      </trkpt>
      <trkpt lat="46.75518" lon="2.15944">
        <ele>193.4</ele>
        <time>2026-03-14T05:46:48Z</time>
      </trkpt>
      <trkpt lat="46.75527" lon="2.15916">
        <ele>194.4</ele>
        <time>2026-03-14T05:46:53Z</time>
      </trkpt>
      <trkpt lat="46.75536" lon="2.15886">
        <ele>195.4</ele>
        <time>2026-03-14T05:46:58Z</time>
      </trkpt>
      <trkpt lat="46.75541" lon="2.1587">
        <ele>196.2</ele>
        <time>2026-03-14T05:47:01Z</time>
      </trkpt>
      <trkpt lat="46.75545" lon="2.15858">
        <ele>196.6</ele>
        <time>2026-03-14T05:47:03Z</time>
      </trkpt>
      <trkpt lat="46.75553" lon="2.15823">
        <ele>197.8</ele>
        <time>2026-03-14T05:47:09Z</time>
      </trkpt>
      <trkpt lat="46.75554" lon="2.15818">
        <ele>198</ele>
        <time>2026-03-14T05:47:10Z</time>
      </trkpt>
      <trkpt lat="46.75565" lon="2.15764">
        <ele>199</ele>
        <time>2026-03-14T05:47:18Z</time>
      </trkpt>
      <trkpt lat="46.75567" lon="2.15751">
        <ele>199.2</ele>
        <time>2026-03-14T05:47:20Z</time>
      </trkpt>
      <trkpt lat="46.75574" lon="2.15708">
        <ele>200</ele>
        <time>2026-03-14T05:47:26Z</time>
      </trkpt>
      <trkpt lat="46.75576" lon="2.157">
        <ele>200.2</ele>
        <time>2026-03-14T05:47:27Z</time>
      </trkpt>
      <trkpt lat="46.75585" lon="2.15639">
        <ele>200.6</ele>
        <time>2026-03-14T05:47:35Z</time>
      </trkpt>
      <trkpt lat="46.75594" lon="2.15555">
        <ele>200.8</ele>
        <time>2026-03-14T05:47:45Z</time>
      </trkpt>
      <trkpt lat="46.75596" lon="2.15538">
        <ele>200.8</ele>
        <time>2026-03-14T05:47:47Z</time>
      </trkpt>
      <trkpt lat="46.756" lon="2.15456">
        <ele>200.8</ele>
        <time>2026-03-14T05:47:57Z</time>
      </trkpt>
      <trkpt lat="46.75601" lon="2.1544">
        <ele>201</ele>
        <time>2026-03-14T05:47:59Z</time>
      </trkpt>
      <trkpt lat="46.75602" lon="2.15421">
        <ele>201</ele>
        <time>2026-03-14T05:48:01Z</time>
      </trkpt>
      <trkpt lat="46.75606" lon="2.15367">
        <ele>201.6</ele>
        <time>2026-03-14T05:48:08Z</time>
      </trkpt>
      <trkpt lat="46.75613" lon="2.15315">
        <ele>202</ele>
        <time>2026-03-14T05:48:14Z</time>
      </trkpt>
      <trkpt lat="46.75621" lon="2.15272">
        <ele>202.2</ele>
        <time>2026-03-14T05:48:19Z</time>
      </trkpt>
      <trkpt lat="46.7563" lon="2.15228">
        <ele>202.2</ele>
        <time>2026-03-14T05:48:24Z</time>
      </trkpt>
      <trkpt lat="46.75638" lon="2.15184">
        <ele>202</ele>
        <time>2026-03-14T05:48:29Z</time>
      </trkpt>
      <trkpt lat="46.75653" lon="2.15104">
        <ele>202.2</ele>
        <time>2026-03-14T05:48:38Z</time>
      </trkpt>
      <trkpt lat="46.75655" lon="2.15096">
        <ele>202.2</ele>
        <time>2026-03-14T05:48:39Z</time>
      </trkpt>
      <trkpt lat="46.75669" lon="2.15018">
        <ele>201.8</ele>
        <time>2026-03-14T05:48:48Z</time>
      </trkpt>
      <trkpt lat="46.75672" lon="2.15003">
        <ele>201.8</ele>
        <time>2026-03-14T05:48:50Z</time>
      </trkpt>
      <trkpt lat="46.75687" lon="2.14923">
        <ele>202</ele>
        <time>2026-03-14T05:48:59Z</time>
      </trkpt>
      <trkpt lat="46.7569" lon="2.14906">
        <ele>202.2</ele>
        <time>2026-03-14T05:49:01Z</time>
      </trkpt>
      <trkpt lat="46.75705" lon="2.14824">
        <ele>201.8</ele>
        <time>2026-03-14T05:49:10Z</time>
      </trkpt>
      <trkpt lat="46.75716" lon="2.14766">
        <ele>201.6</ele>
        <time>2026-03-14T05:49:16Z</time>
      </trkpt>
      <trkpt lat="46.75731" lon="2.14685">
        <ele>201.2</ele>
        <time>2026-03-14T05:49:25Z</time>
      </trkpt>
      <trkpt lat="46.75735" lon="2.14667">
        <ele>201.2</ele>
        <time>2026-03-14T05:49:27Z</time>
      </trkpt>
      <trkpt lat="46.7575" lon="2.14586">
        <ele>201.4</ele>
        <time>2026-03-14T05:49:36Z</time>
      </trkpt>
      <trkpt lat="46.75765" lon="2.14505">
        <ele>201.8</ele>
        <time>2026-03-14T05:49:45Z</time>
      </trkpt>
      <trkpt lat="46.75779" lon="2.14427">
        <ele>202.2</ele>
        <time>2026-03-14T05:49:54Z</time>
      </trkpt>
      <trkpt lat="46.75794" lon="2.14345">
        <ele>202.2</ele>
        <time>2026-03-14T05:50:03Z</time>
      </trkpt>
      <trkpt lat="46.75797" lon="2.14327">
        <ele>202.2</ele>
        <time>2026-03-14T05:50:05Z</time>
      </trkpt>
      <trkpt lat="46.75809" lon="2.14258">
        <ele>202.6</ele>
        <time>2026-03-14T05:50:13Z</time>
      </trkpt>
      <trkpt lat="46.75814" lon="2.14233">
        <ele>203</ele>
        <time>2026-03-14T05:50:16Z</time>
      </trkpt>
      <trkpt lat="46.75825" lon="2.14183">
        <ele>203.4</ele>
        <time>2026-03-14T05:50:22Z</time>
      </trkpt>
      <trkpt lat="46.75843" lon="2.14106">
        <ele>203.6</ele>
        <time>2026-03-14T05:50:31Z</time>
      </trkpt>
      <trkpt lat="46.75848" lon="2.14086">
        <ele>203.4</ele>
        <time>2026-03-14T05:50:33Z</time>
      </trkpt>
      <trkpt lat="46.75866" lon="2.14006">
        <ele>203</ele>
        <time>2026-03-14T05:50:42Z</time>
      </trkpt>
      <trkpt lat="46.75868" lon="2.13995">
        <ele>203</ele>
        <time>2026-03-14T05:50:43Z</time>
      </trkpt>
      <trkpt lat="46.75883" lon="2.13915">
        <ele>202.8</ele>
        <time>2026-03-14T05:50:52Z</time>
      </trkpt>
      <trkpt lat="46.75888" lon="2.13891">
        <ele>202.8</ele>
        <time>2026-03-14T05:50:55Z</time>
      </trkpt>
      <trkpt lat="46.75911" lon="2.13813">
        <ele>202.8</ele>
        <time>2026-03-14T05:51:04Z</time>
      </trkpt>
      <trkpt lat="46.75939" lon="2.13737">
        <ele>202.8</ele>
        <time>2026-03-14T05:51:13Z</time>
      </trkpt>
      <trkpt lat="46.75943" lon="2.13729">
        <ele>202.8</ele>
        <time>2026-03-14T05:51:14Z</time>
      </trkpt>
      <trkpt lat="46.75968" lon="2.13658">
        <ele>202.4</ele>
        <time>2026-03-14T05:51:22Z</time>
      </trkpt>
      <trkpt lat="46.7598" lon="2.13622">
        <ele>202.2</ele>
        <time>2026-03-14T05:51:26Z</time>
      </trkpt>
      <trkpt lat="46.76002" lon="2.1355">
        <ele>202.2</ele>
        <time>2026-03-14T05:51:34Z</time>
      </trkpt>
      <trkpt lat="46.76013" lon="2.13513">
        <ele>202.2</ele>
        <time>2026-03-14T05:51:38Z</time>
      </trkpt>
      <trkpt lat="46.76032" lon="2.1343">
        <ele>202</ele>
        <time>2026-03-14T05:51:47Z</time>
      </trkpt>
      <trkpt lat="46.76034" lon="2.1342">
        <ele>202</ele>
        <time>2026-03-14T05:51:48Z</time>
      </trkpt>
      <trkpt lat="46.7605" lon="2.13346">
        <ele>202</ele>
        <time>2026-03-14T05:51:56Z</time>
      </trkpt>
      <trkpt lat="46.76064" lon="2.1327">
        <ele>202</ele>
        <time>2026-03-14T05:52:04Z</time>
      </trkpt>
      <trkpt lat="46.76071" lon="2.13232">
        <ele>202</ele>
        <time>2026-03-14T05:52:08Z</time>
      </trkpt>
      <trkpt lat="46.76087" lon="2.13156">
        <ele>201.8</ele>
        <time>2026-03-14T05:52:16Z</time>
      </trkpt>
      <trkpt lat="46.76091" lon="2.13137">
        <ele>201.6</ele>
        <time>2026-03-14T05:52:18Z</time>
      </trkpt>
      <trkpt lat="46.76109" lon="2.1306">
        <ele>201.4</ele>
        <time>2026-03-14T05:52:26Z</time>
      </trkpt>
      <trkpt lat="46.76114" lon="2.13041">
        <ele>201.4</ele>
        <time>2026-03-14T05:52:28Z</time>
      </trkpt>
      <trkpt lat="46.76127" lon="2.12973">
        <ele>201</ele>
        <time>2026-03-14T05:52:36Z</time>
      </trkpt>
      <trkpt lat="46.76137" lon="2.12924">
        <ele>200.6</ele>
        <time>2026-03-14T05:52:40Z</time>
      </trkpt>
      <trkpt lat="46.76155" lon="2.12843">
        <ele>200</ele>
        <time>2026-03-14T05:52:48Z</time>
      </trkpt>
      <trkpt lat="46.76157" lon="2.12833">
        <ele>200</ele>
        <time>2026-03-14T05:52:49Z</time>
      </trkpt>
      <trkpt lat="46.76175" lon="2.12749">
        <ele>199.2</ele>
        <time>2026-03-14T05:52:57Z</time>
      </trkpt>
      <trkpt lat="46.7618" lon="2.12728">
        <ele>199</ele>
        <time>2026-03-14T05:52:59Z</time>
      </trkpt>
      <trkpt lat="46.76185" lon="2.12706">
        <ele>198.8</ele>
        <time>2026-03-14T05:53:01Z</time>
      </trkpt>
      <trkpt lat="46.76202" lon="2.12624">
        <ele>198.2</ele>
        <time>2026-03-14T05:53:09Z</time>
      </trkpt>
      <trkpt lat="46.76212" lon="2.12584">
        <ele>198.2</ele>
        <time>2026-03-14T05:53:13Z</time>
      </trkpt>
      <trkpt lat="46.76229" lon="2.12504">
        <ele>198</ele>
        <time>2026-03-14T05:53:21Z</time>
      </trkpt>
      <trkpt lat="46.76231" lon="2.12494">
        <ele>198</ele>
        <time>2026-03-14T05:53:22Z</time>
      </trkpt>
      <trkpt lat="46.76247" lon="2.12417">
        <ele>197.8</ele>
        <time>2026-03-14T05:53:30Z</time>
      </trkpt>
      <trkpt lat="46.76256" lon="2.12379">
        <ele>197.8</ele>
        <time>2026-03-14T05:53:34Z</time>
      </trkpt>
      <trkpt lat="46.76273" lon="2.12295">
        <ele>198</ele>
        <time>2026-03-14T05:53:43Z</time>
      </trkpt>
      <trkpt lat="46.76291" lon="2.12216">
        <ele>198.2</ele>
        <time>2026-03-14T05:53:51Z</time>
      </trkpt>
      <trkpt lat="46.76296" lon="2.12196">
        <ele>198.2</ele>
        <time>2026-03-14T05:53:53Z</time>
      </trkpt>
      <trkpt lat="46.76313" lon="2.12116">
        <ele>197.4</ele>
        <time>2026-03-14T05:54:01Z</time>
      </trkpt>
      <trkpt lat="46.76313" lon="2.12116">
        <ele>197.4</ele>
        <time>2026-03-14T05:54:02Z</time>
      </trkpt>
      <trkpt lat="46.7633" lon="2.12039">
        <ele>197</ele>
        <time>2026-03-14T05:54:09Z</time>
      </trkpt>
      <trkpt lat="46.76332" lon="2.1203">
        <ele>197</ele>
        <time>2026-03-14T05:54:10Z</time>
      </trkpt>
      <trkpt lat="46.76349" lon="2.11947">
        <ele>197.2</ele>
        <time>2026-03-14T05:54:19Z</time>
      </trkpt>
      <trkpt lat="46.76353" lon="2.11929">
        <ele>197.4</ele>
        <time>2026-03-14T05:54:21Z</time>
      </trkpt>
      <trkpt lat="46.76371" lon="2.11846">
        <ele>197.8</ele>
        <time>2026-03-14T05:54:30Z</time>
      </trkpt>
      <trkpt lat="46.76375" lon="2.1183">
        <ele>197.8</ele>
        <time>2026-03-14T05:54:32Z</time>
      </trkpt>
      <trkpt lat="46.76392" lon="2.11753">
        <ele>198</ele>
        <time>2026-03-14T05:54:40Z</time>
      </trkpt>
      <trkpt lat="46.76395" lon="2.11743">
        <ele>198</ele>
        <time>2026-03-14T05:54:41Z</time>
      </trkpt>
      <trkpt lat="46.76412" lon="2.11663">
        <ele>197.2</ele>
        <time>2026-03-14T05:54:49Z</time>
      </trkpt>
      <trkpt lat="46.76421" lon="2.11622">
        <ele>197</ele>
        <time>2026-03-14T05:54:53Z</time>
      </trkpt>
      <trkpt lat="46.7643" lon="2.11579">
        <ele>196.6</ele>
        <time>2026-03-14T05:54:57Z</time>
      </trkpt>
      <trkpt lat="46.76443" lon="2.11521">
        <ele>195.8</ele>
        <time>2026-03-14T05:55:02Z</time>
      </trkpt>
      <trkpt lat="46.76446" lon="2.1151">
        <ele>195.4</ele>
        <time>2026-03-14T05:55:03Z</time>
      </trkpt>
      <trkpt lat="46.76462" lon="2.11448">
        <ele>194.2</ele>
        <time>2026-03-14T05:55:08Z</time>
      </trkpt>
      <trkpt lat="46.76469" lon="2.11426">
        <ele>193.6</ele>
        <time>2026-03-14T05:55:10Z</time>
      </trkpt>
      <trkpt lat="46.76477" lon="2.11403">
        <ele>193</ele>
        <time>2026-03-14T05:55:12Z</time>
      </trkpt>
      <trkpt lat="46.76498" lon="2.11359">
        <ele>191.6</ele>
        <time>2026-03-14T05:55:16Z</time>
      </trkpt>
      <trkpt lat="46.76516" lon="2.11327">
        <ele>190.4</ele>
        <time>2026-03-14T05:55:19Z</time>
      </trkpt>
      <trkpt lat="46.76538" lon="2.11293">
        <ele>189.2</ele>
        <time>2026-03-14T05:55:22Z</time>
      </trkpt>
      <trkpt lat="46.76543" lon="2.11285">
        <ele>189</ele>
        <time>2026-03-14T05:55:23Z</time>
      </trkpt>
      <trkpt lat="46.7655" lon="2.11274">
        <ele>188.2</ele>
        <time>2026-03-14T05:55:24Z</time>
      </trkpt>
      <trkpt lat="46.76565" lon="2.11253">
        <ele>187.2</ele>
        <time>2026-03-14T05:55:26Z</time>
      </trkpt>
      <trkpt lat="46.76586" lon="2.11221">
        <ele>186</ele>
        <time>2026-03-14T05:55:29Z</time>
      </trkpt>
      <trkpt lat="46.76595" lon="2.11208">
        <ele>185.8</ele>
        <time>2026-03-14T05:55:30Z</time>
      </trkpt>
      <trkpt lat="46.76608" lon="2.11188">
        <ele>184.4</ele>
        <time>2026-03-14T05:55:32Z</time>
      </trkpt>
      <trkpt lat="46.76635" lon="2.11141">
        <ele>182.8</ele>
        <time>2026-03-14T05:55:36Z</time>
      </trkpt>
      <trkpt lat="46.76641" lon="2.11128">
        <ele>182.2</ele>
        <time>2026-03-14T05:55:37Z</time>
      </trkpt>
      <trkpt lat="46.76653" lon="2.11103">
        <ele>181.2</ele>
        <time>2026-03-14T05:55:39Z</time>
      </trkpt>
      <trkpt lat="46.76669" lon="2.11064">
        <ele>179.8</ele>
        <time>2026-03-14T05:55:42Z</time>
      </trkpt>
      <trkpt lat="46.76674" lon="2.11051">
        <ele>179.6</ele>
        <time>2026-03-14T05:55:43Z</time>
      </trkpt>
      <trkpt lat="46.76683" lon="2.11025">
        <ele>178.6</ele>
        <time>2026-03-14T05:55:45Z</time>
      </trkpt>
      <trkpt lat="46.767" lon="2.10977">
        <ele>177.6</ele>
        <time>2026-03-14T05:55:49Z</time>
      </trkpt>
      <trkpt lat="46.76708" lon="2.10954">
        <ele>177.2</ele>
        <time>2026-03-14T05:55:51Z</time>
      </trkpt>
      <trkpt lat="46.76734" lon="2.10881">
        <ele>176.6</ele>
        <time>2026-03-14T05:55:58Z</time>
      </trkpt>
      <trkpt lat="46.76761" lon="2.10806">
        <ele>176.8</ele>
        <time>2026-03-14T05:56:06Z</time>
      </trkpt>
      <trkpt lat="46.76764" lon="2.10796">
        <ele>177</ele>
        <time>2026-03-14T05:56:07Z</time>
      </trkpt>
      <trkpt lat="46.76791" lon="2.10717">
        <ele>176.6</ele>
        <time>2026-03-14T05:56:15Z</time>
      </trkpt>
      <trkpt lat="46.76808" lon="2.10658">
        <ele>175.4</ele>
        <time>2026-03-14T05:56:21Z</time>
      </trkpt>
      <trkpt lat="46.76812" lon="2.10636">
        <ele>175.2</ele>
        <time>2026-03-14T05:56:23Z</time>
      </trkpt>
      <trkpt lat="46.76823" lon="2.10582">
        <ele>175.2</ele>
        <time>2026-03-14T05:56:29Z</time>
      </trkpt>
      <trkpt lat="46.76833" lon="2.10518">
        <ele>175.8</ele>
        <time>2026-03-14T05:56:37Z</time>
      </trkpt>
      <trkpt lat="46.76841" lon="2.10481">
        <ele>176.6</ele>
        <time>2026-03-14T05:56:42Z</time>
      </trkpt>
      <trkpt lat="46.76843" lon="2.10467">
        <ele>177</ele>
        <time>2026-03-14T05:56:44Z</time>
      </trkpt>
      <trkpt lat="46.7685" lon="2.10436">
        <ele>177.6</ele>
        <time>2026-03-14T05:56:48Z</time>
      </trkpt>
      <trkpt lat="46.76854" lon="2.10423">
        <ele>177.8</ele>
        <time>2026-03-14T05:56:50Z</time>
      </trkpt>
      <trkpt lat="46.76871" lon="2.10374">
        <ele>178.8</ele>
        <time>2026-03-14T05:56:57Z</time>
      </trkpt>
      <trkpt lat="46.76873" lon="2.10367">
        <ele>179.2</ele>
        <time>2026-03-14T05:56:58Z</time>
      </trkpt>
      <trkpt lat="46.76876" lon="2.1036">
        <ele>179.4</ele>
        <time>2026-03-14T05:56:59Z</time>
      </trkpt>
      <trkpt lat="46.76881" lon="2.10346">
        <ele>180</ele>
        <time>2026-03-14T05:57:01Z</time>
      </trkpt>
      <trkpt lat="46.76894" lon="2.1032">
        <ele>180.8</ele>
        <time>2026-03-14T05:57:05Z</time>
      </trkpt>
      <trkpt lat="46.76903" lon="2.103">
        <ele>181</ele>
        <time>2026-03-14T05:57:08Z</time>
      </trkpt>
      <trkpt lat="46.76924" lon="2.10261">
        <ele>181.4</ele>
        <time>2026-03-14T05:57:14Z</time>
      </trkpt>
      <trkpt lat="46.76961" lon="2.10193">
        <ele>182</ele>
        <time>2026-03-14T05:57:24Z</time>
      </trkpt>
      <trkpt lat="46.76964" lon="2.10186">
        <ele>182</ele>
        <time>2026-03-14T05:57:25Z</time>
      </trkpt>
      <trkpt lat="46.76998" lon="2.10123">
        <ele>182.2</ele>
        <time>2026-03-14T05:57:34Z</time>
      </trkpt>
      <trkpt lat="46.77016" lon="2.10091">
        <ele>182.4</ele>
        <time>2026-03-14T05:57:39Z</time>
      </trkpt>
      <trkpt lat="46.77049" lon="2.10029">
        <ele>183</ele>
        <time>2026-03-14T05:57:48Z</time>
      </trkpt>
      <trkpt lat="46.77053" lon="2.10022">
        <ele>183</ele>
        <time>2026-03-14T05:57:49Z</time>
      </trkpt>
      <trkpt lat="46.7706" lon="2.10008">
        <ele>183</ele>
        <time>2026-03-14T05:57:51Z</time>
      </trkpt>
      <trkpt lat="46.77091" lon="2.0995">
        <ele>183</ele>
        <time>2026-03-14T05:57:59Z</time>
      </trkpt>
      <trkpt lat="46.77126" lon="2.09886">
        <ele>183</ele>
        <time>2026-03-14T05:58:08Z</time>
      </trkpt>
      <trkpt lat="46.77142" lon="2.09856">
        <ele>183</ele>
        <time>2026-03-14T05:58:12Z</time>
      </trkpt>
      <trkpt lat="46.77177" lon="2.09792">
        <ele>183</ele>
        <time>2026-03-14T05:58:21Z</time>
      </trkpt>
      <trkpt lat="46.77194" lon="2.09765">
        <ele>183.2</ele>
        <time>2026-03-14T05:58:25Z</time>
      </trkpt>
      <trkpt lat="46.77233" lon="2.09705">
        <ele>183.2</ele>
        <time>2026-03-14T05:58:34Z</time>
      </trkpt>
      <trkpt lat="46.77242" lon="2.09692">
        <ele>183.4</ele>
        <time>2026-03-14T05:58:36Z</time>
      </trkpt>
      <trkpt lat="46.77277" lon="2.0964">
        <ele>183.8</ele>
        <time>2026-03-14T05:58:44Z</time>
      </trkpt>
      <trkpt lat="46.7729" lon="2.09621">
        <ele>184</ele>
        <time>2026-03-14T05:58:47Z</time>
      </trkpt>
      <trkpt lat="46.77329" lon="2.09563">
        <ele>184.2</ele>
        <time>2026-03-14T05:58:56Z</time>
      </trkpt>
      <trkpt lat="46.77342" lon="2.09544">
        <ele>184</ele>
        <time>2026-03-14T05:58:59Z</time>
      </trkpt>
      <trkpt lat="46.77382" lon="2.09485">
        <ele>183.8</ele>
        <time>2026-03-14T05:59:08Z</time>
      </trkpt>
      <trkpt lat="46.77399" lon="2.09458">
        <ele>183.8</ele>
        <time>2026-03-14T05:59:12Z</time>
      </trkpt>
      <trkpt lat="46.77435" lon="2.09393">
        <ele>183.6</ele>
        <time>2026-03-14T05:59:21Z</time>
      </trkpt>
      <trkpt lat="46.77469" lon="2.09322">
        <ele>183.4</ele>
        <time>2026-03-14T05:59:30Z</time>
      </trkpt>
      <trkpt lat="46.77477" lon="2.09305">
        <ele>183.2</ele>
        <time>2026-03-14T05:59:32Z</time>
      </trkpt>
      <trkpt lat="46.775" lon="2.09251">
        <ele>182.6</ele>
        <time>2026-03-14T05:59:38Z</time>
      </trkpt>
      <trkpt lat="46.77519" lon="2.09208">
        <ele>181.4</ele>
        <time>2026-03-14T05:59:43Z</time>
      </trkpt>
      <trkpt lat="46.77523" lon="2.09199">
        <ele>181.2</ele>
        <time>2026-03-14T05:59:44Z</time>
      </trkpt>
      <trkpt lat="46.77543" lon="2.09153">
        <ele>180.4</ele>
        <time>2026-03-14T05:59:49Z</time>
      </trkpt>
      <trkpt lat="46.7757" lon="2.09092">
        <ele>179.6</ele>
        <time>2026-03-14T05:59:56Z</time>
      </trkpt>
      <trkpt lat="46.77584" lon="2.09058">
        <ele>179.4</ele>
        <time>2026-03-14T06:00:00Z</time>
      </trkpt>
      <trkpt lat="46.77602" lon="2.09017">
        <ele>179.4</ele>
        <time>2026-03-14T06:00:05Z</time>
      </trkpt>
      <trkpt lat="46.77634" lon="2.08944">
        <ele>179.2</ele>
        <time>2026-03-14T06:00:14Z</time>
      </trkpt>
      <trkpt lat="46.77665" lon="2.08872">
        <ele>179</ele>
        <time>2026-03-14T06:00:23Z</time>
      </trkpt>
      <trkpt lat="46.77669" lon="2.08864">
        <ele>179</ele>
        <time>2026-03-14T06:00:24Z</time>
      </trkpt>
      <trkpt lat="46.77692" lon="2.08809">
        <ele>179.4</ele>
        <time>2026-03-14T06:00:31Z</time>
      </trkpt>
      <trkpt lat="46.77722" lon="2.08741">
        <ele>179.8</ele>
        <time>2026-03-14T06:00:40Z</time>
      </trkpt>
      <trkpt lat="46.77733" lon="2.08717">
        <ele>180</ele>
        <time>2026-03-14T06:00:43Z</time>
      </trkpt>
      <trkpt lat="46.77763" lon="2.08646">
        <ele>179.8</ele>
        <time>2026-03-14T06:00:52Z</time>
      </trkpt>
      <trkpt lat="46.77767" lon="2.08638">
        <ele>179.8</ele>
        <time>2026-03-14T06:00:53Z</time>
      </trkpt>
      <trkpt lat="46.77799" lon="2.08565">
        <ele>180</ele>
        <time>2026-03-14T06:01:02Z</time>
      </trkpt>
      <trkpt lat="46.77805" lon="2.0855">
        <ele>180</ele>
        <time>2026-03-14T06:01:04Z</time>
      </trkpt>
      <trkpt lat="46.77836" lon="2.08479">
        <ele>179.8</ele>
        <time>2026-03-14T06:01:13Z</time>
      </trkpt>
      <trkpt lat="46.7785" lon="2.08446">
        <ele>179.8</ele>
        <time>2026-03-14T06:01:17Z</time>
      </trkpt>
      <trkpt lat="46.77881" lon="2.08376">
        <ele>179.8</ele>
        <time>2026-03-14T06:01:26Z</time>
      </trkpt>
      <trkpt lat="46.77887" lon="2.08362">
        <ele>179.8</ele>
        <time>2026-03-14T06:01:28Z</time>
      </trkpt>
      <trkpt lat="46.77916" lon="2.08294">
        <ele>180.2</ele>
        <time>2026-03-14T06:01:37Z</time>
      </trkpt>
      <trkpt lat="46.77946" lon="2.08227">
        <ele>180.6</ele>
        <time>2026-03-14T06:01:46Z</time>
      </trkpt>
      <trkpt lat="46.7796" lon="2.08196">
        <ele>181</ele>
        <time>2026-03-14T06:01:50Z</time>
      </trkpt>
      <trkpt lat="46.7799" lon="2.08139">
        <ele>181.2</ele>
        <time>2026-03-14T06:01:58Z</time>
      </trkpt>
      <trkpt lat="46.77994" lon="2.08131">
        <ele>181.2</ele>
        <time>2026-03-14T06:01:59Z</time>
      </trkpt>
      <trkpt lat="46.78029" lon="2.08083">
        <ele>181.6</ele>
        <time>2026-03-14T06:02:06Z</time>
      </trkpt>
      <trkpt lat="46.78071" lon="2.08031">
        <ele>181.6</ele>
        <time>2026-03-14T06:02:14Z</time>
      </trkpt>
      <trkpt lat="46.78085" lon="2.08014">
        <ele>181.4</ele>
        <time>2026-03-14T06:02:17Z</time>
      </trkpt>
      <trkpt lat="46.78128" lon="2.07963">
        <ele>181.2</ele>
        <time>2026-03-14T06:02:25Z</time>
      </trkpt>
      <trkpt lat="46.78139" lon="2.07952">
        <ele>181</ele>
        <time>2026-03-14T06:02:27Z</time>
      </trkpt>
      <trkpt lat="46.78186" lon="2.07912">
        <ele>180.6</ele>
        <time>2026-03-14T06:02:35Z</time>
      </trkpt>
      <trkpt lat="46.78198" lon="2.07903">
        <ele>180.6</ele>
        <time>2026-03-14T06:02:37Z</time>
      </trkpt>
      <trkpt lat="46.78244" lon="2.0787">
        <ele>180</ele>
        <time>2026-03-14T06:02:44Z</time>
      </trkpt>
      <trkpt lat="46.78264" lon="2.07856">
        <ele>179.6</ele>
        <time>2026-03-14T06:02:47Z</time>
      </trkpt>
      <trkpt lat="46.78299" lon="2.07831">
        <ele>179</ele>
        <time>2026-03-14T06:02:52Z</time>
      </trkpt>
      <trkpt lat="46.78326" lon="2.0781">
        <ele>178.4</ele>
        <time>2026-03-14T06:02:56Z</time>
      </trkpt>
      <trkpt lat="46.78346" lon="2.07792">
        <ele>178</ele>
        <time>2026-03-14T06:02:59Z</time>
      </trkpt>
      <trkpt lat="46.78383" lon="2.07752">
        <ele>177.4</ele>
        <time>2026-03-14T06:03:05Z</time>
      </trkpt>
      <trkpt lat="46.78423" lon="2.07699">
        <ele>177.2</ele>
        <time>2026-03-14T06:03:13Z</time>
      </trkpt>
      <trkpt lat="46.78428" lon="2.07692">
        <ele>177.2</ele>
        <time>2026-03-14T06:03:14Z</time>
      </trkpt>
      <trkpt lat="46.78472" lon="2.07631">
        <ele>177.2</ele>
        <time>2026-03-14T06:03:23Z</time>
      </trkpt>
      <trkpt lat="46.78482" lon="2.07616">
        <ele>177.2</ele>
        <time>2026-03-14T06:03:25Z</time>
      </trkpt>
      <trkpt lat="46.78525" lon="2.07557">
        <ele>177.6</ele>
        <time>2026-03-14T06:03:34Z</time>
      </trkpt>
      <trkpt lat="46.78534" lon="2.07544">
        <ele>178</ele>
        <time>2026-03-14T06:03:36Z</time>
      </trkpt>
      <trkpt lat="46.78578" lon="2.07484">
        <ele>178.2</ele>
        <time>2026-03-14T06:03:45Z</time>
      </trkpt>
      <trkpt lat="46.78592" lon="2.07464">
        <ele>178.2</ele>
        <time>2026-03-14T06:03:48Z</time>
      </trkpt>
      <trkpt lat="46.7863" lon="2.07402">
        <ele>178.2</ele>
        <time>2026-03-14T06:03:57Z</time>
      </trkpt>
      <trkpt lat="46.78663" lon="2.07331">
        <ele>178</ele>
        <time>2026-03-14T06:04:06Z</time>
      </trkpt>
      <trkpt lat="46.78667" lon="2.07321">
        <ele>178</ele>
        <time>2026-03-14T06:04:07Z</time>
      </trkpt>
      <trkpt lat="46.78692" lon="2.07247">
        <ele>178</ele>
        <time>2026-03-14T06:04:16Z</time>
      </trkpt>
      <trkpt lat="46.78698" lon="2.0723">
        <ele>178.2</ele>
        <time>2026-03-14T06:04:18Z</time>
      </trkpt>
      <trkpt lat="46.78722" lon="2.07156">
        <ele>178.6</ele>
        <time>2026-03-14T06:04:27Z</time>
      </trkpt>
      <trkpt lat="46.78725" lon="2.07148">
        <ele>178.6</ele>
        <time>2026-03-14T06:04:28Z</time>
      </trkpt>
      <trkpt lat="46.78744" lon="2.07085">
        <ele>179.2</ele>
        <time>2026-03-14T06:04:36Z</time>
      </trkpt>
      <trkpt lat="46.7875" lon="2.07063">
        <ele>179.2</ele>
        <time>2026-03-14T06:04:39Z</time>
      </trkpt>
      <trkpt lat="46.78764" lon="2.06995">
        <ele>179.6</ele>
        <time>2026-03-14T06:04:47Z</time>
      </trkpt>
      <trkpt lat="46.78776" lon="2.06912">
        <ele>179.6</ele>
        <time>2026-03-14T06:04:56Z</time>
      </trkpt>
      <trkpt lat="46.78777" lon="2.06905">
        <ele>179.6</ele>
        <time>2026-03-14T06:04:57Z</time>
      </trkpt>
      <trkpt lat="46.78789" lon="2.06819">
        <ele>178.8</ele>
        <time>2026-03-14T06:05:06Z</time>
      </trkpt>
      <trkpt lat="46.78789" lon="2.06812">
        <ele>178.8</ele>
        <time>2026-03-14T06:05:07Z</time>
      </trkpt>
      <trkpt lat="46.788" lon="2.06735">
        <ele>178</ele>
        <time>2026-03-14T06:05:15Z</time>
      </trkpt>
      <trkpt lat="46.78806" lon="2.06688">
        <ele>178</ele>
        <time>2026-03-14T06:05:20Z</time>
      </trkpt>
      <trkpt lat="46.78819" lon="2.06606">
        <ele>178</ele>
        <time>2026-03-14T06:05:29Z</time>
      </trkpt>
      <trkpt lat="46.78823" lon="2.06571">
        <ele>178.2</ele>
        <time>2026-03-14T06:05:33Z</time>
      </trkpt>
      <trkpt lat="46.78827" lon="2.06547">
        <ele>178.4</ele>
        <time>2026-03-14T06:05:36Z</time>
      </trkpt>
      <trkpt lat="46.78837" lon="2.06479">
        <ele>179</ele>
        <time>2026-03-14T06:05:44Z</time>
      </trkpt>
      <trkpt lat="46.78839" lon="2.06464">
        <ele>179</ele>
        <time>2026-03-14T06:05:46Z</time>
      </trkpt>
      <trkpt lat="46.78846" lon="2.06415">
        <ele>179.6</ele>
        <time>2026-03-14T06:05:52Z</time>
      </trkpt>
      <trkpt lat="46.7885" lon="2.06383">
        <ele>180.2</ele>
        <time>2026-03-14T06:05:56Z</time>
      </trkpt>
      <trkpt lat="46.78858" lon="2.06321">
        <ele>180.4</ele>
        <time>2026-03-14T06:06:03Z</time>
      </trkpt>
      <trkpt lat="46.78864" lon="2.06241">
        <ele>180.4</ele>
        <time>2026-03-14T06:06:12Z</time>
      </trkpt>
      <trkpt lat="46.78864" lon="2.06225">
        <ele>180.4</ele>
        <time>2026-03-14T06:06:14Z</time>
      </trkpt>
      <trkpt lat="46.78861" lon="2.06142">
        <ele>179.8</ele>
        <time>2026-03-14T06:06:23Z</time>
      </trkpt>
      <trkpt lat="46.78852" lon="2.06063">
        <ele>179.2</ele>
        <time>2026-03-14T06:06:31Z</time>
      </trkpt>
      <trkpt lat="46.7885" lon="2.06053">
        <ele>179</ele>
        <time>2026-03-14T06:06:32Z</time>
      </trkpt>
      <trkpt lat="46.78845" lon="2.06024">
        <ele>178.8</ele>
        <time>2026-03-14T06:06:35Z</time>
      </trkpt>
      <trkpt lat="46.78839" lon="2.05985">
        <ele>178.6</ele>
        <time>2026-03-14T06:06:39Z</time>
      </trkpt>
      <trkpt lat="46.78827" lon="2.05905">
        <ele>177.8</ele>
        <time>2026-03-14T06:06:47Z</time>
      </trkpt>
      <trkpt lat="46.78825" lon="2.05895">
        <ele>177.8</ele>
        <time>2026-03-14T06:06:48Z</time>
      </trkpt>
      <trkpt lat="46.78813" lon="2.05818">
        <ele>177</ele>
        <time>2026-03-14T06:06:56Z</time>
      </trkpt>
      <trkpt lat="46.78808" lon="2.05786">
        <ele>176.8</ele>
        <time>2026-03-14T06:06:59Z</time>
      </trkpt>
      <trkpt lat="46.78806" lon="2.05776">
        <ele>176.8</ele>
        <time>2026-03-14T06:07:00Z</time>
      </trkpt>
      <trkpt lat="46.78793" lon="2.05698">
        <ele>176.4</ele>
        <time>2026-03-14T06:07:08Z</time>
      </trkpt>
      <trkpt lat="46.7878" lon="2.05627">
        <ele>175.8</ele>
        <time>2026-03-14T06:07:15Z</time>
      </trkpt>
      <trkpt lat="46.78778" lon="2.05617">
        <ele>175.6</ele>
        <time>2026-03-14T06:07:16Z</time>
      </trkpt>
      <trkpt lat="46.78771" lon="2.05571">
        <ele>174.6</ele>
        <time>2026-03-14T06:07:20Z</time>
      </trkpt>
      <trkpt lat="46.78771" lon="2.05559">
        <ele>174.4</ele>
        <time>2026-03-14T06:07:21Z</time>
      </trkpt>
      <trkpt lat="46.7877" lon="2.05521">
        <ele>173.6</ele>
        <time>2026-03-14T06:07:24Z</time>
      </trkpt>
      <trkpt lat="46.78772" lon="2.05498">
        <ele>173</ele>
        <time>2026-03-14T06:07:26Z</time>
      </trkpt>
      <trkpt lat="46.78776" lon="2.05475">
        <ele>172.4</ele>
        <time>2026-03-14T06:07:28Z</time>
      </trkpt>
      <trkpt lat="46.78787" lon="2.05433">
        <ele>171.6</ele>
        <time>2026-03-14T06:07:32Z</time>
      </trkpt>
      <trkpt lat="46.78789" lon="2.05425">
        <ele>171.4</ele>
        <time>2026-03-14T06:07:33Z</time>
      </trkpt>
      <trkpt lat="46.78802" lon="2.05384">
        <ele>170.4</ele>
        <time>2026-03-14T06:07:37Z</time>
      </trkpt>
      <trkpt lat="46.7881" lon="2.05354">
        <ele>170</ele>
        <time>2026-03-14T06:07:40Z</time>
      </trkpt>
      <trkpt lat="46.78822" lon="2.05304">
        <ele>169.4</ele>
        <time>2026-03-14T06:07:45Z</time>
      </trkpt>
      <trkpt lat="46.78828" lon="2.05276">
        <ele>169</ele>
        <time>2026-03-14T06:07:48Z</time>
      </trkpt>
      <trkpt lat="46.78841" lon="2.05213">
        <ele>168.8</ele>
        <time>2026-03-14T06:07:55Z</time>
      </trkpt>
      <trkpt lat="46.78858" lon="2.05133">
        <ele>169.4</ele>
        <time>2026-03-14T06:08:04Z</time>
      </trkpt>
      <trkpt lat="46.7886" lon="2.05123">
        <ele>169.4</ele>
        <time>2026-03-14T06:08:05Z</time>
      </trkpt>
      <trkpt lat="46.78878" lon="2.05041">
        <ele>168.8</ele>
        <time>2026-03-14T06:08:14Z</time>
      </trkpt>
      <trkpt lat="46.7888" lon="2.05032">
        <ele>168.8</ele>
        <time>2026-03-14T06:08:15Z</time>
      </trkpt>
      <trkpt lat="46.7889" lon="2.04989">
        <ele>168.2</ele>
        <time>2026-03-14T06:08:20Z</time>
      </trkpt>
      <trkpt lat="46.78893" lon="2.04975">
        <ele>168</ele>
        <time>2026-03-14T06:08:22Z</time>
      </trkpt>
      <trkpt lat="46.78895" lon="2.04965">
        <ele>168</ele>
        <time>2026-03-14T06:08:23Z</time>
      </trkpt>
      <trkpt lat="46.78897" lon="2.04948">
        <ele>168.4</ele>
        <time>2026-03-14T06:08:26Z</time>
      </trkpt>
      <trkpt lat="46.78898" lon="2.04942">
        <ele>168.4</ele>
        <time>2026-03-14T06:08:27Z</time>
      </trkpt>
      <trkpt lat="46.78901" lon="2.04937">
        <ele>168.6</ele>
        <time>2026-03-14T06:08:29Z</time>
      </trkpt>
      <trkpt lat="46.78908" lon="2.04931">
        <ele>168.6</ele>
        <time>2026-03-14T06:08:33Z</time>
      </trkpt>
      <trkpt lat="46.78909" lon="2.04932">
        <ele>168.6</ele>
        <time>2026-03-14T06:08:34Z</time>
      </trkpt>
      <trkpt lat="46.7891" lon="2.04933">
        <ele>168.8</ele>
        <time>2026-03-14T06:08:38Z</time>
      </trkpt>
      <trkpt lat="46.78901" lon="2.04921">
        <ele>167.6</ele>
        <time>2026-03-14T06:20:29Z</time>
      </trkpt>
      <trkpt lat="46.78897" lon="2.04919">
        <ele>167.6</ele>
        <time>2026-03-14T06:20:32Z</time>
      </trkpt>
      <trkpt lat="46.78895" lon="2.0491">
        <ele>167.6</ele>
        <time>2026-03-14T06:20:35Z</time>
      </trkpt>
      <trkpt lat="46.78894" lon="2.04888">
        <ele>167.4</ele>
        <time>2026-03-14T06:20:41Z</time>
      </trkpt>
      <trkpt lat="46.78893" lon="2.04879">
        <ele>167.2</ele>
        <time>2026-03-14T06:20:46Z</time>
      </trkpt>
      <trkpt lat="46.78893" lon="2.04879">
        <ele>167.2</ele>
        <time>2026-03-14T06:20:47Z</time>
      </trkpt>
      <trkpt lat="46.78892" lon="2.04875">
        <ele>167.2</ele>
        <time>2026-03-14T06:23:21Z</time>
      </trkpt>
      <trkpt lat="46.7889" lon="2.04868">
        <ele>167</ele>
        <time>2026-03-14T06:23:23Z</time>
      </trkpt>
      <trkpt lat="46.78882" lon="2.04843">
        <ele>166.8</ele>
        <time>2026-03-14T06:23:28Z</time>
      </trkpt>
      <trkpt lat="46.78876" lon="2.04825">
        <ele>166.6</ele>
        <time>2026-03-14T06:23:31Z</time>
      </trkpt>
      <trkpt lat="46.78872" lon="2.04804">
        <ele>166.4</ele>
        <time>2026-03-14T06:23:34Z</time>
      </trkpt>
      <trkpt lat="46.78863" lon="2.04754">
        <ele>165.6</ele>
        <time>2026-03-14T06:23:41Z</time>
      </trkpt>
      <trkpt lat="46.78861" lon="2.04747">
        <ele>165.6</ele>
        <time>2026-03-14T06:23:42Z</time>
      </trkpt>
      <trkpt lat="46.78855" lon="2.04734">
        <ele>165.6</ele>
        <time>2026-03-14T06:23:44Z</time>
      </trkpt>
      <trkpt lat="46.78852" lon="2.04729">
        <ele>165.6</ele>
        <time>2026-03-14T06:23:45Z</time>
      </trkpt>
      <trkpt lat="46.78844" lon="2.04715">
        <ele>165.4</ele>
        <time>2026-03-14T06:23:47Z</time>
      </trkpt>
      <trkpt lat="46.78841" lon="2.04699">
        <ele>165.4</ele>
        <time>2026-03-14T06:23:49Z</time>
      </trkpt>
      <trkpt lat="46.78842" lon="2.04688">
        <ele>165.2</ele>
        <time>2026-03-14T06:23:50Z</time>
      </trkpt>
      <trkpt lat="46.78844" lon="2.04679">
        <ele>165.2</ele>
        <time>2026-03-14T06:23:51Z</time>
      </trkpt>
      <trkpt lat="46.78847" lon="2.04671">
        <ele>164.8</ele>
        <time>2026-03-14T06:23:52Z</time>
      </trkpt>
      <trkpt lat="46.78866" lon="2.04618">
        <ele>164.6</ele>
        <time>2026-03-14T06:23:59Z</time>
      </trkpt>
      <trkpt lat="46.78885" lon="2.04563">
        <ele>165</ele>
        <time>2026-03-14T06:24:07Z</time>
      </trkpt>
      <trkpt lat="46.78908" lon="2.04503">
        <ele>166.2</ele>
        <time>2026-03-14T06:24:16Z</time>
      </trkpt>
      <trkpt lat="46.7891" lon="2.04498">
        <ele>166.4</ele>
        <time>2026-03-14T06:24:17Z</time>
      </trkpt>
      <trkpt lat="46.78935" lon="2.04431">
        <ele>167.2</ele>
        <time>2026-03-14T06:24:27Z</time>
      </trkpt>
      <trkpt lat="46.78964" lon="2.04353">
        <ele>168.2</ele>
        <time>2026-03-14T06:24:38Z</time>
      </trkpt>
      <trkpt lat="46.7897" lon="2.04338">
        <ele>168.2</ele>
        <time>2026-03-14T06:24:40Z</time>
      </trkpt>
      <trkpt lat="46.78978" lon="2.04314">
        <ele>168.4</ele>
        <time>2026-03-14T06:24:43Z</time>
      </trkpt>
      <trkpt lat="46.78997" lon="2.04264">
        <ele>168.4</ele>
        <time>2026-03-14T06:24:49Z</time>
      </trkpt>
      <trkpt lat="46.79023" lon="2.04189">
        <ele>168</ele>
        <time>2026-03-14T06:24:58Z</time>
      </trkpt>
      <trkpt lat="46.79026" lon="2.04182">
        <ele>168</ele>
        <time>2026-03-14T06:24:59Z</time>
      </trkpt>
      <trkpt lat="46.7905" lon="2.04115">
        <ele>168.4</ele>
        <time>2026-03-14T06:25:08Z</time>
      </trkpt>
      <trkpt lat="46.79075" lon="2.04045">
        <ele>169.4</ele>
        <time>2026-03-14T06:25:18Z</time>
      </trkpt>
      <trkpt lat="46.79087" lon="2.0401">
        <ele>170</ele>
        <time>2026-03-14T06:25:23Z</time>
      </trkpt>
      <trkpt lat="46.791" lon="2.03975">
        <ele>170.6</ele>
        <time>2026-03-14T06:25:28Z</time>
      </trkpt>
      <trkpt lat="46.79114" lon="2.03934">
        <ele>171.4</ele>
        <time>2026-03-14T06:25:34Z</time>
      </trkpt>
      <trkpt lat="46.79116" lon="2.03927">
        <ele>171.6</ele>
        <time>2026-03-14T06:25:35Z</time>
      </trkpt>
      <trkpt lat="46.79129" lon="2.03879">
        <ele>172.8</ele>
        <time>2026-03-14T06:25:42Z</time>
      </trkpt>
      <trkpt lat="46.79133" lon="2.03865">
        <ele>173</ele>
        <time>2026-03-14T06:25:44Z</time>
      </trkpt>
      <trkpt lat="46.79146" lon="2.03797">
        <ele>173.8</ele>
        <time>2026-03-14T06:25:53Z</time>
      </trkpt>
      <trkpt lat="46.79162" lon="2.03717">
        <ele>173.4</ele>
        <time>2026-03-14T06:26:03Z</time>
      </trkpt>
      <trkpt lat="46.79164" lon="2.03707">
        <ele>173.4</ele>
        <time>2026-03-14T06:26:04Z</time>
      </trkpt>
      <trkpt lat="46.79176" lon="2.03629">
        <ele>173.4</ele>
        <time>2026-03-14T06:26:13Z</time>
      </trkpt>
      <trkpt lat="46.79177" lon="2.03621">
        <ele>173.4</ele>
        <time>2026-03-14T06:26:14Z</time>
      </trkpt>
      <trkpt lat="46.79187" lon="2.03541">
        <ele>173.2</ele>
        <time>2026-03-14T06:26:23Z</time>
      </trkpt>
      <trkpt lat="46.79189" lon="2.03514">
        <ele>173.2</ele>
        <time>2026-03-14T06:26:26Z</time>
      </trkpt>
      <trkpt lat="46.79199" lon="2.03426">
        <ele>173</ele>
        <time>2026-03-14T06:26:36Z</time>
      </trkpt>
      <trkpt lat="46.792" lon="2.03418">
        <ele>173</ele>
        <time>2026-03-14T06:26:37Z</time>
      </trkpt>
      <trkpt lat="46.79209" lon="2.03338">
        <ele>172.8</ele>
        <time>2026-03-14T06:26:46Z</time>
      </trkpt>
      <trkpt lat="46.79212" lon="2.03303">
        <ele>172.6</ele>
        <time>2026-03-14T06:26:50Z</time>
      </trkpt>
      <trkpt lat="46.79215" lon="2.0322">
        <ele>172.4</ele>
        <time>2026-03-14T06:26:59Z</time>
      </trkpt>
      <trkpt lat="46.79215" lon="2.03211">
        <ele>172.4</ele>
        <time>2026-03-14T06:27:00Z</time>
      </trkpt>
      <trkpt lat="46.79212" lon="2.03128">
        <ele>171.8</ele>
        <time>2026-03-14T06:27:09Z</time>
      </trkpt>
      <trkpt lat="46.79211" lon="2.03117">
        <ele>171.8</ele>
        <time>2026-03-14T06:27:10Z</time>
      </trkpt>
      <trkpt lat="46.7921" lon="2.031">
        <ele>171.6</ele>
        <time>2026-03-14T06:27:12Z</time>
      </trkpt>
      <trkpt lat="46.79204" lon="2.03019">
        <ele>170.8</ele>
        <time>2026-03-14T06:27:20Z</time>
      </trkpt>
      <trkpt lat="46.79204" lon="2.03011">
        <ele>170.6</ele>
        <time>2026-03-14T06:27:21Z</time>
      </trkpt>
      <trkpt lat="46.79202" lon="2.02989">
        <ele>170.4</ele>
        <time>2026-03-14T06:27:23Z</time>
      </trkpt>
      <trkpt lat="46.79197" lon="2.02929">
        <ele>169.2</ele>
        <time>2026-03-14T06:27:29Z</time>
      </trkpt>
      <trkpt lat="46.79194" lon="2.0289">
        <ele>168.8</ele>
        <time>2026-03-14T06:27:33Z</time>
      </trkpt>
      <trkpt lat="46.79186" lon="2.02804">
        <ele>168.2</ele>
        <time>2026-03-14T06:27:42Z</time>
      </trkpt>
      <trkpt lat="46.79185" lon="2.02794">
        <ele>168.2</ele>
        <time>2026-03-14T06:27:43Z</time>
      </trkpt>
      <trkpt lat="46.79184" lon="2.02777">
        <ele>168.2</ele>
        <time>2026-03-14T06:27:45Z</time>
      </trkpt>
      <trkpt lat="46.79177" lon="2.02698">
        <ele>168</ele>
        <time>2026-03-14T06:27:53Z</time>
      </trkpt>
      <trkpt lat="46.79174" lon="2.0266">
        <ele>167.8</ele>
        <time>2026-03-14T06:27:57Z</time>
      </trkpt>
      <trkpt lat="46.7917" lon="2.02572">
        <ele>167.6</ele>
        <time>2026-03-14T06:28:06Z</time>
      </trkpt>
      <trkpt lat="46.79169" lon="2.02555">
        <ele>167.6</ele>
        <time>2026-03-14T06:28:08Z</time>
      </trkpt>
      <trkpt lat="46.79167" lon="2.02469">
        <ele>167.2</ele>
        <time>2026-03-14T06:28:17Z</time>
      </trkpt>
      <trkpt lat="46.79167" lon="2.0245">
        <ele>167.2</ele>
        <time>2026-03-14T06:28:19Z</time>
      </trkpt>
      <trkpt lat="46.79166" lon="2.02362">
        <ele>167.2</ele>
        <time>2026-03-14T06:28:28Z</time>
      </trkpt>
      <trkpt lat="46.79166" lon="2.0232">
        <ele>167</ele>
        <time>2026-03-14T06:28:32Z</time>
      </trkpt>
      <trkpt lat="46.79165" lon="2.02238">
        <ele>166.6</ele>
        <time>2026-03-14T06:28:40Z</time>
      </trkpt>
      <trkpt lat="46.79165" lon="2.02219">
        <ele>166.6</ele>
        <time>2026-03-14T06:28:42Z</time>
      </trkpt>
      <trkpt lat="46.79164" lon="2.02145">
        <ele>166.2</ele>
        <time>2026-03-14T06:28:49Z</time>
      </trkpt>
      <trkpt lat="46.79163" lon="2.02118">
        <ele>166</ele>
        <time>2026-03-14T06:28:52Z</time>
      </trkpt>
      <trkpt lat="46.79163" lon="2.02037">
        <ele>165.4</ele>
        <time>2026-03-14T06:29:00Z</time>
      </trkpt>
      <trkpt lat="46.79163" lon="2.01999">
        <ele>165.4</ele>
        <time>2026-03-14T06:29:04Z</time>
      </trkpt>
      <trkpt lat="46.79162" lon="2.01914">
        <ele>165.4</ele>
        <time>2026-03-14T06:29:13Z</time>
      </trkpt>
      <trkpt lat="46.79162" lon="2.01887">
        <ele>165.6</ele>
        <time>2026-03-14T06:29:16Z</time>
      </trkpt>
      <trkpt lat="46.79162" lon="2.01806">
        <ele>166.4</ele>
        <time>2026-03-14T06:29:25Z</time>
      </trkpt>
      <trkpt lat="46.79161" lon="2.01769">
        <ele>166.6</ele>
        <time>2026-03-14T06:29:29Z</time>
      </trkpt>
      <trkpt lat="46.79161" lon="2.01725">
        <ele>167</ele>
        <time>2026-03-14T06:29:34Z</time>
      </trkpt>
      <trkpt lat="46.79161" lon="2.01659">
        <ele>167.2</ele>
        <time>2026-03-14T06:29:41Z</time>
      </trkpt>
      <trkpt lat="46.79161" lon="2.01575">
        <ele>167</ele>
        <time>2026-03-14T06:29:50Z</time>
      </trkpt>
      <trkpt lat="46.79161" lon="2.01557">
        <ele>167</ele>
        <time>2026-03-14T06:29:52Z</time>
      </trkpt>
      <trkpt lat="46.7916" lon="2.01473">
        <ele>167</ele>
        <time>2026-03-14T06:30:01Z</time>
      </trkpt>
      <trkpt lat="46.79158" lon="2.01387">
        <ele>166.8</ele>
        <time>2026-03-14T06:30:10Z</time>
      </trkpt>
      <trkpt lat="46.79158" lon="2.01378">
        <ele>166.8</ele>
        <time>2026-03-14T06:30:11Z</time>
      </trkpt>
      <trkpt lat="46.79158" lon="2.01303">
        <ele>167</ele>
        <time>2026-03-14T06:30:19Z</time>
      </trkpt>
      <trkpt lat="46.79157" lon="2.01236">
        <ele>166.8</ele>
        <time>2026-03-14T06:30:26Z</time>
      </trkpt>
      <trkpt lat="46.79157" lon="2.01148">
        <ele>166.6</ele>
        <time>2026-03-14T06:30:35Z</time>
      </trkpt>
      <trkpt lat="46.79157" lon="2.01138">
        <ele>166.6</ele>
        <time>2026-03-14T06:30:36Z</time>
      </trkpt>
      <trkpt lat="46.7916" lon="2.01056">
        <ele>166.4</ele>
        <time>2026-03-14T06:30:44Z</time>
      </trkpt>
      <trkpt lat="46.79163" lon="2.00976">
        <ele>165.4</ele>
        <time>2026-03-14T06:30:52Z</time>
      </trkpt>
      <trkpt lat="46.79164" lon="2.00966">
        <ele>165.4</ele>
        <time>2026-03-14T06:30:53Z</time>
      </trkpt>
      <trkpt lat="46.79166" lon="2.00887">
        <ele>165</ele>
        <time>2026-03-14T06:31:01Z</time>
      </trkpt>
      <trkpt lat="46.79169" lon="2.00808">
        <ele>164.8</ele>
        <time>2026-03-14T06:31:09Z</time>
      </trkpt>
      <trkpt lat="46.7917" lon="2.00789">
        <ele>164.6</ele>
        <time>2026-03-14T06:31:11Z</time>
      </trkpt>
      <trkpt lat="46.79171" lon="2.00746">
        <ele>164.2</ele>
        <time>2026-03-14T06:31:15Z</time>
      </trkpt>
      <trkpt lat="46.79172" lon="2.00702">
        <ele>163.4</ele>
        <time>2026-03-14T06:31:19Z</time>
      </trkpt>
      <trkpt lat="46.79173" lon="2.00691">
        <ele>163.2</ele>
        <time>2026-03-14T06:31:20Z</time>
      </trkpt>
      <trkpt lat="46.79175" lon="2.00644">
        <ele>162.2</ele>
        <time>2026-03-14T06:31:24Z</time>
      </trkpt>
      <trkpt lat="46.79175" lon="2.00632">
        <ele>161.8</ele>
        <time>2026-03-14T06:31:25Z</time>
      </trkpt>
      <trkpt lat="46.79177" lon="2.00596">
        <ele>160.8</ele>
        <time>2026-03-14T06:31:28Z</time>
      </trkpt>
      <trkpt lat="46.7918" lon="2.00519">
        <ele>159.8</ele>
        <time>2026-03-14T06:31:35Z</time>
      </trkpt>
      <trkpt lat="46.7918" lon="2.00508">
        <ele>159.8</ele>
        <time>2026-03-14T06:31:36Z</time>
      </trkpt>
      <trkpt lat="46.79183" lon="2.0045">
        <ele>160</ele>
        <time>2026-03-14T06:31:42Z</time>
      </trkpt>
      <trkpt lat="46.79184" lon="2.00389">
        <ele>160.8</ele>
        <time>2026-03-14T06:31:49Z</time>
      </trkpt>
      <trkpt lat="46.79184" lon="2.0038">
        <ele>160.8</ele>
        <time>2026-03-14T06:31:50Z</time>
      </trkpt>
      <trkpt lat="46.79187" lon="2.00315">
        <ele>162.2</ele>
        <time>2026-03-14T06:31:58Z</time>
      </trkpt>
      <trkpt lat="46.79187" lon="2.00307">
        <ele>162.2</ele>
        <time>2026-03-14T06:31:59Z</time>
      </trkpt>
      <trkpt lat="46.7919" lon="2.00226">
        <ele>163</ele>
        <time>2026-03-14T06:32:09Z</time>
      </trkpt>
      <trkpt lat="46.79191" lon="2.00218">
        <ele>163.2</ele>
        <time>2026-03-14T06:32:10Z</time>
      </trkpt>
      <trkpt lat="46.79195" lon="2.00135">
        <ele>163.6</ele>
        <time>2026-03-14T06:32:20Z</time>
      </trkpt>
      <trkpt lat="46.79195" lon="2.00127">
        <ele>163.4</ele>
        <time>2026-03-14T06:32:21Z</time>
      </trkpt>
      <trkpt lat="46.79199" lon="2.00041">
        <ele>163.8</ele>
        <time>2026-03-14T06:32:31Z</time>
      </trkpt>
      <trkpt lat="46.792" lon="2.00005">
        <ele>164</ele>
        <time>2026-03-14T06:32:35Z</time>
      </trkpt>
      <trkpt lat="46.79204" lon="1.99925">
        <ele>164.6</ele>
        <time>2026-03-14T06:32:45Z</time>
      </trkpt>
      <trkpt lat="46.79204" lon="1.99917">
        <ele>164.8</ele>
        <time>2026-03-14T06:32:46Z</time>
      </trkpt>
      <trkpt lat="46.79205" lon="1.99894">
        <ele>165</ele>
        <time>2026-03-14T06:32:49Z</time>
      </trkpt>
      <trkpt lat="46.79206" lon="1.99852">
        <ele>165.6</ele>
        <time>2026-03-14T06:32:55Z</time>
      </trkpt>
      <trkpt lat="46.79206" lon="1.99826">
        <ele>166.4</ele>
        <time>2026-03-14T06:32:59Z</time>
      </trkpt>
      <trkpt lat="46.79207" lon="1.99807">
        <ele>167</ele>
        <time>2026-03-14T06:33:02Z</time>
      </trkpt>
      <trkpt lat="46.79208" lon="1.99787">
        <ele>167.4</ele>
        <time>2026-03-14T06:33:05Z</time>
      </trkpt>
      <trkpt lat="46.79211" lon="1.99749">
        <ele>168.4</ele>
        <time>2026-03-14T06:33:11Z</time>
      </trkpt>
      <trkpt lat="46.79211" lon="1.99736">
        <ele>169</ele>
        <time>2026-03-14T06:33:13Z</time>
      </trkpt>
      <trkpt lat="46.79212" lon="1.9971">
        <ele>169.6</ele>
        <time>2026-03-14T06:33:17Z</time>
      </trkpt>
      <trkpt lat="46.79212" lon="1.99678">
        <ele>170.4</ele>
        <time>2026-03-14T06:33:22Z</time>
      </trkpt>
      <trkpt lat="46.79212" lon="1.99672">
        <ele>170.6</ele>
        <time>2026-03-14T06:33:23Z</time>
      </trkpt>
      <trkpt lat="46.79212" lon="1.99665">
        <ele>170.6</ele>
        <time>2026-03-14T06:33:24Z</time>
      </trkpt>
      <trkpt lat="46.79215" lon="1.99611">
        <ele>171.6</ele>
        <time>2026-03-14T06:33:32Z</time>
      </trkpt>
      <trkpt lat="46.79219" lon="1.9953">
        <ele>172.4</ele>
        <time>2026-03-14T06:33:43Z</time>
      </trkpt>
      <trkpt lat="46.79219" lon="1.99516">
        <ele>172.6</ele>
        <time>2026-03-14T06:33:45Z</time>
      </trkpt>
      <trkpt lat="46.7922" lon="1.99481">
        <ele>172.6</ele>
        <time>2026-03-14T06:33:49Z</time>
      </trkpt>
      <trkpt lat="46.79222" lon="1.99445">
        <ele>172.6</ele>
        <time>2026-03-14T06:33:53Z</time>
      </trkpt>
      <trkpt lat="46.79225" lon="1.9936">
        <ele>172.2</ele>
        <time>2026-03-14T06:34:02Z</time>
      </trkpt>
      <trkpt lat="46.79229" lon="1.99281">
        <ele>171.6</ele>
        <time>2026-03-14T06:34:10Z</time>
      </trkpt>
      <trkpt lat="46.79229" lon="1.99271">
        <ele>171.6</ele>
        <time>2026-03-14T06:34:11Z</time>
      </trkpt>
      <trkpt lat="46.79242" lon="1.99203">
        <ele>171</ele>
        <time>2026-03-14T06:34:18Z</time>
      </trkpt>
      <trkpt lat="46.79259" lon="1.99148">
        <ele>170.6</ele>
        <time>2026-03-14T06:34:24Z</time>
      </trkpt>
      <trkpt lat="46.79266" lon="1.9913">
        <ele>170.6</ele>
        <time>2026-03-14T06:34:26Z</time>
      </trkpt>
      <trkpt lat="46.79292" lon="1.99056">
        <ele>170.2</ele>
        <time>2026-03-14T06:34:34Z</time>
      </trkpt>
      <trkpt lat="46.79306" lon="1.99018">
        <ele>169.6</ele>
        <time>2026-03-14T06:34:38Z</time>
      </trkpt>
      <trkpt lat="46.7932" lon="1.98977">
        <ele>169</ele>
        <time>2026-03-14T06:34:42Z</time>
      </trkpt>
      <trkpt lat="46.79331" lon="1.98946">
        <ele>168.6</ele>
        <time>2026-03-14T06:34:45Z</time>
      </trkpt>
      <trkpt lat="46.7935" lon="1.98892">
        <ele>167.6</ele>
        <time>2026-03-14T06:34:50Z</time>
      </trkpt>
      <trkpt lat="46.7936" lon="1.98861">
        <ele>166.4</ele>
        <time>2026-03-14T06:34:53Z</time>
      </trkpt>
      <trkpt lat="46.79373" lon="1.98823">
        <ele>166</ele>
        <time>2026-03-14T06:34:57Z</time>
      </trkpt>
      <trkpt lat="46.7939" lon="1.98761">
        <ele>166</ele>
        <time>2026-03-14T06:35:04Z</time>
      </trkpt>
      <trkpt lat="46.79392" lon="1.98731">
        <ele>166.2</ele>
        <time>2026-03-14T06:35:07Z</time>
      </trkpt>
      <trkpt lat="46.79394" lon="1.98704">
        <ele>166.6</ele>
        <time>2026-03-14T06:35:10Z</time>
      </trkpt>
      <trkpt lat="46.79399" lon="1.98624">
        <ele>167</ele>
        <time>2026-03-14T06:35:19Z</time>
      </trkpt>
      <trkpt lat="46.79403" lon="1.98549">
        <ele>166.8</ele>
        <time>2026-03-14T06:35:27Z</time>
      </trkpt>
      <trkpt lat="46.79408" lon="1.98498">
        <ele>166.2</ele>
        <time>2026-03-14T06:35:32Z</time>
      </trkpt>
      <trkpt lat="46.79411" lon="1.98487">
        <ele>166</ele>
        <time>2026-03-14T06:35:33Z</time>
      </trkpt>
      <trkpt lat="46.79419" lon="1.98469">
        <ele>165.6</ele>
        <time>2026-03-14T06:35:35Z</time>
      </trkpt>
      <trkpt lat="46.79424" lon="1.98461">
        <ele>165.4</ele>
        <time>2026-03-14T06:35:36Z</time>
      </trkpt>
      <trkpt lat="46.79429" lon="1.98454">
        <ele>165.2</ele>
        <time>2026-03-14T06:35:37Z</time>
      </trkpt>
      <trkpt lat="46.79455" lon="1.98418">
        <ele>164.2</ele>
        <time>2026-03-14T06:35:42Z</time>
      </trkpt>
      <trkpt lat="46.79458" lon="1.98412">
        <ele>164</ele>
        <time>2026-03-14T06:35:43Z</time>
      </trkpt>
      <trkpt lat="46.7946" lon="1.98405">
        <ele>163.8</ele>
        <time>2026-03-14T06:35:44Z</time>
      </trkpt>
      <trkpt lat="46.7946" lon="1.98399">
        <ele>163.6</ele>
        <time>2026-03-14T06:35:45Z</time>
      </trkpt>
      <trkpt lat="46.79456" lon="1.98385">
        <ele>163.2</ele>
        <time>2026-03-14T06:35:47Z</time>
      </trkpt>
      <trkpt lat="46.79452" lon="1.98378">
        <ele>163</ele>
        <time>2026-03-14T06:35:48Z</time>
      </trkpt>
      <trkpt lat="46.79435" lon="1.98341">
        <ele>162.4</ele>
        <time>2026-03-14T06:35:53Z</time>
      </trkpt>
      <trkpt lat="46.79423" lon="1.98313">
        <ele>162</ele>
        <time>2026-03-14T06:35:57Z</time>
      </trkpt>
      <trkpt lat="46.79413" lon="1.98291">
        <ele>161.6</ele>
        <time>2026-03-14T06:36:00Z</time>
      </trkpt>
      <trkpt lat="46.79387" lon="1.98235">
        <ele>160.8</ele>
        <time>2026-03-14T06:36:07Z</time>
      </trkpt>
      <trkpt lat="46.79383" lon="1.98227">
        <ele>160.6</ele>
        <time>2026-03-14T06:36:08Z</time>
      </trkpt>
      <trkpt lat="46.79354" lon="1.98155">
        <ele>160.2</ele>
        <time>2026-03-14T06:36:17Z</time>
      </trkpt>
      <trkpt lat="46.79352" lon="1.98137">
        <ele>160.2</ele>
        <time>2026-03-14T06:36:19Z</time>
      </trkpt>
      <trkpt lat="46.79353" lon="1.98127">
        <ele>160.2</ele>
        <time>2026-03-14T06:36:20Z</time>
      </trkpt>
      <trkpt lat="46.79355" lon="1.98118">
        <ele>160.2</ele>
        <time>2026-03-14T06:36:21Z</time>
      </trkpt>
      <trkpt lat="46.79365" lon="1.98091">
        <ele>160.2</ele>
        <time>2026-03-14T06:36:24Z</time>
      </trkpt>
      <trkpt lat="46.79392" lon="1.98017">
        <ele>160.4</ele>
        <time>2026-03-14T06:36:33Z</time>
      </trkpt>
      <trkpt lat="46.79395" lon="1.98009">
        <ele>160.4</ele>
        <time>2026-03-14T06:36:34Z</time>
      </trkpt>
      <trkpt lat="46.79415" lon="1.97955">
        <ele>161</ele>
        <time>2026-03-14T06:36:41Z</time>
      </trkpt>
      <trkpt lat="46.79431" lon="1.97911">
        <ele>161.8</ele>
        <time>2026-03-14T06:36:47Z</time>
      </trkpt>
      <trkpt lat="46.79435" lon="1.97897">
        <ele>162</ele>
        <time>2026-03-14T06:36:49Z</time>
      </trkpt>
      <trkpt lat="46.79456" lon="1.97835">
        <ele>162.8</ele>
        <time>2026-03-14T06:36:57Z</time>
      </trkpt>
      <trkpt lat="46.7948" lon="1.9776">
        <ele>163.2</ele>
        <time>2026-03-14T06:37:06Z</time>
      </trkpt>
      <trkpt lat="46.79502" lon="1.97684">
        <ele>163</ele>
        <time>2026-03-14T06:37:15Z</time>
      </trkpt>
      <trkpt lat="46.79505" lon="1.97676">
        <ele>162.8</ele>
        <time>2026-03-14T06:37:16Z</time>
      </trkpt>
      <trkpt lat="46.79508" lon="1.9764">
        <ele>162.6</ele>
        <time>2026-03-14T06:37:20Z</time>
      </trkpt>
      <trkpt lat="46.79508" lon="1.97631">
        <ele>162.8</ele>
        <time>2026-03-14T06:37:21Z</time>
      </trkpt>
      <trkpt lat="46.79498" lon="1.97553">
        <ele>162.4</ele>
        <time>2026-03-14T06:37:29Z</time>
      </trkpt>
      <trkpt lat="46.79489" lon="1.97489">
        <ele>161.4</ele>
        <time>2026-03-14T06:37:35Z</time>
      </trkpt>
      <trkpt lat="46.79484" lon="1.97448">
        <ele>160.8</ele>
        <time>2026-03-14T06:37:39Z</time>
      </trkpt>
      <trkpt lat="46.7948" lon="1.97417">
        <ele>160.2</ele>
        <time>2026-03-14T06:37:42Z</time>
      </trkpt>
      <trkpt lat="46.79471" lon="1.97351">
        <ele>159.2</ele>
        <time>2026-03-14T06:37:48Z</time>
      </trkpt>
      <trkpt lat="46.79466" lon="1.97278">
        <ele>158</ele>
        <time>2026-03-14T06:37:55Z</time>
      </trkpt>
      <trkpt lat="46.79463" lon="1.97255">
        <ele>157.8</ele>
        <time>2026-03-14T06:37:57Z</time>
      </trkpt>
      <trkpt lat="46.79456" lon="1.97233">
        <ele>157.6</ele>
        <time>2026-03-14T06:37:59Z</time>
      </trkpt>
      <trkpt lat="46.79446" lon="1.97212">
        <ele>157</ele>
        <time>2026-03-14T06:38:01Z</time>
      </trkpt>
      <trkpt lat="46.79428" lon="1.97181">
        <ele>155.8</ele>
        <time>2026-03-14T06:38:04Z</time>
      </trkpt>
      <trkpt lat="46.79422" lon="1.97172">
        <ele>155.2</ele>
        <time>2026-03-14T06:38:05Z</time>
      </trkpt>
      <trkpt lat="46.79415" lon="1.97165">
        <ele>154.8</ele>
        <time>2026-03-14T06:38:06Z</time>
      </trkpt>
      <trkpt lat="46.79403" lon="1.9715">
        <ele>154</ele>
        <time>2026-03-14T06:38:08Z</time>
      </trkpt>
      <trkpt lat="46.79396" lon="1.97143">
        <ele>153.6</ele>
        <time>2026-03-14T06:38:09Z</time>
      </trkpt>
      <trkpt lat="46.79381" lon="1.97123">
        <ele>152.2</ele>
        <time>2026-03-14T06:38:11Z</time>
      </trkpt>
      <trkpt lat="46.79375" lon="1.97111">
        <ele>152</ele>
        <time>2026-03-14T06:38:12Z</time>
      </trkpt>
      <trkpt lat="46.7937" lon="1.971">
        <ele>151.2</ele>
        <time>2026-03-14T06:38:13Z</time>
      </trkpt>
      <trkpt lat="46.79366" lon="1.97088">
        <ele>151</ele>
        <time>2026-03-14T06:38:14Z</time>
      </trkpt>
      <trkpt lat="46.7936" lon="1.97066">
        <ele>150</ele>
        <time>2026-03-14T06:38:16Z</time>
      </trkpt>
      <trkpt lat="46.79347" lon="1.97013">
        <ele>149.4</ele>
        <time>2026-03-14T06:38:21Z</time>
      </trkpt>
      <trkpt lat="46.79327" lon="1.96956">
        <ele>149.6</ele>
        <time>2026-03-14T06:38:27Z</time>
      </trkpt>
      <trkpt lat="46.79303" lon="1.96901">
        <ele>150.2</ele>
        <time>2026-03-14T06:38:34Z</time>
      </trkpt>
      <trkpt lat="46.79289" lon="1.96871">
        <ele>150.8</ele>
        <time>2026-03-14T06:38:38Z</time>
      </trkpt>
      <trkpt lat="46.79275" lon="1.96841">
        <ele>151.2</ele>
        <time>2026-03-14T06:38:42Z</time>
      </trkpt>
      <trkpt lat="46.7926" lon="1.96806">
        <ele>151.8</ele>
        <time>2026-03-14T06:38:47Z</time>
      </trkpt>
      <trkpt lat="46.79247" lon="1.96777">
        <ele>152.4</ele>
        <time>2026-03-14T06:38:51Z</time>
      </trkpt>
      <trkpt lat="46.79226" lon="1.96728">
        <ele>153</ele>
        <time>2026-03-14T06:38:58Z</time>
      </trkpt>
      <trkpt lat="46.7922" lon="1.96715">
        <ele>153.2</ele>
        <time>2026-03-14T06:39:00Z</time>
      </trkpt>
      <trkpt lat="46.79198" lon="1.96669">
        <ele>154</ele>
        <time>2026-03-14T06:39:07Z</time>
      </trkpt>
      <trkpt lat="46.79185" lon="1.96645">
        <ele>154.4</ele>
        <time>2026-03-14T06:39:11Z</time>
      </trkpt>
      <trkpt lat="46.7916" lon="1.96604">
        <ele>155</ele>
        <time>2026-03-14T06:39:18Z</time>
      </trkpt>
      <trkpt lat="46.79149" lon="1.96584">
        <ele>155.4</ele>
        <time>2026-03-14T06:39:21Z</time>
      </trkpt>
      <trkpt lat="46.79125" lon="1.96544">
        <ele>156</ele>
        <time>2026-03-14T06:39:28Z</time>
      </trkpt>
      <trkpt lat="46.79114" lon="1.96526">
        <ele>156.4</ele>
        <time>2026-03-14T06:39:31Z</time>
      </trkpt>
      <trkpt lat="46.79099" lon="1.96499">
        <ele>156.8</ele>
        <time>2026-03-14T06:39:36Z</time>
      </trkpt>
      <trkpt lat="46.79097" lon="1.96495">
        <ele>156.8</ele>
        <time>2026-03-14T06:39:37Z</time>
      </trkpt>
      <trkpt lat="46.79093" lon="1.9649">
        <ele>157</ele>
        <time>2026-03-14T06:39:38Z</time>
      </trkpt>
      <trkpt lat="46.79081" lon="1.9647">
        <ele>158</ele>
        <time>2026-03-14T06:39:42Z</time>
      </trkpt>
      <trkpt lat="46.79073" lon="1.96454">
        <ele>158.6</ele>
        <time>2026-03-14T06:39:45Z</time>
      </trkpt>
      <trkpt lat="46.79067" lon="1.96443">
        <ele>159</ele>
        <time>2026-03-14T06:39:47Z</time>
      </trkpt>
      <trkpt lat="46.79044" lon="1.9641">
        <ele>159.8</ele>
        <time>2026-03-14T06:39:53Z</time>
      </trkpt>
      <trkpt lat="46.79039" lon="1.96404">
        <ele>160</ele>
        <time>2026-03-14T06:39:54Z</time>
      </trkpt>
      <trkpt lat="46.7903" lon="1.96394">
        <ele>160.2</ele>
        <time>2026-03-14T06:39:56Z</time>
      </trkpt>
      <trkpt lat="46.79015" lon="1.96383">
        <ele>160.2</ele>
        <time>2026-03-14T06:39:59Z</time>
      </trkpt>
      <trkpt lat="46.78964" lon="1.96347">
        <ele>160</ele>
        <time>2026-03-14T06:40:08Z</time>
      </trkpt>
      <trkpt lat="46.78958" lon="1.96344">
        <ele>159.8</ele>
        <time>2026-03-14T06:40:09Z</time>
      </trkpt>
      <trkpt lat="46.78906" lon="1.96305">
        <ele>160</ele>
        <time>2026-03-14T06:40:19Z</time>
      </trkpt>
      <trkpt lat="46.78901" lon="1.963">
        <ele>160</ele>
        <time>2026-03-14T06:40:20Z</time>
      </trkpt>
      <trkpt lat="46.78876" lon="1.96267">
        <ele>160.2</ele>
        <time>2026-03-14T06:40:26Z</time>
      </trkpt>
      <trkpt lat="46.78857" lon="1.96223">
        <ele>160.6</ele>
        <time>2026-03-14T06:40:32Z</time>
      </trkpt>
      <trkpt lat="46.78836" lon="1.96161">
        <ele>161</ele>
        <time>2026-03-14T06:40:40Z</time>
      </trkpt>
      <trkpt lat="46.78833" lon="1.96154">
        <ele>161.2</ele>
        <time>2026-03-14T06:40:41Z</time>
      </trkpt>
      <trkpt lat="46.78826" lon="1.96141">
        <ele>161.2</ele>
        <time>2026-03-14T06:40:43Z</time>
      </trkpt>
      <trkpt lat="46.78808" lon="1.96117">
        <ele>161.6</ele>
        <time>2026-03-14T06:40:47Z</time>
      </trkpt>
      <trkpt lat="46.78762" lon="1.96068">
        <ele>162</ele>
        <time>2026-03-14T06:40:57Z</time>
      </trkpt>
      <trkpt lat="46.78753" lon="1.96058">
        <ele>162.4</ele>
        <time>2026-03-14T06:40:59Z</time>
      </trkpt>
      <trkpt lat="46.78746" lon="1.96047">
        <ele>162.6</ele>
        <time>2026-03-14T06:41:01Z</time>
      </trkpt>
      <trkpt lat="46.78742" lon="1.96034">
        <ele>162.8</ele>
        <time>2026-03-14T06:41:03Z</time>
      </trkpt>
      <trkpt lat="46.78742" lon="1.96028">
        <ele>163.2</ele>
        <time>2026-03-14T06:41:04Z</time>
      </trkpt>
      <trkpt lat="46.78742" lon="1.96012">
        <ele>163.6</ele>
        <time>2026-03-14T06:41:07Z</time>
      </trkpt>
      <trkpt lat="46.78741" lon="1.96003">
        <ele>163.8</ele>
        <time>2026-03-14T06:41:10Z</time>
      </trkpt>
      <trkpt lat="46.78739" lon="1.96001">
        <ele>163.8</ele>
        <time>2026-03-14T06:41:11Z</time>
      </trkpt>
      <trkpt lat="46.78737" lon="1.96">
        <ele>164</ele>
        <time>2026-03-14T06:41:12Z</time>
      </trkpt>
      <trkpt lat="46.78726" lon="1.95999">
        <ele>164</ele>
        <time>2026-03-14T06:41:15Z</time>
      </trkpt>
      <trkpt lat="46.78704" lon="1.95995">
        <ele>164.4</ele>
        <time>2026-03-14T06:41:20Z</time>
      </trkpt>
      <trkpt lat="46.78686" lon="1.95993">
        <ele>165</ele>
        <time>2026-03-14T06:41:24Z</time>
      </trkpt>
      <trkpt lat="46.7867" lon="1.95992">
        <ele>165.6</ele>
        <time>2026-03-14T06:41:27Z</time>
      </trkpt>
      <trkpt lat="46.78643" lon="1.95988">
        <ele>166</ele>
        <time>2026-03-14T06:41:32Z</time>
      </trkpt>
      <trkpt lat="46.78627" lon="1.95986">
        <ele>166.2</ele>
        <time>2026-03-14T06:41:35Z</time>
      </trkpt>
      <trkpt lat="46.7857" lon="1.95978">
        <ele>167</ele>
        <time>2026-03-14T06:41:45Z</time>
      </trkpt>
      <trkpt lat="46.78535" lon="1.95967">
        <ele>166.6</ele>
        <time>2026-03-14T06:41:51Z</time>
      </trkpt>
      <trkpt lat="46.78529" lon="1.95963">
        <ele>166.6</ele>
        <time>2026-03-14T06:41:52Z</time>
      </trkpt>
      <trkpt lat="46.78475" lon="1.95932">
        <ele>166.6</ele>
        <time>2026-03-14T06:42:02Z</time>
      </trkpt>
      <trkpt lat="46.78473" lon="1.95922">
        <ele>166.6</ele>
        <time>2026-03-14T06:42:04Z</time>
      </trkpt>
      <trkpt lat="46.78479" lon="1.959">
        <ele>166.6</ele>
        <time>2026-03-14T06:42:07Z</time>
      </trkpt>
      <trkpt lat="46.78484" lon="1.95884">
        <ele>166.6</ele>
        <time>2026-03-14T06:42:09Z</time>
      </trkpt>
      <trkpt lat="46.78506" lon="1.95807">
        <ele>166.2</ele>
        <time>2026-03-14T06:42:18Z</time>
      </trkpt>
      <trkpt lat="46.78529" lon="1.95732">
        <ele>166.2</ele>
        <time>2026-03-14T06:42:27Z</time>
      </trkpt>
      <trkpt lat="46.78531" lon="1.95724">
        <ele>166.2</ele>
        <time>2026-03-14T06:42:28Z</time>
      </trkpt>
      <trkpt lat="46.78556" lon="1.95646">
        <ele>166.8</ele>
        <time>2026-03-14T06:42:38Z</time>
      </trkpt>
      <trkpt lat="46.78564" lon="1.95623">
        <ele>167.2</ele>
        <time>2026-03-14T06:42:41Z</time>
      </trkpt>
      <trkpt lat="46.78577" lon="1.95585">
        <ele>167.6</ele>
        <time>2026-03-14T06:42:46Z</time>
      </trkpt>
      <trkpt lat="46.78589" lon="1.95548">
        <ele>168.2</ele>
        <time>2026-03-14T06:42:51Z</time>
      </trkpt>
      <trkpt lat="46.78604" lon="1.95503">
        <ele>169</ele>
        <time>2026-03-14T06:42:57Z</time>
      </trkpt>
      <trkpt lat="46.78613" lon="1.95471">
        <ele>169.2</ele>
        <time>2026-03-14T06:43:01Z</time>
      </trkpt>
      <trkpt lat="46.78626" lon="1.95419">
        <ele>169.2</ele>
        <time>2026-03-14T06:43:07Z</time>
      </trkpt>
      <trkpt lat="46.78644" lon="1.95342">
        <ele>168.4</ele>
        <time>2026-03-14T06:43:15Z</time>
      </trkpt>
      <trkpt lat="46.78648" lon="1.95321">
        <ele>167.8</ele>
        <time>2026-03-14T06:43:17Z</time>
      </trkpt>
      <trkpt lat="46.78662" lon="1.95268">
        <ele>166.8</ele>
        <time>2026-03-14T06:43:22Z</time>
      </trkpt>
      <trkpt lat="46.78672" lon="1.95224">
        <ele>165.4</ele>
        <time>2026-03-14T06:43:26Z</time>
      </trkpt>
      <trkpt lat="46.78681" lon="1.95188">
        <ele>164.4</ele>
        <time>2026-03-14T06:43:29Z</time>
      </trkpt>
      <trkpt lat="46.78684" lon="1.95177">
        <ele>164.2</ele>
        <time>2026-03-14T06:43:30Z</time>
      </trkpt>
      <trkpt lat="46.78689" lon="1.95153">
        <ele>163.2</ele>
        <time>2026-03-14T06:43:32Z</time>
      </trkpt>
      <trkpt lat="46.78697" lon="1.9512">
        <ele>162.2</ele>
        <time>2026-03-14T06:43:35Z</time>
      </trkpt>
      <trkpt lat="46.78705" lon="1.95088">
        <ele>161.6</ele>
        <time>2026-03-14T06:43:38Z</time>
      </trkpt>
      <trkpt lat="46.78713" lon="1.95056">
        <ele>161.2</ele>
        <time>2026-03-14T06:43:41Z</time>
      </trkpt>
      <trkpt lat="46.78723" lon="1.95016">
        <ele>160.8</ele>
        <time>2026-03-14T06:43:45Z</time>
      </trkpt>
      <trkpt lat="46.78736" lon="1.94974">
        <ele>160.8</ele>
        <time>2026-03-14T06:43:50Z</time>
      </trkpt>
      <trkpt lat="46.78756" lon="1.94925">
        <ele>161.8</ele>
        <time>2026-03-14T06:43:57Z</time>
      </trkpt>
      <trkpt lat="46.78769" lon="1.94889">
        <ele>162.2</ele>
        <time>2026-03-14T06:44:02Z</time>
      </trkpt>
      <trkpt lat="46.78776" lon="1.94859">
        <ele>162.8</ele>
        <time>2026-03-14T06:44:06Z</time>
      </trkpt>
      <trkpt lat="46.78779" lon="1.94843">
        <ele>163.2</ele>
        <time>2026-03-14T06:44:08Z</time>
      </trkpt>
      <trkpt lat="46.7879" lon="1.94796">
        <ele>163.8</ele>
        <time>2026-03-14T06:44:14Z</time>
      </trkpt>
      <trkpt lat="46.78809" lon="1.94738">
        <ele>164</ele>
        <time>2026-03-14T06:44:21Z</time>
      </trkpt>
      <trkpt lat="46.78839" lon="1.94677">
        <ele>163.4</ele>
        <time>2026-03-14T06:44:28Z</time>
      </trkpt>
      <trkpt lat="46.78871" lon="1.94604">
        <ele>162.2</ele>
        <time>2026-03-14T06:44:36Z</time>
      </trkpt>
      <trkpt lat="46.78884" lon="1.94575">
        <ele>162</ele>
        <time>2026-03-14T06:44:39Z</time>
      </trkpt>
      <trkpt lat="46.78903" lon="1.94527">
        <ele>161.2</ele>
        <time>2026-03-14T06:44:44Z</time>
      </trkpt>
      <trkpt lat="46.7892" lon="1.94475">
        <ele>160.8</ele>
        <time>2026-03-14T06:44:49Z</time>
      </trkpt>
      <trkpt lat="46.78925" lon="1.94454">
        <ele>160.6</ele>
        <time>2026-03-14T06:44:51Z</time>
      </trkpt>
      <trkpt lat="46.78946" lon="1.94371">
        <ele>159.8</ele>
        <time>2026-03-14T06:44:59Z</time>
      </trkpt>
      <trkpt lat="46.7895" lon="1.9436">
        <ele>159.8</ele>
        <time>2026-03-14T06:45:00Z</time>
      </trkpt>
      <trkpt lat="46.78967" lon="1.94327">
        <ele>159.4</ele>
        <time>2026-03-14T06:45:04Z</time>
      </trkpt>
      <trkpt lat="46.79001" lon="1.94273">
        <ele>159</ele>
        <time>2026-03-14T06:45:11Z</time>
      </trkpt>
      <trkpt lat="46.79016" lon="1.94249">
        <ele>158.8</ele>
        <time>2026-03-14T06:45:14Z</time>
      </trkpt>
      <trkpt lat="46.79044" lon="1.94202">
        <ele>158.2</ele>
        <time>2026-03-14T06:45:20Z</time>
      </trkpt>
      <trkpt lat="46.79082" lon="1.94143">
        <ele>158.2</ele>
        <time>2026-03-14T06:45:28Z</time>
      </trkpt>
      <trkpt lat="46.79092" lon="1.9413">
        <ele>158.2</ele>
        <time>2026-03-14T06:45:30Z</time>
      </trkpt>
      <trkpt lat="46.79125" lon="1.94086">
        <ele>158.4</ele>
        <time>2026-03-14T06:45:37Z</time>
      </trkpt>
      <trkpt lat="46.79167" lon="1.94025">
        <ele>158.2</ele>
        <time>2026-03-14T06:45:46Z</time>
      </trkpt>
      <trkpt lat="46.79205" lon="1.93958">
        <ele>158.2</ele>
        <time>2026-03-14T06:45:55Z</time>
      </trkpt>
      <trkpt lat="46.79209" lon="1.93951">
        <ele>158.2</ele>
        <time>2026-03-14T06:45:56Z</time>
      </trkpt>
      <trkpt lat="46.79242" lon="1.93893">
        <ele>158.4</ele>
        <time>2026-03-14T06:46:04Z</time>
      </trkpt>
      <trkpt lat="46.79279" lon="1.93831">
        <ele>158.8</ele>
        <time>2026-03-14T06:46:13Z</time>
      </trkpt>
      <trkpt lat="46.79312" lon="1.93776">
        <ele>158.8</ele>
        <time>2026-03-14T06:46:21Z</time>
      </trkpt>
      <trkpt lat="46.79349" lon="1.9371">
        <ele>159.2</ele>
        <time>2026-03-14T06:46:30Z</time>
      </trkpt>
      <trkpt lat="46.79352" lon="1.93703">
        <ele>159.2</ele>
        <time>2026-03-14T06:46:31Z</time>
      </trkpt>
      <trkpt lat="46.79366" lon="1.93654">
        <ele>159.4</ele>
        <time>2026-03-14T06:46:37Z</time>
      </trkpt>
      <trkpt lat="46.79367" lon="1.93646">
        <ele>159.6</ele>
        <time>2026-03-14T06:46:38Z</time>
      </trkpt>
      <trkpt lat="46.79372" lon="1.93622">
        <ele>159.8</ele>
        <time>2026-03-14T06:46:41Z</time>
      </trkpt>
      <trkpt lat="46.79375" lon="1.93595">
        <ele>160</ele>
        <time>2026-03-14T06:46:44Z</time>
      </trkpt>
      <trkpt lat="46.79377" lon="1.93518">
        <ele>160.4</ele>
        <time>2026-03-14T06:46:53Z</time>
      </trkpt>
      <trkpt lat="46.79379" lon="1.93509">
        <ele>160.4</ele>
        <time>2026-03-14T06:46:54Z</time>
      </trkpt>
      <trkpt lat="46.79386" lon="1.93476">
        <ele>160.6</ele>
        <time>2026-03-14T06:46:58Z</time>
      </trkpt>
      <trkpt lat="46.79392" lon="1.93453">
        <ele>160.8</ele>
        <time>2026-03-14T06:47:01Z</time>
      </trkpt>
      <trkpt lat="46.79409" lon="1.93399">
        <ele>161</ele>
        <time>2026-03-14T06:47:08Z</time>
      </trkpt>
      <trkpt lat="46.79431" lon="1.93325">
        <ele>161.4</ele>
        <time>2026-03-14T06:47:17Z</time>
      </trkpt>
      <trkpt lat="46.79433" lon="1.93317">
        <ele>161.4</ele>
        <time>2026-03-14T06:47:18Z</time>
      </trkpt>
      <trkpt lat="46.79454" lon="1.93244">
        <ele>161.2</ele>
        <time>2026-03-14T06:47:26Z</time>
      </trkpt>
      <trkpt lat="46.79473" lon="1.93161">
        <ele>160.8</ele>
        <time>2026-03-14T06:47:35Z</time>
      </trkpt>
      <trkpt lat="46.79485" lon="1.93084">
        <ele>160.6</ele>
        <time>2026-03-14T06:47:43Z</time>
      </trkpt>
      <trkpt lat="46.79486" lon="1.93075">
        <ele>160.6</ele>
        <time>2026-03-14T06:47:44Z</time>
      </trkpt>
      <trkpt lat="46.79496" lon="1.92992">
        <ele>160.4</ele>
        <time>2026-03-14T06:47:53Z</time>
      </trkpt>
      <trkpt lat="46.79508" lon="1.92921">
        <ele>160.6</ele>
        <time>2026-03-14T06:48:01Z</time>
      </trkpt>
      <trkpt lat="46.79523" lon="1.92844">
        <ele>161</ele>
        <time>2026-03-14T06:48:10Z</time>
      </trkpt>
      <trkpt lat="46.79533" lon="1.92784">
        <ele>161.2</ele>
        <time>2026-03-14T06:48:17Z</time>
      </trkpt>
      <trkpt lat="46.7954" lon="1.9274">
        <ele>161.4</ele>
        <time>2026-03-14T06:48:22Z</time>
      </trkpt>
      <trkpt lat="46.79544" lon="1.92713">
        <ele>161.6</ele>
        <time>2026-03-14T06:48:25Z</time>
      </trkpt>
      <trkpt lat="46.79554" lon="1.92642">
        <ele>161.8</ele>
        <time>2026-03-14T06:48:33Z</time>
      </trkpt>
      <trkpt lat="46.79565" lon="1.92562">
        <ele>162</ele>
        <time>2026-03-14T06:48:42Z</time>
      </trkpt>
      <trkpt lat="46.79569" lon="1.92535">
        <ele>162</ele>
        <time>2026-03-14T06:48:45Z</time>
      </trkpt>
      <trkpt lat="46.79579" lon="1.92457">
        <ele>161.2</ele>
        <time>2026-03-14T06:48:53Z</time>
      </trkpt>
      <trkpt lat="46.79584" lon="1.92427">
        <ele>160.8</ele>
        <time>2026-03-14T06:48:56Z</time>
      </trkpt>
      <trkpt lat="46.79595" lon="1.92354">
        <ele>160.2</ele>
        <time>2026-03-14T06:49:03Z</time>
      </trkpt>
      <trkpt lat="46.79596" lon="1.92344">
        <ele>160</ele>
        <time>2026-03-14T06:49:04Z</time>
      </trkpt>
      <trkpt lat="46.79601" lon="1.92322">
        <ele>159.8</ele>
        <time>2026-03-14T06:49:06Z</time>
      </trkpt>
      <trkpt lat="46.79608" lon="1.92304">
        <ele>159.2</ele>
        <time>2026-03-14T06:49:08Z</time>
      </trkpt>
      <trkpt lat="46.79612" lon="1.92295">
        <ele>159</ele>
        <time>2026-03-14T06:49:09Z</time>
      </trkpt>
      <trkpt lat="46.79637" lon="1.92247">
        <ele>158.6</ele>
        <time>2026-03-14T06:49:14Z</time>
      </trkpt>
      <trkpt lat="46.79647" lon="1.9223">
        <ele>158</ele>
        <time>2026-03-14T06:49:16Z</time>
      </trkpt>
      <trkpt lat="46.79667" lon="1.92194">
        <ele>157.2</ele>
        <time>2026-03-14T06:49:20Z</time>
      </trkpt>
      <trkpt lat="46.79677" lon="1.92175">
        <ele>156.8</ele>
        <time>2026-03-14T06:49:22Z</time>
      </trkpt>
      <trkpt lat="46.79692" lon="1.92146">
        <ele>155.6</ele>
        <time>2026-03-14T06:49:25Z</time>
      </trkpt>
      <trkpt lat="46.79702" lon="1.92127">
        <ele>155</ele>
        <time>2026-03-14T06:49:27Z</time>
      </trkpt>
      <trkpt lat="46.79713" lon="1.92107">
        <ele>154.4</ele>
        <time>2026-03-14T06:49:29Z</time>
      </trkpt>
      <trkpt lat="46.79735" lon="1.92066">
        <ele>153.4</ele>
        <time>2026-03-14T06:49:33Z</time>
      </trkpt>
      <trkpt lat="46.79746" lon="1.92044">
        <ele>152.4</ele>
        <time>2026-03-14T06:49:35Z</time>
      </trkpt>
      <trkpt lat="46.79751" lon="1.92033">
        <ele>152.2</ele>
        <time>2026-03-14T06:49:36Z</time>
      </trkpt>
      <trkpt lat="46.79766" lon="1.91997">
        <ele>150.8</ele>
        <time>2026-03-14T06:49:39Z</time>
      </trkpt>
      <trkpt lat="46.79775" lon="1.91972">
        <ele>150</ele>
        <time>2026-03-14T06:49:41Z</time>
      </trkpt>
      <trkpt lat="46.7978" lon="1.91961">
        <ele>149.4</ele>
        <time>2026-03-14T06:49:42Z</time>
      </trkpt>
      <trkpt lat="46.79785" lon="1.91949">
        <ele>149.2</ele>
        <time>2026-03-14T06:49:43Z</time>
      </trkpt>
      <trkpt lat="46.79792" lon="1.91925">
        <ele>148.2</ele>
        <time>2026-03-14T06:49:45Z</time>
      </trkpt>
      <trkpt lat="46.79794" lon="1.91912">
        <ele>148</ele>
        <time>2026-03-14T06:49:46Z</time>
      </trkpt>
      <trkpt lat="46.79801" lon="1.91865">
        <ele>147.4</ele>
        <time>2026-03-14T06:49:50Z</time>
      </trkpt>
      <trkpt lat="46.79806" lon="1.91804">
        <ele>147.2</ele>
        <time>2026-03-14T06:49:56Z</time>
      </trkpt>
      <trkpt lat="46.79812" lon="1.91743">
        <ele>148</ele>
        <time>2026-03-14T06:50:03Z</time>
      </trkpt>
      <trkpt lat="46.79816" lon="1.91688">
        <ele>149.2</ele>
        <time>2026-03-14T06:50:10Z</time>
      </trkpt>
      <trkpt lat="46.79822" lon="1.91635">
        <ele>150.4</ele>
        <time>2026-03-14T06:50:17Z</time>
      </trkpt>
      <trkpt lat="46.79823" lon="1.91627">
        <ele>150.6</ele>
        <time>2026-03-14T06:50:18Z</time>
      </trkpt>
      <trkpt lat="46.79828" lon="1.91577">
        <ele>151.4</ele>
        <time>2026-03-14T06:50:25Z</time>
      </trkpt>
      <trkpt lat="46.79831" lon="1.91548">
        <ele>152</ele>
        <time>2026-03-14T06:50:29Z</time>
      </trkpt>
      <trkpt lat="46.79834" lon="1.91525">
        <ele>152.6</ele>
        <time>2026-03-14T06:50:32Z</time>
      </trkpt>
      <trkpt lat="46.7984" lon="1.91467">
        <ele>153.8</ele>
        <time>2026-03-14T06:50:40Z</time>
      </trkpt>
      <trkpt lat="46.7984" lon="1.9146">
        <ele>153.8</ele>
        <time>2026-03-14T06:50:41Z</time>
      </trkpt>
      <trkpt lat="46.79845" lon="1.91409">
        <ele>154.8</ele>
        <time>2026-03-14T06:50:48Z</time>
      </trkpt>
      <trkpt lat="46.79847" lon="1.91393">
        <ele>155.2</ele>
        <time>2026-03-14T06:50:50Z</time>
      </trkpt>
      <trkpt lat="46.79855" lon="1.91313">
        <ele>155.4</ele>
        <time>2026-03-14T06:51:01Z</time>
      </trkpt>
      <trkpt lat="46.79855" lon="1.91305">
        <ele>155.4</ele>
        <time>2026-03-14T06:51:02Z</time>
      </trkpt>
      <trkpt lat="46.79863" lon="1.9123">
        <ele>155.8</ele>
        <time>2026-03-14T06:51:11Z</time>
      </trkpt>
      <trkpt lat="46.79871" lon="1.91181">
        <ele>156</ele>
        <time>2026-03-14T06:51:17Z</time>
      </trkpt>
      <trkpt lat="46.79889" lon="1.91119">
        <ele>156.6</ele>
        <time>2026-03-14T06:51:25Z</time>
      </trkpt>
      <trkpt lat="46.79893" lon="1.91104">
        <ele>156.8</ele>
        <time>2026-03-14T06:51:27Z</time>
      </trkpt>
      <trkpt lat="46.79903" lon="1.91063">
        <ele>157.2</ele>
        <time>2026-03-14T06:51:32Z</time>
      </trkpt>
      <trkpt lat="46.79915" lon="1.90986">
        <ele>157.6</ele>
        <time>2026-03-14T06:51:41Z</time>
      </trkpt>
      <trkpt lat="46.79922" lon="1.90934">
        <ele>157.8</ele>
        <time>2026-03-14T06:51:47Z</time>
      </trkpt>
      <trkpt lat="46.79925" lon="1.90917">
        <ele>157.6</ele>
        <time>2026-03-14T06:51:49Z</time>
      </trkpt>
      <trkpt lat="46.79935" lon="1.9086">
        <ele>158.2</ele>
        <time>2026-03-14T06:51:56Z</time>
      </trkpt>
      <trkpt lat="46.79943" lon="1.90815">
        <ele>158.8</ele>
        <time>2026-03-14T06:52:02Z</time>
      </trkpt>
      <trkpt lat="46.79947" lon="1.90788">
        <ele>159.2</ele>
        <time>2026-03-14T06:52:06Z</time>
      </trkpt>
      <trkpt lat="46.7995" lon="1.90769">
        <ele>159.8</ele>
        <time>2026-03-14T06:52:09Z</time>
      </trkpt>
      <trkpt lat="46.79956" lon="1.90744">
        <ele>160.6</ele>
        <time>2026-03-14T06:52:13Z</time>
      </trkpt>
      <trkpt lat="46.79959" lon="1.90731">
        <ele>160.8</ele>
        <time>2026-03-14T06:52:15Z</time>
      </trkpt>
      <trkpt lat="46.79962" lon="1.90712">
        <ele>161.4</ele>
        <time>2026-03-14T06:52:18Z</time>
      </trkpt>
      <trkpt lat="46.79963" lon="1.90706">
        <ele>161.6</ele>
        <time>2026-03-14T06:52:19Z</time>
      </trkpt>
      <trkpt lat="46.79966" lon="1.90694">
        <ele>162</ele>
        <time>2026-03-14T06:52:21Z</time>
      </trkpt>
      <trkpt lat="46.79969" lon="1.90669">
        <ele>163</ele>
        <time>2026-03-14T06:52:25Z</time>
      </trkpt>
      <trkpt lat="46.79972" lon="1.90656">
        <ele>163.4</ele>
        <time>2026-03-14T06:52:27Z</time>
      </trkpt>
      <trkpt lat="46.7998" lon="1.90613">
        <ele>164</ele>
        <time>2026-03-14T06:52:33Z</time>
      </trkpt>
      <trkpt lat="46.79984" lon="1.90582">
        <ele>164.4</ele>
        <time>2026-03-14T06:52:37Z</time>
      </trkpt>
      <trkpt lat="46.79994" lon="1.90533">
        <ele>164.8</ele>
        <time>2026-03-14T06:52:43Z</time>
      </trkpt>
      <trkpt lat="46.79996" lon="1.90525">
        <ele>165</ele>
        <time>2026-03-14T06:52:44Z</time>
      </trkpt>
      <trkpt lat="46.80005" lon="1.90474">
        <ele>165</ele>
        <time>2026-03-14T06:52:50Z</time>
      </trkpt>
      <trkpt lat="46.80019" lon="1.90416">
        <ele>165.2</ele>
        <time>2026-03-14T06:52:57Z</time>
      </trkpt>
      <trkpt lat="46.80032" lon="1.90377">
        <ele>165.6</ele>
        <time>2026-03-14T06:53:02Z</time>
      </trkpt>
      <trkpt lat="46.80035" lon="1.90369">
        <ele>165.6</ele>
        <time>2026-03-14T06:53:03Z</time>
      </trkpt>
      <trkpt lat="46.80041" lon="1.90354">
        <ele>165.8</ele>
        <time>2026-03-14T06:53:05Z</time>
      </trkpt>
      <trkpt lat="46.80044" lon="1.90346">
        <ele>165.8</ele>
        <time>2026-03-14T06:53:06Z</time>
      </trkpt>
      <trkpt lat="46.8005" lon="1.90332">
        <ele>166</ele>
        <time>2026-03-14T06:53:08Z</time>
      </trkpt>
      <trkpt lat="46.80053" lon="1.90324">
        <ele>166</ele>
        <time>2026-03-14T06:53:09Z</time>
      </trkpt>
      <trkpt lat="46.8007" lon="1.90275">
        <ele>166.4</ele>
        <time>2026-03-14T06:53:15Z</time>
      </trkpt>
      <trkpt lat="46.80096" lon="1.90195">
        <ele>166.4</ele>
        <time>2026-03-14T06:53:24Z</time>
      </trkpt>
      <trkpt lat="46.80117" lon="1.90122">
        <ele>166</ele>
        <time>2026-03-14T06:53:32Z</time>
      </trkpt>
      <trkpt lat="46.80129" lon="1.90076">
        <ele>165.6</ele>
        <time>2026-03-14T06:53:37Z</time>
      </trkpt>
      <trkpt lat="46.80131" lon="1.90066">
        <ele>165.4</ele>
        <time>2026-03-14T06:53:38Z</time>
      </trkpt>
      <trkpt lat="46.80132" lon="1.90056">
        <ele>165.4</ele>
        <time>2026-03-14T06:53:39Z</time>
      </trkpt>
      <trkpt lat="46.80132" lon="1.90036">
        <ele>165.4</ele>
        <time>2026-03-14T06:53:41Z</time>
      </trkpt>
      <trkpt lat="46.80131" lon="1.90026">
        <ele>165.4</ele>
        <time>2026-03-14T06:53:42Z</time>
      </trkpt>
      <trkpt lat="46.80126" lon="1.89989">
        <ele>165.4</ele>
        <time>2026-03-14T06:53:46Z</time>
      </trkpt>
      <trkpt lat="46.80126" lon="1.8998">
        <ele>165.4</ele>
        <time>2026-03-14T06:53:47Z</time>
      </trkpt>
      <trkpt lat="46.80122" lon="1.89936">
        <ele>165.2</ele>
        <time>2026-03-14T06:53:52Z</time>
      </trkpt>
      <trkpt lat="46.80118" lon="1.89866">
        <ele>165.6</ele>
        <time>2026-03-14T06:53:59Z</time>
      </trkpt>
      <trkpt lat="46.80112" lon="1.89788">
        <ele>166</ele>
        <time>2026-03-14T06:54:07Z</time>
      </trkpt>
      <trkpt lat="46.80107" lon="1.89732">
        <ele>166.2</ele>
        <time>2026-03-14T06:54:13Z</time>
      </trkpt>
      <trkpt lat="46.80106" lon="1.89714">
        <ele>166.4</ele>
        <time>2026-03-14T06:54:15Z</time>
      </trkpt>
      <trkpt lat="46.80101" lon="1.89648">
        <ele>166.8</ele>
        <time>2026-03-14T06:54:22Z</time>
      </trkpt>
      <trkpt lat="46.80096" lon="1.89583">
        <ele>167</ele>
        <time>2026-03-14T06:54:29Z</time>
      </trkpt>
      <trkpt lat="46.80099" lon="1.89539">
        <ele>167</ele>
        <time>2026-03-14T06:54:34Z</time>
      </trkpt>
      <trkpt lat="46.80112" lon="1.89488">
        <ele>167.6</ele>
        <time>2026-03-14T06:54:40Z</time>
      </trkpt>
      <trkpt lat="46.8013" lon="1.89437">
        <ele>168</ele>
        <time>2026-03-14T06:54:46Z</time>
      </trkpt>
      <trkpt lat="46.80133" lon="1.89418">
        <ele>168</ele>
        <time>2026-03-14T06:54:48Z</time>
      </trkpt>
      <trkpt lat="46.80141" lon="1.89388">
        <ele>167.8</ele>
        <time>2026-03-14T06:54:51Z</time>
      </trkpt>
      <trkpt lat="46.80151" lon="1.89357">
        <ele>167.6</ele>
        <time>2026-03-14T06:54:54Z</time>
      </trkpt>
      <trkpt lat="46.80153" lon="1.89346">
        <ele>167.4</ele>
        <time>2026-03-14T06:54:55Z</time>
      </trkpt>
      <trkpt lat="46.80165" lon="1.89291">
        <ele>166.4</ele>
        <time>2026-03-14T06:55:00Z</time>
      </trkpt>
      <trkpt lat="46.80168" lon="1.89279">
        <ele>166.2</ele>
        <time>2026-03-14T06:55:01Z</time>
      </trkpt>
      <trkpt lat="46.80174" lon="1.89257">
        <ele>165.8</ele>
        <time>2026-03-14T06:55:03Z</time>
      </trkpt>
      <trkpt lat="46.80182" lon="1.89224">
        <ele>165</ele>
        <time>2026-03-14T06:55:06Z</time>
      </trkpt>
      <trkpt lat="46.80199" lon="1.89172">
        <ele>163.8</ele>
        <time>2026-03-14T06:55:11Z</time>
      </trkpt>
      <trkpt lat="46.80205" lon="1.8915">
        <ele>163.4</ele>
        <time>2026-03-14T06:55:13Z</time>
      </trkpt>
      <trkpt lat="46.80207" lon="1.89139">
        <ele>163.4</ele>
        <time>2026-03-14T06:55:14Z</time>
      </trkpt>
      <trkpt lat="46.80212" lon="1.89118">
        <ele>162.8</ele>
        <time>2026-03-14T06:55:16Z</time>
      </trkpt>
      <trkpt lat="46.80214" lon="1.89107">
        <ele>162.8</ele>
        <time>2026-03-14T06:55:17Z</time>
      </trkpt>
      <trkpt lat="46.80216" lon="1.89086">
        <ele>162.6</ele>
        <time>2026-03-14T06:55:19Z</time>
      </trkpt>
      <trkpt lat="46.80215" lon="1.89029">
        <ele>161.8</ele>
        <time>2026-03-14T06:55:24Z</time>
      </trkpt>
      <trkpt lat="46.80213" lon="1.89005">
        <ele>161.8</ele>
        <time>2026-03-14T06:55:26Z</time>
      </trkpt>
      <trkpt lat="46.80215" lon="1.8896">
        <ele>161.2</ele>
        <time>2026-03-14T06:55:30Z</time>
      </trkpt>
      <trkpt lat="46.80226" lon="1.88896">
        <ele>160.8</ele>
        <time>2026-03-14T06:55:36Z</time>
      </trkpt>
      <trkpt lat="46.80239" lon="1.88836">
        <ele>160.8</ele>
        <time>2026-03-14T06:55:42Z</time>
      </trkpt>
      <trkpt lat="46.80249" lon="1.88798">
        <ele>160.4</ele>
        <time>2026-03-14T06:55:46Z</time>
      </trkpt>
      <trkpt lat="46.80273" lon="1.88716">
        <ele>160.6</ele>
        <time>2026-03-14T06:55:55Z</time>
      </trkpt>
      <trkpt lat="46.80275" lon="1.88707">
        <ele>160.8</ele>
        <time>2026-03-14T06:55:56Z</time>
      </trkpt>
      <trkpt lat="46.80294" lon="1.88639">
        <ele>161.4</ele>
        <time>2026-03-14T06:56:04Z</time>
      </trkpt>
      <trkpt lat="46.80312" lon="1.88558">
        <ele>161</ele>
        <time>2026-03-14T06:56:13Z</time>
      </trkpt>
      <trkpt lat="46.80314" lon="1.88548">
        <ele>161</ele>
        <time>2026-03-14T06:56:14Z</time>
      </trkpt>
      <trkpt lat="46.80327" lon="1.8847">
        <ele>161.2</ele>
        <time>2026-03-14T06:56:23Z</time>
      </trkpt>
      <trkpt lat="46.80328" lon="1.8846">
        <ele>161.4</ele>
        <time>2026-03-14T06:56:24Z</time>
      </trkpt>
      <trkpt lat="46.8033" lon="1.88391">
        <ele>161.6</ele>
        <time>2026-03-14T06:56:32Z</time>
      </trkpt>
      <trkpt lat="46.80326" lon="1.88308">
        <ele>161.2</ele>
        <time>2026-03-14T06:56:41Z</time>
      </trkpt>
      <trkpt lat="46.80326" lon="1.88288">
        <ele>161.2</ele>
        <time>2026-03-14T06:56:43Z</time>
      </trkpt>
      <trkpt lat="46.80322" lon="1.88203">
        <ele>160.6</ele>
        <time>2026-03-14T06:56:52Z</time>
      </trkpt>
      <trkpt lat="46.80321" lon="1.88184">
        <ele>160.6</ele>
        <time>2026-03-14T06:56:54Z</time>
      </trkpt>
      <trkpt lat="46.80319" lon="1.88098">
        <ele>160.2</ele>
        <time>2026-03-14T06:57:03Z</time>
      </trkpt>
      <trkpt lat="46.80329" lon="1.88042">
        <ele>160</ele>
        <time>2026-03-14T06:57:09Z</time>
      </trkpt>
      <trkpt lat="46.8034" lon="1.87997">
        <ele>160</ele>
        <time>2026-03-14T06:57:14Z</time>
      </trkpt>
      <trkpt lat="46.80346" lon="1.8798">
        <ele>160</ele>
        <time>2026-03-14T06:57:16Z</time>
      </trkpt>
      <trkpt lat="46.80371" lon="1.87916">
        <ele>160.2</ele>
        <time>2026-03-14T06:57:24Z</time>
      </trkpt>
      <trkpt lat="46.80407" lon="1.87838">
        <ele>160.4</ele>
        <time>2026-03-14T06:57:34Z</time>
      </trkpt>
      <trkpt lat="46.80415" lon="1.87821">
        <ele>160.4</ele>
        <time>2026-03-14T06:57:36Z</time>
      </trkpt>
      <trkpt lat="46.80448" lon="1.8775">
        <ele>160.6</ele>
        <time>2026-03-14T06:57:45Z</time>
      </trkpt>
      <trkpt lat="46.80451" lon="1.87742">
        <ele>160.6</ele>
        <time>2026-03-14T06:57:46Z</time>
      </trkpt>
      <trkpt lat="46.80476" lon="1.87666">
        <ele>160.2</ele>
        <time>2026-03-14T06:57:55Z</time>
      </trkpt>
      <trkpt lat="46.80481" lon="1.8765">
        <ele>160</ele>
        <time>2026-03-14T06:57:57Z</time>
      </trkpt>
      <trkpt lat="46.80497" lon="1.87587">
        <ele>159.8</ele>
        <time>2026-03-14T06:58:04Z</time>
      </trkpt>
      <trkpt lat="46.80512" lon="1.8753">
        <ele>159.6</ele>
        <time>2026-03-14T06:58:10Z</time>
      </trkpt>
      <trkpt lat="46.80517" lon="1.87512">
        <ele>159.4</ele>
        <time>2026-03-14T06:58:12Z</time>
      </trkpt>
      <trkpt lat="46.80532" lon="1.87461">
        <ele>158.4</ele>
        <time>2026-03-14T06:58:17Z</time>
      </trkpt>
      <trkpt lat="46.80545" lon="1.87418">
        <ele>157.4</ele>
        <time>2026-03-14T06:58:21Z</time>
      </trkpt>
      <trkpt lat="46.80558" lon="1.87374">
        <ele>156.2</ele>
        <time>2026-03-14T06:58:25Z</time>
      </trkpt>
      <trkpt lat="46.80569" lon="1.87343">
        <ele>155.4</ele>
        <time>2026-03-14T06:58:28Z</time>
      </trkpt>
      <trkpt lat="46.80583" lon="1.87306">
        <ele>155.2</ele>
        <time>2026-03-14T06:58:32Z</time>
      </trkpt>
      <trkpt lat="46.8059" lon="1.87289">
        <ele>155</ele>
        <time>2026-03-14T06:58:34Z</time>
      </trkpt>
      <trkpt lat="46.8061" lon="1.87242">
        <ele>156.2</ele>
        <time>2026-03-14T06:58:40Z</time>
      </trkpt>
      <trkpt lat="46.80612" lon="1.87234">
        <ele>156.4</ele>
        <time>2026-03-14T06:58:41Z</time>
      </trkpt>
      <trkpt lat="46.80618" lon="1.87217">
        <ele>156.8</ele>
        <time>2026-03-14T06:58:43Z</time>
      </trkpt>
      <trkpt lat="46.80625" lon="1.87194">
        <ele>157.2</ele>
        <time>2026-03-14T06:58:46Z</time>
      </trkpt>
      <trkpt lat="46.80627" lon="1.87187">
        <ele>157.4</ele>
        <time>2026-03-14T06:58:47Z</time>
      </trkpt>
      <trkpt lat="46.80634" lon="1.87155">
        <ele>157.6</ele>
        <time>2026-03-14T06:58:51Z</time>
      </trkpt>
      <trkpt lat="46.80638" lon="1.8714">
        <ele>158</ele>
        <time>2026-03-14T06:58:53Z</time>
      </trkpt>
      <trkpt lat="46.80641" lon="1.87108">
        <ele>158.6</ele>
        <time>2026-03-14T06:58:57Z</time>
      </trkpt>
      <trkpt lat="46.80648" lon="1.87047">
        <ele>158.8</ele>
        <time>2026-03-14T06:59:04Z</time>
      </trkpt>
      <trkpt lat="46.80655" lon="1.86975">
        <ele>158.6</ele>
        <time>2026-03-14T06:59:12Z</time>
      </trkpt>
      <trkpt lat="46.80661" lon="1.86932">
        <ele>158.6</ele>
        <time>2026-03-14T06:59:17Z</time>
      </trkpt>
      <trkpt lat="46.80664" lon="1.86924">
        <ele>158.6</ele>
        <time>2026-03-14T06:59:18Z</time>
      </trkpt>
      <trkpt lat="46.80667" lon="1.86916">
        <ele>158.6</ele>
        <time>2026-03-14T06:59:19Z</time>
      </trkpt>
      <trkpt lat="46.80688" lon="1.86882">
        <ele>159</ele>
        <time>2026-03-14T06:59:24Z</time>
      </trkpt>
      <trkpt lat="46.80712" lon="1.86838">
        <ele>159</ele>
        <time>2026-03-14T06:59:30Z</time>
      </trkpt>
      <trkpt lat="46.80715" lon="1.8683">
        <ele>159.2</ele>
        <time>2026-03-14T06:59:31Z</time>
      </trkpt>
      <trkpt lat="46.80732" lon="1.86768">
        <ele>159.2</ele>
        <time>2026-03-14T06:59:38Z</time>
      </trkpt>
      <trkpt lat="46.80734" lon="1.86761">
        <ele>159.2</ele>
        <time>2026-03-14T06:59:39Z</time>
      </trkpt>
      <trkpt lat="46.80738" lon="1.86743">
        <ele>159</ele>
        <time>2026-03-14T06:59:41Z</time>
      </trkpt>
      <trkpt lat="46.80751" lon="1.8671">
        <ele>159</ele>
        <time>2026-03-14T06:59:45Z</time>
      </trkpt>
      <trkpt lat="46.8078" lon="1.86635">
        <ele>158.4</ele>
        <time>2026-03-14T06:59:54Z</time>
      </trkpt>
      <trkpt lat="46.80808" lon="1.8657">
        <ele>158.2</ele>
        <time>2026-03-14T07:00:02Z</time>
      </trkpt>
      <trkpt lat="46.80839" lon="1.86495">
        <ele>158.2</ele>
        <time>2026-03-14T07:00:11Z</time>
      </trkpt>
      <trkpt lat="46.80839" lon="1.86495">
        <ele>158.2</ele>
        <time>2026-03-14T07:00:12Z</time>
      </trkpt>
      <trkpt lat="46.80868" lon="1.86444">
        <ele>158</ele>
        <time>2026-03-14T07:00:18Z</time>
      </trkpt>
      <trkpt lat="46.8088" lon="1.86423">
        <ele>158.2</ele>
        <time>2026-03-14T07:00:21Z</time>
      </trkpt>
      <trkpt lat="46.80887" lon="1.86408">
        <ele>158.2</ele>
        <time>2026-03-14T07:00:23Z</time>
      </trkpt>
      <trkpt lat="46.8089" lon="1.864">
        <ele>158.4</ele>
        <time>2026-03-14T07:00:24Z</time>
      </trkpt>
      <trkpt lat="46.80904" lon="1.86359">
        <ele>158.4</ele>
        <time>2026-03-14T07:00:29Z</time>
      </trkpt>
      <trkpt lat="46.80909" lon="1.86342">
        <ele>158.6</ele>
        <time>2026-03-14T07:00:31Z</time>
      </trkpt>
      <trkpt lat="46.8093" lon="1.86277">
        <ele>158.8</ele>
        <time>2026-03-14T07:00:39Z</time>
      </trkpt>
      <trkpt lat="46.80946" lon="1.86219">
        <ele>159.4</ele>
        <time>2026-03-14T07:00:46Z</time>
      </trkpt>
      <trkpt lat="46.80957" lon="1.86186">
        <ele>159.6</ele>
        <time>2026-03-14T07:00:50Z</time>
      </trkpt>
      <trkpt lat="46.8098" lon="1.86139">
        <ele>159.6</ele>
        <time>2026-03-14T07:00:56Z</time>
      </trkpt>
      <trkpt lat="46.81013" lon="1.86096">
        <ele>158.8</ele>
        <time>2026-03-14T07:01:02Z</time>
      </trkpt>
      <trkpt lat="46.81025" lon="1.86081">
        <ele>158.2</ele>
        <time>2026-03-14T07:01:04Z</time>
      </trkpt>
      <trkpt lat="46.81059" lon="1.8604">
        <ele>157.4</ele>
        <time>2026-03-14T07:01:10Z</time>
      </trkpt>
      <trkpt lat="46.81099" lon="1.8599">
        <ele>157.4</ele>
        <time>2026-03-14T07:01:18Z</time>
      </trkpt>
      <trkpt lat="46.8114" lon="1.85938">
        <ele>158</ele>
        <time>2026-03-14T07:01:27Z</time>
      </trkpt>
      <trkpt lat="46.81186" lon="1.8588">
        <ele>159</ele>
        <time>2026-03-14T07:01:37Z</time>
      </trkpt>
      <trkpt lat="46.81194" lon="1.8587">
        <ele>159.2</ele>
        <time>2026-03-14T07:01:39Z</time>
      </trkpt>
      <trkpt lat="46.81237" lon="1.85816">
        <ele>159</ele>
        <time>2026-03-14T07:01:48Z</time>
      </trkpt>
      <trkpt lat="46.8124" lon="1.85812">
        <ele>159</ele>
        <time>2026-03-14T07:01:49Z</time>
      </trkpt>
      <trkpt lat="46.81263" lon="1.85783">
        <ele>159</ele>
        <time>2026-03-14T07:01:54Z</time>
      </trkpt>
      <trkpt lat="46.81278" lon="1.85764">
        <ele>159</ele>
        <time>2026-03-14T07:01:57Z</time>
      </trkpt>
      <trkpt lat="46.81315" lon="1.85718">
        <ele>159</ele>
        <time>2026-03-14T07:02:06Z</time>
      </trkpt>
      <trkpt lat="46.81356" lon="1.85667">
        <ele>159.2</ele>
        <time>2026-03-14T07:02:14Z</time>
      </trkpt>
      <trkpt lat="46.81361" lon="1.85661">
        <ele>159.4</ele>
        <time>2026-03-14T07:02:15Z</time>
      </trkpt>
      <trkpt lat="46.81404" lon="1.85605">
        <ele>160</ele>
        <time>2026-03-14T07:02:25Z</time>
      </trkpt>
      <trkpt lat="46.81409" lon="1.85599">
        <ele>160</ele>
        <time>2026-03-14T07:02:26Z</time>
      </trkpt>
      <trkpt lat="46.81417" lon="1.85588">
        <ele>160.2</ele>
        <time>2026-03-14T07:02:28Z</time>
      </trkpt>
      <trkpt lat="46.81462" lon="1.85531">
        <ele>160.2</ele>
        <time>2026-03-14T07:02:38Z</time>
      </trkpt>
      <trkpt lat="46.81475" lon="1.85512">
        <ele>160.4</ele>
        <time>2026-03-14T07:02:41Z</time>
      </trkpt>
      <trkpt lat="46.81517" lon="1.8546">
        <ele>160.4</ele>
        <time>2026-03-14T07:02:50Z</time>
      </trkpt>
      <trkpt lat="46.8156" lon="1.85405">
        <ele>160.2</ele>
        <time>2026-03-14T07:02:59Z</time>
      </trkpt>
      <trkpt lat="46.81604" lon="1.85351">
        <ele>160.2</ele>
        <time>2026-03-14T07:03:08Z</time>
      </trkpt>
      <trkpt lat="46.81614" lon="1.85339">
        <ele>160.2</ele>
        <time>2026-03-14T07:03:10Z</time>
      </trkpt>
      <trkpt lat="46.81652" lon="1.85289">
        <ele>160.2</ele>
        <time>2026-03-14T07:03:18Z</time>
      </trkpt>
      <trkpt lat="46.81682" lon="1.85239">
        <ele>159.8</ele>
        <time>2026-03-14T07:03:25Z</time>
      </trkpt>
      <trkpt lat="46.81686" lon="1.85233">
        <ele>159.8</ele>
        <time>2026-03-14T07:03:26Z</time>
      </trkpt>
      <trkpt lat="46.81703" lon="1.85207">
        <ele>159.8</ele>
        <time>2026-03-14T07:03:30Z</time>
      </trkpt>
      <trkpt lat="46.81709" lon="1.85194">
        <ele>160</ele>
        <time>2026-03-14T07:03:32Z</time>
      </trkpt>
      <trkpt lat="46.81718" lon="1.8518">
        <ele>160</ele>
        <time>2026-03-14T07:03:34Z</time>
      </trkpt>
      <trkpt lat="46.81732" lon="1.85161">
        <ele>160</ele>
        <time>2026-03-14T07:03:37Z</time>
      </trkpt>
      <trkpt lat="46.81747" lon="1.85141">
        <ele>159.8</ele>
        <time>2026-03-14T07:03:40Z</time>
      </trkpt>
      <trkpt lat="46.81755" lon="1.85129">
        <ele>159.8</ele>
        <time>2026-03-14T07:03:42Z</time>
      </trkpt>
      <trkpt lat="46.81765" lon="1.85116">
        <ele>159.8</ele>
        <time>2026-03-14T07:03:44Z</time>
      </trkpt>
      <trkpt lat="46.81775" lon="1.85102">
        <ele>160.2</ele>
        <time>2026-03-14T07:03:46Z</time>
      </trkpt>
      <trkpt lat="46.81798" lon="1.85067">
        <ele>160</ele>
        <time>2026-03-14T07:03:51Z</time>
      </trkpt>
      <trkpt lat="46.81803" lon="1.85061">
        <ele>160</ele>
        <time>2026-03-14T07:03:52Z</time>
      </trkpt>
      <trkpt lat="46.81814" lon="1.85036">
        <ele>160</ele>
        <time>2026-03-14T07:03:55Z</time>
      </trkpt>
      <trkpt lat="46.8183" lon="1.85006">
        <ele>160</ele>
        <time>2026-03-14T07:03:59Z</time>
      </trkpt>
      <trkpt lat="46.81837" lon="1.84993">
        <ele>160</ele>
        <time>2026-03-14T07:04:01Z</time>
      </trkpt>
      <trkpt lat="46.81846" lon="1.84979">
        <ele>160</ele>
        <time>2026-03-14T07:04:03Z</time>
      </trkpt>
      <trkpt lat="46.81853" lon="1.84964">
        <ele>160.2</ele>
        <time>2026-03-14T07:04:05Z</time>
      </trkpt>
      <trkpt lat="46.81856" lon="1.84956">
        <ele>160.2</ele>
        <time>2026-03-14T07:04:06Z</time>
      </trkpt>
      <trkpt lat="46.81862" lon="1.84949">
        <ele>160.2</ele>
        <time>2026-03-14T07:04:07Z</time>
      </trkpt>
      <trkpt lat="46.81876" lon="1.84925">
        <ele>160.2</ele>
        <time>2026-03-14T07:04:10Z</time>
      </trkpt>
      <trkpt lat="46.8189" lon="1.84904">
        <ele>160.2</ele>
        <time>2026-03-14T07:04:13Z</time>
      </trkpt>
      <trkpt lat="46.81899" lon="1.8489">
        <ele>160.2</ele>
        <time>2026-03-14T07:04:15Z</time>
      </trkpt>
      <trkpt lat="46.81916" lon="1.84859">
        <ele>160.2</ele>
        <time>2026-03-14T07:04:19Z</time>
      </trkpt>
      <trkpt lat="46.81923" lon="1.84845">
        <ele>160.2</ele>
        <time>2026-03-14T07:04:21Z</time>
      </trkpt>
      <trkpt lat="46.81936" lon="1.84823">
        <ele>160.2</ele>
        <time>2026-03-14T07:04:24Z</time>
      </trkpt>
      <trkpt lat="46.81946" lon="1.8481">
        <ele>160.2</ele>
        <time>2026-03-14T07:04:26Z</time>
      </trkpt>
      <trkpt lat="46.81954" lon="1.84795">
        <ele>160.2</ele>
        <time>2026-03-14T07:04:28Z</time>
      </trkpt>
      <trkpt lat="46.81968" lon="1.84774">
        <ele>160.2</ele>
        <time>2026-03-14T07:04:31Z</time>
      </trkpt>
      <trkpt lat="46.81978" lon="1.8476">
        <ele>159.8</ele>
        <time>2026-03-14T07:04:33Z</time>
      </trkpt>
      <trkpt lat="46.81985" lon="1.84746">
        <ele>159.8</ele>
        <time>2026-03-14T07:04:35Z</time>
      </trkpt>
      <trkpt lat="46.81996" lon="1.84724">
        <ele>159.8</ele>
        <time>2026-03-14T07:04:38Z</time>
      </trkpt>
      <trkpt lat="46.82002" lon="1.84712">
        <ele>159.8</ele>
        <time>2026-03-14T07:04:40Z</time>
      </trkpt>
      <trkpt lat="46.82016" lon="1.84689">
        <ele>159.8</ele>
        <time>2026-03-14T07:04:43Z</time>
      </trkpt>
      <trkpt lat="46.82022" lon="1.84684">
        <ele>159.8</ele>
        <time>2026-03-14T07:04:44Z</time>
      </trkpt>
      <trkpt lat="46.82025" lon="1.84676">
        <ele>159.8</ele>
        <time>2026-03-14T07:04:45Z</time>
      </trkpt>
      <trkpt lat="46.82042" lon="1.84648">
        <ele>159.8</ele>
        <time>2026-03-14T07:04:49Z</time>
      </trkpt>
      <trkpt lat="46.82066" lon="1.84613">
        <ele>159.8</ele>
        <time>2026-03-14T07:04:54Z</time>
      </trkpt>
      <trkpt lat="46.82071" lon="1.84606">
        <ele>159.8</ele>
        <time>2026-03-14T07:04:55Z</time>
      </trkpt>
      <trkpt lat="46.82076" lon="1.84597">
        <ele>159.8</ele>
        <time>2026-03-14T07:04:56Z</time>
      </trkpt>
      <trkpt lat="46.82084" lon="1.84579">
        <ele>159.8</ele>
        <time>2026-03-14T07:04:59Z</time>
      </trkpt>
      <trkpt lat="46.82114" lon="1.84533">
        <ele>159.2</ele>
        <time>2026-03-14T07:05:05Z</time>
      </trkpt>
      <trkpt lat="46.82123" lon="1.84519">
        <ele>159.2</ele>
        <time>2026-03-14T07:05:07Z</time>
      </trkpt>
      <trkpt lat="46.82137" lon="1.84498">
        <ele>159.2</ele>
        <time>2026-03-14T07:05:10Z</time>
      </trkpt>
      <trkpt lat="46.82168" lon="1.84448">
        <ele>159.4</ele>
        <time>2026-03-14T07:05:17Z</time>
      </trkpt>
      <trkpt lat="46.82181" lon="1.84424">
        <ele>159.6</ele>
        <time>2026-03-14T07:05:20Z</time>
      </trkpt>
      <trkpt lat="46.82195" lon="1.84402">
        <ele>159.6</ele>
        <time>2026-03-14T07:05:23Z</time>
      </trkpt>
      <trkpt lat="46.82214" lon="1.84372">
        <ele>159.8</ele>
        <time>2026-03-14T07:05:27Z</time>
      </trkpt>
      <trkpt lat="46.82233" lon="1.84336">
        <ele>160.2</ele>
        <time>2026-03-14T07:05:32Z</time>
      </trkpt>
      <trkpt lat="46.82237" lon="1.84323">
        <ele>160.2</ele>
        <time>2026-03-14T07:05:34Z</time>
      </trkpt>
      <trkpt lat="46.82247" lon="1.84309">
        <ele>160.2</ele>
        <time>2026-03-14T07:05:36Z</time>
      </trkpt>
      <trkpt lat="46.82251" lon="1.84303">
        <ele>160</ele>
        <time>2026-03-14T07:05:37Z</time>
      </trkpt>
      <trkpt lat="46.82265" lon="1.84283">
        <ele>160</ele>
        <time>2026-03-14T07:05:40Z</time>
      </trkpt>
      <trkpt lat="46.82286" lon="1.84252">
        <ele>160.4</ele>
        <time>2026-03-14T07:05:44Z</time>
      </trkpt>
      <trkpt lat="46.82309" lon="1.84216">
        <ele>160.2</ele>
        <time>2026-03-14T07:05:49Z</time>
      </trkpt>
      <trkpt lat="46.82335" lon="1.8417">
        <ele>160.2</ele>
        <time>2026-03-14T07:05:55Z</time>
      </trkpt>
      <trkpt lat="46.82339" lon="1.84165">
        <ele>160.2</ele>
        <time>2026-03-14T07:05:56Z</time>
      </trkpt>
      <trkpt lat="46.82358" lon="1.84136">
        <ele>160.2</ele>
        <time>2026-03-14T07:06:00Z</time>
      </trkpt>
      <trkpt lat="46.8236" lon="1.8413">
        <ele>160.2</ele>
        <time>2026-03-14T07:06:01Z</time>
      </trkpt>
      <trkpt lat="46.82367" lon="1.84117">
        <ele>160</ele>
        <time>2026-03-14T07:06:03Z</time>
      </trkpt>
      <trkpt lat="46.82384" lon="1.84087">
        <ele>160</ele>
        <time>2026-03-14T07:06:07Z</time>
      </trkpt>
      <trkpt lat="46.82422" lon="1.84023">
        <ele>160.2</ele>
        <time>2026-03-14T07:06:16Z</time>
      </trkpt>
      <trkpt lat="46.82426" lon="1.84017">
        <ele>160.2</ele>
        <time>2026-03-14T07:06:17Z</time>
      </trkpt>
      <trkpt lat="46.8243" lon="1.84009">
        <ele>160.2</ele>
        <time>2026-03-14T07:06:18Z</time>
      </trkpt>
      <trkpt lat="46.82451" lon="1.83977">
        <ele>160.2</ele>
        <time>2026-03-14T07:06:23Z</time>
      </trkpt>
      <trkpt lat="46.82457" lon="1.83969">
        <ele>160.2</ele>
        <time>2026-03-14T07:06:24Z</time>
      </trkpt>
      <trkpt lat="46.82473" lon="1.83942">
        <ele>160.2</ele>
        <time>2026-03-14T07:06:28Z</time>
      </trkpt>
      <trkpt lat="46.82499" lon="1.83902">
        <ele>160.2</ele>
        <time>2026-03-14T07:06:34Z</time>
      </trkpt>
      <trkpt lat="46.82525" lon="1.83858">
        <ele>160.2</ele>
        <time>2026-03-14T07:06:40Z</time>
      </trkpt>
      <trkpt lat="46.8256" lon="1.838">
        <ele>159.4</ele>
        <time>2026-03-14T07:06:47Z</time>
      </trkpt>
      <trkpt lat="46.82594" lon="1.83742">
        <ele>158.8</ele>
        <time>2026-03-14T07:06:54Z</time>
      </trkpt>
      <trkpt lat="46.826" lon="1.83734">
        <ele>158.8</ele>
        <time>2026-03-14T07:06:55Z</time>
      </trkpt>
      <trkpt lat="46.8262" lon="1.83699">
        <ele>157.8</ele>
        <time>2026-03-14T07:06:59Z</time>
      </trkpt>
      <trkpt lat="46.8263" lon="1.8368">
        <ele>157.4</ele>
        <time>2026-03-14T07:07:01Z</time>
      </trkpt>
      <trkpt lat="46.82644" lon="1.83657">
        <ele>156.8</ele>
        <time>2026-03-14T07:07:04Z</time>
      </trkpt>
      <trkpt lat="46.82653" lon="1.83641">
        <ele>156.4</ele>
        <time>2026-03-14T07:07:06Z</time>
      </trkpt>
      <trkpt lat="46.82659" lon="1.8363">
        <ele>156.4</ele>
        <time>2026-03-14T07:07:08Z</time>
      </trkpt>
      <trkpt lat="46.82672" lon="1.83625">
        <ele>156.2</ele>
        <time>2026-03-14T07:07:10Z</time>
      </trkpt>
      <trkpt lat="46.82677" lon="1.83623">
        <ele>156</ele>
        <time>2026-03-14T07:07:11Z</time>
      </trkpt>
      <trkpt lat="46.82682" lon="1.83611">
        <ele>156</ele>
        <time>2026-03-14T07:07:13Z</time>
      </trkpt>
      <trkpt lat="46.82683" lon="1.83593">
        <ele>155.8</ele>
        <time>2026-03-14T07:07:15Z</time>
      </trkpt>
      <trkpt lat="46.82683" lon="1.83583">
        <ele>155.6</ele>
        <time>2026-03-14T07:07:16Z</time>
      </trkpt>
      <trkpt lat="46.82681" lon="1.83536">
        <ele>155</ele>
        <time>2026-03-14T07:07:21Z</time>
      </trkpt>
      <trkpt lat="46.82682" lon="1.83497">
        <ele>154.6</ele>
        <time>2026-03-14T07:07:25Z</time>
      </trkpt>
      <trkpt lat="46.82684" lon="1.83461">
        <ele>154.6</ele>
        <time>2026-03-14T07:07:29Z</time>
      </trkpt>
      <trkpt lat="46.82687" lon="1.83403">
        <ele>154.4</ele>
        <time>2026-03-14T07:07:35Z</time>
      </trkpt>
      <trkpt lat="46.82689" lon="1.8333">
        <ele>154.2</ele>
        <time>2026-03-14T07:07:43Z</time>
      </trkpt>
      <trkpt lat="46.8269" lon="1.83309">
        <ele>154.2</ele>
        <time>2026-03-14T07:07:45Z</time>
      </trkpt>
      <trkpt lat="46.82691" lon="1.83283">
        <ele>154</ele>
        <time>2026-03-14T07:07:48Z</time>
      </trkpt>
      <trkpt lat="46.82696" lon="1.83201">
        <ele>153.8</ele>
        <time>2026-03-14T07:07:57Z</time>
      </trkpt>
      <trkpt lat="46.82701" lon="1.83116">
        <ele>153.8</ele>
        <time>2026-03-14T07:08:06Z</time>
      </trkpt>
      <trkpt lat="46.82701" lon="1.83107">
        <ele>153.8</ele>
        <time>2026-03-14T07:08:07Z</time>
      </trkpt>
      <trkpt lat="46.82707" lon="1.83028">
        <ele>153.4</ele>
        <time>2026-03-14T07:08:15Z</time>
      </trkpt>
      <trkpt lat="46.82708" lon="1.8301">
        <ele>153.4</ele>
        <time>2026-03-14T07:08:17Z</time>
      </trkpt>
      <trkpt lat="46.82714" lon="1.82931">
        <ele>153.2</ele>
        <time>2026-03-14T07:08:25Z</time>
      </trkpt>
      <trkpt lat="46.82717" lon="1.8288">
        <ele>153</ele>
        <time>2026-03-14T07:08:30Z</time>
      </trkpt>
      <trkpt lat="46.82722" lon="1.82797">
        <ele>152.6</ele>
        <time>2026-03-14T07:08:38Z</time>
      </trkpt>
      <trkpt lat="46.82722" lon="1.82786">
        <ele>152.4</ele>
        <time>2026-03-14T07:08:39Z</time>
      </trkpt>
      <trkpt lat="46.82723" lon="1.82764">
        <ele>152.2</ele>
        <time>2026-03-14T07:08:41Z</time>
      </trkpt>
      <trkpt lat="46.82725" lon="1.8273">
        <ele>151.6</ele>
        <time>2026-03-14T07:08:44Z</time>
      </trkpt>
      <trkpt lat="46.82725" lon="1.82719">
        <ele>151.4</ele>
        <time>2026-03-14T07:08:45Z</time>
      </trkpt>
      <trkpt lat="46.82728" lon="1.82676">
        <ele>151</ele>
        <time>2026-03-14T07:08:49Z</time>
      </trkpt>
      <trkpt lat="46.82729" lon="1.82654">
        <ele>150.8</ele>
        <time>2026-03-14T07:08:51Z</time>
      </trkpt>
      <trkpt lat="46.82732" lon="1.82586">
        <ele>150.2</ele>
        <time>2026-03-14T07:08:57Z</time>
      </trkpt>
      <trkpt lat="46.82735" lon="1.8255">
        <ele>150</ele>
        <time>2026-03-14T07:09:00Z</time>
      </trkpt>
      <trkpt lat="46.82739" lon="1.82506">
        <ele>149.8</ele>
        <time>2026-03-14T07:09:04Z</time>
      </trkpt>
      <trkpt lat="46.82751" lon="1.82437">
        <ele>149.6</ele>
        <time>2026-03-14T07:09:11Z</time>
      </trkpt>
      <trkpt lat="46.82769" lon="1.82373">
        <ele>149.6</ele>
        <time>2026-03-14T07:09:18Z</time>
      </trkpt>
      <trkpt lat="46.8279" lon="1.82316">
        <ele>150</ele>
        <time>2026-03-14T07:09:25Z</time>
      </trkpt>
      <trkpt lat="46.82814" lon="1.82252">
        <ele>150.8</ele>
        <time>2026-03-14T07:09:33Z</time>
      </trkpt>
      <trkpt lat="46.8283" lon="1.82214">
        <ele>151</ele>
        <time>2026-03-14T07:09:38Z</time>
      </trkpt>
      <trkpt lat="46.8284" lon="1.82182">
        <ele>151.2</ele>
        <time>2026-03-14T07:09:42Z</time>
      </trkpt>
      <trkpt lat="46.82858" lon="1.82109">
        <ele>151.8</ele>
        <time>2026-03-14T07:09:51Z</time>
      </trkpt>
      <trkpt lat="46.82862" lon="1.82084">
        <ele>152</ele>
        <time>2026-03-14T07:09:54Z</time>
      </trkpt>
      <trkpt lat="46.8287" lon="1.82024">
        <ele>152.4</ele>
        <time>2026-03-14T07:10:01Z</time>
      </trkpt>
      <trkpt lat="46.82879" lon="1.81946">
        <ele>152.8</ele>
        <time>2026-03-14T07:10:10Z</time>
      </trkpt>
      <trkpt lat="46.82882" lon="1.8192">
        <ele>152.8</ele>
        <time>2026-03-14T07:10:13Z</time>
      </trkpt>
      <trkpt lat="46.82892" lon="1.81853">
        <ele>153</ele>
        <time>2026-03-14T07:10:21Z</time>
      </trkpt>
      <trkpt lat="46.82893" lon="1.81845">
        <ele>153.2</ele>
        <time>2026-03-14T07:10:22Z</time>
      </trkpt>
      <trkpt lat="46.82904" lon="1.81766">
        <ele>153.8</ele>
        <time>2026-03-14T07:10:31Z</time>
      </trkpt>
      <trkpt lat="46.82905" lon="1.81758">
        <ele>154</ele>
        <time>2026-03-14T07:10:32Z</time>
      </trkpt>
      <trkpt lat="46.82907" lon="1.8174">
        <ele>154</ele>
        <time>2026-03-14T07:10:34Z</time>
      </trkpt>
      <trkpt lat="46.82916" lon="1.81655">
        <ele>154.6</ele>
        <time>2026-03-14T07:10:44Z</time>
      </trkpt>
      <trkpt lat="46.82921" lon="1.81622">
        <ele>154.8</ele>
        <time>2026-03-14T07:10:48Z</time>
      </trkpt>
      <trkpt lat="46.82929" lon="1.81554">
        <ele>155.2</ele>
        <time>2026-03-14T07:10:56Z</time>
      </trkpt>
      <trkpt lat="46.82933" lon="1.8151">
        <ele>155.6</ele>
        <time>2026-03-14T07:11:01Z</time>
      </trkpt>
      <trkpt lat="46.82941" lon="1.81434">
        <ele>155.8</ele>
        <time>2026-03-14T07:11:11Z</time>
      </trkpt>
      <trkpt lat="46.8295" lon="1.81349">
        <ele>156.2</ele>
        <time>2026-03-14T07:11:20Z</time>
      </trkpt>
      <trkpt lat="46.82953" lon="1.81321">
        <ele>156.2</ele>
        <time>2026-03-14T07:11:23Z</time>
      </trkpt>
      <trkpt lat="46.82957" lon="1.81285">
        <ele>156.2</ele>
        <time>2026-03-14T07:11:27Z</time>
      </trkpt>
      <trkpt lat="46.82964" lon="1.81224">
        <ele>156.2</ele>
        <time>2026-03-14T07:11:34Z</time>
      </trkpt>
      <trkpt lat="46.82972" lon="1.81143">
        <ele>155.8</ele>
        <time>2026-03-14T07:11:43Z</time>
      </trkpt>
      <trkpt lat="46.82973" lon="1.81114">
        <ele>155.6</ele>
        <time>2026-03-14T07:11:46Z</time>
      </trkpt>
      <trkpt lat="46.82975" lon="1.81034">
        <ele>155.4</ele>
        <time>2026-03-14T07:11:55Z</time>
      </trkpt>
      <trkpt lat="46.82974" lon="1.81024">
        <ele>155.2</ele>
        <time>2026-03-14T07:11:56Z</time>
      </trkpt>
      <trkpt lat="46.82974" lon="1.81008">
        <ele>155.2</ele>
        <time>2026-03-14T07:11:58Z</time>
      </trkpt>
      <trkpt lat="46.82971" lon="1.80934">
        <ele>154.2</ele>
        <time>2026-03-14T07:12:06Z</time>
      </trkpt>
      <trkpt lat="46.8297" lon="1.80898">
        <ele>154.2</ele>
        <time>2026-03-14T07:12:10Z</time>
      </trkpt>
      <trkpt lat="46.82966" lon="1.80818">
        <ele>153.8</ele>
        <time>2026-03-14T07:12:19Z</time>
      </trkpt>
      <trkpt lat="46.82965" lon="1.8081">
        <ele>153.8</ele>
        <time>2026-03-14T07:12:20Z</time>
      </trkpt>
      <trkpt lat="46.82962" lon="1.80731">
        <ele>153.6</ele>
        <time>2026-03-14T07:12:29Z</time>
      </trkpt>
      <trkpt lat="46.82961" lon="1.80715">
        <ele>153.6</ele>
        <time>2026-03-14T07:12:31Z</time>
      </trkpt>
      <trkpt lat="46.82957" lon="1.80631">
        <ele>153.6</ele>
        <time>2026-03-14T07:12:41Z</time>
      </trkpt>
      <trkpt lat="46.82957" lon="1.80621">
        <ele>153.6</ele>
        <time>2026-03-14T07:12:42Z</time>
      </trkpt>
      <trkpt lat="46.82952" lon="1.80534">
        <ele>153.6</ele>
        <time>2026-03-14T07:12:52Z</time>
      </trkpt>
      <trkpt lat="46.82951" lon="1.80525">
        <ele>153.6</ele>
        <time>2026-03-14T07:12:53Z</time>
      </trkpt>
      <trkpt lat="46.82946" lon="1.80442">
        <ele>153</ele>
        <time>2026-03-14T07:13:02Z</time>
      </trkpt>
      <trkpt lat="46.82945" lon="1.80425">
        <ele>153</ele>
        <time>2026-03-14T07:13:04Z</time>
      </trkpt>
      <trkpt lat="46.8294" lon="1.80341">
        <ele>152.8</ele>
        <time>2026-03-14T07:13:13Z</time>
      </trkpt>
      <trkpt lat="46.8294" lon="1.80332">
        <ele>152.6</ele>
        <time>2026-03-14T07:13:14Z</time>
      </trkpt>
      <trkpt lat="46.82935" lon="1.80246">
        <ele>152.2</ele>
        <time>2026-03-14T07:13:23Z</time>
      </trkpt>
      <trkpt lat="46.82933" lon="1.80215">
        <ele>152</ele>
        <time>2026-03-14T07:13:26Z</time>
      </trkpt>
      <trkpt lat="46.82929" lon="1.8015">
        <ele>151.8</ele>
        <time>2026-03-14T07:13:33Z</time>
      </trkpt>
      <trkpt lat="46.82925" lon="1.80067">
        <ele>151.8</ele>
        <time>2026-03-14T07:13:42Z</time>
      </trkpt>
      <trkpt lat="46.82924" lon="1.8006">
        <ele>151.8</ele>
        <time>2026-03-14T07:13:43Z</time>
      </trkpt>
      <trkpt lat="46.8292" lon="1.79976">
        <ele>151</ele>
        <time>2026-03-14T07:13:52Z</time>
      </trkpt>
      <trkpt lat="46.82919" lon="1.79964">
        <ele>151</ele>
        <time>2026-03-14T07:13:53Z</time>
      </trkpt>
      <trkpt lat="46.82918" lon="1.79946">
        <ele>151</ele>
        <time>2026-03-14T07:13:55Z</time>
      </trkpt>
      <trkpt lat="46.82914" lon="1.79862">
        <ele>150.8</ele>
        <time>2026-03-14T07:14:04Z</time>
      </trkpt>
      <trkpt lat="46.82908" lon="1.79778">
        <ele>150.2</ele>
        <time>2026-03-14T07:14:13Z</time>
      </trkpt>
      <trkpt lat="46.82906" lon="1.79741">
        <ele>149.8</ele>
        <time>2026-03-14T07:14:17Z</time>
      </trkpt>
      <trkpt lat="46.82902" lon="1.79659">
        <ele>149.4</ele>
        <time>2026-03-14T07:14:26Z</time>
      </trkpt>
      <trkpt lat="46.82898" lon="1.79585">
        <ele>149</ele>
        <time>2026-03-14T07:14:34Z</time>
      </trkpt>
      <trkpt lat="46.82895" lon="1.79506">
        <ele>148.8</ele>
        <time>2026-03-14T07:14:42Z</time>
      </trkpt>
      <trkpt lat="46.82894" lon="1.79497">
        <ele>148.8</ele>
        <time>2026-03-14T07:14:43Z</time>
      </trkpt>
      <trkpt lat="46.8289" lon="1.79414">
        <ele>148</ele>
        <time>2026-03-14T07:14:52Z</time>
      </trkpt>
      <trkpt lat="46.82889" lon="1.79405">
        <ele>148</ele>
        <time>2026-03-14T07:14:53Z</time>
      </trkpt>
      <trkpt lat="46.82888" lon="1.79387">
        <ele>147.8</ele>
        <time>2026-03-14T07:14:55Z</time>
      </trkpt>
      <trkpt lat="46.82884" lon="1.79307">
        <ele>147.4</ele>
        <time>2026-03-14T07:15:04Z</time>
      </trkpt>
      <trkpt lat="46.82883" lon="1.79295">
        <ele>147.2</ele>
        <time>2026-03-14T07:15:05Z</time>
      </trkpt>
      <trkpt lat="46.82878" lon="1.79215">
        <ele>146.8</ele>
        <time>2026-03-14T07:15:14Z</time>
      </trkpt>
      <trkpt lat="46.82876" lon="1.7918">
        <ele>146.8</ele>
        <time>2026-03-14T07:15:18Z</time>
      </trkpt>
      <trkpt lat="46.82872" lon="1.79098">
        <ele>146.8</ele>
        <time>2026-03-14T07:15:27Z</time>
      </trkpt>
      <trkpt lat="46.8287" lon="1.79062">
        <ele>146.8</ele>
        <time>2026-03-14T07:15:31Z</time>
      </trkpt>
      <trkpt lat="46.82866" lon="1.78981">
        <ele>147.2</ele>
        <time>2026-03-14T07:15:40Z</time>
      </trkpt>
      <trkpt lat="46.82864" lon="1.78947">
        <ele>147.4</ele>
        <time>2026-03-14T07:15:44Z</time>
      </trkpt>
      <trkpt lat="46.8286" lon="1.78868">
        <ele>147.4</ele>
        <time>2026-03-14T07:15:53Z</time>
      </trkpt>
      <trkpt lat="46.8286" lon="1.78859">
        <ele>147.4</ele>
        <time>2026-03-14T07:15:54Z</time>
      </trkpt>
      <trkpt lat="46.82856" lon="1.78773">
        <ele>147.2</ele>
        <time>2026-03-14T07:16:04Z</time>
      </trkpt>
      <trkpt lat="46.82854" lon="1.78738">
        <ele>147</ele>
        <time>2026-03-14T07:16:08Z</time>
      </trkpt>
      <trkpt lat="46.8285" lon="1.78657">
        <ele>146.8</ele>
        <time>2026-03-14T07:16:17Z</time>
      </trkpt>
      <trkpt lat="46.82849" lon="1.78638">
        <ele>146.8</ele>
        <time>2026-03-14T07:16:19Z</time>
      </trkpt>
      <trkpt lat="46.82847" lon="1.78611">
        <ele>146.4</ele>
        <time>2026-03-14T07:16:22Z</time>
      </trkpt>
      <trkpt lat="46.82843" lon="1.7853">
        <ele>146</ele>
        <time>2026-03-14T07:16:31Z</time>
      </trkpt>
      <trkpt lat="46.82842" lon="1.78521">
        <ele>146</ele>
        <time>2026-03-14T07:16:32Z</time>
      </trkpt>
      <trkpt lat="46.82838" lon="1.78441">
        <ele>145.6</ele>
        <time>2026-03-14T07:16:41Z</time>
      </trkpt>
      <trkpt lat="46.82836" lon="1.78406">
        <ele>145.6</ele>
        <time>2026-03-14T07:16:45Z</time>
      </trkpt>
      <trkpt lat="46.82831" lon="1.78323">
        <ele>146.6</ele>
        <time>2026-03-14T07:16:55Z</time>
      </trkpt>
      <trkpt lat="46.82826" lon="1.78262">
        <ele>147</ele>
        <time>2026-03-14T07:17:03Z</time>
      </trkpt>
      <trkpt lat="46.82821" lon="1.78204">
        <ele>147.6</ele>
        <time>2026-03-14T07:17:11Z</time>
      </trkpt>
      <trkpt lat="46.82814" lon="1.78145">
        <ele>148</ele>
        <time>2026-03-14T07:17:19Z</time>
      </trkpt>
      <trkpt lat="46.82812" lon="1.78116">
        <ele>148.4</ele>
        <time>2026-03-14T07:17:23Z</time>
      </trkpt>
      <trkpt lat="46.82809" lon="1.78101">
        <ele>148.6</ele>
        <time>2026-03-14T07:17:25Z</time>
      </trkpt>
      <trkpt lat="46.82806" lon="1.78079">
        <ele>149</ele>
        <time>2026-03-14T07:17:28Z</time>
      </trkpt>
      <trkpt lat="46.82798" lon="1.7802">
        <ele>149.6</ele>
        <time>2026-03-14T07:17:36Z</time>
      </trkpt>
      <trkpt lat="46.82795" lon="1.77997">
        <ele>149.6</ele>
        <time>2026-03-14T07:17:39Z</time>
      </trkpt>
      <trkpt lat="46.82785" lon="1.77932">
        <ele>150.8</ele>
        <time>2026-03-14T07:17:48Z</time>
      </trkpt>
      <trkpt lat="46.8278" lon="1.77903">
        <ele>151.6</ele>
        <time>2026-03-14T07:17:52Z</time>
      </trkpt>
      <trkpt lat="46.82776" lon="1.77873">
        <ele>152</ele>
        <time>2026-03-14T07:17:56Z</time>
      </trkpt>
      <trkpt lat="46.8277" lon="1.77845">
        <ele>152</ele>
        <time>2026-03-14T07:18:00Z</time>
      </trkpt>
      <trkpt lat="46.82757" lon="1.77767">
        <ele>152.4</ele>
        <time>2026-03-14T07:18:10Z</time>
      </trkpt>
      <trkpt lat="46.82755" lon="1.77751">
        <ele>152.4</ele>
        <time>2026-03-14T07:18:12Z</time>
      </trkpt>
      <trkpt lat="46.82742" lon="1.77675">
        <ele>152.2</ele>
        <time>2026-03-14T07:18:21Z</time>
      </trkpt>
      <trkpt lat="46.82729" lon="1.77602">
        <ele>151.8</ele>
        <time>2026-03-14T07:18:29Z</time>
      </trkpt>
      <trkpt lat="46.82717" lon="1.77533">
        <ele>150.6</ele>
        <time>2026-03-14T07:18:36Z</time>
      </trkpt>
      <trkpt lat="46.82712" lon="1.77503">
        <ele>150</ele>
        <time>2026-03-14T07:18:39Z</time>
      </trkpt>
      <trkpt lat="46.82709" lon="1.77485">
        <ele>149.6</ele>
        <time>2026-03-14T07:18:41Z</time>
      </trkpt>
      <trkpt lat="46.827" lon="1.77432">
        <ele>148.6</ele>
        <time>2026-03-14T07:18:46Z</time>
      </trkpt>
      <trkpt lat="46.82694" lon="1.77402">
        <ele>148</ele>
        <time>2026-03-14T07:18:49Z</time>
      </trkpt>
      <trkpt lat="46.82686" lon="1.77353">
        <ele>147.6</ele>
        <time>2026-03-14T07:18:54Z</time>
      </trkpt>
      <trkpt lat="46.82679" lon="1.77305">
        <ele>147</ele>
        <time>2026-03-14T07:18:59Z</time>
      </trkpt>
      <trkpt lat="46.82678" lon="1.77259">
        <ele>146.6</ele>
        <time>2026-03-14T07:19:04Z</time>
      </trkpt>
      <trkpt lat="46.8269" lon="1.77227">
        <ele>146.6</ele>
        <time>2026-03-14T07:19:08Z</time>
      </trkpt>
      <trkpt lat="46.82692" lon="1.77203">
        <ele>146.6</ele>
        <time>2026-03-14T07:19:11Z</time>
      </trkpt>
      <trkpt lat="46.8269" lon="1.77195">
        <ele>146.6</ele>
        <time>2026-03-14T07:19:12Z</time>
      </trkpt>
      <trkpt lat="46.82687" lon="1.77187">
        <ele>146.6</ele>
        <time>2026-03-14T07:19:13Z</time>
      </trkpt>
      <trkpt lat="46.8268" lon="1.77174">
        <ele>146.8</ele>
        <time>2026-03-14T07:19:15Z</time>
      </trkpt>
      <trkpt lat="46.82677" lon="1.77169">
        <ele>146.8</ele>
        <time>2026-03-14T07:19:16Z</time>
      </trkpt>
      <trkpt lat="46.82671" lon="1.77163">
        <ele>146.8</ele>
        <time>2026-03-14T07:19:17Z</time>
      </trkpt>
      <trkpt lat="46.82662" lon="1.77153">
        <ele>147.2</ele>
        <time>2026-03-14T07:19:19Z</time>
      </trkpt>
      <trkpt lat="46.82659" lon="1.77148">
        <ele>147.2</ele>
        <time>2026-03-14T07:19:20Z</time>
      </trkpt>
      <trkpt lat="46.82655" lon="1.77139">
        <ele>147.2</ele>
        <time>2026-03-14T07:19:21Z</time>
      </trkpt>
      <trkpt lat="46.82649" lon="1.77117">
        <ele>147.4</ele>
        <time>2026-03-14T07:19:24Z</time>
      </trkpt>
      <trkpt lat="46.82635" lon="1.77035">
        <ele>148</ele>
        <time>2026-03-14T07:19:34Z</time>
      </trkpt>
      <trkpt lat="46.82634" lon="1.77026">
        <ele>148</ele>
        <time>2026-03-14T07:19:35Z</time>
      </trkpt>
      <trkpt lat="46.82626" lon="1.76978">
        <ele>148.6</ele>
        <time>2026-03-14T07:19:41Z</time>
      </trkpt>
      <trkpt lat="46.82623" lon="1.76962">
        <ele>149</ele>
        <time>2026-03-14T07:19:43Z</time>
      </trkpt>
      <trkpt lat="46.82615" lon="1.76915">
        <ele>149.8</ele>
        <time>2026-03-14T07:19:49Z</time>
      </trkpt>
      <trkpt lat="46.82611" lon="1.76883">
        <ele>150</ele>
        <time>2026-03-14T07:19:53Z</time>
      </trkpt>
      <trkpt lat="46.82599" lon="1.7681">
        <ele>150.8</ele>
        <time>2026-03-14T07:20:02Z</time>
      </trkpt>
      <trkpt lat="46.82596" lon="1.76793">
        <ele>150.8</ele>
        <time>2026-03-14T07:20:04Z</time>
      </trkpt>
      <trkpt lat="46.82586" lon="1.76735">
        <ele>151</ele>
        <time>2026-03-14T07:20:11Z</time>
      </trkpt>
      <trkpt lat="46.82574" lon="1.76666">
        <ele>151.2</ele>
        <time>2026-03-14T07:20:19Z</time>
      </trkpt>
      <trkpt lat="46.82561" lon="1.7659">
        <ele>151.4</ele>
        <time>2026-03-14T07:20:28Z</time>
      </trkpt>
      <trkpt lat="46.8255" lon="1.76519">
        <ele>151.4</ele>
        <time>2026-03-14T07:20:36Z</time>
      </trkpt>
      <trkpt lat="46.82539" lon="1.76459">
        <ele>151.8</ele>
        <time>2026-03-14T07:20:42Z</time>
      </trkpt>
      <trkpt lat="46.82536" lon="1.76441">
        <ele>151.8</ele>
        <time>2026-03-14T07:20:44Z</time>
      </trkpt>
      <trkpt lat="46.82524" lon="1.76362">
        <ele>151.2</ele>
        <time>2026-03-14T07:20:52Z</time>
      </trkpt>
      <trkpt lat="46.8251" lon="1.76284">
        <ele>150.6</ele>
        <time>2026-03-14T07:21:00Z</time>
      </trkpt>
      <trkpt lat="46.82508" lon="1.76274">
        <ele>150.4</ele>
        <time>2026-03-14T07:21:01Z</time>
      </trkpt>
      <trkpt lat="46.82498" lon="1.76214">
        <ele>149.6</ele>
        <time>2026-03-14T07:21:07Z</time>
      </trkpt>
      <trkpt lat="46.82492" lon="1.76183">
        <ele>149.4</ele>
        <time>2026-03-14T07:21:10Z</time>
      </trkpt>
      <trkpt lat="46.82478" lon="1.76102">
        <ele>148.6</ele>
        <time>2026-03-14T07:21:18Z</time>
      </trkpt>
      <trkpt lat="46.82477" lon="1.76092">
        <ele>148.4</ele>
        <time>2026-03-14T07:21:19Z</time>
      </trkpt>
      <trkpt lat="46.82475" lon="1.76081">
        <ele>148.4</ele>
        <time>2026-03-14T07:21:20Z</time>
      </trkpt>
      <trkpt lat="46.82462" lon="1.76001">
        <ele>147.6</ele>
        <time>2026-03-14T07:21:28Z</time>
      </trkpt>
      <trkpt lat="46.8246" lon="1.75989">
        <ele>147.4</ele>
        <time>2026-03-14T07:21:29Z</time>
      </trkpt>
      <trkpt lat="46.82445" lon="1.75908">
        <ele>146.4</ele>
        <time>2026-03-14T07:21:37Z</time>
      </trkpt>
      <trkpt lat="46.82439" lon="1.75875">
        <ele>145.8</ele>
        <time>2026-03-14T07:21:40Z</time>
      </trkpt>
      <trkpt lat="46.82431" lon="1.75833">
        <ele>145.4</ele>
        <time>2026-03-14T07:21:44Z</time>
      </trkpt>
      <trkpt lat="46.82422" lon="1.75781">
        <ele>144.4</ele>
        <time>2026-03-14T07:21:49Z</time>
      </trkpt>
      <trkpt lat="46.82421" lon="1.75771">
        <ele>144.2</ele>
        <time>2026-03-14T07:21:50Z</time>
      </trkpt>
      <trkpt lat="46.82419" lon="1.7574">
        <ele>143.8</ele>
        <time>2026-03-14T07:21:53Z</time>
      </trkpt>
      <trkpt lat="46.82421" lon="1.75722">
        <ele>143.8</ele>
        <time>2026-03-14T07:21:55Z</time>
      </trkpt>
      <trkpt lat="46.82419" lon="1.75702">
        <ele>143.6</ele>
        <time>2026-03-14T07:21:57Z</time>
      </trkpt>
      <trkpt lat="46.82416" lon="1.75694">
        <ele>143.6</ele>
        <time>2026-03-14T07:21:58Z</time>
      </trkpt>
      <trkpt lat="46.82408" lon="1.75679">
        <ele>143.6</ele>
        <time>2026-03-14T07:22:00Z</time>
      </trkpt>
      <trkpt lat="46.82402" lon="1.7566">
        <ele>143.6</ele>
        <time>2026-03-14T07:22:02Z</time>
      </trkpt>
      <trkpt lat="46.82388" lon="1.75575">
        <ele>143.2</ele>
        <time>2026-03-14T07:22:11Z</time>
      </trkpt>
      <trkpt lat="46.82381" lon="1.7551">
        <ele>143</ele>
        <time>2026-03-14T07:22:18Z</time>
      </trkpt>
      <trkpt lat="46.82377" lon="1.75491">
        <ele>143</ele>
        <time>2026-03-14T07:22:20Z</time>
      </trkpt>
      <trkpt lat="46.82363" lon="1.75421">
        <ele>143</ele>
        <time>2026-03-14T07:22:28Z</time>
      </trkpt>
      <trkpt lat="46.82348" lon="1.75337">
        <ele>143.6</ele>
        <time>2026-03-14T07:22:38Z</time>
      </trkpt>
      <trkpt lat="46.82335" lon="1.75258">
        <ele>143.8</ele>
        <time>2026-03-14T07:22:47Z</time>
      </trkpt>
      <trkpt lat="46.82332" lon="1.75241">
        <ele>143.8</ele>
        <time>2026-03-14T07:22:49Z</time>
      </trkpt>
      <trkpt lat="46.82329" lon="1.75223">
        <ele>144</ele>
        <time>2026-03-14T07:22:51Z</time>
      </trkpt>
      <trkpt lat="46.82316" lon="1.75143">
        <ele>143.8</ele>
        <time>2026-03-14T07:23:00Z</time>
      </trkpt>
      <trkpt lat="46.82313" lon="1.75127">
        <ele>143.8</ele>
        <time>2026-03-14T07:23:02Z</time>
      </trkpt>
      <trkpt lat="46.82301" lon="1.75049">
        <ele>143.6</ele>
        <time>2026-03-14T07:23:10Z</time>
      </trkpt>
      <trkpt lat="46.82299" lon="1.7503">
        <ele>143.4</ele>
        <time>2026-03-14T07:23:12Z</time>
      </trkpt>
      <trkpt lat="46.82291" lon="1.74983">
        <ele>143</ele>
        <time>2026-03-14T07:23:17Z</time>
      </trkpt>
      <trkpt lat="46.82283" lon="1.74938">
        <ele>142.8</ele>
        <time>2026-03-14T07:23:22Z</time>
      </trkpt>
      <trkpt lat="46.8227" lon="1.74866">
        <ele>142.8</ele>
        <time>2026-03-14T07:23:31Z</time>
      </trkpt>
      <trkpt lat="46.82259" lon="1.74796">
        <ele>143.4</ele>
        <time>2026-03-14T07:23:39Z</time>
      </trkpt>
      <trkpt lat="46.82245" lon="1.74717">
        <ele>143.6</ele>
        <time>2026-03-14T07:23:48Z</time>
      </trkpt>
      <trkpt lat="46.82242" lon="1.74701">
        <ele>143.6</ele>
        <time>2026-03-14T07:23:50Z</time>
      </trkpt>
      <trkpt lat="46.82237" lon="1.7467">
        <ele>144</ele>
        <time>2026-03-14T07:23:54Z</time>
      </trkpt>
      <trkpt lat="46.82228" lon="1.74622">
        <ele>144.2</ele>
        <time>2026-03-14T07:24:00Z</time>
      </trkpt>
      <trkpt lat="46.82216" lon="1.74548">
        <ele>144.8</ele>
        <time>2026-03-14T07:24:09Z</time>
      </trkpt>
      <trkpt lat="46.82215" lon="1.74541">
        <ele>145</ele>
        <time>2026-03-14T07:24:10Z</time>
      </trkpt>
      <trkpt lat="46.82203" lon="1.74469">
        <ele>145.8</ele>
        <time>2026-03-14T07:24:19Z</time>
      </trkpt>
      <trkpt lat="46.82199" lon="1.74445">
        <ele>146</ele>
        <time>2026-03-14T07:24:22Z</time>
      </trkpt>
      <trkpt lat="46.82189" lon="1.7439">
        <ele>146.8</ele>
        <time>2026-03-14T07:24:29Z</time>
      </trkpt>
      <trkpt lat="46.82187" lon="1.74375">
        <ele>147</ele>
        <time>2026-03-14T07:24:31Z</time>
      </trkpt>
      <trkpt lat="46.82177" lon="1.74314">
        <ele>147.8</ele>
        <time>2026-03-14T07:24:39Z</time>
      </trkpt>
      <trkpt lat="46.82175" lon="1.74306">
        <ele>147.8</ele>
        <time>2026-03-14T07:24:40Z</time>
      </trkpt>
      <trkpt lat="46.82165" lon="1.74246">
        <ele>148.6</ele>
        <time>2026-03-14T07:24:48Z</time>
      </trkpt>
      <trkpt lat="46.82161" lon="1.74223">
        <ele>149</ele>
        <time>2026-03-14T07:24:51Z</time>
      </trkpt>
      <trkpt lat="46.82148" lon="1.7415">
        <ele>149.8</ele>
        <time>2026-03-14T07:25:01Z</time>
      </trkpt>
      <trkpt lat="46.82142" lon="1.74112">
        <ele>150</ele>
        <time>2026-03-14T07:25:06Z</time>
      </trkpt>
      <trkpt lat="46.82142" lon="1.74105">
        <ele>150</ele>
        <time>2026-03-14T07:25:07Z</time>
      </trkpt>
      <trkpt lat="46.8214" lon="1.7409">
        <ele>150</ele>
        <time>2026-03-14T07:25:09Z</time>
      </trkpt>
      <trkpt lat="46.82139" lon="1.74053">
        <ele>150.4</ele>
        <time>2026-03-14T07:25:14Z</time>
      </trkpt>
      <trkpt lat="46.8214" lon="1.74038">
        <ele>150.6</ele>
        <time>2026-03-14T07:25:16Z</time>
      </trkpt>
      <trkpt lat="46.8215" lon="1.73963">
        <ele>150.4</ele>
        <time>2026-03-14T07:25:25Z</time>
      </trkpt>
      <trkpt lat="46.82154" lon="1.73901">
        <ele>150</ele>
        <time>2026-03-14T07:25:32Z</time>
      </trkpt>
      <trkpt lat="46.82151" lon="1.73866">
        <ele>149.8</ele>
        <time>2026-03-14T07:25:36Z</time>
      </trkpt>
      <trkpt lat="46.82146" lon="1.73842">
        <ele>149.6</ele>
        <time>2026-03-14T07:25:39Z</time>
      </trkpt>
      <trkpt lat="46.82146" lon="1.73824">
        <ele>149.6</ele>
        <time>2026-03-14T07:25:41Z</time>
      </trkpt>
      <trkpt lat="46.82147" lon="1.73808">
        <ele>149.6</ele>
        <time>2026-03-14T07:25:43Z</time>
      </trkpt>
      <trkpt lat="46.82145" lon="1.73792">
        <ele>149.8</ele>
        <time>2026-03-14T07:25:45Z</time>
      </trkpt>
      <trkpt lat="46.82143" lon="1.73786">
        <ele>149.8</ele>
        <time>2026-03-14T07:25:46Z</time>
      </trkpt>
      <trkpt lat="46.82139" lon="1.7378">
        <ele>149.8</ele>
        <time>2026-03-14T07:25:47Z</time>
      </trkpt>
      <trkpt lat="46.82131" lon="1.73771">
        <ele>150.2</ele>
        <time>2026-03-14T07:25:49Z</time>
      </trkpt>
      <trkpt lat="46.82114" lon="1.73752">
        <ele>150.6</ele>
        <time>2026-03-14T07:25:53Z</time>
      </trkpt>
      <trkpt lat="46.8211" lon="1.73745">
        <ele>151</ele>
        <time>2026-03-14T07:25:54Z</time>
      </trkpt>
      <trkpt lat="46.82108" lon="1.73738">
        <ele>151</ele>
        <time>2026-03-14T07:25:55Z</time>
      </trkpt>
      <trkpt lat="46.82092" lon="1.73703">
        <ele>152.2</ele>
        <time>2026-03-14T07:26:01Z</time>
      </trkpt>
      <trkpt lat="46.82088" lon="1.73693">
        <ele>152.6</ele>
        <time>2026-03-14T07:26:03Z</time>
      </trkpt>
      <trkpt lat="46.8208" lon="1.73671">
        <ele>153.2</ele>
        <time>2026-03-14T07:26:07Z</time>
      </trkpt>
      <trkpt lat="46.82071" lon="1.73649">
        <ele>154.2</ele>
        <time>2026-03-14T07:26:11Z</time>
      </trkpt>
      <trkpt lat="46.82069" lon="1.73643">
        <ele>154.4</ele>
        <time>2026-03-14T07:26:12Z</time>
      </trkpt>
      <trkpt lat="46.82058" lon="1.73613">
        <ele>155.8</ele>
        <time>2026-03-14T07:26:17Z</time>
      </trkpt>
      <trkpt lat="46.82047" lon="1.73586">
        <ele>156</ele>
        <time>2026-03-14T07:26:21Z</time>
      </trkpt>
      <trkpt lat="46.8203" lon="1.73542">
        <ele>155.8</ele>
        <time>2026-03-14T07:26:27Z</time>
      </trkpt>
      <trkpt lat="46.82009" lon="1.73489">
        <ele>154.8</ele>
        <time>2026-03-14T07:26:33Z</time>
      </trkpt>
      <trkpt lat="46.82006" lon="1.73479">
        <ele>154.2</ele>
        <time>2026-03-14T07:26:34Z</time>
      </trkpt>
      <trkpt lat="46.82003" lon="1.7347">
        <ele>154</ele>
        <time>2026-03-14T07:26:35Z</time>
      </trkpt>
      <trkpt lat="46.82001" lon="1.7345">
        <ele>153.2</ele>
        <time>2026-03-14T07:26:37Z</time>
      </trkpt>
      <trkpt lat="46.82001" lon="1.73429">
        <ele>152.6</ele>
        <time>2026-03-14T07:26:39Z</time>
      </trkpt>
      <trkpt lat="46.81999" lon="1.73411">
        <ele>152.2</ele>
        <time>2026-03-14T07:26:41Z</time>
      </trkpt>
      <trkpt lat="46.81995" lon="1.73388">
        <ele>151.4</ele>
        <time>2026-03-14T07:26:43Z</time>
      </trkpt>
      <trkpt lat="46.81997" lon="1.73369">
        <ele>151</ele>
        <time>2026-03-14T07:26:45Z</time>
      </trkpt>
      <trkpt lat="46.82004" lon="1.73306">
        <ele>149.6</ele>
        <time>2026-03-14T07:26:51Z</time>
      </trkpt>
      <trkpt lat="46.82005" lon="1.73296">
        <ele>149.2</ele>
        <time>2026-03-14T07:26:52Z</time>
      </trkpt>
      <trkpt lat="46.82011" lon="1.73255">
        <ele>148.6</ele>
        <time>2026-03-14T07:26:56Z</time>
      </trkpt>
      <trkpt lat="46.82021" lon="1.73215">
        <ele>147.8</ele>
        <time>2026-03-14T07:27:00Z</time>
      </trkpt>
      <trkpt lat="46.82028" lon="1.73194">
        <ele>147.4</ele>
        <time>2026-03-14T07:27:02Z</time>
      </trkpt>
      <trkpt lat="46.82049" lon="1.7314">
        <ele>146.4</ele>
        <time>2026-03-14T07:27:08Z</time>
      </trkpt>
      <trkpt lat="46.82059" lon="1.73109">
        <ele>146.2</ele>
        <time>2026-03-14T07:27:11Z</time>
      </trkpt>
      <trkpt lat="46.82068" lon="1.73066">
        <ele>145.6</ele>
        <time>2026-03-14T07:27:15Z</time>
      </trkpt>
      <trkpt lat="46.82068" lon="1.73043">
        <ele>145</ele>
        <time>2026-03-14T07:27:17Z</time>
      </trkpt>
      <trkpt lat="46.82065" lon="1.73023">
        <ele>144.4</ele>
        <time>2026-03-14T07:27:19Z</time>
      </trkpt>
      <trkpt lat="46.82062" lon="1.73011">
        <ele>144.2</ele>
        <time>2026-03-14T07:27:20Z</time>
      </trkpt>
      <trkpt lat="46.82059" lon="1.73">
        <ele>143.6</ele>
        <time>2026-03-14T07:27:21Z</time>
      </trkpt>
      <trkpt lat="46.82054" lon="1.72982">
        <ele>142.6</ele>
        <time>2026-03-14T07:27:23Z</time>
      </trkpt>
      <trkpt lat="46.82048" lon="1.72959">
        <ele>142.2</ele>
        <time>2026-03-14T07:27:25Z</time>
      </trkpt>
      <trkpt lat="46.82042" lon="1.72939">
        <ele>141.4</ele>
        <time>2026-03-14T07:27:27Z</time>
      </trkpt>
      <trkpt lat="46.82026" lon="1.72883">
        <ele>141.2</ele>
        <time>2026-03-14T07:27:33Z</time>
      </trkpt>
      <trkpt lat="46.8201" lon="1.72811">
        <ele>141</ele>
        <time>2026-03-14T07:27:40Z</time>
      </trkpt>
      <trkpt lat="46.81998" lon="1.72732">
        <ele>141</ele>
        <time>2026-03-14T07:27:48Z</time>
      </trkpt>
      <trkpt lat="46.81997" lon="1.72712">
        <ele>141</ele>
        <time>2026-03-14T07:27:50Z</time>
      </trkpt>
      <trkpt lat="46.82001" lon="1.72694">
        <ele>141</ele>
        <time>2026-03-14T07:27:52Z</time>
      </trkpt>
      <trkpt lat="46.82004" lon="1.72685">
        <ele>141</ele>
        <time>2026-03-14T07:27:53Z</time>
      </trkpt>
      <trkpt lat="46.82009" lon="1.72675">
        <ele>141</ele>
        <time>2026-03-14T07:27:54Z</time>
      </trkpt>
      <trkpt lat="46.82028" lon="1.72646">
        <ele>140.6</ele>
        <time>2026-03-14T07:27:58Z</time>
      </trkpt>
      <trkpt lat="46.82042" lon="1.72624">
        <ele>140.4</ele>
        <time>2026-03-14T07:28:01Z</time>
      </trkpt>
      <trkpt lat="46.82046" lon="1.72617">
        <ele>140.4</ele>
        <time>2026-03-14T07:28:02Z</time>
      </trkpt>
      <trkpt lat="46.8206" lon="1.72596">
        <ele>140.4</ele>
        <time>2026-03-14T07:28:05Z</time>
      </trkpt>
      <trkpt lat="46.82102" lon="1.72538">
        <ele>140.4</ele>
        <time>2026-03-14T07:28:14Z</time>
      </trkpt>
      <trkpt lat="46.82113" lon="1.72514">
        <ele>140.4</ele>
        <time>2026-03-14T07:28:17Z</time>
      </trkpt>
      <trkpt lat="46.82117" lon="1.72499">
        <ele>140.4</ele>
        <time>2026-03-14T07:28:19Z</time>
      </trkpt>
      <trkpt lat="46.82119" lon="1.72479">
        <ele>140.4</ele>
        <time>2026-03-14T07:28:21Z</time>
      </trkpt>
      <trkpt lat="46.82119" lon="1.72451">
        <ele>140.6</ele>
        <time>2026-03-14T07:28:24Z</time>
      </trkpt>
      <trkpt lat="46.82118" lon="1.72406">
        <ele>140.6</ele>
        <time>2026-03-14T07:28:29Z</time>
      </trkpt>
      <trkpt lat="46.82117" lon="1.72386">
        <ele>140.8</ele>
        <time>2026-03-14T07:28:31Z</time>
      </trkpt>
      <trkpt lat="46.82117" lon="1.72313">
        <ele>140.4</ele>
        <time>2026-03-14T07:28:39Z</time>
      </trkpt>
      <trkpt lat="46.82117" lon="1.72302">
        <ele>140.6</ele>
        <time>2026-03-14T07:28:40Z</time>
      </trkpt>
      <trkpt lat="46.82117" lon="1.72258">
        <ele>140.8</ele>
        <time>2026-03-14T07:28:45Z</time>
      </trkpt>
      <trkpt lat="46.82116" lon="1.72212">
        <ele>141.2</ele>
        <time>2026-03-14T07:28:51Z</time>
      </trkpt>
      <trkpt lat="46.82116" lon="1.72205">
        <ele>141.4</ele>
        <time>2026-03-14T07:28:52Z</time>
      </trkpt>
      <trkpt lat="46.82114" lon="1.7219">
        <ele>142</ele>
        <time>2026-03-14T07:28:54Z</time>
      </trkpt>
      <trkpt lat="46.82113" lon="1.72175">
        <ele>142.2</ele>
        <time>2026-03-14T07:28:56Z</time>
      </trkpt>
      <trkpt lat="46.82112" lon="1.72169">
        <ele>142.6</ele>
        <time>2026-03-14T07:28:57Z</time>
      </trkpt>
      <trkpt lat="46.8211" lon="1.72137">
        <ele>142.8</ele>
        <time>2026-03-14T07:29:01Z</time>
      </trkpt>
      <trkpt lat="46.82109" lon="1.72124">
        <ele>143.2</ele>
        <time>2026-03-14T07:29:03Z</time>
      </trkpt>
      <trkpt lat="46.82106" lon="1.72075">
        <ele>143.6</ele>
        <time>2026-03-14T07:29:09Z</time>
      </trkpt>
      <trkpt lat="46.82106" lon="1.72068">
        <ele>143.8</ele>
        <time>2026-03-14T07:29:10Z</time>
      </trkpt>
      <trkpt lat="46.82105" lon="1.72054">
        <ele>144</ele>
        <time>2026-03-14T07:29:12Z</time>
      </trkpt>
      <trkpt lat="46.82107" lon="1.72038">
        <ele>144.2</ele>
        <time>2026-03-14T07:29:14Z</time>
      </trkpt>
      <trkpt lat="46.82109" lon="1.72031">
        <ele>144.4</ele>
        <time>2026-03-14T07:29:15Z</time>
      </trkpt>
      <trkpt lat="46.82109" lon="1.72025">
        <ele>144.4</ele>
        <time>2026-03-14T07:29:16Z</time>
      </trkpt>
      <trkpt lat="46.82105" lon="1.72008">
        <ele>144.6</ele>
        <time>2026-03-14T07:29:18Z</time>
      </trkpt>
      <trkpt lat="46.82104" lon="1.71999">
        <ele>144.6</ele>
        <time>2026-03-14T07:29:19Z</time>
      </trkpt>
      <trkpt lat="46.82102" lon="1.71963">
        <ele>144.6</ele>
        <time>2026-03-14T07:29:23Z</time>
      </trkpt>
      <trkpt lat="46.82101" lon="1.71893">
        <ele>143.6</ele>
        <time>2026-03-14T07:29:30Z</time>
      </trkpt>
      <trkpt lat="46.82101" lon="1.71845">
        <ele>142.6</ele>
        <time>2026-03-14T07:29:34Z</time>
      </trkpt>
      <trkpt lat="46.82101" lon="1.71809">
        <ele>141.4</ele>
        <time>2026-03-14T07:29:37Z</time>
      </trkpt>
      <trkpt lat="46.821" lon="1.71797">
        <ele>141</ele>
        <time>2026-03-14T07:29:38Z</time>
      </trkpt>
      <trkpt lat="46.821" lon="1.71777">
        <ele>140.4</ele>
        <time>2026-03-14T07:29:40Z</time>
      </trkpt>
      <trkpt lat="46.821" lon="1.71722">
        <ele>139.6</ele>
        <time>2026-03-14T07:29:45Z</time>
      </trkpt>
      <trkpt lat="46.82097" lon="1.71663">
        <ele>139.4</ele>
        <time>2026-03-14T07:29:51Z</time>
      </trkpt>
      <trkpt lat="46.82086" lon="1.71615">
        <ele>139.6</ele>
        <time>2026-03-14T07:29:57Z</time>
      </trkpt>
      <trkpt lat="46.8208" lon="1.71586">
        <ele>140.2</ele>
        <time>2026-03-14T07:30:01Z</time>
      </trkpt>
      <trkpt lat="46.82077" lon="1.71572">
        <ele>140.8</ele>
        <time>2026-03-14T07:30:03Z</time>
      </trkpt>
      <trkpt lat="46.82073" lon="1.71555">
        <ele>141</ele>
        <time>2026-03-14T07:30:05Z</time>
      </trkpt>
      <trkpt lat="46.8207" lon="1.71534">
        <ele>141.4</ele>
        <time>2026-03-14T07:30:08Z</time>
      </trkpt>
      <trkpt lat="46.82067" lon="1.71518">
        <ele>141.6</ele>
        <time>2026-03-14T07:30:10Z</time>
      </trkpt>
      <trkpt lat="46.82056" lon="1.71461">
        <ele>142.6</ele>
        <time>2026-03-14T07:30:18Z</time>
      </trkpt>
      <trkpt lat="46.82055" lon="1.71452">
        <ele>142.6</ele>
        <time>2026-03-14T07:30:19Z</time>
      </trkpt>
      <trkpt lat="46.82051" lon="1.71436">
        <ele>143</ele>
        <time>2026-03-14T07:30:21Z</time>
      </trkpt>
      <trkpt lat="46.82043" lon="1.71397">
        <ele>143.2</ele>
        <time>2026-03-14T07:30:26Z</time>
      </trkpt>
      <trkpt lat="46.82026" lon="1.71319">
        <ele>143.4</ele>
        <time>2026-03-14T07:30:36Z</time>
      </trkpt>
      <trkpt lat="46.82017" lon="1.71273">
        <ele>143.6</ele>
        <time>2026-03-14T07:30:42Z</time>
      </trkpt>
      <trkpt lat="46.82012" lon="1.71247">
        <ele>143.6</ele>
        <time>2026-03-14T07:30:45Z</time>
      </trkpt>
      <trkpt lat="46.81997" lon="1.71175">
        <ele>144</ele>
        <time>2026-03-14T07:30:54Z</time>
      </trkpt>
      <trkpt lat="46.81986" lon="1.71127">
        <ele>144.6</ele>
        <time>2026-03-14T07:31:00Z</time>
      </trkpt>
      <trkpt lat="46.81978" lon="1.71093">
        <ele>144.8</ele>
        <time>2026-03-14T07:31:04Z</time>
      </trkpt>
      <trkpt lat="46.81976" lon="1.71088">
        <ele>145</ele>
        <time>2026-03-14T07:31:05Z</time>
      </trkpt>
      <trkpt lat="46.81972" lon="1.71083">
        <ele>144.8</ele>
        <time>2026-03-14T07:31:06Z</time>
      </trkpt>
      <trkpt lat="46.81961" lon="1.71076">
        <ele>145</ele>
        <time>2026-03-14T07:31:08Z</time>
      </trkpt>
      <trkpt lat="46.81915" lon="1.71052">
        <ele>144.8</ele>
        <time>2026-03-14T07:31:16Z</time>
      </trkpt>
      <trkpt lat="46.81871" lon="1.71026">
        <ele>144.8</ele>
        <time>2026-03-14T07:31:24Z</time>
      </trkpt>
      <trkpt lat="46.8182" lon="1.70998">
        <ele>144</ele>
        <time>2026-03-14T07:31:32Z</time>
      </trkpt>
      <trkpt lat="46.81808" lon="1.70992">
        <ele>143.8</ele>
        <time>2026-03-14T07:31:34Z</time>
      </trkpt>
      <trkpt lat="46.81776" lon="1.70973">
        <ele>143.4</ele>
        <time>2026-03-14T07:31:39Z</time>
      </trkpt>
      <trkpt lat="46.81764" lon="1.70965">
        <ele>143.2</ele>
        <time>2026-03-14T07:31:41Z</time>
      </trkpt>
      <trkpt lat="46.81725" lon="1.70944">
        <ele>143</ele>
        <time>2026-03-14T07:31:48Z</time>
      </trkpt>
      <trkpt lat="46.81703" lon="1.70933">
        <ele>143</ele>
        <time>2026-03-14T07:31:53Z</time>
      </trkpt>
      <trkpt lat="46.81666" lon="1.70912">
        <ele>143.2</ele>
        <time>2026-03-14T07:32:01Z</time>
      </trkpt>
      <trkpt lat="46.81638" lon="1.70895">
        <ele>143.2</ele>
        <time>2026-03-14T07:32:07Z</time>
      </trkpt>
      <trkpt lat="46.81598" lon="1.70873">
        <ele>143.2</ele>
        <time>2026-03-14T07:32:15Z</time>
      </trkpt>
      <trkpt lat="46.81561" lon="1.70853">
        <ele>143.4</ele>
        <time>2026-03-14T07:32:22Z</time>
      </trkpt>
      <trkpt lat="46.81527" lon="1.70834">
        <ele>143.6</ele>
        <time>2026-03-14T07:32:28Z</time>
      </trkpt>
      <trkpt lat="46.81492" lon="1.70811">
        <ele>142.8</ele>
        <time>2026-03-14T07:32:35Z</time>
      </trkpt>
      <trkpt lat="46.81458" lon="1.70793">
        <ele>142</ele>
        <time>2026-03-14T07:32:41Z</time>
      </trkpt>
      <trkpt lat="46.81446" lon="1.70786">
        <ele>141.8</ele>
        <time>2026-03-14T07:32:43Z</time>
      </trkpt>
      <trkpt lat="46.81424" lon="1.70775">
        <ele>141.4</ele>
        <time>2026-03-14T07:32:47Z</time>
      </trkpt>
      <trkpt lat="46.81419" lon="1.70772">
        <ele>141.4</ele>
        <time>2026-03-14T07:32:48Z</time>
      </trkpt>
      <trkpt lat="46.81404" lon="1.70763">
        <ele>141.2</ele>
        <time>2026-03-14T07:32:51Z</time>
      </trkpt>
      <trkpt lat="46.81368" lon="1.70745">
        <ele>141</ele>
        <time>2026-03-14T07:32:58Z</time>
      </trkpt>
      <trkpt lat="46.81325" lon="1.70726">
        <ele>141.6</ele>
        <time>2026-03-14T07:33:06Z</time>
      </trkpt>
      <trkpt lat="46.81274" lon="1.70701">
        <ele>142</ele>
        <time>2026-03-14T07:33:15Z</time>
      </trkpt>
      <trkpt lat="46.81239" lon="1.70681">
        <ele>142.6</ele>
        <time>2026-03-14T07:33:21Z</time>
      </trkpt>
      <trkpt lat="46.81234" lon="1.70679">
        <ele>142.6</ele>
        <time>2026-03-14T07:33:22Z</time>
      </trkpt>
      <trkpt lat="46.81218" lon="1.70668">
        <ele>141.8</ele>
        <time>2026-03-14T07:33:25Z</time>
      </trkpt>
      <trkpt lat="46.81214" lon="1.70664">
        <ele>141.6</ele>
        <time>2026-03-14T07:33:26Z</time>
      </trkpt>
      <trkpt lat="46.81197" lon="1.7065">
        <ele>141.6</ele>
        <time>2026-03-14T07:33:30Z</time>
      </trkpt>
      <trkpt lat="46.81192" lon="1.70648">
        <ele>141.6</ele>
        <time>2026-03-14T07:33:31Z</time>
      </trkpt>
      <trkpt lat="46.81189" lon="1.70646">
        <ele>141.6</ele>
        <time>2026-03-14T07:33:32Z</time>
      </trkpt>
      <trkpt lat="46.81172" lon="1.70634">
        <ele>142</ele>
        <time>2026-03-14T07:33:36Z</time>
      </trkpt>
      <trkpt lat="46.81164" lon="1.70628">
        <ele>142.6</ele>
        <time>2026-03-14T07:33:38Z</time>
      </trkpt>
      <trkpt lat="46.81148" lon="1.70619">
        <ele>143</ele>
        <time>2026-03-14T07:33:41Z</time>
      </trkpt>
      <trkpt lat="46.81143" lon="1.70617">
        <ele>143</ele>
        <time>2026-03-14T07:33:42Z</time>
      </trkpt>
      <trkpt lat="46.81138" lon="1.70615">
        <ele>143.2</ele>
        <time>2026-03-14T07:33:43Z</time>
      </trkpt>
      <trkpt lat="46.81116" lon="1.70603">
        <ele>144.2</ele>
        <time>2026-03-14T07:33:47Z</time>
      </trkpt>
      <trkpt lat="46.8111" lon="1.70601">
        <ele>144.4</ele>
        <time>2026-03-14T07:33:48Z</time>
      </trkpt>
      <trkpt lat="46.81062" lon="1.70578">
        <ele>143.4</ele>
        <time>2026-03-14T07:33:56Z</time>
      </trkpt>
      <trkpt lat="46.81048" lon="1.70572">
        <ele>143.2</ele>
        <time>2026-03-14T07:33:58Z</time>
      </trkpt>
      <trkpt lat="46.81041" lon="1.7057">
        <ele>143.2</ele>
        <time>2026-03-14T07:33:59Z</time>
      </trkpt>
      <trkpt lat="46.81032" lon="1.70562">
        <ele>143</ele>
        <time>2026-03-14T07:34:01Z</time>
      </trkpt>
      <trkpt lat="46.80984" lon="1.70536">
        <ele>142</ele>
        <time>2026-03-14T07:34:09Z</time>
      </trkpt>
      <trkpt lat="46.80935" lon="1.70506">
        <ele>141.2</ele>
        <time>2026-03-14T07:34:18Z</time>
      </trkpt>
      <trkpt lat="46.80906" lon="1.70488">
        <ele>141.2</ele>
        <time>2026-03-14T07:34:24Z</time>
      </trkpt>
      <trkpt lat="46.80893" lon="1.70481">
        <ele>141.2</ele>
        <time>2026-03-14T07:34:27Z</time>
      </trkpt>
      <trkpt lat="46.80881" lon="1.70469">
        <ele>141.4</ele>
        <time>2026-03-14T07:34:30Z</time>
      </trkpt>
      <trkpt lat="46.80867" lon="1.70453">
        <ele>141.4</ele>
        <time>2026-03-14T07:34:33Z</time>
      </trkpt>
      <trkpt lat="46.80861" lon="1.70441">
        <ele>141.4</ele>
        <time>2026-03-14T07:34:35Z</time>
      </trkpt>
      <trkpt lat="46.80833" lon="1.7039">
        <ele>141.8</ele>
        <time>2026-03-14T07:34:43Z</time>
      </trkpt>
      <trkpt lat="46.80804" lon="1.70338">
        <ele>142.6</ele>
        <time>2026-03-14T07:34:51Z</time>
      </trkpt>
      <trkpt lat="46.80783" lon="1.703">
        <ele>142.6</ele>
        <time>2026-03-14T07:34:57Z</time>
      </trkpt>
      <trkpt lat="46.8075" lon="1.70244">
        <ele>142.8</ele>
        <time>2026-03-14T07:35:06Z</time>
      </trkpt>
      <trkpt lat="46.80737" lon="1.7022">
        <ele>143</ele>
        <time>2026-03-14T07:35:10Z</time>
      </trkpt>
      <trkpt lat="46.80734" lon="1.70214">
        <ele>143</ele>
        <time>2026-03-14T07:35:11Z</time>
      </trkpt>
      <trkpt lat="46.80732" lon="1.70209">
        <ele>143.2</ele>
        <time>2026-03-14T07:35:12Z</time>
      </trkpt>
      <trkpt lat="46.80715" lon="1.70178">
        <ele>143.6</ele>
        <time>2026-03-14T07:35:17Z</time>
      </trkpt>
      <trkpt lat="46.80702" lon="1.70154">
        <ele>144.4</ele>
        <time>2026-03-14T07:35:21Z</time>
      </trkpt>
      <trkpt lat="46.80689" lon="1.70132">
        <ele>144.6</ele>
        <time>2026-03-14T07:35:25Z</time>
      </trkpt>
      <trkpt lat="46.80669" lon="1.70095">
        <ele>144.8</ele>
        <time>2026-03-14T07:35:32Z</time>
      </trkpt>
      <trkpt lat="46.80662" lon="1.70083">
        <ele>144.8</ele>
        <time>2026-03-14T07:35:34Z</time>
      </trkpt>
      <trkpt lat="46.80649" lon="1.7006">
        <ele>145</ele>
        <time>2026-03-14T07:35:38Z</time>
      </trkpt>
      <trkpt lat="46.80636" lon="1.70039">
        <ele>145.2</ele>
        <time>2026-03-14T07:35:42Z</time>
      </trkpt>
      <trkpt lat="46.80628" lon="1.70026">
        <ele>145.4</ele>
        <time>2026-03-14T07:35:44Z</time>
      </trkpt>
      <trkpt lat="46.80604" lon="1.69984">
        <ele>146</ele>
        <time>2026-03-14T07:35:51Z</time>
      </trkpt>
      <trkpt lat="46.80586" lon="1.69953">
        <ele>146.2</ele>
        <time>2026-03-14T07:35:56Z</time>
      </trkpt>
      <trkpt lat="46.80577" lon="1.69936">
        <ele>146.6</ele>
        <time>2026-03-14T07:35:59Z</time>
      </trkpt>
      <trkpt lat="46.80573" lon="1.6993">
        <ele>146.6</ele>
        <time>2026-03-14T07:36:00Z</time>
      </trkpt>
      <trkpt lat="46.80546" lon="1.69881">
        <ele>147.4</ele>
        <time>2026-03-14T07:36:08Z</time>
      </trkpt>
      <trkpt lat="46.80533" lon="1.69856">
        <ele>147.4</ele>
        <time>2026-03-14T07:36:12Z</time>
      </trkpt>
      <trkpt lat="46.80527" lon="1.69844">
        <ele>147.6</ele>
        <time>2026-03-14T07:36:14Z</time>
      </trkpt>
      <trkpt lat="46.80501" lon="1.69796">
        <ele>148</ele>
        <time>2026-03-14T07:36:22Z</time>
      </trkpt>
      <trkpt lat="46.8049" lon="1.69774">
        <ele>148.4</ele>
        <time>2026-03-14T07:36:26Z</time>
      </trkpt>
      <trkpt lat="46.80474" lon="1.69745">
        <ele>148.6</ele>
        <time>2026-03-14T07:36:31Z</time>
      </trkpt>
      <trkpt lat="46.80449" lon="1.69701">
        <ele>148.8</ele>
        <time>2026-03-14T07:36:39Z</time>
      </trkpt>
      <trkpt lat="46.80442" lon="1.69689">
        <ele>148.8</ele>
        <time>2026-03-14T07:36:41Z</time>
      </trkpt>
      <trkpt lat="46.80426" lon="1.69666">
        <ele>148.8</ele>
        <time>2026-03-14T07:36:45Z</time>
      </trkpt>
      <trkpt lat="46.80407" lon="1.69633">
        <ele>148.8</ele>
        <time>2026-03-14T07:36:50Z</time>
      </trkpt>
      <trkpt lat="46.80402" lon="1.6962">
        <ele>148.8</ele>
        <time>2026-03-14T07:36:52Z</time>
      </trkpt>
      <trkpt lat="46.80393" lon="1.69603">
        <ele>148.6</ele>
        <time>2026-03-14T07:36:55Z</time>
      </trkpt>
      <trkpt lat="46.80387" lon="1.69593">
        <ele>148.4</ele>
        <time>2026-03-14T07:36:57Z</time>
      </trkpt>
      <trkpt lat="46.8038" lon="1.69578">
        <ele>148.2</ele>
        <time>2026-03-14T07:37:01Z</time>
      </trkpt>
      <trkpt lat="46.80373" lon="1.69567">
        <ele>148</ele>
        <time>2026-03-14T07:37:06Z</time>
      </trkpt>
      <trkpt lat="46.80367" lon="1.69554">
        <ele>147.8</ele>
        <time>2026-03-14T07:37:11Z</time>
      </trkpt>
      <trkpt lat="46.80363" lon="1.69542">
        <ele>147.8</ele>
        <time>2026-03-14T07:37:14Z</time>
      </trkpt>
      <trkpt lat="46.8036" lon="1.6954">
        <ele>147.8</ele>
        <time>2026-03-14T07:37:16Z</time>
      </trkpt>
      <trkpt lat="46.80353" lon="1.69539">
        <ele>147.6</ele>
        <time>2026-03-14T07:37:19Z</time>
      </trkpt>
      <trkpt lat="46.8035" lon="1.69545">
        <ele>147.6</ele>
        <time>2026-03-14T07:37:21Z</time>
      </trkpt>
      <trkpt lat="46.80343" lon="1.69558">
        <ele>147.6</ele>
        <time>2026-03-14T07:37:27Z</time>
      </trkpt>
      <trkpt lat="46.8034" lon="1.69561">
        <ele>147.4</ele>
        <time>2026-03-14T07:37:31Z</time>
      </trkpt>
      <trkpt lat="46.8034" lon="1.69561">
        <ele>146.8</ele>
        <time>2026-03-14T07:38:55Z</time>
      </trkpt>
      <trkpt lat="46.8034" lon="1.69561">
        <ele>146.8</ele>
        <time>2026-03-14T07:38:56Z</time>
      </trkpt>
      <trkpt lat="46.80328" lon="1.6956">
        <ele>146.2</ele>
        <time>2026-03-14T07:56:12Z</time>
      </trkpt>
      <trkpt lat="46.8033" lon="1.69559">
        <ele>146.2</ele>
        <time>2026-03-14T07:56:13Z</time>
      </trkpt>
      <trkpt lat="46.80338" lon="1.69566">
        <ele>146.2</ele>
        <time>2026-03-14T07:58:34Z</time>
      </trkpt>
      <trkpt lat="46.80342" lon="1.69564">
        <ele>146</ele>
        <time>2026-03-14T07:58:36Z</time>
      </trkpt>
      <trkpt lat="46.80357" lon="1.69552">
        <ele>146.2</ele>
        <time>2026-03-14T07:58:41Z</time>
      </trkpt>
      <trkpt lat="46.80363" lon="1.69543">
        <ele>146.6</ele>
        <time>2026-03-14T07:58:43Z</time>
      </trkpt>
      <trkpt lat="46.80367" lon="1.69532">
        <ele>147</ele>
        <time>2026-03-14T07:58:45Z</time>
      </trkpt>
      <trkpt lat="46.80371" lon="1.69512">
        <ele>147.2</ele>
        <time>2026-03-14T07:58:48Z</time>
      </trkpt>
      <trkpt lat="46.80377" lon="1.69478">
        <ele>147.6</ele>
        <time>2026-03-14T07:58:53Z</time>
      </trkpt>
      <trkpt lat="46.80386" lon="1.69428">
        <ele>147.6</ele>
        <time>2026-03-14T07:59:00Z</time>
      </trkpt>
      <trkpt lat="46.80396" lon="1.69371">
        <ele>147.8</ele>
        <time>2026-03-14T07:59:08Z</time>
      </trkpt>
      <trkpt lat="46.80398" lon="1.69364">
        <ele>148</ele>
        <time>2026-03-14T07:59:09Z</time>
      </trkpt>
      <trkpt lat="46.80402" lon="1.69342">
        <ele>148</ele>
        <time>2026-03-14T07:59:12Z</time>
      </trkpt>
      <trkpt lat="46.80407" lon="1.6932">
        <ele>148.2</ele>
        <time>2026-03-14T07:59:15Z</time>
      </trkpt>
      <trkpt lat="46.80416" lon="1.69268">
        <ele>148.2</ele>
        <time>2026-03-14T07:59:22Z</time>
      </trkpt>
      <trkpt lat="46.80425" lon="1.69222">
        <ele>148.4</ele>
        <time>2026-03-14T07:59:28Z</time>
      </trkpt>
      <trkpt lat="46.80426" lon="1.69214">
        <ele>148.6</ele>
        <time>2026-03-14T07:59:29Z</time>
      </trkpt>
      <trkpt lat="46.80442" lon="1.69134">
        <ele>149.2</ele>
        <time>2026-03-14T07:59:39Z</time>
      </trkpt>
      <trkpt lat="46.80445" lon="1.6912">
        <ele>149.4</ele>
        <time>2026-03-14T07:59:41Z</time>
      </trkpt>
      <trkpt lat="46.80448" lon="1.69104">
        <ele>149.6</ele>
        <time>2026-03-14T07:59:43Z</time>
      </trkpt>
      <trkpt lat="46.80452" lon="1.6908">
        <ele>149.8</ele>
        <time>2026-03-14T07:59:46Z</time>
      </trkpt>
      <trkpt lat="46.80467" lon="1.69001">
        <ele>150.2</ele>
        <time>2026-03-14T07:59:56Z</time>
      </trkpt>
      <trkpt lat="46.80479" lon="1.68936">
        <ele>150.4</ele>
        <time>2026-03-14T08:00:04Z</time>
      </trkpt>
      <trkpt lat="46.80482" lon="1.6892">
        <ele>150.6</ele>
        <time>2026-03-14T08:00:06Z</time>
      </trkpt>
      <trkpt lat="46.80488" lon="1.68873">
        <ele>150.8</ele>
        <time>2026-03-14T08:00:12Z</time>
      </trkpt>
      <trkpt lat="46.80504" lon="1.68802">
        <ele>151.6</ele>
        <time>2026-03-14T08:00:21Z</time>
      </trkpt>
      <trkpt lat="46.80515" lon="1.68737">
        <ele>150.8</ele>
        <time>2026-03-14T08:00:28Z</time>
      </trkpt>
      <trkpt lat="46.80517" lon="1.68728">
        <ele>150.4</ele>
        <time>2026-03-14T08:00:29Z</time>
      </trkpt>
      <trkpt lat="46.80532" lon="1.68648">
        <ele>149.4</ele>
        <time>2026-03-14T08:00:38Z</time>
      </trkpt>
      <trkpt lat="46.80535" lon="1.68631">
        <ele>149.4</ele>
        <time>2026-03-14T08:00:40Z</time>
      </trkpt>
      <trkpt lat="46.80545" lon="1.68578">
        <ele>149.2</ele>
        <time>2026-03-14T08:00:46Z</time>
      </trkpt>
      <trkpt lat="46.8055" lon="1.68551">
        <ele>149.2</ele>
        <time>2026-03-14T08:00:49Z</time>
      </trkpt>
      <trkpt lat="46.80565" lon="1.68471">
        <ele>149</ele>
        <time>2026-03-14T08:00:58Z</time>
      </trkpt>
      <trkpt lat="46.8057" lon="1.68444">
        <ele>149</ele>
        <time>2026-03-14T08:01:01Z</time>
      </trkpt>
      <trkpt lat="46.80578" lon="1.68404">
        <ele>148.8</ele>
        <time>2026-03-14T08:01:06Z</time>
      </trkpt>
      <trkpt lat="46.80587" lon="1.68361">
        <ele>148.8</ele>
        <time>2026-03-14T08:01:12Z</time>
      </trkpt>
      <trkpt lat="46.80589" lon="1.68353">
        <ele>148.8</ele>
        <time>2026-03-14T08:01:13Z</time>
      </trkpt>
      <trkpt lat="46.80596" lon="1.68328">
        <ele>148.8</ele>
        <time>2026-03-14T08:01:16Z</time>
      </trkpt>
      <trkpt lat="46.80614" lon="1.6827">
        <ele>148.8</ele>
        <time>2026-03-14T08:01:23Z</time>
      </trkpt>
      <trkpt lat="46.8063" lon="1.68219">
        <ele>148.2</ele>
        <time>2026-03-14T08:01:29Z</time>
      </trkpt>
      <trkpt lat="46.80636" lon="1.68201">
        <ele>148.2</ele>
        <time>2026-03-14T08:01:31Z</time>
      </trkpt>
      <trkpt lat="46.80659" lon="1.6813">
        <ele>147.4</ele>
        <time>2026-03-14T08:01:39Z</time>
      </trkpt>
      <trkpt lat="46.80662" lon="1.68121">
        <ele>147.4</ele>
        <time>2026-03-14T08:01:40Z</time>
      </trkpt>
      <trkpt lat="46.80665" lon="1.68112">
        <ele>147.2</ele>
        <time>2026-03-14T08:01:41Z</time>
      </trkpt>
      <trkpt lat="46.80679" lon="1.68066">
        <ele>146.6</ele>
        <time>2026-03-14T08:01:46Z</time>
      </trkpt>
      <trkpt lat="46.80689" lon="1.68038">
        <ele>146.2</ele>
        <time>2026-03-14T08:01:49Z</time>
      </trkpt>
      <trkpt lat="46.8071" lon="1.6797">
        <ele>145.2</ele>
        <time>2026-03-14T08:01:56Z</time>
      </trkpt>
      <trkpt lat="46.80719" lon="1.67941">
        <ele>144.6</ele>
        <time>2026-03-14T08:01:59Z</time>
      </trkpt>
      <trkpt lat="46.80725" lon="1.67922">
        <ele>144.2</ele>
        <time>2026-03-14T08:02:01Z</time>
      </trkpt>
      <trkpt lat="46.8074" lon="1.67874">
        <ele>142.8</ele>
        <time>2026-03-14T08:02:06Z</time>
      </trkpt>
      <trkpt lat="46.80743" lon="1.67864">
        <ele>142.8</ele>
        <time>2026-03-14T08:02:07Z</time>
      </trkpt>
      <trkpt lat="46.80754" lon="1.67825">
        <ele>141.6</ele>
        <time>2026-03-14T08:02:11Z</time>
      </trkpt>
      <trkpt lat="46.80765" lon="1.67787">
        <ele>140.8</ele>
        <time>2026-03-14T08:02:15Z</time>
      </trkpt>
      <trkpt lat="46.80772" lon="1.67763">
        <ele>140.4</ele>
        <time>2026-03-14T08:02:18Z</time>
      </trkpt>
      <trkpt lat="46.80774" lon="1.67757">
        <ele>140.4</ele>
        <time>2026-03-14T08:02:19Z</time>
      </trkpt>
      <trkpt lat="46.80778" lon="1.67745">
        <ele>139.6</ele>
        <time>2026-03-14T08:02:23Z</time>
      </trkpt>
      <trkpt lat="46.8078" lon="1.67744">
        <ele>139.4</ele>
        <time>2026-03-14T08:02:25Z</time>
      </trkpt>
      <trkpt lat="46.80785" lon="1.67739">
        <ele>139</ele>
        <time>2026-03-14T08:02:28Z</time>
      </trkpt>
      <trkpt lat="46.80797" lon="1.67733">
        <ele>138.8</ele>
        <time>2026-03-14T08:02:31Z</time>
      </trkpt>
      <trkpt lat="46.80801" lon="1.67729">
        <ele>138.8</ele>
        <time>2026-03-14T08:02:32Z</time>
      </trkpt>
      <trkpt lat="46.80804" lon="1.67723">
        <ele>138.8</ele>
        <time>2026-03-14T08:02:33Z</time>
      </trkpt>
      <trkpt lat="46.80803" lon="1.67708">
        <ele>138.8</ele>
        <time>2026-03-14T08:02:35Z</time>
      </trkpt>
      <trkpt lat="46.80795" lon="1.67698">
        <ele>138.6</ele>
        <time>2026-03-14T08:02:37Z</time>
      </trkpt>
      <trkpt lat="46.80785" lon="1.67698">
        <ele>138.6</ele>
        <time>2026-03-14T08:02:39Z</time>
      </trkpt>
      <trkpt lat="46.80775" lon="1.67698">
        <ele>138.6</ele>
        <time>2026-03-14T08:02:41Z</time>
      </trkpt>
      <trkpt lat="46.8077" lon="1.67697">
        <ele>138.6</ele>
        <time>2026-03-14T08:02:42Z</time>
      </trkpt>
      <trkpt lat="46.80762" lon="1.67686">
        <ele>138.4</ele>
        <time>2026-03-14T08:02:44Z</time>
      </trkpt>
      <trkpt lat="46.80759" lon="1.67679">
        <ele>138.4</ele>
        <time>2026-03-14T08:02:45Z</time>
      </trkpt>
      <trkpt lat="46.80755" lon="1.67674">
        <ele>138.4</ele>
        <time>2026-03-14T08:02:46Z</time>
      </trkpt>
      <trkpt lat="46.8075" lon="1.67665">
        <ele>138.2</ele>
        <time>2026-03-14T08:02:48Z</time>
      </trkpt>
      <trkpt lat="46.80747" lon="1.6766">
        <ele>138.2</ele>
        <time>2026-03-14T08:02:49Z</time>
      </trkpt>
      <trkpt lat="46.80738" lon="1.67646">
        <ele>138.2</ele>
        <time>2026-03-14T08:02:52Z</time>
      </trkpt>
      <trkpt lat="46.80726" lon="1.67632">
        <ele>138.2</ele>
        <time>2026-03-14T08:02:55Z</time>
      </trkpt>
      <trkpt lat="46.80711" lon="1.67614">
        <ele>138.2</ele>
        <time>2026-03-14T08:02:59Z</time>
      </trkpt>
      <trkpt lat="46.80709" lon="1.67608">
        <ele>138.2</ele>
        <time>2026-03-14T08:03:00Z</time>
      </trkpt>
      <trkpt lat="46.8071" lon="1.67602">
        <ele>138.2</ele>
        <time>2026-03-14T08:03:01Z</time>
      </trkpt>
      <trkpt lat="46.80713" lon="1.67597">
        <ele>138.2</ele>
        <time>2026-03-14T08:03:02Z</time>
      </trkpt>
      <trkpt lat="46.80717" lon="1.67593">
        <ele>138</ele>
        <time>2026-03-14T08:03:03Z</time>
      </trkpt>
      <trkpt lat="46.80736" lon="1.67578">
        <ele>137.6</ele>
        <time>2026-03-14T08:03:07Z</time>
      </trkpt>
      <trkpt lat="46.80746" lon="1.67569">
        <ele>137.4</ele>
        <time>2026-03-14T08:03:11Z</time>
      </trkpt>
      <trkpt lat="46.80746" lon="1.67565">
        <ele>137.4</ele>
        <time>2026-03-14T08:03:12Z</time>
      </trkpt>
      <trkpt lat="46.80743" lon="1.67547">
        <ele>136.8</ele>
        <time>2026-03-14T08:03:15Z</time>
      </trkpt>
      <trkpt lat="46.80727" lon="1.67503">
        <ele>136.4</ele>
        <time>2026-03-14T08:03:21Z</time>
      </trkpt>
      <trkpt lat="46.80708" lon="1.67443">
        <ele>136.4</ele>
        <time>2026-03-14T08:03:28Z</time>
      </trkpt>
      <trkpt lat="46.80693" lon="1.67401">
        <ele>136.2</ele>
        <time>2026-03-14T08:03:33Z</time>
      </trkpt>
      <trkpt lat="46.80684" lon="1.67375">
        <ele>136</ele>
        <time>2026-03-14T08:03:36Z</time>
      </trkpt>
      <trkpt lat="46.80661" lon="1.67307">
        <ele>135.6</ele>
        <time>2026-03-14T08:03:44Z</time>
      </trkpt>
      <trkpt lat="46.80634" lon="1.67231">
        <ele>135.6</ele>
        <time>2026-03-14T08:03:53Z</time>
      </trkpt>
      <trkpt lat="46.8062" lon="1.67191">
        <ele>135</ele>
        <time>2026-03-14T08:03:58Z</time>
      </trkpt>
      <trkpt lat="46.80611" lon="1.67164">
        <ele>134.6</ele>
        <time>2026-03-14T08:04:02Z</time>
      </trkpt>
      <trkpt lat="46.80602" lon="1.67142">
        <ele>134.2</ele>
        <time>2026-03-14T08:04:07Z</time>
      </trkpt>
      <trkpt lat="46.80601" lon="1.67137">
        <ele>134</ele>
        <time>2026-03-14T08:04:08Z</time>
      </trkpt>
      <trkpt lat="46.80597" lon="1.67126">
        <ele>133.6</ele>
        <time>2026-03-14T08:04:10Z</time>
      </trkpt>
      <trkpt lat="46.80595" lon="1.67119">
        <ele>133.6</ele>
        <time>2026-03-14T08:04:11Z</time>
      </trkpt>
      <trkpt lat="46.80589" lon="1.67105">
        <ele>133.4</ele>
        <time>2026-03-14T08:04:13Z</time>
      </trkpt>
      <trkpt lat="46.80578" lon="1.67083">
        <ele>133.2</ele>
        <time>2026-03-14T08:04:16Z</time>
      </trkpt>
      <trkpt lat="46.80574" lon="1.67075">
        <ele>133</ele>
        <time>2026-03-14T08:04:17Z</time>
      </trkpt>
      <trkpt lat="46.80538" lon="1.67004">
        <ele>132.2</ele>
        <time>2026-03-14T08:04:26Z</time>
      </trkpt>
      <trkpt lat="46.80525" lon="1.66981">
        <ele>132</ele>
        <time>2026-03-14T08:04:29Z</time>
      </trkpt>
      <trkpt lat="46.80509" lon="1.66948">
        <ele>131.4</ele>
        <time>2026-03-14T08:04:33Z</time>
      </trkpt>
      <trkpt lat="46.80497" lon="1.66912">
        <ele>131</ele>
        <time>2026-03-14T08:04:37Z</time>
      </trkpt>
      <trkpt lat="46.80492" lon="1.66894">
        <ele>131</ele>
        <time>2026-03-14T08:04:39Z</time>
      </trkpt>
      <trkpt lat="46.80476" lon="1.66823">
        <ele>131.4</ele>
        <time>2026-03-14T08:04:47Z</time>
      </trkpt>
      <trkpt lat="46.80471" lon="1.66798">
        <ele>131.4</ele>
        <time>2026-03-14T08:04:50Z</time>
      </trkpt>
      <trkpt lat="46.80463" lon="1.66765">
        <ele>131.8</ele>
        <time>2026-03-14T08:04:54Z</time>
      </trkpt>
      <trkpt lat="46.80449" lon="1.66713">
        <ele>132.2</ele>
        <time>2026-03-14T08:05:00Z</time>
      </trkpt>
      <trkpt lat="46.80447" lon="1.66704">
        <ele>132.2</ele>
        <time>2026-03-14T08:05:01Z</time>
      </trkpt>
      <trkpt lat="46.80438" lon="1.66679">
        <ele>132.2</ele>
        <time>2026-03-14T08:05:04Z</time>
      </trkpt>
      <trkpt lat="46.80432" lon="1.66662">
        <ele>132.2</ele>
        <time>2026-03-14T08:05:06Z</time>
      </trkpt>
      <trkpt lat="46.80407" lon="1.66602">
        <ele>131.6</ele>
        <time>2026-03-14T08:05:13Z</time>
      </trkpt>
      <trkpt lat="46.80398" lon="1.66587">
        <ele>131.4</ele>
        <time>2026-03-14T08:05:15Z</time>
      </trkpt>
      <trkpt lat="46.80368" lon="1.66549">
        <ele>130.8</ele>
        <time>2026-03-14T08:05:21Z</time>
      </trkpt>
      <trkpt lat="46.80363" lon="1.66542">
        <ele>130.6</ele>
        <time>2026-03-14T08:05:22Z</time>
      </trkpt>
      <trkpt lat="46.80355" lon="1.66526">
        <ele>130.4</ele>
        <time>2026-03-14T08:05:24Z</time>
      </trkpt>
      <trkpt lat="46.8035" lon="1.66507">
        <ele>130.2</ele>
        <time>2026-03-14T08:05:26Z</time>
      </trkpt>
      <trkpt lat="46.80343" lon="1.66447">
        <ele>129.8</ele>
        <time>2026-03-14T08:05:32Z</time>
      </trkpt>
      <trkpt lat="46.80341" lon="1.66408">
        <ele>129.6</ele>
        <time>2026-03-14T08:05:36Z</time>
      </trkpt>
      <trkpt lat="46.80344" lon="1.66388">
        <ele>129.4</ele>
        <time>2026-03-14T08:05:38Z</time>
      </trkpt>
      <trkpt lat="46.80361" lon="1.66305">
        <ele>129</ele>
        <time>2026-03-14T08:05:47Z</time>
      </trkpt>
      <trkpt lat="46.80364" lon="1.66262">
        <ele>130</ele>
        <time>2026-03-14T08:05:52Z</time>
      </trkpt>
      <trkpt lat="46.80365" lon="1.6623">
        <ele>130.8</ele>
        <time>2026-03-14T08:05:56Z</time>
      </trkpt>
      <trkpt lat="46.80365" lon="1.662">
        <ele>132.2</ele>
        <time>2026-03-14T08:06:00Z</time>
      </trkpt>
      <trkpt lat="46.8036" lon="1.66144">
        <ele>133.2</ele>
        <time>2026-03-14T08:06:07Z</time>
      </trkpt>
      <trkpt lat="46.80358" lon="1.66128">
        <ele>133.2</ele>
        <time>2026-03-14T08:06:09Z</time>
      </trkpt>
      <trkpt lat="46.80354" lon="1.66055">
        <ele>133.8</ele>
        <time>2026-03-14T08:06:18Z</time>
      </trkpt>
      <trkpt lat="46.80348" lon="1.65984">
        <ele>134</ele>
        <time>2026-03-14T08:06:26Z</time>
      </trkpt>
      <trkpt lat="46.80348" lon="1.65976">
        <ele>134.2</ele>
        <time>2026-03-14T08:06:27Z</time>
      </trkpt>
      <trkpt lat="46.80346" lon="1.6594">
        <ele>134.8</ele>
        <time>2026-03-14T08:06:32Z</time>
      </trkpt>
      <trkpt lat="46.80345" lon="1.65932">
        <ele>134.8</ele>
        <time>2026-03-14T08:06:33Z</time>
      </trkpt>
      <trkpt lat="46.80345" lon="1.65919">
        <ele>135.4</ele>
        <time>2026-03-14T08:06:35Z</time>
      </trkpt>
      <trkpt lat="46.80344" lon="1.65904">
        <ele>135.8</ele>
        <time>2026-03-14T08:06:37Z</time>
      </trkpt>
      <trkpt lat="46.80342" lon="1.65883">
        <ele>136.6</ele>
        <time>2026-03-14T08:06:40Z</time>
      </trkpt>
      <trkpt lat="46.80339" lon="1.65858">
        <ele>137.8</ele>
        <time>2026-03-14T08:06:44Z</time>
      </trkpt>
      <trkpt lat="46.80339" lon="1.65845">
        <ele>138.2</ele>
        <time>2026-03-14T08:06:46Z</time>
      </trkpt>
      <trkpt lat="46.80338" lon="1.65825">
        <ele>139</ele>
        <time>2026-03-14T08:06:49Z</time>
      </trkpt>
      <trkpt lat="46.80337" lon="1.65816">
        <ele>139.2</ele>
        <time>2026-03-14T08:06:50Z</time>
      </trkpt>
      <trkpt lat="46.80336" lon="1.65797">
        <ele>139.8</ele>
        <time>2026-03-14T08:06:53Z</time>
      </trkpt>
      <trkpt lat="46.80336" lon="1.6579">
        <ele>140</ele>
        <time>2026-03-14T08:06:54Z</time>
      </trkpt>
      <trkpt lat="46.80335" lon="1.6576">
        <ele>140.6</ele>
        <time>2026-03-14T08:06:58Z</time>
      </trkpt>
      <trkpt lat="46.80335" lon="1.65744">
        <ele>140.6</ele>
        <time>2026-03-14T08:07:00Z</time>
      </trkpt>
      <trkpt lat="46.80332" lon="1.65697">
        <ele>141.2</ele>
        <time>2026-03-14T08:07:06Z</time>
      </trkpt>
      <trkpt lat="46.80332" lon="1.65689">
        <ele>141.2</ele>
        <time>2026-03-14T08:07:07Z</time>
      </trkpt>
      <trkpt lat="46.80327" lon="1.65604">
        <ele>141.2</ele>
        <time>2026-03-14T08:07:17Z</time>
      </trkpt>
      <trkpt lat="46.80321" lon="1.65518">
        <ele>140.4</ele>
        <time>2026-03-14T08:07:27Z</time>
      </trkpt>
      <trkpt lat="46.80323" lon="1.6548">
        <ele>140</ele>
        <time>2026-03-14T08:07:31Z</time>
      </trkpt>
      <trkpt lat="46.80325" lon="1.65461">
        <ele>140</ele>
        <time>2026-03-14T08:07:33Z</time>
      </trkpt>
      <trkpt lat="46.80337" lon="1.65403">
        <ele>139</ele>
        <time>2026-03-14T08:07:39Z</time>
      </trkpt>
      <trkpt lat="46.80339" lon="1.65393">
        <ele>138.8</ele>
        <time>2026-03-14T08:07:40Z</time>
      </trkpt>
      <trkpt lat="46.80347" lon="1.65366">
        <ele>138.2</ele>
        <time>2026-03-14T08:07:43Z</time>
      </trkpt>
      <trkpt lat="46.8035" lon="1.65358">
        <ele>137.6</ele>
        <time>2026-03-14T08:07:44Z</time>
      </trkpt>
      <trkpt lat="46.80354" lon="1.65341">
        <ele>137.2</ele>
        <time>2026-03-14T08:07:46Z</time>
      </trkpt>
      <trkpt lat="46.80357" lon="1.65324">
        <ele>136.6</ele>
        <time>2026-03-14T08:07:48Z</time>
      </trkpt>
      <trkpt lat="46.8036" lon="1.65286">
        <ele>135.4</ele>
        <time>2026-03-14T08:07:52Z</time>
      </trkpt>
      <trkpt lat="46.80358" lon="1.65256">
        <ele>134.6</ele>
        <time>2026-03-14T08:07:55Z</time>
      </trkpt>
      <trkpt lat="46.80354" lon="1.65236">
        <ele>134.2</ele>
        <time>2026-03-14T08:07:57Z</time>
      </trkpt>
      <trkpt lat="46.80335" lon="1.65189">
        <ele>133.2</ele>
        <time>2026-03-14T08:08:02Z</time>
      </trkpt>
      <trkpt lat="46.8033" lon="1.65181">
        <ele>133</ele>
        <time>2026-03-14T08:08:03Z</time>
      </trkpt>
      <trkpt lat="46.8032" lon="1.65164">
        <ele>132</ele>
        <time>2026-03-14T08:08:05Z</time>
      </trkpt>
      <trkpt lat="46.80302" lon="1.65126">
        <ele>131</ele>
        <time>2026-03-14T08:08:09Z</time>
      </trkpt>
      <trkpt lat="46.80297" lon="1.65117">
        <ele>130.8</ele>
        <time>2026-03-14T08:08:10Z</time>
      </trkpt>
      <trkpt lat="46.80269" lon="1.65062">
        <ele>129.6</ele>
        <time>2026-03-14T08:08:16Z</time>
      </trkpt>
      <trkpt lat="46.80255" lon="1.65034">
        <ele>129.2</ele>
        <time>2026-03-14T08:08:19Z</time>
      </trkpt>
      <trkpt lat="46.80238" lon="1.64998">
        <ele>128.6</ele>
        <time>2026-03-14T08:08:23Z</time>
      </trkpt>
      <trkpt lat="46.80225" lon="1.64971">
        <ele>128.4</ele>
        <time>2026-03-14T08:08:26Z</time>
      </trkpt>
      <trkpt lat="46.80194" lon="1.64907">
        <ele>127.8</ele>
        <time>2026-03-14T08:08:33Z</time>
      </trkpt>
      <trkpt lat="46.80185" lon="1.64888">
        <ele>127.6</ele>
        <time>2026-03-14T08:08:35Z</time>
      </trkpt>
      <trkpt lat="46.80167" lon="1.64853">
        <ele>127.4</ele>
        <time>2026-03-14T08:08:39Z</time>
      </trkpt>
      <trkpt lat="46.80133" lon="1.64783">
        <ele>127.2</ele>
        <time>2026-03-14T08:08:47Z</time>
      </trkpt>
      <trkpt lat="46.80116" lon="1.64747">
        <ele>127</ele>
        <time>2026-03-14T08:08:51Z</time>
      </trkpt>
      <trkpt lat="46.80084" lon="1.6468">
        <ele>127</ele>
        <time>2026-03-14T08:08:59Z</time>
      </trkpt>
      <trkpt lat="46.8008" lon="1.64671">
        <ele>127</ele>
        <time>2026-03-14T08:09:00Z</time>
      </trkpt>
      <trkpt lat="46.80053" lon="1.646">
        <ele>126.8</ele>
        <time>2026-03-14T08:09:08Z</time>
      </trkpt>
      <trkpt lat="46.8005" lon="1.6459">
        <ele>126.8</ele>
        <time>2026-03-14T08:09:09Z</time>
      </trkpt>
      <trkpt lat="46.80029" lon="1.64524">
        <ele>126.6</ele>
        <time>2026-03-14T08:09:16Z</time>
      </trkpt>
      <trkpt lat="46.80027" lon="1.64514">
        <ele>126.6</ele>
        <time>2026-03-14T08:09:17Z</time>
      </trkpt>
      <trkpt lat="46.80007" lon="1.64437">
        <ele>126</ele>
        <time>2026-03-14T08:09:25Z</time>
      </trkpt>
      <trkpt lat="46.79999" lon="1.64409">
        <ele>126</ele>
        <time>2026-03-14T08:09:28Z</time>
      </trkpt>
      <trkpt lat="46.79978" lon="1.64332">
        <ele>126</ele>
        <time>2026-03-14T08:09:36Z</time>
      </trkpt>
      <trkpt lat="46.79971" lon="1.64303">
        <ele>125.8</ele>
        <time>2026-03-14T08:09:39Z</time>
      </trkpt>
      <trkpt lat="46.7995" lon="1.64225">
        <ele>125.6</ele>
        <time>2026-03-14T08:09:47Z</time>
      </trkpt>
      <trkpt lat="46.79947" lon="1.64215">
        <ele>125.6</ele>
        <time>2026-03-14T08:09:48Z</time>
      </trkpt>
      <trkpt lat="46.79927" lon="1.64138">
        <ele>125.4</ele>
        <time>2026-03-14T08:09:56Z</time>
      </trkpt>
      <trkpt lat="46.79916" lon="1.64101">
        <ele>125.4</ele>
        <time>2026-03-14T08:10:00Z</time>
      </trkpt>
      <trkpt lat="46.79896" lon="1.64025">
        <ele>125.6</ele>
        <time>2026-03-14T08:10:08Z</time>
      </trkpt>
      <trkpt lat="46.79893" lon="1.64015">
        <ele>125.6</ele>
        <time>2026-03-14T08:10:09Z</time>
      </trkpt>
      <trkpt lat="46.79869" lon="1.63939">
        <ele>125.6</ele>
        <time>2026-03-14T08:10:17Z</time>
      </trkpt>
      <trkpt lat="46.79863" lon="1.63921">
        <ele>125.6</ele>
        <time>2026-03-14T08:10:19Z</time>
      </trkpt>
      <trkpt lat="46.79845" lon="1.63887">
        <ele>125.8</ele>
        <time>2026-03-14T08:10:24Z</time>
      </trkpt>
      <trkpt lat="46.79834" lon="1.63871">
        <ele>126.6</ele>
        <time>2026-03-14T08:10:27Z</time>
      </trkpt>
      <trkpt lat="46.79827" lon="1.63862">
        <ele>127.2</ele>
        <time>2026-03-14T08:10:29Z</time>
      </trkpt>
      <trkpt lat="46.79823" lon="1.63859">
        <ele>127.6</ele>
        <time>2026-03-14T08:10:30Z</time>
      </trkpt>
      <trkpt lat="46.79808" lon="1.63849">
        <ele>128.8</ele>
        <time>2026-03-14T08:10:34Z</time>
      </trkpt>
      <trkpt lat="46.79805" lon="1.63846">
        <ele>129.2</ele>
        <time>2026-03-14T08:10:35Z</time>
      </trkpt>
      <trkpt lat="46.79801" lon="1.63845">
        <ele>129.4</ele>
        <time>2026-03-14T08:10:36Z</time>
      </trkpt>
      <trkpt lat="46.79797" lon="1.63842">
        <ele>129.8</ele>
        <time>2026-03-14T08:10:37Z</time>
      </trkpt>
      <trkpt lat="46.79794" lon="1.63839">
        <ele>130.2</ele>
        <time>2026-03-14T08:10:38Z</time>
      </trkpt>
      <trkpt lat="46.79774" lon="1.63826">
        <ele>131.2</ele>
        <time>2026-03-14T08:10:43Z</time>
      </trkpt>
      <trkpt lat="46.79754" lon="1.63812">
        <ele>132.4</ele>
        <time>2026-03-14T08:10:48Z</time>
      </trkpt>
      <trkpt lat="46.7975" lon="1.63809">
        <ele>132.6</ele>
        <time>2026-03-14T08:10:49Z</time>
      </trkpt>
      <trkpt lat="46.79727" lon="1.63794">
        <ele>133.6</ele>
        <time>2026-03-14T08:10:55Z</time>
      </trkpt>
      <trkpt lat="46.7972" lon="1.63788">
        <ele>133.8</ele>
        <time>2026-03-14T08:10:57Z</time>
      </trkpt>
      <trkpt lat="46.79709" lon="1.63779">
        <ele>134.8</ele>
        <time>2026-03-14T08:11:00Z</time>
      </trkpt>
      <trkpt lat="46.79694" lon="1.63762">
        <ele>136</ele>
        <time>2026-03-14T08:11:05Z</time>
      </trkpt>
      <trkpt lat="46.7968" lon="1.63738">
        <ele>137.2</ele>
        <time>2026-03-14T08:11:11Z</time>
      </trkpt>
      <trkpt lat="46.79678" lon="1.63733">
        <ele>137.4</ele>
        <time>2026-03-14T08:11:12Z</time>
      </trkpt>
      <trkpt lat="46.79673" lon="1.63712">
        <ele>138.2</ele>
        <time>2026-03-14T08:11:16Z</time>
      </trkpt>
      <trkpt lat="46.79672" lon="1.63701">
        <ele>138.8</ele>
        <time>2026-03-14T08:11:18Z</time>
      </trkpt>
      <trkpt lat="46.79672" lon="1.6368">
        <ele>139.4</ele>
        <time>2026-03-14T08:11:22Z</time>
      </trkpt>
      <trkpt lat="46.79673" lon="1.6367">
        <ele>139.6</ele>
        <time>2026-03-14T08:11:24Z</time>
      </trkpt>
      <trkpt lat="46.79675" lon="1.63659">
        <ele>140.2</ele>
        <time>2026-03-14T08:11:26Z</time>
      </trkpt>
      <trkpt lat="46.79683" lon="1.6364">
        <ele>141.6</ele>
        <time>2026-03-14T08:11:30Z</time>
      </trkpt>
      <trkpt lat="46.79692" lon="1.63612">
        <ele>142.4</ele>
        <time>2026-03-14T08:11:35Z</time>
      </trkpt>
      <trkpt lat="46.79691" lon="1.63599">
        <ele>142.4</ele>
        <time>2026-03-14T08:11:37Z</time>
      </trkpt>
      <trkpt lat="46.79689" lon="1.63593">
        <ele>142.6</ele>
        <time>2026-03-14T08:11:38Z</time>
      </trkpt>
      <trkpt lat="46.79688" lon="1.63587">
        <ele>142.6</ele>
        <time>2026-03-14T08:11:39Z</time>
      </trkpt>
      <trkpt lat="46.79688" lon="1.63574">
        <ele>142.8</ele>
        <time>2026-03-14T08:11:41Z</time>
      </trkpt>
      <trkpt lat="46.7969" lon="1.6356">
        <ele>143</ele>
        <time>2026-03-14T08:11:43Z</time>
      </trkpt>
      <trkpt lat="46.79698" lon="1.63511">
        <ele>143.2</ele>
        <time>2026-03-14T08:11:50Z</time>
      </trkpt>
      <trkpt lat="46.79701" lon="1.63496">
        <ele>143.4</ele>
        <time>2026-03-14T08:11:52Z</time>
      </trkpt>
      <trkpt lat="46.79708" lon="1.63457">
        <ele>143.6</ele>
        <time>2026-03-14T08:11:57Z</time>
      </trkpt>
      <trkpt lat="46.79711" lon="1.63432">
        <ele>143.6</ele>
        <time>2026-03-14T08:12:00Z</time>
      </trkpt>
      <trkpt lat="46.79719" lon="1.63372">
        <ele>143.8</ele>
        <time>2026-03-14T08:12:07Z</time>
      </trkpt>
      <trkpt lat="46.7972" lon="1.63363">
        <ele>143.8</ele>
        <time>2026-03-14T08:12:08Z</time>
      </trkpt>
      <trkpt lat="46.79722" lon="1.63282">
        <ele>143.6</ele>
        <time>2026-03-14T08:12:17Z</time>
      </trkpt>
      <trkpt lat="46.79718" lon="1.63203">
        <ele>143.4</ele>
        <time>2026-03-14T08:12:26Z</time>
      </trkpt>
      <trkpt lat="46.79706" lon="1.63126">
        <ele>143.8</ele>
        <time>2026-03-14T08:12:35Z</time>
      </trkpt>
      <trkpt lat="46.79694" lon="1.63055">
        <ele>143.8</ele>
        <time>2026-03-14T08:12:42Z</time>
      </trkpt>
      <trkpt lat="46.7968" lon="1.6297">
        <ele>142.8</ele>
        <time>2026-03-14T08:12:50Z</time>
      </trkpt>
      <trkpt lat="46.79676" lon="1.62948">
        <ele>142.6</ele>
        <time>2026-03-14T08:12:52Z</time>
      </trkpt>
      <trkpt lat="46.79664" lon="1.62882">
        <ele>141.2</ele>
        <time>2026-03-14T08:12:58Z</time>
      </trkpt>
      <trkpt lat="46.7966" lon="1.62859">
        <ele>140.6</ele>
        <time>2026-03-14T08:13:00Z</time>
      </trkpt>
      <trkpt lat="46.79655" lon="1.62825">
        <ele>140</ele>
        <time>2026-03-14T08:13:03Z</time>
      </trkpt>
      <trkpt lat="46.79643" lon="1.62761">
        <ele>139.2</ele>
        <time>2026-03-14T08:13:09Z</time>
      </trkpt>
      <trkpt lat="46.79639" lon="1.62741">
        <ele>139</ele>
        <time>2026-03-14T08:13:11Z</time>
      </trkpt>
      <trkpt lat="46.79631" lon="1.62695">
        <ele>139</ele>
        <time>2026-03-14T08:13:16Z</time>
      </trkpt>
      <trkpt lat="46.79618" lon="1.62626">
        <ele>139.4</ele>
        <time>2026-03-14T08:13:24Z</time>
      </trkpt>
      <trkpt lat="46.79612" lon="1.62592">
        <ele>140</ele>
        <time>2026-03-14T08:13:28Z</time>
      </trkpt>
      <trkpt lat="46.79602" lon="1.62532">
        <ele>140.4</ele>
        <time>2026-03-14T08:13:35Z</time>
      </trkpt>
      <trkpt lat="46.7959" lon="1.62466">
        <ele>141.2</ele>
        <time>2026-03-14T08:13:43Z</time>
      </trkpt>
      <trkpt lat="46.79586" lon="1.62442">
        <ele>141.6</ele>
        <time>2026-03-14T08:13:46Z</time>
      </trkpt>
      <trkpt lat="46.79581" lon="1.62412">
        <ele>142.2</ele>
        <time>2026-03-14T08:13:50Z</time>
      </trkpt>
      <trkpt lat="46.79575" lon="1.62384">
        <ele>143</ele>
        <time>2026-03-14T08:13:54Z</time>
      </trkpt>
      <trkpt lat="46.79574" lon="1.62378">
        <ele>143.2</ele>
        <time>2026-03-14T08:13:55Z</time>
      </trkpt>
      <trkpt lat="46.79566" lon="1.62338">
        <ele>144.4</ele>
        <time>2026-03-14T08:14:01Z</time>
      </trkpt>
      <trkpt lat="46.79562" lon="1.62318">
        <ele>145</ele>
        <time>2026-03-14T08:14:04Z</time>
      </trkpt>
      <trkpt lat="46.79559" lon="1.62298">
        <ele>145.8</ele>
        <time>2026-03-14T08:14:07Z</time>
      </trkpt>
      <trkpt lat="46.79554" lon="1.62264">
        <ele>147</ele>
        <time>2026-03-14T08:14:12Z</time>
      </trkpt>
      <trkpt lat="46.79551" lon="1.62244">
        <ele>147.4</ele>
        <time>2026-03-14T08:14:15Z</time>
      </trkpt>
      <trkpt lat="46.79548" lon="1.62216">
        <ele>148</ele>
        <time>2026-03-14T08:14:19Z</time>
      </trkpt>
      <trkpt lat="46.79546" lon="1.6218">
        <ele>149</ele>
        <time>2026-03-14T08:14:24Z</time>
      </trkpt>
      <trkpt lat="46.79546" lon="1.62172">
        <ele>149.2</ele>
        <time>2026-03-14T08:14:25Z</time>
      </trkpt>
      <trkpt lat="46.79545" lon="1.62134">
        <ele>150.4</ele>
        <time>2026-03-14T08:14:30Z</time>
      </trkpt>
      <trkpt lat="46.79545" lon="1.6209">
        <ele>151.4</ele>
        <time>2026-03-14T08:14:36Z</time>
      </trkpt>
      <trkpt lat="46.79545" lon="1.62083">
        <ele>151.4</ele>
        <time>2026-03-14T08:14:37Z</time>
      </trkpt>
      <trkpt lat="46.79544" lon="1.62039">
        <ele>152.6</ele>
        <time>2026-03-14T08:14:43Z</time>
      </trkpt>
      <trkpt lat="46.79542" lon="1.62008">
        <ele>153</ele>
        <time>2026-03-14T08:14:47Z</time>
      </trkpt>
      <trkpt lat="46.79538" lon="1.6197">
        <ele>153.4</ele>
        <time>2026-03-14T08:14:52Z</time>
      </trkpt>
      <trkpt lat="46.79533" lon="1.61939">
        <ele>154</ele>
        <time>2026-03-14T08:14:56Z</time>
      </trkpt>
      <trkpt lat="46.79514" lon="1.61865">
        <ele>154</ele>
        <time>2026-03-14T08:15:05Z</time>
      </trkpt>
      <trkpt lat="46.79491" lon="1.61787">
        <ele>153.8</ele>
        <time>2026-03-14T08:15:14Z</time>
      </trkpt>
      <trkpt lat="46.79467" lon="1.61711">
        <ele>153.2</ele>
        <time>2026-03-14T08:15:22Z</time>
      </trkpt>
      <trkpt lat="46.79461" lon="1.61695">
        <ele>153</ele>
        <time>2026-03-14T08:15:24Z</time>
      </trkpt>
      <trkpt lat="46.79442" lon="1.61647">
        <ele>152.4</ele>
        <time>2026-03-14T08:15:29Z</time>
      </trkpt>
      <trkpt lat="46.79434" lon="1.61626">
        <ele>152</ele>
        <time>2026-03-14T08:15:31Z</time>
      </trkpt>
      <trkpt lat="46.79425" lon="1.61607">
        <ele>151.2</ele>
        <time>2026-03-14T08:15:33Z</time>
      </trkpt>
      <trkpt lat="46.79405" lon="1.61567">
        <ele>149.8</ele>
        <time>2026-03-14T08:15:37Z</time>
      </trkpt>
      <trkpt lat="46.794" lon="1.61558">
        <ele>149.6</ele>
        <time>2026-03-14T08:15:38Z</time>
      </trkpt>
      <trkpt lat="46.79388" lon="1.6154">
        <ele>148.8</ele>
        <time>2026-03-14T08:15:40Z</time>
      </trkpt>
      <trkpt lat="46.79365" lon="1.61505">
        <ele>148</ele>
        <time>2026-03-14T08:15:44Z</time>
      </trkpt>
      <trkpt lat="46.79353" lon="1.61488">
        <ele>147.6</ele>
        <time>2026-03-14T08:15:46Z</time>
      </trkpt>
      <trkpt lat="46.79335" lon="1.61463">
        <ele>147</ele>
        <time>2026-03-14T08:15:49Z</time>
      </trkpt>
      <trkpt lat="46.79301" lon="1.61414">
        <ele>145.8</ele>
        <time>2026-03-14T08:15:55Z</time>
      </trkpt>
      <trkpt lat="46.79296" lon="1.61405">
        <ele>145.8</ele>
        <time>2026-03-14T08:15:56Z</time>
      </trkpt>
      <trkpt lat="46.79252" lon="1.61343">
        <ele>145.2</ele>
        <time>2026-03-14T08:16:04Z</time>
      </trkpt>
      <trkpt lat="46.79237" lon="1.6132">
        <ele>145</ele>
        <time>2026-03-14T08:16:07Z</time>
      </trkpt>
      <trkpt lat="46.79201" lon="1.6127">
        <ele>144.8</ele>
        <time>2026-03-14T08:16:14Z</time>
      </trkpt>
      <trkpt lat="46.79191" lon="1.61255">
        <ele>144.8</ele>
        <time>2026-03-14T08:16:16Z</time>
      </trkpt>
      <trkpt lat="46.79153" lon="1.61198">
        <ele>144.8</ele>
        <time>2026-03-14T08:16:24Z</time>
      </trkpt>
      <trkpt lat="46.79144" lon="1.61184">
        <ele>144.8</ele>
        <time>2026-03-14T08:16:26Z</time>
      </trkpt>
      <trkpt lat="46.79108" lon="1.61123">
        <ele>144.8</ele>
        <time>2026-03-14T08:16:34Z</time>
      </trkpt>
      <trkpt lat="46.79104" lon="1.61115">
        <ele>144.8</ele>
        <time>2026-03-14T08:16:35Z</time>
      </trkpt>
      <trkpt lat="46.79072" lon="1.61052">
        <ele>144.4</ele>
        <time>2026-03-14T08:16:43Z</time>
      </trkpt>
      <trkpt lat="46.79068" lon="1.61043">
        <ele>144.4</ele>
        <time>2026-03-14T08:16:44Z</time>
      </trkpt>
      <trkpt lat="46.79044" lon="1.60982">
        <ele>144.2</ele>
        <time>2026-03-14T08:16:51Z</time>
      </trkpt>
      <trkpt lat="46.79026" lon="1.60905">
        <ele>143.8</ele>
        <time>2026-03-14T08:16:59Z</time>
      </trkpt>
      <trkpt lat="46.79016" lon="1.60827">
        <ele>143.4</ele>
        <time>2026-03-14T08:17:07Z</time>
      </trkpt>
      <trkpt lat="46.79017" lon="1.60748">
        <ele>143.4</ele>
        <time>2026-03-14T08:17:15Z</time>
      </trkpt>
      <trkpt lat="46.79025" lon="1.60669">
        <ele>143.4</ele>
        <time>2026-03-14T08:17:23Z</time>
      </trkpt>
      <trkpt lat="46.79027" lon="1.60659">
        <ele>143.4</ele>
        <time>2026-03-14T08:17:24Z</time>
      </trkpt>
      <trkpt lat="46.79037" lon="1.60577">
        <ele>143.6</ele>
        <time>2026-03-14T08:17:32Z</time>
      </trkpt>
      <trkpt lat="46.79042" lon="1.60535">
        <ele>143.6</ele>
        <time>2026-03-14T08:17:36Z</time>
      </trkpt>
      <trkpt lat="46.79052" lon="1.6045">
        <ele>143.6</ele>
        <time>2026-03-14T08:17:44Z</time>
      </trkpt>
      <trkpt lat="46.79058" lon="1.60408">
        <ele>143.6</ele>
        <time>2026-03-14T08:17:48Z</time>
      </trkpt>
      <trkpt lat="46.79068" lon="1.60324">
        <ele>143.6</ele>
        <time>2026-03-14T08:17:56Z</time>
      </trkpt>
      <trkpt lat="46.79073" lon="1.60292">
        <ele>143.6</ele>
        <time>2026-03-14T08:17:59Z</time>
      </trkpt>
      <trkpt lat="46.79077" lon="1.60243">
        <ele>143.6</ele>
        <time>2026-03-14T08:18:04Z</time>
      </trkpt>
      <trkpt lat="46.79088" lon="1.60163">
        <ele>144.2</ele>
        <time>2026-03-14T08:18:12Z</time>
      </trkpt>
      <trkpt lat="46.79099" lon="1.60077">
        <ele>144.4</ele>
        <time>2026-03-14T08:18:21Z</time>
      </trkpt>
      <trkpt lat="46.791" lon="1.60068">
        <ele>144.4</ele>
        <time>2026-03-14T08:18:22Z</time>
      </trkpt>
      <trkpt lat="46.79108" lon="1.59998">
        <ele>144.6</ele>
        <time>2026-03-14T08:18:29Z</time>
      </trkpt>
      <trkpt lat="46.79115" lon="1.59949">
        <ele>144.6</ele>
        <time>2026-03-14T08:18:34Z</time>
      </trkpt>
      <trkpt lat="46.79117" lon="1.5993">
        <ele>144.6</ele>
        <time>2026-03-14T08:18:36Z</time>
      </trkpt>
      <trkpt lat="46.79119" lon="1.59921">
        <ele>144.8</ele>
        <time>2026-03-14T08:18:37Z</time>
      </trkpt>
      <trkpt lat="46.79123" lon="1.59892">
        <ele>144.8</ele>
        <time>2026-03-14T08:18:40Z</time>
      </trkpt>
      <trkpt lat="46.79132" lon="1.59824">
        <ele>145.2</ele>
        <time>2026-03-14T08:18:47Z</time>
      </trkpt>
      <trkpt lat="46.79142" lon="1.59753">
        <ele>145.4</ele>
        <time>2026-03-14T08:18:54Z</time>
      </trkpt>
      <trkpt lat="46.7915" lon="1.5968">
        <ele>145</ele>
        <time>2026-03-14T08:19:01Z</time>
      </trkpt>
      <trkpt lat="46.79158" lon="1.59616">
        <ele>144.8</ele>
        <time>2026-03-14T08:19:07Z</time>
      </trkpt>
      <trkpt lat="46.79168" lon="1.59536">
        <ele>144.6</ele>
        <time>2026-03-14T08:19:15Z</time>
      </trkpt>
      <trkpt lat="46.79177" lon="1.59457">
        <ele>144.4</ele>
        <time>2026-03-14T08:19:23Z</time>
      </trkpt>
      <trkpt lat="46.79178" lon="1.59446">
        <ele>144.4</ele>
        <time>2026-03-14T08:19:24Z</time>
      </trkpt>
      <trkpt lat="46.79179" lon="1.59385">
        <ele>144.6</ele>
        <time>2026-03-14T08:19:30Z</time>
      </trkpt>
      <trkpt lat="46.79168" lon="1.59316">
        <ele>144.6</ele>
        <time>2026-03-14T08:19:37Z</time>
      </trkpt>
      <trkpt lat="46.79156" lon="1.59244">
        <ele>144.4</ele>
        <time>2026-03-14T08:19:44Z</time>
      </trkpt>
      <trkpt lat="46.7914" lon="1.59164">
        <ele>144.4</ele>
        <time>2026-03-14T08:19:52Z</time>
      </trkpt>
      <trkpt lat="46.79136" lon="1.59144">
        <ele>144.4</ele>
        <time>2026-03-14T08:19:54Z</time>
      </trkpt>
      <trkpt lat="46.79127" lon="1.59106">
        <ele>144.6</ele>
        <time>2026-03-14T08:19:58Z</time>
      </trkpt>
      <trkpt lat="46.79123" lon="1.59086">
        <ele>144.6</ele>
        <time>2026-03-14T08:20:00Z</time>
      </trkpt>
      <trkpt lat="46.79114" lon="1.59037">
        <ele>144.8</ele>
        <time>2026-03-14T08:20:05Z</time>
      </trkpt>
      <trkpt lat="46.79104" lon="1.58976">
        <ele>144.6</ele>
        <time>2026-03-14T08:20:11Z</time>
      </trkpt>
      <trkpt lat="46.79093" lon="1.58916">
        <ele>144.4</ele>
        <time>2026-03-14T08:20:17Z</time>
      </trkpt>
      <trkpt lat="46.79083" lon="1.58851">
        <ele>144.4</ele>
        <time>2026-03-14T08:20:24Z</time>
      </trkpt>
      <trkpt lat="46.79071" lon="1.58784">
        <ele>144.4</ele>
        <time>2026-03-14T08:20:31Z</time>
      </trkpt>
      <trkpt lat="46.79058" lon="1.58717">
        <ele>144.4</ele>
        <time>2026-03-14T08:20:38Z</time>
      </trkpt>
      <trkpt lat="46.79054" lon="1.58697">
        <ele>144.2</ele>
        <time>2026-03-14T08:20:40Z</time>
      </trkpt>
      <trkpt lat="46.79042" lon="1.58638">
        <ele>143.8</ele>
        <time>2026-03-14T08:20:46Z</time>
      </trkpt>
      <trkpt lat="46.79028" lon="1.58565">
        <ele>143.4</ele>
        <time>2026-03-14T08:20:53Z</time>
      </trkpt>
      <trkpt lat="46.79026" lon="1.58555">
        <ele>143.2</ele>
        <time>2026-03-14T08:20:54Z</time>
      </trkpt>
      <trkpt lat="46.79011" lon="1.58482">
        <ele>142.6</ele>
        <time>2026-03-14T08:21:01Z</time>
      </trkpt>
      <trkpt lat="46.79003" lon="1.58441">
        <ele>142.2</ele>
        <time>2026-03-14T08:21:05Z</time>
      </trkpt>
      <trkpt lat="46.78997" lon="1.58411">
        <ele>142</ele>
        <time>2026-03-14T08:21:08Z</time>
      </trkpt>
      <trkpt lat="46.78984" lon="1.58341">
        <ele>141.2</ele>
        <time>2026-03-14T08:21:15Z</time>
      </trkpt>
      <trkpt lat="46.78975" lon="1.58281">
        <ele>140.8</ele>
        <time>2026-03-14T08:21:21Z</time>
      </trkpt>
      <trkpt lat="46.7897" lon="1.5825">
        <ele>140.8</ele>
        <time>2026-03-14T08:21:24Z</time>
      </trkpt>
      <trkpt lat="46.78955" lon="1.58168">
        <ele>140.2</ele>
        <time>2026-03-14T08:21:32Z</time>
      </trkpt>
      <trkpt lat="46.78952" lon="1.58147">
        <ele>140</ele>
        <time>2026-03-14T08:21:34Z</time>
      </trkpt>
      <trkpt lat="46.7894" lon="1.58082">
        <ele>139.8</ele>
        <time>2026-03-14T08:21:40Z</time>
      </trkpt>
      <trkpt lat="46.78936" lon="1.5806">
        <ele>139.8</ele>
        <time>2026-03-14T08:21:42Z</time>
      </trkpt>
      <trkpt lat="46.78919" lon="1.57977">
        <ele>139.2</ele>
        <time>2026-03-14T08:21:50Z</time>
      </trkpt>
      <trkpt lat="46.78906" lon="1.57904">
        <ele>139</ele>
        <time>2026-03-14T08:21:57Z</time>
      </trkpt>
      <trkpt lat="46.78901" lon="1.57883">
        <ele>138.8</ele>
        <time>2026-03-14T08:21:59Z</time>
      </trkpt>
      <trkpt lat="46.78891" lon="1.57831">
        <ele>138</ele>
        <time>2026-03-14T08:22:04Z</time>
      </trkpt>
      <trkpt lat="46.7888" lon="1.5777">
        <ele>137.6</ele>
        <time>2026-03-14T08:22:10Z</time>
      </trkpt>
      <trkpt lat="46.78875" lon="1.57739">
        <ele>137.4</ele>
        <time>2026-03-14T08:22:13Z</time>
      </trkpt>
      <trkpt lat="46.78864" lon="1.5766">
        <ele>137.2</ele>
        <time>2026-03-14T08:22:21Z</time>
      </trkpt>
      <trkpt lat="46.78865" lon="1.57579">
        <ele>136.8</ele>
        <time>2026-03-14T08:22:29Z</time>
      </trkpt>
      <trkpt lat="46.78874" lon="1.57501">
        <ele>136.6</ele>
        <time>2026-03-14T08:22:37Z</time>
      </trkpt>
      <trkpt lat="46.78876" lon="1.57491">
        <ele>136.6</ele>
        <time>2026-03-14T08:22:38Z</time>
      </trkpt>
      <trkpt lat="46.78886" lon="1.5743">
        <ele>136.6</ele>
        <time>2026-03-14T08:22:44Z</time>
      </trkpt>
      <trkpt lat="46.78888" lon="1.5742">
        <ele>136.6</ele>
        <time>2026-03-14T08:22:45Z</time>
      </trkpt>
      <trkpt lat="46.78903" lon="1.57338">
        <ele>135.8</ele>
        <time>2026-03-14T08:22:53Z</time>
      </trkpt>
      <trkpt lat="46.78908" lon="1.57307">
        <ele>135.4</ele>
        <time>2026-03-14T08:22:56Z</time>
      </trkpt>
      <trkpt lat="46.78923" lon="1.57224">
        <ele>134.8</ele>
        <time>2026-03-14T08:23:04Z</time>
      </trkpt>
      <trkpt lat="46.78933" lon="1.57172">
        <ele>134.2</ele>
        <time>2026-03-14T08:23:09Z</time>
      </trkpt>
      <trkpt lat="46.78941" lon="1.57131">
        <ele>133.8</ele>
        <time>2026-03-14T08:23:13Z</time>
      </trkpt>
      <trkpt lat="46.78955" lon="1.57053">
        <ele>133.2</ele>
        <time>2026-03-14T08:23:21Z</time>
      </trkpt>
      <trkpt lat="46.78958" lon="1.57033">
        <ele>133.4</ele>
        <time>2026-03-14T08:23:23Z</time>
      </trkpt>
      <trkpt lat="46.78969" lon="1.56977">
        <ele>133</ele>
        <time>2026-03-14T08:23:29Z</time>
      </trkpt>
      <trkpt lat="46.78975" lon="1.5694">
        <ele>132.8</ele>
        <time>2026-03-14T08:23:33Z</time>
      </trkpt>
      <trkpt lat="46.78988" lon="1.56868">
        <ele>132.8</ele>
        <time>2026-03-14T08:23:41Z</time>
      </trkpt>
      <trkpt lat="46.79003" lon="1.56786">
        <ele>133</ele>
        <time>2026-03-14T08:23:50Z</time>
      </trkpt>
      <trkpt lat="46.79004" lon="1.56777">
        <ele>133</ele>
        <time>2026-03-14T08:23:51Z</time>
      </trkpt>
      <trkpt lat="46.79019" lon="1.56694">
        <ele>133</ele>
        <time>2026-03-14T08:24:00Z</time>
      </trkpt>
      <trkpt lat="46.79033" lon="1.56615">
        <ele>133</ele>
        <time>2026-03-14T08:24:09Z</time>
      </trkpt>
      <trkpt lat="46.79038" lon="1.56588">
        <ele>133</ele>
        <time>2026-03-14T08:24:12Z</time>
      </trkpt>
      <trkpt lat="46.79052" lon="1.56509">
        <ele>133.2</ele>
        <time>2026-03-14T08:24:21Z</time>
      </trkpt>
      <trkpt lat="46.79055" lon="1.56491">
        <ele>133.2</ele>
        <time>2026-03-14T08:24:23Z</time>
      </trkpt>
      <trkpt lat="46.79066" lon="1.56431">
        <ele>133.6</ele>
        <time>2026-03-14T08:24:30Z</time>
      </trkpt>
      <trkpt lat="46.79078" lon="1.56362">
        <ele>134</ele>
        <time>2026-03-14T08:24:38Z</time>
      </trkpt>
      <trkpt lat="46.7908" lon="1.56354">
        <ele>134</ele>
        <time>2026-03-14T08:24:39Z</time>
      </trkpt>
      <trkpt lat="46.79094" lon="1.56278">
        <ele>134.2</ele>
        <time>2026-03-14T08:24:48Z</time>
      </trkpt>
      <trkpt lat="46.79108" lon="1.562">
        <ele>134.6</ele>
        <time>2026-03-14T08:24:57Z</time>
      </trkpt>
      <trkpt lat="46.7912" lon="1.56131">
        <ele>135</ele>
        <time>2026-03-14T08:25:05Z</time>
      </trkpt>
      <trkpt lat="46.79134" lon="1.56052">
        <ele>135.4</ele>
        <time>2026-03-14T08:25:14Z</time>
      </trkpt>
      <trkpt lat="46.79141" lon="1.56009">
        <ele>135.8</ele>
        <time>2026-03-14T08:25:19Z</time>
      </trkpt>
      <trkpt lat="46.79146" lon="1.55985">
        <ele>136</ele>
        <time>2026-03-14T08:25:22Z</time>
      </trkpt>
      <trkpt lat="46.79157" lon="1.55919">
        <ele>136.4</ele>
        <time>2026-03-14T08:25:30Z</time>
      </trkpt>
      <trkpt lat="46.79169" lon="1.55856">
        <ele>137.2</ele>
        <time>2026-03-14T08:25:38Z</time>
      </trkpt>
      <trkpt lat="46.79172" lon="1.55841">
        <ele>137.4</ele>
        <time>2026-03-14T08:25:40Z</time>
      </trkpt>
      <trkpt lat="46.7918" lon="1.55795">
        <ele>138.2</ele>
        <time>2026-03-14T08:25:46Z</time>
      </trkpt>
      <trkpt lat="46.79182" lon="1.5578">
        <ele>138.6</ele>
        <time>2026-03-14T08:25:48Z</time>
      </trkpt>
      <trkpt lat="46.79188" lon="1.55748">
        <ele>139.4</ele>
        <time>2026-03-14T08:25:52Z</time>
      </trkpt>
      <trkpt lat="46.79194" lon="1.5571">
        <ele>140</ele>
        <time>2026-03-14T08:25:57Z</time>
      </trkpt>
      <trkpt lat="46.79199" lon="1.55679">
        <ele>140.4</ele>
        <time>2026-03-14T08:26:01Z</time>
      </trkpt>
      <trkpt lat="46.79205" lon="1.5564">
        <ele>141.2</ele>
        <time>2026-03-14T08:26:06Z</time>
      </trkpt>
      <trkpt lat="46.79207" lon="1.55633">
        <ele>141.6</ele>
        <time>2026-03-14T08:26:07Z</time>
      </trkpt>
      <trkpt lat="46.79219" lon="1.55574">
        <ele>142.6</ele>
        <time>2026-03-14T08:26:15Z</time>
      </trkpt>
      <trkpt lat="46.79222" lon="1.55559">
        <ele>143</ele>
        <time>2026-03-14T08:26:17Z</time>
      </trkpt>
      <trkpt lat="46.79225" lon="1.55535">
        <ele>143.8</ele>
        <time>2026-03-14T08:26:20Z</time>
      </trkpt>
      <trkpt lat="46.79233" lon="1.55489">
        <ele>144.6</ele>
        <time>2026-03-14T08:26:26Z</time>
      </trkpt>
      <trkpt lat="46.79236" lon="1.55473">
        <ele>144.8</ele>
        <time>2026-03-14T08:26:28Z</time>
      </trkpt>
      <trkpt lat="46.79245" lon="1.55423">
        <ele>145.6</ele>
        <time>2026-03-14T08:26:34Z</time>
      </trkpt>
      <trkpt lat="46.79259" lon="1.55345">
        <ele>145.6</ele>
        <time>2026-03-14T08:26:43Z</time>
      </trkpt>
      <trkpt lat="46.79263" lon="1.55318">
        <ele>145.4</ele>
        <time>2026-03-14T08:26:46Z</time>
      </trkpt>
      <trkpt lat="46.79274" lon="1.55241">
        <ele>144.8</ele>
        <time>2026-03-14T08:26:54Z</time>
      </trkpt>
      <trkpt lat="46.79277" lon="1.5522">
        <ele>144.6</ele>
        <time>2026-03-14T08:26:56Z</time>
      </trkpt>
      <trkpt lat="46.79286" lon="1.55157">
        <ele>143.8</ele>
        <time>2026-03-14T08:27:02Z</time>
      </trkpt>
      <trkpt lat="46.79289" lon="1.55135">
        <ele>143.4</ele>
        <time>2026-03-14T08:27:04Z</time>
      </trkpt>
      <trkpt lat="46.79295" lon="1.5509">
        <ele>142.6</ele>
        <time>2026-03-14T08:27:08Z</time>
      </trkpt>
      <trkpt lat="46.79303" lon="1.55033">
        <ele>141.8</ele>
        <time>2026-03-14T08:27:13Z</time>
      </trkpt>
      <trkpt lat="46.79305" lon="1.55022">
        <ele>141.4</ele>
        <time>2026-03-14T08:27:14Z</time>
      </trkpt>
      <trkpt lat="46.79317" lon="1.5494">
        <ele>140.8</ele>
        <time>2026-03-14T08:27:21Z</time>
      </trkpt>
      <trkpt lat="46.7932" lon="1.54917">
        <ele>140.6</ele>
        <time>2026-03-14T08:27:23Z</time>
      </trkpt>
      <trkpt lat="46.79321" lon="1.54906">
        <ele>140.2</ele>
        <time>2026-03-14T08:27:24Z</time>
      </trkpt>
      <trkpt lat="46.79331" lon="1.54842">
        <ele>139.6</ele>
        <time>2026-03-14T08:27:30Z</time>
      </trkpt>
      <trkpt lat="46.79337" lon="1.548">
        <ele>139.2</ele>
        <time>2026-03-14T08:27:34Z</time>
      </trkpt>
      <trkpt lat="46.79339" lon="1.54788">
        <ele>139.2</ele>
        <time>2026-03-14T08:27:35Z</time>
      </trkpt>
      <trkpt lat="46.7935" lon="1.5471">
        <ele>138.4</ele>
        <time>2026-03-14T08:27:42Z</time>
      </trkpt>
      <trkpt lat="46.79353" lon="1.54689">
        <ele>138.2</ele>
        <time>2026-03-14T08:27:44Z</time>
      </trkpt>
      <trkpt lat="46.79357" lon="1.54656">
        <ele>138</ele>
        <time>2026-03-14T08:27:47Z</time>
      </trkpt>
      <trkpt lat="46.79363" lon="1.54611">
        <ele>137.8</ele>
        <time>2026-03-14T08:27:51Z</time>
      </trkpt>
      <trkpt lat="46.79375" lon="1.54534">
        <ele>137.6</ele>
        <time>2026-03-14T08:27:58Z</time>
      </trkpt>
      <trkpt lat="46.79377" lon="1.54524">
        <ele>137.6</ele>
        <time>2026-03-14T08:27:59Z</time>
      </trkpt>
      <trkpt lat="46.79388" lon="1.54448">
        <ele>137.2</ele>
        <time>2026-03-14T08:28:06Z</time>
      </trkpt>
      <trkpt lat="46.79393" lon="1.54416">
        <ele>136.8</ele>
        <time>2026-03-14T08:28:09Z</time>
      </trkpt>
      <trkpt lat="46.79398" lon="1.54382">
        <ele>136.4</ele>
        <time>2026-03-14T08:28:12Z</time>
      </trkpt>
      <trkpt lat="46.79404" lon="1.54338">
        <ele>135.8</ele>
        <time>2026-03-14T08:28:16Z</time>
      </trkpt>
      <trkpt lat="46.79415" lon="1.5426">
        <ele>135.2</ele>
        <time>2026-03-14T08:28:23Z</time>
      </trkpt>
      <trkpt lat="46.79424" lon="1.54205">
        <ele>134.8</ele>
        <time>2026-03-14T08:28:28Z</time>
      </trkpt>
      <trkpt lat="46.79431" lon="1.54152">
        <ele>134.2</ele>
        <time>2026-03-14T08:28:33Z</time>
      </trkpt>
      <trkpt lat="46.79442" lon="1.54078">
        <ele>133.8</ele>
        <time>2026-03-14T08:28:40Z</time>
      </trkpt>
      <trkpt lat="46.79448" lon="1.54037">
        <ele>133.6</ele>
        <time>2026-03-14T08:28:44Z</time>
      </trkpt>
      <trkpt lat="46.79459" lon="1.53959">
        <ele>133</ele>
        <time>2026-03-14T08:28:51Z</time>
      </trkpt>
      <trkpt lat="46.79463" lon="1.53927">
        <ele>132.8</ele>
        <time>2026-03-14T08:28:54Z</time>
      </trkpt>
      <trkpt lat="46.79468" lon="1.53895">
        <ele>132.6</ele>
        <time>2026-03-14T08:28:57Z</time>
      </trkpt>
      <trkpt lat="46.79479" lon="1.53813">
        <ele>132.4</ele>
        <time>2026-03-14T08:29:05Z</time>
      </trkpt>
      <trkpt lat="46.79485" lon="1.53774">
        <ele>132.2</ele>
        <time>2026-03-14T08:29:09Z</time>
      </trkpt>
      <trkpt lat="46.79496" lon="1.53696">
        <ele>132.2</ele>
        <time>2026-03-14T08:29:17Z</time>
      </trkpt>
      <trkpt lat="46.795" lon="1.53669">
        <ele>132.2</ele>
        <time>2026-03-14T08:29:20Z</time>
      </trkpt>
      <trkpt lat="46.79511" lon="1.53587">
        <ele>132.4</ele>
        <time>2026-03-14T08:29:29Z</time>
      </trkpt>
      <trkpt lat="46.79514" lon="1.53569">
        <ele>132.6</ele>
        <time>2026-03-14T08:29:31Z</time>
      </trkpt>
      <trkpt lat="46.79524" lon="1.53491">
        <ele>132.6</ele>
        <time>2026-03-14T08:29:39Z</time>
      </trkpt>
      <trkpt lat="46.79526" lon="1.53481">
        <ele>132.6</ele>
        <time>2026-03-14T08:29:40Z</time>
      </trkpt>
      <trkpt lat="46.79537" lon="1.53401">
        <ele>132.2</ele>
        <time>2026-03-14T08:29:48Z</time>
      </trkpt>
      <trkpt lat="46.79539" lon="1.53381">
        <ele>132.2</ele>
        <time>2026-03-14T08:29:50Z</time>
      </trkpt>
      <trkpt lat="46.79551" lon="1.53296">
        <ele>132.2</ele>
        <time>2026-03-14T08:29:59Z</time>
      </trkpt>
      <trkpt lat="46.79563" lon="1.53211">
        <ele>132</ele>
        <time>2026-03-14T08:30:08Z</time>
      </trkpt>
      <trkpt lat="46.79566" lon="1.53192">
        <ele>132</ele>
        <time>2026-03-14T08:30:10Z</time>
      </trkpt>
      <trkpt lat="46.79573" lon="1.53146">
        <ele>131.6</ele>
        <time>2026-03-14T08:30:15Z</time>
      </trkpt>
      <trkpt lat="46.79581" lon="1.53089">
        <ele>131.6</ele>
        <time>2026-03-14T08:30:21Z</time>
      </trkpt>
      <trkpt lat="46.79594" lon="1.53004">
        <ele>131.4</ele>
        <time>2026-03-14T08:30:30Z</time>
      </trkpt>
      <trkpt lat="46.79595" lon="1.52995">
        <ele>131.4</ele>
        <time>2026-03-14T08:30:31Z</time>
      </trkpt>
      <trkpt lat="46.79606" lon="1.52917">
        <ele>131.6</ele>
        <time>2026-03-14T08:30:39Z</time>
      </trkpt>
      <trkpt lat="46.7961" lon="1.52888">
        <ele>131.6</ele>
        <time>2026-03-14T08:30:42Z</time>
      </trkpt>
      <trkpt lat="46.79622" lon="1.52803">
        <ele>131.6</ele>
        <time>2026-03-14T08:30:51Z</time>
      </trkpt>
      <trkpt lat="46.79625" lon="1.52784">
        <ele>131.6</ele>
        <time>2026-03-14T08:30:53Z</time>
      </trkpt>
      <trkpt lat="46.79637" lon="1.52699">
        <ele>131.4</ele>
        <time>2026-03-14T08:31:02Z</time>
      </trkpt>
      <trkpt lat="46.79641" lon="1.52671">
        <ele>131.4</ele>
        <time>2026-03-14T08:31:05Z</time>
      </trkpt>
      <trkpt lat="46.79653" lon="1.52585">
        <ele>131.2</ele>
        <time>2026-03-14T08:31:14Z</time>
      </trkpt>
      <trkpt lat="46.79655" lon="1.52566">
        <ele>131.2</ele>
        <time>2026-03-14T08:31:16Z</time>
      </trkpt>
      <trkpt lat="46.79667" lon="1.52487">
        <ele>130.8</ele>
        <time>2026-03-14T08:31:24Z</time>
      </trkpt>
      <trkpt lat="46.7967" lon="1.52467">
        <ele>130.8</ele>
        <time>2026-03-14T08:31:26Z</time>
      </trkpt>
      <trkpt lat="46.79681" lon="1.52389">
        <ele>130.6</ele>
        <time>2026-03-14T08:31:34Z</time>
      </trkpt>
      <trkpt lat="46.79685" lon="1.5236">
        <ele>130.4</ele>
        <time>2026-03-14T08:31:37Z</time>
      </trkpt>
      <trkpt lat="46.79697" lon="1.52272">
        <ele>130.4</ele>
        <time>2026-03-14T08:31:46Z</time>
      </trkpt>
      <trkpt lat="46.79701" lon="1.52243">
        <ele>130.4</ele>
        <time>2026-03-14T08:31:49Z</time>
      </trkpt>
      <trkpt lat="46.79712" lon="1.52166">
        <ele>130</ele>
        <time>2026-03-14T08:31:57Z</time>
      </trkpt>
      <trkpt lat="46.79715" lon="1.52147">
        <ele>129.8</ele>
        <time>2026-03-14T08:31:59Z</time>
      </trkpt>
      <trkpt lat="46.79716" lon="1.52137">
        <ele>129.6</ele>
        <time>2026-03-14T08:32:00Z</time>
      </trkpt>
      <trkpt lat="46.79725" lon="1.52059">
        <ele>129.2</ele>
        <time>2026-03-14T08:32:08Z</time>
      </trkpt>
      <trkpt lat="46.79726" lon="1.52039">
        <ele>129</ele>
        <time>2026-03-14T08:32:10Z</time>
      </trkpt>
      <trkpt lat="46.79726" lon="1.52018">
        <ele>128.8</ele>
        <time>2026-03-14T08:32:12Z</time>
      </trkpt>
      <trkpt lat="46.79726" lon="1.51936">
        <ele>127.8</ele>
        <time>2026-03-14T08:32:20Z</time>
      </trkpt>
      <trkpt lat="46.79726" lon="1.51925">
        <ele>127.8</ele>
        <time>2026-03-14T08:32:21Z</time>
      </trkpt>
      <trkpt lat="46.79719" lon="1.51844">
        <ele>126.8</ele>
        <time>2026-03-14T08:32:29Z</time>
      </trkpt>
      <trkpt lat="46.79716" lon="1.51824">
        <ele>126.6</ele>
        <time>2026-03-14T08:32:31Z</time>
      </trkpt>
      <trkpt lat="46.79706" lon="1.51761">
        <ele>125.6</ele>
        <time>2026-03-14T08:32:37Z</time>
      </trkpt>
      <trkpt lat="46.79697" lon="1.51718">
        <ele>124.6</ele>
        <time>2026-03-14T08:32:41Z</time>
      </trkpt>
      <trkpt lat="46.79695" lon="1.51707">
        <ele>124.4</ele>
        <time>2026-03-14T08:32:42Z</time>
      </trkpt>
      <trkpt lat="46.79682" lon="1.51651">
        <ele>123.4</ele>
        <time>2026-03-14T08:32:47Z</time>
      </trkpt>
      <trkpt lat="46.79671" lon="1.51603">
        <ele>122.2</ele>
        <time>2026-03-14T08:32:51Z</time>
      </trkpt>
      <trkpt lat="46.79668" lon="1.51591">
        <ele>122</ele>
        <time>2026-03-14T08:32:52Z</time>
      </trkpt>
      <trkpt lat="46.79663" lon="1.51568">
        <ele>121.2</ele>
        <time>2026-03-14T08:32:54Z</time>
      </trkpt>
      <trkpt lat="46.79655" lon="1.51535">
        <ele>120.2</ele>
        <time>2026-03-14T08:32:57Z</time>
      </trkpt>
      <trkpt lat="46.79648" lon="1.51503">
        <ele>119.6</ele>
        <time>2026-03-14T08:33:00Z</time>
      </trkpt>
      <trkpt lat="46.7963" lon="1.51424">
        <ele>119.4</ele>
        <time>2026-03-14T08:33:08Z</time>
      </trkpt>
      <trkpt lat="46.79612" lon="1.5134">
        <ele>120</ele>
        <time>2026-03-14T08:33:17Z</time>
      </trkpt>
      <trkpt lat="46.7961" lon="1.51331">
        <ele>120</ele>
        <time>2026-03-14T08:33:18Z</time>
      </trkpt>
      <trkpt lat="46.79598" lon="1.51277">
        <ele>120.4</ele>
        <time>2026-03-14T08:33:24Z</time>
      </trkpt>
      <trkpt lat="46.79578" lon="1.51194">
        <ele>120.6</ele>
        <time>2026-03-14T08:33:33Z</time>
      </trkpt>
      <trkpt lat="46.79576" lon="1.51184">
        <ele>120.6</ele>
        <time>2026-03-14T08:33:34Z</time>
      </trkpt>
      <trkpt lat="46.79558" lon="1.51103">
        <ele>119.8</ele>
        <time>2026-03-14T08:33:42Z</time>
      </trkpt>
      <trkpt lat="46.79545" lon="1.51048">
        <ele>119</ele>
        <time>2026-03-14T08:33:47Z</time>
      </trkpt>
      <trkpt lat="46.79537" lon="1.51014">
        <ele>118.4</ele>
        <time>2026-03-14T08:33:50Z</time>
      </trkpt>
      <trkpt lat="46.79529" lon="1.5098">
        <ele>118</ele>
        <time>2026-03-14T08:33:53Z</time>
      </trkpt>
      <trkpt lat="46.79516" lon="1.50927">
        <ele>117.4</ele>
        <time>2026-03-14T08:33:58Z</time>
      </trkpt>
      <trkpt lat="46.79498" lon="1.50847">
        <ele>117.2</ele>
        <time>2026-03-14T08:34:06Z</time>
      </trkpt>
      <trkpt lat="46.79496" lon="1.50838">
        <ele>117.2</ele>
        <time>2026-03-14T08:34:07Z</time>
      </trkpt>
      <trkpt lat="46.79483" lon="1.50784">
        <ele>117.8</ele>
        <time>2026-03-14T08:34:13Z</time>
      </trkpt>
      <trkpt lat="46.79466" lon="1.50703">
        <ele>118</ele>
        <time>2026-03-14T08:34:22Z</time>
      </trkpt>
      <trkpt lat="46.79465" lon="1.50694">
        <ele>118</ele>
        <time>2026-03-14T08:34:23Z</time>
      </trkpt>
      <trkpt lat="46.79462" lon="1.50658">
        <ele>117.8</ele>
        <time>2026-03-14T08:34:27Z</time>
      </trkpt>
      <trkpt lat="46.79462" lon="1.50641">
        <ele>117.8</ele>
        <time>2026-03-14T08:34:29Z</time>
      </trkpt>
      <trkpt lat="46.79465" lon="1.50585">
        <ele>118.4</ele>
        <time>2026-03-14T08:34:36Z</time>
      </trkpt>
      <trkpt lat="46.79466" lon="1.50568">
        <ele>119.2</ele>
        <time>2026-03-14T08:34:38Z</time>
      </trkpt>
      <trkpt lat="46.79468" lon="1.50536">
        <ele>120.2</ele>
        <time>2026-03-14T08:34:42Z</time>
      </trkpt>
      <trkpt lat="46.79469" lon="1.50529">
        <ele>120.6</ele>
        <time>2026-03-14T08:34:43Z</time>
      </trkpt>
      <trkpt lat="46.79472" lon="1.50499">
        <ele>121.4</ele>
        <time>2026-03-14T08:34:47Z</time>
      </trkpt>
      <trkpt lat="46.79472" lon="1.50491">
        <ele>121.8</ele>
        <time>2026-03-14T08:34:48Z</time>
      </trkpt>
      <trkpt lat="46.79476" lon="1.50454">
        <ele>122.6</ele>
        <time>2026-03-14T08:34:53Z</time>
      </trkpt>
      <trkpt lat="46.79477" lon="1.50446">
        <ele>122.8</ele>
        <time>2026-03-14T08:34:54Z</time>
      </trkpt>
      <trkpt lat="46.79477" lon="1.50438">
        <ele>123</ele>
        <time>2026-03-14T08:34:55Z</time>
      </trkpt>
      <trkpt lat="46.7948" lon="1.50396">
        <ele>123.8</ele>
        <time>2026-03-14T08:35:00Z</time>
      </trkpt>
      <trkpt lat="46.79482" lon="1.50379">
        <ele>124</ele>
        <time>2026-03-14T08:35:02Z</time>
      </trkpt>
      <trkpt lat="46.79487" lon="1.5031">
        <ele>125</ele>
        <time>2026-03-14T08:35:10Z</time>
      </trkpt>
      <trkpt lat="46.79493" lon="1.50235">
        <ele>125.6</ele>
        <time>2026-03-14T08:35:19Z</time>
      </trkpt>
      <trkpt lat="46.79494" lon="1.50211">
        <ele>126</ele>
        <time>2026-03-14T08:35:22Z</time>
      </trkpt>
      <trkpt lat="46.79498" lon="1.50166">
        <ele>126.8</ele>
        <time>2026-03-14T08:35:28Z</time>
      </trkpt>
      <trkpt lat="46.79499" lon="1.5015">
        <ele>127.2</ele>
        <time>2026-03-14T08:35:30Z</time>
      </trkpt>
      <trkpt lat="46.79502" lon="1.50109">
        <ele>127.4</ele>
        <time>2026-03-14T08:35:35Z</time>
      </trkpt>
      <trkpt lat="46.79508" lon="1.50033">
        <ele>128.2</ele>
        <time>2026-03-14T08:35:44Z</time>
      </trkpt>
      <trkpt lat="46.79515" lon="1.49946">
        <ele>127.8</ele>
        <time>2026-03-14T08:35:53Z</time>
      </trkpt>
      <trkpt lat="46.79521" lon="1.49864">
        <ele>127.2</ele>
        <time>2026-03-14T08:36:01Z</time>
      </trkpt>
      <trkpt lat="46.79521" lon="1.49856">
        <ele>127.2</ele>
        <time>2026-03-14T08:36:02Z</time>
      </trkpt>
      <trkpt lat="46.79522" lon="1.49845">
        <ele>127</ele>
        <time>2026-03-14T08:36:03Z</time>
      </trkpt>
      <trkpt lat="46.79523" lon="1.49765">
        <ele>125.6</ele>
        <time>2026-03-14T08:36:10Z</time>
      </trkpt>
      <trkpt lat="46.79523" lon="1.4975">
        <ele>125.4</ele>
        <time>2026-03-14T08:36:11Z</time>
      </trkpt>
      <trkpt lat="46.79522" lon="1.4971">
        <ele>124.4</ele>
        <time>2026-03-14T08:36:14Z</time>
      </trkpt>
      <trkpt lat="46.79521" lon="1.49668">
        <ele>123</ele>
        <time>2026-03-14T08:36:17Z</time>
      </trkpt>
      <trkpt lat="46.79521" lon="1.49656">
        <ele>122.4</ele>
        <time>2026-03-14T08:36:18Z</time>
      </trkpt>
      <trkpt lat="46.7952" lon="1.49628">
        <ele>121.4</ele>
        <time>2026-03-14T08:36:20Z</time>
      </trkpt>
      <trkpt lat="46.7952" lon="1.49585">
        <ele>120</ele>
        <time>2026-03-14T08:36:23Z</time>
      </trkpt>
      <trkpt lat="46.79519" lon="1.49558">
        <ele>119.4</ele>
        <time>2026-03-14T08:36:25Z</time>
      </trkpt>
      <trkpt lat="46.79519" lon="1.49529">
        <ele>118.6</ele>
        <time>2026-03-14T08:36:27Z</time>
      </trkpt>
      <trkpt lat="46.79517" lon="1.49479">
        <ele>117.8</ele>
        <time>2026-03-14T08:36:31Z</time>
      </trkpt>
      <trkpt lat="46.79516" lon="1.49458">
        <ele>117.4</ele>
        <time>2026-03-14T08:36:33Z</time>
      </trkpt>
      <trkpt lat="46.79516" lon="1.49434">
        <ele>117.2</ele>
        <time>2026-03-14T08:36:35Z</time>
      </trkpt>
      <trkpt lat="46.79515" lon="1.49355">
        <ele>117.2</ele>
        <time>2026-03-14T08:36:42Z</time>
      </trkpt>
      <trkpt lat="46.79514" lon="1.49278">
        <ele>117.2</ele>
        <time>2026-03-14T08:36:49Z</time>
      </trkpt>
      <trkpt lat="46.79512" lon="1.49208">
        <ele>117.4</ele>
        <time>2026-03-14T08:36:56Z</time>
      </trkpt>
      <trkpt lat="46.7951" lon="1.49128">
        <ele>117.8</ele>
        <time>2026-03-14T08:37:04Z</time>
      </trkpt>
      <trkpt lat="46.7951" lon="1.49047">
        <ele>117.8</ele>
        <time>2026-03-14T08:37:12Z</time>
      </trkpt>
      <trkpt lat="46.7951" lon="1.49037">
        <ele>117.8</ele>
        <time>2026-03-14T08:37:13Z</time>
      </trkpt>
      <trkpt lat="46.79508" lon="1.48957">
        <ele>117.6</ele>
        <time>2026-03-14T08:37:21Z</time>
      </trkpt>
      <trkpt lat="46.79508" lon="1.48937">
        <ele>117.6</ele>
        <time>2026-03-14T08:37:23Z</time>
      </trkpt>
      <trkpt lat="46.79501" lon="1.48872">
        <ele>117.2</ele>
        <time>2026-03-14T08:37:30Z</time>
      </trkpt>
      <trkpt lat="46.79499" lon="1.48857">
        <ele>117.2</ele>
        <time>2026-03-14T08:37:32Z</time>
      </trkpt>
      <trkpt lat="46.79499" lon="1.48841">
        <ele>117</ele>
        <time>2026-03-14T08:37:35Z</time>
      </trkpt>
      <trkpt lat="46.79493" lon="1.48823">
        <ele>116.8</ele>
        <time>2026-03-14T08:37:40Z</time>
      </trkpt>
      <trkpt lat="46.7949" lon="1.48811">
        <ele>116.4</ele>
        <time>2026-03-14T08:37:45Z</time>
      </trkpt>
      <trkpt lat="46.7949" lon="1.48811">
        <ele>116.4</ele>
        <time>2026-03-14T08:37:47Z</time>
      </trkpt>
      <trkpt lat="46.79486" lon="1.48804">
        <ele>115.4</ele>
        <time>2026-03-14T08:51:09Z</time>
      </trkpt>
      <trkpt lat="46.79485" lon="1.488">
        <ele>115.4</ele>
        <time>2026-03-14T08:51:10Z</time>
      </trkpt>
      <trkpt lat="46.79476" lon="1.48788">
        <ele>115.4</ele>
        <time>2026-03-14T08:51:14Z</time>
      </trkpt>
      <trkpt lat="46.79459" lon="1.48769">
        <ele>115.4</ele>
        <time>2026-03-14T08:51:19Z</time>
      </trkpt>
      <trkpt lat="46.79434" lon="1.48733">
        <ele>114.8</ele>
        <time>2026-03-14T08:51:25Z</time>
      </trkpt>
      <trkpt lat="46.79428" lon="1.48727">
        <ele>114.8</ele>
        <time>2026-03-14T08:51:26Z</time>
      </trkpt>
      <trkpt lat="46.79404" lon="1.4871">
        <ele>114.6</ele>
        <time>2026-03-14T08:51:30Z</time>
      </trkpt>
      <trkpt lat="46.79375" lon="1.48697">
        <ele>114</ele>
        <time>2026-03-14T08:51:34Z</time>
      </trkpt>
      <trkpt lat="46.79361" lon="1.48693">
        <ele>113.6</ele>
        <time>2026-03-14T08:51:36Z</time>
      </trkpt>
      <trkpt lat="46.79323" lon="1.48684">
        <ele>113</ele>
        <time>2026-03-14T08:51:41Z</time>
      </trkpt>
      <trkpt lat="46.79298" lon="1.4868">
        <ele>112.6</ele>
        <time>2026-03-14T08:51:44Z</time>
      </trkpt>
      <trkpt lat="46.79275" lon="1.48678">
        <ele>112.2</ele>
        <time>2026-03-14T08:51:47Z</time>
      </trkpt>
      <trkpt lat="46.79218" lon="1.48668">
        <ele>111.4</ele>
        <time>2026-03-14T08:51:55Z</time>
      </trkpt>
      <trkpt lat="46.79179" lon="1.48654">
        <ele>111</ele>
        <time>2026-03-14T08:52:00Z</time>
      </trkpt>
      <trkpt lat="46.79174" lon="1.48651">
        <ele>111</ele>
        <time>2026-03-14T08:52:01Z</time>
      </trkpt>
      <trkpt lat="46.79127" lon="1.48616">
        <ele>110.4</ele>
        <time>2026-03-14T08:52:08Z</time>
      </trkpt>
      <trkpt lat="46.79094" lon="1.48578">
        <ele>110.2</ele>
        <time>2026-03-14T08:52:14Z</time>
      </trkpt>
      <trkpt lat="46.79089" lon="1.48571">
        <ele>110.2</ele>
        <time>2026-03-14T08:52:15Z</time>
      </trkpt>
      <trkpt lat="46.79072" lon="1.4854">
        <ele>110.8</ele>
        <time>2026-03-14T08:52:19Z</time>
      </trkpt>
      <trkpt lat="46.79062" lon="1.48518">
        <ele>111</ele>
        <time>2026-03-14T08:52:22Z</time>
      </trkpt>
      <trkpt lat="46.79037" lon="1.4844">
        <ele>111.6</ele>
        <time>2026-03-14T08:52:31Z</time>
      </trkpt>
      <trkpt lat="46.79034" lon="1.48431">
        <ele>111.6</ele>
        <time>2026-03-14T08:52:32Z</time>
      </trkpt>
      <trkpt lat="46.79012" lon="1.48354">
        <ele>111.2</ele>
        <time>2026-03-14T08:52:40Z</time>
      </trkpt>
      <trkpt lat="46.79006" lon="1.48334">
        <ele>111</ele>
        <time>2026-03-14T08:52:42Z</time>
      </trkpt>
      <trkpt lat="46.78988" lon="1.48269">
        <ele>110.6</ele>
        <time>2026-03-14T08:52:49Z</time>
      </trkpt>
      <trkpt lat="46.78966" lon="1.48195">
        <ele>110.6</ele>
        <time>2026-03-14T08:52:57Z</time>
      </trkpt>
      <trkpt lat="46.78948" lon="1.48122">
        <ele>110.8</ele>
        <time>2026-03-14T08:53:05Z</time>
      </trkpt>
      <trkpt lat="46.78946" lon="1.48112">
        <ele>110.8</ele>
        <time>2026-03-14T08:53:06Z</time>
      </trkpt>
      <trkpt lat="46.78942" lon="1.48084">
        <ele>111</ele>
        <time>2026-03-14T08:53:09Z</time>
      </trkpt>
      <trkpt lat="46.78939" lon="1.48046">
        <ele>111</ele>
        <time>2026-03-14T08:53:13Z</time>
      </trkpt>
      <trkpt lat="46.78942" lon="1.4797">
        <ele>111.4</ele>
        <time>2026-03-14T08:53:21Z</time>
      </trkpt>
      <trkpt lat="46.78952" lon="1.47901">
        <ele>111.8</ele>
        <time>2026-03-14T08:53:29Z</time>
      </trkpt>
      <trkpt lat="46.78954" lon="1.47892">
        <ele>111.8</ele>
        <time>2026-03-14T08:53:30Z</time>
      </trkpt>
      <trkpt lat="46.78968" lon="1.47842">
        <ele>112.4</ele>
        <time>2026-03-14T08:53:36Z</time>
      </trkpt>
      <trkpt lat="46.78994" lon="1.47767">
        <ele>112.8</ele>
        <time>2026-03-14T08:53:45Z</time>
      </trkpt>
      <trkpt lat="46.79" lon="1.4775">
        <ele>112.8</ele>
        <time>2026-03-14T08:53:47Z</time>
      </trkpt>
      <trkpt lat="46.79014" lon="1.47709">
        <ele>113</ele>
        <time>2026-03-14T08:53:52Z</time>
      </trkpt>
      <trkpt lat="46.79025" lon="1.47677">
        <ele>113.2</ele>
        <time>2026-03-14T08:53:56Z</time>
      </trkpt>
      <trkpt lat="46.79046" lon="1.47613">
        <ele>113.8</ele>
        <time>2026-03-14T08:54:04Z</time>
      </trkpt>
      <trkpt lat="46.79067" lon="1.4755">
        <ele>113.8</ele>
        <time>2026-03-14T08:54:11Z</time>
      </trkpt>
      <trkpt lat="46.7909" lon="1.47477">
        <ele>112</ele>
        <time>2026-03-14T08:54:18Z</time>
      </trkpt>
      <trkpt lat="46.79093" lon="1.47467">
        <ele>111.8</ele>
        <time>2026-03-14T08:54:19Z</time>
      </trkpt>
      <trkpt lat="46.79097" lon="1.47457">
        <ele>111.6</ele>
        <time>2026-03-14T08:54:20Z</time>
      </trkpt>
      <trkpt lat="46.79109" lon="1.47418">
        <ele>110.6</ele>
        <time>2026-03-14T08:54:24Z</time>
      </trkpt>
      <trkpt lat="46.7912" lon="1.47383">
        <ele>110.4</ele>
        <time>2026-03-14T08:54:28Z</time>
      </trkpt>
      <trkpt lat="46.79136" lon="1.47324">
        <ele>111.2</ele>
        <time>2026-03-14T08:54:35Z</time>
      </trkpt>
      <trkpt lat="46.7914" lon="1.47307">
        <ele>111.8</ele>
        <time>2026-03-14T08:54:37Z</time>
      </trkpt>
      <trkpt lat="46.79159" lon="1.4723">
        <ele>112.4</ele>
        <time>2026-03-14T08:54:46Z</time>
      </trkpt>
      <trkpt lat="46.7918" lon="1.4715">
        <ele>112.8</ele>
        <time>2026-03-14T08:54:55Z</time>
      </trkpt>
      <trkpt lat="46.79182" lon="1.4714">
        <ele>112.6</ele>
        <time>2026-03-14T08:54:56Z</time>
      </trkpt>
      <trkpt lat="46.792" lon="1.47065">
        <ele>112.4</ele>
        <time>2026-03-14T08:55:04Z</time>
      </trkpt>
      <trkpt lat="46.79209" lon="1.46993">
        <ele>112.2</ele>
        <time>2026-03-14T08:55:11Z</time>
      </trkpt>
      <trkpt lat="46.7921" lon="1.46982">
        <ele>112</ele>
        <time>2026-03-14T08:55:12Z</time>
      </trkpt>
      <trkpt lat="46.79215" lon="1.46929">
        <ele>111.8</ele>
        <time>2026-03-14T08:55:17Z</time>
      </trkpt>
      <trkpt lat="46.79218" lon="1.469">
        <ele>111.6</ele>
        <time>2026-03-14T08:55:20Z</time>
      </trkpt>
      <trkpt lat="46.79226" lon="1.46826">
        <ele>111</ele>
        <time>2026-03-14T08:55:27Z</time>
      </trkpt>
      <trkpt lat="46.79234" lon="1.46742">
        <ele>110.8</ele>
        <time>2026-03-14T08:55:35Z</time>
      </trkpt>
      <trkpt lat="46.79236" lon="1.46723">
        <ele>111</ele>
        <time>2026-03-14T08:55:37Z</time>
      </trkpt>
      <trkpt lat="46.79245" lon="1.46643">
        <ele>111.2</ele>
        <time>2026-03-14T08:55:45Z</time>
      </trkpt>
      <trkpt lat="46.79248" lon="1.4661">
        <ele>111.2</ele>
        <time>2026-03-14T08:55:48Z</time>
      </trkpt>
      <trkpt lat="46.79256" lon="1.46531">
        <ele>111.4</ele>
        <time>2026-03-14T08:55:56Z</time>
      </trkpt>
      <trkpt lat="46.79258" lon="1.46508">
        <ele>111.6</ele>
        <time>2026-03-14T08:55:58Z</time>
      </trkpt>
      <trkpt lat="46.79267" lon="1.46427">
        <ele>111.8</ele>
        <time>2026-03-14T08:56:06Z</time>
      </trkpt>
      <trkpt lat="46.79269" lon="1.46414">
        <ele>111.8</ele>
        <time>2026-03-14T08:56:07Z</time>
      </trkpt>
      <trkpt lat="46.79278" lon="1.46324">
        <ele>111.2</ele>
        <time>2026-03-14T08:56:15Z</time>
      </trkpt>
      <trkpt lat="46.7928" lon="1.463">
        <ele>110.8</ele>
        <time>2026-03-14T08:56:17Z</time>
      </trkpt>
      <trkpt lat="46.79283" lon="1.4628">
        <ele>110.6</ele>
        <time>2026-03-14T08:56:19Z</time>
      </trkpt>
      <trkpt lat="46.79291" lon="1.46197">
        <ele>109.8</ele>
        <time>2026-03-14T08:56:26Z</time>
      </trkpt>
      <trkpt lat="46.79293" lon="1.46177">
        <ele>109.6</ele>
        <time>2026-03-14T08:56:28Z</time>
      </trkpt>
      <trkpt lat="46.79294" lon="1.46164">
        <ele>109.4</ele>
        <time>2026-03-14T08:56:29Z</time>
      </trkpt>
      <trkpt lat="46.79302" lon="1.4609">
        <ele>109.2</ele>
        <time>2026-03-14T08:56:36Z</time>
      </trkpt>
      <trkpt lat="46.7931" lon="1.46012">
        <ele>108.8</ele>
        <time>2026-03-14T08:56:43Z</time>
      </trkpt>
      <trkpt lat="46.79314" lon="1.45971">
        <ele>108.8</ele>
        <time>2026-03-14T08:56:47Z</time>
      </trkpt>
      <trkpt lat="46.79322" lon="1.45886">
        <ele>108.6</ele>
        <time>2026-03-14T08:56:55Z</time>
      </trkpt>
      <trkpt lat="46.79324" lon="1.45864">
        <ele>108.6</ele>
        <time>2026-03-14T08:56:57Z</time>
      </trkpt>
      <trkpt lat="46.79326" lon="1.45854">
        <ele>108.6</ele>
        <time>2026-03-14T08:56:58Z</time>
      </trkpt>
      <trkpt lat="46.79332" lon="1.45792">
        <ele>108.4</ele>
        <time>2026-03-14T08:57:04Z</time>
      </trkpt>
      <trkpt lat="46.7934" lon="1.45709">
        <ele>108.2</ele>
        <time>2026-03-14T08:57:12Z</time>
      </trkpt>
      <trkpt lat="46.79349" lon="1.45625">
        <ele>107.8</ele>
        <time>2026-03-14T08:57:20Z</time>
      </trkpt>
      <trkpt lat="46.7935" lon="1.45614">
        <ele>107.8</ele>
        <time>2026-03-14T08:57:21Z</time>
      </trkpt>
      <trkpt lat="46.79358" lon="1.45543">
        <ele>107.4</ele>
        <time>2026-03-14T08:57:28Z</time>
      </trkpt>
      <trkpt lat="46.7936" lon="1.4552">
        <ele>107.4</ele>
        <time>2026-03-14T08:57:30Z</time>
      </trkpt>
      <trkpt lat="46.79368" lon="1.45442">
        <ele>107.6</ele>
        <time>2026-03-14T08:57:38Z</time>
      </trkpt>
      <trkpt lat="46.79369" lon="1.4543">
        <ele>107.6</ele>
        <time>2026-03-14T08:57:39Z</time>
      </trkpt>
      <trkpt lat="46.79371" lon="1.45412">
        <ele>107.6</ele>
        <time>2026-03-14T08:57:41Z</time>
      </trkpt>
      <trkpt lat="46.79377" lon="1.45362">
        <ele>107.6</ele>
        <time>2026-03-14T08:57:46Z</time>
      </trkpt>
      <trkpt lat="46.79384" lon="1.45284">
        <ele>107.8</ele>
        <time>2026-03-14T08:57:54Z</time>
      </trkpt>
      <trkpt lat="46.79384" lon="1.45275">
        <ele>108</ele>
        <time>2026-03-14T08:57:55Z</time>
      </trkpt>
      <trkpt lat="46.79387" lon="1.4525">
        <ele>108.4</ele>
        <time>2026-03-14T08:57:58Z</time>
      </trkpt>
      <trkpt lat="46.79388" lon="1.45242">
        <ele>108.6</ele>
        <time>2026-03-14T08:57:59Z</time>
      </trkpt>
      <trkpt lat="46.79389" lon="1.45228">
        <ele>109.2</ele>
        <time>2026-03-14T08:58:01Z</time>
      </trkpt>
      <trkpt lat="46.79392" lon="1.45202">
        <ele>109.6</ele>
        <time>2026-03-14T08:58:04Z</time>
      </trkpt>
      <trkpt lat="46.79397" lon="1.4517">
        <ele>111</ele>
        <time>2026-03-14T08:58:08Z</time>
      </trkpt>
      <trkpt lat="46.79407" lon="1.45132">
        <ele>112.2</ele>
        <time>2026-03-14T08:58:13Z</time>
      </trkpt>
      <trkpt lat="46.79414" lon="1.45108">
        <ele>113</ele>
        <time>2026-03-14T08:58:16Z</time>
      </trkpt>
      <trkpt lat="46.7942" lon="1.45093">
        <ele>113.2</ele>
        <time>2026-03-14T08:58:18Z</time>
      </trkpt>
      <trkpt lat="46.79439" lon="1.45047">
        <ele>114</ele>
        <time>2026-03-14T08:58:24Z</time>
      </trkpt>
      <trkpt lat="46.79472" lon="1.4498">
        <ele>114.2</ele>
        <time>2026-03-14T08:58:32Z</time>
      </trkpt>
      <trkpt lat="46.79476" lon="1.44973">
        <ele>113.8</ele>
        <time>2026-03-14T08:58:33Z</time>
      </trkpt>
      <trkpt lat="46.79508" lon="1.44905">
        <ele>112.6</ele>
        <time>2026-03-14T08:58:40Z</time>
      </trkpt>
      <trkpt lat="46.79516" lon="1.44889">
        <ele>112.2</ele>
        <time>2026-03-14T08:58:42Z</time>
      </trkpt>
      <trkpt lat="46.79531" lon="1.44858">
        <ele>110.8</ele>
        <time>2026-03-14T08:58:45Z</time>
      </trkpt>
      <trkpt lat="46.79545" lon="1.4483">
        <ele>109.6</ele>
        <time>2026-03-14T08:58:48Z</time>
      </trkpt>
      <trkpt lat="46.79562" lon="1.44794">
        <ele>108.6</ele>
        <time>2026-03-14T08:58:52Z</time>
      </trkpt>
      <trkpt lat="46.79588" lon="1.4474">
        <ele>107.6</ele>
        <time>2026-03-14T08:58:58Z</time>
      </trkpt>
      <trkpt lat="46.79601" lon="1.44713">
        <ele>107.4</ele>
        <time>2026-03-14T08:59:01Z</time>
      </trkpt>
      <trkpt lat="46.79634" lon="1.44647">
        <ele>107</ele>
        <time>2026-03-14T08:59:09Z</time>
      </trkpt>
      <trkpt lat="46.79642" lon="1.44629">
        <ele>107</ele>
        <time>2026-03-14T08:59:11Z</time>
      </trkpt>
      <trkpt lat="46.79677" lon="1.44557">
        <ele>106.8</ele>
        <time>2026-03-14T08:59:20Z</time>
      </trkpt>
      <trkpt lat="46.7969" lon="1.44532">
        <ele>106.8</ele>
        <time>2026-03-14T08:59:23Z</time>
      </trkpt>
      <trkpt lat="46.7972" lon="1.44471">
        <ele>106.4</ele>
        <time>2026-03-14T08:59:30Z</time>
      </trkpt>
      <trkpt lat="46.79726" lon="1.44461">
        <ele>106.2</ele>
        <time>2026-03-14T08:59:31Z</time>
      </trkpt>
      <trkpt lat="46.79757" lon="1.44394">
        <ele>105.6</ele>
        <time>2026-03-14T08:59:39Z</time>
      </trkpt>
      <trkpt lat="46.79769" lon="1.44369">
        <ele>105.8</ele>
        <time>2026-03-14T08:59:42Z</time>
      </trkpt>
      <trkpt lat="46.79801" lon="1.44304">
        <ele>106</ele>
        <time>2026-03-14T08:59:50Z</time>
      </trkpt>
      <trkpt lat="46.79816" lon="1.44272">
        <ele>106</ele>
        <time>2026-03-14T08:59:54Z</time>
      </trkpt>
      <trkpt lat="46.79844" lon="1.44218">
        <ele>106</ele>
        <time>2026-03-14T09:00:01Z</time>
      </trkpt>
      <trkpt lat="46.79879" lon="1.4415">
        <ele>106.2</ele>
        <time>2026-03-14T09:00:10Z</time>
      </trkpt>
      <trkpt lat="46.7991" lon="1.44078">
        <ele>106</ele>
        <time>2026-03-14T09:00:19Z</time>
      </trkpt>
      <trkpt lat="46.79927" lon="1.4401">
        <ele>105.8</ele>
        <time>2026-03-14T09:00:26Z</time>
      </trkpt>
      <trkpt lat="46.79931" lon="1.43969">
        <ele>105.4</ele>
        <time>2026-03-14T09:00:30Z</time>
      </trkpt>
      <trkpt lat="46.79931" lon="1.43948">
        <ele>105.2</ele>
        <time>2026-03-14T09:00:32Z</time>
      </trkpt>
      <trkpt lat="46.79925" lon="1.43878">
        <ele>104.8</ele>
        <time>2026-03-14T09:00:39Z</time>
      </trkpt>
      <trkpt lat="46.79912" lon="1.43793">
        <ele>105</ele>
        <time>2026-03-14T09:00:48Z</time>
      </trkpt>
      <trkpt lat="46.7991" lon="1.43781">
        <ele>105</ele>
        <time>2026-03-14T09:00:49Z</time>
      </trkpt>
      <trkpt lat="46.79895" lon="1.43694">
        <ele>105.2</ele>
        <time>2026-03-14T09:00:58Z</time>
      </trkpt>
      <trkpt lat="46.79889" lon="1.43653">
        <ele>105</ele>
        <time>2026-03-14T09:01:02Z</time>
      </trkpt>
      <trkpt lat="46.79876" lon="1.43572">
        <ele>104.8</ele>
        <time>2026-03-14T09:01:10Z</time>
      </trkpt>
      <trkpt lat="46.79872" lon="1.4355">
        <ele>104.8</ele>
        <time>2026-03-14T09:01:12Z</time>
      </trkpt>
      <trkpt lat="46.79861" lon="1.43477">
        <ele>105</ele>
        <time>2026-03-14T09:01:19Z</time>
      </trkpt>
      <trkpt lat="46.79847" lon="1.43393">
        <ele>104.8</ele>
        <time>2026-03-14T09:01:27Z</time>
      </trkpt>
      <trkpt lat="46.79837" lon="1.43332">
        <ele>104.6</ele>
        <time>2026-03-14T09:01:33Z</time>
      </trkpt>
      <trkpt lat="46.79823" lon="1.43245">
        <ele>104.6</ele>
        <time>2026-03-14T09:01:41Z</time>
      </trkpt>
      <trkpt lat="46.79815" lon="1.43194">
        <ele>104.4</ele>
        <time>2026-03-14T09:01:46Z</time>
      </trkpt>
      <trkpt lat="46.79811" lon="1.43172">
        <ele>104.4</ele>
        <time>2026-03-14T09:01:48Z</time>
      </trkpt>
      <trkpt lat="46.79798" lon="1.43091">
        <ele>103.6</ele>
        <time>2026-03-14T09:01:55Z</time>
      </trkpt>
      <trkpt lat="46.79794" lon="1.4307">
        <ele>103.6</ele>
        <time>2026-03-14T09:01:57Z</time>
      </trkpt>
      <trkpt lat="46.79782" lon="1.42991">
        <ele>103.2</ele>
        <time>2026-03-14T09:02:04Z</time>
      </trkpt>
      <trkpt lat="46.79777" lon="1.42962">
        <ele>103.6</ele>
        <time>2026-03-14T09:02:07Z</time>
      </trkpt>
      <trkpt lat="46.79765" lon="1.42881">
        <ele>104</ele>
        <time>2026-03-14T09:02:15Z</time>
      </trkpt>
      <trkpt lat="46.79752" lon="1.42799">
        <ele>104.4</ele>
        <time>2026-03-14T09:02:23Z</time>
      </trkpt>
      <trkpt lat="46.79745" lon="1.42758">
        <ele>104.4</ele>
        <time>2026-03-14T09:02:27Z</time>
      </trkpt>
      <trkpt lat="46.79731" lon="1.42672">
        <ele>104.2</ele>
        <time>2026-03-14T09:02:35Z</time>
      </trkpt>
      <trkpt lat="46.79728" lon="1.42653">
        <ele>104.2</ele>
        <time>2026-03-14T09:02:37Z</time>
      </trkpt>
      <trkpt lat="46.79714" lon="1.42565">
        <ele>103.6</ele>
        <time>2026-03-14T09:02:45Z</time>
      </trkpt>
      <trkpt lat="46.79711" lon="1.42545">
        <ele>103.4</ele>
        <time>2026-03-14T09:02:47Z</time>
      </trkpt>
      <trkpt lat="46.79697" lon="1.42455">
        <ele>103.2</ele>
        <time>2026-03-14T09:02:55Z</time>
      </trkpt>
      <trkpt lat="46.79693" lon="1.42424">
        <ele>103</ele>
        <time>2026-03-14T09:02:58Z</time>
      </trkpt>
      <trkpt lat="46.79684" lon="1.42365">
        <ele>102.4</ele>
        <time>2026-03-14T09:03:03Z</time>
      </trkpt>
      <trkpt lat="46.79672" lon="1.4228">
        <ele>102</ele>
        <time>2026-03-14T09:03:11Z</time>
      </trkpt>
      <trkpt lat="46.79668" lon="1.42215">
        <ele>102.4</ele>
        <time>2026-03-14T09:03:17Z</time>
      </trkpt>
      <trkpt lat="46.79672" lon="1.42135">
        <ele>102.8</ele>
        <time>2026-03-14T09:03:25Z</time>
      </trkpt>
      <trkpt lat="46.79685" lon="1.42066">
        <ele>102.6</ele>
        <time>2026-03-14T09:03:32Z</time>
      </trkpt>
      <trkpt lat="46.79709" lon="1.41986">
        <ele>102.8</ele>
        <time>2026-03-14T09:03:40Z</time>
      </trkpt>
      <trkpt lat="46.79733" lon="1.41919">
        <ele>102.8</ele>
        <time>2026-03-14T09:03:47Z</time>
      </trkpt>
      <trkpt lat="46.79755" lon="1.41853">
        <ele>102.6</ele>
        <time>2026-03-14T09:03:54Z</time>
      </trkpt>
      <trkpt lat="46.79768" lon="1.41816">
        <ele>102.4</ele>
        <time>2026-03-14T09:03:58Z</time>
      </trkpt>
      <trkpt lat="46.79773" lon="1.41796">
        <ele>102.4</ele>
        <time>2026-03-14T09:04:00Z</time>
      </trkpt>
      <trkpt lat="46.79791" lon="1.4173">
        <ele>102.2</ele>
        <time>2026-03-14T09:04:07Z</time>
      </trkpt>
      <trkpt lat="46.79814" lon="1.41654">
        <ele>102.6</ele>
        <time>2026-03-14T09:04:15Z</time>
      </trkpt>
      <trkpt lat="46.7982" lon="1.41636">
        <ele>102.6</ele>
        <time>2026-03-14T09:04:17Z</time>
      </trkpt>
      <trkpt lat="46.79826" lon="1.41603">
        <ele>102.6</ele>
        <time>2026-03-14T09:04:20Z</time>
      </trkpt>
      <trkpt lat="46.79828" lon="1.41595">
        <ele>102.6</ele>
        <time>2026-03-14T09:04:21Z</time>
      </trkpt>
      <trkpt lat="46.79838" lon="1.41564">
        <ele>102.4</ele>
        <time>2026-03-14T09:04:24Z</time>
      </trkpt>
      <trkpt lat="46.7984" lon="1.41556">
        <ele>102.6</ele>
        <time>2026-03-14T09:04:25Z</time>
      </trkpt>
      <trkpt lat="46.79858" lon="1.41499">
        <ele>102.4</ele>
        <time>2026-03-14T09:04:31Z</time>
      </trkpt>
      <trkpt lat="46.79882" lon="1.41436">
        <ele>102.2</ele>
        <time>2026-03-14T09:04:38Z</time>
      </trkpt>
      <trkpt lat="46.79901" lon="1.41374">
        <ele>102.2</ele>
        <time>2026-03-14T09:04:45Z</time>
      </trkpt>
      <trkpt lat="46.79914" lon="1.41325">
        <ele>102.4</ele>
        <time>2026-03-14T09:04:50Z</time>
      </trkpt>
      <trkpt lat="46.79919" lon="1.41307">
        <ele>102.6</ele>
        <time>2026-03-14T09:04:52Z</time>
      </trkpt>
      <trkpt lat="46.79933" lon="1.41242">
        <ele>102.8</ele>
        <time>2026-03-14T09:04:59Z</time>
      </trkpt>
      <trkpt lat="46.7994" lon="1.41192">
        <ele>103</ele>
        <time>2026-03-14T09:05:04Z</time>
      </trkpt>
      <trkpt lat="46.7994" lon="1.41182">
        <ele>103.2</ele>
        <time>2026-03-14T09:05:05Z</time>
      </trkpt>
      <trkpt lat="46.79942" lon="1.41126">
        <ele>103.6</ele>
        <time>2026-03-14T09:05:11Z</time>
      </trkpt>
      <trkpt lat="46.79941" lon="1.41096">
        <ele>103.6</ele>
        <time>2026-03-14T09:05:14Z</time>
      </trkpt>
      <trkpt lat="46.79939" lon="1.41049">
        <ele>103.6</ele>
        <time>2026-03-14T09:05:19Z</time>
      </trkpt>
      <trkpt lat="46.79936" lon="1.40988">
        <ele>103.4</ele>
        <time>2026-03-14T09:05:25Z</time>
      </trkpt>
      <trkpt lat="46.79935" lon="1.40978">
        <ele>103.2</ele>
        <time>2026-03-14T09:05:26Z</time>
      </trkpt>
      <trkpt lat="46.79932" lon="1.40934">
        <ele>103</ele>
        <time>2026-03-14T09:05:30Z</time>
      </trkpt>
      <trkpt lat="46.79931" lon="1.40925">
        <ele>103</ele>
        <time>2026-03-14T09:05:31Z</time>
      </trkpt>
      <trkpt lat="46.79924" lon="1.40858">
        <ele>102.4</ele>
        <time>2026-03-14T09:05:37Z</time>
      </trkpt>
      <trkpt lat="46.79922" lon="1.40845">
        <ele>102.4</ele>
        <time>2026-03-14T09:05:38Z</time>
      </trkpt>
      <trkpt lat="46.79915" lon="1.40763">
        <ele>102</ele>
        <time>2026-03-14T09:05:46Z</time>
      </trkpt>
      <trkpt lat="46.79915" lon="1.40754">
        <ele>102</ele>
        <time>2026-03-14T09:05:47Z</time>
      </trkpt>
      <trkpt lat="46.7991" lon="1.40669">
        <ele>101.6</ele>
        <time>2026-03-14T09:05:55Z</time>
      </trkpt>
      <trkpt lat="46.79909" lon="1.40658">
        <ele>101.6</ele>
        <time>2026-03-14T09:05:56Z</time>
      </trkpt>
      <trkpt lat="46.79906" lon="1.40613">
        <ele>101.4</ele>
        <time>2026-03-14T09:06:00Z</time>
      </trkpt>
      <trkpt lat="46.79903" lon="1.40584">
        <ele>101.4</ele>
        <time>2026-03-14T09:06:03Z</time>
      </trkpt>
      <trkpt lat="46.79895" lon="1.40506">
        <ele>101.2</ele>
        <time>2026-03-14T09:06:10Z</time>
      </trkpt>
      <trkpt lat="46.79887" lon="1.40423">
        <ele>101.2</ele>
        <time>2026-03-14T09:06:18Z</time>
      </trkpt>
      <trkpt lat="46.79881" lon="1.40335">
        <ele>101.2</ele>
        <time>2026-03-14T09:06:26Z</time>
      </trkpt>
      <trkpt lat="46.7988" lon="1.40326">
        <ele>101</ele>
        <time>2026-03-14T09:06:27Z</time>
      </trkpt>
      <trkpt lat="46.79879" lon="1.40269">
        <ele>100.2</ele>
        <time>2026-03-14T09:06:32Z</time>
      </trkpt>
      <trkpt lat="46.7988" lon="1.40256">
        <ele>100.2</ele>
        <time>2026-03-14T09:06:33Z</time>
      </trkpt>
      <trkpt lat="46.7989" lon="1.40184">
        <ele>99.4</ele>
        <time>2026-03-14T09:06:40Z</time>
      </trkpt>
      <trkpt lat="46.79907" lon="1.40107">
        <ele>99.6</ele>
        <time>2026-03-14T09:06:48Z</time>
      </trkpt>
      <trkpt lat="46.79925" lon="1.40032">
        <ele>99.8</ele>
        <time>2026-03-14T09:06:56Z</time>
      </trkpt>
      <trkpt lat="46.79937" lon="1.39986">
        <ele>100</ele>
        <time>2026-03-14T09:07:01Z</time>
      </trkpt>
      <trkpt lat="46.79957" lon="1.39903">
        <ele>100</ele>
        <time>2026-03-14T09:07:10Z</time>
      </trkpt>
      <trkpt lat="46.79964" lon="1.39876">
        <ele>100</ele>
        <time>2026-03-14T09:07:13Z</time>
      </trkpt>
      <trkpt lat="46.79983" lon="1.398">
        <ele>100</ele>
        <time>2026-03-14T09:07:21Z</time>
      </trkpt>
      <trkpt lat="46.79987" lon="1.39782">
        <ele>100</ele>
        <time>2026-03-14T09:07:23Z</time>
      </trkpt>
      <trkpt lat="46.80007" lon="1.39699">
        <ele>100.4</ele>
        <time>2026-03-14T09:07:32Z</time>
      </trkpt>
      <trkpt lat="46.80012" lon="1.39681">
        <ele>100.6</ele>
        <time>2026-03-14T09:07:34Z</time>
      </trkpt>
      <trkpt lat="46.80031" lon="1.396">
        <ele>101.2</ele>
        <time>2026-03-14T09:07:43Z</time>
      </trkpt>
      <trkpt lat="46.80039" lon="1.39572">
        <ele>101.2</ele>
        <time>2026-03-14T09:07:46Z</time>
      </trkpt>
      <trkpt lat="46.80056" lon="1.39519">
        <ele>101.2</ele>
        <time>2026-03-14T09:07:52Z</time>
      </trkpt>
      <trkpt lat="46.80065" lon="1.39492">
        <ele>101.4</ele>
        <time>2026-03-14T09:07:55Z</time>
      </trkpt>
      <trkpt lat="46.80077" lon="1.39455">
        <ele>101.4</ele>
        <time>2026-03-14T09:07:59Z</time>
      </trkpt>
      <trkpt lat="46.80097" lon="1.39381">
        <ele>101.6</ele>
        <time>2026-03-14T09:08:07Z</time>
      </trkpt>
      <trkpt lat="46.80105" lon="1.39354">
        <ele>101.6</ele>
        <time>2026-03-14T09:08:10Z</time>
      </trkpt>
      <trkpt lat="46.80112" lon="1.39326">
        <ele>101.6</ele>
        <time>2026-03-14T09:08:13Z</time>
      </trkpt>
      <trkpt lat="46.8012" lon="1.39287">
        <ele>101.6</ele>
        <time>2026-03-14T09:08:17Z</time>
      </trkpt>
      <trkpt lat="46.80133" lon="1.39201">
        <ele>101.4</ele>
        <time>2026-03-14T09:08:25Z</time>
      </trkpt>
      <trkpt lat="46.80144" lon="1.39118">
        <ele>101</ele>
        <time>2026-03-14T09:08:33Z</time>
      </trkpt>
      <trkpt lat="46.80149" lon="1.39087">
        <ele>100.8</ele>
        <time>2026-03-14T09:08:36Z</time>
      </trkpt>
      <trkpt lat="46.80161" lon="1.39003">
        <ele>100.4</ele>
        <time>2026-03-14T09:08:44Z</time>
      </trkpt>
      <trkpt lat="46.80165" lon="1.38982">
        <ele>100.4</ele>
        <time>2026-03-14T09:08:46Z</time>
      </trkpt>
      <trkpt lat="46.80171" lon="1.38951">
        <ele>100.4</ele>
        <time>2026-03-14T09:08:49Z</time>
      </trkpt>
      <trkpt lat="46.80178" lon="1.38899">
        <ele>100.2</ele>
        <time>2026-03-14T09:08:54Z</time>
      </trkpt>
      <trkpt lat="46.8018" lon="1.38889">
        <ele>100.2</ele>
        <time>2026-03-14T09:08:55Z</time>
      </trkpt>
      <trkpt lat="46.80188" lon="1.38837">
        <ele>100</ele>
        <time>2026-03-14T09:09:00Z</time>
      </trkpt>
      <trkpt lat="46.80194" lon="1.38794">
        <ele>99.8</ele>
        <time>2026-03-14T09:09:04Z</time>
      </trkpt>
      <trkpt lat="46.80204" lon="1.38723">
        <ele>99.4</ele>
        <time>2026-03-14T09:09:11Z</time>
      </trkpt>
      <trkpt lat="46.80213" lon="1.38639">
        <ele>99.2</ele>
        <time>2026-03-14T09:09:19Z</time>
      </trkpt>
      <trkpt lat="46.80214" lon="1.38629">
        <ele>99.2</ele>
        <time>2026-03-14T09:09:20Z</time>
      </trkpt>
      <trkpt lat="46.80212" lon="1.38559">
        <ele>99.2</ele>
        <time>2026-03-14T09:09:27Z</time>
      </trkpt>
      <trkpt lat="46.80206" lon="1.38485">
        <ele>99</ele>
        <time>2026-03-14T09:09:34Z</time>
      </trkpt>
      <trkpt lat="46.80205" lon="1.38473">
        <ele>99</ele>
        <time>2026-03-14T09:09:35Z</time>
      </trkpt>
      <trkpt lat="46.80205" lon="1.38461">
        <ele>98.8</ele>
        <time>2026-03-14T09:09:36Z</time>
      </trkpt>
      <trkpt lat="46.80206" lon="1.38415">
        <ele>98</ele>
        <time>2026-03-14T09:09:40Z</time>
      </trkpt>
      <trkpt lat="46.80206" lon="1.38392">
        <ele>97.6</ele>
        <time>2026-03-14T09:09:42Z</time>
      </trkpt>
      <trkpt lat="46.80207" lon="1.38363">
        <ele>97.2</ele>
        <time>2026-03-14T09:09:45Z</time>
      </trkpt>
      <trkpt lat="46.80209" lon="1.38353">
        <ele>97.2</ele>
        <time>2026-03-14T09:09:46Z</time>
      </trkpt>
      <trkpt lat="46.80211" lon="1.38334">
        <ele>97</ele>
        <time>2026-03-14T09:09:48Z</time>
      </trkpt>
      <trkpt lat="46.80214" lon="1.38303">
        <ele>96.8</ele>
        <time>2026-03-14T09:09:51Z</time>
      </trkpt>
      <trkpt lat="46.80226" lon="1.38225">
        <ele>97</ele>
        <time>2026-03-14T09:09:59Z</time>
      </trkpt>
      <trkpt lat="46.8024" lon="1.38149">
        <ele>97</ele>
        <time>2026-03-14T09:10:07Z</time>
      </trkpt>
      <trkpt lat="46.80244" lon="1.3813">
        <ele>97.2</ele>
        <time>2026-03-14T09:10:09Z</time>
      </trkpt>
      <trkpt lat="46.80252" lon="1.38102">
        <ele>97</ele>
        <time>2026-03-14T09:10:12Z</time>
      </trkpt>
      <trkpt lat="46.80262" lon="1.38067">
        <ele>97</ele>
        <time>2026-03-14T09:10:16Z</time>
      </trkpt>
      <trkpt lat="46.80281" lon="1.38005">
        <ele>97</ele>
        <time>2026-03-14T09:10:23Z</time>
      </trkpt>
      <trkpt lat="46.80287" lon="1.37988">
        <ele>97.2</ele>
        <time>2026-03-14T09:10:25Z</time>
      </trkpt>
      <trkpt lat="46.80296" lon="1.37962">
        <ele>97.6</ele>
        <time>2026-03-14T09:10:28Z</time>
      </trkpt>
      <trkpt lat="46.80301" lon="1.37943">
        <ele>97.6</ele>
        <time>2026-03-14T09:10:30Z</time>
      </trkpt>
      <trkpt lat="46.80313" lon="1.3786">
        <ele>97.4</ele>
        <time>2026-03-14T09:10:38Z</time>
      </trkpt>
      <trkpt lat="46.80312" lon="1.37781">
        <ele>96.8</ele>
        <time>2026-03-14T09:10:45Z</time>
      </trkpt>
      <trkpt lat="46.80309" lon="1.37709">
        <ele>97.2</ele>
        <time>2026-03-14T09:10:52Z</time>
      </trkpt>
      <trkpt lat="46.80306" lon="1.37626">
        <ele>98</ele>
        <time>2026-03-14T09:11:00Z</time>
      </trkpt>
      <trkpt lat="46.80304" lon="1.37576">
        <ele>98</ele>
        <time>2026-03-14T09:11:05Z</time>
      </trkpt>
      <trkpt lat="46.80301" lon="1.37496">
        <ele>98.2</ele>
        <time>2026-03-14T09:11:13Z</time>
      </trkpt>
      <trkpt lat="46.803" lon="1.37458">
        <ele>98.2</ele>
        <time>2026-03-14T09:11:17Z</time>
      </trkpt>
      <trkpt lat="46.803" lon="1.37448">
        <ele>98.4</ele>
        <time>2026-03-14T09:11:18Z</time>
      </trkpt>
      <trkpt lat="46.80296" lon="1.37367">
        <ele>99.2</ele>
        <time>2026-03-14T09:11:27Z</time>
      </trkpt>
      <trkpt lat="46.80295" lon="1.37349">
        <ele>99.4</ele>
        <time>2026-03-14T09:11:29Z</time>
      </trkpt>
      <trkpt lat="46.80293" lon="1.37296">
        <ele>99.8</ele>
        <time>2026-03-14T09:11:35Z</time>
      </trkpt>
      <trkpt lat="46.8029" lon="1.37213">
        <ele>100.2</ele>
        <time>2026-03-14T09:11:44Z</time>
      </trkpt>
      <trkpt lat="46.8029" lon="1.37203">
        <ele>100.4</ele>
        <time>2026-03-14T09:11:45Z</time>
      </trkpt>
      <trkpt lat="46.80289" lon="1.37184">
        <ele>100.4</ele>
        <time>2026-03-14T09:11:47Z</time>
      </trkpt>
      <trkpt lat="46.80286" lon="1.37101">
        <ele>100.6</ele>
        <time>2026-03-14T09:11:56Z</time>
      </trkpt>
      <trkpt lat="46.80286" lon="1.37092">
        <ele>100.6</ele>
        <time>2026-03-14T09:11:57Z</time>
      </trkpt>
      <trkpt lat="46.80283" lon="1.37017">
        <ele>100.6</ele>
        <time>2026-03-14T09:12:05Z</time>
      </trkpt>
      <trkpt lat="46.8028" lon="1.36931">
        <ele>100.8</ele>
        <time>2026-03-14T09:12:14Z</time>
      </trkpt>
      <trkpt lat="46.80279" lon="1.36912">
        <ele>100.8</ele>
        <time>2026-03-14T09:12:16Z</time>
      </trkpt>
      <trkpt lat="46.80276" lon="1.36839">
        <ele>101</ele>
        <time>2026-03-14T09:12:24Z</time>
      </trkpt>
      <trkpt lat="46.80273" lon="1.36763">
        <ele>101.2</ele>
        <time>2026-03-14T09:12:32Z</time>
      </trkpt>
      <trkpt lat="46.80272" lon="1.36726">
        <ele>101.4</ele>
        <time>2026-03-14T09:12:36Z</time>
      </trkpt>
      <trkpt lat="46.8027" lon="1.3667">
        <ele>101.8</ele>
        <time>2026-03-14T09:12:42Z</time>
      </trkpt>
      <trkpt lat="46.80267" lon="1.36587">
        <ele>102.2</ele>
        <time>2026-03-14T09:12:51Z</time>
      </trkpt>
      <trkpt lat="46.80267" lon="1.36576">
        <ele>102.2</ele>
        <time>2026-03-14T09:12:52Z</time>
      </trkpt>
      <trkpt lat="46.80265" lon="1.36533">
        <ele>102.4</ele>
        <time>2026-03-14T09:12:57Z</time>
      </trkpt>
      <trkpt lat="46.80263" lon="1.36482">
        <ele>103.2</ele>
        <time>2026-03-14T09:13:03Z</time>
      </trkpt>
      <trkpt lat="46.80263" lon="1.36466">
        <ele>103.6</ele>
        <time>2026-03-14T09:13:05Z</time>
      </trkpt>
      <trkpt lat="46.80262" lon="1.3642">
        <ele>104.8</ele>
        <time>2026-03-14T09:13:11Z</time>
      </trkpt>
      <trkpt lat="46.80262" lon="1.36413">
        <ele>104.8</ele>
        <time>2026-03-14T09:13:12Z</time>
      </trkpt>
      <trkpt lat="46.8026" lon="1.36378">
        <ele>105.8</ele>
        <time>2026-03-14T09:13:17Z</time>
      </trkpt>
      <trkpt lat="46.80259" lon="1.36371">
        <ele>106</ele>
        <time>2026-03-14T09:13:18Z</time>
      </trkpt>
      <trkpt lat="46.80258" lon="1.36319">
        <ele>107.2</ele>
        <time>2026-03-14T09:13:25Z</time>
      </trkpt>
      <trkpt lat="46.80258" lon="1.36311">
        <ele>107.4</ele>
        <time>2026-03-14T09:13:26Z</time>
      </trkpt>
      <trkpt lat="46.80255" lon="1.36247">
        <ele>108</ele>
        <time>2026-03-14T09:13:34Z</time>
      </trkpt>
      <trkpt lat="46.80255" lon="1.36223">
        <ele>108.2</ele>
        <time>2026-03-14T09:13:37Z</time>
      </trkpt>
      <trkpt lat="46.80253" lon="1.36175">
        <ele>108.6</ele>
        <time>2026-03-14T09:13:43Z</time>
      </trkpt>
      <trkpt lat="46.80251" lon="1.36117">
        <ele>109.2</ele>
        <time>2026-03-14T09:13:50Z</time>
      </trkpt>
      <trkpt lat="46.8025" lon="1.36091">
        <ele>109.4</ele>
        <time>2026-03-14T09:13:53Z</time>
      </trkpt>
      <trkpt lat="46.80247" lon="1.36007">
        <ele>109.4</ele>
        <time>2026-03-14T09:14:03Z</time>
      </trkpt>
      <trkpt lat="46.80247" lon="1.35999">
        <ele>109.4</ele>
        <time>2026-03-14T09:14:04Z</time>
      </trkpt>
      <trkpt lat="46.80238" lon="1.35915">
        <ele>109.8</ele>
        <time>2026-03-14T09:14:14Z</time>
      </trkpt>
      <trkpt lat="46.80224" lon="1.35857">
        <ele>110</ele>
        <time>2026-03-14T09:14:21Z</time>
      </trkpt>
      <trkpt lat="46.80208" lon="1.35792">
        <ele>110</ele>
        <time>2026-03-14T09:14:29Z</time>
      </trkpt>
      <trkpt lat="46.80204" lon="1.35774">
        <ele>110.2</ele>
        <time>2026-03-14T09:14:31Z</time>
      </trkpt>
      <trkpt lat="46.80196" lon="1.35732">
        <ele>110.4</ele>
        <time>2026-03-14T09:14:36Z</time>
      </trkpt>
      <trkpt lat="46.80182" lon="1.35656">
        <ele>110.6</ele>
        <time>2026-03-14T09:14:45Z</time>
      </trkpt>
      <trkpt lat="46.8018" lon="1.35647">
        <ele>110.6</ele>
        <time>2026-03-14T09:14:46Z</time>
      </trkpt>
      <trkpt lat="46.80164" lon="1.35577">
        <ele>110.4</ele>
        <time>2026-03-14T09:14:54Z</time>
      </trkpt>
      <trkpt lat="46.80145" lon="1.35505">
        <ele>110.2</ele>
        <time>2026-03-14T09:15:02Z</time>
      </trkpt>
      <trkpt lat="46.80143" lon="1.35497">
        <ele>110</ele>
        <time>2026-03-14T09:15:03Z</time>
      </trkpt>
      <trkpt lat="46.80136" lon="1.35458">
        <ele>110</ele>
        <time>2026-03-14T09:15:08Z</time>
      </trkpt>
      <trkpt lat="46.80131" lon="1.35435">
        <ele>109.8</ele>
        <time>2026-03-14T09:15:11Z</time>
      </trkpt>
      <trkpt lat="46.80127" lon="1.35411">
        <ele>109.8</ele>
        <time>2026-03-14T09:15:14Z</time>
      </trkpt>
      <trkpt lat="46.80116" lon="1.3536">
        <ele>109.6</ele>
        <time>2026-03-14T09:15:20Z</time>
      </trkpt>
      <trkpt lat="46.80114" lon="1.35349">
        <ele>109.6</ele>
        <time>2026-03-14T09:15:21Z</time>
      </trkpt>
      <trkpt lat="46.80107" lon="1.35315">
        <ele>109.6</ele>
        <time>2026-03-14T09:15:25Z</time>
      </trkpt>
      <trkpt lat="46.80105" lon="1.35296">
        <ele>109.4</ele>
        <time>2026-03-14T09:15:27Z</time>
      </trkpt>
      <trkpt lat="46.80105" lon="1.3523">
        <ele>109.4</ele>
        <time>2026-03-14T09:15:34Z</time>
      </trkpt>
      <trkpt lat="46.80104" lon="1.35165">
        <ele>109.6</ele>
        <time>2026-03-14T09:15:41Z</time>
      </trkpt>
      <trkpt lat="46.80102" lon="1.35118">
        <ele>109.8</ele>
        <time>2026-03-14T09:15:46Z</time>
      </trkpt>
      <trkpt lat="46.80103" lon="1.35099">
        <ele>109.8</ele>
        <time>2026-03-14T09:15:48Z</time>
      </trkpt>
      <trkpt lat="46.80111" lon="1.3502">
        <ele>109.6</ele>
        <time>2026-03-14T09:15:56Z</time>
      </trkpt>
      <trkpt lat="46.80117" lon="1.34962">
        <ele>109</ele>
        <time>2026-03-14T09:16:01Z</time>
      </trkpt>
      <trkpt lat="46.80118" lon="1.3495">
        <ele>108.8</ele>
        <time>2026-03-14T09:16:02Z</time>
      </trkpt>
      <trkpt lat="46.80121" lon="1.34912">
        <ele>107.8</ele>
        <time>2026-03-14T09:16:05Z</time>
      </trkpt>
      <trkpt lat="46.80124" lon="1.34859">
        <ele>106.6</ele>
        <time>2026-03-14T09:16:09Z</time>
      </trkpt>
      <trkpt lat="46.80125" lon="1.34818">
        <ele>105.4</ele>
        <time>2026-03-14T09:16:12Z</time>
      </trkpt>
      <trkpt lat="46.80126" lon="1.34776">
        <ele>104</ele>
        <time>2026-03-14T09:16:15Z</time>
      </trkpt>
      <trkpt lat="46.80126" lon="1.34733">
        <ele>102.8</ele>
        <time>2026-03-14T09:16:18Z</time>
      </trkpt>
      <trkpt lat="46.80127" lon="1.3469">
        <ele>101.6</ele>
        <time>2026-03-14T09:16:21Z</time>
      </trkpt>
      <trkpt lat="46.80128" lon="1.3466">
        <ele>100.6</ele>
        <time>2026-03-14T09:16:23Z</time>
      </trkpt>
      <trkpt lat="46.80129" lon="1.34616">
        <ele>99.8</ele>
        <time>2026-03-14T09:16:26Z</time>
      </trkpt>
      <trkpt lat="46.80129" lon="1.34598">
        <ele>99.4</ele>
        <time>2026-03-14T09:16:27Z</time>
      </trkpt>
      <trkpt lat="46.80129" lon="1.34557">
        <ele>97.8</ele>
        <time>2026-03-14T09:16:30Z</time>
      </trkpt>
      <trkpt lat="46.8013" lon="1.34513">
        <ele>96.6</ele>
        <time>2026-03-14T09:16:33Z</time>
      </trkpt>
      <trkpt lat="46.80131" lon="1.34497">
        <ele>96.4</ele>
        <time>2026-03-14T09:16:34Z</time>
      </trkpt>
      <trkpt lat="46.80131" lon="1.34457">
        <ele>95.4</ele>
        <time>2026-03-14T09:16:37Z</time>
      </trkpt>
      <trkpt lat="46.80133" lon="1.34389">
        <ele>94.6</ele>
        <time>2026-03-14T09:16:42Z</time>
      </trkpt>
      <trkpt lat="46.80134" lon="1.34352">
        <ele>94.4</ele>
        <time>2026-03-14T09:16:45Z</time>
      </trkpt>
      <trkpt lat="46.80134" lon="1.34328">
        <ele>94.2</ele>
        <time>2026-03-14T09:16:47Z</time>
      </trkpt>
      <trkpt lat="46.80135" lon="1.34245">
        <ele>94</ele>
        <time>2026-03-14T09:16:54Z</time>
      </trkpt>
      <trkpt lat="46.80135" lon="1.34233">
        <ele>94</ele>
        <time>2026-03-14T09:16:55Z</time>
      </trkpt>
      <trkpt lat="46.80137" lon="1.34149">
        <ele>94</ele>
        <time>2026-03-14T09:17:02Z</time>
      </trkpt>
      <trkpt lat="46.80138" lon="1.34115">
        <ele>94</ele>
        <time>2026-03-14T09:17:05Z</time>
      </trkpt>
      <trkpt lat="46.80139" lon="1.3405">
        <ele>93.8</ele>
        <time>2026-03-14T09:17:11Z</time>
      </trkpt>
      <trkpt lat="46.80141" lon="1.33964">
        <ele>94</ele>
        <time>2026-03-14T09:17:19Z</time>
      </trkpt>
      <trkpt lat="46.80143" lon="1.33914">
        <ele>94.2</ele>
        <time>2026-03-14T09:17:24Z</time>
      </trkpt>
      <trkpt lat="46.80145" lon="1.33905">
        <ele>94.2</ele>
        <time>2026-03-14T09:17:25Z</time>
      </trkpt>
      <trkpt lat="46.80148" lon="1.33887">
        <ele>94.2</ele>
        <time>2026-03-14T09:17:27Z</time>
      </trkpt>
      <trkpt lat="46.80149" lon="1.33867">
        <ele>94.2</ele>
        <time>2026-03-14T09:17:29Z</time>
      </trkpt>
      <trkpt lat="46.80148" lon="1.33831">
        <ele>94.6</ele>
        <time>2026-03-14T09:17:33Z</time>
      </trkpt>
      <trkpt lat="46.80148" lon="1.33822">
        <ele>94.6</ele>
        <time>2026-03-14T09:17:34Z</time>
      </trkpt>
      <trkpt lat="46.80148" lon="1.33801">
        <ele>94.8</ele>
        <time>2026-03-14T09:17:36Z</time>
      </trkpt>
      <trkpt lat="46.80148" lon="1.3379">
        <ele>94.8</ele>
        <time>2026-03-14T09:17:37Z</time>
      </trkpt>
      <trkpt lat="46.80148" lon="1.33779">
        <ele>94.8</ele>
        <time>2026-03-14T09:17:38Z</time>
      </trkpt>
      <trkpt lat="46.80149" lon="1.33758">
        <ele>94.8</ele>
        <time>2026-03-14T09:17:40Z</time>
      </trkpt>
      <trkpt lat="46.8015" lon="1.33747">
        <ele>94.8</ele>
        <time>2026-03-14T09:17:41Z</time>
      </trkpt>
      <trkpt lat="46.80151" lon="1.33737">
        <ele>94.8</ele>
        <time>2026-03-14T09:17:42Z</time>
      </trkpt>
      <trkpt lat="46.80153" lon="1.33705">
        <ele>95</ele>
        <time>2026-03-14T09:17:45Z</time>
      </trkpt>
      <trkpt lat="46.80152" lon="1.33695">
        <ele>95</ele>
        <time>2026-03-14T09:17:46Z</time>
      </trkpt>
      <trkpt lat="46.80151" lon="1.33651">
        <ele>95.2</ele>
        <time>2026-03-14T09:17:50Z</time>
      </trkpt>
      <trkpt lat="46.80151" lon="1.3363">
        <ele>95.2</ele>
        <time>2026-03-14T09:17:52Z</time>
      </trkpt>
      <trkpt lat="46.80153" lon="1.3357">
        <ele>95.6</ele>
        <time>2026-03-14T09:17:58Z</time>
      </trkpt>
      <trkpt lat="46.8015" lon="1.33516">
        <ele>95.8</ele>
        <time>2026-03-14T09:18:03Z</time>
      </trkpt>
      <trkpt lat="46.80151" lon="1.33496">
        <ele>95.8</ele>
        <time>2026-03-14T09:18:05Z</time>
      </trkpt>
      <trkpt lat="46.80152" lon="1.33485">
        <ele>95.8</ele>
        <time>2026-03-14T09:18:06Z</time>
      </trkpt>
      <trkpt lat="46.80154" lon="1.33444">
        <ele>95.8</ele>
        <time>2026-03-14T09:18:10Z</time>
      </trkpt>
      <trkpt lat="46.80159" lon="1.33381">
        <ele>95.4</ele>
        <time>2026-03-14T09:18:16Z</time>
      </trkpt>
      <trkpt lat="46.80158" lon="1.33323">
        <ele>95.2</ele>
        <time>2026-03-14T09:18:21Z</time>
      </trkpt>
      <trkpt lat="46.8016" lon="1.33257">
        <ele>94.6</ele>
        <time>2026-03-14T09:18:27Z</time>
      </trkpt>
      <trkpt lat="46.8016" lon="1.33245">
        <ele>94.6</ele>
        <time>2026-03-14T09:18:28Z</time>
      </trkpt>
      <trkpt lat="46.80159" lon="1.33213">
        <ele>94.4</ele>
        <time>2026-03-14T09:18:31Z</time>
      </trkpt>
      <trkpt lat="46.80159" lon="1.33149">
        <ele>94.2</ele>
        <time>2026-03-14T09:18:37Z</time>
      </trkpt>
      <trkpt lat="46.80161" lon="1.33087">
        <ele>94.4</ele>
        <time>2026-03-14T09:18:43Z</time>
      </trkpt>
      <trkpt lat="46.80162" lon="1.33076">
        <ele>94.4</ele>
        <time>2026-03-14T09:18:44Z</time>
      </trkpt>
      <trkpt lat="46.80163" lon="1.33045">
        <ele>94.4</ele>
        <time>2026-03-14T09:18:47Z</time>
      </trkpt>
      <trkpt lat="46.80163" lon="1.32966">
        <ele>94</ele>
        <time>2026-03-14T09:18:54Z</time>
      </trkpt>
      <trkpt lat="46.80165" lon="1.32887">
        <ele>93.2</ele>
        <time>2026-03-14T09:19:01Z</time>
      </trkpt>
      <trkpt lat="46.80167" lon="1.32855">
        <ele>92.8</ele>
        <time>2026-03-14T09:19:04Z</time>
      </trkpt>
      <trkpt lat="46.80168" lon="1.32811">
        <ele>92.4</ele>
        <time>2026-03-14T09:19:08Z</time>
      </trkpt>
      <trkpt lat="46.80171" lon="1.32736">
        <ele>92.2</ele>
        <time>2026-03-14T09:19:15Z</time>
      </trkpt>
      <trkpt lat="46.80169" lon="1.32651">
        <ele>92.4</ele>
        <time>2026-03-14T09:19:23Z</time>
      </trkpt>
      <trkpt lat="46.8017" lon="1.3264">
        <ele>92.4</ele>
        <time>2026-03-14T09:19:24Z</time>
      </trkpt>
      <trkpt lat="46.80169" lon="1.32629">
        <ele>92.4</ele>
        <time>2026-03-14T09:19:25Z</time>
      </trkpt>
      <trkpt lat="46.8017" lon="1.3259">
        <ele>92.8</ele>
        <time>2026-03-14T09:19:29Z</time>
      </trkpt>
      <trkpt lat="46.80169" lon="1.32542">
        <ele>93.4</ele>
        <time>2026-03-14T09:19:34Z</time>
      </trkpt>
      <trkpt lat="46.80171" lon="1.32512">
        <ele>93.8</ele>
        <time>2026-03-14T09:19:37Z</time>
      </trkpt>
      <trkpt lat="46.80171" lon="1.32504">
        <ele>93.8</ele>
        <time>2026-03-14T09:19:38Z</time>
      </trkpt>
      <trkpt lat="46.8017" lon="1.32493">
        <ele>94</ele>
        <time>2026-03-14T09:19:39Z</time>
      </trkpt>
      <trkpt lat="46.80168" lon="1.32479">
        <ele>94</ele>
        <time>2026-03-14T09:19:40Z</time>
      </trkpt>
      <trkpt lat="46.80168" lon="1.3245">
        <ele>94.2</ele>
        <time>2026-03-14T09:19:43Z</time>
      </trkpt>
      <trkpt lat="46.80171" lon="1.32376">
        <ele>93.6</ele>
        <time>2026-03-14T09:19:50Z</time>
      </trkpt>
      <trkpt lat="46.80174" lon="1.3231">
        <ele>92.8</ele>
        <time>2026-03-14T09:19:56Z</time>
      </trkpt>
      <trkpt lat="46.80174" lon="1.32301">
        <ele>92.6</ele>
        <time>2026-03-14T09:19:57Z</time>
      </trkpt>
      <trkpt lat="46.80175" lon="1.3229">
        <ele>92.4</ele>
        <time>2026-03-14T09:19:58Z</time>
      </trkpt>
      <trkpt lat="46.80177" lon="1.32258">
        <ele>92.2</ele>
        <time>2026-03-14T09:20:01Z</time>
      </trkpt>
      <trkpt lat="46.80178" lon="1.32192">
        <ele>91.8</ele>
        <time>2026-03-14T09:20:07Z</time>
      </trkpt>
      <trkpt lat="46.80179" lon="1.32158">
        <ele>91.6</ele>
        <time>2026-03-14T09:20:10Z</time>
      </trkpt>
      <trkpt lat="46.80181" lon="1.3211">
        <ele>90.8</ele>
        <time>2026-03-14T09:20:14Z</time>
      </trkpt>
      <trkpt lat="46.80183" lon="1.32076">
        <ele>90.6</ele>
        <time>2026-03-14T09:20:17Z</time>
      </trkpt>
      <trkpt lat="46.80188" lon="1.32032">
        <ele>90</ele>
        <time>2026-03-14T09:20:21Z</time>
      </trkpt>
      <trkpt lat="46.8021" lon="1.31952">
        <ele>90</ele>
        <time>2026-03-14T09:20:29Z</time>
      </trkpt>
      <trkpt lat="46.80241" lon="1.31879">
        <ele>90.2</ele>
        <time>2026-03-14T09:20:37Z</time>
      </trkpt>
      <trkpt lat="46.80244" lon="1.31872">
        <ele>90.2</ele>
        <time>2026-03-14T09:20:38Z</time>
      </trkpt>
      <trkpt lat="46.80277" lon="1.31813">
        <ele>90.6</ele>
        <time>2026-03-14T09:20:45Z</time>
      </trkpt>
      <trkpt lat="46.80314" lon="1.31751">
        <ele>89.8</ele>
        <time>2026-03-14T09:20:52Z</time>
      </trkpt>
      <trkpt lat="46.80325" lon="1.31732">
        <ele>89.2</ele>
        <time>2026-03-14T09:20:54Z</time>
      </trkpt>
      <trkpt lat="46.80348" lon="1.31695">
        <ele>88</ele>
        <time>2026-03-14T09:20:58Z</time>
      </trkpt>
      <trkpt lat="46.80363" lon="1.31667">
        <ele>87.4</ele>
        <time>2026-03-14T09:21:01Z</time>
      </trkpt>
      <trkpt lat="46.80378" lon="1.31639">
        <ele>86.8</ele>
        <time>2026-03-14T09:21:04Z</time>
      </trkpt>
      <trkpt lat="46.80403" lon="1.31597">
        <ele>86.8</ele>
        <time>2026-03-14T09:21:09Z</time>
      </trkpt>
      <trkpt lat="46.80412" lon="1.31581">
        <ele>86.8</ele>
        <time>2026-03-14T09:21:11Z</time>
      </trkpt>
      <trkpt lat="46.80426" lon="1.31557">
        <ele>86.6</ele>
        <time>2026-03-14T09:21:14Z</time>
      </trkpt>
      <trkpt lat="46.80452" lon="1.31508">
        <ele>87</ele>
        <time>2026-03-14T09:21:20Z</time>
      </trkpt>
      <trkpt lat="46.8047" lon="1.31476">
        <ele>87.4</ele>
        <time>2026-03-14T09:21:24Z</time>
      </trkpt>
      <trkpt lat="46.8049" lon="1.31436">
        <ele>87.6</ele>
        <time>2026-03-14T09:21:29Z</time>
      </trkpt>
      <trkpt lat="46.80507" lon="1.31406">
        <ele>87.8</ele>
        <time>2026-03-14T09:21:33Z</time>
      </trkpt>
      <trkpt lat="46.80519" lon="1.31384">
        <ele>88</ele>
        <time>2026-03-14T09:21:36Z</time>
      </trkpt>
      <trkpt lat="46.80543" lon="1.31332">
        <ele>89</ele>
        <time>2026-03-14T09:21:43Z</time>
      </trkpt>
      <trkpt lat="46.80546" lon="1.31325">
        <ele>89.2</ele>
        <time>2026-03-14T09:21:44Z</time>
      </trkpt>
      <trkpt lat="46.80565" lon="1.31269">
        <ele>90</ele>
        <time>2026-03-14T09:21:51Z</time>
      </trkpt>
      <trkpt lat="46.80569" lon="1.3125">
        <ele>90</ele>
        <time>2026-03-14T09:21:53Z</time>
      </trkpt>
      <trkpt lat="46.80574" lon="1.31218">
        <ele>89.8</ele>
        <time>2026-03-14T09:21:56Z</time>
      </trkpt>
      <trkpt lat="46.80587" lon="1.3114">
        <ele>88.8</ele>
        <time>2026-03-14T09:22:03Z</time>
      </trkpt>
      <trkpt lat="46.80589" lon="1.31129">
        <ele>88.6</ele>
        <time>2026-03-14T09:22:04Z</time>
      </trkpt>
      <trkpt lat="46.80601" lon="1.31053">
        <ele>87.8</ele>
        <time>2026-03-14T09:22:11Z</time>
      </trkpt>
      <trkpt lat="46.80606" lon="1.3102">
        <ele>87.6</ele>
        <time>2026-03-14T09:22:14Z</time>
      </trkpt>
      <trkpt lat="46.80619" lon="1.30935">
        <ele>87.4</ele>
        <time>2026-03-14T09:22:22Z</time>
      </trkpt>
      <trkpt lat="46.80623" lon="1.30904">
        <ele>87.4</ele>
        <time>2026-03-14T09:22:25Z</time>
      </trkpt>
      <trkpt lat="46.80635" lon="1.30823">
        <ele>88.4</ele>
        <time>2026-03-14T09:22:33Z</time>
      </trkpt>
      <trkpt lat="46.80639" lon="1.30802">
        <ele>88.4</ele>
        <time>2026-03-14T09:22:35Z</time>
      </trkpt>
      <trkpt lat="46.80652" lon="1.30724">
        <ele>88.6</ele>
        <time>2026-03-14T09:22:43Z</time>
      </trkpt>
      <trkpt lat="46.80656" lon="1.30695">
        <ele>88.8</ele>
        <time>2026-03-14T09:22:46Z</time>
      </trkpt>
      <trkpt lat="46.80667" lon="1.3062">
        <ele>89.6</ele>
        <time>2026-03-14T09:22:54Z</time>
      </trkpt>
      <trkpt lat="46.80672" lon="1.30572">
        <ele>89.8</ele>
        <time>2026-03-14T09:22:59Z</time>
      </trkpt>
      <trkpt lat="46.80675" lon="1.30532">
        <ele>90</ele>
        <time>2026-03-14T09:23:03Z</time>
      </trkpt>
      <trkpt lat="46.80682" lon="1.30446">
        <ele>90</ele>
        <time>2026-03-14T09:23:11Z</time>
      </trkpt>
      <trkpt lat="46.80683" lon="1.30435">
        <ele>89.8</ele>
        <time>2026-03-14T09:23:12Z</time>
      </trkpt>
      <trkpt lat="46.80689" lon="1.30357">
        <ele>89.2</ele>
        <time>2026-03-14T09:23:19Z</time>
      </trkpt>
      <trkpt lat="46.80691" lon="1.30335">
        <ele>89.2</ele>
        <time>2026-03-14T09:23:21Z</time>
      </trkpt>
      <trkpt lat="46.80698" lon="1.30247">
        <ele>89</ele>
        <time>2026-03-14T09:23:29Z</time>
      </trkpt>
      <trkpt lat="46.80699" lon="1.30236">
        <ele>89</ele>
        <time>2026-03-14T09:23:30Z</time>
      </trkpt>
      <trkpt lat="46.80702" lon="1.30183">
        <ele>88.8</ele>
        <time>2026-03-14T09:23:35Z</time>
      </trkpt>
      <trkpt lat="46.80704" lon="1.30151">
        <ele>88.6</ele>
        <time>2026-03-14T09:23:38Z</time>
      </trkpt>
      <trkpt lat="46.8071" lon="1.30072">
        <ele>88.2</ele>
        <time>2026-03-14T09:23:45Z</time>
      </trkpt>
      <trkpt lat="46.80712" lon="1.30049">
        <ele>87.8</ele>
        <time>2026-03-14T09:23:47Z</time>
      </trkpt>
      <trkpt lat="46.80713" lon="1.30027">
        <ele>87.4</ele>
        <time>2026-03-14T09:23:49Z</time>
      </trkpt>
      <trkpt lat="46.80719" lon="1.29947">
        <ele>86.6</ele>
        <time>2026-03-14T09:23:56Z</time>
      </trkpt>
      <trkpt lat="46.80721" lon="1.29924">
        <ele>86.6</ele>
        <time>2026-03-14T09:23:58Z</time>
      </trkpt>
      <trkpt lat="46.80723" lon="1.29901">
        <ele>86.2</ele>
        <time>2026-03-14T09:24:00Z</time>
      </trkpt>
      <trkpt lat="46.80727" lon="1.29842">
        <ele>85.6</ele>
        <time>2026-03-14T09:24:05Z</time>
      </trkpt>
      <trkpt lat="46.80728" lon="1.2983">
        <ele>85.2</ele>
        <time>2026-03-14T09:24:06Z</time>
      </trkpt>
      <trkpt lat="46.80736" lon="1.2975">
        <ele>84.6</ele>
        <time>2026-03-14T09:24:13Z</time>
      </trkpt>
      <trkpt lat="46.80741" lon="1.29672">
        <ele>84.2</ele>
        <time>2026-03-14T09:24:20Z</time>
      </trkpt>
      <trkpt lat="46.80743" lon="1.29651">
        <ele>84.2</ele>
        <time>2026-03-14T09:24:22Z</time>
      </trkpt>
      <trkpt lat="46.80749" lon="1.29567">
        <ele>83.8</ele>
        <time>2026-03-14T09:24:30Z</time>
      </trkpt>
      <trkpt lat="46.80754" lon="1.29497">
        <ele>83.6</ele>
        <time>2026-03-14T09:24:37Z</time>
      </trkpt>
      <trkpt lat="46.80757" lon="1.2946">
        <ele>83.8</ele>
        <time>2026-03-14T09:24:41Z</time>
      </trkpt>
      <trkpt lat="46.8076" lon="1.29433">
        <ele>84</ele>
        <time>2026-03-14T09:24:44Z</time>
      </trkpt>
      <trkpt lat="46.80777" lon="1.29355">
        <ele>85.2</ele>
        <time>2026-03-14T09:24:53Z</time>
      </trkpt>
      <trkpt lat="46.80801" lon="1.29285">
        <ele>85.2</ele>
        <time>2026-03-14T09:25:01Z</time>
      </trkpt>
      <trkpt lat="46.80831" lon="1.29226">
        <ele>84.8</ele>
        <time>2026-03-14T09:25:08Z</time>
      </trkpt>
      <trkpt lat="46.8087" lon="1.29161">
        <ele>84.8</ele>
        <time>2026-03-14T09:25:16Z</time>
      </trkpt>
      <trkpt lat="46.80909" lon="1.29096">
        <ele>84.2</ele>
        <time>2026-03-14T09:25:24Z</time>
      </trkpt>
      <trkpt lat="46.80918" lon="1.29079">
        <ele>84.2</ele>
        <time>2026-03-14T09:25:26Z</time>
      </trkpt>
      <trkpt lat="46.80945" lon="1.29031">
        <ele>84</ele>
        <time>2026-03-14T09:25:32Z</time>
      </trkpt>
      <trkpt lat="46.80959" lon="1.29006">
        <ele>84</ele>
        <time>2026-03-14T09:25:35Z</time>
      </trkpt>
      <trkpt lat="46.80999" lon="1.28944">
        <ele>83.8</ele>
        <time>2026-03-14T09:25:43Z</time>
      </trkpt>
      <trkpt lat="46.81014" lon="1.28921">
        <ele>83.8</ele>
        <time>2026-03-14T09:25:46Z</time>
      </trkpt>
      <trkpt lat="46.81053" lon="1.28859">
        <ele>83.4</ele>
        <time>2026-03-14T09:25:54Z</time>
      </trkpt>
      <trkpt lat="46.81062" lon="1.28843">
        <ele>83.2</ele>
        <time>2026-03-14T09:25:56Z</time>
      </trkpt>
      <trkpt lat="46.81099" lon="1.2878">
        <ele>82.8</ele>
        <time>2026-03-14T09:26:04Z</time>
      </trkpt>
      <trkpt lat="46.81135" lon="1.28716">
        <ele>82.8</ele>
        <time>2026-03-14T09:26:12Z</time>
      </trkpt>
      <trkpt lat="46.81139" lon="1.28708">
        <ele>82.8</ele>
        <time>2026-03-14T09:26:13Z</time>
      </trkpt>
      <trkpt lat="46.81176" lon="1.28645">
        <ele>83.2</ele>
        <time>2026-03-14T09:26:21Z</time>
      </trkpt>
      <trkpt lat="46.81189" lon="1.28622">
        <ele>83.4</ele>
        <time>2026-03-14T09:26:24Z</time>
      </trkpt>
      <trkpt lat="46.81226" lon="1.28558">
        <ele>83.6</ele>
        <time>2026-03-14T09:26:32Z</time>
      </trkpt>
      <trkpt lat="46.81235" lon="1.28542">
        <ele>83.6</ele>
        <time>2026-03-14T09:26:34Z</time>
      </trkpt>
      <trkpt lat="46.81267" lon="1.28476">
        <ele>83.6</ele>
        <time>2026-03-14T09:26:42Z</time>
      </trkpt>
      <trkpt lat="46.81275" lon="1.28459">
        <ele>83.6</ele>
        <time>2026-03-14T09:26:44Z</time>
      </trkpt>
      <trkpt lat="46.8131" lon="1.2839">
        <ele>83.4</ele>
        <time>2026-03-14T09:26:52Z</time>
      </trkpt>
      <trkpt lat="46.81314" lon="1.28382">
        <ele>83.4</ele>
        <time>2026-03-14T09:26:53Z</time>
      </trkpt>
      <trkpt lat="46.81349" lon="1.28319">
        <ele>83.4</ele>
        <time>2026-03-14T09:27:01Z</time>
      </trkpt>
      <trkpt lat="46.81366" lon="1.28289">
        <ele>83.8</ele>
        <time>2026-03-14T09:27:05Z</time>
      </trkpt>
      <trkpt lat="46.814" lon="1.28228">
        <ele>84</ele>
        <time>2026-03-14T09:27:13Z</time>
      </trkpt>
      <trkpt lat="46.81404" lon="1.28222">
        <ele>84</ele>
        <time>2026-03-14T09:27:14Z</time>
      </trkpt>
      <trkpt lat="46.8144" lon="1.28159">
        <ele>83.2</ele>
        <time>2026-03-14T09:27:22Z</time>
      </trkpt>
      <trkpt lat="46.81444" lon="1.28151">
        <ele>83.2</ele>
        <time>2026-03-14T09:27:23Z</time>
      </trkpt>
      <trkpt lat="46.81477" lon="1.28083">
        <ele>82.8</ele>
        <time>2026-03-14T09:27:31Z</time>
      </trkpt>
      <trkpt lat="46.81484" lon="1.28065">
        <ele>82.8</ele>
        <time>2026-03-14T09:27:33Z</time>
      </trkpt>
      <trkpt lat="46.81503" lon="1.27992">
        <ele>83</ele>
        <time>2026-03-14T09:27:41Z</time>
      </trkpt>
      <trkpt lat="46.81519" lon="1.27914">
        <ele>83.2</ele>
        <time>2026-03-14T09:27:49Z</time>
      </trkpt>
      <trkpt lat="46.81521" lon="1.27902">
        <ele>83.2</ele>
        <time>2026-03-14T09:27:50Z</time>
      </trkpt>
      <trkpt lat="46.81536" lon="1.27825">
        <ele>82.4</ele>
        <time>2026-03-14T09:27:58Z</time>
      </trkpt>
      <trkpt lat="46.81552" lon="1.27749">
        <ele>82.4</ele>
        <time>2026-03-14T09:28:06Z</time>
      </trkpt>
      <trkpt lat="46.81554" lon="1.2774">
        <ele>82.4</ele>
        <time>2026-03-14T09:28:07Z</time>
      </trkpt>
      <trkpt lat="46.81572" lon="1.27657">
        <ele>82.6</ele>
        <time>2026-03-14T09:28:16Z</time>
      </trkpt>
      <trkpt lat="46.81589" lon="1.27572">
        <ele>82.2</ele>
        <time>2026-03-14T09:28:25Z</time>
      </trkpt>
      <trkpt lat="46.81605" lon="1.27499">
        <ele>82</ele>
        <time>2026-03-14T09:28:33Z</time>
      </trkpt>
      <trkpt lat="46.81621" lon="1.27422">
        <ele>81.2</ele>
        <time>2026-03-14T09:28:41Z</time>
      </trkpt>
      <trkpt lat="46.81625" lon="1.27402">
        <ele>81</ele>
        <time>2026-03-14T09:28:43Z</time>
      </trkpt>
      <trkpt lat="46.81639" lon="1.27327">
        <ele>81</ele>
        <time>2026-03-14T09:28:51Z</time>
      </trkpt>
      <trkpt lat="46.81643" lon="1.27308">
        <ele>81.2</ele>
        <time>2026-03-14T09:28:53Z</time>
      </trkpt>
      <trkpt lat="46.81659" lon="1.27233">
        <ele>80.8</ele>
        <time>2026-03-14T09:29:01Z</time>
      </trkpt>
      <trkpt lat="46.81676" lon="1.27151">
        <ele>80.2</ele>
        <time>2026-03-14T09:29:09Z</time>
      </trkpt>
      <trkpt lat="46.8168" lon="1.2713">
        <ele>80.2</ele>
        <time>2026-03-14T09:29:11Z</time>
      </trkpt>
      <trkpt lat="46.81697" lon="1.27047">
        <ele>79.2</ele>
        <time>2026-03-14T09:29:19Z</time>
      </trkpt>
      <trkpt lat="46.81699" lon="1.27037">
        <ele>79.2</ele>
        <time>2026-03-14T09:29:20Z</time>
      </trkpt>
      <trkpt lat="46.81716" lon="1.26957">
        <ele>78.8</ele>
        <time>2026-03-14T09:29:28Z</time>
      </trkpt>
      <trkpt lat="46.81723" lon="1.26926">
        <ele>78.8</ele>
        <time>2026-03-14T09:29:31Z</time>
      </trkpt>
      <trkpt lat="46.81739" lon="1.2684">
        <ele>78.4</ele>
        <time>2026-03-14T09:29:39Z</time>
      </trkpt>
      <trkpt lat="46.81753" lon="1.26776">
        <ele>78</ele>
        <time>2026-03-14T09:29:45Z</time>
      </trkpt>
      <trkpt lat="46.81758" lon="1.26756">
        <ele>78</ele>
        <time>2026-03-14T09:29:47Z</time>
      </trkpt>
      <trkpt lat="46.81781" lon="1.26681">
        <ele>78</ele>
        <time>2026-03-14T09:29:55Z</time>
      </trkpt>
      <trkpt lat="46.81784" lon="1.26672">
        <ele>78</ele>
        <time>2026-03-14T09:29:56Z</time>
      </trkpt>
      <trkpt lat="46.81809" lon="1.26603">
        <ele>79</ele>
        <time>2026-03-14T09:30:04Z</time>
      </trkpt>
      <trkpt lat="46.81834" lon="1.26536">
        <ele>79.6</ele>
        <time>2026-03-14T09:30:12Z</time>
      </trkpt>
      <trkpt lat="46.81837" lon="1.26527">
        <ele>79.6</ele>
        <time>2026-03-14T09:30:13Z</time>
      </trkpt>
      <trkpt lat="46.81862" lon="1.26457">
        <ele>79.8</ele>
        <time>2026-03-14T09:30:21Z</time>
      </trkpt>
      <trkpt lat="46.81869" lon="1.26439">
        <ele>79.8</ele>
        <time>2026-03-14T09:30:23Z</time>
      </trkpt>
      <trkpt lat="46.81894" lon="1.26368">
        <ele>79.2</ele>
        <time>2026-03-14T09:30:31Z</time>
      </trkpt>
      <trkpt lat="46.81913" lon="1.26316">
        <ele>79.2</ele>
        <time>2026-03-14T09:30:37Z</time>
      </trkpt>
      <trkpt lat="46.8194" lon="1.26239">
        <ele>79.4</ele>
        <time>2026-03-14T09:30:46Z</time>
      </trkpt>
      <trkpt lat="46.81947" lon="1.26221">
        <ele>79.4</ele>
        <time>2026-03-14T09:30:48Z</time>
      </trkpt>
      <trkpt lat="46.81972" lon="1.26146">
        <ele>79</ele>
        <time>2026-03-14T09:30:56Z</time>
      </trkpt>
      <trkpt lat="46.81979" lon="1.26127">
        <ele>79</ele>
        <time>2026-03-14T09:30:58Z</time>
      </trkpt>
      <trkpt lat="46.82006" lon="1.26053">
        <ele>79.2</ele>
        <time>2026-03-14T09:31:06Z</time>
      </trkpt>
      <trkpt lat="46.82015" lon="1.26026">
        <ele>79.2</ele>
        <time>2026-03-14T09:31:09Z</time>
      </trkpt>
      <trkpt lat="46.82041" lon="1.25953">
        <ele>79.4</ele>
        <time>2026-03-14T09:31:17Z</time>
      </trkpt>
      <trkpt lat="46.82044" lon="1.25943">
        <ele>79.6</ele>
        <time>2026-03-14T09:31:18Z</time>
      </trkpt>
      <trkpt lat="46.82072" lon="1.25866">
        <ele>79.6</ele>
        <time>2026-03-14T09:31:26Z</time>
      </trkpt>
      <trkpt lat="46.821" lon="1.2579">
        <ele>79.2</ele>
        <time>2026-03-14T09:31:34Z</time>
      </trkpt>
      <trkpt lat="46.82119" lon="1.25734">
        <ele>79</ele>
        <time>2026-03-14T09:31:40Z</time>
      </trkpt>
      <trkpt lat="46.82145" lon="1.2566">
        <ele>79</ele>
        <time>2026-03-14T09:31:48Z</time>
      </trkpt>
      <trkpt lat="46.82152" lon="1.25642">
        <ele>78.8</ele>
        <time>2026-03-14T09:31:50Z</time>
      </trkpt>
      <trkpt lat="46.82177" lon="1.2557">
        <ele>78.4</ele>
        <time>2026-03-14T09:31:58Z</time>
      </trkpt>
      <trkpt lat="46.82183" lon="1.25552">
        <ele>78.4</ele>
        <time>2026-03-14T09:32:00Z</time>
      </trkpt>
      <trkpt lat="46.82209" lon="1.2548">
        <ele>78.2</ele>
        <time>2026-03-14T09:32:08Z</time>
      </trkpt>
      <trkpt lat="46.82215" lon="1.25461">
        <ele>78.2</ele>
        <time>2026-03-14T09:32:10Z</time>
      </trkpt>
      <trkpt lat="46.82223" lon="1.2544">
        <ele>78</ele>
        <time>2026-03-14T09:32:12Z</time>
      </trkpt>
      <trkpt lat="46.82241" lon="1.25385">
        <ele>77</ele>
        <time>2026-03-14T09:32:18Z</time>
      </trkpt>
      <trkpt lat="46.82248" lon="1.25366">
        <ele>76.8</ele>
        <time>2026-03-14T09:32:20Z</time>
      </trkpt>
      <trkpt lat="46.8227" lon="1.25305">
        <ele>76.6</ele>
        <time>2026-03-14T09:32:27Z</time>
      </trkpt>
      <trkpt lat="46.82292" lon="1.25259">
        <ele>77.2</ele>
        <time>2026-03-14T09:32:33Z</time>
      </trkpt>
      <trkpt lat="46.82301" lon="1.25246">
        <ele>77.4</ele>
        <time>2026-03-14T09:32:35Z</time>
      </trkpt>
      <trkpt lat="46.82312" lon="1.25237">
        <ele>77.6</ele>
        <time>2026-03-14T09:32:37Z</time>
      </trkpt>
      <trkpt lat="46.8232" lon="1.25232">
        <ele>77.6</ele>
        <time>2026-03-14T09:32:38Z</time>
      </trkpt>
      <trkpt lat="46.82332" lon="1.25228">
        <ele>77.6</ele>
        <time>2026-03-14T09:32:40Z</time>
      </trkpt>
      <trkpt lat="46.82347" lon="1.25227">
        <ele>77.4</ele>
        <time>2026-03-14T09:32:42Z</time>
      </trkpt>
      <trkpt lat="46.82404" lon="1.25242">
        <ele>76.6</ele>
        <time>2026-03-14T09:32:50Z</time>
      </trkpt>
      <trkpt lat="46.82464" lon="1.25254">
        <ele>76.6</ele>
        <time>2026-03-14T09:32:58Z</time>
      </trkpt>
      <trkpt lat="46.82469" lon="1.25254">
        <ele>76.6</ele>
        <time>2026-03-14T09:32:59Z</time>
      </trkpt>
      <trkpt lat="46.82489" lon="1.25247">
        <ele>76.8</ele>
        <time>2026-03-14T09:33:02Z</time>
      </trkpt>
      <trkpt lat="46.82494" lon="1.25243">
        <ele>76.8</ele>
        <time>2026-03-14T09:33:03Z</time>
      </trkpt>
      <trkpt lat="46.82503" lon="1.25235">
        <ele>76.8</ele>
        <time>2026-03-14T09:33:05Z</time>
      </trkpt>
      <trkpt lat="46.82515" lon="1.25219">
        <ele>77.6</ele>
        <time>2026-03-14T09:33:08Z</time>
      </trkpt>
      <trkpt lat="46.82524" lon="1.25207">
        <ele>78</ele>
        <time>2026-03-14T09:33:10Z</time>
      </trkpt>
      <trkpt lat="46.82538" lon="1.25187">
        <ele>79</ele>
        <time>2026-03-14T09:33:14Z</time>
      </trkpt>
      <trkpt lat="46.82541" lon="1.25182">
        <ele>79.2</ele>
        <time>2026-03-14T09:33:15Z</time>
      </trkpt>
      <trkpt lat="46.82551" lon="1.25164">
        <ele>79.8</ele>
        <time>2026-03-14T09:33:18Z</time>
      </trkpt>
      <trkpt lat="46.82557" lon="1.25149">
        <ele>80.2</ele>
        <time>2026-03-14T09:33:20Z</time>
      </trkpt>
      <trkpt lat="46.82559" lon="1.25142">
        <ele>80.4</ele>
        <time>2026-03-14T09:33:21Z</time>
      </trkpt>
      <trkpt lat="46.8257" lon="1.25104">
        <ele>81.2</ele>
        <time>2026-03-14T09:33:26Z</time>
      </trkpt>
      <trkpt lat="46.82577" lon="1.25073">
        <ele>81.4</ele>
        <time>2026-03-14T09:33:30Z</time>
      </trkpt>
      <trkpt lat="46.82598" lon="1.24998">
        <ele>82</ele>
        <time>2026-03-14T09:33:40Z</time>
      </trkpt>
      <trkpt lat="46.82602" lon="1.24982">
        <ele>82.4</ele>
        <time>2026-03-14T09:33:42Z</time>
      </trkpt>
      <trkpt lat="46.82615" lon="1.24919">
        <ele>83.2</ele>
        <time>2026-03-14T09:33:50Z</time>
      </trkpt>
      <trkpt lat="46.82621" lon="1.2485">
        <ele>83.2</ele>
        <time>2026-03-14T09:33:58Z</time>
      </trkpt>
      <trkpt lat="46.82616" lon="1.24774">
        <ele>83</ele>
        <time>2026-03-14T09:34:06Z</time>
      </trkpt>
      <trkpt lat="46.82613" lon="1.24755">
        <ele>83</ele>
        <time>2026-03-14T09:34:08Z</time>
      </trkpt>
      <trkpt lat="46.82605" lon="1.24727">
        <ele>82.8</ele>
        <time>2026-03-14T09:34:11Z</time>
      </trkpt>
      <trkpt lat="46.82582" lon="1.24651">
        <ele>82.4</ele>
        <time>2026-03-14T09:34:19Z</time>
      </trkpt>
      <trkpt lat="46.8256" lon="1.24578">
        <ele>81.8</ele>
        <time>2026-03-14T09:34:27Z</time>
      </trkpt>
      <trkpt lat="46.82548" lon="1.24543">
        <ele>81.6</ele>
        <time>2026-03-14T09:34:31Z</time>
      </trkpt>
      <trkpt lat="46.82533" lon="1.24492">
        <ele>81.8</ele>
        <time>2026-03-14T09:34:37Z</time>
      </trkpt>
      <trkpt lat="46.82508" lon="1.24415">
        <ele>82.2</ele>
        <time>2026-03-14T09:34:46Z</time>
      </trkpt>
      <trkpt lat="46.82505" lon="1.24406">
        <ele>82.2</ele>
        <time>2026-03-14T09:34:47Z</time>
      </trkpt>
      <trkpt lat="46.82483" lon="1.24332">
        <ele>82</ele>
        <time>2026-03-14T09:34:55Z</time>
      </trkpt>
      <trkpt lat="46.82478" lon="1.24313">
        <ele>81.8</ele>
        <time>2026-03-14T09:34:57Z</time>
      </trkpt>
      <trkpt lat="46.82468" lon="1.24283">
        <ele>81.2</ele>
        <time>2026-03-14T09:35:00Z</time>
      </trkpt>
      <trkpt lat="46.82449" lon="1.2422">
        <ele>81</ele>
        <time>2026-03-14T09:35:06Z</time>
      </trkpt>
      <trkpt lat="46.82425" lon="1.24141">
        <ele>80.8</ele>
        <time>2026-03-14T09:35:14Z</time>
      </trkpt>
      <trkpt lat="46.82418" lon="1.24119">
        <ele>80.4</ele>
        <time>2026-03-14T09:35:16Z</time>
      </trkpt>
      <trkpt lat="46.82416" lon="1.2411">
        <ele>80.2</ele>
        <time>2026-03-14T09:35:17Z</time>
      </trkpt>
      <trkpt lat="46.82393" lon="1.24038">
        <ele>79.6</ele>
        <time>2026-03-14T09:35:24Z</time>
      </trkpt>
      <trkpt lat="46.8239" lon="1.24027">
        <ele>79.6</ele>
        <time>2026-03-14T09:35:25Z</time>
      </trkpt>
      <trkpt lat="46.8238" lon="1.23994">
        <ele>79.2</ele>
        <time>2026-03-14T09:35:28Z</time>
      </trkpt>
      <trkpt lat="46.8236" lon="1.23927">
        <ele>78.2</ele>
        <time>2026-03-14T09:35:34Z</time>
      </trkpt>
      <trkpt lat="46.82356" lon="1.23916">
        <ele>78</ele>
        <time>2026-03-14T09:35:35Z</time>
      </trkpt>
      <trkpt lat="46.82352" lon="1.23902">
        <ele>77.8</ele>
        <time>2026-03-14T09:35:36Z</time>
      </trkpt>
      <trkpt lat="46.82335" lon="1.23847">
        <ele>77</ele>
        <time>2026-03-14T09:35:41Z</time>
      </trkpt>
      <trkpt lat="46.82322" lon="1.23803">
        <ele>76.6</ele>
        <time>2026-03-14T09:35:45Z</time>
      </trkpt>
      <trkpt lat="46.82301" lon="1.23738">
        <ele>76</ele>
        <time>2026-03-14T09:35:51Z</time>
      </trkpt>
      <trkpt lat="46.82291" lon="1.23705">
        <ele>75.8</ele>
        <time>2026-03-14T09:35:54Z</time>
      </trkpt>
      <trkpt lat="46.82267" lon="1.23627">
        <ele>75.6</ele>
        <time>2026-03-14T09:36:02Z</time>
      </trkpt>
      <trkpt lat="46.82261" lon="1.23605">
        <ele>75.6</ele>
        <time>2026-03-14T09:36:04Z</time>
      </trkpt>
      <trkpt lat="46.82237" lon="1.23529">
        <ele>75.2</ele>
        <time>2026-03-14T09:36:12Z</time>
      </trkpt>
      <trkpt lat="46.82229" lon="1.235">
        <ele>75.2</ele>
        <time>2026-03-14T09:36:15Z</time>
      </trkpt>
      <trkpt lat="46.82205" lon="1.23425">
        <ele>75.2</ele>
        <time>2026-03-14T09:36:23Z</time>
      </trkpt>
      <trkpt lat="46.82197" lon="1.23396">
        <ele>75.4</ele>
        <time>2026-03-14T09:36:26Z</time>
      </trkpt>
      <trkpt lat="46.82174" lon="1.23321">
        <ele>75.2</ele>
        <time>2026-03-14T09:36:34Z</time>
      </trkpt>
      <trkpt lat="46.82166" lon="1.23293">
        <ele>75.2</ele>
        <time>2026-03-14T09:36:37Z</time>
      </trkpt>
      <trkpt lat="46.82163" lon="1.23284">
        <ele>75.2</ele>
        <time>2026-03-14T09:36:38Z</time>
      </trkpt>
      <trkpt lat="46.82139" lon="1.23209">
        <ele>75.4</ele>
        <time>2026-03-14T09:36:46Z</time>
      </trkpt>
      <trkpt lat="46.82137" lon="1.23202">
        <ele>75.4</ele>
        <time>2026-03-14T09:36:47Z</time>
      </trkpt>
      <trkpt lat="46.82119" lon="1.23136">
        <ele>75.8</ele>
        <time>2026-03-14T09:36:54Z</time>
      </trkpt>
      <trkpt lat="46.82106" lon="1.23052">
        <ele>76.4</ele>
        <time>2026-03-14T09:37:03Z</time>
      </trkpt>
      <trkpt lat="46.82096" lon="1.22971">
        <ele>77</ele>
        <time>2026-03-14T09:37:11Z</time>
      </trkpt>
      <trkpt lat="46.82093" lon="1.22945">
        <ele>77</ele>
        <time>2026-03-14T09:37:13Z</time>
      </trkpt>
      <trkpt lat="46.82089" lon="1.22886">
        <ele>77</ele>
        <time>2026-03-14T09:37:18Z</time>
      </trkpt>
      <trkpt lat="46.82078" lon="1.22796">
        <ele>76.4</ele>
        <time>2026-03-14T09:37:26Z</time>
      </trkpt>
      <trkpt lat="46.8207" lon="1.22717">
        <ele>75.6</ele>
        <time>2026-03-14T09:37:33Z</time>
      </trkpt>
      <trkpt lat="46.82065" lon="1.22667">
        <ele>75</ele>
        <time>2026-03-14T09:37:37Z</time>
      </trkpt>
      <trkpt lat="46.82064" lon="1.22658">
        <ele>74.8</ele>
        <time>2026-03-14T09:37:38Z</time>
      </trkpt>
      <trkpt lat="46.82057" lon="1.22581">
        <ele>74</ele>
        <time>2026-03-14T09:37:45Z</time>
      </trkpt>
      <trkpt lat="46.82047" lon="1.22499">
        <ele>74.2</ele>
        <time>2026-03-14T09:37:53Z</time>
      </trkpt>
      <trkpt lat="46.82045" lon="1.22479">
        <ele>74.2</ele>
        <time>2026-03-14T09:37:55Z</time>
      </trkpt>
      <trkpt lat="46.82038" lon="1.22403">
        <ele>74.8</ele>
        <time>2026-03-14T09:38:03Z</time>
      </trkpt>
      <trkpt lat="46.82029" lon="1.22319">
        <ele>74.8</ele>
        <time>2026-03-14T09:38:12Z</time>
      </trkpt>
      <trkpt lat="46.8202" lon="1.22234">
        <ele>74.6</ele>
        <time>2026-03-14T09:38:21Z</time>
      </trkpt>
      <trkpt lat="46.82012" lon="1.2215">
        <ele>74.4</ele>
        <time>2026-03-14T09:38:30Z</time>
      </trkpt>
      <trkpt lat="46.82005" lon="1.22067">
        <ele>74.2</ele>
        <time>2026-03-14T09:38:39Z</time>
      </trkpt>
      <trkpt lat="46.82005" lon="1.22056">
        <ele>74.2</ele>
        <time>2026-03-14T09:38:40Z</time>
      </trkpt>
      <trkpt lat="46.82004" lon="1.21976">
        <ele>74.2</ele>
        <time>2026-03-14T09:38:49Z</time>
      </trkpt>
      <trkpt lat="46.82004" lon="1.21965">
        <ele>74.2</ele>
        <time>2026-03-14T09:38:50Z</time>
      </trkpt>
      <trkpt lat="46.82003" lon="1.21931">
        <ele>74.2</ele>
        <time>2026-03-14T09:38:55Z</time>
      </trkpt>
      <trkpt lat="46.82002" lon="1.21878">
        <ele>73.8</ele>
        <time>2026-03-14T09:39:02Z</time>
      </trkpt>
      <trkpt lat="46.82003" lon="1.2187">
        <ele>73.8</ele>
        <time>2026-03-14T09:39:03Z</time>
      </trkpt>
      <trkpt lat="46.82001" lon="1.218">
        <ele>73.8</ele>
        <time>2026-03-14T09:39:11Z</time>
      </trkpt>
      <trkpt lat="46.82" lon="1.21721">
        <ele>73.6</ele>
        <time>2026-03-14T09:39:20Z</time>
      </trkpt>
      <trkpt lat="46.81999" lon="1.21637">
        <ele>73.6</ele>
        <time>2026-03-14T09:39:29Z</time>
      </trkpt>
      <trkpt lat="46.81999" lon="1.21618">
        <ele>73.6</ele>
        <time>2026-03-14T09:39:31Z</time>
      </trkpt>
      <trkpt lat="46.81996" lon="1.21534">
        <ele>73.4</ele>
        <time>2026-03-14T09:39:40Z</time>
      </trkpt>
      <trkpt lat="46.81994" lon="1.21451">
        <ele>73.2</ele>
        <time>2026-03-14T09:39:49Z</time>
      </trkpt>
      <trkpt lat="46.81994" lon="1.21442">
        <ele>73.2</ele>
        <time>2026-03-14T09:39:50Z</time>
      </trkpt>
      <trkpt lat="46.81992" lon="1.21388">
        <ele>73</ele>
        <time>2026-03-14T09:39:56Z</time>
      </trkpt>
      <trkpt lat="46.81985" lon="1.21318">
        <ele>73.4</ele>
        <time>2026-03-14T09:40:04Z</time>
      </trkpt>
      <trkpt lat="46.8198" lon="1.21293">
        <ele>73.6</ele>
        <time>2026-03-14T09:40:07Z</time>
      </trkpt>
      <trkpt lat="46.81978" lon="1.21287">
        <ele>73.8</ele>
        <time>2026-03-14T09:40:08Z</time>
      </trkpt>
      <trkpt lat="46.81977" lon="1.2128">
        <ele>73.8</ele>
        <time>2026-03-14T09:40:09Z</time>
      </trkpt>
      <trkpt lat="46.81975" lon="1.21265">
        <ele>73.6</ele>
        <time>2026-03-14T09:40:11Z</time>
      </trkpt>
      <trkpt lat="46.81975" lon="1.2126">
        <ele>73.6</ele>
        <time>2026-03-14T09:40:12Z</time>
      </trkpt>
      <trkpt lat="46.81974" lon="1.21254">
        <ele>73.6</ele>
        <time>2026-03-14T09:40:13Z</time>
      </trkpt>
      <trkpt lat="46.81976" lon="1.21243">
        <ele>73.6</ele>
        <time>2026-03-14T09:40:16Z</time>
      </trkpt>
      <trkpt lat="46.81976" lon="1.21232">
        <ele>73.4</ele>
        <time>2026-03-14T09:40:20Z</time>
      </trkpt>
      <trkpt lat="46.81974" lon="1.2123">
        <ele>73.4</ele>
        <time>2026-03-14T09:40:21Z</time>
      </trkpt>
      <trkpt lat="46.81973" lon="1.21229">
        <ele>73.4</ele>
        <time>2026-03-14T09:40:24Z</time>
      </trkpt>
      <trkpt lat="46.81974" lon="1.21229">
        <ele>73.2</ele>
        <time>2026-03-14T09:40:25Z</time>
      </trkpt>
      <trkpt lat="46.81974" lon="1.21229">
        <ele>73.2</ele>
        <time>2026-03-14T09:40:26Z</time>
      </trkpt>
      <trkpt lat="46.81987" lon="1.2123">
        <ele>73</ele>
        <time>2026-03-14T09:53:58Z</time>
      </trkpt>
      <trkpt lat="46.81987" lon="1.21229">
        <ele>73</ele>
        <time>2026-03-14T09:53:59Z</time>
      </trkpt>
      <trkpt lat="46.81987" lon="1.21229">
        <ele>73</ele>
        <time>2026-03-14T09:54:01Z</time>
      </trkpt>
      <trkpt lat="46.81987" lon="1.21229">
        <ele>73</ele>
        <time>2026-03-14T09:54:02Z</time>
      </trkpt>
      <trkpt lat="46.81988" lon="1.21226">
        <ele>72.8</ele>
        <time>2026-03-14T09:54:10Z</time>
      </trkpt>
      <trkpt lat="46.8199" lon="1.21217">
        <ele>72.8</ele>
        <time>2026-03-14T09:54:12Z</time>
      </trkpt>
      <trkpt lat="46.81996" lon="1.21183">
        <ele>72.8</ele>
        <time>2026-03-14T09:54:18Z</time>
      </trkpt>
      <trkpt lat="46.82002" lon="1.21153">
        <ele>72.8</ele>
        <time>2026-03-14T09:54:23Z</time>
      </trkpt>
      <trkpt lat="46.82005" lon="1.21149">
        <ele>72.8</ele>
        <time>2026-03-14T09:54:24Z</time>
      </trkpt>
      <trkpt lat="46.82023" lon="1.21116">
        <ele>72.8</ele>
        <time>2026-03-14T09:54:30Z</time>
      </trkpt>
      <trkpt lat="46.82056" lon="1.21058">
        <ele>72.6</ele>
        <time>2026-03-14T09:54:39Z</time>
      </trkpt>
      <trkpt lat="46.82087" lon="1.21005">
        <ele>72.4</ele>
        <time>2026-03-14T09:54:47Z</time>
      </trkpt>
      <trkpt lat="46.82117" lon="1.20954">
        <ele>72.4</ele>
        <time>2026-03-14T09:54:55Z</time>
      </trkpt>
      <trkpt lat="46.82129" lon="1.20926">
        <ele>72.6</ele>
        <time>2026-03-14T09:54:59Z</time>
      </trkpt>
      <trkpt lat="46.8213" lon="1.20919">
        <ele>72.8</ele>
        <time>2026-03-14T09:55:00Z</time>
      </trkpt>
      <trkpt lat="46.82132" lon="1.20902">
        <ele>72.8</ele>
        <time>2026-03-14T09:55:02Z</time>
      </trkpt>
      <trkpt lat="46.82131" lon="1.20887">
        <ele>73</ele>
        <time>2026-03-14T09:55:04Z</time>
      </trkpt>
      <trkpt lat="46.82131" lon="1.20881">
        <ele>73</ele>
        <time>2026-03-14T09:55:05Z</time>
      </trkpt>
      <trkpt lat="46.82127" lon="1.20849">
        <ele>73.4</ele>
        <time>2026-03-14T09:55:09Z</time>
      </trkpt>
      <trkpt lat="46.82126" lon="1.20841">
        <ele>73.4</ele>
        <time>2026-03-14T09:55:10Z</time>
      </trkpt>
      <trkpt lat="46.82122" lon="1.20816">
        <ele>73.6</ele>
        <time>2026-03-14T09:55:13Z</time>
      </trkpt>
      <trkpt lat="46.8212" lon="1.2079">
        <ele>73.6</ele>
        <time>2026-03-14T09:55:16Z</time>
      </trkpt>
      <trkpt lat="46.82119" lon="1.20781">
        <ele>73.6</ele>
        <time>2026-03-14T09:55:17Z</time>
      </trkpt>
      <trkpt lat="46.82117" lon="1.20763">
        <ele>73.6</ele>
        <time>2026-03-14T09:55:19Z</time>
      </trkpt>
      <trkpt lat="46.82117" lon="1.20754">
        <ele>73.6</ele>
        <time>2026-03-14T09:55:20Z</time>
      </trkpt>
      <trkpt lat="46.82114" lon="1.20678">
        <ele>73.6</ele>
        <time>2026-03-14T09:55:28Z</time>
      </trkpt>
      <trkpt lat="46.82109" lon="1.20604">
        <ele>73.6</ele>
        <time>2026-03-14T09:55:37Z</time>
      </trkpt>
      <trkpt lat="46.82103" lon="1.20522">
        <ele>73.6</ele>
        <time>2026-03-14T09:55:46Z</time>
      </trkpt>
      <trkpt lat="46.82105" lon="1.20458">
        <ele>73.6</ele>
        <time>2026-03-14T09:55:53Z</time>
      </trkpt>
      <trkpt lat="46.82107" lon="1.20449">
        <ele>73.6</ele>
        <time>2026-03-14T09:55:54Z</time>
      </trkpt>
      <trkpt lat="46.82115" lon="1.20415">
        <ele>73.6</ele>
        <time>2026-03-14T09:55:58Z</time>
      </trkpt>
      <trkpt lat="46.82141" lon="1.20352">
        <ele>74</ele>
        <time>2026-03-14T09:56:06Z</time>
      </trkpt>
      <trkpt lat="46.82157" lon="1.20312">
        <ele>74.2</ele>
        <time>2026-03-14T09:56:11Z</time>
      </trkpt>
      <trkpt lat="46.82172" lon="1.20273">
        <ele>74.4</ele>
        <time>2026-03-14T09:56:16Z</time>
      </trkpt>
      <trkpt lat="46.82195" lon="1.20219">
        <ele>74.6</ele>
        <time>2026-03-14T09:56:23Z</time>
      </trkpt>
      <trkpt lat="46.8222" lon="1.20155">
        <ele>75.2</ele>
        <time>2026-03-14T09:56:31Z</time>
      </trkpt>
      <trkpt lat="46.82245" lon="1.20094">
        <ele>75.2</ele>
        <time>2026-03-14T09:56:39Z</time>
      </trkpt>
      <trkpt lat="46.82252" lon="1.20079">
        <ele>75.2</ele>
        <time>2026-03-14T09:56:41Z</time>
      </trkpt>
      <trkpt lat="46.82264" lon="1.20048">
        <ele>75.6</ele>
        <time>2026-03-14T09:56:45Z</time>
      </trkpt>
      <trkpt lat="46.82292" lon="1.19979">
        <ele>76.2</ele>
        <time>2026-03-14T09:56:54Z</time>
      </trkpt>
      <trkpt lat="46.82295" lon="1.19971">
        <ele>76.2</ele>
        <time>2026-03-14T09:56:55Z</time>
      </trkpt>
      <trkpt lat="46.82321" lon="1.19911">
        <ele>76.8</ele>
        <time>2026-03-14T09:57:03Z</time>
      </trkpt>
      <trkpt lat="46.82342" lon="1.19867">
        <ele>77.2</ele>
        <time>2026-03-14T09:57:09Z</time>
      </trkpt>
      <trkpt lat="46.82349" lon="1.19853">
        <ele>77.4</ele>
        <time>2026-03-14T09:57:11Z</time>
      </trkpt>
      <trkpt lat="46.82378" lon="1.19796">
        <ele>77.4</ele>
        <time>2026-03-14T09:57:19Z</time>
      </trkpt>
      <trkpt lat="46.82412" lon="1.19735">
        <ele>78</ele>
        <time>2026-03-14T09:57:28Z</time>
      </trkpt>
      <trkpt lat="46.82415" lon="1.19728">
        <ele>78</ele>
        <time>2026-03-14T09:57:29Z</time>
      </trkpt>
      <trkpt lat="46.8243" lon="1.19701">
        <ele>78.2</ele>
        <time>2026-03-14T09:57:33Z</time>
      </trkpt>
      <trkpt lat="46.82447" lon="1.1967">
        <ele>78.6</ele>
        <time>2026-03-14T09:57:38Z</time>
      </trkpt>
      <trkpt lat="46.82471" lon="1.19627">
        <ele>79.4</ele>
        <time>2026-03-14T09:57:45Z</time>
      </trkpt>
      <trkpt lat="46.82497" lon="1.19588">
        <ele>80.2</ele>
        <time>2026-03-14T09:57:52Z</time>
      </trkpt>
      <trkpt lat="46.82503" lon="1.19575">
        <ele>80.4</ele>
        <time>2026-03-14T09:57:54Z</time>
      </trkpt>
      <trkpt lat="46.82524" lon="1.19537">
        <ele>81.2</ele>
        <time>2026-03-14T09:58:00Z</time>
      </trkpt>
      <trkpt lat="46.82531" lon="1.19525">
        <ele>81.2</ele>
        <time>2026-03-14T09:58:02Z</time>
      </trkpt>
      <trkpt lat="46.82538" lon="1.19512">
        <ele>81.4</ele>
        <time>2026-03-14T09:58:04Z</time>
      </trkpt>
      <trkpt lat="46.82543" lon="1.19504">
        <ele>81.4</ele>
        <time>2026-03-14T09:58:05Z</time>
      </trkpt>
      <trkpt lat="46.8257" lon="1.19454">
        <ele>81.4</ele>
        <time>2026-03-14T09:58:12Z</time>
      </trkpt>
      <trkpt lat="46.82603" lon="1.19394">
        <ele>81.2</ele>
        <time>2026-03-14T09:58:20Z</time>
      </trkpt>
      <trkpt lat="46.8263" lon="1.19341">
        <ele>81.2</ele>
        <time>2026-03-14T09:58:27Z</time>
      </trkpt>
      <trkpt lat="46.82659" lon="1.19293">
        <ele>81.2</ele>
        <time>2026-03-14T09:58:34Z</time>
      </trkpt>
      <trkpt lat="46.82687" lon="1.19244">
        <ele>81.2</ele>
        <time>2026-03-14T09:58:41Z</time>
      </trkpt>
      <trkpt lat="46.82714" lon="1.19197">
        <ele>81.2</ele>
        <time>2026-03-14T09:58:48Z</time>
      </trkpt>
      <trkpt lat="46.82717" lon="1.19191">
        <ele>81.2</ele>
        <time>2026-03-14T09:58:49Z</time>
      </trkpt>
      <trkpt lat="46.82731" lon="1.19164">
        <ele>81.4</ele>
        <time>2026-03-14T09:58:53Z</time>
      </trkpt>
      <trkpt lat="46.82745" lon="1.19139">
        <ele>82.2</ele>
        <time>2026-03-14T09:58:57Z</time>
      </trkpt>
      <trkpt lat="46.82756" lon="1.1912">
        <ele>82.6</ele>
        <time>2026-03-14T09:59:00Z</time>
      </trkpt>
      <trkpt lat="46.82773" lon="1.19088">
        <ele>83.2</ele>
        <time>2026-03-14T09:59:05Z</time>
      </trkpt>
      <trkpt lat="46.82787" lon="1.19063">
        <ele>83.8</ele>
        <time>2026-03-14T09:59:09Z</time>
      </trkpt>
      <trkpt lat="46.82808" lon="1.19024">
        <ele>84.4</ele>
        <time>2026-03-14T09:59:15Z</time>
      </trkpt>
      <trkpt lat="46.8282" lon="1.19">
        <ele>84.8</ele>
        <time>2026-03-14T09:59:19Z</time>
      </trkpt>
      <trkpt lat="46.8284" lon="1.1896">
        <ele>85.4</ele>
        <time>2026-03-14T09:59:25Z</time>
      </trkpt>
      <trkpt lat="46.82871" lon="1.18908">
        <ele>85.6</ele>
        <time>2026-03-14T09:59:33Z</time>
      </trkpt>
      <trkpt lat="46.829" lon="1.18852">
        <ele>85.4</ele>
        <time>2026-03-14T09:59:40Z</time>
      </trkpt>
      <trkpt lat="46.82937" lon="1.18785">
        <ele>84.2</ele>
        <time>2026-03-14T09:59:48Z</time>
      </trkpt>
      <trkpt lat="46.82973" lon="1.1872">
        <ele>84.6</ele>
        <time>2026-03-14T09:59:56Z</time>
      </trkpt>
      <trkpt lat="46.82981" lon="1.18705">
        <ele>84.6</ele>
        <time>2026-03-14T09:59:58Z</time>
      </trkpt>
      <trkpt lat="46.83015" lon="1.18643">
        <ele>84.8</ele>
        <time>2026-03-14T10:00:06Z</time>
      </trkpt>
      <trkpt lat="46.83019" lon="1.18635">
        <ele>84.8</ele>
        <time>2026-03-14T10:00:07Z</time>
      </trkpt>
      <trkpt lat="46.83057" lon="1.18567">
        <ele>84.2</ele>
        <time>2026-03-14T10:00:15Z</time>
      </trkpt>
      <trkpt lat="46.83074" lon="1.18537">
        <ele>83.6</ele>
        <time>2026-03-14T10:00:18Z</time>
      </trkpt>
      <trkpt lat="46.83091" lon="1.18505">
        <ele>82.6</ele>
        <time>2026-03-14T10:00:21Z</time>
      </trkpt>
      <trkpt lat="46.83096" lon="1.18495">
        <ele>82.2</ele>
        <time>2026-03-14T10:00:22Z</time>
      </trkpt>
      <trkpt lat="46.83105" lon="1.18477">
        <ele>81.4</ele>
        <time>2026-03-14T10:00:24Z</time>
      </trkpt>
      <trkpt lat="46.83129" lon="1.18433">
        <ele>80.4</ele>
        <time>2026-03-14T10:00:29Z</time>
      </trkpt>
      <trkpt lat="46.83134" lon="1.18424">
        <ele>80.4</ele>
        <time>2026-03-14T10:00:30Z</time>
      </trkpt>
      <trkpt lat="46.83169" lon="1.1836">
        <ele>80.2</ele>
        <time>2026-03-14T10:00:37Z</time>
      </trkpt>
      <trkpt lat="46.83197" lon="1.18311">
        <ele>80</ele>
        <time>2026-03-14T10:00:43Z</time>
      </trkpt>
      <trkpt lat="46.83232" lon="1.18248">
        <ele>80.4</ele>
        <time>2026-03-14T10:00:51Z</time>
      </trkpt>
      <trkpt lat="46.83237" lon="1.18241">
        <ele>80.4</ele>
        <time>2026-03-14T10:00:52Z</time>
      </trkpt>
      <trkpt lat="46.83275" lon="1.18171">
        <ele>81</ele>
        <time>2026-03-14T10:01:01Z</time>
      </trkpt>
      <trkpt lat="46.83279" lon="1.18163">
        <ele>81</ele>
        <time>2026-03-14T10:01:02Z</time>
      </trkpt>
      <trkpt lat="46.83314" lon="1.18099">
        <ele>80.6</ele>
        <time>2026-03-14T10:01:10Z</time>
      </trkpt>
      <trkpt lat="46.83329" lon="1.18072">
        <ele>80.4</ele>
        <time>2026-03-14T10:01:13Z</time>
      </trkpt>
      <trkpt lat="46.83367" lon="1.18004">
        <ele>80.4</ele>
        <time>2026-03-14T10:01:21Z</time>
      </trkpt>
      <trkpt lat="46.83376" lon="1.17988">
        <ele>80.4</ele>
        <time>2026-03-14T10:01:23Z</time>
      </trkpt>
      <trkpt lat="46.83412" lon="1.17924">
        <ele>80.4</ele>
        <time>2026-03-14T10:01:31Z</time>
      </trkpt>
      <trkpt lat="46.83447" lon="1.17859">
        <ele>80</ele>
        <time>2026-03-14T10:01:39Z</time>
      </trkpt>
      <trkpt lat="46.83464" lon="1.17826">
        <ele>79.8</ele>
        <time>2026-03-14T10:01:43Z</time>
      </trkpt>
      <trkpt lat="46.83486" lon="1.17785">
        <ele>80</ele>
        <time>2026-03-14T10:01:48Z</time>
      </trkpt>
      <trkpt lat="46.83513" lon="1.17734">
        <ele>80.4</ele>
        <time>2026-03-14T10:01:55Z</time>
      </trkpt>
      <trkpt lat="46.83541" lon="1.17685">
        <ele>81.2</ele>
        <time>2026-03-14T10:02:02Z</time>
      </trkpt>
      <trkpt lat="46.83551" lon="1.17665">
        <ele>81.4</ele>
        <time>2026-03-14T10:02:05Z</time>
      </trkpt>
      <trkpt lat="46.83563" lon="1.17642">
        <ele>81.4</ele>
        <time>2026-03-14T10:02:08Z</time>
      </trkpt>
      <trkpt lat="46.8357" lon="1.17631">
        <ele>81.6</ele>
        <time>2026-03-14T10:02:10Z</time>
      </trkpt>
      <trkpt lat="46.83593" lon="1.1759">
        <ele>82</ele>
        <time>2026-03-14T10:02:16Z</time>
      </trkpt>
      <trkpt lat="46.83612" lon="1.17556">
        <ele>82.8</ele>
        <time>2026-03-14T10:02:22Z</time>
      </trkpt>
      <trkpt lat="46.83624" lon="1.17536">
        <ele>83</ele>
        <time>2026-03-14T10:02:25Z</time>
      </trkpt>
      <trkpt lat="46.83632" lon="1.17523">
        <ele>83.2</ele>
        <time>2026-03-14T10:02:26Z</time>
      </trkpt>
      <trkpt lat="46.83644" lon="1.17503">
        <ele>83.8</ele>
        <time>2026-03-14T10:02:30Z</time>
      </trkpt>
      <trkpt lat="46.83651" lon="1.17491">
        <ele>83.8</ele>
        <time>2026-03-14T10:02:31Z</time>
      </trkpt>
      <trkpt lat="46.83678" lon="1.17442">
        <ele>84.4</ele>
        <time>2026-03-14T10:02:38Z</time>
      </trkpt>
      <trkpt lat="46.83679" lon="1.17436">
        <ele>84.6</ele>
        <time>2026-03-14T10:02:39Z</time>
      </trkpt>
      <trkpt lat="46.83695" lon="1.17406">
        <ele>84.8</ele>
        <time>2026-03-14T10:02:43Z</time>
      </trkpt>
      <trkpt lat="46.83706" lon="1.17387">
        <ele>85</ele>
        <time>2026-03-14T10:02:46Z</time>
      </trkpt>
      <trkpt lat="46.83733" lon="1.17338">
        <ele>85.8</ele>
        <time>2026-03-14T10:02:53Z</time>
      </trkpt>
      <trkpt lat="46.83739" lon="1.17326">
        <ele>86</ele>
        <time>2026-03-14T10:02:55Z</time>
      </trkpt>
      <trkpt lat="46.83761" lon="1.17289">
        <ele>86.8</ele>
        <time>2026-03-14T10:03:01Z</time>
      </trkpt>
      <trkpt lat="46.83765" lon="1.17282">
        <ele>87</ele>
        <time>2026-03-14T10:03:02Z</time>
      </trkpt>
      <trkpt lat="46.83785" lon="1.17245">
        <ele>88</ele>
        <time>2026-03-14T10:03:08Z</time>
      </trkpt>
      <trkpt lat="46.83787" lon="1.17241">
        <ele>88.2</ele>
        <time>2026-03-14T10:03:09Z</time>
      </trkpt>
      <trkpt lat="46.8379" lon="1.17235">
        <ele>88.4</ele>
        <time>2026-03-14T10:03:10Z</time>
      </trkpt>
      <trkpt lat="46.83796" lon="1.17224">
        <ele>88.8</ele>
        <time>2026-03-14T10:03:12Z</time>
      </trkpt>
      <trkpt lat="46.83799" lon="1.17217">
        <ele>88.8</ele>
        <time>2026-03-14T10:03:13Z</time>
      </trkpt>
      <trkpt lat="46.83802" lon="1.17212">
        <ele>89.2</ele>
        <time>2026-03-14T10:03:14Z</time>
      </trkpt>
      <trkpt lat="46.83804" lon="1.17208">
        <ele>89.4</ele>
        <time>2026-03-14T10:03:15Z</time>
      </trkpt>
      <trkpt lat="46.8381" lon="1.17198">
        <ele>89.8</ele>
        <time>2026-03-14T10:03:17Z</time>
      </trkpt>
      <trkpt lat="46.83816" lon="1.17188">
        <ele>90.2</ele>
        <time>2026-03-14T10:03:19Z</time>
      </trkpt>
      <trkpt lat="46.83821" lon="1.17177">
        <ele>90.6</ele>
        <time>2026-03-14T10:03:21Z</time>
      </trkpt>
      <trkpt lat="46.8383" lon="1.1716">
        <ele>91.2</ele>
        <time>2026-03-14T10:03:24Z</time>
      </trkpt>
      <trkpt lat="46.8384" lon="1.17142">
        <ele>92</ele>
        <time>2026-03-14T10:03:27Z</time>
      </trkpt>
      <trkpt lat="46.83846" lon="1.17131">
        <ele>92.4</ele>
        <time>2026-03-14T10:03:29Z</time>
      </trkpt>
      <trkpt lat="46.83848" lon="1.17126">
        <ele>92.6</ele>
        <time>2026-03-14T10:03:30Z</time>
      </trkpt>
      <trkpt lat="46.83858" lon="1.17108">
        <ele>93.2</ele>
        <time>2026-03-14T10:03:33Z</time>
      </trkpt>
      <trkpt lat="46.83865" lon="1.17098">
        <ele>93.4</ele>
        <time>2026-03-14T10:03:35Z</time>
      </trkpt>
      <trkpt lat="46.83871" lon="1.17088">
        <ele>94</ele>
        <time>2026-03-14T10:03:37Z</time>
      </trkpt>
      <trkpt lat="46.83874" lon="1.17082">
        <ele>94.4</ele>
        <time>2026-03-14T10:03:38Z</time>
      </trkpt>
      <trkpt lat="46.83877" lon="1.17078">
        <ele>94.4</ele>
        <time>2026-03-14T10:03:39Z</time>
      </trkpt>
      <trkpt lat="46.83881" lon="1.17073">
        <ele>94.6</ele>
        <time>2026-03-14T10:03:40Z</time>
      </trkpt>
      <trkpt lat="46.83886" lon="1.17063">
        <ele>95.2</ele>
        <time>2026-03-14T10:03:42Z</time>
      </trkpt>
      <trkpt lat="46.83889" lon="1.17058">
        <ele>95.4</ele>
        <time>2026-03-14T10:03:43Z</time>
      </trkpt>
      <trkpt lat="46.83895" lon="1.17046">
        <ele>96</ele>
        <time>2026-03-14T10:03:45Z</time>
      </trkpt>
      <trkpt lat="46.839" lon="1.17036">
        <ele>96.8</ele>
        <time>2026-03-14T10:03:47Z</time>
      </trkpt>
      <trkpt lat="46.83914" lon="1.17007">
        <ele>98</ele>
        <time>2026-03-14T10:03:52Z</time>
      </trkpt>
      <trkpt lat="46.83917" lon="1.17">
        <ele>98</ele>
        <time>2026-03-14T10:03:53Z</time>
      </trkpt>
      <trkpt lat="46.83927" lon="1.16979">
        <ele>99</ele>
        <time>2026-03-14T10:03:57Z</time>
      </trkpt>
      <trkpt lat="46.83942" lon="1.1695">
        <ele>99.8</ele>
        <time>2026-03-14T10:04:02Z</time>
      </trkpt>
      <trkpt lat="46.83949" lon="1.16938">
        <ele>100</ele>
        <time>2026-03-14T10:04:04Z</time>
      </trkpt>
      <trkpt lat="46.83967" lon="1.16904">
        <ele>100.8</ele>
        <time>2026-03-14T10:04:10Z</time>
      </trkpt>
      <trkpt lat="46.83981" lon="1.1688">
        <ele>101.2</ele>
        <time>2026-03-14T10:04:14Z</time>
      </trkpt>
      <trkpt lat="46.84002" lon="1.16839">
        <ele>101</ele>
        <time>2026-03-14T10:04:20Z</time>
      </trkpt>
      <trkpt lat="46.84038" lon="1.16771">
        <ele>100.8</ele>
        <time>2026-03-14T10:04:29Z</time>
      </trkpt>
      <trkpt lat="46.84043" lon="1.16763">
        <ele>100.8</ele>
        <time>2026-03-14T10:04:30Z</time>
      </trkpt>
      <trkpt lat="46.8406" lon="1.16732">
        <ele>100</ele>
        <time>2026-03-14T10:04:34Z</time>
      </trkpt>
      <trkpt lat="46.84076" lon="1.16702">
        <ele>99.8</ele>
        <time>2026-03-14T10:04:38Z</time>
      </trkpt>
      <trkpt lat="46.84112" lon="1.16635">
        <ele>99.8</ele>
        <time>2026-03-14T10:04:47Z</time>
      </trkpt>
      <trkpt lat="46.84112" lon="1.16635">
        <ele>99.8</ele>
        <time>2026-03-14T10:04:48Z</time>
      </trkpt>
      <trkpt lat="46.84145" lon="1.16569">
        <ele>100.4</ele>
        <time>2026-03-14T10:04:57Z</time>
      </trkpt>
      <trkpt lat="46.84176" lon="1.16515">
        <ele>100.8</ele>
        <time>2026-03-14T10:05:04Z</time>
      </trkpt>
      <trkpt lat="46.84186" lon="1.16496">
        <ele>101.2</ele>
        <time>2026-03-14T10:05:08Z</time>
      </trkpt>
      <trkpt lat="46.84198" lon="1.16471">
        <ele>101.6</ele>
        <time>2026-03-14T10:05:12Z</time>
      </trkpt>
      <trkpt lat="46.84208" lon="1.16452">
        <ele>102.2</ele>
        <time>2026-03-14T10:05:14Z</time>
      </trkpt>
      <trkpt lat="46.84211" lon="1.16446">
        <ele>102.2</ele>
        <time>2026-03-14T10:05:15Z</time>
      </trkpt>
      <trkpt lat="46.84218" lon="1.16434">
        <ele>102.8</ele>
        <time>2026-03-14T10:05:18Z</time>
      </trkpt>
      <trkpt lat="46.84234" lon="1.16404">
        <ele>103.4</ele>
        <time>2026-03-14T10:05:23Z</time>
      </trkpt>
      <trkpt lat="46.84251" lon="1.16375">
        <ele>104.6</ele>
        <time>2026-03-14T10:05:28Z</time>
      </trkpt>
      <trkpt lat="46.84259" lon="1.16357">
        <ele>104.8</ele>
        <time>2026-03-14T10:05:30Z</time>
      </trkpt>
      <trkpt lat="46.84278" lon="1.16323">
        <ele>105.6</ele>
        <time>2026-03-14T10:05:36Z</time>
      </trkpt>
      <trkpt lat="46.84287" lon="1.16305">
        <ele>106</ele>
        <time>2026-03-14T10:05:39Z</time>
      </trkpt>
      <trkpt lat="46.84306" lon="1.1627">
        <ele>106.8</ele>
        <time>2026-03-14T10:05:46Z</time>
      </trkpt>
      <trkpt lat="46.84317" lon="1.16251">
        <ele>107</ele>
        <time>2026-03-14T10:05:49Z</time>
      </trkpt>
      <trkpt lat="46.84349" lon="1.16192">
        <ele>107.8</ele>
        <time>2026-03-14T10:05:58Z</time>
      </trkpt>
      <trkpt lat="46.84356" lon="1.16179">
        <ele>107.8</ele>
        <time>2026-03-14T10:05:59Z</time>
      </trkpt>
      <trkpt lat="46.84387" lon="1.16123">
        <ele>108.2</ele>
        <time>2026-03-14T10:06:07Z</time>
      </trkpt>
      <trkpt lat="46.84407" lon="1.16084">
        <ele>108.2</ele>
        <time>2026-03-14T10:06:13Z</time>
      </trkpt>
      <trkpt lat="46.84437" lon="1.16031">
        <ele>107.4</ele>
        <time>2026-03-14T10:06:19Z</time>
      </trkpt>
      <trkpt lat="46.84463" lon="1.15981">
        <ele>106.6</ele>
        <time>2026-03-14T10:06:23Z</time>
      </trkpt>
      <trkpt lat="46.84479" lon="1.15953">
        <ele>106</ele>
        <time>2026-03-14T10:06:26Z</time>
      </trkpt>
      <trkpt lat="46.84499" lon="1.15915">
        <ele>105.6</ele>
        <time>2026-03-14T10:06:30Z</time>
      </trkpt>
      <trkpt lat="46.84524" lon="1.15869">
        <ele>105</ele>
        <time>2026-03-14T10:06:35Z</time>
      </trkpt>
      <trkpt lat="46.84538" lon="1.15842">
        <ele>104.6</ele>
        <time>2026-03-14T10:06:38Z</time>
      </trkpt>
      <trkpt lat="46.84573" lon="1.15778">
        <ele>104.6</ele>
        <time>2026-03-14T10:06:46Z</time>
      </trkpt>
      <trkpt lat="46.84577" lon="1.1577">
        <ele>104.6</ele>
        <time>2026-03-14T10:06:47Z</time>
      </trkpt>
      <trkpt lat="46.84611" lon="1.15706">
        <ele>105.4</ele>
        <time>2026-03-14T10:06:55Z</time>
      </trkpt>
      <trkpt lat="46.84615" lon="1.15699">
        <ele>105.4</ele>
        <time>2026-03-14T10:06:56Z</time>
      </trkpt>
      <trkpt lat="46.84651" lon="1.15632">
        <ele>105</ele>
        <time>2026-03-14T10:07:04Z</time>
      </trkpt>
      <trkpt lat="46.84666" lon="1.15606">
        <ele>104.8</ele>
        <time>2026-03-14T10:07:07Z</time>
      </trkpt>
      <trkpt lat="46.84698" lon="1.15548">
        <ele>103.8</ele>
        <time>2026-03-14T10:07:13Z</time>
      </trkpt>
      <trkpt lat="46.84703" lon="1.15538">
        <ele>103.6</ele>
        <time>2026-03-14T10:07:14Z</time>
      </trkpt>
      <trkpt lat="46.8472" lon="1.15507">
        <ele>102.2</ele>
        <time>2026-03-14T10:07:17Z</time>
      </trkpt>
      <trkpt lat="46.84737" lon="1.15476">
        <ele>100.8</ele>
        <time>2026-03-14T10:07:20Z</time>
      </trkpt>
      <trkpt lat="46.84755" lon="1.15443">
        <ele>99.6</ele>
        <time>2026-03-14T10:07:24Z</time>
      </trkpt>
      <trkpt lat="46.84766" lon="1.15419">
        <ele>98</ele>
        <time>2026-03-14T10:07:27Z</time>
      </trkpt>
      <trkpt lat="46.84774" lon="1.15402">
        <ele>97.4</ele>
        <time>2026-03-14T10:07:29Z</time>
      </trkpt>
      <trkpt lat="46.84779" lon="1.15394">
        <ele>97</ele>
        <time>2026-03-14T10:07:30Z</time>
      </trkpt>
      <trkpt lat="46.848" lon="1.15358">
        <ele>95.6</ele>
        <time>2026-03-14T10:07:34Z</time>
      </trkpt>
      <trkpt lat="46.84805" lon="1.15349">
        <ele>95.2</ele>
        <time>2026-03-14T10:07:35Z</time>
      </trkpt>
      <trkpt lat="46.84815" lon="1.15332">
        <ele>94.4</ele>
        <time>2026-03-14T10:07:37Z</time>
      </trkpt>
      <trkpt lat="46.84835" lon="1.15293">
        <ele>93</ele>
        <time>2026-03-14T10:07:41Z</time>
      </trkpt>
      <trkpt lat="46.8484" lon="1.15283">
        <ele>92.6</ele>
        <time>2026-03-14T10:07:42Z</time>
      </trkpt>
      <trkpt lat="46.84846" lon="1.15272">
        <ele>92</ele>
        <time>2026-03-14T10:07:44Z</time>
      </trkpt>
      <trkpt lat="46.84867" lon="1.15235">
        <ele>90.6</ele>
        <time>2026-03-14T10:07:47Z</time>
      </trkpt>
      <trkpt lat="46.84889" lon="1.15196">
        <ele>89.6</ele>
        <time>2026-03-14T10:07:51Z</time>
      </trkpt>
      <trkpt lat="46.84894" lon="1.15186">
        <ele>89.2</ele>
        <time>2026-03-14T10:07:52Z</time>
      </trkpt>
      <trkpt lat="46.8491" lon="1.15158">
        <ele>88.4</ele>
        <time>2026-03-14T10:07:55Z</time>
      </trkpt>
      <trkpt lat="46.84918" lon="1.15142">
        <ele>88</ele>
        <time>2026-03-14T10:07:57Z</time>
      </trkpt>
      <trkpt lat="46.84927" lon="1.15126">
        <ele>87.6</ele>
        <time>2026-03-14T10:07:59Z</time>
      </trkpt>
      <trkpt lat="46.84931" lon="1.15118">
        <ele>87.2</ele>
        <time>2026-03-14T10:08:00Z</time>
      </trkpt>
      <trkpt lat="46.84943" lon="1.15093">
        <ele>87</ele>
        <time>2026-03-14T10:08:03Z</time>
      </trkpt>
      <trkpt lat="46.8497" lon="1.15027">
        <ele>86.4</ele>
        <time>2026-03-14T10:08:11Z</time>
      </trkpt>
      <trkpt lat="46.8499" lon="1.1497">
        <ele>86.6</ele>
        <time>2026-03-14T10:08:18Z</time>
      </trkpt>
      <trkpt lat="46.85007" lon="1.14921">
        <ele>86.4</ele>
        <time>2026-03-14T10:08:24Z</time>
      </trkpt>
      <trkpt lat="46.85022" lon="1.14871">
        <ele>86.2</ele>
        <time>2026-03-14T10:08:30Z</time>
      </trkpt>
      <trkpt lat="46.85027" lon="1.14854">
        <ele>86.2</ele>
        <time>2026-03-14T10:08:32Z</time>
      </trkpt>
      <trkpt lat="46.85048" lon="1.14795">
        <ele>86.2</ele>
        <time>2026-03-14T10:08:39Z</time>
      </trkpt>
      <trkpt lat="46.85059" lon="1.14742">
        <ele>86.2</ele>
        <time>2026-03-14T10:08:45Z</time>
      </trkpt>
      <trkpt lat="46.85065" lon="1.14681">
        <ele>86</ele>
        <time>2026-03-14T10:08:52Z</time>
      </trkpt>
      <trkpt lat="46.85068" lon="1.14613">
        <ele>85.8</ele>
        <time>2026-03-14T10:09:00Z</time>
      </trkpt>
      <trkpt lat="46.85071" lon="1.1456">
        <ele>87</ele>
        <time>2026-03-14T10:09:07Z</time>
      </trkpt>
      <trkpt lat="46.85072" lon="1.14538">
        <ele>87.4</ele>
        <time>2026-03-14T10:09:10Z</time>
      </trkpt>
      <trkpt lat="46.85072" lon="1.14506">
        <ele>88.2</ele>
        <time>2026-03-14T10:09:14Z</time>
      </trkpt>
      <trkpt lat="46.85072" lon="1.14491">
        <ele>88.4</ele>
        <time>2026-03-14T10:09:16Z</time>
      </trkpt>
      <trkpt lat="46.85072" lon="1.14455">
        <ele>89.6</ele>
        <time>2026-03-14T10:09:21Z</time>
      </trkpt>
      <trkpt lat="46.85073" lon="1.14438">
        <ele>90</ele>
        <time>2026-03-14T10:09:23Z</time>
      </trkpt>
      <trkpt lat="46.85072" lon="1.14409">
        <ele>90.6</ele>
        <time>2026-03-14T10:09:27Z</time>
      </trkpt>
      <trkpt lat="46.85073" lon="1.14402">
        <ele>90.8</ele>
        <time>2026-03-14T10:09:28Z</time>
      </trkpt>
      <trkpt lat="46.85073" lon="1.14389">
        <ele>91</ele>
        <time>2026-03-14T10:09:30Z</time>
      </trkpt>
      <trkpt lat="46.85075" lon="1.14377">
        <ele>91.2</ele>
        <time>2026-03-14T10:09:32Z</time>
      </trkpt>
      <trkpt lat="46.85076" lon="1.14371">
        <ele>91.4</ele>
        <time>2026-03-14T10:09:33Z</time>
      </trkpt>
      <trkpt lat="46.85077" lon="1.14353">
        <ele>91.8</ele>
        <time>2026-03-14T10:09:36Z</time>
      </trkpt>
      <trkpt lat="46.85077" lon="1.14345">
        <ele>92</ele>
        <time>2026-03-14T10:09:37Z</time>
      </trkpt>
      <trkpt lat="46.85079" lon="1.14311">
        <ele>93</ele>
        <time>2026-03-14T10:09:43Z</time>
      </trkpt>
      <trkpt lat="46.8508" lon="1.14291">
        <ele>93.2</ele>
        <time>2026-03-14T10:09:45Z</time>
      </trkpt>
      <trkpt lat="46.85082" lon="1.14238">
        <ele>94</ele>
        <time>2026-03-14T10:09:52Z</time>
      </trkpt>
      <trkpt lat="46.85082" lon="1.1423">
        <ele>94.4</ele>
        <time>2026-03-14T10:09:54Z</time>
      </trkpt>
      <trkpt lat="46.85085" lon="1.14158">
        <ele>94.8</ele>
        <time>2026-03-14T10:10:02Z</time>
      </trkpt>
      <trkpt lat="46.85085" lon="1.14151">
        <ele>95</ele>
        <time>2026-03-14T10:10:03Z</time>
      </trkpt>
      <trkpt lat="46.85085" lon="1.14143">
        <ele>95</ele>
        <time>2026-03-14T10:10:04Z</time>
      </trkpt>
      <trkpt lat="46.85089" lon="1.14058">
        <ele>95.8</ele>
        <time>2026-03-14T10:10:14Z</time>
      </trkpt>
      <trkpt lat="46.85091" lon="1.1399">
        <ele>95.8</ele>
        <time>2026-03-14T10:10:22Z</time>
      </trkpt>
      <trkpt lat="46.85092" lon="1.13939">
        <ele>96</ele>
        <time>2026-03-14T10:10:28Z</time>
      </trkpt>
      <trkpt lat="46.85094" lon="1.13887">
        <ele>96.6</ele>
        <time>2026-03-14T10:10:34Z</time>
      </trkpt>
      <trkpt lat="46.85097" lon="1.13821">
        <ele>96.6</ele>
        <time>2026-03-14T10:10:41Z</time>
      </trkpt>
      <trkpt lat="46.85098" lon="1.13812">
        <ele>96.6</ele>
        <time>2026-03-14T10:10:42Z</time>
      </trkpt>
      <trkpt lat="46.85102" lon="1.1373">
        <ele>95.8</ele>
        <time>2026-03-14T10:10:50Z</time>
      </trkpt>
      <trkpt lat="46.85103" lon="1.13709">
        <ele>95.6</ele>
        <time>2026-03-14T10:10:52Z</time>
      </trkpt>
      <trkpt lat="46.85106" lon="1.13647">
        <ele>95</ele>
        <time>2026-03-14T10:10:58Z</time>
      </trkpt>
      <trkpt lat="46.85109" lon="1.13583">
        <ele>94</ele>
        <time>2026-03-14T10:11:04Z</time>
      </trkpt>
      <trkpt lat="46.85109" lon="1.13572">
        <ele>93.8</ele>
        <time>2026-03-14T10:11:05Z</time>
      </trkpt>
      <trkpt lat="46.85112" lon="1.13494">
        <ele>93</ele>
        <time>2026-03-14T10:11:12Z</time>
      </trkpt>
      <trkpt lat="46.85114" lon="1.1346">
        <ele>92.8</ele>
        <time>2026-03-14T10:11:15Z</time>
      </trkpt>
      <trkpt lat="46.85118" lon="1.1338">
        <ele>92</ele>
        <time>2026-03-14T10:11:22Z</time>
      </trkpt>
      <trkpt lat="46.8512" lon="1.13346">
        <ele>91.6</ele>
        <time>2026-03-14T10:11:25Z</time>
      </trkpt>
      <trkpt lat="46.85124" lon="1.13268">
        <ele>90.4</ele>
        <time>2026-03-14T10:11:32Z</time>
      </trkpt>
      <trkpt lat="46.85126" lon="1.13221">
        <ele>90</ele>
        <time>2026-03-14T10:11:36Z</time>
      </trkpt>
      <trkpt lat="46.85129" lon="1.13149">
        <ele>89.2</ele>
        <time>2026-03-14T10:11:42Z</time>
      </trkpt>
      <trkpt lat="46.85132" lon="1.13101">
        <ele>88.4</ele>
        <time>2026-03-14T10:11:46Z</time>
      </trkpt>
      <trkpt lat="46.85132" lon="1.1309">
        <ele>88.2</ele>
        <time>2026-03-14T10:11:47Z</time>
      </trkpt>
      <trkpt lat="46.85136" lon="1.13004">
        <ele>87.2</ele>
        <time>2026-03-14T10:11:55Z</time>
      </trkpt>
      <trkpt lat="46.85139" lon="1.1295">
        <ele>87.2</ele>
        <time>2026-03-14T10:12:01Z</time>
      </trkpt>
      <trkpt lat="46.85141" lon="1.12912">
        <ele>88.4</ele>
        <time>2026-03-14T10:12:06Z</time>
      </trkpt>
      <trkpt lat="46.85141" lon="1.12904">
        <ele>88.8</ele>
        <time>2026-03-14T10:12:07Z</time>
      </trkpt>
      <trkpt lat="46.85142" lon="1.12898">
        <ele>89</ele>
        <time>2026-03-14T10:12:08Z</time>
      </trkpt>
      <trkpt lat="46.85143" lon="1.12883">
        <ele>89.4</ele>
        <time>2026-03-14T10:12:10Z</time>
      </trkpt>
      <trkpt lat="46.85144" lon="1.12867">
        <ele>89.8</ele>
        <time>2026-03-14T10:12:12Z</time>
      </trkpt>
      <trkpt lat="46.85144" lon="1.12845">
        <ele>90.4</ele>
        <time>2026-03-14T10:12:15Z</time>
      </trkpt>
      <trkpt lat="46.85144" lon="1.12839">
        <ele>90.6</ele>
        <time>2026-03-14T10:12:16Z</time>
      </trkpt>
      <trkpt lat="46.85144" lon="1.12832">
        <ele>90.8</ele>
        <time>2026-03-14T10:12:18Z</time>
      </trkpt>
      <trkpt lat="46.85145" lon="1.12792">
        <ele>91.6</ele>
        <time>2026-03-14T10:12:23Z</time>
      </trkpt>
      <trkpt lat="46.85145" lon="1.12777">
        <ele>92</ele>
        <time>2026-03-14T10:12:25Z</time>
      </trkpt>
      <trkpt lat="46.85146" lon="1.12751">
        <ele>92.6</ele>
        <time>2026-03-14T10:12:29Z</time>
      </trkpt>
      <trkpt lat="46.85149" lon="1.12716">
        <ele>93.6</ele>
        <time>2026-03-14T10:12:34Z</time>
      </trkpt>
      <trkpt lat="46.85149" lon="1.12707">
        <ele>93.8</ele>
        <time>2026-03-14T10:12:35Z</time>
      </trkpt>
      <trkpt lat="46.85152" lon="1.12649">
        <ele>94.2</ele>
        <time>2026-03-14T10:12:42Z</time>
      </trkpt>
      <trkpt lat="46.85157" lon="1.12584">
        <ele>94.4</ele>
        <time>2026-03-14T10:12:49Z</time>
      </trkpt>
      <trkpt lat="46.85162" lon="1.12503">
        <ele>94.8</ele>
        <time>2026-03-14T10:12:58Z</time>
      </trkpt>
      <trkpt lat="46.85163" lon="1.12475">
        <ele>94.8</ele>
        <time>2026-03-14T10:13:01Z</time>
      </trkpt>
      <trkpt lat="46.85168" lon="1.12391">
        <ele>94.6</ele>
        <time>2026-03-14T10:13:10Z</time>
      </trkpt>
      <trkpt lat="46.85169" lon="1.12372">
        <ele>94.6</ele>
        <time>2026-03-14T10:13:12Z</time>
      </trkpt>
      <trkpt lat="46.85173" lon="1.1229">
        <ele>94.8</ele>
        <time>2026-03-14T10:13:21Z</time>
      </trkpt>
      <trkpt lat="46.85174" lon="1.12269">
        <ele>94.8</ele>
        <time>2026-03-14T10:13:23Z</time>
      </trkpt>
      <trkpt lat="46.85178" lon="1.12184">
        <ele>94.2</ele>
        <time>2026-03-14T10:13:32Z</time>
      </trkpt>
      <trkpt lat="46.85178" lon="1.12174">
        <ele>94.2</ele>
        <time>2026-03-14T10:13:33Z</time>
      </trkpt>
      <trkpt lat="46.85183" lon="1.1209">
        <ele>93.8</ele>
        <time>2026-03-14T10:13:41Z</time>
      </trkpt>
      <trkpt lat="46.85183" lon="1.12079">
        <ele>93.8</ele>
        <time>2026-03-14T10:13:42Z</time>
      </trkpt>
      <trkpt lat="46.85188" lon="1.12001">
        <ele>92.8</ele>
        <time>2026-03-14T10:13:49Z</time>
      </trkpt>
      <trkpt lat="46.8519" lon="1.11979">
        <ele>92.6</ele>
        <time>2026-03-14T10:13:51Z</time>
      </trkpt>
      <trkpt lat="46.85193" lon="1.11891">
        <ele>91.8</ele>
        <time>2026-03-14T10:13:59Z</time>
      </trkpt>
      <trkpt lat="46.85194" lon="1.1188">
        <ele>91.6</ele>
        <time>2026-03-14T10:14:00Z</time>
      </trkpt>
      <trkpt lat="46.85195" lon="1.11849">
        <ele>91.4</ele>
        <time>2026-03-14T10:14:03Z</time>
      </trkpt>
      <trkpt lat="46.85199" lon="1.11768">
        <ele>90.8</ele>
        <time>2026-03-14T10:14:11Z</time>
      </trkpt>
      <trkpt lat="46.852" lon="1.11747">
        <ele>90.6</ele>
        <time>2026-03-14T10:14:13Z</time>
      </trkpt>
      <trkpt lat="46.85204" lon="1.1167">
        <ele>90.2</ele>
        <time>2026-03-14T10:14:20Z</time>
      </trkpt>
      <trkpt lat="46.85205" lon="1.11658">
        <ele>90</ele>
        <time>2026-03-14T10:14:21Z</time>
      </trkpt>
      <trkpt lat="46.85206" lon="1.11633">
        <ele>89.6</ele>
        <time>2026-03-14T10:14:23Z</time>
      </trkpt>
      <trkpt lat="46.85209" lon="1.11582">
        <ele>88.8</ele>
        <time>2026-03-14T10:14:27Z</time>
      </trkpt>
      <trkpt lat="46.8521" lon="1.1157">
        <ele>88.2</ele>
        <time>2026-03-14T10:14:28Z</time>
      </trkpt>
      <trkpt lat="46.85213" lon="1.11508">
        <ele>87</ele>
        <time>2026-03-14T10:14:33Z</time>
      </trkpt>
      <trkpt lat="46.85213" lon="1.11496">
        <ele>87</ele>
        <time>2026-03-14T10:14:34Z</time>
      </trkpt>
      <trkpt lat="46.85218" lon="1.11409">
        <ele>86.2</ele>
        <time>2026-03-14T10:14:41Z</time>
      </trkpt>
      <trkpt lat="46.85219" lon="1.11396">
        <ele>86</ele>
        <time>2026-03-14T10:14:42Z</time>
      </trkpt>
      <trkpt lat="46.85221" lon="1.11347">
        <ele>85.4</ele>
        <time>2026-03-14T10:14:46Z</time>
      </trkpt>
      <trkpt lat="46.85222" lon="1.11311">
        <ele>85</ele>
        <time>2026-03-14T10:14:49Z</time>
      </trkpt>
      <trkpt lat="46.85226" lon="1.11234">
        <ele>84.4</ele>
        <time>2026-03-14T10:14:56Z</time>
      </trkpt>
      <trkpt lat="46.85229" lon="1.11155">
        <ele>84.8</ele>
        <time>2026-03-14T10:15:04Z</time>
      </trkpt>
      <trkpt lat="46.8523" lon="1.11145">
        <ele>84.8</ele>
        <time>2026-03-14T10:15:05Z</time>
      </trkpt>
      <trkpt lat="46.85234" lon="1.11063">
        <ele>85</ele>
        <time>2026-03-14T10:15:13Z</time>
      </trkpt>
      <trkpt lat="46.85235" lon="1.11042">
        <ele>85</ele>
        <time>2026-03-14T10:15:15Z</time>
      </trkpt>
      <trkpt lat="46.85239" lon="1.10955">
        <ele>84.4</ele>
        <time>2026-03-14T10:15:23Z</time>
      </trkpt>
      <trkpt lat="46.85244" lon="1.10875">
        <ele>84.2</ele>
        <time>2026-03-14T10:15:31Z</time>
      </trkpt>
      <trkpt lat="46.85244" lon="1.10865">
        <ele>84.2</ele>
        <time>2026-03-14T10:15:32Z</time>
      </trkpt>
      <trkpt lat="46.85248" lon="1.10784">
        <ele>85.2</ele>
        <time>2026-03-14T10:15:41Z</time>
      </trkpt>
      <trkpt lat="46.85248" lon="1.10775">
        <ele>85.2</ele>
        <time>2026-03-14T10:15:42Z</time>
      </trkpt>
      <trkpt lat="46.85251" lon="1.10716">
        <ele>86</ele>
        <time>2026-03-14T10:15:49Z</time>
      </trkpt>
      <trkpt lat="46.85252" lon="1.10699">
        <ele>86.6</ele>
        <time>2026-03-14T10:15:51Z</time>
      </trkpt>
      <trkpt lat="46.85253" lon="1.10682">
        <ele>87</ele>
        <time>2026-03-14T10:15:53Z</time>
      </trkpt>
      <trkpt lat="46.85256" lon="1.10626">
        <ele>87.6</ele>
        <time>2026-03-14T10:16:00Z</time>
      </trkpt>
      <trkpt lat="46.8526" lon="1.10545">
        <ele>88</ele>
        <time>2026-03-14T10:16:10Z</time>
      </trkpt>
      <trkpt lat="46.85261" lon="1.10537">
        <ele>88.2</ele>
        <time>2026-03-14T10:16:11Z</time>
      </trkpt>
      <trkpt lat="46.85263" lon="1.10495">
        <ele>88.4</ele>
        <time>2026-03-14T10:16:16Z</time>
      </trkpt>
      <trkpt lat="46.85265" lon="1.1047">
        <ele>88.8</ele>
        <time>2026-03-14T10:16:19Z</time>
      </trkpt>
      <trkpt lat="46.85268" lon="1.10393">
        <ele>89.4</ele>
        <time>2026-03-14T10:16:28Z</time>
      </trkpt>
      <trkpt lat="46.85269" lon="1.10376">
        <ele>89.6</ele>
        <time>2026-03-14T10:16:30Z</time>
      </trkpt>
      <trkpt lat="46.85274" lon="1.10292">
        <ele>90.2</ele>
        <time>2026-03-14T10:16:40Z</time>
      </trkpt>
      <trkpt lat="46.85275" lon="1.10267">
        <ele>90.4</ele>
        <time>2026-03-14T10:16:43Z</time>
      </trkpt>
      <trkpt lat="46.85275" lon="1.10251">
        <ele>90.6</ele>
        <time>2026-03-14T10:16:45Z</time>
      </trkpt>
      <trkpt lat="46.85278" lon="1.10194">
        <ele>90.8</ele>
        <time>2026-03-14T10:16:52Z</time>
      </trkpt>
      <trkpt lat="46.8528" lon="1.10162">
        <ele>91.4</ele>
        <time>2026-03-14T10:16:56Z</time>
      </trkpt>
      <trkpt lat="46.85282" lon="1.10108">
        <ele>92</ele>
        <time>2026-03-14T10:17:03Z</time>
      </trkpt>
      <trkpt lat="46.85285" lon="1.10077">
        <ele>92.4</ele>
        <time>2026-03-14T10:17:07Z</time>
      </trkpt>
      <trkpt lat="46.85287" lon="1.1003">
        <ele>92.8</ele>
        <time>2026-03-14T10:17:13Z</time>
      </trkpt>
      <trkpt lat="46.8529" lon="1.09967">
        <ele>93.6</ele>
        <time>2026-03-14T10:17:21Z</time>
      </trkpt>
      <trkpt lat="46.85291" lon="1.09951">
        <ele>93.6</ele>
        <time>2026-03-14T10:17:23Z</time>
      </trkpt>
      <trkpt lat="46.85294" lon="1.0987">
        <ele>94.4</ele>
        <time>2026-03-14T10:17:33Z</time>
      </trkpt>
      <trkpt lat="46.85296" lon="1.09853">
        <ele>94.6</ele>
        <time>2026-03-14T10:17:35Z</time>
      </trkpt>
      <trkpt lat="46.85299" lon="1.09782">
        <ele>94.6</ele>
        <time>2026-03-14T10:17:43Z</time>
      </trkpt>
      <trkpt lat="46.85304" lon="1.09697">
        <ele>93.8</ele>
        <time>2026-03-14T10:17:52Z</time>
      </trkpt>
      <trkpt lat="46.85304" lon="1.09688">
        <ele>93.8</ele>
        <time>2026-03-14T10:17:53Z</time>
      </trkpt>
      <trkpt lat="46.85305" lon="1.09668">
        <ele>93.6</ele>
        <time>2026-03-14T10:17:55Z</time>
      </trkpt>
      <trkpt lat="46.85309" lon="1.09592">
        <ele>93.2</ele>
        <time>2026-03-14T10:18:03Z</time>
      </trkpt>
      <trkpt lat="46.85313" lon="1.09508">
        <ele>92.6</ele>
        <time>2026-03-14T10:18:12Z</time>
      </trkpt>
      <trkpt lat="46.85314" lon="1.09499">
        <ele>92.6</ele>
        <time>2026-03-14T10:18:13Z</time>
      </trkpt>
      <trkpt lat="46.85317" lon="1.09431">
        <ele>92.6</ele>
        <time>2026-03-14T10:18:20Z</time>
      </trkpt>
      <trkpt lat="46.85319" lon="1.09403">
        <ele>92.4</ele>
        <time>2026-03-14T10:18:23Z</time>
      </trkpt>
      <trkpt lat="46.8532" lon="1.09326">
        <ele>91.8</ele>
        <time>2026-03-14T10:18:31Z</time>
      </trkpt>
      <trkpt lat="46.85309" lon="1.09251">
        <ele>91.8</ele>
        <time>2026-03-14T10:18:39Z</time>
      </trkpt>
      <trkpt lat="46.8529" lon="1.09177">
        <ele>91.8</ele>
        <time>2026-03-14T10:18:47Z</time>
      </trkpt>
      <trkpt lat="46.85285" lon="1.09158">
        <ele>91.6</ele>
        <time>2026-03-14T10:18:49Z</time>
      </trkpt>
      <trkpt lat="46.85268" lon="1.09091">
        <ele>91.6</ele>
        <time>2026-03-14T10:18:56Z</time>
      </trkpt>
      <trkpt lat="46.85256" lon="1.0903">
        <ele>91.6</ele>
        <time>2026-03-14T10:19:02Z</time>
      </trkpt>
      <trkpt lat="46.85243" lon="1.08951">
        <ele>91.2</ele>
        <time>2026-03-14T10:19:10Z</time>
      </trkpt>
      <trkpt lat="46.85235" lon="1.08899">
        <ele>90.8</ele>
        <time>2026-03-14T10:19:15Z</time>
      </trkpt>
      <trkpt lat="46.85229" lon="1.08858">
        <ele>90.4</ele>
        <time>2026-03-14T10:19:19Z</time>
      </trkpt>
      <trkpt lat="46.85224" lon="1.08807">
        <ele>90.2</ele>
        <time>2026-03-14T10:19:24Z</time>
      </trkpt>
      <trkpt lat="46.85221" lon="1.08736">
        <ele>89.8</ele>
        <time>2026-03-14T10:19:31Z</time>
      </trkpt>
      <trkpt lat="46.85222" lon="1.08655">
        <ele>89.4</ele>
        <time>2026-03-14T10:19:39Z</time>
      </trkpt>
      <trkpt lat="46.85222" lon="1.08625">
        <ele>89.4</ele>
        <time>2026-03-14T10:19:42Z</time>
      </trkpt>
      <trkpt lat="46.85222" lon="1.08564">
        <ele>89</ele>
        <time>2026-03-14T10:19:48Z</time>
      </trkpt>
      <trkpt lat="46.85223" lon="1.08501">
        <ele>88.8</ele>
        <time>2026-03-14T10:19:54Z</time>
      </trkpt>
      <trkpt lat="46.85223" lon="1.0846">
        <ele>88.4</ele>
        <time>2026-03-14T10:19:58Z</time>
      </trkpt>
      <trkpt lat="46.85222" lon="1.08379">
        <ele>88</ele>
        <time>2026-03-14T10:20:06Z</time>
      </trkpt>
      <trkpt lat="46.85222" lon="1.08369">
        <ele>87.8</ele>
        <time>2026-03-14T10:20:07Z</time>
      </trkpt>
      <trkpt lat="46.85222" lon="1.08289">
        <ele>87.6</ele>
        <time>2026-03-14T10:20:15Z</time>
      </trkpt>
      <trkpt lat="46.85221" lon="1.08252">
        <ele>87.8</ele>
        <time>2026-03-14T10:20:19Z</time>
      </trkpt>
      <trkpt lat="46.85219" lon="1.08169">
        <ele>88</ele>
        <time>2026-03-14T10:20:28Z</time>
      </trkpt>
      <trkpt lat="46.85219" lon="1.08159">
        <ele>88</ele>
        <time>2026-03-14T10:20:29Z</time>
      </trkpt>
      <trkpt lat="46.85208" lon="1.08072">
        <ele>88</ele>
        <time>2026-03-14T10:20:38Z</time>
      </trkpt>
      <trkpt lat="46.85196" lon="1.08016">
        <ele>87.8</ele>
        <time>2026-03-14T10:20:44Z</time>
      </trkpt>
      <trkpt lat="46.85189" lon="1.07988">
        <ele>87.6</ele>
        <time>2026-03-14T10:20:47Z</time>
      </trkpt>
      <trkpt lat="46.85178" lon="1.0794">
        <ele>87.6</ele>
        <time>2026-03-14T10:20:52Z</time>
      </trkpt>
      <trkpt lat="46.85155" lon="1.07859">
        <ele>87.8</ele>
        <time>2026-03-14T10:21:01Z</time>
      </trkpt>
      <trkpt lat="46.85124" lon="1.07785">
        <ele>87.8</ele>
        <time>2026-03-14T10:21:10Z</time>
      </trkpt>
      <trkpt lat="46.85114" lon="1.07761">
        <ele>87.8</ele>
        <time>2026-03-14T10:21:13Z</time>
      </trkpt>
      <trkpt lat="46.85084" lon="1.07688">
        <ele>87.6</ele>
        <time>2026-03-14T10:21:22Z</time>
      </trkpt>
      <trkpt lat="46.85077" lon="1.07671">
        <ele>87.4</ele>
        <time>2026-03-14T10:21:24Z</time>
      </trkpt>
      <trkpt lat="46.85062" lon="1.07607">
        <ele>87</ele>
        <time>2026-03-14T10:21:31Z</time>
      </trkpt>
      <trkpt lat="46.85058" lon="1.07542">
        <ele>87.2</ele>
        <time>2026-03-14T10:21:38Z</time>
      </trkpt>
      <trkpt lat="46.85059" lon="1.07481">
        <ele>86.8</ele>
        <time>2026-03-14T10:21:45Z</time>
      </trkpt>
      <trkpt lat="46.8506" lon="1.07472">
        <ele>86.6</ele>
        <time>2026-03-14T10:21:46Z</time>
      </trkpt>
      <trkpt lat="46.85065" lon="1.07458">
        <ele>86.4</ele>
        <time>2026-03-14T10:21:48Z</time>
      </trkpt>
      <trkpt lat="46.85077" lon="1.07446">
        <ele>86.4</ele>
        <time>2026-03-14T10:21:51Z</time>
      </trkpt>
      <trkpt lat="46.85082" lon="1.07434">
        <ele>86.4</ele>
        <time>2026-03-14T10:21:53Z</time>
      </trkpt>
      <trkpt lat="46.85082" lon="1.07428">
        <ele>86.6</ele>
        <time>2026-03-14T10:21:54Z</time>
      </trkpt>
      <trkpt lat="46.85081" lon="1.07421">
        <ele>86.6</ele>
        <time>2026-03-14T10:21:55Z</time>
      </trkpt>
      <trkpt lat="46.85076" lon="1.07411">
        <ele>86.4</ele>
        <time>2026-03-14T10:21:57Z</time>
      </trkpt>
      <trkpt lat="46.85072" lon="1.07405">
        <ele>86.4</ele>
        <time>2026-03-14T10:21:58Z</time>
      </trkpt>
      <trkpt lat="46.85066" lon="1.07392">
        <ele>85.8</ele>
        <time>2026-03-14T10:22:01Z</time>
      </trkpt>
      <trkpt lat="46.85064" lon="1.07371">
        <ele>85.4</ele>
        <time>2026-03-14T10:22:06Z</time>
      </trkpt>
      <trkpt lat="46.85064" lon="1.07361">
        <ele>85.4</ele>
        <time>2026-03-14T10:22:08Z</time>
      </trkpt>
      <trkpt lat="46.85065" lon="1.07331">
        <ele>85.6</ele>
        <time>2026-03-14T10:22:13Z</time>
      </trkpt>
      <trkpt lat="46.85066" lon="1.07294">
        <ele>85.4</ele>
        <time>2026-03-14T10:22:20Z</time>
      </trkpt>
      <trkpt lat="46.85066" lon="1.07288">
        <ele>85.4</ele>
        <time>2026-03-14T10:22:22Z</time>
      </trkpt>
      <trkpt lat="46.85069" lon="1.07285">
        <ele>85.4</ele>
        <time>2026-03-14T10:22:24Z</time>
      </trkpt>
      <trkpt lat="46.85075" lon="1.07284">
        <ele>85.4</ele>
        <time>2026-03-14T10:22:27Z</time>
      </trkpt>
      <trkpt lat="46.85076" lon="1.07285">
        <ele>85.4</ele>
        <time>2026-03-14T10:22:28Z</time>
      </trkpt>
      <trkpt lat="46.85078" lon="1.07291">
        <ele>85.4</ele>
        <time>2026-03-14T10:22:30Z</time>
      </trkpt>
      <trkpt lat="46.85077" lon="1.07298">
        <ele>85.2</ele>
        <time>2026-03-14T10:22:33Z</time>
      </trkpt>
      <trkpt lat="46.85077" lon="1.07304">
        <ele>84.6</ele>
        <time>2026-03-14T10:22:39Z</time>
      </trkpt>
      <trkpt lat="46.85081" lon="1.07308">
        <ele>84.2</ele>
        <time>2026-03-14T10:22:48Z</time>
      </trkpt>
      <trkpt lat="46.85085" lon="1.07309">
        <ele>84.2</ele>
        <time>2026-03-14T10:22:50Z</time>
      </trkpt>
      <trkpt lat="46.85102" lon="1.07312">
        <ele>84.2</ele>
        <time>2026-03-14T10:22:57Z</time>
      </trkpt>
      <trkpt lat="46.85104" lon="1.07311">
        <ele>84.4</ele>
        <time>2026-03-14T10:22:58Z</time>
      </trkpt>
      <trkpt lat="46.85106" lon="1.07304">
        <ele>84.6</ele>
        <time>2026-03-14T10:23:01Z</time>
      </trkpt>
      <trkpt lat="46.85107" lon="1.07301">
        <ele>84.8</ele>
        <time>2026-03-14T10:23:05Z</time>
      </trkpt>
      <trkpt lat="46.851" lon="1.07295">
        <ele>84.6</ele>
        <time>2026-03-14T10:55:27Z</time>
      </trkpt>
      <trkpt lat="46.85094" lon="1.0729">
        <ele>84.8</ele>
        <time>2026-03-14T10:55:34Z</time>
      </trkpt>
      <trkpt lat="46.85089" lon="1.07288">
        <ele>84.8</ele>
        <time>2026-03-14T10:55:41Z</time>
      </trkpt>
      <trkpt lat="46.85084" lon="1.07288">
        <ele>84.8</ele>
        <time>2026-03-14T10:55:44Z</time>
      </trkpt>
      <trkpt lat="46.85072" lon="1.07283">
        <ele>85.4</ele>
        <time>2026-03-14T10:55:51Z</time>
      </trkpt>
      <trkpt lat="46.8507" lon="1.0728">
        <ele>85.4</ele>
        <time>2026-03-14T10:55:53Z</time>
      </trkpt>
      <trkpt lat="46.85066" lon="1.07272">
        <ele>85.4</ele>
        <time>2026-03-14T10:55:56Z</time>
      </trkpt>
      <trkpt lat="46.85066" lon="1.07269">
        <ele>85.6</ele>
        <time>2026-03-14T10:55:57Z</time>
      </trkpt>
      <trkpt lat="46.85069" lon="1.07247">
        <ele>85.8</ele>
        <time>2026-03-14T10:56:02Z</time>
      </trkpt>
      <trkpt lat="46.85071" lon="1.07218">
        <ele>86.4</ele>
        <time>2026-03-14T10:56:08Z</time>
      </trkpt>
      <trkpt lat="46.85071" lon="1.07213">
        <ele>86.6</ele>
        <time>2026-03-14T10:56:09Z</time>
      </trkpt>
      <trkpt lat="46.85074" lon="1.07178">
        <ele>87.4</ele>
        <time>2026-03-14T10:56:16Z</time>
      </trkpt>
      <trkpt lat="46.85074" lon="1.07173">
        <ele>87.6</ele>
        <time>2026-03-14T10:56:17Z</time>
      </trkpt>
      <trkpt lat="46.8508" lon="1.07145">
        <ele>88.2</ele>
        <time>2026-03-14T10:56:23Z</time>
      </trkpt>
      <trkpt lat="46.85086" lon="1.0713">
        <ele>88.6</ele>
        <time>2026-03-14T10:56:27Z</time>
      </trkpt>
      <trkpt lat="46.85089" lon="1.07123">
        <ele>88.8</ele>
        <time>2026-03-14T10:56:29Z</time>
      </trkpt>
      <trkpt lat="46.85101" lon="1.07095">
        <ele>89.6</ele>
        <time>2026-03-14T10:56:36Z</time>
      </trkpt>
      <trkpt lat="46.85103" lon="1.0709">
        <ele>89.8</ele>
        <time>2026-03-14T10:56:37Z</time>
      </trkpt>
      <trkpt lat="46.85113" lon="1.07064">
        <ele>90.2</ele>
        <time>2026-03-14T10:56:43Z</time>
      </trkpt>
      <trkpt lat="46.85119" lon="1.07048">
        <ele>90.8</ele>
        <time>2026-03-14T10:56:47Z</time>
      </trkpt>
      <trkpt lat="46.85121" lon="1.07043">
        <ele>91</ele>
        <time>2026-03-14T10:56:48Z</time>
      </trkpt>
      <trkpt lat="46.85126" lon="1.07031">
        <ele>91.4</ele>
        <time>2026-03-14T10:56:51Z</time>
      </trkpt>
      <trkpt lat="46.85131" lon="1.07022">
        <ele>91.8</ele>
        <time>2026-03-14T10:56:54Z</time>
      </trkpt>
      <trkpt lat="46.85135" lon="1.07011">
        <ele>92</ele>
        <time>2026-03-14T10:56:57Z</time>
      </trkpt>
      <trkpt lat="46.8514" lon="1.07">
        <ele>92.2</ele>
        <time>2026-03-14T10:57:00Z</time>
      </trkpt>
      <trkpt lat="46.85144" lon="1.06997">
        <ele>92.6</ele>
        <time>2026-03-14T10:57:02Z</time>
      </trkpt>
      <trkpt lat="46.85148" lon="1.06994">
        <ele>92.8</ele>
        <time>2026-03-14T10:57:04Z</time>
      </trkpt>
      <trkpt lat="46.85153" lon="1.0699">
        <ele>93.2</ele>
        <time>2026-03-14T10:57:07Z</time>
      </trkpt>
      <trkpt lat="46.85154" lon="1.06988">
        <ele>93.4</ele>
        <time>2026-03-14T10:57:08Z</time>
      </trkpt>
      <trkpt lat="46.85155" lon="1.06982">
        <ele>93.8</ele>
        <time>2026-03-14T10:57:11Z</time>
      </trkpt>
      <trkpt lat="46.85155" lon="1.06981">
        <ele>93.8</ele>
        <time>2026-03-14T10:57:12Z</time>
      </trkpt>
      <trkpt lat="46.85156" lon="1.06979">
        <ele>94</ele>
        <time>2026-03-14T10:57:13Z</time>
      </trkpt>
      <trkpt lat="46.85159" lon="1.06977">
        <ele>94</ele>
        <time>2026-03-14T10:57:16Z</time>
      </trkpt>
      <trkpt lat="46.8516" lon="1.06975">
        <ele>94.2</ele>
        <time>2026-03-14T10:57:17Z</time>
      </trkpt>
      <trkpt lat="46.8516" lon="1.06971">
        <ele>94.2</ele>
        <time>2026-03-14T10:57:19Z</time>
      </trkpt>
      <trkpt lat="46.85159" lon="1.0697">
        <ele>94.2</ele>
        <time>2026-03-14T10:57:20Z</time>
      </trkpt>
      <trkpt lat="46.85153" lon="1.06966">
        <ele>94.4</ele>
        <time>2026-03-14T10:57:25Z</time>
      </trkpt>
      <trkpt lat="46.85153" lon="1.06964">
        <ele>94.4</ele>
        <time>2026-03-14T10:57:26Z</time>
      </trkpt>
      <trkpt lat="46.85154" lon="1.06961">
        <ele>94.4</ele>
        <time>2026-03-14T10:57:31Z</time>
      </trkpt>
      <trkpt lat="46.8515" lon="1.06959">
        <ele>92.4</ele>
        <time>2026-03-14T10:59:30Z</time>
      </trkpt>
      <trkpt lat="46.85148" lon="1.06947">
        <ele>92.4</ele>
        <time>2026-03-14T10:59:33Z</time>
      </trkpt>
      <trkpt lat="46.85152" lon="1.06914">
        <ele>93.6</ele>
        <time>2026-03-14T10:59:39Z</time>
      </trkpt>
      <trkpt lat="46.85153" lon="1.06909">
        <ele>93.6</ele>
        <time>2026-03-14T10:59:40Z</time>
      </trkpt>
      <trkpt lat="46.85159" lon="1.06872">
        <ele>94.6</ele>
        <time>2026-03-14T10:59:47Z</time>
      </trkpt>
      <trkpt lat="46.8516" lon="1.06867">
        <ele>94.8</ele>
        <time>2026-03-14T10:59:48Z</time>
      </trkpt>
      <trkpt lat="46.85165" lon="1.06834">
        <ele>95.6</ele>
        <time>2026-03-14T10:59:54Z</time>
      </trkpt>
      <trkpt lat="46.85166" lon="1.06823">
        <ele>96</ele>
        <time>2026-03-14T10:59:56Z</time>
      </trkpt>
      <trkpt lat="46.85171" lon="1.06795">
        <ele>96.8</ele>
        <time>2026-03-14T11:00:01Z</time>
      </trkpt>
      <trkpt lat="46.85176" lon="1.06773">
        <ele>97.2</ele>
        <time>2026-03-14T11:00:05Z</time>
      </trkpt>
      <trkpt lat="46.8518" lon="1.06745">
        <ele>97.8</ele>
        <time>2026-03-14T11:00:10Z</time>
      </trkpt>
      <trkpt lat="46.85186" lon="1.06702">
        <ele>98.8</ele>
        <time>2026-03-14T11:00:18Z</time>
      </trkpt>
      <trkpt lat="46.85188" lon="1.06685">
        <ele>99</ele>
        <time>2026-03-14T11:00:21Z</time>
      </trkpt>
      <trkpt lat="46.85192" lon="1.06659">
        <ele>100.2</ele>
        <time>2026-03-14T11:00:26Z</time>
      </trkpt>
      <trkpt lat="46.85201" lon="1.06605">
        <ele>100.6</ele>
        <time>2026-03-14T11:00:36Z</time>
      </trkpt>
      <trkpt lat="46.85204" lon="1.06571">
        <ele>101</ele>
        <time>2026-03-14T11:00:42Z</time>
      </trkpt>
      <trkpt lat="46.85204" lon="1.06554">
        <ele>101</ele>
        <time>2026-03-14T11:00:44Z</time>
      </trkpt>
      <trkpt lat="46.85206" lon="1.0653">
        <ele>100.8</ele>
        <time>2026-03-14T11:00:47Z</time>
      </trkpt>
      <trkpt lat="46.85207" lon="1.06522">
        <ele>100.8</ele>
        <time>2026-03-14T11:00:48Z</time>
      </trkpt>
      <trkpt lat="46.85211" lon="1.06454">
        <ele>99.6</ele>
        <time>2026-03-14T11:00:56Z</time>
      </trkpt>
      <trkpt lat="46.85212" lon="1.06445">
        <ele>99.4</ele>
        <time>2026-03-14T11:00:57Z</time>
      </trkpt>
      <trkpt lat="46.85215" lon="1.06429">
        <ele>99</ele>
        <time>2026-03-14T11:00:59Z</time>
      </trkpt>
      <trkpt lat="46.8522" lon="1.06413">
        <ele>98.4</ele>
        <time>2026-03-14T11:01:01Z</time>
      </trkpt>
      <trkpt lat="46.85228" lon="1.06386">
        <ele>98.2</ele>
        <time>2026-03-14T11:01:04Z</time>
      </trkpt>
      <trkpt lat="46.85234" lon="1.06366">
        <ele>98</ele>
        <time>2026-03-14T11:01:06Z</time>
      </trkpt>
      <trkpt lat="46.85239" lon="1.06345">
        <ele>96.8</ele>
        <time>2026-03-14T11:01:08Z</time>
      </trkpt>
      <trkpt lat="46.85243" lon="1.0631">
        <ele>96</ele>
        <time>2026-03-14T11:01:11Z</time>
      </trkpt>
      <trkpt lat="46.85244" lon="1.06297">
        <ele>95.4</ele>
        <time>2026-03-14T11:01:12Z</time>
      </trkpt>
      <trkpt lat="46.85242" lon="1.06261">
        <ele>94.2</ele>
        <time>2026-03-14T11:01:15Z</time>
      </trkpt>
      <trkpt lat="46.85241" lon="1.06249">
        <ele>94</ele>
        <time>2026-03-14T11:01:16Z</time>
      </trkpt>
      <trkpt lat="46.85235" lon="1.06217">
        <ele>93</ele>
        <time>2026-03-14T11:01:19Z</time>
      </trkpt>
      <trkpt lat="46.8523" lon="1.06197">
        <ele>92.8</ele>
        <time>2026-03-14T11:01:21Z</time>
      </trkpt>
      <trkpt lat="46.85213" lon="1.06144">
        <ele>92.8</ele>
        <time>2026-03-14T11:01:27Z</time>
      </trkpt>
      <trkpt lat="46.85199" lon="1.06097">
        <ele>93</ele>
        <time>2026-03-14T11:01:33Z</time>
      </trkpt>
      <trkpt lat="46.85191" lon="1.06062">
        <ele>93.4</ele>
        <time>2026-03-14T11:01:38Z</time>
      </trkpt>
      <trkpt lat="46.85188" lon="1.06051">
        <ele>93.8</ele>
        <time>2026-03-14T11:01:40Z</time>
      </trkpt>
      <trkpt lat="46.85186" lon="1.06039">
        <ele>94.2</ele>
        <time>2026-03-14T11:01:42Z</time>
      </trkpt>
      <trkpt lat="46.85179" lon="1.06005">
        <ele>95.4</ele>
        <time>2026-03-14T11:01:48Z</time>
      </trkpt>
      <trkpt lat="46.85174" lon="1.05979">
        <ele>96.4</ele>
        <time>2026-03-14T11:01:53Z</time>
      </trkpt>
      <trkpt lat="46.85173" lon="1.05975">
        <ele>96.6</ele>
        <time>2026-03-14T11:01:54Z</time>
      </trkpt>
      <trkpt lat="46.8517" lon="1.05959">
        <ele>97.4</ele>
        <time>2026-03-14T11:01:57Z</time>
      </trkpt>
      <trkpt lat="46.85169" lon="1.05954">
        <ele>97.6</ele>
        <time>2026-03-14T11:01:58Z</time>
      </trkpt>
      <trkpt lat="46.85166" lon="1.05934">
        <ele>98.8</ele>
        <time>2026-03-14T11:02:02Z</time>
      </trkpt>
      <trkpt lat="46.85165" lon="1.05924">
        <ele>99.2</ele>
        <time>2026-03-14T11:02:04Z</time>
      </trkpt>
      <trkpt lat="46.85162" lon="1.05909">
        <ele>99.8</ele>
        <time>2026-03-14T11:02:07Z</time>
      </trkpt>
      <trkpt lat="46.8516" lon="1.05899">
        <ele>100.2</ele>
        <time>2026-03-14T11:02:09Z</time>
      </trkpt>
      <trkpt lat="46.85157" lon="1.05883">
        <ele>100.8</ele>
        <time>2026-03-14T11:02:12Z</time>
      </trkpt>
      <trkpt lat="46.85156" lon="1.05877">
        <ele>101</ele>
        <time>2026-03-14T11:02:13Z</time>
      </trkpt>
      <trkpt lat="46.85152" lon="1.05851">
        <ele>102</ele>
        <time>2026-03-14T11:02:18Z</time>
      </trkpt>
      <trkpt lat="46.8515" lon="1.05841">
        <ele>102.6</ele>
        <time>2026-03-14T11:02:20Z</time>
      </trkpt>
      <trkpt lat="46.85147" lon="1.05826">
        <ele>103.2</ele>
        <time>2026-03-14T11:02:23Z</time>
      </trkpt>
      <trkpt lat="46.85142" lon="1.05799">
        <ele>104</ele>
        <time>2026-03-14T11:02:28Z</time>
      </trkpt>
      <trkpt lat="46.8514" lon="1.05788">
        <ele>104.2</ele>
        <time>2026-03-14T11:02:30Z</time>
      </trkpt>
      <trkpt lat="46.8514" lon="1.05782">
        <ele>104.2</ele>
        <time>2026-03-14T11:02:31Z</time>
      </trkpt>
      <trkpt lat="46.85134" lon="1.05738">
        <ele>105.4</ele>
        <time>2026-03-14T11:02:39Z</time>
      </trkpt>
      <trkpt lat="46.85133" lon="1.05732">
        <ele>105.6</ele>
        <time>2026-03-14T11:02:40Z</time>
      </trkpt>
      <trkpt lat="46.85126" lon="1.05693">
        <ele>106.6</ele>
        <time>2026-03-14T11:02:47Z</time>
      </trkpt>
      <trkpt lat="46.85122" lon="1.05669">
        <ele>107</ele>
        <time>2026-03-14T11:02:51Z</time>
      </trkpt>
      <trkpt lat="46.85116" lon="1.05637">
        <ele>107.6</ele>
        <time>2026-03-14T11:02:56Z</time>
      </trkpt>
      <trkpt lat="46.85111" lon="1.05605">
        <ele>107.8</ele>
        <time>2026-03-14T11:03:01Z</time>
      </trkpt>
      <trkpt lat="46.85107" lon="1.05567">
        <ele>108.6</ele>
        <time>2026-03-14T11:03:07Z</time>
      </trkpt>
      <trkpt lat="46.85107" lon="1.05555">
        <ele>108.8</ele>
        <time>2026-03-14T11:03:09Z</time>
      </trkpt>
      <trkpt lat="46.85107" lon="1.05549">
        <ele>109</ele>
        <time>2026-03-14T11:03:10Z</time>
      </trkpt>
      <trkpt lat="46.85108" lon="1.05525">
        <ele>109.6</ele>
        <time>2026-03-14T11:03:14Z</time>
      </trkpt>
      <trkpt lat="46.8511" lon="1.05499">
        <ele>110.2</ele>
        <time>2026-03-14T11:03:18Z</time>
      </trkpt>
      <trkpt lat="46.85114" lon="1.05474">
        <ele>110.8</ele>
        <time>2026-03-14T11:03:22Z</time>
      </trkpt>
      <trkpt lat="46.85122" lon="1.05435">
        <ele>111.2</ele>
        <time>2026-03-14T11:03:28Z</time>
      </trkpt>
      <trkpt lat="46.85135" lon="1.05373">
        <ele>111.4</ele>
        <time>2026-03-14T11:03:37Z</time>
      </trkpt>
      <trkpt lat="46.85145" lon="1.05324">
        <ele>111.2</ele>
        <time>2026-03-14T11:03:43Z</time>
      </trkpt>
      <trkpt lat="46.85148" lon="1.05306">
        <ele>111.2</ele>
        <time>2026-03-14T11:03:45Z</time>
      </trkpt>
      <trkpt lat="46.85165" lon="1.05223">
        <ele>110.6</ele>
        <time>2026-03-14T11:03:54Z</time>
      </trkpt>
      <trkpt lat="46.85173" lon="1.05186">
        <ele>109.4</ele>
        <time>2026-03-14T11:03:58Z</time>
      </trkpt>
      <trkpt lat="46.85175" lon="1.05178">
        <ele>109.4</ele>
        <time>2026-03-14T11:03:59Z</time>
      </trkpt>
      <trkpt lat="46.85177" lon="1.05169">
        <ele>109.2</ele>
        <time>2026-03-14T11:04:00Z</time>
      </trkpt>
      <trkpt lat="46.85192" lon="1.05102">
        <ele>109.4</ele>
        <time>2026-03-14T11:04:08Z</time>
      </trkpt>
      <trkpt lat="46.85196" lon="1.0508">
        <ele>109.6</ele>
        <time>2026-03-14T11:04:11Z</time>
      </trkpt>
      <trkpt lat="46.85202" lon="1.05051">
        <ele>109.8</ele>
        <time>2026-03-14T11:04:15Z</time>
      </trkpt>
      <trkpt lat="46.85212" lon="1.04991">
        <ele>110.2</ele>
        <time>2026-03-14T11:04:23Z</time>
      </trkpt>
      <trkpt lat="46.85214" lon="1.04978">
        <ele>110.6</ele>
        <time>2026-03-14T11:04:25Z</time>
      </trkpt>
      <trkpt lat="46.85215" lon="1.04963">
        <ele>110.8</ele>
        <time>2026-03-14T11:04:27Z</time>
      </trkpt>
      <trkpt lat="46.85216" lon="1.04919">
        <ele>111.4</ele>
        <time>2026-03-14T11:04:33Z</time>
      </trkpt>
      <trkpt lat="46.85215" lon="1.04886">
        <ele>111.8</ele>
        <time>2026-03-14T11:04:38Z</time>
      </trkpt>
      <trkpt lat="46.85214" lon="1.04873">
        <ele>112.2</ele>
        <time>2026-03-14T11:04:40Z</time>
      </trkpt>
      <trkpt lat="46.85213" lon="1.0486">
        <ele>112.4</ele>
        <time>2026-03-14T11:04:42Z</time>
      </trkpt>
      <trkpt lat="46.8521" lon="1.04848">
        <ele>112.8</ele>
        <time>2026-03-14T11:04:44Z</time>
      </trkpt>
      <trkpt lat="46.85202" lon="1.04807">
        <ele>113.8</ele>
        <time>2026-03-14T11:04:50Z</time>
      </trkpt>
      <trkpt lat="46.85201" lon="1.04801">
        <ele>114</ele>
        <time>2026-03-14T11:04:51Z</time>
      </trkpt>
      <trkpt lat="46.85189" lon="1.04753">
        <ele>114.8</ele>
        <time>2026-03-14T11:04:58Z</time>
      </trkpt>
      <trkpt lat="46.85184" lon="1.04731">
        <ele>115</ele>
        <time>2026-03-14T11:05:01Z</time>
      </trkpt>
      <trkpt lat="46.85183" lon="1.04724">
        <ele>115</ele>
        <time>2026-03-14T11:05:02Z</time>
      </trkpt>
      <trkpt lat="46.85167" lon="1.04657">
        <ele>115.4</ele>
        <time>2026-03-14T11:05:11Z</time>
      </trkpt>
      <trkpt lat="46.85157" lon="1.04611">
        <ele>115.4</ele>
        <time>2026-03-14T11:05:17Z</time>
      </trkpt>
      <trkpt lat="46.8515" lon="1.04581">
        <ele>115.4</ele>
        <time>2026-03-14T11:05:21Z</time>
      </trkpt>
      <trkpt lat="46.85137" lon="1.04521">
        <ele>116.2</ele>
        <time>2026-03-14T11:05:29Z</time>
      </trkpt>
      <trkpt lat="46.85133" lon="1.04506">
        <ele>116.4</ele>
        <time>2026-03-14T11:05:31Z</time>
      </trkpt>
      <trkpt lat="46.85121" lon="1.04453">
        <ele>116.8</ele>
        <time>2026-03-14T11:05:38Z</time>
      </trkpt>
      <trkpt lat="46.85114" lon="1.04423">
        <ele>117</ele>
        <time>2026-03-14T11:05:42Z</time>
      </trkpt>
      <trkpt lat="46.8511" lon="1.04408">
        <ele>117.2</ele>
        <time>2026-03-14T11:05:44Z</time>
      </trkpt>
      <trkpt lat="46.85103" lon="1.04353">
        <ele>117.4</ele>
        <time>2026-03-14T11:05:51Z</time>
      </trkpt>
      <trkpt lat="46.85107" lon="1.04303">
        <ele>117.4</ele>
        <time>2026-03-14T11:05:57Z</time>
      </trkpt>
      <trkpt lat="46.85108" lon="1.04295">
        <ele>117.4</ele>
        <time>2026-03-14T11:05:58Z</time>
      </trkpt>
      <trkpt lat="46.85123" lon="1.0424">
        <ele>117.6</ele>
        <time>2026-03-14T11:06:05Z</time>
      </trkpt>
      <trkpt lat="46.85144" lon="1.04165">
        <ele>118</ele>
        <time>2026-03-14T11:06:14Z</time>
      </trkpt>
      <trkpt lat="46.85162" lon="1.04103">
        <ele>117.8</ele>
        <time>2026-03-14T11:06:21Z</time>
      </trkpt>
      <trkpt lat="46.85172" lon="1.04068">
        <ele>117.4</ele>
        <time>2026-03-14T11:06:25Z</time>
      </trkpt>
      <trkpt lat="46.85192" lon="1.0399">
        <ele>117</ele>
        <time>2026-03-14T11:06:34Z</time>
      </trkpt>
      <trkpt lat="46.85195" lon="1.03982">
        <ele>117</ele>
        <time>2026-03-14T11:06:35Z</time>
      </trkpt>
      <trkpt lat="46.85216" lon="1.03906">
        <ele>116.8</ele>
        <time>2026-03-14T11:06:43Z</time>
      </trkpt>
      <trkpt lat="46.85219" lon="1.03897">
        <ele>116.4</ele>
        <time>2026-03-14T11:06:44Z</time>
      </trkpt>
      <trkpt lat="46.85221" lon="1.03887">
        <ele>116.4</ele>
        <time>2026-03-14T11:06:45Z</time>
      </trkpt>
      <trkpt lat="46.85227" lon="1.03866">
        <ele>116</ele>
        <time>2026-03-14T11:06:47Z</time>
      </trkpt>
      <trkpt lat="46.85238" lon="1.03827">
        <ele>115.4</ele>
        <time>2026-03-14T11:06:51Z</time>
      </trkpt>
      <trkpt lat="46.85243" lon="1.03808">
        <ele>115.4</ele>
        <time>2026-03-14T11:06:53Z</time>
      </trkpt>
      <trkpt lat="46.85261" lon="1.03738">
        <ele>115.2</ele>
        <time>2026-03-14T11:07:00Z</time>
      </trkpt>
      <trkpt lat="46.85283" lon="1.03662">
        <ele>115</ele>
        <time>2026-03-14T11:07:08Z</time>
      </trkpt>
      <trkpt lat="46.85285" lon="1.03654">
        <ele>115</ele>
        <time>2026-03-14T11:07:09Z</time>
      </trkpt>
      <trkpt lat="46.85301" lon="1.03593">
        <ele>115.6</ele>
        <time>2026-03-14T11:07:16Z</time>
      </trkpt>
      <trkpt lat="46.8532" lon="1.03526">
        <ele>116</ele>
        <time>2026-03-14T11:07:24Z</time>
      </trkpt>
      <trkpt lat="46.85325" lon="1.03508">
        <ele>116</ele>
        <time>2026-03-14T11:07:26Z</time>
      </trkpt>
      <trkpt lat="46.85335" lon="1.03474">
        <ele>116.2</ele>
        <time>2026-03-14T11:07:30Z</time>
      </trkpt>
      <trkpt lat="46.8535" lon="1.03423">
        <ele>116.4</ele>
        <time>2026-03-14T11:07:36Z</time>
      </trkpt>
      <trkpt lat="46.85371" lon="1.03352">
        <ele>116.4</ele>
        <time>2026-03-14T11:07:44Z</time>
      </trkpt>
      <trkpt lat="46.85388" lon="1.03287">
        <ele>116.4</ele>
        <time>2026-03-14T11:07:51Z</time>
      </trkpt>
      <trkpt lat="46.85391" lon="1.03278">
        <ele>116.6</ele>
        <time>2026-03-14T11:07:52Z</time>
      </trkpt>
      <trkpt lat="46.8541" lon="1.03206">
        <ele>117</ele>
        <time>2026-03-14T11:08:00Z</time>
      </trkpt>
      <trkpt lat="46.85429" lon="1.03139">
        <ele>117.4</ele>
        <time>2026-03-14T11:08:08Z</time>
      </trkpt>
      <trkpt lat="46.85444" lon="1.03088">
        <ele>117.6</ele>
        <time>2026-03-14T11:08:14Z</time>
      </trkpt>
      <trkpt lat="46.85449" lon="1.03071">
        <ele>117.8</ele>
        <time>2026-03-14T11:08:16Z</time>
      </trkpt>
      <trkpt lat="46.85456" lon="1.03045">
        <ele>117.8</ele>
        <time>2026-03-14T11:08:19Z</time>
      </trkpt>
      <trkpt lat="46.85474" lon="1.02975">
        <ele>118.4</ele>
        <time>2026-03-14T11:08:27Z</time>
      </trkpt>
      <trkpt lat="46.85482" lon="1.0295">
        <ele>118.6</ele>
        <time>2026-03-14T11:08:30Z</time>
      </trkpt>
      <trkpt lat="46.85491" lon="1.02916">
        <ele>118.8</ele>
        <time>2026-03-14T11:08:34Z</time>
      </trkpt>
      <trkpt lat="46.85497" lon="1.029">
        <ele>118.8</ele>
        <time>2026-03-14T11:08:36Z</time>
      </trkpt>
      <trkpt lat="46.85505" lon="1.02875">
        <ele>118.8</ele>
        <time>2026-03-14T11:08:39Z</time>
      </trkpt>
      <trkpt lat="46.85522" lon="1.02806">
        <ele>118.8</ele>
        <time>2026-03-14T11:08:47Z</time>
      </trkpt>
      <trkpt lat="46.85542" lon="1.02734">
        <ele>118.4</ele>
        <time>2026-03-14T11:08:55Z</time>
      </trkpt>
      <trkpt lat="46.85559" lon="1.02667">
        <ele>117.8</ele>
        <time>2026-03-14T11:09:02Z</time>
      </trkpt>
      <trkpt lat="46.85564" lon="1.02648">
        <ele>117.6</ele>
        <time>2026-03-14T11:09:04Z</time>
      </trkpt>
      <trkpt lat="46.85573" lon="1.02623">
        <ele>117.6</ele>
        <time>2026-03-14T11:09:07Z</time>
      </trkpt>
      <trkpt lat="46.85579" lon="1.02606">
        <ele>117.4</ele>
        <time>2026-03-14T11:09:09Z</time>
      </trkpt>
      <trkpt lat="46.85581" lon="1.02597">
        <ele>117.4</ele>
        <time>2026-03-14T11:09:10Z</time>
      </trkpt>
      <trkpt lat="46.85593" lon="1.02552">
        <ele>117.2</ele>
        <time>2026-03-14T11:09:15Z</time>
      </trkpt>
      <trkpt lat="46.85609" lon="1.025">
        <ele>117.2</ele>
        <time>2026-03-14T11:09:21Z</time>
      </trkpt>
      <trkpt lat="46.85628" lon="1.02433">
        <ele>117</ele>
        <time>2026-03-14T11:09:28Z</time>
      </trkpt>
      <trkpt lat="46.85641" lon="1.02393">
        <ele>116.8</ele>
        <time>2026-03-14T11:09:32Z</time>
      </trkpt>
      <trkpt lat="46.85643" lon="1.02381">
        <ele>116.8</ele>
        <time>2026-03-14T11:09:33Z</time>
      </trkpt>
      <trkpt lat="46.85649" lon="1.02357">
        <ele>116</ele>
        <time>2026-03-14T11:09:35Z</time>
      </trkpt>
      <trkpt lat="46.85657" lon="1.02323">
        <ele>115.2</ele>
        <time>2026-03-14T11:09:38Z</time>
      </trkpt>
      <trkpt lat="46.85661" lon="1.02313">
        <ele>114.8</ele>
        <time>2026-03-14T11:09:39Z</time>
      </trkpt>
      <trkpt lat="46.85675" lon="1.02262">
        <ele>114</ele>
        <time>2026-03-14T11:09:44Z</time>
      </trkpt>
      <trkpt lat="46.8568" lon="1.02241">
        <ele>113.8</ele>
        <time>2026-03-14T11:09:46Z</time>
      </trkpt>
      <trkpt lat="46.85694" lon="1.02194">
        <ele>113.6</ele>
        <time>2026-03-14T11:09:51Z</time>
      </trkpt>
      <trkpt lat="46.85707" lon="1.02152">
        <ele>113.4</ele>
        <time>2026-03-14T11:09:56Z</time>
      </trkpt>
      <trkpt lat="46.85725" lon="1.02095">
        <ele>113</ele>
        <time>2026-03-14T11:10:02Z</time>
      </trkpt>
      <trkpt lat="46.85729" lon="1.02084">
        <ele>112.6</ele>
        <time>2026-03-14T11:10:03Z</time>
      </trkpt>
      <trkpt lat="46.85739" lon="1.02048">
        <ele>111.6</ele>
        <time>2026-03-14T11:10:06Z</time>
      </trkpt>
      <trkpt lat="46.85743" lon="1.02036">
        <ele>111.2</ele>
        <time>2026-03-14T11:10:07Z</time>
      </trkpt>
      <trkpt lat="46.8575" lon="1.02012">
        <ele>110.4</ele>
        <time>2026-03-14T11:10:09Z</time>
      </trkpt>
      <trkpt lat="46.85762" lon="1.01974">
        <ele>108.8</ele>
        <time>2026-03-14T11:10:12Z</time>
      </trkpt>
      <trkpt lat="46.8577" lon="1.01946">
        <ele>107.6</ele>
        <time>2026-03-14T11:10:14Z</time>
      </trkpt>
      <trkpt lat="46.85782" lon="1.01904">
        <ele>106.4</ele>
        <time>2026-03-14T11:10:17Z</time>
      </trkpt>
      <trkpt lat="46.8579" lon="1.01875">
        <ele>104.8</ele>
        <time>2026-03-14T11:10:19Z</time>
      </trkpt>
      <trkpt lat="46.85797" lon="1.01843">
        <ele>103.8</ele>
        <time>2026-03-14T11:10:21Z</time>
      </trkpt>
      <trkpt lat="46.85806" lon="1.01812">
        <ele>102.6</ele>
        <time>2026-03-14T11:10:23Z</time>
      </trkpt>
      <trkpt lat="46.85814" lon="1.01782">
        <ele>101.6</ele>
        <time>2026-03-14T11:10:25Z</time>
      </trkpt>
      <trkpt lat="46.85818" lon="1.01767">
        <ele>100.6</ele>
        <time>2026-03-14T11:10:26Z</time>
      </trkpt>
      <trkpt lat="46.85826" lon="1.01733">
        <ele>99</ele>
        <time>2026-03-14T11:10:28Z</time>
      </trkpt>
      <trkpt lat="46.85832" lon="1.01709">
        <ele>98.4</ele>
        <time>2026-03-14T11:10:30Z</time>
      </trkpt>
      <trkpt lat="46.85845" lon="1.01666">
        <ele>98.4</ele>
        <time>2026-03-14T11:10:34Z</time>
      </trkpt>
      <trkpt lat="46.8585" lon="1.01648">
        <ele>99.2</ele>
        <time>2026-03-14T11:10:36Z</time>
      </trkpt>
      <trkpt lat="46.85855" lon="1.01631">
        <ele>99.6</ele>
        <time>2026-03-14T11:10:38Z</time>
      </trkpt>
      <trkpt lat="46.85858" lon="1.01616">
        <ele>100.2</ele>
        <time>2026-03-14T11:10:40Z</time>
      </trkpt>
      <trkpt lat="46.85862" lon="1.01602">
        <ele>101.4</ele>
        <time>2026-03-14T11:10:42Z</time>
      </trkpt>
      <trkpt lat="46.85864" lon="1.01597">
        <ele>101.8</ele>
        <time>2026-03-14T11:10:43Z</time>
      </trkpt>
      <trkpt lat="46.85866" lon="1.01591">
        <ele>102</ele>
        <time>2026-03-14T11:10:44Z</time>
      </trkpt>
      <trkpt lat="46.85868" lon="1.0158">
        <ele>102.8</ele>
        <time>2026-03-14T11:10:46Z</time>
      </trkpt>
      <trkpt lat="46.8587" lon="1.01571">
        <ele>103.2</ele>
        <time>2026-03-14T11:10:48Z</time>
      </trkpt>
      <trkpt lat="46.85874" lon="1.01555">
        <ele>104</ele>
        <time>2026-03-14T11:10:51Z</time>
      </trkpt>
      <trkpt lat="46.85878" lon="1.01542">
        <ele>104.6</ele>
        <time>2026-03-14T11:10:54Z</time>
      </trkpt>
      <trkpt lat="46.85881" lon="1.01534">
        <ele>105.2</ele>
        <time>2026-03-14T11:10:56Z</time>
      </trkpt>
      <trkpt lat="46.85888" lon="1.01513">
        <ele>106</ele>
        <time>2026-03-14T11:11:00Z</time>
      </trkpt>
      <trkpt lat="46.85899" lon="1.01474">
        <ele>107.2</ele>
        <time>2026-03-14T11:11:06Z</time>
      </trkpt>
      <trkpt lat="46.85901" lon="1.01468">
        <ele>107.4</ele>
        <time>2026-03-14T11:11:07Z</time>
      </trkpt>
      <trkpt lat="46.85906" lon="1.01451">
        <ele>108.4</ele>
        <time>2026-03-14T11:11:10Z</time>
      </trkpt>
      <trkpt lat="46.85911" lon="1.01436">
        <ele>109</ele>
        <time>2026-03-14T11:11:13Z</time>
      </trkpt>
      <trkpt lat="46.85918" lon="1.01417">
        <ele>109.4</ele>
        <time>2026-03-14T11:11:17Z</time>
      </trkpt>
      <trkpt lat="46.85922" lon="1.0139">
        <ele>110.6</ele>
        <time>2026-03-14T11:11:22Z</time>
      </trkpt>
      <trkpt lat="46.85929" lon="1.01365">
        <ele>111.8</ele>
        <time>2026-03-14T11:11:27Z</time>
      </trkpt>
      <trkpt lat="46.85934" lon="1.01348">
        <ele>112.4</ele>
        <time>2026-03-14T11:11:30Z</time>
      </trkpt>
      <trkpt lat="46.85936" lon="1.01339">
        <ele>112.8</ele>
        <time>2026-03-14T11:11:32Z</time>
      </trkpt>
      <trkpt lat="46.85944" lon="1.01309">
        <ele>113.8</ele>
        <time>2026-03-14T11:11:37Z</time>
      </trkpt>
      <trkpt lat="46.85946" lon="1.01304">
        <ele>114</ele>
        <time>2026-03-14T11:11:38Z</time>
      </trkpt>
      <trkpt lat="46.85951" lon="1.01279">
        <ele>115</ele>
        <time>2026-03-14T11:11:42Z</time>
      </trkpt>
      <trkpt lat="46.85954" lon="1.01274">
        <ele>115</ele>
        <time>2026-03-14T11:11:43Z</time>
      </trkpt>
      <trkpt lat="46.85956" lon="1.01268">
        <ele>115.2</ele>
        <time>2026-03-14T11:11:44Z</time>
      </trkpt>
      <trkpt lat="46.8596" lon="1.01255">
        <ele>115.6</ele>
        <time>2026-03-14T11:11:46Z</time>
      </trkpt>
      <trkpt lat="46.85962" lon="1.01243">
        <ele>115.6</ele>
        <time>2026-03-14T11:11:48Z</time>
      </trkpt>
      <trkpt lat="46.85969" lon="1.01224">
        <ele>116</ele>
        <time>2026-03-14T11:11:52Z</time>
      </trkpt>
      <trkpt lat="46.85973" lon="1.01213">
        <ele>116</ele>
        <time>2026-03-14T11:11:54Z</time>
      </trkpt>
      <trkpt lat="46.85975" lon="1.01208">
        <ele>116</ele>
        <time>2026-03-14T11:11:55Z</time>
      </trkpt>
      <trkpt lat="46.85979" lon="1.01196">
        <ele>116.2</ele>
        <time>2026-03-14T11:11:57Z</time>
      </trkpt>
      <trkpt lat="46.85987" lon="1.01169">
        <ele>116.6</ele>
        <time>2026-03-14T11:12:01Z</time>
      </trkpt>
      <trkpt lat="46.86007" lon="1.01102">
        <ele>116.6</ele>
        <time>2026-03-14T11:12:10Z</time>
      </trkpt>
      <trkpt lat="46.86016" lon="1.01073">
        <ele>116.6</ele>
        <time>2026-03-14T11:12:14Z</time>
      </trkpt>
      <trkpt lat="46.86023" lon="1.01051">
        <ele>116.4</ele>
        <time>2026-03-14T11:12:17Z</time>
      </trkpt>
      <trkpt lat="46.86033" lon="1.01011">
        <ele>116.4</ele>
        <time>2026-03-14T11:12:22Z</time>
      </trkpt>
      <trkpt lat="46.8604" lon="1.0099">
        <ele>116.4</ele>
        <time>2026-03-14T11:12:25Z</time>
      </trkpt>
      <trkpt lat="46.8606" lon="1.0091">
        <ele>116</ele>
        <time>2026-03-14T11:12:34Z</time>
      </trkpt>
      <trkpt lat="46.86081" lon="1.00838">
        <ele>115.8</ele>
        <time>2026-03-14T11:12:43Z</time>
      </trkpt>
      <trkpt lat="46.86091" lon="1.00803">
        <ele>116.2</ele>
        <time>2026-03-14T11:12:48Z</time>
      </trkpt>
      <trkpt lat="46.86101" lon="1.00772">
        <ele>116.8</ele>
        <time>2026-03-14T11:12:53Z</time>
      </trkpt>
      <trkpt lat="46.86103" lon="1.00765">
        <ele>116.8</ele>
        <time>2026-03-14T11:12:54Z</time>
      </trkpt>
      <trkpt lat="46.86105" lon="1.00758">
        <ele>117.2</ele>
        <time>2026-03-14T11:12:55Z</time>
      </trkpt>
      <trkpt lat="46.86112" lon="1.00732">
        <ele>117.6</ele>
        <time>2026-03-14T11:12:59Z</time>
      </trkpt>
      <trkpt lat="46.86115" lon="1.00719">
        <ele>117.8</ele>
        <time>2026-03-14T11:13:01Z</time>
      </trkpt>
      <trkpt lat="46.86117" lon="1.00713">
        <ele>118</ele>
        <time>2026-03-14T11:13:02Z</time>
      </trkpt>
      <trkpt lat="46.86119" lon="1.00706">
        <ele>118.2</ele>
        <time>2026-03-14T11:13:03Z</time>
      </trkpt>
      <trkpt lat="46.86123" lon="1.00693">
        <ele>118.4</ele>
        <time>2026-03-14T11:13:05Z</time>
      </trkpt>
      <trkpt lat="46.86131" lon="1.00658">
        <ele>119.2</ele>
        <time>2026-03-14T11:13:10Z</time>
      </trkpt>
      <trkpt lat="46.86138" lon="1.00614">
        <ele>119.4</ele>
        <time>2026-03-14T11:13:15Z</time>
      </trkpt>
      <trkpt lat="46.8614" lon="1.00584">
        <ele>120</ele>
        <time>2026-03-14T11:13:19Z</time>
      </trkpt>
      <trkpt lat="46.8614" lon="1.00576">
        <ele>120.2</ele>
        <time>2026-03-14T11:13:20Z</time>
      </trkpt>
      <trkpt lat="46.8614" lon="1.00561">
        <ele>120.4</ele>
        <time>2026-03-14T11:13:23Z</time>
      </trkpt>
      <trkpt lat="46.8614" lon="1.00495">
        <ele>121.4</ele>
        <time>2026-03-14T11:13:32Z</time>
      </trkpt>
      <trkpt lat="46.8614" lon="1.00479">
        <ele>121.4</ele>
        <time>2026-03-14T11:13:33Z</time>
      </trkpt>
      <trkpt lat="46.86141" lon="1.00415">
        <ele>122.2</ele>
        <time>2026-03-14T11:13:41Z</time>
      </trkpt>
      <trkpt lat="46.8614" lon="1.00383">
        <ele>122.4</ele>
        <time>2026-03-14T11:13:45Z</time>
      </trkpt>
      <trkpt lat="46.86141" lon="1.00326">
        <ele>122.6</ele>
        <time>2026-03-14T11:13:52Z</time>
      </trkpt>
      <trkpt lat="46.86141" lon="1.00276">
        <ele>123</ele>
        <time>2026-03-14T11:13:58Z</time>
      </trkpt>
      <trkpt lat="46.86141" lon="1.00252">
        <ele>123</ele>
        <time>2026-03-14T11:14:01Z</time>
      </trkpt>
      <trkpt lat="46.86141" lon="1.00243">
        <ele>123.4</ele>
        <time>2026-03-14T11:14:03Z</time>
      </trkpt>
      <trkpt lat="46.86141" lon="1.00227">
        <ele>123.4</ele>
        <time>2026-03-14T11:14:04Z</time>
      </trkpt>
      <trkpt lat="46.86141" lon="1.00175">
        <ele>123.6</ele>
        <time>2026-03-14T11:14:10Z</time>
      </trkpt>
      <trkpt lat="46.86142" lon="1.0009">
        <ele>123.6</ele>
        <time>2026-03-14T11:14:20Z</time>
      </trkpt>
      <trkpt lat="46.86142" lon="1.00081">
        <ele>123.6</ele>
        <time>2026-03-14T11:14:21Z</time>
      </trkpt>
      <trkpt lat="46.86143" lon="1.00012">
        <ele>123.8</ele>
        <time>2026-03-14T11:14:29Z</time>
      </trkpt>
      <trkpt lat="46.86143" lon="0.99932">
        <ele>124</ele>
        <time>2026-03-14T11:14:38Z</time>
      </trkpt>
      <trkpt lat="46.86142" lon="0.99922">
        <ele>124.2</ele>
        <time>2026-03-14T11:14:39Z</time>
      </trkpt>
      <trkpt lat="46.86142" lon="0.99847">
        <ele>124.2</ele>
        <time>2026-03-14T11:14:47Z</time>
      </trkpt>
      <trkpt lat="46.86143" lon="0.99768">
        <ele>123.6</ele>
        <time>2026-03-14T11:14:55Z</time>
      </trkpt>
      <trkpt lat="46.86143" lon="0.99748">
        <ele>123.2</ele>
        <time>2026-03-14T11:14:57Z</time>
      </trkpt>
      <trkpt lat="46.86143" lon="0.99708">
        <ele>122.4</ele>
        <time>2026-03-14T11:15:01Z</time>
      </trkpt>
      <trkpt lat="46.86144" lon="0.99673">
        <ele>122.2</ele>
        <time>2026-03-14T11:15:05Z</time>
      </trkpt>
      <trkpt lat="46.86143" lon="0.99663">
        <ele>122.2</ele>
        <time>2026-03-14T11:15:06Z</time>
      </trkpt>
      <trkpt lat="46.86143" lon="0.99627">
        <ele>122.6</ele>
        <time>2026-03-14T11:15:10Z</time>
      </trkpt>
      <trkpt lat="46.86143" lon="0.99546">
        <ele>123.4</ele>
        <time>2026-03-14T11:15:19Z</time>
      </trkpt>
      <trkpt lat="46.86142" lon="0.99472">
        <ele>123.8</ele>
        <time>2026-03-14T11:15:27Z</time>
      </trkpt>
      <trkpt lat="46.86141" lon="0.99386">
        <ele>124.2</ele>
        <time>2026-03-14T11:15:37Z</time>
      </trkpt>
      <trkpt lat="46.86141" lon="0.99361">
        <ele>124.4</ele>
        <time>2026-03-14T11:15:40Z</time>
      </trkpt>
      <trkpt lat="46.86142" lon="0.99295">
        <ele>125.6</ele>
        <time>2026-03-14T11:15:48Z</time>
      </trkpt>
      <trkpt lat="46.86142" lon="0.99262">
        <ele>125.8</ele>
        <time>2026-03-14T11:15:52Z</time>
      </trkpt>
      <trkpt lat="46.86142" lon="0.99228">
        <ele>126.6</ele>
        <time>2026-03-14T11:15:56Z</time>
      </trkpt>
      <trkpt lat="46.86142" lon="0.99176">
        <ele>126.8</ele>
        <time>2026-03-14T11:16:02Z</time>
      </trkpt>
      <trkpt lat="46.86142" lon="0.99099">
        <ele>126.4</ele>
        <time>2026-03-14T11:16:11Z</time>
      </trkpt>
      <trkpt lat="46.86142" lon="0.99018">
        <ele>126.2</ele>
        <time>2026-03-14T11:16:20Z</time>
      </trkpt>
      <trkpt lat="46.86142" lon="0.99009">
        <ele>126.2</ele>
        <time>2026-03-14T11:16:21Z</time>
      </trkpt>
      <trkpt lat="46.86141" lon="0.98924">
        <ele>126.2</ele>
        <time>2026-03-14T11:16:30Z</time>
      </trkpt>
      <trkpt lat="46.86141" lon="0.98885">
        <ele>126</ele>
        <time>2026-03-14T11:16:34Z</time>
      </trkpt>
      <trkpt lat="46.86141" lon="0.98803">
        <ele>125.4</ele>
        <time>2026-03-14T11:16:42Z</time>
      </trkpt>
      <trkpt lat="46.86141" lon="0.98761">
        <ele>124.6</ele>
        <time>2026-03-14T11:16:46Z</time>
      </trkpt>
      <trkpt lat="46.86141" lon="0.9875">
        <ele>124.4</ele>
        <time>2026-03-14T11:16:47Z</time>
      </trkpt>
      <trkpt lat="46.86141" lon="0.98698">
        <ele>123.2</ele>
        <time>2026-03-14T11:16:52Z</time>
      </trkpt>
      <trkpt lat="46.86142" lon="0.98646">
        <ele>122.2</ele>
        <time>2026-03-14T11:16:58Z</time>
      </trkpt>
      <trkpt lat="46.86142" lon="0.98626">
        <ele>122.2</ele>
        <time>2026-03-14T11:16:59Z</time>
      </trkpt>
      <trkpt lat="46.86142" lon="0.98571">
        <ele>121.8</ele>
        <time>2026-03-14T11:17:05Z</time>
      </trkpt>
      <trkpt lat="46.86142" lon="0.98503">
        <ele>121.8</ele>
        <time>2026-03-14T11:17:13Z</time>
      </trkpt>
      <trkpt lat="46.86142" lon="0.98478">
        <ele>122.2</ele>
        <time>2026-03-14T11:17:16Z</time>
      </trkpt>
      <trkpt lat="46.86142" lon="0.98419">
        <ele>122.8</ele>
        <time>2026-03-14T11:17:23Z</time>
      </trkpt>
      <trkpt lat="46.86142" lon="0.98359">
        <ele>123.2</ele>
        <time>2026-03-14T11:17:30Z</time>
      </trkpt>
      <trkpt lat="46.86142" lon="0.98306">
        <ele>123.2</ele>
        <time>2026-03-14T11:17:36Z</time>
      </trkpt>
      <trkpt lat="46.86143" lon="0.98225">
        <ele>123.2</ele>
        <time>2026-03-14T11:17:45Z</time>
      </trkpt>
      <trkpt lat="46.86143" lon="0.98207">
        <ele>123</ele>
        <time>2026-03-14T11:17:47Z</time>
      </trkpt>
      <trkpt lat="46.86142" lon="0.98129">
        <ele>122.2</ele>
        <time>2026-03-14T11:17:55Z</time>
      </trkpt>
      <trkpt lat="46.86142" lon="0.98119">
        <ele>122</ele>
        <time>2026-03-14T11:17:56Z</time>
      </trkpt>
      <trkpt lat="46.86142" lon="0.98111">
        <ele>121.8</ele>
        <time>2026-03-14T11:17:58Z</time>
      </trkpt>
      <trkpt lat="46.86142" lon="0.98025">
        <ele>121.2</ele>
        <time>2026-03-14T11:18:05Z</time>
      </trkpt>
      <trkpt lat="46.86143" lon="0.98004">
        <ele>121</ele>
        <time>2026-03-14T11:18:07Z</time>
      </trkpt>
      <trkpt lat="46.86142" lon="0.97949">
        <ele>119.8</ele>
        <time>2026-03-14T11:18:12Z</time>
      </trkpt>
      <trkpt lat="46.86141" lon="0.97916">
        <ele>119.2</ele>
        <time>2026-03-14T11:18:15Z</time>
      </trkpt>
      <trkpt lat="46.86134" lon="0.9786">
        <ele>118.8</ele>
        <time>2026-03-14T11:18:20Z</time>
      </trkpt>
      <trkpt lat="46.8613" lon="0.97837">
        <ele>118.4</ele>
        <time>2026-03-14T11:18:22Z</time>
      </trkpt>
      <trkpt lat="46.86112" lon="0.97772">
        <ele>117.6</ele>
        <time>2026-03-14T11:18:28Z</time>
      </trkpt>
      <trkpt lat="46.86108" lon="0.97761">
        <ele>117.6</ele>
        <time>2026-03-14T11:18:29Z</time>
      </trkpt>
      <trkpt lat="46.86103" lon="0.97751">
        <ele>117.2</ele>
        <time>2026-03-14T11:18:30Z</time>
      </trkpt>
      <trkpt lat="46.86084" lon="0.9771">
        <ele>116.6</ele>
        <time>2026-03-14T11:18:34Z</time>
      </trkpt>
      <trkpt lat="46.86078" lon="0.977">
        <ele>116.2</ele>
        <time>2026-03-14T11:18:35Z</time>
      </trkpt>
      <trkpt lat="46.86073" lon="0.9769">
        <ele>115.6</ele>
        <time>2026-03-14T11:18:36Z</time>
      </trkpt>
      <trkpt lat="46.86042" lon="0.97644">
        <ele>114.6</ele>
        <time>2026-03-14T11:18:41Z</time>
      </trkpt>
      <trkpt lat="46.86035" lon="0.97635">
        <ele>114.4</ele>
        <time>2026-03-14T11:18:42Z</time>
      </trkpt>
      <trkpt lat="46.8601" lon="0.976">
        <ele>113.4</ele>
        <time>2026-03-14T11:18:46Z</time>
      </trkpt>
      <trkpt lat="46.8599" lon="0.97571">
        <ele>113</ele>
        <time>2026-03-14T11:18:49Z</time>
      </trkpt>
      <trkpt lat="46.85976" lon="0.97551">
        <ele>111.6</ele>
        <time>2026-03-14T11:18:51Z</time>
      </trkpt>
      <trkpt lat="46.85961" lon="0.9753">
        <ele>110.6</ele>
        <time>2026-03-14T11:18:53Z</time>
      </trkpt>
      <trkpt lat="46.85946" lon="0.97508">
        <ele>109.6</ele>
        <time>2026-03-14T11:18:55Z</time>
      </trkpt>
      <trkpt lat="46.85938" lon="0.97497">
        <ele>109.2</ele>
        <time>2026-03-14T11:18:56Z</time>
      </trkpt>
      <trkpt lat="46.85913" lon="0.97462">
        <ele>107.6</ele>
        <time>2026-03-14T11:18:59Z</time>
      </trkpt>
      <trkpt lat="46.85897" lon="0.97439">
        <ele>106.2</ele>
        <time>2026-03-14T11:19:01Z</time>
      </trkpt>
      <trkpt lat="46.85881" lon="0.97416">
        <ele>104.6</ele>
        <time>2026-03-14T11:19:03Z</time>
      </trkpt>
      <trkpt lat="46.85865" lon="0.97393">
        <ele>103.6</ele>
        <time>2026-03-14T11:19:05Z</time>
      </trkpt>
      <trkpt lat="46.85849" lon="0.9737">
        <ele>102.2</ele>
        <time>2026-03-14T11:19:07Z</time>
      </trkpt>
      <trkpt lat="46.85832" lon="0.97346">
        <ele>100.6</ele>
        <time>2026-03-14T11:19:09Z</time>
      </trkpt>
      <trkpt lat="46.85818" lon="0.97326">
        <ele>98.8</ele>
        <time>2026-03-14T11:19:11Z</time>
      </trkpt>
      <trkpt lat="46.85808" lon="0.97312">
        <ele>98.4</ele>
        <time>2026-03-14T11:19:12Z</time>
      </trkpt>
      <trkpt lat="46.858" lon="0.97301">
        <ele>97.2</ele>
        <time>2026-03-14T11:19:13Z</time>
      </trkpt>
      <trkpt lat="46.85792" lon="0.97288">
        <ele>96.2</ele>
        <time>2026-03-14T11:19:14Z</time>
      </trkpt>
      <trkpt lat="46.85786" lon="0.97275">
        <ele>96</ele>
        <time>2026-03-14T11:19:15Z</time>
      </trkpt>
      <trkpt lat="46.85786" lon="0.97275">
        <ele>95</ele>
        <time>2026-03-14T11:19:16Z</time>
      </trkpt>
      <trkpt lat="46.85775" lon="0.97249">
        <ele>94.8</ele>
        <time>2026-03-14T11:19:17Z</time>
      </trkpt>
      <trkpt lat="46.85768" lon="0.97232">
        <ele>93.8</ele>
        <time>2026-03-14T11:19:18Z</time>
      </trkpt>
      <trkpt lat="46.8576" lon="0.97202">
        <ele>92.2</ele>
        <time>2026-03-14T11:19:20Z</time>
      </trkpt>
      <trkpt lat="46.85754" lon="0.97171">
        <ele>91</ele>
        <time>2026-03-14T11:19:22Z</time>
      </trkpt>
      <trkpt lat="46.85752" lon="0.97155">
        <ele>90</ele>
        <time>2026-03-14T11:19:23Z</time>
      </trkpt>
      <trkpt lat="46.85751" lon="0.97139">
        <ele>89.6</ele>
        <time>2026-03-14T11:19:24Z</time>
      </trkpt>
      <trkpt lat="46.85751" lon="0.97108">
        <ele>88.8</ele>
        <time>2026-03-14T11:19:26Z</time>
      </trkpt>
      <trkpt lat="46.85753" lon="0.97079">
        <ele>88.2</ele>
        <time>2026-03-14T11:19:28Z</time>
      </trkpt>
      <trkpt lat="46.85762" lon="0.97029">
        <ele>88</ele>
        <time>2026-03-14T11:19:32Z</time>
      </trkpt>
      <trkpt lat="46.85778" lon="0.96983">
        <ele>88.4</ele>
        <time>2026-03-14T11:19:37Z</time>
      </trkpt>
      <trkpt lat="46.85794" lon="0.96951">
        <ele>89.4</ele>
        <time>2026-03-14T11:19:42Z</time>
      </trkpt>
      <trkpt lat="46.85797" lon="0.96946">
        <ele>90</ele>
        <time>2026-03-14T11:19:43Z</time>
      </trkpt>
      <trkpt lat="46.85805" lon="0.96932">
        <ele>91.2</ele>
        <time>2026-03-14T11:19:46Z</time>
      </trkpt>
      <trkpt lat="46.85813" lon="0.96917">
        <ele>92.2</ele>
        <time>2026-03-14T11:19:49Z</time>
      </trkpt>
      <trkpt lat="46.85816" lon="0.96911">
        <ele>92.4</ele>
        <time>2026-03-14T11:19:50Z</time>
      </trkpt>
      <trkpt lat="46.85821" lon="0.96902">
        <ele>92.8</ele>
        <time>2026-03-14T11:19:52Z</time>
      </trkpt>
      <trkpt lat="46.85829" lon="0.96888">
        <ele>93.6</ele>
        <time>2026-03-14T11:19:55Z</time>
      </trkpt>
      <trkpt lat="46.85842" lon="0.96862">
        <ele>94.8</ele>
        <time>2026-03-14T11:20:00Z</time>
      </trkpt>
      <trkpt lat="46.85853" lon="0.96842">
        <ele>95.4</ele>
        <time>2026-03-14T11:20:04Z</time>
      </trkpt>
      <trkpt lat="46.85855" lon="0.96837">
        <ele>95.6</ele>
        <time>2026-03-14T11:20:05Z</time>
      </trkpt>
      <trkpt lat="46.85868" lon="0.96813">
        <ele>97</ele>
        <time>2026-03-14T11:20:10Z</time>
      </trkpt>
      <trkpt lat="46.85873" lon="0.96803">
        <ele>97.4</ele>
        <time>2026-03-14T11:20:12Z</time>
      </trkpt>
      <trkpt lat="46.8588" lon="0.9679">
        <ele>98</ele>
        <time>2026-03-14T11:20:15Z</time>
      </trkpt>
      <trkpt lat="46.85891" lon="0.96768">
        <ele>98.6</ele>
        <time>2026-03-14T11:20:20Z</time>
      </trkpt>
      <trkpt lat="46.85896" lon="0.96759">
        <ele>99.4</ele>
        <time>2026-03-14T11:20:22Z</time>
      </trkpt>
      <trkpt lat="46.85908" lon="0.96735">
        <ele>100.4</ele>
        <time>2026-03-14T11:20:27Z</time>
      </trkpt>
      <trkpt lat="46.85913" lon="0.96726">
        <ele>101</ele>
        <time>2026-03-14T11:20:29Z</time>
      </trkpt>
      <trkpt lat="46.85917" lon="0.96717">
        <ele>101.4</ele>
        <time>2026-03-14T11:20:31Z</time>
      </trkpt>
      <trkpt lat="46.85931" lon="0.9669">
        <ele>102.8</ele>
        <time>2026-03-14T11:20:37Z</time>
      </trkpt>
      <trkpt lat="46.85933" lon="0.96685">
        <ele>102.8</ele>
        <time>2026-03-14T11:20:38Z</time>
      </trkpt>
      <trkpt lat="46.85942" lon="0.96667">
        <ele>103.8</ele>
        <time>2026-03-14T11:20:42Z</time>
      </trkpt>
      <trkpt lat="46.85952" lon="0.96649">
        <ele>105</ele>
        <time>2026-03-14T11:20:46Z</time>
      </trkpt>
      <trkpt lat="46.85956" lon="0.9664">
        <ele>105.6</ele>
        <time>2026-03-14T11:20:48Z</time>
      </trkpt>
      <trkpt lat="46.85961" lon="0.96631">
        <ele>106</ele>
        <time>2026-03-14T11:20:50Z</time>
      </trkpt>
      <trkpt lat="46.85971" lon="0.96612">
        <ele>107</ele>
        <time>2026-03-14T11:20:54Z</time>
      </trkpt>
      <trkpt lat="46.85983" lon="0.96589">
        <ele>108.2</ele>
        <time>2026-03-14T11:20:59Z</time>
      </trkpt>
      <trkpt lat="46.86" lon="0.96557">
        <ele>109.4</ele>
        <time>2026-03-14T11:21:06Z</time>
      </trkpt>
      <trkpt lat="46.86009" lon="0.9654">
        <ele>110.6</ele>
        <time>2026-03-14T11:21:10Z</time>
      </trkpt>
      <trkpt lat="46.86011" lon="0.96535">
        <ele>111</ele>
        <time>2026-03-14T11:21:11Z</time>
      </trkpt>
      <trkpt lat="46.86026" lon="0.96506">
        <ele>111.8</ele>
        <time>2026-03-14T11:21:17Z</time>
      </trkpt>
      <trkpt lat="46.86037" lon="0.96485">
        <ele>112.4</ele>
        <time>2026-03-14T11:21:21Z</time>
      </trkpt>
      <trkpt lat="46.86064" lon="0.96433">
        <ele>112.4</ele>
        <time>2026-03-14T11:21:30Z</time>
      </trkpt>
      <trkpt lat="46.86091" lon="0.96378">
        <ele>112.6</ele>
        <time>2026-03-14T11:21:38Z</time>
      </trkpt>
      <trkpt lat="46.86109" lon="0.96337">
        <ele>112.6</ele>
        <time>2026-03-14T11:21:43Z</time>
      </trkpt>
      <trkpt lat="46.86123" lon="0.96285">
        <ele>110.8</ele>
        <time>2026-03-14T11:21:48Z</time>
      </trkpt>
      <trkpt lat="46.86129" lon="0.96251">
        <ele>109.8</ele>
        <time>2026-03-14T11:21:51Z</time>
      </trkpt>
      <trkpt lat="46.86135" lon="0.96203">
        <ele>108.8</ele>
        <time>2026-03-14T11:21:55Z</time>
      </trkpt>
      <trkpt lat="46.86137" lon="0.96191">
        <ele>108.4</ele>
        <time>2026-03-14T11:21:56Z</time>
      </trkpt>
      <trkpt lat="46.86143" lon="0.96141">
        <ele>107.4</ele>
        <time>2026-03-14T11:22:00Z</time>
      </trkpt>
      <trkpt lat="46.86148" lon="0.96103">
        <ele>106.2</ele>
        <time>2026-03-14T11:22:03Z</time>
      </trkpt>
      <trkpt lat="46.86153" lon="0.96064">
        <ele>104.8</ele>
        <time>2026-03-14T11:22:06Z</time>
      </trkpt>
      <trkpt lat="46.86159" lon="0.96026">
        <ele>103.8</ele>
        <time>2026-03-14T11:22:09Z</time>
      </trkpt>
      <trkpt lat="46.86162" lon="0.96005">
        <ele>103.4</ele>
        <time>2026-03-14T11:22:11Z</time>
      </trkpt>
      <trkpt lat="46.86165" lon="0.95985">
        <ele>103.2</ele>
        <time>2026-03-14T11:22:13Z</time>
      </trkpt>
      <trkpt lat="46.86167" lon="0.95968">
        <ele>103.2</ele>
        <time>2026-03-14T11:22:15Z</time>
      </trkpt>
      <trkpt lat="46.86173" lon="0.95932">
        <ele>104.4</ele>
        <time>2026-03-14T11:22:21Z</time>
      </trkpt>
      <trkpt lat="46.86176" lon="0.95912">
        <ele>105</ele>
        <time>2026-03-14T11:22:23Z</time>
      </trkpt>
      <trkpt lat="46.86177" lon="0.95894">
        <ele>105.6</ele>
        <time>2026-03-14T11:22:26Z</time>
      </trkpt>
      <trkpt lat="46.86179" lon="0.95882">
        <ele>106</ele>
        <time>2026-03-14T11:22:28Z</time>
      </trkpt>
      <trkpt lat="46.86179" lon="0.95875">
        <ele>106.2</ele>
        <time>2026-03-14T11:22:29Z</time>
      </trkpt>
      <trkpt lat="46.86181" lon="0.95845">
        <ele>106.8</ele>
        <time>2026-03-14T11:22:34Z</time>
      </trkpt>
      <trkpt lat="46.86181" lon="0.95839">
        <ele>107.2</ele>
        <time>2026-03-14T11:22:35Z</time>
      </trkpt>
      <trkpt lat="46.86181" lon="0.95821">
        <ele>107.8</ele>
        <time>2026-03-14T11:22:38Z</time>
      </trkpt>
      <trkpt lat="46.86178" lon="0.95796">
        <ele>108.2</ele>
        <time>2026-03-14T11:22:42Z</time>
      </trkpt>
      <trkpt lat="46.86171" lon="0.95758">
        <ele>109.4</ele>
        <time>2026-03-14T11:22:48Z</time>
      </trkpt>
      <trkpt lat="46.86168" lon="0.95743">
        <ele>109.4</ele>
        <time>2026-03-14T11:22:50Z</time>
      </trkpt>
      <trkpt lat="46.86166" lon="0.95735">
        <ele>109.6</ele>
        <time>2026-03-14T11:22:51Z</time>
      </trkpt>
      <trkpt lat="46.8616" lon="0.95701">
        <ele>109.6</ele>
        <time>2026-03-14T11:22:55Z</time>
      </trkpt>
      <trkpt lat="46.86145" lon="0.95636">
        <ele>108.4</ele>
        <time>2026-03-14T11:23:02Z</time>
      </trkpt>
      <trkpt lat="46.86143" lon="0.95626">
        <ele>108</ele>
        <time>2026-03-14T11:23:03Z</time>
      </trkpt>
      <trkpt lat="46.86132" lon="0.95574">
        <ele>106.8</ele>
        <time>2026-03-14T11:23:08Z</time>
      </trkpt>
      <trkpt lat="46.86128" lon="0.95554">
        <ele>106.2</ele>
        <time>2026-03-14T11:23:10Z</time>
      </trkpt>
      <trkpt lat="46.86122" lon="0.95527">
        <ele>105.8</ele>
        <time>2026-03-14T11:23:13Z</time>
      </trkpt>
      <trkpt lat="46.86117" lon="0.95504">
        <ele>105.6</ele>
        <time>2026-03-14T11:23:16Z</time>
      </trkpt>
      <trkpt lat="46.86107" lon="0.95466">
        <ele>106.8</ele>
        <time>2026-03-14T11:23:22Z</time>
      </trkpt>
      <trkpt lat="46.86103" lon="0.95449">
        <ele>108</ele>
        <time>2026-03-14T11:23:25Z</time>
      </trkpt>
      <trkpt lat="46.861" lon="0.95432">
        <ele>108.6</ele>
        <time>2026-03-14T11:23:28Z</time>
      </trkpt>
      <trkpt lat="46.86099" lon="0.95427">
        <ele>109</ele>
        <time>2026-03-14T11:23:30Z</time>
      </trkpt>
      <trkpt lat="46.86091" lon="0.95391">
        <ele>110.2</ele>
        <time>2026-03-14T11:23:35Z</time>
      </trkpt>
      <trkpt lat="46.86086" lon="0.95368">
        <ele>111.2</ele>
        <time>2026-03-14T11:23:39Z</time>
      </trkpt>
      <trkpt lat="46.86083" lon="0.95355">
        <ele>111.8</ele>
        <time>2026-03-14T11:23:41Z</time>
      </trkpt>
      <trkpt lat="46.86077" lon="0.95332">
        <ele>112.4</ele>
        <time>2026-03-14T11:23:45Z</time>
      </trkpt>
      <trkpt lat="46.86075" lon="0.95319">
        <ele>112.8</ele>
        <time>2026-03-14T11:23:47Z</time>
      </trkpt>
      <trkpt lat="46.86069" lon="0.95292">
        <ele>113.4</ele>
        <time>2026-03-14T11:23:51Z</time>
      </trkpt>
      <trkpt lat="46.86066" lon="0.95277">
        <ele>113.6</ele>
        <time>2026-03-14T11:23:53Z</time>
      </trkpt>
      <trkpt lat="46.86058" lon="0.95242">
        <ele>114.6</ele>
        <time>2026-03-14T11:23:59Z</time>
      </trkpt>
      <trkpt lat="46.86057" lon="0.95236">
        <ele>114.6</ele>
        <time>2026-03-14T11:24:00Z</time>
      </trkpt>
      <trkpt lat="46.86043" lon="0.95166">
        <ele>115.6</ele>
        <time>2026-03-14T11:24:09Z</time>
      </trkpt>
      <trkpt lat="46.86042" lon="0.95159">
        <ele>115.8</ele>
        <time>2026-03-14T11:24:10Z</time>
      </trkpt>
      <trkpt lat="46.86027" lon="0.95092">
        <ele>116</ele>
        <time>2026-03-14T11:24:19Z</time>
      </trkpt>
      <trkpt lat="46.8601" lon="0.95015">
        <ele>116.4</ele>
        <time>2026-03-14T11:24:29Z</time>
      </trkpt>
      <trkpt lat="46.85993" lon="0.94938">
        <ele>116.6</ele>
        <time>2026-03-14T11:24:39Z</time>
      </trkpt>
      <trkpt lat="46.85988" lon="0.94916">
        <ele>116.6</ele>
        <time>2026-03-14T11:24:42Z</time>
      </trkpt>
      <trkpt lat="46.85981" lon="0.94885">
        <ele>116.6</ele>
        <time>2026-03-14T11:24:46Z</time>
      </trkpt>
      <trkpt lat="46.85972" lon="0.9484">
        <ele>116.8</ele>
        <time>2026-03-14T11:24:52Z</time>
      </trkpt>
      <trkpt lat="46.85964" lon="0.94808">
        <ele>117</ele>
        <time>2026-03-14T11:24:56Z</time>
      </trkpt>
      <trkpt lat="46.85945" lon="0.94728">
        <ele>116.6</ele>
        <time>2026-03-14T11:25:06Z</time>
      </trkpt>
      <trkpt lat="46.85927" lon="0.94641">
        <ele>116.4</ele>
        <time>2026-03-14T11:25:17Z</time>
      </trkpt>
      <trkpt lat="46.85925" lon="0.94633">
        <ele>116.6</ele>
        <time>2026-03-14T11:25:19Z</time>
      </trkpt>
      <trkpt lat="46.85909" lon="0.94557">
        <ele>118</ele>
        <time>2026-03-14T11:25:28Z</time>
      </trkpt>
      <trkpt lat="46.85901" lon="0.94487">
        <ele>118.6</ele>
        <time>2026-03-14T11:25:37Z</time>
      </trkpt>
      <trkpt lat="46.85902" lon="0.94455">
        <ele>119</ele>
        <time>2026-03-14T11:25:41Z</time>
      </trkpt>
      <trkpt lat="46.85907" lon="0.94416">
        <ele>119.6</ele>
        <time>2026-03-14T11:25:46Z</time>
      </trkpt>
      <trkpt lat="46.8592" lon="0.9434">
        <ele>119.8</ele>
        <time>2026-03-14T11:25:55Z</time>
      </trkpt>
      <trkpt lat="46.85932" lon="0.94262">
        <ele>118.8</ele>
        <time>2026-03-14T11:26:03Z</time>
      </trkpt>
      <trkpt lat="46.85936" lon="0.94241">
        <ele>118</ele>
        <time>2026-03-14T11:26:06Z</time>
      </trkpt>
      <trkpt lat="46.85942" lon="0.94198">
        <ele>116.8</ele>
        <time>2026-03-14T11:26:10Z</time>
      </trkpt>
      <trkpt lat="46.85944" lon="0.94187">
        <ele>116.4</ele>
        <time>2026-03-14T11:26:11Z</time>
      </trkpt>
      <trkpt lat="46.8595" lon="0.94154">
        <ele>115.6</ele>
        <time>2026-03-14T11:26:13Z</time>
      </trkpt>
      <trkpt lat="46.85955" lon="0.9412">
        <ele>114</ele>
        <time>2026-03-14T11:26:16Z</time>
      </trkpt>
      <trkpt lat="46.8596" lon="0.94098">
        <ele>113.2</ele>
        <time>2026-03-14T11:26:18Z</time>
      </trkpt>
      <trkpt lat="46.85963" lon="0.94089">
        <ele>113</ele>
        <time>2026-03-14T11:26:19Z</time>
      </trkpt>
      <trkpt lat="46.85966" lon="0.94081">
        <ele>112.6</ele>
        <time>2026-03-14T11:26:20Z</time>
      </trkpt>
      <trkpt lat="46.85973" lon="0.94059">
        <ele>111.6</ele>
        <time>2026-03-14T11:26:23Z</time>
      </trkpt>
      <trkpt lat="46.85971" lon="0.94041">
        <ele>111</ele>
        <time>2026-03-14T11:26:25Z</time>
      </trkpt>
      <trkpt lat="46.85971" lon="0.94041">
        <ele>110.8</ele>
        <time>2026-03-14T11:26:26Z</time>
      </trkpt>
      <trkpt lat="46.85964" lon="0.94023">
        <ele>110.4</ele>
        <time>2026-03-14T11:26:27Z</time>
      </trkpt>
      <trkpt lat="46.85954" lon="0.94006">
        <ele>109.4</ele>
        <time>2026-03-14T11:26:29Z</time>
      </trkpt>
      <trkpt lat="46.85949" lon="0.93997">
        <ele>108.8</ele>
        <time>2026-03-14T11:26:30Z</time>
      </trkpt>
      <trkpt lat="46.85938" lon="0.93967">
        <ele>107.6</ele>
        <time>2026-03-14T11:26:34Z</time>
      </trkpt>
      <trkpt lat="46.8593" lon="0.93946">
        <ele>107.4</ele>
        <time>2026-03-14T11:26:35Z</time>
      </trkpt>
      <trkpt lat="46.85914" lon="0.93895">
        <ele>106.6</ele>
        <time>2026-03-14T11:26:40Z</time>
      </trkpt>
      <trkpt lat="46.85908" lon="0.93873">
        <ele>105.6</ele>
        <time>2026-03-14T11:26:43Z</time>
      </trkpt>
      <trkpt lat="46.85898" lon="0.93842">
        <ele>105</ele>
        <time>2026-03-14T11:26:46Z</time>
      </trkpt>
      <trkpt lat="46.85887" lon="0.9381">
        <ele>104.4</ele>
        <time>2026-03-14T11:26:49Z</time>
      </trkpt>
      <trkpt lat="46.85878" lon="0.93778">
        <ele>103.8</ele>
        <time>2026-03-14T11:26:52Z</time>
      </trkpt>
      <trkpt lat="46.85867" lon="0.93747">
        <ele>103.4</ele>
        <time>2026-03-14T11:26:54Z</time>
      </trkpt>
      <trkpt lat="46.85848" lon="0.93683">
        <ele>102.2</ele>
        <time>2026-03-14T11:27:00Z</time>
      </trkpt>
      <trkpt lat="46.85831" lon="0.93631">
        <ele>101</ele>
        <time>2026-03-14T11:27:05Z</time>
      </trkpt>
      <trkpt lat="46.85808" lon="0.93556">
        <ele>99.8</ele>
        <time>2026-03-14T11:27:13Z</time>
      </trkpt>
      <trkpt lat="46.85801" lon="0.93535">
        <ele>99.6</ele>
        <time>2026-03-14T11:27:14Z</time>
      </trkpt>
      <trkpt lat="46.85795" lon="0.93514">
        <ele>98.6</ele>
        <time>2026-03-14T11:27:17Z</time>
      </trkpt>
      <trkpt lat="46.85776" lon="0.9345">
        <ele>97.4</ele>
        <time>2026-03-14T11:27:22Z</time>
      </trkpt>
      <trkpt lat="46.85768" lon="0.93429">
        <ele>97</ele>
        <time>2026-03-14T11:27:24Z</time>
      </trkpt>
      <trkpt lat="46.85754" lon="0.93396">
        <ele>96.2</ele>
        <time>2026-03-14T11:27:27Z</time>
      </trkpt>
      <trkpt lat="46.85736" lon="0.93354">
        <ele>95.8</ele>
        <time>2026-03-14T11:27:31Z</time>
      </trkpt>
      <trkpt lat="46.85726" lon="0.93335">
        <ele>95.2</ele>
        <time>2026-03-14T11:27:33Z</time>
      </trkpt>
      <trkpt lat="46.85708" lon="0.933">
        <ele>94.2</ele>
        <time>2026-03-14T11:27:36Z</time>
      </trkpt>
      <trkpt lat="46.85694" lon="0.93269">
        <ele>92.8</ele>
        <time>2026-03-14T11:27:39Z</time>
      </trkpt>
      <trkpt lat="46.85684" lon="0.93242">
        <ele>92</ele>
        <time>2026-03-14T11:27:41Z</time>
      </trkpt>
      <trkpt lat="46.85681" lon="0.9323">
        <ele>91.6</ele>
        <time>2026-03-14T11:27:42Z</time>
      </trkpt>
      <trkpt lat="46.85675" lon="0.93209">
        <ele>90.8</ele>
        <time>2026-03-14T11:27:44Z</time>
      </trkpt>
      <trkpt lat="46.85675" lon="0.93209">
        <ele>90.4</ele>
        <time>2026-03-14T11:27:45Z</time>
      </trkpt>
      <trkpt lat="46.85659" lon="0.93151">
        <ele>89</ele>
        <time>2026-03-14T11:27:49Z</time>
      </trkpt>
      <trkpt lat="46.85652" lon="0.93126">
        <ele>87.6</ele>
        <time>2026-03-14T11:27:51Z</time>
      </trkpt>
      <trkpt lat="46.85642" lon="0.93079">
        <ele>86.6</ele>
        <time>2026-03-14T11:27:55Z</time>
      </trkpt>
      <trkpt lat="46.85636" lon="0.93056">
        <ele>86.2</ele>
        <time>2026-03-14T11:27:57Z</time>
      </trkpt>
      <trkpt lat="46.85626" lon="0.93026">
        <ele>85.4</ele>
        <time>2026-03-14T11:28:00Z</time>
      </trkpt>
      <trkpt lat="46.85613" lon="0.92994">
        <ele>84</ele>
        <time>2026-03-14T11:28:03Z</time>
      </trkpt>
      <trkpt lat="46.85607" lon="0.92982">
        <ele>83.8</ele>
        <time>2026-03-14T11:28:04Z</time>
      </trkpt>
      <trkpt lat="46.85596" lon="0.92966">
        <ele>83</ele>
        <time>2026-03-14T11:28:06Z</time>
      </trkpt>
      <trkpt lat="46.85589" lon="0.92961">
        <ele>82.6</ele>
        <time>2026-03-14T11:28:07Z</time>
      </trkpt>
      <trkpt lat="46.85583" lon="0.92956">
        <ele>81.8</ele>
        <time>2026-03-14T11:28:08Z</time>
      </trkpt>
      <trkpt lat="46.85565" lon="0.92941">
        <ele>80.6</ele>
        <time>2026-03-14T11:28:11Z</time>
      </trkpt>
      <trkpt lat="46.85559" lon="0.92938">
        <ele>80.4</ele>
        <time>2026-03-14T11:28:12Z</time>
      </trkpt>
      <trkpt lat="46.85553" lon="0.92937">
        <ele>80.2</ele>
        <time>2026-03-14T11:28:13Z</time>
      </trkpt>
      <trkpt lat="46.85533" lon="0.92938">
        <ele>80</ele>
        <time>2026-03-14T11:28:16Z</time>
      </trkpt>
      <trkpt lat="46.85519" lon="0.92938">
        <ele>79.4</ele>
        <time>2026-03-14T11:28:18Z</time>
      </trkpt>
      <trkpt lat="46.85489" lon="0.92938">
        <ele>77.6</ele>
        <time>2026-03-14T11:28:22Z</time>
      </trkpt>
      <trkpt lat="46.85483" lon="0.92938">
        <ele>77.2</ele>
        <time>2026-03-14T11:28:23Z</time>
      </trkpt>
      <trkpt lat="46.85478" lon="0.92938">
        <ele>76.6</ele>
        <time>2026-03-14T11:28:24Z</time>
      </trkpt>
      <trkpt lat="46.8547" lon="0.92938">
        <ele>75.6</ele>
        <time>2026-03-14T11:28:26Z</time>
      </trkpt>
      <trkpt lat="46.85466" lon="0.92937">
        <ele>74.6</ele>
        <time>2026-03-14T11:28:27Z</time>
      </trkpt>
      <trkpt lat="46.85462" lon="0.92934">
        <ele>73.8</ele>
        <time>2026-03-14T11:28:28Z</time>
      </trkpt>
      <trkpt lat="46.85457" lon="0.92925">
        <ele>72.6</ele>
        <time>2026-03-14T11:28:30Z</time>
      </trkpt>
      <trkpt lat="46.85457" lon="0.92914">
        <ele>71.6</ele>
        <time>2026-03-14T11:28:32Z</time>
      </trkpt>
      <trkpt lat="46.85458" lon="0.92909">
        <ele>71.4</ele>
        <time>2026-03-14T11:28:33Z</time>
      </trkpt>
      <trkpt lat="46.85459" lon="0.92903">
        <ele>70.8</ele>
        <time>2026-03-14T11:28:34Z</time>
      </trkpt>
      <trkpt lat="46.8546" lon="0.92897">
        <ele>70.4</ele>
        <time>2026-03-14T11:28:35Z</time>
      </trkpt>
      <trkpt lat="46.85463" lon="0.92883">
        <ele>70.2</ele>
        <time>2026-03-14T11:28:37Z</time>
      </trkpt>
      <trkpt lat="46.85466" lon="0.9287">
        <ele>70</ele>
        <time>2026-03-14T11:28:39Z</time>
      </trkpt>
      <trkpt lat="46.85468" lon="0.92857">
        <ele>70</ele>
        <time>2026-03-14T11:28:41Z</time>
      </trkpt>
      <trkpt lat="46.85472" lon="0.9283">
        <ele>70.4</ele>
        <time>2026-03-14T11:28:45Z</time>
      </trkpt>
      <trkpt lat="46.85473" lon="0.92822">
        <ele>70.6</ele>
        <time>2026-03-14T11:28:46Z</time>
      </trkpt>
      <trkpt lat="46.85473" lon="0.92798">
        <ele>71</ele>
        <time>2026-03-14T11:28:49Z</time>
      </trkpt>
      <trkpt lat="46.85472" lon="0.92773">
        <ele>71.2</ele>
        <time>2026-03-14T11:28:52Z</time>
      </trkpt>
      <trkpt lat="46.85472" lon="0.92765">
        <ele>71.2</ele>
        <time>2026-03-14T11:28:53Z</time>
      </trkpt>
      <trkpt lat="46.85477" lon="0.92701">
        <ele>70.2</ele>
        <time>2026-03-14T11:29:00Z</time>
      </trkpt>
      <trkpt lat="46.85478" lon="0.92681">
        <ele>69</ele>
        <time>2026-03-14T11:29:02Z</time>
      </trkpt>
      <trkpt lat="46.8548" lon="0.92662">
        <ele>68</ele>
        <time>2026-03-14T11:29:04Z</time>
      </trkpt>
      <trkpt lat="46.85482" lon="0.92654">
        <ele>67.6</ele>
        <time>2026-03-14T11:29:05Z</time>
      </trkpt>
      <trkpt lat="46.85486" lon="0.92647">
        <ele>67</ele>
        <time>2026-03-14T11:29:06Z</time>
      </trkpt>
      <trkpt lat="46.85492" lon="0.92642">
        <ele>66.6</ele>
        <time>2026-03-14T11:29:07Z</time>
      </trkpt>
      <trkpt lat="46.85498" lon="0.92637">
        <ele>66.4</ele>
        <time>2026-03-14T11:29:08Z</time>
      </trkpt>
      <trkpt lat="46.85504" lon="0.92633">
        <ele>65.8</ele>
        <time>2026-03-14T11:29:09Z</time>
      </trkpt>
      <trkpt lat="46.85509" lon="0.92631">
        <ele>65.6</ele>
        <time>2026-03-14T11:29:10Z</time>
      </trkpt>
      <trkpt lat="46.85531" lon="0.92621">
        <ele>64.2</ele>
        <time>2026-03-14T11:29:13Z</time>
      </trkpt>
      <trkpt lat="46.85559" lon="0.92608">
        <ele>63.2</ele>
        <time>2026-03-14T11:29:17Z</time>
      </trkpt>
      <trkpt lat="46.85578" lon="0.92599">
        <ele>62.4</ele>
        <time>2026-03-14T11:29:20Z</time>
      </trkpt>
      <trkpt lat="46.85593" lon="0.92591">
        <ele>62.2</ele>
        <time>2026-03-14T11:29:22Z</time>
      </trkpt>
      <trkpt lat="46.85604" lon="0.92583">
        <ele>61.8</ele>
        <time>2026-03-14T11:29:24Z</time>
      </trkpt>
      <trkpt lat="46.85615" lon="0.92571">
        <ele>61.6</ele>
        <time>2026-03-14T11:29:26Z</time>
      </trkpt>
      <trkpt lat="46.85647" lon="0.92525">
        <ele>61.4</ele>
        <time>2026-03-14T11:29:33Z</time>
      </trkpt>
      <trkpt lat="46.85668" lon="0.92493">
        <ele>61.8</ele>
        <time>2026-03-14T11:29:39Z</time>
      </trkpt>
      <trkpt lat="46.85688" lon="0.92466">
        <ele>63.2</ele>
        <time>2026-03-14T11:29:45Z</time>
      </trkpt>
      <trkpt lat="46.85691" lon="0.92461">
        <ele>63.6</ele>
        <time>2026-03-14T11:29:47Z</time>
      </trkpt>
      <trkpt lat="46.85698" lon="0.92451">
        <ele>64</ele>
        <time>2026-03-14T11:29:48Z</time>
      </trkpt>
      <trkpt lat="46.85704" lon="0.92442">
        <ele>64.4</ele>
        <time>2026-03-14T11:29:50Z</time>
      </trkpt>
      <trkpt lat="46.85713" lon="0.92427">
        <ele>64.8</ele>
        <time>2026-03-14T11:29:53Z</time>
      </trkpt>
      <trkpt lat="46.85716" lon="0.92423">
        <ele>65</ele>
        <time>2026-03-14T11:29:54Z</time>
      </trkpt>
      <trkpt lat="46.85725" lon="0.92412">
        <ele>65.2</ele>
        <time>2026-03-14T11:29:57Z</time>
      </trkpt>
      <trkpt lat="46.85728" lon="0.92408">
        <ele>65.6</ele>
        <time>2026-03-14T11:29:58Z</time>
      </trkpt>
      <trkpt lat="46.85731" lon="0.92404">
        <ele>65.8</ele>
        <time>2026-03-14T11:29:59Z</time>
      </trkpt>
      <trkpt lat="46.85742" lon="0.92389">
        <ele>66.6</ele>
        <time>2026-03-14T11:30:03Z</time>
      </trkpt>
      <trkpt lat="46.8575" lon="0.92378">
        <ele>67.4</ele>
        <time>2026-03-14T11:30:06Z</time>
      </trkpt>
      <trkpt lat="46.85753" lon="0.92375">
        <ele>67.8</ele>
        <time>2026-03-14T11:30:07Z</time>
      </trkpt>
      <trkpt lat="46.8577" lon="0.9235">
        <ele>68.8</ele>
        <time>2026-03-14T11:30:13Z</time>
      </trkpt>
      <trkpt lat="46.85773" lon="0.92346">
        <ele>69.4</ele>
        <time>2026-03-14T11:30:14Z</time>
      </trkpt>
      <trkpt lat="46.8578" lon="0.92334">
        <ele>70.2</ele>
        <time>2026-03-14T11:30:17Z</time>
      </trkpt>
      <trkpt lat="46.85791" lon="0.92318">
        <ele>71.2</ele>
        <time>2026-03-14T11:30:21Z</time>
      </trkpt>
      <trkpt lat="46.85798" lon="0.92307">
        <ele>71.8</ele>
        <time>2026-03-14T11:30:24Z</time>
      </trkpt>
      <trkpt lat="46.85803" lon="0.92299">
        <ele>72.4</ele>
        <time>2026-03-14T11:30:26Z</time>
      </trkpt>
      <trkpt lat="46.85816" lon="0.9228">
        <ele>73.4</ele>
        <time>2026-03-14T11:30:31Z</time>
      </trkpt>
      <trkpt lat="46.85819" lon="0.92276">
        <ele>73.6</ele>
        <time>2026-03-14T11:30:32Z</time>
      </trkpt>
      <trkpt lat="46.85829" lon="0.9226">
        <ele>74.8</ele>
        <time>2026-03-14T11:30:36Z</time>
      </trkpt>
      <trkpt lat="46.85842" lon="0.92242">
        <ele>75.8</ele>
        <time>2026-03-14T11:30:41Z</time>
      </trkpt>
      <trkpt lat="46.85844" lon="0.92238">
        <ele>75.8</ele>
        <time>2026-03-14T11:30:42Z</time>
      </trkpt>
      <trkpt lat="46.85863" lon="0.92211">
        <ele>76.8</ele>
        <time>2026-03-14T11:30:49Z</time>
      </trkpt>
      <trkpt lat="46.85873" lon="0.92199">
        <ele>77.2</ele>
        <time>2026-03-14T11:30:52Z</time>
      </trkpt>
      <trkpt lat="46.85897" lon="0.92169">
        <ele>77</ele>
        <time>2026-03-14T11:30:58Z</time>
      </trkpt>
      <trkpt lat="46.85927" lon="0.92123">
        <ele>76.4</ele>
        <time>2026-03-14T11:31:05Z</time>
      </trkpt>
      <trkpt lat="46.85939" lon="0.92097">
        <ele>75.4</ele>
        <time>2026-03-14T11:31:08Z</time>
      </trkpt>
      <trkpt lat="46.85949" lon="0.92067">
        <ele>75</ele>
        <time>2026-03-14T11:31:11Z</time>
      </trkpt>
      <trkpt lat="46.85955" lon="0.92045">
        <ele>74.2</ele>
        <time>2026-03-14T11:31:13Z</time>
      </trkpt>
      <trkpt lat="46.85966" lon="0.92011">
        <ele>73</ele>
        <time>2026-03-14T11:31:16Z</time>
      </trkpt>
      <trkpt lat="46.85973" lon="0.9199">
        <ele>71.4</ele>
        <time>2026-03-14T11:31:18Z</time>
      </trkpt>
      <trkpt lat="46.85984" lon="0.91953">
        <ele>69.8</ele>
        <time>2026-03-14T11:31:21Z</time>
      </trkpt>
      <trkpt lat="46.85991" lon="0.91931">
        <ele>68.2</ele>
        <time>2026-03-14T11:31:23Z</time>
      </trkpt>
      <trkpt lat="46.85997" lon="0.91911">
        <ele>67.6</ele>
        <time>2026-03-14T11:31:25Z</time>
      </trkpt>
      <trkpt lat="46.86013" lon="0.91861">
        <ele>67.2</ele>
        <time>2026-03-14T11:31:31Z</time>
      </trkpt>
      <trkpt lat="46.86025" lon="0.91823">
        <ele>67.8</ele>
        <time>2026-03-14T11:31:37Z</time>
      </trkpt>
      <trkpt lat="46.86038" lon="0.91784">
        <ele>69</ele>
        <time>2026-03-14T11:31:44Z</time>
      </trkpt>
      <trkpt lat="46.8604" lon="0.91775">
        <ele>69.4</ele>
        <time>2026-03-14T11:31:46Z</time>
      </trkpt>
      <trkpt lat="46.86049" lon="0.91747">
        <ele>70.4</ele>
        <time>2026-03-14T11:31:51Z</time>
      </trkpt>
      <trkpt lat="46.86058" lon="0.91722">
        <ele>71.8</ele>
        <time>2026-03-14T11:31:56Z</time>
      </trkpt>
      <trkpt lat="46.86065" lon="0.91702">
        <ele>72.6</ele>
        <time>2026-03-14T11:32:00Z</time>
      </trkpt>
      <trkpt lat="46.86067" lon="0.91697">
        <ele>72.8</ele>
        <time>2026-03-14T11:32:01Z</time>
      </trkpt>
      <trkpt lat="46.86076" lon="0.91667">
        <ele>73.8</ele>
        <time>2026-03-14T11:32:07Z</time>
      </trkpt>
      <trkpt lat="46.86077" lon="0.91662">
        <ele>74</ele>
        <time>2026-03-14T11:32:08Z</time>
      </trkpt>
      <trkpt lat="46.86085" lon="0.91638">
        <ele>75.6</ele>
        <time>2026-03-14T11:32:13Z</time>
      </trkpt>
      <trkpt lat="46.86088" lon="0.91627">
        <ele>76.2</ele>
        <time>2026-03-14T11:32:15Z</time>
      </trkpt>
      <trkpt lat="46.86094" lon="0.91609">
        <ele>76.8</ele>
        <time>2026-03-14T11:32:19Z</time>
      </trkpt>
      <trkpt lat="46.86099" lon="0.91591">
        <ele>77.8</ele>
        <time>2026-03-14T11:32:23Z</time>
      </trkpt>
      <trkpt lat="46.86105" lon="0.91572">
        <ele>78.4</ele>
        <time>2026-03-14T11:32:27Z</time>
      </trkpt>
      <trkpt lat="46.8611" lon="0.91557">
        <ele>79</ele>
        <time>2026-03-14T11:32:30Z</time>
      </trkpt>
      <trkpt lat="46.86116" lon="0.91538">
        <ele>80</ele>
        <time>2026-03-14T11:32:34Z</time>
      </trkpt>
      <trkpt lat="46.86118" lon="0.91533">
        <ele>80.2</ele>
        <time>2026-03-14T11:32:35Z</time>
      </trkpt>
      <trkpt lat="46.86125" lon="0.91506">
        <ele>81.2</ele>
        <time>2026-03-14T11:32:41Z</time>
      </trkpt>
      <trkpt lat="46.86128" lon="0.91493">
        <ele>82</ele>
        <time>2026-03-14T11:32:44Z</time>
      </trkpt>
      <trkpt lat="46.86134" lon="0.91479">
        <ele>82.6</ele>
        <time>2026-03-14T11:32:47Z</time>
      </trkpt>
      <trkpt lat="46.86141" lon="0.91457">
        <ele>83.6</ele>
        <time>2026-03-14T11:32:52Z</time>
      </trkpt>
      <trkpt lat="46.86149" lon="0.91434">
        <ele>84.8</ele>
        <time>2026-03-14T11:32:57Z</time>
      </trkpt>
      <trkpt lat="46.86157" lon="0.9141">
        <ele>86</ele>
        <time>2026-03-14T11:33:02Z</time>
      </trkpt>
      <trkpt lat="46.8616" lon="0.91401">
        <ele>86.4</ele>
        <time>2026-03-14T11:33:04Z</time>
      </trkpt>
      <trkpt lat="46.86167" lon="0.91379">
        <ele>87.2</ele>
        <time>2026-03-14T11:33:09Z</time>
      </trkpt>
      <trkpt lat="46.86173" lon="0.91361">
        <ele>88.2</ele>
        <time>2026-03-14T11:33:13Z</time>
      </trkpt>
      <trkpt lat="46.86174" lon="0.91357">
        <ele>88.6</ele>
        <time>2026-03-14T11:33:14Z</time>
      </trkpt>
      <trkpt lat="46.8618" lon="0.91339">
        <ele>89.4</ele>
        <time>2026-03-14T11:33:18Z</time>
      </trkpt>
      <trkpt lat="46.86184" lon="0.91324">
        <ele>90</ele>
        <time>2026-03-14T11:33:21Z</time>
      </trkpt>
      <trkpt lat="46.86186" lon="0.9132">
        <ele>90.4</ele>
        <time>2026-03-14T11:33:22Z</time>
      </trkpt>
      <trkpt lat="46.86196" lon="0.91289">
        <ele>91.4</ele>
        <time>2026-03-14T11:33:29Z</time>
      </trkpt>
      <trkpt lat="46.86198" lon="0.91285">
        <ele>91.6</ele>
        <time>2026-03-14T11:33:30Z</time>
      </trkpt>
      <trkpt lat="46.86204" lon="0.91267">
        <ele>92.4</ele>
        <time>2026-03-14T11:33:34Z</time>
      </trkpt>
      <trkpt lat="46.8621" lon="0.91244">
        <ele>93.6</ele>
        <time>2026-03-14T11:33:39Z</time>
      </trkpt>
      <trkpt lat="46.86216" lon="0.91226">
        <ele>94.4</ele>
        <time>2026-03-14T11:33:43Z</time>
      </trkpt>
      <trkpt lat="46.8622" lon="0.91218">
        <ele>94.6</ele>
        <time>2026-03-14T11:33:45Z</time>
      </trkpt>
      <trkpt lat="46.86228" lon="0.91199">
        <ele>95.6</ele>
        <time>2026-03-14T11:33:49Z</time>
      </trkpt>
      <trkpt lat="46.86231" lon="0.91195">
        <ele>96</ele>
        <time>2026-03-14T11:33:50Z</time>
      </trkpt>
      <trkpt lat="46.86233" lon="0.91191">
        <ele>96.4</ele>
        <time>2026-03-14T11:33:51Z</time>
      </trkpt>
      <trkpt lat="46.86238" lon="0.91183">
        <ele>96.6</ele>
        <time>2026-03-14T11:33:53Z</time>
      </trkpt>
      <trkpt lat="46.86249" lon="0.91163">
        <ele>98</ele>
        <time>2026-03-14T11:33:58Z</time>
      </trkpt>
      <trkpt lat="46.86254" lon="0.91155">
        <ele>98.4</ele>
        <time>2026-03-14T11:34:00Z</time>
      </trkpt>
      <trkpt lat="46.8626" lon="0.91144">
        <ele>99</ele>
        <time>2026-03-14T11:34:03Z</time>
      </trkpt>
      <trkpt lat="46.86274" lon="0.9112">
        <ele>100.2</ele>
        <time>2026-03-14T11:34:09Z</time>
      </trkpt>
      <trkpt lat="46.86281" lon="0.91108">
        <ele>100.4</ele>
        <time>2026-03-14T11:34:12Z</time>
      </trkpt>
      <trkpt lat="46.86292" lon="0.91086">
        <ele>101.2</ele>
        <time>2026-03-14T11:34:17Z</time>
      </trkpt>
      <trkpt lat="46.86304" lon="0.91064">
        <ele>101.6</ele>
        <time>2026-03-14T11:34:22Z</time>
      </trkpt>
      <trkpt lat="46.86314" lon="0.91046">
        <ele>102.2</ele>
        <time>2026-03-14T11:34:26Z</time>
      </trkpt>
      <trkpt lat="46.86329" lon="0.91018">
        <ele>103.4</ele>
        <time>2026-03-14T11:34:32Z</time>
      </trkpt>
      <trkpt lat="46.86332" lon="0.91013">
        <ele>103.4</ele>
        <time>2026-03-14T11:34:33Z</time>
      </trkpt>
      <trkpt lat="46.86349" lon="0.90981">
        <ele>103.6</ele>
        <time>2026-03-14T11:34:38Z</time>
      </trkpt>
      <trkpt lat="46.86378" lon="0.90926">
        <ele>102.6</ele>
        <time>2026-03-14T11:34:45Z</time>
      </trkpt>
      <trkpt lat="46.86387" lon="0.90909">
        <ele>102</ele>
        <time>2026-03-14T11:34:47Z</time>
      </trkpt>
      <trkpt lat="46.86409" lon="0.90868">
        <ele>101</ele>
        <time>2026-03-14T11:34:52Z</time>
      </trkpt>
      <trkpt lat="46.86413" lon="0.90861">
        <ele>101</ele>
        <time>2026-03-14T11:34:53Z</time>
      </trkpt>
      <trkpt lat="46.86426" lon="0.90837">
        <ele>101</ele>
        <time>2026-03-14T11:34:57Z</time>
      </trkpt>
      <trkpt lat="46.86443" lon="0.90806">
        <ele>102</ele>
        <time>2026-03-14T11:35:03Z</time>
      </trkpt>
      <trkpt lat="46.86446" lon="0.90801">
        <ele>102.4</ele>
        <time>2026-03-14T11:35:04Z</time>
      </trkpt>
      <trkpt lat="46.86455" lon="0.90782">
        <ele>103</ele>
        <time>2026-03-14T11:35:08Z</time>
      </trkpt>
      <trkpt lat="46.8646" lon="0.90773">
        <ele>103.4</ele>
        <time>2026-03-14T11:35:10Z</time>
      </trkpt>
      <trkpt lat="46.86467" lon="0.9076">
        <ele>104.4</ele>
        <time>2026-03-14T11:35:13Z</time>
      </trkpt>
      <trkpt lat="46.86478" lon="0.90739">
        <ele>105.4</ele>
        <time>2026-03-14T11:35:18Z</time>
      </trkpt>
      <trkpt lat="46.86494" lon="0.9071">
        <ele>106.2</ele>
        <time>2026-03-14T11:35:25Z</time>
      </trkpt>
      <trkpt lat="46.86502" lon="0.90698">
        <ele>106.6</ele>
        <time>2026-03-14T11:35:28Z</time>
      </trkpt>
      <trkpt lat="46.86513" lon="0.90681">
        <ele>107.6</ele>
        <time>2026-03-14T11:35:32Z</time>
      </trkpt>
      <trkpt lat="46.86517" lon="0.90678">
        <ele>107.8</ele>
        <time>2026-03-14T11:35:33Z</time>
      </trkpt>
      <trkpt lat="46.86533" lon="0.9066">
        <ele>109</ele>
        <time>2026-03-14T11:35:38Z</time>
      </trkpt>
      <trkpt lat="46.86547" lon="0.90646">
        <ele>109.4</ele>
        <time>2026-03-14T11:35:42Z</time>
      </trkpt>
      <trkpt lat="46.86562" lon="0.90632">
        <ele>110</ele>
        <time>2026-03-14T11:35:46Z</time>
      </trkpt>
      <trkpt lat="46.86584" lon="0.9061">
        <ele>110.6</ele>
        <time>2026-03-14T11:35:52Z</time>
      </trkpt>
      <trkpt lat="46.86595" lon="0.90598">
        <ele>111</ele>
        <time>2026-03-14T11:35:55Z</time>
      </trkpt>
      <trkpt lat="46.86598" lon="0.90594">
        <ele>111</ele>
        <time>2026-03-14T11:35:56Z</time>
      </trkpt>
      <trkpt lat="46.86606" lon="0.90588">
        <ele>111.2</ele>
        <time>2026-03-14T11:35:58Z</time>
      </trkpt>
      <trkpt lat="46.86629" lon="0.90565">
        <ele>112.2</ele>
        <time>2026-03-14T11:36:04Z</time>
      </trkpt>
      <trkpt lat="46.86649" lon="0.90545">
        <ele>112.6</ele>
        <time>2026-03-14T11:36:09Z</time>
      </trkpt>
      <trkpt lat="46.86682" lon="0.90512">
        <ele>113</ele>
        <time>2026-03-14T11:36:16Z</time>
      </trkpt>
      <trkpt lat="46.8672" lon="0.90473">
        <ele>112.4</ele>
        <time>2026-03-14T11:36:23Z</time>
      </trkpt>
      <trkpt lat="46.86762" lon="0.9043">
        <ele>111.2</ele>
        <time>2026-03-14T11:36:30Z</time>
      </trkpt>
      <trkpt lat="46.868" lon="0.90378">
        <ele>110</ele>
        <time>2026-03-14T11:36:37Z</time>
      </trkpt>
      <trkpt lat="46.86827" lon="0.90317">
        <ele>109</ele>
        <time>2026-03-14T11:36:44Z</time>
      </trkpt>
      <trkpt lat="46.86846" lon="0.9027">
        <ele>108.8</ele>
        <time>2026-03-14T11:36:50Z</time>
      </trkpt>
      <trkpt lat="46.86852" lon="0.90256">
        <ele>109</ele>
        <time>2026-03-14T11:36:52Z</time>
      </trkpt>
      <trkpt lat="46.86861" lon="0.90233">
        <ele>109.6</ele>
        <time>2026-03-14T11:36:56Z</time>
      </trkpt>
      <trkpt lat="46.86868" lon="0.90217">
        <ele>110</ele>
        <time>2026-03-14T11:36:59Z</time>
      </trkpt>
      <trkpt lat="46.86879" lon="0.9019">
        <ele>110.6</ele>
        <time>2026-03-14T11:37:04Z</time>
      </trkpt>
      <trkpt lat="46.86885" lon="0.90175">
        <ele>111.2</ele>
        <time>2026-03-14T11:37:07Z</time>
      </trkpt>
      <trkpt lat="46.86896" lon="0.90152">
        <ele>112.4</ele>
        <time>2026-03-14T11:37:12Z</time>
      </trkpt>
      <trkpt lat="46.86908" lon="0.90123">
        <ele>113.4</ele>
        <time>2026-03-14T11:37:18Z</time>
      </trkpt>
      <trkpt lat="46.86917" lon="0.90098">
        <ele>114.2</ele>
        <time>2026-03-14T11:37:23Z</time>
      </trkpt>
      <trkpt lat="46.86919" lon="0.90093">
        <ele>114.6</ele>
        <time>2026-03-14T11:37:24Z</time>
      </trkpt>
      <trkpt lat="46.86928" lon="0.90071">
        <ele>116</ele>
        <time>2026-03-14T11:37:29Z</time>
      </trkpt>
      <trkpt lat="46.86936" lon="0.90048">
        <ele>117.2</ele>
        <time>2026-03-14T11:37:34Z</time>
      </trkpt>
      <trkpt lat="46.86944" lon="0.90029">
        <ele>118.2</ele>
        <time>2026-03-14T11:37:38Z</time>
      </trkpt>
      <trkpt lat="46.86946" lon="0.90025">
        <ele>118.2</ele>
        <time>2026-03-14T11:37:39Z</time>
      </trkpt>
      <trkpt lat="46.86957" lon="0.89998">
        <ele>119.2</ele>
        <time>2026-03-14T11:37:45Z</time>
      </trkpt>
      <trkpt lat="46.86959" lon="0.89993">
        <ele>119.4</ele>
        <time>2026-03-14T11:37:46Z</time>
      </trkpt>
      <trkpt lat="46.86971" lon="0.89964">
        <ele>120.4</ele>
        <time>2026-03-14T11:37:52Z</time>
      </trkpt>
      <trkpt lat="46.86976" lon="0.89952">
        <ele>120.6</ele>
        <time>2026-03-14T11:37:54Z</time>
      </trkpt>
      <trkpt lat="46.86996" lon="0.89903">
        <ele>121</ele>
        <time>2026-03-14T11:38:02Z</time>
      </trkpt>
      <trkpt lat="46.87017" lon="0.89848">
        <ele>121</ele>
        <time>2026-03-14T11:38:10Z</time>
      </trkpt>
      <trkpt lat="46.87032" lon="0.89797">
        <ele>120.4</ele>
        <time>2026-03-14T11:38:16Z</time>
      </trkpt>
      <trkpt lat="46.87046" lon="0.89749">
        <ele>119.4</ele>
        <time>2026-03-14T11:38:21Z</time>
      </trkpt>
      <trkpt lat="46.87051" lon="0.89728">
        <ele>119.2</ele>
        <time>2026-03-14T11:38:23Z</time>
      </trkpt>
      <trkpt lat="46.87063" lon="0.89685">
        <ele>118.4</ele>
        <time>2026-03-14T11:38:27Z</time>
      </trkpt>
      <trkpt lat="46.87075" lon="0.89641">
        <ele>117.2</ele>
        <time>2026-03-14T11:38:31Z</time>
      </trkpt>
      <trkpt lat="46.87095" lon="0.89571">
        <ele>115.8</ele>
        <time>2026-03-14T11:38:37Z</time>
      </trkpt>
      <trkpt lat="46.87108" lon="0.89522">
        <ele>115</ele>
        <time>2026-03-14T11:38:41Z</time>
      </trkpt>
      <trkpt lat="46.87111" lon="0.8951">
        <ele>114.6</ele>
        <time>2026-03-14T11:38:42Z</time>
      </trkpt>
      <trkpt lat="46.87121" lon="0.89476">
        <ele>113.4</ele>
        <time>2026-03-14T11:38:45Z</time>
      </trkpt>
      <trkpt lat="46.87127" lon="0.89456">
        <ele>113.2</ele>
        <time>2026-03-14T11:38:47Z</time>
      </trkpt>
      <trkpt lat="46.87141" lon="0.89401">
        <ele>113.4</ele>
        <time>2026-03-14T11:38:53Z</time>
      </trkpt>
      <trkpt lat="46.87156" lon="0.89353">
        <ele>114.4</ele>
        <time>2026-03-14T11:38:59Z</time>
      </trkpt>
      <trkpt lat="46.87158" lon="0.89345">
        <ele>114.6</ele>
        <time>2026-03-14T11:39:00Z</time>
      </trkpt>
      <trkpt lat="46.87173" lon="0.89295">
        <ele>115.4</ele>
        <time>2026-03-14T11:39:07Z</time>
      </trkpt>
      <trkpt lat="46.87188" lon="0.89246">
        <ele>116.6</ele>
        <time>2026-03-14T11:39:14Z</time>
      </trkpt>
      <trkpt lat="46.87194" lon="0.89224">
        <ele>117</ele>
        <time>2026-03-14T11:39:17Z</time>
      </trkpt>
      <trkpt lat="46.87205" lon="0.89185">
        <ele>117.6</ele>
        <time>2026-03-14T11:39:22Z</time>
      </trkpt>
      <trkpt lat="46.87211" lon="0.89164">
        <ele>118</ele>
        <time>2026-03-14T11:39:25Z</time>
      </trkpt>
      <trkpt lat="46.87232" lon="0.89086">
        <ele>118.4</ele>
        <time>2026-03-14T11:39:35Z</time>
      </trkpt>
      <trkpt lat="46.87245" lon="0.89037">
        <ele>118.8</ele>
        <time>2026-03-14T11:39:41Z</time>
      </trkpt>
      <trkpt lat="46.87266" lon="0.88965">
        <ele>119.2</ele>
        <time>2026-03-14T11:39:50Z</time>
      </trkpt>
      <trkpt lat="46.87288" lon="0.88886">
        <ele>119.4</ele>
        <time>2026-03-14T11:40:00Z</time>
      </trkpt>
      <trkpt lat="46.87308" lon="0.88813">
        <ele>119.4</ele>
        <time>2026-03-14T11:40:09Z</time>
      </trkpt>
      <trkpt lat="46.87311" lon="0.88806">
        <ele>119.4</ele>
        <time>2026-03-14T11:40:10Z</time>
      </trkpt>
      <trkpt lat="46.87326" lon="0.88749">
        <ele>119.2</ele>
        <time>2026-03-14T11:40:17Z</time>
      </trkpt>
      <trkpt lat="46.87338" lon="0.88677">
        <ele>119.2</ele>
        <time>2026-03-14T11:40:25Z</time>
      </trkpt>
      <trkpt lat="46.87344" lon="0.88592">
        <ele>118.6</ele>
        <time>2026-03-14T11:40:34Z</time>
      </trkpt>
      <trkpt lat="46.8735" lon="0.88505">
        <ele>118.4</ele>
        <time>2026-03-14T11:40:43Z</time>
      </trkpt>
      <trkpt lat="46.8735" lon="0.88497">
        <ele>118.2</ele>
        <time>2026-03-14T11:40:44Z</time>
      </trkpt>
      <trkpt lat="46.87354" lon="0.8844">
        <ele>118</ele>
        <time>2026-03-14T11:40:50Z</time>
      </trkpt>
      <trkpt lat="46.87356" lon="0.88421">
        <ele>117.8</ele>
        <time>2026-03-14T11:40:52Z</time>
      </trkpt>
      <trkpt lat="46.87361" lon="0.88335">
        <ele>117.6</ele>
        <time>2026-03-14T11:41:01Z</time>
      </trkpt>
      <trkpt lat="46.87367" lon="0.88248">
        <ele>117.4</ele>
        <time>2026-03-14T11:41:10Z</time>
      </trkpt>
      <trkpt lat="46.87368" lon="0.88238">
        <ele>117.4</ele>
        <time>2026-03-14T11:41:11Z</time>
      </trkpt>
      <trkpt lat="46.87369" lon="0.88219">
        <ele>117.4</ele>
        <time>2026-03-14T11:41:13Z</time>
      </trkpt>
      <trkpt lat="46.87376" lon="0.88136">
        <ele>117.4</ele>
        <time>2026-03-14T11:41:22Z</time>
      </trkpt>
      <trkpt lat="46.87377" lon="0.88127">
        <ele>117.4</ele>
        <time>2026-03-14T11:41:23Z</time>
      </trkpt>
      <trkpt lat="46.87393" lon="0.8805">
        <ele>117.2</ele>
        <time>2026-03-14T11:41:31Z</time>
      </trkpt>
      <trkpt lat="46.874" lon="0.88021">
        <ele>116.8</ele>
        <time>2026-03-14T11:41:34Z</time>
      </trkpt>
      <trkpt lat="46.87407" lon="0.8799">
        <ele>116.6</ele>
        <time>2026-03-14T11:41:37Z</time>
      </trkpt>
      <trkpt lat="46.87423" lon="0.87928">
        <ele>115.6</ele>
        <time>2026-03-14T11:41:43Z</time>
      </trkpt>
      <trkpt lat="46.87436" lon="0.87876">
        <ele>114.8</ele>
        <time>2026-03-14T11:41:48Z</time>
      </trkpt>
      <trkpt lat="46.87438" lon="0.87866">
        <ele>114.6</ele>
        <time>2026-03-14T11:41:49Z</time>
      </trkpt>
      <trkpt lat="46.87459" lon="0.87785">
        <ele>114</ele>
        <time>2026-03-14T11:41:57Z</time>
      </trkpt>
      <trkpt lat="46.87462" lon="0.87775">
        <ele>114</ele>
        <time>2026-03-14T11:41:58Z</time>
      </trkpt>
      <trkpt lat="46.8748" lon="0.87701">
        <ele>113.8</ele>
        <time>2026-03-14T11:42:06Z</time>
      </trkpt>
      <trkpt lat="46.87483" lon="0.87691">
        <ele>113.8</ele>
        <time>2026-03-14T11:42:07Z</time>
      </trkpt>
      <trkpt lat="46.87504" lon="0.87608">
        <ele>114</ele>
        <time>2026-03-14T11:42:16Z</time>
      </trkpt>
      <trkpt lat="46.87526" lon="0.87528">
        <ele>114</ele>
        <time>2026-03-14T11:42:25Z</time>
      </trkpt>
      <trkpt lat="46.87529" lon="0.87519">
        <ele>114</ele>
        <time>2026-03-14T11:42:26Z</time>
      </trkpt>
      <trkpt lat="46.87548" lon="0.87457">
        <ele>114</ele>
        <time>2026-03-14T11:42:33Z</time>
      </trkpt>
      <trkpt lat="46.87572" lon="0.87387">
        <ele>114</ele>
        <time>2026-03-14T11:42:41Z</time>
      </trkpt>
      <trkpt lat="46.87592" lon="0.87325">
        <ele>113.8</ele>
        <time>2026-03-14T11:42:48Z</time>
      </trkpt>
      <trkpt lat="46.87616" lon="0.87252">
        <ele>113.6</ele>
        <time>2026-03-14T11:42:56Z</time>
      </trkpt>
      <trkpt lat="46.87619" lon="0.87242">
        <ele>113.4</ele>
        <time>2026-03-14T11:42:57Z</time>
      </trkpt>
      <trkpt lat="46.87641" lon="0.87168">
        <ele>113</ele>
        <time>2026-03-14T11:43:05Z</time>
      </trkpt>
      <trkpt lat="46.87647" lon="0.8715">
        <ele>113</ele>
        <time>2026-03-14T11:43:07Z</time>
      </trkpt>
      <trkpt lat="46.87672" lon="0.87072">
        <ele>113.2</ele>
        <time>2026-03-14T11:43:16Z</time>
      </trkpt>
      <trkpt lat="46.87678" lon="0.87053">
        <ele>113.2</ele>
        <time>2026-03-14T11:43:18Z</time>
      </trkpt>
      <trkpt lat="46.87699" lon="0.86987">
        <ele>113.2</ele>
        <time>2026-03-14T11:43:26Z</time>
      </trkpt>
      <trkpt lat="46.87722" lon="0.86911">
        <ele>113.2</ele>
        <time>2026-03-14T11:43:35Z</time>
      </trkpt>
      <trkpt lat="46.87728" lon="0.86894">
        <ele>113</ele>
        <time>2026-03-14T11:43:37Z</time>
      </trkpt>
      <trkpt lat="46.87744" lon="0.86843">
        <ele>112.6</ele>
        <time>2026-03-14T11:43:43Z</time>
      </trkpt>
      <trkpt lat="46.87757" lon="0.86799">
        <ele>112.6</ele>
        <time>2026-03-14T11:43:48Z</time>
      </trkpt>
      <trkpt lat="46.87781" lon="0.86722">
        <ele>112.6</ele>
        <time>2026-03-14T11:43:57Z</time>
      </trkpt>
      <trkpt lat="46.87789" lon="0.86697">
        <ele>112.6</ele>
        <time>2026-03-14T11:44:00Z</time>
      </trkpt>
      <trkpt lat="46.87813" lon="0.86622">
        <ele>112.6</ele>
        <time>2026-03-14T11:44:09Z</time>
      </trkpt>
      <trkpt lat="46.87821" lon="0.86597">
        <ele>112.6</ele>
        <time>2026-03-14T11:44:12Z</time>
      </trkpt>
      <trkpt lat="46.87845" lon="0.86522">
        <ele>112.6</ele>
        <time>2026-03-14T11:44:21Z</time>
      </trkpt>
      <trkpt lat="46.8785" lon="0.86505">
        <ele>112.6</ele>
        <time>2026-03-14T11:44:23Z</time>
      </trkpt>
      <trkpt lat="46.87875" lon="0.86428">
        <ele>112.6</ele>
        <time>2026-03-14T11:44:32Z</time>
      </trkpt>
      <trkpt lat="46.87878" lon="0.86419">
        <ele>112.6</ele>
        <time>2026-03-14T11:44:33Z</time>
      </trkpt>
      <trkpt lat="46.87899" lon="0.86342">
        <ele>112.6</ele>
        <time>2026-03-14T11:44:42Z</time>
      </trkpt>
      <trkpt lat="46.87904" lon="0.86316">
        <ele>112.6</ele>
        <time>2026-03-14T11:44:45Z</time>
      </trkpt>
      <trkpt lat="46.87916" lon="0.86243">
        <ele>112.4</ele>
        <time>2026-03-14T11:44:53Z</time>
      </trkpt>
      <trkpt lat="46.87923" lon="0.86181">
        <ele>112.4</ele>
        <time>2026-03-14T11:45:00Z</time>
      </trkpt>
      <trkpt lat="46.87929" lon="0.86102">
        <ele>112.2</ele>
        <time>2026-03-14T11:45:08Z</time>
      </trkpt>
      <trkpt lat="46.8793" lon="0.86092">
        <ele>112</ele>
        <time>2026-03-14T11:45:09Z</time>
      </trkpt>
      <trkpt lat="46.87932" lon="0.86063">
        <ele>111.6</ele>
        <time>2026-03-14T11:45:12Z</time>
      </trkpt>
      <trkpt lat="46.87937" lon="0.86006">
        <ele>110.4</ele>
        <time>2026-03-14T11:45:17Z</time>
      </trkpt>
      <trkpt lat="46.87946" lon="0.85945">
        <ele>109.4</ele>
        <time>2026-03-14T11:45:22Z</time>
      </trkpt>
      <trkpt lat="46.87949" lon="0.85932">
        <ele>109.4</ele>
        <time>2026-03-14T11:45:23Z</time>
      </trkpt>
      <trkpt lat="46.8796" lon="0.85895">
        <ele>108</ele>
        <time>2026-03-14T11:45:26Z</time>
      </trkpt>
      <trkpt lat="46.87969" lon="0.85871">
        <ele>107.4</ele>
        <time>2026-03-14T11:45:28Z</time>
      </trkpt>
      <trkpt lat="46.87979" lon="0.85848">
        <ele>106.8</ele>
        <time>2026-03-14T11:45:30Z</time>
      </trkpt>
      <trkpt lat="46.88002" lon="0.85802">
        <ele>105</ele>
        <time>2026-03-14T11:45:34Z</time>
      </trkpt>
      <trkpt lat="46.8801" lon="0.85783">
        <ele>104.6</ele>
        <time>2026-03-14T11:45:36Z</time>
      </trkpt>
      <trkpt lat="46.88022" lon="0.85753">
        <ele>104</ele>
        <time>2026-03-14T11:45:39Z</time>
      </trkpt>
      <trkpt lat="46.88033" lon="0.85725">
        <ele>103.6</ele>
        <time>2026-03-14T11:45:42Z</time>
      </trkpt>
      <trkpt lat="46.88036" lon="0.85716">
        <ele>103.4</ele>
        <time>2026-03-14T11:45:43Z</time>
      </trkpt>
      <trkpt lat="46.88048" lon="0.85675">
        <ele>103.4</ele>
        <time>2026-03-14T11:45:48Z</time>
      </trkpt>
      <trkpt lat="46.88058" lon="0.85635">
        <ele>104.4</ele>
        <time>2026-03-14T11:45:54Z</time>
      </trkpt>
      <trkpt lat="46.88063" lon="0.85609">
        <ele>105.4</ele>
        <time>2026-03-14T11:45:58Z</time>
      </trkpt>
      <trkpt lat="46.88066" lon="0.8559">
        <ele>106.4</ele>
        <time>2026-03-14T11:46:01Z</time>
      </trkpt>
      <trkpt lat="46.88067" lon="0.85583">
        <ele>106.6</ele>
        <time>2026-03-14T11:46:02Z</time>
      </trkpt>
      <trkpt lat="46.88071" lon="0.85555">
        <ele>107.4</ele>
        <time>2026-03-14T11:46:06Z</time>
      </trkpt>
      <trkpt lat="46.88073" lon="0.85548">
        <ele>107.6</ele>
        <time>2026-03-14T11:46:07Z</time>
      </trkpt>
      <trkpt lat="46.88073" lon="0.85543">
        <ele>107.6</ele>
        <time>2026-03-14T11:46:08Z</time>
      </trkpt>
      <trkpt lat="46.88075" lon="0.85529">
        <ele>107.8</ele>
        <time>2026-03-14T11:46:10Z</time>
      </trkpt>
      <trkpt lat="46.88088" lon="0.85455">
        <ele>108.2</ele>
        <time>2026-03-14T11:46:20Z</time>
      </trkpt>
      <trkpt lat="46.88106" lon="0.85375">
        <ele>108</ele>
        <time>2026-03-14T11:46:30Z</time>
      </trkpt>
      <trkpt lat="46.88122" lon="0.853">
        <ele>108.6</ele>
        <time>2026-03-14T11:46:39Z</time>
      </trkpt>
      <trkpt lat="46.88139" lon="0.85226">
        <ele>108.6</ele>
        <time>2026-03-14T11:46:48Z</time>
      </trkpt>
      <trkpt lat="46.88144" lon="0.85209">
        <ele>108.4</ele>
        <time>2026-03-14T11:46:50Z</time>
      </trkpt>
      <trkpt lat="46.88165" lon="0.8515">
        <ele>108.4</ele>
        <time>2026-03-14T11:46:57Z</time>
      </trkpt>
      <trkpt lat="46.88195" lon="0.85097">
        <ele>107.8</ele>
        <time>2026-03-14T11:47:04Z</time>
      </trkpt>
      <trkpt lat="46.882" lon="0.8509">
        <ele>107.8</ele>
        <time>2026-03-14T11:47:05Z</time>
      </trkpt>
      <trkpt lat="46.88235" lon="0.85033">
        <ele>106.8</ele>
        <time>2026-03-14T11:47:13Z</time>
      </trkpt>
      <trkpt lat="46.88247" lon="0.85013">
        <ele>106.6</ele>
        <time>2026-03-14T11:47:16Z</time>
      </trkpt>
      <trkpt lat="46.88288" lon="0.84948">
        <ele>107</ele>
        <time>2026-03-14T11:47:26Z</time>
      </trkpt>
      <trkpt lat="46.88312" lon="0.84917">
        <ele>107.6</ele>
        <time>2026-03-14T11:47:32Z</time>
      </trkpt>
      <trkpt lat="46.88325" lon="0.84903">
        <ele>107.8</ele>
        <time>2026-03-14T11:47:35Z</time>
      </trkpt>
      <trkpt lat="46.88354" lon="0.84876">
        <ele>108.8</ele>
        <time>2026-03-14T11:47:41Z</time>
      </trkpt>
      <trkpt lat="46.8836" lon="0.84871">
        <ele>109</ele>
        <time>2026-03-14T11:47:42Z</time>
      </trkpt>
      <trkpt lat="46.88398" lon="0.84839">
        <ele>109.4</ele>
        <time>2026-03-14T11:47:49Z</time>
      </trkpt>
      <trkpt lat="46.88448" lon="0.84795">
        <ele>109.2</ele>
        <time>2026-03-14T11:47:58Z</time>
      </trkpt>
      <trkpt lat="46.88452" lon="0.84791">
        <ele>109</ele>
        <time>2026-03-14T11:47:59Z</time>
      </trkpt>
      <trkpt lat="46.88486" lon="0.84755">
        <ele>107.8</ele>
        <time>2026-03-14T11:48:05Z</time>
      </trkpt>
      <trkpt lat="46.88492" lon="0.84747">
        <ele>107.6</ele>
        <time>2026-03-14T11:48:06Z</time>
      </trkpt>
      <trkpt lat="46.88516" lon="0.84708">
        <ele>106.8</ele>
        <time>2026-03-14T11:48:11Z</time>
      </trkpt>
      <trkpt lat="46.88524" lon="0.84691">
        <ele>106.4</ele>
        <time>2026-03-14T11:48:13Z</time>
      </trkpt>
      <trkpt lat="46.88539" lon="0.84653">
        <ele>105.6</ele>
        <time>2026-03-14T11:48:17Z</time>
      </trkpt>
      <trkpt lat="46.88548" lon="0.84621">
        <ele>104.6</ele>
        <time>2026-03-14T11:48:20Z</time>
      </trkpt>
      <trkpt lat="46.88551" lon="0.84613">
        <ele>104.6</ele>
        <time>2026-03-14T11:48:21Z</time>
      </trkpt>
      <trkpt lat="46.88566" lon="0.84549">
        <ele>103.8</ele>
        <time>2026-03-14T11:48:28Z</time>
      </trkpt>
      <trkpt lat="46.88587" lon="0.84491">
        <ele>104.6</ele>
        <time>2026-03-14T11:48:35Z</time>
      </trkpt>
      <trkpt lat="46.88604" lon="0.84459">
        <ele>105.6</ele>
        <time>2026-03-14T11:48:40Z</time>
      </trkpt>
      <trkpt lat="46.88607" lon="0.84455">
        <ele>105.8</ele>
        <time>2026-03-14T11:48:41Z</time>
      </trkpt>
      <trkpt lat="46.88611" lon="0.84449">
        <ele>105.8</ele>
        <time>2026-03-14T11:48:42Z</time>
      </trkpt>
      <trkpt lat="46.88632" lon="0.84423">
        <ele>106.2</ele>
        <time>2026-03-14T11:48:47Z</time>
      </trkpt>
      <trkpt lat="46.88671" lon="0.84375">
        <ele>106.8</ele>
        <time>2026-03-14T11:48:56Z</time>
      </trkpt>
      <trkpt lat="46.88676" lon="0.8437">
        <ele>106.8</ele>
        <time>2026-03-14T11:48:57Z</time>
      </trkpt>
      <trkpt lat="46.88719" lon="0.84319">
        <ele>107.4</ele>
        <time>2026-03-14T11:49:06Z</time>
      </trkpt>
      <trkpt lat="46.88764" lon="0.84265">
        <ele>107.4</ele>
        <time>2026-03-14T11:49:15Z</time>
      </trkpt>
      <trkpt lat="46.88769" lon="0.84259">
        <ele>107.4</ele>
        <time>2026-03-14T11:49:16Z</time>
      </trkpt>
      <trkpt lat="46.88812" lon="0.84208">
        <ele>106.6</ele>
        <time>2026-03-14T11:49:24Z</time>
      </trkpt>
      <trkpt lat="46.88829" lon="0.84189">
        <ele>105.8</ele>
        <time>2026-03-14T11:49:27Z</time>
      </trkpt>
      <trkpt lat="46.88841" lon="0.84175">
        <ele>105.6</ele>
        <time>2026-03-14T11:49:29Z</time>
      </trkpt>
      <trkpt lat="46.88852" lon="0.84164">
        <ele>105.4</ele>
        <time>2026-03-14T11:49:31Z</time>
      </trkpt>
      <trkpt lat="46.88885" lon="0.84137">
        <ele>104.8</ele>
        <time>2026-03-14T11:49:36Z</time>
      </trkpt>
      <trkpt lat="46.88934" lon="0.84114">
        <ele>103.6</ele>
        <time>2026-03-14T11:49:43Z</time>
      </trkpt>
      <trkpt lat="46.88981" lon="0.84097">
        <ele>102.6</ele>
        <time>2026-03-14T11:49:49Z</time>
      </trkpt>
      <trkpt lat="46.89018" lon="0.84082">
        <ele>101.6</ele>
        <time>2026-03-14T11:49:54Z</time>
      </trkpt>
      <trkpt lat="46.89024" lon="0.84079">
        <ele>101.6</ele>
        <time>2026-03-14T11:49:55Z</time>
      </trkpt>
      <trkpt lat="46.89076" lon="0.84059">
        <ele>100.6</ele>
        <time>2026-03-14T11:50:02Z</time>
      </trkpt>
      <trkpt lat="46.89098" lon="0.8405">
        <ele>100.2</ele>
        <time>2026-03-14T11:50:05Z</time>
      </trkpt>
      <trkpt lat="46.89135" lon="0.84035">
        <ele>99.6</ele>
        <time>2026-03-14T11:50:10Z</time>
      </trkpt>
      <trkpt lat="46.89177" lon="0.84018">
        <ele>99</ele>
        <time>2026-03-14T11:50:16Z</time>
      </trkpt>
      <trkpt lat="46.89198" lon="0.84009">
        <ele>98.6</ele>
        <time>2026-03-14T11:50:19Z</time>
      </trkpt>
      <trkpt lat="46.89245" lon="0.83991">
        <ele>98</ele>
        <time>2026-03-14T11:50:26Z</time>
      </trkpt>
      <trkpt lat="46.89272" lon="0.8398">
        <ele>97.6</ele>
        <time>2026-03-14T11:50:30Z</time>
      </trkpt>
      <trkpt lat="46.89312" lon="0.83964">
        <ele>97.4</ele>
        <time>2026-03-14T11:50:36Z</time>
      </trkpt>
      <trkpt lat="46.89324" lon="0.83959">
        <ele>97.2</ele>
        <time>2026-03-14T11:50:38Z</time>
      </trkpt>
      <trkpt lat="46.89376" lon="0.83938">
        <ele>96.8</ele>
        <time>2026-03-14T11:50:46Z</time>
      </trkpt>
      <trkpt lat="46.89397" lon="0.8393">
        <ele>96.6</ele>
        <time>2026-03-14T11:50:49Z</time>
      </trkpt>
      <trkpt lat="46.89402" lon="0.83927">
        <ele>96.6</ele>
        <time>2026-03-14T11:50:50Z</time>
      </trkpt>
      <trkpt lat="46.89447" lon="0.83901">
        <ele>96.4</ele>
        <time>2026-03-14T11:50:57Z</time>
      </trkpt>
      <trkpt lat="46.895" lon="0.83858">
        <ele>96</ele>
        <time>2026-03-14T11:51:06Z</time>
      </trkpt>
      <trkpt lat="46.89505" lon="0.83853">
        <ele>96</ele>
        <time>2026-03-14T11:51:07Z</time>
      </trkpt>
      <trkpt lat="46.8954" lon="0.83821">
        <ele>95.6</ele>
        <time>2026-03-14T11:51:13Z</time>
      </trkpt>
      <trkpt lat="46.8957" lon="0.83795">
        <ele>94.6</ele>
        <time>2026-03-14T11:51:18Z</time>
      </trkpt>
      <trkpt lat="46.89576" lon="0.8379">
        <ele>94.6</ele>
        <time>2026-03-14T11:51:19Z</time>
      </trkpt>
      <trkpt lat="46.89609" lon="0.83762">
        <ele>93.4</ele>
        <time>2026-03-14T11:51:24Z</time>
      </trkpt>
      <trkpt lat="46.89621" lon="0.8375">
        <ele>93</ele>
        <time>2026-03-14T11:51:26Z</time>
      </trkpt>
      <trkpt lat="46.89639" lon="0.83732">
        <ele>92.6</ele>
        <time>2026-03-14T11:51:29Z</time>
      </trkpt>
      <trkpt lat="46.89645" lon="0.83725">
        <ele>92.4</ele>
        <time>2026-03-14T11:51:30Z</time>
      </trkpt>
      <trkpt lat="46.89661" lon="0.83705">
        <ele>91.8</ele>
        <time>2026-03-14T11:51:33Z</time>
      </trkpt>
      <trkpt lat="46.89678" lon="0.83671">
        <ele>91.2</ele>
        <time>2026-03-14T11:51:37Z</time>
      </trkpt>
      <trkpt lat="46.89692" lon="0.83643">
        <ele>90.8</ele>
        <time>2026-03-14T11:51:40Z</time>
      </trkpt>
      <trkpt lat="46.89709" lon="0.83607">
        <ele>90.2</ele>
        <time>2026-03-14T11:51:44Z</time>
      </trkpt>
      <trkpt lat="46.89717" lon="0.83591">
        <ele>89.4</ele>
        <time>2026-03-14T11:51:46Z</time>
      </trkpt>
      <trkpt lat="46.89727" lon="0.83571">
        <ele>89</ele>
        <time>2026-03-14T11:51:48Z</time>
      </trkpt>
      <trkpt lat="46.8975" lon="0.83524">
        <ele>88.2</ele>
        <time>2026-03-14T11:51:53Z</time>
      </trkpt>
      <trkpt lat="46.89759" lon="0.83506">
        <ele>87.8</ele>
        <time>2026-03-14T11:51:55Z</time>
      </trkpt>
      <trkpt lat="46.89775" lon="0.83472">
        <ele>86.8</ele>
        <time>2026-03-14T11:51:58Z</time>
      </trkpt>
      <trkpt lat="46.89781" lon="0.83461">
        <ele>86.6</ele>
        <time>2026-03-14T11:51:59Z</time>
      </trkpt>
      <trkpt lat="46.89791" lon="0.83439">
        <ele>85.4</ele>
        <time>2026-03-14T11:52:01Z</time>
      </trkpt>
      <trkpt lat="46.89802" lon="0.83417">
        <ele>84.4</ele>
        <time>2026-03-14T11:52:03Z</time>
      </trkpt>
      <trkpt lat="46.89814" lon="0.83394">
        <ele>83.8</ele>
        <time>2026-03-14T11:52:05Z</time>
      </trkpt>
      <trkpt lat="46.89821" lon="0.83383">
        <ele>83.2</ele>
        <time>2026-03-14T11:52:06Z</time>
      </trkpt>
      <trkpt lat="46.89834" lon="0.83362">
        <ele>82.2</ele>
        <time>2026-03-14T11:52:08Z</time>
      </trkpt>
      <trkpt lat="46.89849" lon="0.8334">
        <ele>80.8</ele>
        <time>2026-03-14T11:52:10Z</time>
      </trkpt>
      <trkpt lat="46.89856" lon="0.8333">
        <ele>80.6</ele>
        <time>2026-03-14T11:52:11Z</time>
      </trkpt>
      <trkpt lat="46.89864" lon="0.83319">
        <ele>79.8</ele>
        <time>2026-03-14T11:52:12Z</time>
      </trkpt>
      <trkpt lat="46.89879" lon="0.83299">
        <ele>78.6</ele>
        <time>2026-03-14T11:52:14Z</time>
      </trkpt>
      <trkpt lat="46.89894" lon="0.83278">
        <ele>77.6</ele>
        <time>2026-03-14T11:52:16Z</time>
      </trkpt>
      <trkpt lat="46.89902" lon="0.83267">
        <ele>76.8</ele>
        <time>2026-03-14T11:52:17Z</time>
      </trkpt>
      <trkpt lat="46.89909" lon="0.83258">
        <ele>76.2</ele>
        <time>2026-03-14T11:52:18Z</time>
      </trkpt>
      <trkpt lat="46.89918" lon="0.83245">
        <ele>75.8</ele>
        <time>2026-03-14T11:52:19Z</time>
      </trkpt>
      <trkpt lat="46.89935" lon="0.83222">
        <ele>74.6</ele>
        <time>2026-03-14T11:52:21Z</time>
      </trkpt>
      <trkpt lat="46.89952" lon="0.83202">
        <ele>72.6</ele>
        <time>2026-03-14T11:52:23Z</time>
      </trkpt>
      <trkpt lat="46.8997" lon="0.83184">
        <ele>71.4</ele>
        <time>2026-03-14T11:52:25Z</time>
      </trkpt>
      <trkpt lat="46.89986" lon="0.83169">
        <ele>70.4</ele>
        <time>2026-03-14T11:52:27Z</time>
      </trkpt>
      <trkpt lat="46.90017" lon="0.83142">
        <ele>68.8</ele>
        <time>2026-03-14T11:52:30Z</time>
      </trkpt>
      <trkpt lat="46.90035" lon="0.83127">
        <ele>67.4</ele>
        <time>2026-03-14T11:52:32Z</time>
      </trkpt>
      <trkpt lat="46.90056" lon="0.83109">
        <ele>65.8</ele>
        <time>2026-03-14T11:52:34Z</time>
      </trkpt>
      <trkpt lat="46.90076" lon="0.83092">
        <ele>64.8</ele>
        <time>2026-03-14T11:52:36Z</time>
      </trkpt>
      <trkpt lat="46.90084" lon="0.83086">
        <ele>63.8</ele>
        <time>2026-03-14T11:52:37Z</time>
      </trkpt>
      <trkpt lat="46.90105" lon="0.83069">
        <ele>62.4</ele>
        <time>2026-03-14T11:52:39Z</time>
      </trkpt>
      <trkpt lat="46.90115" lon="0.83063">
        <ele>61.4</ele>
        <time>2026-03-14T11:52:40Z</time>
      </trkpt>
      <trkpt lat="46.90136" lon="0.83051">
        <ele>60</ele>
        <time>2026-03-14T11:52:42Z</time>
      </trkpt>
      <trkpt lat="46.90157" lon="0.8304">
        <ele>58.8</ele>
        <time>2026-03-14T11:52:44Z</time>
      </trkpt>
      <trkpt lat="46.90178" lon="0.8303">
        <ele>57.8</ele>
        <time>2026-03-14T11:52:46Z</time>
      </trkpt>
      <trkpt lat="46.90188" lon="0.83024">
        <ele>57.2</ele>
        <time>2026-03-14T11:52:47Z</time>
      </trkpt>
      <trkpt lat="46.90209" lon="0.83011">
        <ele>56.2</ele>
        <time>2026-03-14T11:52:49Z</time>
      </trkpt>
      <trkpt lat="46.90229" lon="0.82993">
        <ele>55</ele>
        <time>2026-03-14T11:52:51Z</time>
      </trkpt>
      <trkpt lat="46.90246" lon="0.82969">
        <ele>54</ele>
        <time>2026-03-14T11:52:53Z</time>
      </trkpt>
      <trkpt lat="46.90252" lon="0.82958">
        <ele>53</ele>
        <time>2026-03-14T11:52:54Z</time>
      </trkpt>
      <trkpt lat="46.9026" lon="0.82944">
        <ele>52</ele>
        <time>2026-03-14T11:52:55Z</time>
      </trkpt>
      <trkpt lat="46.90276" lon="0.82914">
        <ele>50.6</ele>
        <time>2026-03-14T11:52:57Z</time>
      </trkpt>
      <trkpt lat="46.90289" lon="0.82891">
        <ele>49.4</ele>
        <time>2026-03-14T11:52:59Z</time>
      </trkpt>
      <trkpt lat="46.90304" lon="0.82864">
        <ele>48</ele>
        <time>2026-03-14T11:53:01Z</time>
      </trkpt>
      <trkpt lat="46.9031" lon="0.82853">
        <ele>47.2</ele>
        <time>2026-03-14T11:53:02Z</time>
      </trkpt>
      <trkpt lat="46.90316" lon="0.82842">
        <ele>47</ele>
        <time>2026-03-14T11:53:03Z</time>
      </trkpt>
      <trkpt lat="46.90342" lon="0.82792">
        <ele>46.2</ele>
        <time>2026-03-14T11:53:08Z</time>
      </trkpt>
      <trkpt lat="46.9037" lon="0.82743">
        <ele>46</ele>
        <time>2026-03-14T11:53:14Z</time>
      </trkpt>
      <trkpt lat="46.90382" lon="0.82722">
        <ele>46.2</ele>
        <time>2026-03-14T11:53:17Z</time>
      </trkpt>
      <trkpt lat="46.90387" lon="0.82715">
        <ele>46.2</ele>
        <time>2026-03-14T11:53:18Z</time>
      </trkpt>
      <trkpt lat="46.90408" lon="0.82675">
        <ele>47.4</ele>
        <time>2026-03-14T11:53:24Z</time>
      </trkpt>
      <trkpt lat="46.90412" lon="0.82669">
        <ele>47.4</ele>
        <time>2026-03-14T11:53:25Z</time>
      </trkpt>
      <trkpt lat="46.90417" lon="0.82658">
        <ele>48.2</ele>
        <time>2026-03-14T11:53:27Z</time>
      </trkpt>
      <trkpt lat="46.90424" lon="0.82645">
        <ele>48.8</ele>
        <time>2026-03-14T11:53:29Z</time>
      </trkpt>
      <trkpt lat="46.90435" lon="0.82626">
        <ele>49.2</ele>
        <time>2026-03-14T11:53:32Z</time>
      </trkpt>
      <trkpt lat="46.90452" lon="0.82597">
        <ele>49.8</ele>
        <time>2026-03-14T11:53:36Z</time>
      </trkpt>
      <trkpt lat="46.90486" lon="0.82554">
        <ele>49.6</ele>
        <time>2026-03-14T11:53:42Z</time>
      </trkpt>
      <trkpt lat="46.90529" lon="0.82498">
        <ele>49.2</ele>
        <time>2026-03-14T11:53:50Z</time>
      </trkpt>
      <trkpt lat="46.90562" lon="0.82447">
        <ele>48.2</ele>
        <time>2026-03-14T11:53:56Z</time>
      </trkpt>
      <trkpt lat="46.90584" lon="0.82414">
        <ele>47.8</ele>
        <time>2026-03-14T11:54:00Z</time>
      </trkpt>
      <trkpt lat="46.9061" lon="0.82372">
        <ele>47.2</ele>
        <time>2026-03-14T11:54:05Z</time>
      </trkpt>
      <trkpt lat="46.9063" lon="0.8234">
        <ele>46.8</ele>
        <time>2026-03-14T11:54:09Z</time>
      </trkpt>
      <trkpt lat="46.90655" lon="0.82284">
        <ele>46.4</ele>
        <time>2026-03-14T11:54:15Z</time>
      </trkpt>
      <trkpt lat="46.90661" lon="0.82264">
        <ele>46</ele>
        <time>2026-03-14T11:54:17Z</time>
      </trkpt>
      <trkpt lat="46.90677" lon="0.82202">
        <ele>45.4</ele>
        <time>2026-03-14T11:54:23Z</time>
      </trkpt>
      <trkpt lat="46.90683" lon="0.82179">
        <ele>44.8</ele>
        <time>2026-03-14T11:54:25Z</time>
      </trkpt>
      <trkpt lat="46.90688" lon="0.82158">
        <ele>44.4</ele>
        <time>2026-03-14T11:54:27Z</time>
      </trkpt>
      <trkpt lat="46.90704" lon="0.82098">
        <ele>43.8</ele>
        <time>2026-03-14T11:54:33Z</time>
      </trkpt>
      <trkpt lat="46.90707" lon="0.82086">
        <ele>43.6</ele>
        <time>2026-03-14T11:54:34Z</time>
      </trkpt>
      <trkpt lat="46.90726" lon="0.82027">
        <ele>43</ele>
        <time>2026-03-14T11:54:40Z</time>
      </trkpt>
      <trkpt lat="46.9074" lon="0.81991">
        <ele>42.6</ele>
        <time>2026-03-14T11:54:44Z</time>
      </trkpt>
      <trkpt lat="46.90751" lon="0.81967">
        <ele>42.6</ele>
        <time>2026-03-14T11:54:47Z</time>
      </trkpt>
      <trkpt lat="46.90783" lon="0.81906">
        <ele>43.2</ele>
        <time>2026-03-14T11:54:55Z</time>
      </trkpt>
      <trkpt lat="46.90802" lon="0.8187">
        <ele>43.8</ele>
        <time>2026-03-14T11:55:00Z</time>
      </trkpt>
      <trkpt lat="46.90809" lon="0.81856">
        <ele>44</ele>
        <time>2026-03-14T11:55:02Z</time>
      </trkpt>
      <trkpt lat="46.90815" lon="0.81842">
        <ele>44.4</ele>
        <time>2026-03-14T11:55:04Z</time>
      </trkpt>
      <trkpt lat="46.90823" lon="0.81821">
        <ele>44.8</ele>
        <time>2026-03-14T11:55:07Z</time>
      </trkpt>
      <trkpt lat="46.90827" lon="0.81805">
        <ele>45</ele>
        <time>2026-03-14T11:55:09Z</time>
      </trkpt>
      <trkpt lat="46.90842" lon="0.81751">
        <ele>45.8</ele>
        <time>2026-03-14T11:55:16Z</time>
      </trkpt>
      <trkpt lat="46.90846" lon="0.81735">
        <ele>46</ele>
        <time>2026-03-14T11:55:18Z</time>
      </trkpt>
      <trkpt lat="46.9085" lon="0.81721">
        <ele>46</ele>
        <time>2026-03-14T11:55:20Z</time>
      </trkpt>
      <trkpt lat="46.90858" lon="0.81684">
        <ele>46.6</ele>
        <time>2026-03-14T11:55:25Z</time>
      </trkpt>
      <trkpt lat="46.90862" lon="0.81666">
        <ele>46.8</ele>
        <time>2026-03-14T11:55:27Z</time>
      </trkpt>
      <trkpt lat="46.90871" lon="0.81608">
        <ele>47</ele>
        <time>2026-03-14T11:55:34Z</time>
      </trkpt>
      <trkpt lat="46.9088" lon="0.81541">
        <ele>46.6</ele>
        <time>2026-03-14T11:55:41Z</time>
      </trkpt>
      <trkpt lat="46.90885" lon="0.81492">
        <ele>46.2</ele>
        <time>2026-03-14T11:55:46Z</time>
      </trkpt>
      <trkpt lat="46.90889" lon="0.81441">
        <ele>45.6</ele>
        <time>2026-03-14T11:55:51Z</time>
      </trkpt>
      <trkpt lat="46.9089" lon="0.81372">
        <ele>45.2</ele>
        <time>2026-03-14T11:55:58Z</time>
      </trkpt>
      <trkpt lat="46.9089" lon="0.81343">
        <ele>44.8</ele>
        <time>2026-03-14T11:56:02Z</time>
      </trkpt>
      <trkpt lat="46.9089" lon="0.8133">
        <ele>44.8</ele>
        <time>2026-03-14T11:56:04Z</time>
      </trkpt>
      <trkpt lat="46.90892" lon="0.81316">
        <ele>44.4</ele>
        <time>2026-03-14T11:56:06Z</time>
      </trkpt>
      <trkpt lat="46.90895" lon="0.81278">
        <ele>44.2</ele>
        <time>2026-03-14T11:56:11Z</time>
      </trkpt>
      <trkpt lat="46.909" lon="0.81214">
        <ele>44.8</ele>
        <time>2026-03-14T11:56:19Z</time>
      </trkpt>
      <trkpt lat="46.90902" lon="0.812">
        <ele>45</ele>
        <time>2026-03-14T11:56:21Z</time>
      </trkpt>
      <trkpt lat="46.90904" lon="0.81185">
        <ele>45.4</ele>
        <time>2026-03-14T11:56:23Z</time>
      </trkpt>
      <trkpt lat="46.90905" lon="0.8117">
        <ele>45.6</ele>
        <time>2026-03-14T11:56:25Z</time>
      </trkpt>
      <trkpt lat="46.90906" lon="0.81156">
        <ele>45.6</ele>
        <time>2026-03-14T11:56:27Z</time>
      </trkpt>
      <trkpt lat="46.90911" lon="0.81128">
        <ele>46</ele>
        <time>2026-03-14T11:56:32Z</time>
      </trkpt>
      <trkpt lat="46.90915" lon="0.81117">
        <ele>46.4</ele>
        <time>2026-03-14T11:56:34Z</time>
      </trkpt>
      <trkpt lat="46.9092" lon="0.81106">
        <ele>46.8</ele>
        <time>2026-03-14T11:56:36Z</time>
      </trkpt>
      <trkpt lat="46.90922" lon="0.81095">
        <ele>47.6</ele>
        <time>2026-03-14T11:56:38Z</time>
      </trkpt>
      <trkpt lat="46.90929" lon="0.81074">
        <ele>48.4</ele>
        <time>2026-03-14T11:56:42Z</time>
      </trkpt>
      <trkpt lat="46.90933" lon="0.81064">
        <ele>48.8</ele>
        <time>2026-03-14T11:56:44Z</time>
      </trkpt>
      <trkpt lat="46.90942" lon="0.81047">
        <ele>49.6</ele>
        <time>2026-03-14T11:56:48Z</time>
      </trkpt>
      <trkpt lat="46.90944" lon="0.81043">
        <ele>49.8</ele>
        <time>2026-03-14T11:56:49Z</time>
      </trkpt>
      <trkpt lat="46.90954" lon="0.81015">
        <ele>51.2</ele>
        <time>2026-03-14T11:56:54Z</time>
      </trkpt>
      <trkpt lat="46.9097" lon="0.80976">
        <ele>52</ele>
        <time>2026-03-14T11:57:01Z</time>
      </trkpt>
      <trkpt lat="46.90972" lon="0.8097">
        <ele>52.2</ele>
        <time>2026-03-14T11:57:02Z</time>
      </trkpt>
      <trkpt lat="46.90975" lon="0.80963">
        <ele>52.2</ele>
        <time>2026-03-14T11:57:03Z</time>
      </trkpt>
      <trkpt lat="46.90981" lon="0.80952">
        <ele>52.2</ele>
        <time>2026-03-14T11:57:05Z</time>
      </trkpt>
      <trkpt lat="46.90989" lon="0.80933">
        <ele>52.4</ele>
        <time>2026-03-14T11:57:08Z</time>
      </trkpt>
      <trkpt lat="46.91018" lon="0.80883">
        <ele>53</ele>
        <time>2026-03-14T11:57:17Z</time>
      </trkpt>
      <trkpt lat="46.91026" lon="0.80872">
        <ele>53.4</ele>
        <time>2026-03-14T11:57:19Z</time>
      </trkpt>
      <trkpt lat="46.91059" lon="0.80835">
        <ele>54.2</ele>
        <time>2026-03-14T11:57:27Z</time>
      </trkpt>
      <trkpt lat="46.91063" lon="0.80831">
        <ele>54.6</ele>
        <time>2026-03-14T11:57:28Z</time>
      </trkpt>
      <trkpt lat="46.91101" lon="0.80793">
        <ele>54.4</ele>
        <time>2026-03-14T11:57:37Z</time>
      </trkpt>
      <trkpt lat="46.91139" lon="0.80762">
        <ele>55</ele>
        <time>2026-03-14T11:57:46Z</time>
      </trkpt>
      <trkpt lat="46.91169" lon="0.80739">
        <ele>55.8</ele>
        <time>2026-03-14T11:57:53Z</time>
      </trkpt>
      <trkpt lat="46.9118" lon="0.80731">
        <ele>56.4</ele>
        <time>2026-03-14T11:57:56Z</time>
      </trkpt>
      <trkpt lat="46.91197" lon="0.8072">
        <ele>57</ele>
        <time>2026-03-14T11:58:00Z</time>
      </trkpt>
      <trkpt lat="46.91222" lon="0.80704">
        <ele>57.6</ele>
        <time>2026-03-14T11:58:06Z</time>
      </trkpt>
      <trkpt lat="46.91242" lon="0.80693">
        <ele>58</ele>
        <time>2026-03-14T11:58:10Z</time>
      </trkpt>
      <trkpt lat="46.91253" lon="0.80687">
        <ele>58</ele>
        <time>2026-03-14T11:58:12Z</time>
      </trkpt>
      <trkpt lat="46.91299" lon="0.80659">
        <ele>57.2</ele>
        <time>2026-03-14T11:58:20Z</time>
      </trkpt>
      <trkpt lat="46.91311" lon="0.80652">
        <ele>57</ele>
        <time>2026-03-14T11:58:22Z</time>
      </trkpt>
      <trkpt lat="46.91349" lon="0.80629">
        <ele>56</ele>
        <time>2026-03-14T11:58:28Z</time>
      </trkpt>
      <trkpt lat="46.91356" lon="0.80625">
        <ele>55.8</ele>
        <time>2026-03-14T11:58:29Z</time>
      </trkpt>
      <trkpt lat="46.91377" lon="0.80617">
        <ele>55.4</ele>
        <time>2026-03-14T11:58:32Z</time>
      </trkpt>
      <trkpt lat="46.91392" lon="0.80616">
        <ele>55.2</ele>
        <time>2026-03-14T11:58:34Z</time>
      </trkpt>
      <trkpt lat="46.91416" lon="0.80621">
        <ele>54.8</ele>
        <time>2026-03-14T11:58:37Z</time>
      </trkpt>
      <trkpt lat="46.91423" lon="0.80625">
        <ele>54.8</ele>
        <time>2026-03-14T11:58:38Z</time>
      </trkpt>
      <trkpt lat="46.9143" lon="0.80629">
        <ele>54.6</ele>
        <time>2026-03-14T11:58:39Z</time>
      </trkpt>
      <trkpt lat="46.9147" lon="0.80644">
        <ele>53.6</ele>
        <time>2026-03-14T11:58:44Z</time>
      </trkpt>
      <trkpt lat="46.91487" lon="0.80641">
        <ele>53.4</ele>
        <time>2026-03-14T11:58:46Z</time>
      </trkpt>
      <trkpt lat="46.91495" lon="0.80637">
        <ele>53.4</ele>
        <time>2026-03-14T11:58:47Z</time>
      </trkpt>
      <trkpt lat="46.91511" lon="0.80627">
        <ele>52.6</ele>
        <time>2026-03-14T11:58:49Z</time>
      </trkpt>
      <trkpt lat="46.91542" lon="0.80606">
        <ele>51.4</ele>
        <time>2026-03-14T11:58:53Z</time>
      </trkpt>
      <trkpt lat="46.9155" lon="0.806">
        <ele>51</ele>
        <time>2026-03-14T11:58:54Z</time>
      </trkpt>
      <trkpt lat="46.91566" lon="0.80589">
        <ele>50.4</ele>
        <time>2026-03-14T11:58:56Z</time>
      </trkpt>
      <trkpt lat="46.91589" lon="0.80573">
        <ele>49.2</ele>
        <time>2026-03-14T11:58:59Z</time>
      </trkpt>
      <trkpt lat="46.9162" lon="0.8055">
        <ele>48.4</ele>
        <time>2026-03-14T11:59:03Z</time>
      </trkpt>
      <trkpt lat="46.91628" lon="0.80546">
        <ele>48.2</ele>
        <time>2026-03-14T11:59:04Z</time>
      </trkpt>
      <trkpt lat="46.91635" lon="0.80543">
        <ele>48</ele>
        <time>2026-03-14T11:59:05Z</time>
      </trkpt>
      <trkpt lat="46.91644" lon="0.80543">
        <ele>47.8</ele>
        <time>2026-03-14T11:59:06Z</time>
      </trkpt>
      <trkpt lat="46.91661" lon="0.80548">
        <ele>47.2</ele>
        <time>2026-03-14T11:59:08Z</time>
      </trkpt>
      <trkpt lat="46.91676" lon="0.80556">
        <ele>46.8</ele>
        <time>2026-03-14T11:59:10Z</time>
      </trkpt>
      <trkpt lat="46.91698" lon="0.80569">
        <ele>45.6</ele>
        <time>2026-03-14T11:59:13Z</time>
      </trkpt>
      <trkpt lat="46.91719" lon="0.80583">
        <ele>45.2</ele>
        <time>2026-03-14T11:59:16Z</time>
      </trkpt>
      <trkpt lat="46.91752" lon="0.80603">
        <ele>44.6</ele>
        <time>2026-03-14T11:59:21Z</time>
      </trkpt>
      <trkpt lat="46.91759" lon="0.80607">
        <ele>44.4</ele>
        <time>2026-03-14T11:59:22Z</time>
      </trkpt>
      <trkpt lat="46.91777" lon="0.80619">
        <ele>43.6</ele>
        <time>2026-03-14T11:59:25Z</time>
      </trkpt>
      <trkpt lat="46.9179" lon="0.80626">
        <ele>43.4</ele>
        <time>2026-03-14T11:59:27Z</time>
      </trkpt>
      <trkpt lat="46.91829" lon="0.80651">
        <ele>43.2</ele>
        <time>2026-03-14T11:59:34Z</time>
      </trkpt>
      <trkpt lat="46.91841" lon="0.8066">
        <ele>43.2</ele>
        <time>2026-03-14T11:59:38Z</time>
      </trkpt>
      <trkpt lat="46.91847" lon="0.80659">
        <ele>43.2</ele>
        <time>2026-03-14T11:59:41Z</time>
      </trkpt>
      <trkpt lat="46.9185" lon="0.80656">
        <ele>43.2</ele>
        <time>2026-03-14T11:59:42Z</time>
      </trkpt>
      <trkpt lat="46.91858" lon="0.80633">
        <ele>43</ele>
        <time>2026-03-14T11:59:47Z</time>
      </trkpt>
      <trkpt lat="46.91875" lon="0.80585">
        <ele>42.8</ele>
        <time>2026-03-14T11:59:55Z</time>
      </trkpt>
      <trkpt lat="46.91897" lon="0.80546">
        <ele>42.8</ele>
        <time>2026-03-14T12:00:02Z</time>
      </trkpt>
      <trkpt lat="46.91903" lon="0.80535">
        <ele>43</ele>
        <time>2026-03-14T12:00:04Z</time>
      </trkpt>
      <trkpt lat="46.91908" lon="0.80513">
        <ele>43</ele>
        <time>2026-03-14T12:00:07Z</time>
      </trkpt>
      <trkpt lat="46.9191" lon="0.80506">
        <ele>43</ele>
        <time>2026-03-14T12:00:08Z</time>
      </trkpt>
      <trkpt lat="46.91914" lon="0.80475">
        <ele>43</ele>
        <time>2026-03-14T12:00:12Z</time>
      </trkpt>
      <trkpt lat="46.91918" lon="0.8046">
        <ele>42.8</ele>
        <time>2026-03-14T12:00:14Z</time>
      </trkpt>
      <trkpt lat="46.91927" lon="0.80429">
        <ele>42.8</ele>
        <time>2026-03-14T12:00:18Z</time>
      </trkpt>
      <trkpt lat="46.91929" lon="0.80421">
        <ele>43</ele>
        <time>2026-03-14T12:00:19Z</time>
      </trkpt>
      <trkpt lat="46.91938" lon="0.80391">
        <ele>43</ele>
        <time>2026-03-14T12:00:23Z</time>
      </trkpt>
      <trkpt lat="46.91945" lon="0.8038">
        <ele>43</ele>
        <time>2026-03-14T12:00:25Z</time>
      </trkpt>
      <trkpt lat="46.91949" lon="0.80378">
        <ele>43</ele>
        <time>2026-03-14T12:00:26Z</time>
      </trkpt>
      <trkpt lat="46.91959" lon="0.80374">
        <ele>43</ele>
        <time>2026-03-14T12:00:28Z</time>
      </trkpt>
      <trkpt lat="46.91968" lon="0.8037">
        <ele>43</ele>
        <time>2026-03-14T12:00:30Z</time>
      </trkpt>
      <trkpt lat="46.91984" lon="0.80363">
        <ele>43.2</ele>
        <time>2026-03-14T12:00:34Z</time>
      </trkpt>
      <trkpt lat="46.91993" lon="0.80362">
        <ele>43.6</ele>
        <time>2026-03-14T12:00:36Z</time>
      </trkpt>
      <trkpt lat="46.92002" lon="0.8036">
        <ele>43.8</ele>
        <time>2026-03-14T12:00:38Z</time>
      </trkpt>
      <trkpt lat="46.92011" lon="0.80359">
        <ele>44</ele>
        <time>2026-03-14T12:00:40Z</time>
      </trkpt>
      <trkpt lat="46.92024" lon="0.80357">
        <ele>44.6</ele>
        <time>2026-03-14T12:00:43Z</time>
      </trkpt>
      <trkpt lat="46.92032" lon="0.80355">
        <ele>44.8</ele>
        <time>2026-03-14T12:00:45Z</time>
      </trkpt>
      <trkpt lat="46.92038" lon="0.80347">
        <ele>45</ele>
        <time>2026-03-14T12:00:47Z</time>
      </trkpt>
      <trkpt lat="46.92039" lon="0.80331">
        <ele>45.6</ele>
        <time>2026-03-14T12:00:50Z</time>
      </trkpt>
      <trkpt lat="46.92037" lon="0.80296">
        <ele>46.2</ele>
        <time>2026-03-14T12:00:55Z</time>
      </trkpt>
      <trkpt lat="46.92035" lon="0.80281">
        <ele>46.4</ele>
        <time>2026-03-14T12:00:57Z</time>
      </trkpt>
      <trkpt lat="46.92034" lon="0.80273">
        <ele>46.4</ele>
        <time>2026-03-14T12:00:58Z</time>
      </trkpt>
      <trkpt lat="46.9203" lon="0.80243">
        <ele>47</ele>
        <time>2026-03-14T12:01:02Z</time>
      </trkpt>
      <trkpt lat="46.92027" lon="0.80228">
        <ele>47</ele>
        <time>2026-03-14T12:01:04Z</time>
      </trkpt>
      <trkpt lat="46.92017" lon="0.80168">
        <ele>47.4</ele>
        <time>2026-03-14T12:01:12Z</time>
      </trkpt>
      <trkpt lat="46.92017" lon="0.80127">
        <ele>47.4</ele>
        <time>2026-03-14T12:01:17Z</time>
      </trkpt>
      <trkpt lat="46.92026" lon="0.80063">
        <ele>47.4</ele>
        <time>2026-03-14T12:01:25Z</time>
      </trkpt>
      <trkpt lat="46.92027" lon="0.80057">
        <ele>47.4</ele>
        <time>2026-03-14T12:01:26Z</time>
      </trkpt>
      <trkpt lat="46.92036" lon="0.80027">
        <ele>47.4</ele>
        <time>2026-03-14T12:01:30Z</time>
      </trkpt>
      <trkpt lat="46.92053" lon="0.79973">
        <ele>47.4</ele>
        <time>2026-03-14T12:01:38Z</time>
      </trkpt>
      <trkpt lat="46.92054" lon="0.79959">
        <ele>47.4</ele>
        <time>2026-03-14T12:01:40Z</time>
      </trkpt>
      <trkpt lat="46.92053" lon="0.79952">
        <ele>47.6</ele>
        <time>2026-03-14T12:01:41Z</time>
      </trkpt>
      <trkpt lat="46.92053" lon="0.79935">
        <ele>47.6</ele>
        <time>2026-03-14T12:01:43Z</time>
      </trkpt>
      <trkpt lat="46.92053" lon="0.79927">
        <ele>47.8</ele>
        <time>2026-03-14T12:01:44Z</time>
      </trkpt>
      <trkpt lat="46.92056" lon="0.79915">
        <ele>47.8</ele>
        <time>2026-03-14T12:01:46Z</time>
      </trkpt>
      <trkpt lat="46.92059" lon="0.79908">
        <ele>47.8</ele>
        <time>2026-03-14T12:01:47Z</time>
      </trkpt>
      <trkpt lat="46.92062" lon="0.79902">
        <ele>47.8</ele>
        <time>2026-03-14T12:01:48Z</time>
      </trkpt>
      <trkpt lat="46.92077" lon="0.79878">
        <ele>47.6</ele>
        <time>2026-03-14T12:01:52Z</time>
      </trkpt>
      <trkpt lat="46.921" lon="0.79845">
        <ele>47.8</ele>
        <time>2026-03-14T12:01:58Z</time>
      </trkpt>
      <trkpt lat="46.92132" lon="0.79799">
        <ele>47.8</ele>
        <time>2026-03-14T12:02:06Z</time>
      </trkpt>
      <trkpt lat="46.92166" lon="0.79757">
        <ele>47.4</ele>
        <time>2026-03-14T12:02:13Z</time>
      </trkpt>
      <trkpt lat="46.92199" lon="0.79716">
        <ele>46.8</ele>
        <time>2026-03-14T12:02:20Z</time>
      </trkpt>
      <trkpt lat="46.92235" lon="0.79676">
        <ele>46.4</ele>
        <time>2026-03-14T12:02:27Z</time>
      </trkpt>
      <trkpt lat="46.92245" lon="0.79666">
        <ele>46.2</ele>
        <time>2026-03-14T12:02:29Z</time>
      </trkpt>
      <trkpt lat="46.92279" lon="0.79633">
        <ele>45.4</ele>
        <time>2026-03-14T12:02:35Z</time>
      </trkpt>
      <trkpt lat="46.92307" lon="0.79605">
        <ele>45</ele>
        <time>2026-03-14T12:02:40Z</time>
      </trkpt>
      <trkpt lat="46.92329" lon="0.79583">
        <ele>44.2</ele>
        <time>2026-03-14T12:02:44Z</time>
      </trkpt>
      <trkpt lat="46.92364" lon="0.79551">
        <ele>43.8</ele>
        <time>2026-03-14T12:02:50Z</time>
      </trkpt>
      <trkpt lat="46.92411" lon="0.79506">
        <ele>43.2</ele>
        <time>2026-03-14T12:02:58Z</time>
      </trkpt>
      <trkpt lat="46.92415" lon="0.79501">
        <ele>43.2</ele>
        <time>2026-03-14T12:02:59Z</time>
      </trkpt>
      <trkpt lat="46.92462" lon="0.79458">
        <ele>42.4</ele>
        <time>2026-03-14T12:03:07Z</time>
      </trkpt>
      <trkpt lat="46.92484" lon="0.79435">
        <ele>42.4</ele>
        <time>2026-03-14T12:03:11Z</time>
      </trkpt>
      <trkpt lat="46.92527" lon="0.79392">
        <ele>42.4</ele>
        <time>2026-03-14T12:03:19Z</time>
      </trkpt>
      <trkpt lat="46.92572" lon="0.79345">
        <ele>42.4</ele>
        <time>2026-03-14T12:03:27Z</time>
      </trkpt>
      <trkpt lat="46.92582" lon="0.79331">
        <ele>42.2</ele>
        <time>2026-03-14T12:03:29Z</time>
      </trkpt>
      <trkpt lat="46.92604" lon="0.79296">
        <ele>41.8</ele>
        <time>2026-03-14T12:03:34Z</time>
      </trkpt>
      <trkpt lat="46.92619" lon="0.79265">
        <ele>41.8</ele>
        <time>2026-03-14T12:03:38Z</time>
      </trkpt>
      <trkpt lat="46.92634" lon="0.79234">
        <ele>42.2</ele>
        <time>2026-03-14T12:03:42Z</time>
      </trkpt>
      <trkpt lat="46.92664" lon="0.79171">
        <ele>42.2</ele>
        <time>2026-03-14T12:03:50Z</time>
      </trkpt>
      <trkpt lat="46.92697" lon="0.791">
        <ele>41.6</ele>
        <time>2026-03-14T12:03:59Z</time>
      </trkpt>
      <trkpt lat="46.92705" lon="0.79084">
        <ele>41.4</ele>
        <time>2026-03-14T12:04:01Z</time>
      </trkpt>
      <trkpt lat="46.92727" lon="0.79035">
        <ele>41.2</ele>
        <time>2026-03-14T12:04:07Z</time>
      </trkpt>
      <trkpt lat="46.92739" lon="0.79011">
        <ele>41</ele>
        <time>2026-03-14T12:04:10Z</time>
      </trkpt>
      <trkpt lat="46.92768" lon="0.78944">
        <ele>40.8</ele>
        <time>2026-03-14T12:04:18Z</time>
      </trkpt>
      <trkpt lat="46.92788" lon="0.78883">
        <ele>41</ele>
        <time>2026-03-14T12:04:25Z</time>
      </trkpt>
      <trkpt lat="46.92805" lon="0.78814">
        <ele>41</ele>
        <time>2026-03-14T12:04:33Z</time>
      </trkpt>
      <trkpt lat="46.92817" lon="0.78745">
        <ele>41.4</ele>
        <time>2026-03-14T12:04:41Z</time>
      </trkpt>
      <trkpt lat="46.92825" lon="0.78667">
        <ele>41.6</ele>
        <time>2026-03-14T12:04:50Z</time>
      </trkpt>
      <trkpt lat="46.92826" lon="0.78658">
        <ele>41.6</ele>
        <time>2026-03-14T12:04:51Z</time>
      </trkpt>
      <trkpt lat="46.92827" lon="0.78586">
        <ele>42</ele>
        <time>2026-03-14T12:04:59Z</time>
      </trkpt>
      <trkpt lat="46.92826" lon="0.78578">
        <ele>42</ele>
        <time>2026-03-14T12:05:00Z</time>
      </trkpt>
      <trkpt lat="46.92823" lon="0.78499">
        <ele>42.2</ele>
        <time>2026-03-14T12:05:09Z</time>
      </trkpt>
      <trkpt lat="46.92819" lon="0.78416">
        <ele>42.4</ele>
        <time>2026-03-14T12:05:19Z</time>
      </trkpt>
      <trkpt lat="46.92819" lon="0.784">
        <ele>42.4</ele>
        <time>2026-03-14T12:05:21Z</time>
      </trkpt>
      <trkpt lat="46.92817" lon="0.78376">
        <ele>43</ele>
        <time>2026-03-14T12:05:24Z</time>
      </trkpt>
      <trkpt lat="46.92815" lon="0.78326">
        <ele>43.4</ele>
        <time>2026-03-14T12:05:30Z</time>
      </trkpt>
      <trkpt lat="46.92807" lon="0.78252">
        <ele>43.6</ele>
        <time>2026-03-14T12:05:39Z</time>
      </trkpt>
      <trkpt lat="46.92803" lon="0.78226">
        <ele>43.6</ele>
        <time>2026-03-14T12:05:42Z</time>
      </trkpt>
      <trkpt lat="46.92797" lon="0.7819">
        <ele>43.6</ele>
        <time>2026-03-14T12:05:46Z</time>
      </trkpt>
      <trkpt lat="46.92786" lon="0.7811">
        <ele>43.4</ele>
        <time>2026-03-14T12:05:55Z</time>
      </trkpt>
      <trkpt lat="46.92778" lon="0.78025">
        <ele>42.8</ele>
        <time>2026-03-14T12:06:04Z</time>
      </trkpt>
      <trkpt lat="46.92777" lon="0.78006">
        <ele>42.6</ele>
        <time>2026-03-14T12:06:06Z</time>
      </trkpt>
      <trkpt lat="46.92781" lon="0.77924">
        <ele>42</ele>
        <time>2026-03-14T12:06:15Z</time>
      </trkpt>
      <trkpt lat="46.92795" lon="0.77845">
        <ele>41.8</ele>
        <time>2026-03-14T12:06:24Z</time>
      </trkpt>
      <trkpt lat="46.92816" lon="0.7778">
        <ele>41.8</ele>
        <time>2026-03-14T12:06:32Z</time>
      </trkpt>
      <trkpt lat="46.92819" lon="0.77773">
        <ele>41.8</ele>
        <time>2026-03-14T12:06:33Z</time>
      </trkpt>
      <trkpt lat="46.92833" lon="0.77746">
        <ele>41.8</ele>
        <time>2026-03-14T12:06:37Z</time>
      </trkpt>
      <trkpt lat="46.92844" lon="0.77725">
        <ele>42</ele>
        <time>2026-03-14T12:06:40Z</time>
      </trkpt>
      <trkpt lat="46.9285" lon="0.77711">
        <ele>42</ele>
        <time>2026-03-14T12:06:42Z</time>
      </trkpt>
      <trkpt lat="46.92853" lon="0.77705">
        <ele>42</ele>
        <time>2026-03-14T12:06:43Z</time>
      </trkpt>
      <trkpt lat="46.92861" lon="0.7769">
        <ele>42</ele>
        <time>2026-03-14T12:06:45Z</time>
      </trkpt>
      <trkpt lat="46.92892" lon="0.77631">
        <ele>42</ele>
        <time>2026-03-14T12:06:53Z</time>
      </trkpt>
      <trkpt lat="46.92922" lon="0.77567">
        <ele>41.6</ele>
        <time>2026-03-14T12:07:01Z</time>
      </trkpt>
      <trkpt lat="46.92925" lon="0.77558">
        <ele>41.4</ele>
        <time>2026-03-14T12:07:02Z</time>
      </trkpt>
      <trkpt lat="46.92962" lon="0.77487">
        <ele>40.8</ele>
        <time>2026-03-14T12:07:11Z</time>
      </trkpt>
      <trkpt lat="46.9297" lon="0.77472">
        <ele>40.8</ele>
        <time>2026-03-14T12:07:13Z</time>
      </trkpt>
      <trkpt lat="46.92988" lon="0.77436">
        <ele>40.6</ele>
        <time>2026-03-14T12:07:18Z</time>
      </trkpt>
      <trkpt lat="46.93005" lon="0.77405">
        <ele>40.6</ele>
        <time>2026-03-14T12:07:22Z</time>
      </trkpt>
      <trkpt lat="46.93039" lon="0.77341">
        <ele>40.4</ele>
        <time>2026-03-14T12:07:31Z</time>
      </trkpt>
      <trkpt lat="46.93045" lon="0.77329">
        <ele>40.2</ele>
        <time>2026-03-14T12:07:33Z</time>
      </trkpt>
      <trkpt lat="46.9307" lon="0.77282">
        <ele>40.8</ele>
        <time>2026-03-14T12:07:40Z</time>
      </trkpt>
      <trkpt lat="46.93097" lon="0.77229">
        <ele>41.2</ele>
        <time>2026-03-14T12:07:48Z</time>
      </trkpt>
      <trkpt lat="46.93103" lon="0.77216">
        <ele>41.2</ele>
        <time>2026-03-14T12:07:50Z</time>
      </trkpt>
      <trkpt lat="46.93118" lon="0.7718">
        <ele>41.4</ele>
        <time>2026-03-14T12:07:55Z</time>
      </trkpt>
      <trkpt lat="46.93121" lon="0.77173">
        <ele>41.4</ele>
        <time>2026-03-14T12:07:56Z</time>
      </trkpt>
      <trkpt lat="46.93141" lon="0.77112">
        <ele>41.8</ele>
        <time>2026-03-14T12:08:04Z</time>
      </trkpt>
      <trkpt lat="46.93154" lon="0.77062">
        <ele>42.4</ele>
        <time>2026-03-14T12:08:11Z</time>
      </trkpt>
      <trkpt lat="46.93161" lon="0.7703">
        <ele>42.6</ele>
        <time>2026-03-14T12:08:15Z</time>
      </trkpt>
      <trkpt lat="46.93171" lon="0.76971">
        <ele>43.6</ele>
        <time>2026-03-14T12:08:22Z</time>
      </trkpt>
      <trkpt lat="46.93173" lon="0.76954">
        <ele>43.6</ele>
        <time>2026-03-14T12:08:24Z</time>
      </trkpt>
      <trkpt lat="46.93179" lon="0.7692">
        <ele>43.8</ele>
        <time>2026-03-14T12:08:28Z</time>
      </trkpt>
      <trkpt lat="46.93187" lon="0.76869">
        <ele>43.8</ele>
        <time>2026-03-14T12:08:34Z</time>
      </trkpt>
      <trkpt lat="46.93199" lon="0.7679">
        <ele>43.8</ele>
        <time>2026-03-14T12:08:43Z</time>
      </trkpt>
      <trkpt lat="46.93211" lon="0.76717">
        <ele>44</ele>
        <time>2026-03-14T12:08:51Z</time>
      </trkpt>
      <trkpt lat="46.93213" lon="0.767">
        <ele>44</ele>
        <time>2026-03-14T12:08:53Z</time>
      </trkpt>
      <trkpt lat="46.93226" lon="0.76616">
        <ele>44.4</ele>
        <time>2026-03-14T12:09:02Z</time>
      </trkpt>
      <trkpt lat="46.93239" lon="0.76535">
        <ele>44.2</ele>
        <time>2026-03-14T12:09:11Z</time>
      </trkpt>
      <trkpt lat="46.93242" lon="0.76509">
        <ele>44.2</ele>
        <time>2026-03-14T12:09:14Z</time>
      </trkpt>
      <trkpt lat="46.93247" lon="0.76433">
        <ele>44.2</ele>
        <time>2026-03-14T12:09:22Z</time>
      </trkpt>
      <trkpt lat="46.93247" lon="0.76382">
        <ele>43.8</ele>
        <time>2026-03-14T12:09:27Z</time>
      </trkpt>
      <trkpt lat="46.93246" lon="0.76335">
        <ele>43.6</ele>
        <time>2026-03-14T12:09:32Z</time>
      </trkpt>
      <trkpt lat="46.93245" lon="0.76255">
        <ele>42.8</ele>
        <time>2026-03-14T12:09:40Z</time>
      </trkpt>
      <trkpt lat="46.93245" lon="0.76233">
        <ele>42.8</ele>
        <time>2026-03-14T12:09:42Z</time>
      </trkpt>
      <trkpt lat="46.93243" lon="0.76143">
        <ele>42.4</ele>
        <time>2026-03-14T12:09:51Z</time>
      </trkpt>
      <trkpt lat="46.93243" lon="0.76125">
        <ele>42.2</ele>
        <time>2026-03-14T12:09:53Z</time>
      </trkpt>
      <trkpt lat="46.93243" lon="0.76115">
        <ele>42.2</ele>
        <time>2026-03-14T12:09:54Z</time>
      </trkpt>
      <trkpt lat="46.93242" lon="0.76036">
        <ele>41.4</ele>
        <time>2026-03-14T12:10:02Z</time>
      </trkpt>
      <trkpt lat="46.93241" lon="0.75964">
        <ele>41.2</ele>
        <time>2026-03-14T12:10:09Z</time>
      </trkpt>
      <trkpt lat="46.93241" lon="0.7593">
        <ele>40.8</ele>
        <time>2026-03-14T12:10:12Z</time>
      </trkpt>
      <trkpt lat="46.9324" lon="0.7589">
        <ele>39.8</ele>
        <time>2026-03-14T12:10:16Z</time>
      </trkpt>
      <trkpt lat="46.93239" lon="0.75827">
        <ele>38.8</ele>
        <time>2026-03-14T12:10:22Z</time>
      </trkpt>
      <trkpt lat="46.93238" lon="0.7574">
        <ele>38.4</ele>
        <time>2026-03-14T12:10:31Z</time>
      </trkpt>
      <trkpt lat="46.93236" lon="0.75654">
        <ele>38.8</ele>
        <time>2026-03-14T12:10:40Z</time>
      </trkpt>
      <trkpt lat="46.93234" lon="0.7557">
        <ele>39</ele>
        <time>2026-03-14T12:10:49Z</time>
      </trkpt>
      <trkpt lat="46.93234" lon="0.75561">
        <ele>39</ele>
        <time>2026-03-14T12:10:50Z</time>
      </trkpt>
      <trkpt lat="46.93233" lon="0.75475">
        <ele>39.2</ele>
        <time>2026-03-14T12:11:00Z</time>
      </trkpt>
      <trkpt lat="46.93235" lon="0.75388">
        <ele>39.4</ele>
        <time>2026-03-14T12:11:10Z</time>
      </trkpt>
      <trkpt lat="46.93244" lon="0.75304">
        <ele>39.6</ele>
        <time>2026-03-14T12:11:20Z</time>
      </trkpt>
      <trkpt lat="46.93246" lon="0.75287">
        <ele>39.8</ele>
        <time>2026-03-14T12:11:22Z</time>
      </trkpt>
      <trkpt lat="46.93257" lon="0.7522">
        <ele>40</ele>
        <time>2026-03-14T12:11:30Z</time>
      </trkpt>
      <trkpt lat="46.93267" lon="0.75159">
        <ele>40.4</ele>
        <time>2026-03-14T12:11:37Z</time>
      </trkpt>
      <trkpt lat="46.9328" lon="0.75083">
        <ele>40.6</ele>
        <time>2026-03-14T12:11:46Z</time>
      </trkpt>
      <trkpt lat="46.93289" lon="0.75028">
        <ele>40.8</ele>
        <time>2026-03-14T12:11:52Z</time>
      </trkpt>
      <trkpt lat="46.93302" lon="0.74945">
        <ele>40.8</ele>
        <time>2026-03-14T12:12:01Z</time>
      </trkpt>
      <trkpt lat="46.93304" lon="0.74937">
        <ele>40.8</ele>
        <time>2026-03-14T12:12:02Z</time>
      </trkpt>
      <trkpt lat="46.9332" lon="0.74869">
        <ele>40.8</ele>
        <time>2026-03-14T12:12:10Z</time>
      </trkpt>
      <trkpt lat="46.93328" lon="0.74837">
        <ele>41</ele>
        <time>2026-03-14T12:12:14Z</time>
      </trkpt>
      <trkpt lat="46.93342" lon="0.74804">
        <ele>41</ele>
        <time>2026-03-14T12:12:18Z</time>
      </trkpt>
      <trkpt lat="46.93371" lon="0.74737">
        <ele>41</ele>
        <time>2026-03-14T12:12:26Z</time>
      </trkpt>
      <trkpt lat="46.93377" lon="0.74723">
        <ele>40.8</ele>
        <time>2026-03-14T12:12:28Z</time>
      </trkpt>
      <trkpt lat="46.93398" lon="0.74673">
        <ele>40.4</ele>
        <time>2026-03-14T12:12:34Z</time>
      </trkpt>
      <trkpt lat="46.93422" lon="0.74618">
        <ele>39.8</ele>
        <time>2026-03-14T12:12:41Z</time>
      </trkpt>
      <trkpt lat="46.9343" lon="0.746">
        <ele>39.8</ele>
        <time>2026-03-14T12:12:43Z</time>
      </trkpt>
      <trkpt lat="46.93441" lon="0.74579">
        <ele>39.6</ele>
        <time>2026-03-14T12:12:46Z</time>
      </trkpt>
      <trkpt lat="46.93472" lon="0.74505">
        <ele>39.2</ele>
        <time>2026-03-14T12:12:55Z</time>
      </trkpt>
      <trkpt lat="46.93479" lon="0.74488">
        <ele>39.2</ele>
        <time>2026-03-14T12:12:57Z</time>
      </trkpt>
      <trkpt lat="46.93502" lon="0.7441">
        <ele>39.6</ele>
        <time>2026-03-14T12:13:06Z</time>
      </trkpt>
      <trkpt lat="46.93522" lon="0.74334">
        <ele>39</ele>
        <time>2026-03-14T12:13:15Z</time>
      </trkpt>
      <trkpt lat="46.93526" lon="0.74318">
        <ele>39</ele>
        <time>2026-03-14T12:13:17Z</time>
      </trkpt>
      <trkpt lat="46.93531" lon="0.74299">
        <ele>38.8</ele>
        <time>2026-03-14T12:13:19Z</time>
      </trkpt>
      <trkpt lat="46.93549" lon="0.7422">
        <ele>38.2</ele>
        <time>2026-03-14T12:13:28Z</time>
      </trkpt>
      <trkpt lat="46.93551" lon="0.74211">
        <ele>38.2</ele>
        <time>2026-03-14T12:13:29Z</time>
      </trkpt>
      <trkpt lat="46.93565" lon="0.74152">
        <ele>37.6</ele>
        <time>2026-03-14T12:13:36Z</time>
      </trkpt>
      <trkpt lat="46.93571" lon="0.74125">
        <ele>37.6</ele>
        <time>2026-03-14T12:13:39Z</time>
      </trkpt>
      <trkpt lat="46.93577" lon="0.741">
        <ele>37.4</ele>
        <time>2026-03-14T12:13:42Z</time>
      </trkpt>
      <trkpt lat="46.93587" lon="0.74058">
        <ele>37.4</ele>
        <time>2026-03-14T12:13:47Z</time>
      </trkpt>
      <trkpt lat="46.93605" lon="0.73982">
        <ele>37.2</ele>
        <time>2026-03-14T12:13:56Z</time>
      </trkpt>
      <trkpt lat="46.93628" lon="0.73902">
        <ele>37.2</ele>
        <time>2026-03-14T12:14:06Z</time>
      </trkpt>
      <trkpt lat="46.93651" lon="0.73832">
        <ele>36.8</ele>
        <time>2026-03-14T12:14:15Z</time>
      </trkpt>
      <trkpt lat="46.93654" lon="0.73822">
        <ele>36.8</ele>
        <time>2026-03-14T12:14:16Z</time>
      </trkpt>
      <trkpt lat="46.93672" lon="0.73778">
        <ele>36.6</ele>
        <time>2026-03-14T12:14:22Z</time>
      </trkpt>
      <trkpt lat="46.93678" lon="0.73764">
        <ele>36.6</ele>
        <time>2026-03-14T12:14:24Z</time>
      </trkpt>
      <trkpt lat="46.93705" lon="0.73707">
        <ele>36.4</ele>
        <time>2026-03-14T12:14:32Z</time>
      </trkpt>
      <trkpt lat="46.93734" lon="0.73639">
        <ele>36.4</ele>
        <time>2026-03-14T12:14:41Z</time>
      </trkpt>
      <trkpt lat="46.93758" lon="0.73585">
        <ele>36.4</ele>
        <time>2026-03-14T12:14:48Z</time>
      </trkpt>
      <trkpt lat="46.9378" lon="0.73535">
        <ele>36.4</ele>
        <time>2026-03-14T12:14:55Z</time>
      </trkpt>
      <trkpt lat="46.9379" lon="0.73513">
        <ele>36.6</ele>
        <time>2026-03-14T12:14:58Z</time>
      </trkpt>
      <trkpt lat="46.93808" lon="0.73471">
        <ele>36.8</ele>
        <time>2026-03-14T12:15:04Z</time>
      </trkpt>
      <trkpt lat="46.93811" lon="0.73462">
        <ele>36.8</ele>
        <time>2026-03-14T12:15:05Z</time>
      </trkpt>
      <trkpt lat="46.93817" lon="0.73441">
        <ele>36.8</ele>
        <time>2026-03-14T12:15:08Z</time>
      </trkpt>
      <trkpt lat="46.9382" lon="0.73434">
        <ele>36.8</ele>
        <time>2026-03-14T12:15:09Z</time>
      </trkpt>
      <trkpt lat="46.93824" lon="0.73425">
        <ele>36.8</ele>
        <time>2026-03-14T12:15:10Z</time>
      </trkpt>
      <trkpt lat="46.93837" lon="0.73387">
        <ele>36.8</ele>
        <time>2026-03-14T12:15:15Z</time>
      </trkpt>
      <trkpt lat="46.93856" lon="0.73313">
        <ele>36.8</ele>
        <time>2026-03-14T12:15:24Z</time>
      </trkpt>
      <trkpt lat="46.93858" lon="0.73305">
        <ele>36.8</ele>
        <time>2026-03-14T12:15:25Z</time>
      </trkpt>
      <trkpt lat="46.93878" lon="0.73231">
        <ele>37</ele>
        <time>2026-03-14T12:15:34Z</time>
      </trkpt>
      <trkpt lat="46.93898" lon="0.73155">
        <ele>36.8</ele>
        <time>2026-03-14T12:15:43Z</time>
      </trkpt>
      <trkpt lat="46.93901" lon="0.73147">
        <ele>36.6</ele>
        <time>2026-03-14T12:15:44Z</time>
      </trkpt>
      <trkpt lat="46.93919" lon="0.73078">
        <ele>36.4</ele>
        <time>2026-03-14T12:15:52Z</time>
      </trkpt>
      <trkpt lat="46.93931" lon="0.73028">
        <ele>36.4</ele>
        <time>2026-03-14T12:15:58Z</time>
      </trkpt>
      <trkpt lat="46.93946" lon="0.7298">
        <ele>36.8</ele>
        <time>2026-03-14T12:16:04Z</time>
      </trkpt>
      <trkpt lat="46.93974" lon="0.72913">
        <ele>36.6</ele>
        <time>2026-03-14T12:16:13Z</time>
      </trkpt>
      <trkpt lat="46.93997" lon="0.72875">
        <ele>37</ele>
        <time>2026-03-14T12:16:19Z</time>
      </trkpt>
      <trkpt lat="46.94001" lon="0.7287">
        <ele>37</ele>
        <time>2026-03-14T12:16:20Z</time>
      </trkpt>
      <trkpt lat="46.94008" lon="0.7286">
        <ele>37.2</ele>
        <time>2026-03-14T12:16:22Z</time>
      </trkpt>
      <trkpt lat="46.94013" lon="0.72846">
        <ele>37.4</ele>
        <time>2026-03-14T12:16:24Z</time>
      </trkpt>
      <trkpt lat="46.94013" lon="0.72811">
        <ele>37.2</ele>
        <time>2026-03-14T12:16:28Z</time>
      </trkpt>
      <trkpt lat="46.94018" lon="0.72752">
        <ele>37.4</ele>
        <time>2026-03-14T12:16:35Z</time>
      </trkpt>
      <trkpt lat="46.94028" lon="0.72691">
        <ele>37</ele>
        <time>2026-03-14T12:16:42Z</time>
      </trkpt>
      <trkpt lat="46.94032" lon="0.72677">
        <ele>36.8</ele>
        <time>2026-03-14T12:16:45Z</time>
      </trkpt>
      <trkpt lat="46.94033" lon="0.72677">
        <ele>36.8</ele>
        <time>2026-03-14T12:16:48Z</time>
      </trkpt>
      <trkpt lat="46.94034" lon="0.72673">
        <ele>36</ele>
        <time>2026-03-14T12:19:33Z</time>
      </trkpt>
      <trkpt lat="46.94037" lon="0.72664">
        <ele>36</ele>
        <time>2026-03-14T12:19:36Z</time>
      </trkpt>
      <trkpt lat="46.94045" lon="0.72635">
        <ele>36.4</ele>
        <time>2026-03-14T12:19:42Z</time>
      </trkpt>
      <trkpt lat="46.94056" lon="0.72604">
        <ele>36.8</ele>
        <time>2026-03-14T12:19:48Z</time>
      </trkpt>
      <trkpt lat="46.94065" lon="0.72581">
        <ele>36.8</ele>
        <time>2026-03-14T12:19:54Z</time>
      </trkpt>
      <trkpt lat="46.94066" lon="0.72578">
        <ele>36.8</ele>
        <time>2026-03-14T12:19:55Z</time>
      </trkpt>
      <trkpt lat="46.94066" lon="0.72577">
        <ele>36.8</ele>
        <time>2026-03-14T12:19:58Z</time>
      </trkpt>
      <trkpt lat="46.94068" lon="0.7257">
        <ele>36.6</ele>
        <time>2026-03-14T12:20:06Z</time>
      </trkpt>
      <trkpt lat="46.94071" lon="0.72563">
        <ele>36.6</ele>
        <time>2026-03-14T12:20:08Z</time>
      </trkpt>
      <trkpt lat="46.94072" lon="0.72558">
        <ele>36.6</ele>
        <time>2026-03-14T12:20:09Z</time>
      </trkpt>
      <trkpt lat="46.94079" lon="0.72542">
        <ele>36.6</ele>
        <time>2026-03-14T12:20:12Z</time>
      </trkpt>
      <trkpt lat="46.94081" lon="0.72535">
        <ele>36.6</ele>
        <time>2026-03-14T12:20:13Z</time>
      </trkpt>
      <trkpt lat="46.94089" lon="0.72495">
        <ele>36.6</ele>
        <time>2026-03-14T12:20:18Z</time>
      </trkpt>
      <trkpt lat="46.94097" lon="0.7245">
        <ele>36.2</ele>
        <time>2026-03-14T12:20:23Z</time>
      </trkpt>
      <trkpt lat="46.94107" lon="0.72399">
        <ele>36</ele>
        <time>2026-03-14T12:20:29Z</time>
      </trkpt>
      <trkpt lat="46.94111" lon="0.72382">
        <ele>36</ele>
        <time>2026-03-14T12:20:31Z</time>
      </trkpt>
      <trkpt lat="46.94119" lon="0.72341">
        <ele>36.4</ele>
        <time>2026-03-14T12:20:36Z</time>
      </trkpt>
      <trkpt lat="46.94134" lon="0.72268">
        <ele>37.2</ele>
        <time>2026-03-14T12:20:45Z</time>
      </trkpt>
      <trkpt lat="46.94138" lon="0.72245">
        <ele>37.6</ele>
        <time>2026-03-14T12:20:48Z</time>
      </trkpt>
      <trkpt lat="46.94143" lon="0.72215">
        <ele>38.2</ele>
        <time>2026-03-14T12:20:52Z</time>
      </trkpt>
      <trkpt lat="46.94148" lon="0.72185">
        <ele>38.6</ele>
        <time>2026-03-14T12:20:56Z</time>
      </trkpt>
      <trkpt lat="46.94155" lon="0.72157">
        <ele>38.8</ele>
        <time>2026-03-14T12:21:00Z</time>
      </trkpt>
      <trkpt lat="46.94161" lon="0.72136">
        <ele>39</ele>
        <time>2026-03-14T12:21:03Z</time>
      </trkpt>
      <trkpt lat="46.94166" lon="0.72106">
        <ele>39.4</ele>
        <time>2026-03-14T12:21:07Z</time>
      </trkpt>
      <trkpt lat="46.94177" lon="0.72061">
        <ele>39.4</ele>
        <time>2026-03-14T12:21:13Z</time>
      </trkpt>
      <trkpt lat="46.94181" lon="0.72046">
        <ele>39.4</ele>
        <time>2026-03-14T12:21:15Z</time>
      </trkpt>
      <trkpt lat="46.942" lon="0.71986">
        <ele>40.2</ele>
        <time>2026-03-14T12:21:24Z</time>
      </trkpt>
      <trkpt lat="46.94227" lon="0.71915">
        <ele>40.6</ele>
        <time>2026-03-14T12:21:35Z</time>
      </trkpt>
      <trkpt lat="46.94231" lon="0.71908">
        <ele>40.6</ele>
        <time>2026-03-14T12:21:36Z</time>
      </trkpt>
      <trkpt lat="46.94252" lon="0.71862">
        <ele>41.6</ele>
        <time>2026-03-14T12:21:44Z</time>
      </trkpt>
      <trkpt lat="46.94254" lon="0.71858">
        <ele>41.8</ele>
        <time>2026-03-14T12:21:45Z</time>
      </trkpt>
      <trkpt lat="46.94266" lon="0.71836">
        <ele>42.4</ele>
        <time>2026-03-14T12:21:49Z</time>
      </trkpt>
      <trkpt lat="46.94272" lon="0.71826">
        <ele>43</ele>
        <time>2026-03-14T12:21:51Z</time>
      </trkpt>
      <trkpt lat="46.94287" lon="0.71803">
        <ele>44.2</ele>
        <time>2026-03-14T12:21:56Z</time>
      </trkpt>
      <trkpt lat="46.94309" lon="0.7177">
        <ele>45.4</ele>
        <time>2026-03-14T12:22:03Z</time>
      </trkpt>
      <trkpt lat="46.94315" lon="0.71759">
        <ele>45.6</ele>
        <time>2026-03-14T12:22:05Z</time>
      </trkpt>
      <trkpt lat="46.94347" lon="0.71716">
        <ele>45.8</ele>
        <time>2026-03-14T12:22:13Z</time>
      </trkpt>
      <trkpt lat="46.94355" lon="0.71705">
        <ele>45.8</ele>
        <time>2026-03-14T12:22:15Z</time>
      </trkpt>
      <trkpt lat="46.94371" lon="0.71685">
        <ele>45.8</ele>
        <time>2026-03-14T12:22:20Z</time>
      </trkpt>
      <trkpt lat="46.94399" lon="0.71654">
        <ele>46.2</ele>
        <time>2026-03-14T12:22:26Z</time>
      </trkpt>
      <trkpt lat="46.94431" lon="0.71618">
        <ele>46</ele>
        <time>2026-03-14T12:22:33Z</time>
      </trkpt>
      <trkpt lat="46.94474" lon="0.71564">
        <ele>45.8</ele>
        <time>2026-03-14T12:22:42Z</time>
      </trkpt>
      <trkpt lat="46.94507" lon="0.71527">
        <ele>45.8</ele>
        <time>2026-03-14T12:22:49Z</time>
      </trkpt>
      <trkpt lat="46.94549" lon="0.71477">
        <ele>45.4</ele>
        <time>2026-03-14T12:22:58Z</time>
      </trkpt>
      <trkpt lat="46.94564" lon="0.7146">
        <ele>45.2</ele>
        <time>2026-03-14T12:23:01Z</time>
      </trkpt>
      <trkpt lat="46.94608" lon="0.71408">
        <ele>44.8</ele>
        <time>2026-03-14T12:23:10Z</time>
      </trkpt>
      <trkpt lat="46.94618" lon="0.71396">
        <ele>44.6</ele>
        <time>2026-03-14T12:23:12Z</time>
      </trkpt>
      <trkpt lat="46.94655" lon="0.71354">
        <ele>44.2</ele>
        <time>2026-03-14T12:23:19Z</time>
      </trkpt>
      <trkpt lat="46.94665" lon="0.71342">
        <ele>44</ele>
        <time>2026-03-14T12:23:21Z</time>
      </trkpt>
      <trkpt lat="46.94701" lon="0.71298">
        <ele>43.4</ele>
        <time>2026-03-14T12:23:28Z</time>
      </trkpt>
      <trkpt lat="46.94707" lon="0.71291">
        <ele>43.2</ele>
        <time>2026-03-14T12:23:29Z</time>
      </trkpt>
      <trkpt lat="46.94733" lon="0.7126">
        <ele>43</ele>
        <time>2026-03-14T12:23:34Z</time>
      </trkpt>
      <trkpt lat="46.94778" lon="0.71205">
        <ele>42.6</ele>
        <time>2026-03-14T12:23:43Z</time>
      </trkpt>
      <trkpt lat="46.94785" lon="0.71198">
        <ele>42.4</ele>
        <time>2026-03-14T12:23:44Z</time>
      </trkpt>
      <trkpt lat="46.94799" lon="0.71181">
        <ele>42.2</ele>
        <time>2026-03-14T12:23:47Z</time>
      </trkpt>
      <trkpt lat="46.94838" lon="0.71134">
        <ele>42.2</ele>
        <time>2026-03-14T12:23:55Z</time>
      </trkpt>
      <trkpt lat="46.94882" lon="0.71084">
        <ele>42.2</ele>
        <time>2026-03-14T12:24:04Z</time>
      </trkpt>
      <trkpt lat="46.94892" lon="0.71073">
        <ele>42.2</ele>
        <time>2026-03-14T12:24:06Z</time>
      </trkpt>
      <trkpt lat="46.94935" lon="0.71022">
        <ele>42.2</ele>
        <time>2026-03-14T12:24:15Z</time>
      </trkpt>
      <trkpt lat="46.94939" lon="0.71017">
        <ele>42.2</ele>
        <time>2026-03-14T12:24:16Z</time>
      </trkpt>
      <trkpt lat="46.94981" lon="0.70968">
        <ele>41.6</ele>
        <time>2026-03-14T12:24:25Z</time>
      </trkpt>
      <trkpt lat="46.95023" lon="0.70918">
        <ele>41.4</ele>
        <time>2026-03-14T12:24:34Z</time>
      </trkpt>
      <trkpt lat="46.95047" lon="0.70889">
        <ele>41.2</ele>
        <time>2026-03-14T12:24:39Z</time>
      </trkpt>
      <trkpt lat="46.95066" lon="0.70866">
        <ele>41.2</ele>
        <time>2026-03-14T12:24:43Z</time>
      </trkpt>
      <trkpt lat="46.95096" lon="0.7083">
        <ele>40.8</ele>
        <time>2026-03-14T12:24:49Z</time>
      </trkpt>
      <trkpt lat="46.95142" lon="0.70776">
        <ele>40</ele>
        <time>2026-03-14T12:24:58Z</time>
      </trkpt>
      <trkpt lat="46.95172" lon="0.70755">
        <ele>39.2</ele>
        <time>2026-03-14T12:25:03Z</time>
      </trkpt>
      <trkpt lat="46.95185" lon="0.70751">
        <ele>39</ele>
        <time>2026-03-14T12:25:05Z</time>
      </trkpt>
      <trkpt lat="46.95205" lon="0.70747">
        <ele>38.6</ele>
        <time>2026-03-14T12:25:08Z</time>
      </trkpt>
      <trkpt lat="46.95216" lon="0.7074">
        <ele>38.4</ele>
        <time>2026-03-14T12:25:10Z</time>
      </trkpt>
      <trkpt lat="46.95221" lon="0.70734">
        <ele>38.2</ele>
        <time>2026-03-14T12:25:11Z</time>
      </trkpt>
      <trkpt lat="46.95224" lon="0.70727">
        <ele>38.2</ele>
        <time>2026-03-14T12:25:12Z</time>
      </trkpt>
      <trkpt lat="46.95229" lon="0.70711">
        <ele>38</ele>
        <time>2026-03-14T12:25:14Z</time>
      </trkpt>
      <trkpt lat="46.95231" lon="0.70704">
        <ele>37.8</ele>
        <time>2026-03-14T12:25:15Z</time>
      </trkpt>
      <trkpt lat="46.95238" lon="0.70693">
        <ele>37.6</ele>
        <time>2026-03-14T12:25:17Z</time>
      </trkpt>
      <trkpt lat="46.95258" lon="0.70681">
        <ele>37.2</ele>
        <time>2026-03-14T12:25:21Z</time>
      </trkpt>
      <trkpt lat="46.95302" lon="0.70656">
        <ele>37.2</ele>
        <time>2026-03-14T12:25:29Z</time>
      </trkpt>
      <trkpt lat="46.95347" lon="0.70631">
        <ele>37</ele>
        <time>2026-03-14T12:25:37Z</time>
      </trkpt>
      <trkpt lat="46.95359" lon="0.70627">
        <ele>37</ele>
        <time>2026-03-14T12:25:39Z</time>
      </trkpt>
      <trkpt lat="46.95412" lon="0.70607">
        <ele>37</ele>
        <time>2026-03-14T12:25:48Z</time>
      </trkpt>
      <trkpt lat="46.95424" lon="0.70604">
        <ele>37</ele>
        <time>2026-03-14T12:25:50Z</time>
      </trkpt>
      <trkpt lat="46.95475" lon="0.70588">
        <ele>36.4</ele>
        <time>2026-03-14T12:25:58Z</time>
      </trkpt>
      <trkpt lat="46.95495" lon="0.70583">
        <ele>36</ele>
        <time>2026-03-14T12:26:01Z</time>
      </trkpt>
      <trkpt lat="46.95501" lon="0.70581">
        <ele>36</ele>
        <time>2026-03-14T12:26:02Z</time>
      </trkpt>
      <trkpt lat="46.9556" lon="0.70564">
        <ele>35.8</ele>
        <time>2026-03-14T12:26:11Z</time>
      </trkpt>
      <trkpt lat="46.95619" lon="0.70548">
        <ele>35.6</ele>
        <time>2026-03-14T12:26:20Z</time>
      </trkpt>
      <trkpt lat="46.95625" lon="0.70546">
        <ele>35.6</ele>
        <time>2026-03-14T12:26:21Z</time>
      </trkpt>
      <trkpt lat="46.95671" lon="0.7054">
        <ele>35.4</ele>
        <time>2026-03-14T12:26:28Z</time>
      </trkpt>
      <trkpt lat="46.95723" lon="0.70547">
        <ele>35.2</ele>
        <time>2026-03-14T12:26:36Z</time>
      </trkpt>
      <trkpt lat="46.95767" lon="0.70556">
        <ele>35.2</ele>
        <time>2026-03-14T12:26:43Z</time>
      </trkpt>
      <trkpt lat="46.95794" lon="0.7056">
        <ele>35.2</ele>
        <time>2026-03-14T12:26:47Z</time>
      </trkpt>
      <trkpt lat="46.95854" lon="0.70558">
        <ele>35.2</ele>
        <time>2026-03-14T12:26:56Z</time>
      </trkpt>
      <trkpt lat="46.95913" lon="0.70553">
        <ele>35</ele>
        <time>2026-03-14T12:27:05Z</time>
      </trkpt>
      <trkpt lat="46.9592" lon="0.70553">
        <ele>35</ele>
        <time>2026-03-14T12:27:06Z</time>
      </trkpt>
      <trkpt lat="46.9598" lon="0.70551">
        <ele>34.6</ele>
        <time>2026-03-14T12:27:15Z</time>
      </trkpt>
      <trkpt lat="46.96038" lon="0.7055">
        <ele>34.4</ele>
        <time>2026-03-14T12:27:24Z</time>
      </trkpt>
      <trkpt lat="46.96096" lon="0.70551">
        <ele>34.6</ele>
        <time>2026-03-14T12:27:33Z</time>
      </trkpt>
      <trkpt lat="46.96122" lon="0.7055">
        <ele>34.6</ele>
        <time>2026-03-14T12:27:37Z</time>
      </trkpt>
      <trkpt lat="46.96174" lon="0.70551">
        <ele>34.6</ele>
        <time>2026-03-14T12:27:45Z</time>
      </trkpt>
      <trkpt lat="46.96233" lon="0.70552">
        <ele>34.8</ele>
        <time>2026-03-14T12:27:54Z</time>
      </trkpt>
      <trkpt lat="46.96284" lon="0.70552">
        <ele>35.2</ele>
        <time>2026-03-14T12:28:02Z</time>
      </trkpt>
      <trkpt lat="46.96297" lon="0.70554">
        <ele>35.2</ele>
        <time>2026-03-14T12:28:04Z</time>
      </trkpt>
      <trkpt lat="46.96353" lon="0.70552">
        <ele>35.6</ele>
        <time>2026-03-14T12:28:13Z</time>
      </trkpt>
      <trkpt lat="46.96359" lon="0.70549">
        <ele>35.8</ele>
        <time>2026-03-14T12:28:14Z</time>
      </trkpt>
      <trkpt lat="46.96383" lon="0.70534">
        <ele>35.8</ele>
        <time>2026-03-14T12:28:18Z</time>
      </trkpt>
      <trkpt lat="46.96401" lon="0.70521">
        <ele>36</ele>
        <time>2026-03-14T12:28:21Z</time>
      </trkpt>
      <trkpt lat="46.96424" lon="0.70504">
        <ele>36</ele>
        <time>2026-03-14T12:28:25Z</time>
      </trkpt>
      <trkpt lat="46.96468" lon="0.70477">
        <ele>36</ele>
        <time>2026-03-14T12:28:32Z</time>
      </trkpt>
      <trkpt lat="46.96495" lon="0.70458">
        <ele>36</ele>
        <time>2026-03-14T12:28:37Z</time>
      </trkpt>
      <trkpt lat="46.96539" lon="0.70431">
        <ele>36.4</ele>
        <time>2026-03-14T12:28:45Z</time>
      </trkpt>
      <trkpt lat="46.96594" lon="0.70394">
        <ele>35.8</ele>
        <time>2026-03-14T12:28:54Z</time>
      </trkpt>
      <trkpt lat="46.966" lon="0.7039">
        <ele>36</ele>
        <time>2026-03-14T12:28:55Z</time>
      </trkpt>
      <trkpt lat="46.9665" lon="0.70359">
        <ele>35.2</ele>
        <time>2026-03-14T12:29:03Z</time>
      </trkpt>
      <trkpt lat="46.96663" lon="0.70353">
        <ele>35.2</ele>
        <time>2026-03-14T12:29:05Z</time>
      </trkpt>
      <trkpt lat="46.96683" lon="0.70343">
        <ele>35</ele>
        <time>2026-03-14T12:29:08Z</time>
      </trkpt>
      <trkpt lat="46.96739" lon="0.70315">
        <ele>34.2</ele>
        <time>2026-03-14T12:29:17Z</time>
      </trkpt>
      <trkpt lat="46.96746" lon="0.70312">
        <ele>34.2</ele>
        <time>2026-03-14T12:29:18Z</time>
      </trkpt>
      <trkpt lat="46.96783" lon="0.70294">
        <ele>34.2</ele>
        <time>2026-03-14T12:29:24Z</time>
      </trkpt>
      <trkpt lat="46.96802" lon="0.70286">
        <ele>34</ele>
        <time>2026-03-14T12:29:27Z</time>
      </trkpt>
      <trkpt lat="46.96837" lon="0.7027">
        <ele>33.8</ele>
        <time>2026-03-14T12:29:33Z</time>
      </trkpt>
      <trkpt lat="46.96878" lon="0.7025">
        <ele>33.6</ele>
        <time>2026-03-14T12:29:40Z</time>
      </trkpt>
      <trkpt lat="46.96931" lon="0.70227">
        <ele>33.8</ele>
        <time>2026-03-14T12:29:49Z</time>
      </trkpt>
      <trkpt lat="46.96979" lon="0.70208">
        <ele>34.2</ele>
        <time>2026-03-14T12:29:57Z</time>
      </trkpt>
      <trkpt lat="46.97032" lon="0.70188">
        <ele>35</ele>
        <time>2026-03-14T12:30:06Z</time>
      </trkpt>
      <trkpt lat="46.97037" lon="0.70185">
        <ele>35</ele>
        <time>2026-03-14T12:30:07Z</time>
      </trkpt>
      <trkpt lat="46.97074" lon="0.70168">
        <ele>35.4</ele>
        <time>2026-03-14T12:30:14Z</time>
      </trkpt>
      <trkpt lat="46.97107" lon="0.70147">
        <ele>35.6</ele>
        <time>2026-03-14T12:30:21Z</time>
      </trkpt>
      <trkpt lat="46.97143" lon="0.70112">
        <ele>34.8</ele>
        <time>2026-03-14T12:30:29Z</time>
      </trkpt>
      <trkpt lat="46.97158" lon="0.70095">
        <ele>34.6</ele>
        <time>2026-03-14T12:30:32Z</time>
      </trkpt>
      <trkpt lat="46.9717" lon="0.70083">
        <ele>34.6</ele>
        <time>2026-03-14T12:30:35Z</time>
      </trkpt>
      <trkpt lat="46.97189" lon="0.70064">
        <ele>35.2</ele>
        <time>2026-03-14T12:30:40Z</time>
      </trkpt>
      <trkpt lat="46.97196" lon="0.70057">
        <ele>35.8</ele>
        <time>2026-03-14T12:30:42Z</time>
      </trkpt>
      <trkpt lat="46.97199" lon="0.70054">
        <ele>36</ele>
        <time>2026-03-14T12:30:43Z</time>
      </trkpt>
      <trkpt lat="46.9721" lon="0.70044">
        <ele>36.6</ele>
        <time>2026-03-14T12:30:46Z</time>
      </trkpt>
      <trkpt lat="46.97217" lon="0.70037">
        <ele>37.2</ele>
        <time>2026-03-14T12:30:48Z</time>
      </trkpt>
      <trkpt lat="46.97221" lon="0.70035">
        <ele>37.2</ele>
        <time>2026-03-14T12:30:49Z</time>
      </trkpt>
      <trkpt lat="46.97239" lon="0.70027">
        <ele>37.6</ele>
        <time>2026-03-14T12:30:53Z</time>
      </trkpt>
      <trkpt lat="46.97255" lon="0.70018">
        <ele>38.2</ele>
        <time>2026-03-14T12:30:57Z</time>
      </trkpt>
      <trkpt lat="46.97263" lon="0.70013">
        <ele>38.4</ele>
        <time>2026-03-14T12:30:59Z</time>
      </trkpt>
      <trkpt lat="46.97276" lon="0.70005">
        <ele>38.8</ele>
        <time>2026-03-14T12:31:02Z</time>
      </trkpt>
      <trkpt lat="46.97286" lon="0.70001">
        <ele>39</ele>
        <time>2026-03-14T12:31:04Z</time>
      </trkpt>
      <trkpt lat="46.9729" lon="0.69998">
        <ele>39.2</ele>
        <time>2026-03-14T12:31:05Z</time>
      </trkpt>
      <trkpt lat="46.97295" lon="0.69994">
        <ele>39.4</ele>
        <time>2026-03-14T12:31:06Z</time>
      </trkpt>
      <trkpt lat="46.97312" lon="0.69978">
        <ele>39.8</ele>
        <time>2026-03-14T12:31:10Z</time>
      </trkpt>
      <trkpt lat="46.97316" lon="0.69974">
        <ele>40</ele>
        <time>2026-03-14T12:31:11Z</time>
      </trkpt>
      <trkpt lat="46.97324" lon="0.69968">
        <ele>40.4</ele>
        <time>2026-03-14T12:31:13Z</time>
      </trkpt>
      <trkpt lat="46.97332" lon="0.69963">
        <ele>40.6</ele>
        <time>2026-03-14T12:31:15Z</time>
      </trkpt>
      <trkpt lat="46.97337" lon="0.69957">
        <ele>40.8</ele>
        <time>2026-03-14T12:31:17Z</time>
      </trkpt>
      <trkpt lat="46.97337" lon="0.69948">
        <ele>40.8</ele>
        <time>2026-03-14T12:31:19Z</time>
      </trkpt>
      <trkpt lat="46.97335" lon="0.69943">
        <ele>40.8</ele>
        <time>2026-03-14T12:31:20Z</time>
      </trkpt>
      <trkpt lat="46.97327" lon="0.69916">
        <ele>40.8</ele>
        <time>2026-03-14T12:31:24Z</time>
      </trkpt>
      <trkpt lat="46.97319" lon="0.69893">
        <ele>40.6</ele>
        <time>2026-03-14T12:31:27Z</time>
      </trkpt>
      <trkpt lat="46.9731" lon="0.69871">
        <ele>40.2</ele>
        <time>2026-03-14T12:31:30Z</time>
      </trkpt>
      <trkpt lat="46.97298" lon="0.69841">
        <ele>38.8</ele>
        <time>2026-03-14T12:31:34Z</time>
      </trkpt>
      <trkpt lat="46.97289" lon="0.69819">
        <ele>37.6</ele>
        <time>2026-03-14T12:31:37Z</time>
      </trkpt>
      <trkpt lat="46.97284" lon="0.69811">
        <ele>37</ele>
        <time>2026-03-14T12:31:38Z</time>
      </trkpt>
      <trkpt lat="46.97278" lon="0.69798">
        <ele>36.6</ele>
        <time>2026-03-14T12:31:40Z</time>
      </trkpt>
      <trkpt lat="46.97267" lon="0.6977">
        <ele>35.4</ele>
        <time>2026-03-14T12:31:44Z</time>
      </trkpt>
      <trkpt lat="46.97256" lon="0.69745">
        <ele>34.2</ele>
        <time>2026-03-14T12:31:48Z</time>
      </trkpt>
      <trkpt lat="46.97251" lon="0.69733">
        <ele>34</ele>
        <time>2026-03-14T12:31:50Z</time>
      </trkpt>
      <trkpt lat="46.97243" lon="0.69716">
        <ele>33.2</ele>
        <time>2026-03-14T12:31:54Z</time>
      </trkpt>
      <trkpt lat="46.97234" lon="0.69692">
        <ele>32</ele>
        <time>2026-03-14T12:31:58Z</time>
      </trkpt>
      <trkpt lat="46.97233" lon="0.69686">
        <ele>32</ele>
        <time>2026-03-14T12:31:59Z</time>
      </trkpt>
      <trkpt lat="46.97221" lon="0.69655">
        <ele>32</ele>
        <time>2026-03-14T12:32:04Z</time>
      </trkpt>
      <trkpt lat="46.97219" lon="0.69651">
        <ele>32</ele>
        <time>2026-03-14T12:32:05Z</time>
      </trkpt>
      <trkpt lat="46.97216" lon="0.69645">
        <ele>31.8</ele>
        <time>2026-03-14T12:32:07Z</time>
      </trkpt>
      <trkpt lat="46.97208" lon="0.69629">
        <ele>31.8</ele>
        <time>2026-03-14T12:32:11Z</time>
      </trkpt>
      <trkpt lat="46.97207" lon="0.69617">
        <ele>31.4</ele>
        <time>2026-03-14T12:32:13Z</time>
      </trkpt>
      <trkpt lat="46.97207" lon="0.69603">
        <ele>31.2</ele>
        <time>2026-03-14T12:32:15Z</time>
      </trkpt>
      <trkpt lat="46.97207" lon="0.69585">
        <ele>31</ele>
        <time>2026-03-14T12:32:18Z</time>
      </trkpt>
      <trkpt lat="46.97208" lon="0.69575">
        <ele>30.6</ele>
        <time>2026-03-14T12:32:20Z</time>
      </trkpt>
      <trkpt lat="46.97207" lon="0.6956">
        <ele>30.2</ele>
        <time>2026-03-14T12:32:24Z</time>
      </trkpt>
      <trkpt lat="46.97207" lon="0.69552">
        <ele>30</ele>
        <time>2026-03-14T12:32:27Z</time>
      </trkpt>
      <trkpt lat="46.97207" lon="0.69549">
        <ele>29.8</ele>
        <time>2026-03-14T12:32:29Z</time>
      </trkpt>
      <trkpt lat="46.97207" lon="0.69548">
        <ele>29.8</ele>
        <time>2026-03-14T12:32:30Z</time>
      </trkpt>
      <trkpt lat="46.97207" lon="0.69548">
        <ele>29.6</ele>
        <time>2026-03-14T12:32:32Z</time>
      </trkpt>
      <trkpt lat="46.97211" lon="0.69549">
        <ele>29.8</ele>
        <time>2026-03-14T12:36:18Z</time>
      </trkpt>
      <trkpt lat="46.97215" lon="0.69549">
        <ele>30</ele>
        <time>2026-03-14T12:36:20Z</time>
      </trkpt>
      <trkpt lat="46.97222" lon="0.69541">
        <ele>30</ele>
        <time>2026-03-14T12:36:24Z</time>
      </trkpt>
      <trkpt lat="46.97223" lon="0.69537">
        <ele>30</ele>
        <time>2026-03-14T12:36:25Z</time>
      </trkpt>
      <trkpt lat="46.97218" lon="0.69518">
        <ele>30.4</ele>
        <time>2026-03-14T12:36:31Z</time>
      </trkpt>
      <trkpt lat="46.97214" lon="0.695">
        <ele>30.8</ele>
        <time>2026-03-14T12:36:36Z</time>
      </trkpt>
      <trkpt lat="46.97211" lon="0.69486">
        <ele>31.2</ele>
        <time>2026-03-14T12:36:40Z</time>
      </trkpt>
      <trkpt lat="46.97207" lon="0.69466">
        <ele>31.8</ele>
        <time>2026-03-14T12:36:45Z</time>
      </trkpt>
      <trkpt lat="46.97206" lon="0.69462">
        <ele>32.2</ele>
        <time>2026-03-14T12:36:46Z</time>
      </trkpt>
      <trkpt lat="46.97201" lon="0.69437">
        <ele>33</ele>
        <time>2026-03-14T12:36:51Z</time>
      </trkpt>
      <trkpt lat="46.97199" lon="0.69426">
        <ele>33.4</ele>
        <time>2026-03-14T12:36:53Z</time>
      </trkpt>
      <trkpt lat="46.97191" lon="0.69395">
        <ele>33.4</ele>
        <time>2026-03-14T12:36:58Z</time>
      </trkpt>
      <trkpt lat="46.9718" lon="0.69346">
        <ele>32.4</ele>
        <time>2026-03-14T12:37:05Z</time>
      </trkpt>
      <trkpt lat="46.97178" lon="0.69339">
        <ele>32.2</ele>
        <time>2026-03-14T12:37:06Z</time>
      </trkpt>
      <trkpt lat="46.97168" lon="0.69294">
        <ele>31.2</ele>
        <time>2026-03-14T12:37:12Z</time>
      </trkpt>
      <trkpt lat="46.97168" lon="0.69287">
        <ele>30.8</ele>
        <time>2026-03-14T12:37:13Z</time>
      </trkpt>
      <trkpt lat="46.97169" lon="0.69275">
        <ele>30.2</ele>
        <time>2026-03-14T12:37:15Z</time>
      </trkpt>
      <trkpt lat="46.97171" lon="0.69269">
        <ele>30</ele>
        <time>2026-03-14T12:37:16Z</time>
      </trkpt>
      <trkpt lat="46.97174" lon="0.69263">
        <ele>29.8</ele>
        <time>2026-03-14T12:37:17Z</time>
      </trkpt>
      <trkpt lat="46.97183" lon="0.69249">
        <ele>29.6</ele>
        <time>2026-03-14T12:37:20Z</time>
      </trkpt>
      <trkpt lat="46.97188" lon="0.69239">
        <ele>29.6</ele>
        <time>2026-03-14T12:37:22Z</time>
      </trkpt>
      <trkpt lat="46.97193" lon="0.69229">
        <ele>29.6</ele>
        <time>2026-03-14T12:37:24Z</time>
      </trkpt>
      <trkpt lat="46.97194" lon="0.69224">
        <ele>29.6</ele>
        <time>2026-03-14T12:37:25Z</time>
      </trkpt>
      <trkpt lat="46.97195" lon="0.69217">
        <ele>29.8</ele>
        <time>2026-03-14T12:37:26Z</time>
      </trkpt>
      <trkpt lat="46.97198" lon="0.69185">
        <ele>30.2</ele>
        <time>2026-03-14T12:37:31Z</time>
      </trkpt>
      <trkpt lat="46.97201" lon="0.69144">
        <ele>30.8</ele>
        <time>2026-03-14T12:37:37Z</time>
      </trkpt>
      <trkpt lat="46.97201" lon="0.69137">
        <ele>30.8</ele>
        <time>2026-03-14T12:37:38Z</time>
      </trkpt>
      <trkpt lat="46.97204" lon="0.69082">
        <ele>31.2</ele>
        <time>2026-03-14T12:37:46Z</time>
      </trkpt>
      <trkpt lat="46.97209" lon="0.69031">
        <ele>31.8</ele>
        <time>2026-03-14T12:37:53Z</time>
      </trkpt>
      <trkpt lat="46.9721" lon="0.69009">
        <ele>31.8</ele>
        <time>2026-03-14T12:37:56Z</time>
      </trkpt>
      <trkpt lat="46.97211" lon="0.68994">
        <ele>31.8</ele>
        <time>2026-03-14T12:37:58Z</time>
      </trkpt>
      <trkpt lat="46.97211" lon="0.68978">
        <ele>32</ele>
        <time>2026-03-14T12:38:00Z</time>
      </trkpt>
      <trkpt lat="46.97206" lon="0.68921">
        <ele>32</ele>
        <time>2026-03-14T12:38:07Z</time>
      </trkpt>
      <trkpt lat="46.97195" lon="0.68863">
        <ele>31.8</ele>
        <time>2026-03-14T12:38:14Z</time>
      </trkpt>
      <trkpt lat="46.97176" lon="0.68806">
        <ele>31.2</ele>
        <time>2026-03-14T12:38:21Z</time>
      </trkpt>
      <trkpt lat="46.97149" lon="0.68738">
        <ele>31</ele>
        <time>2026-03-14T12:38:30Z</time>
      </trkpt>
      <trkpt lat="46.97145" lon="0.6873">
        <ele>31</ele>
        <time>2026-03-14T12:38:31Z</time>
      </trkpt>
      <trkpt lat="46.97114" lon="0.68665">
        <ele>31.2</ele>
        <time>2026-03-14T12:38:40Z</time>
      </trkpt>
      <trkpt lat="46.97111" lon="0.68659">
        <ele>31.2</ele>
        <time>2026-03-14T12:38:41Z</time>
      </trkpt>
      <trkpt lat="46.97078" lon="0.68596">
        <ele>31.2</ele>
        <time>2026-03-14T12:38:50Z</time>
      </trkpt>
      <trkpt lat="46.9707" lon="0.68583">
        <ele>31.2</ele>
        <time>2026-03-14T12:38:52Z</time>
      </trkpt>
      <trkpt lat="46.97041" lon="0.68532">
        <ele>31.2</ele>
        <time>2026-03-14T12:39:00Z</time>
      </trkpt>
      <trkpt lat="46.97039" lon="0.68526">
        <ele>31.2</ele>
        <time>2026-03-14T12:39:01Z</time>
      </trkpt>
      <trkpt lat="46.97038" lon="0.68519">
        <ele>31.2</ele>
        <time>2026-03-14T12:39:02Z</time>
      </trkpt>
      <trkpt lat="46.9704" lon="0.68506">
        <ele>31.2</ele>
        <time>2026-03-14T12:39:04Z</time>
      </trkpt>
      <trkpt lat="46.97045" lon="0.68495">
        <ele>31.2</ele>
        <time>2026-03-14T12:39:06Z</time>
      </trkpt>
      <trkpt lat="46.97052" lon="0.68484">
        <ele>31.2</ele>
        <time>2026-03-14T12:39:08Z</time>
      </trkpt>
      <trkpt lat="46.97077" lon="0.68443">
        <ele>31.6</ele>
        <time>2026-03-14T12:39:15Z</time>
      </trkpt>
      <trkpt lat="46.97112" lon="0.68387">
        <ele>31.8</ele>
        <time>2026-03-14T12:39:24Z</time>
      </trkpt>
      <trkpt lat="46.97148" lon="0.68327">
        <ele>32</ele>
        <time>2026-03-14T12:39:33Z</time>
      </trkpt>
      <trkpt lat="46.97152" lon="0.6832">
        <ele>32</ele>
        <time>2026-03-14T12:39:34Z</time>
      </trkpt>
      <trkpt lat="46.97157" lon="0.68313">
        <ele>32</ele>
        <time>2026-03-14T12:39:35Z</time>
      </trkpt>
      <trkpt lat="46.97195" lon="0.68249">
        <ele>32</ele>
        <time>2026-03-14T12:39:44Z</time>
      </trkpt>
      <trkpt lat="46.97224" lon="0.68191">
        <ele>31.6</ele>
        <time>2026-03-14T12:39:52Z</time>
      </trkpt>
      <trkpt lat="46.9724" lon="0.68156">
        <ele>31.4</ele>
        <time>2026-03-14T12:39:57Z</time>
      </trkpt>
      <trkpt lat="46.97246" lon="0.68143">
        <ele>31.4</ele>
        <time>2026-03-14T12:39:59Z</time>
      </trkpt>
      <trkpt lat="46.97253" lon="0.6813">
        <ele>31.4</ele>
        <time>2026-03-14T12:40:01Z</time>
      </trkpt>
      <trkpt lat="46.97265" lon="0.68117">
        <ele>31.4</ele>
        <time>2026-03-14T12:40:04Z</time>
      </trkpt>
      <trkpt lat="46.97271" lon="0.68104">
        <ele>31.6</ele>
        <time>2026-03-14T12:40:06Z</time>
      </trkpt>
      <trkpt lat="46.97272" lon="0.68096">
        <ele>31.6</ele>
        <time>2026-03-14T12:40:07Z</time>
      </trkpt>
      <trkpt lat="46.97286" lon="0.68038">
        <ele>31.8</ele>
        <time>2026-03-14T12:40:14Z</time>
      </trkpt>
      <trkpt lat="46.97309" lon="0.67962">
        <ele>31.2</ele>
        <time>2026-03-14T12:40:23Z</time>
      </trkpt>
      <trkpt lat="46.97332" lon="0.67888">
        <ele>31.2</ele>
        <time>2026-03-14T12:40:32Z</time>
      </trkpt>
      <trkpt lat="46.97337" lon="0.67872">
        <ele>31.2</ele>
        <time>2026-03-14T12:40:34Z</time>
      </trkpt>
      <trkpt lat="46.97361" lon="0.678">
        <ele>31</ele>
        <time>2026-03-14T12:40:43Z</time>
      </trkpt>
      <trkpt lat="46.97363" lon="0.67792">
        <ele>31</ele>
        <time>2026-03-14T12:40:44Z</time>
      </trkpt>
      <trkpt lat="46.97387" lon="0.6772">
        <ele>30.8</ele>
        <time>2026-03-14T12:40:53Z</time>
      </trkpt>
      <trkpt lat="46.97409" lon="0.67653">
        <ele>30.8</ele>
        <time>2026-03-14T12:41:02Z</time>
      </trkpt>
      <trkpt lat="46.97425" lon="0.67607">
        <ele>31.2</ele>
        <time>2026-03-14T12:41:09Z</time>
      </trkpt>
      <trkpt lat="46.97427" lon="0.676">
        <ele>31.4</ele>
        <time>2026-03-14T12:41:10Z</time>
      </trkpt>
      <trkpt lat="46.97443" lon="0.67546">
        <ele>31.8</ele>
        <time>2026-03-14T12:41:18Z</time>
      </trkpt>
      <trkpt lat="46.97458" lon="0.67482">
        <ele>32.2</ele>
        <time>2026-03-14T12:41:27Z</time>
      </trkpt>
      <trkpt lat="46.97468" lon="0.67422">
        <ele>32.4</ele>
        <time>2026-03-14T12:41:35Z</time>
      </trkpt>
      <trkpt lat="46.97468" lon="0.67415">
        <ele>32.4</ele>
        <time>2026-03-14T12:41:36Z</time>
      </trkpt>
      <trkpt lat="46.97477" lon="0.67329">
        <ele>32.6</ele>
        <time>2026-03-14T12:41:47Z</time>
      </trkpt>
      <trkpt lat="46.97478" lon="0.6732">
        <ele>32.6</ele>
        <time>2026-03-14T12:41:48Z</time>
      </trkpt>
      <trkpt lat="46.97485" lon="0.67253">
        <ele>32.8</ele>
        <time>2026-03-14T12:41:56Z</time>
      </trkpt>
      <trkpt lat="46.97493" lon="0.6717">
        <ele>32.8</ele>
        <time>2026-03-14T12:42:06Z</time>
      </trkpt>
      <trkpt lat="46.97501" lon="0.671">
        <ele>32.8</ele>
        <time>2026-03-14T12:42:14Z</time>
      </trkpt>
      <trkpt lat="46.97509" lon="0.67016">
        <ele>32.4</ele>
        <time>2026-03-14T12:42:24Z</time>
      </trkpt>
      <trkpt lat="46.97511" lon="0.67">
        <ele>32.2</ele>
        <time>2026-03-14T12:42:26Z</time>
      </trkpt>
      <trkpt lat="46.97521" lon="0.66918">
        <ele>32.2</ele>
        <time>2026-03-14T12:42:36Z</time>
      </trkpt>
      <trkpt lat="46.97524" lon="0.66893">
        <ele>32.2</ele>
        <time>2026-03-14T12:42:39Z</time>
      </trkpt>
      <trkpt lat="46.97538" lon="0.66811">
        <ele>32</ele>
        <time>2026-03-14T12:42:49Z</time>
      </trkpt>
      <trkpt lat="46.97558" lon="0.6673">
        <ele>31.8</ele>
        <time>2026-03-14T12:42:59Z</time>
      </trkpt>
      <trkpt lat="46.97578" lon="0.6665">
        <ele>31.8</ele>
        <time>2026-03-14T12:43:09Z</time>
      </trkpt>
      <trkpt lat="46.9758" lon="0.66642">
        <ele>31.8</ele>
        <time>2026-03-14T12:43:10Z</time>
      </trkpt>
      <trkpt lat="46.97594" lon="0.66585">
        <ele>31.8</ele>
        <time>2026-03-14T12:43:17Z</time>
      </trkpt>
      <trkpt lat="46.97602" lon="0.66553">
        <ele>31.6</ele>
        <time>2026-03-14T12:43:21Z</time>
      </trkpt>
      <trkpt lat="46.97606" lon="0.66538">
        <ele>31.6</ele>
        <time>2026-03-14T12:43:23Z</time>
      </trkpt>
      <trkpt lat="46.97622" lon="0.66475">
        <ele>31.6</ele>
        <time>2026-03-14T12:43:31Z</time>
      </trkpt>
      <trkpt lat="46.97639" lon="0.66396">
        <ele>32.2</ele>
        <time>2026-03-14T12:43:41Z</time>
      </trkpt>
      <trkpt lat="46.97648" lon="0.66331">
        <ele>32</ele>
        <time>2026-03-14T12:43:49Z</time>
      </trkpt>
      <trkpt lat="46.97658" lon="0.66267">
        <ele>31.8</ele>
        <time>2026-03-14T12:43:57Z</time>
      </trkpt>
      <trkpt lat="46.97671" lon="0.66187">
        <ele>31.6</ele>
        <time>2026-03-14T12:44:07Z</time>
      </trkpt>
      <trkpt lat="46.97674" lon="0.66172">
        <ele>31.4</ele>
        <time>2026-03-14T12:44:09Z</time>
      </trkpt>
      <trkpt lat="46.97685" lon="0.66109">
        <ele>31</ele>
        <time>2026-03-14T12:44:17Z</time>
      </trkpt>
      <trkpt lat="46.97698" lon="0.66056">
        <ele>31</ele>
        <time>2026-03-14T12:44:24Z</time>
      </trkpt>
      <trkpt lat="46.97721" lon="0.65989">
        <ele>31.2</ele>
        <time>2026-03-14T12:44:33Z</time>
      </trkpt>
      <trkpt lat="46.97746" lon="0.65925">
        <ele>30.8</ele>
        <time>2026-03-14T12:44:42Z</time>
      </trkpt>
      <trkpt lat="46.97766" lon="0.65886">
        <ele>31.2</ele>
        <time>2026-03-14T12:44:48Z</time>
      </trkpt>
      <trkpt lat="46.97794" lon="0.65825">
        <ele>31.8</ele>
        <time>2026-03-14T12:44:57Z</time>
      </trkpt>
      <trkpt lat="46.97818" lon="0.65778">
        <ele>31.8</ele>
        <time>2026-03-14T12:45:04Z</time>
      </trkpt>
      <trkpt lat="46.97837" lon="0.65725">
        <ele>32</ele>
        <time>2026-03-14T12:45:11Z</time>
      </trkpt>
      <trkpt lat="46.97862" lon="0.65661">
        <ele>31.6</ele>
        <time>2026-03-14T12:45:20Z</time>
      </trkpt>
      <trkpt lat="46.97888" lon="0.65589">
        <ele>31.2</ele>
        <time>2026-03-14T12:45:30Z</time>
      </trkpt>
      <trkpt lat="46.97914" lon="0.65514">
        <ele>30.8</ele>
        <time>2026-03-14T12:45:40Z</time>
      </trkpt>
      <trkpt lat="46.97922" lon="0.65491">
        <ele>30.6</ele>
        <time>2026-03-14T12:45:43Z</time>
      </trkpt>
      <trkpt lat="46.97934" lon="0.65461">
        <ele>30.4</ele>
        <time>2026-03-14T12:45:47Z</time>
      </trkpt>
      <trkpt lat="46.9796" lon="0.65388">
        <ele>30.2</ele>
        <time>2026-03-14T12:45:57Z</time>
      </trkpt>
      <trkpt lat="46.97963" lon="0.65381">
        <ele>30.4</ele>
        <time>2026-03-14T12:45:58Z</time>
      </trkpt>
      <trkpt lat="46.97991" lon="0.65306">
        <ele>30.4</ele>
        <time>2026-03-14T12:46:09Z</time>
      </trkpt>
      <trkpt lat="46.97994" lon="0.65299">
        <ele>30.6</ele>
        <time>2026-03-14T12:46:10Z</time>
      </trkpt>
      <trkpt lat="46.98013" lon="0.65246">
        <ele>31</ele>
        <time>2026-03-14T12:46:18Z</time>
      </trkpt>
      <trkpt lat="46.98019" lon="0.65233">
        <ele>31.2</ele>
        <time>2026-03-14T12:46:20Z</time>
      </trkpt>
      <trkpt lat="46.98034" lon="0.65192">
        <ele>31.4</ele>
        <time>2026-03-14T12:46:26Z</time>
      </trkpt>
      <trkpt lat="46.98062" lon="0.65121">
        <ele>31.4</ele>
        <time>2026-03-14T12:46:36Z</time>
      </trkpt>
      <trkpt lat="46.98085" lon="0.65065">
        <ele>31.8</ele>
        <time>2026-03-14T12:46:44Z</time>
      </trkpt>
      <trkpt lat="46.98094" lon="0.65042">
        <ele>32.2</ele>
        <time>2026-03-14T12:46:47Z</time>
      </trkpt>
      <trkpt lat="46.98119" lon="0.64981">
        <ele>32.4</ele>
        <time>2026-03-14T12:46:55Z</time>
      </trkpt>
      <trkpt lat="46.98148" lon="0.64908">
        <ele>32.6</ele>
        <time>2026-03-14T12:47:04Z</time>
      </trkpt>
      <trkpt lat="46.98155" lon="0.64892">
        <ele>32.6</ele>
        <time>2026-03-14T12:47:06Z</time>
      </trkpt>
      <trkpt lat="46.98184" lon="0.64822">
        <ele>32.6</ele>
        <time>2026-03-14T12:47:15Z</time>
      </trkpt>
      <trkpt lat="46.98187" lon="0.64814">
        <ele>32.4</ele>
        <time>2026-03-14T12:47:16Z</time>
      </trkpt>
      <trkpt lat="46.98217" lon="0.64747">
        <ele>32.2</ele>
        <time>2026-03-14T12:47:25Z</time>
      </trkpt>
      <trkpt lat="46.98252" lon="0.64676">
        <ele>32</ele>
        <time>2026-03-14T12:47:35Z</time>
      </trkpt>
      <trkpt lat="46.98288" lon="0.64608">
        <ele>31.8</ele>
        <time>2026-03-14T12:47:45Z</time>
      </trkpt>
      <trkpt lat="46.98295" lon="0.64594">
        <ele>31.8</ele>
        <time>2026-03-14T12:47:47Z</time>
      </trkpt>
      <trkpt lat="46.98326" lon="0.64533">
        <ele>31.6</ele>
        <time>2026-03-14T12:47:56Z</time>
      </trkpt>
      <trkpt lat="46.98355" lon="0.64479">
        <ele>31.2</ele>
        <time>2026-03-14T12:48:04Z</time>
      </trkpt>
      <trkpt lat="46.98362" lon="0.64464">
        <ele>31</ele>
        <time>2026-03-14T12:48:06Z</time>
      </trkpt>
      <trkpt lat="46.98386" lon="0.64403">
        <ele>30.8</ele>
        <time>2026-03-14T12:48:14Z</time>
      </trkpt>
      <trkpt lat="46.98411" lon="0.64329">
        <ele>30.6</ele>
        <time>2026-03-14T12:48:23Z</time>
      </trkpt>
      <trkpt lat="46.98414" lon="0.64321">
        <ele>30.6</ele>
        <time>2026-03-14T12:48:24Z</time>
      </trkpt>
      <trkpt lat="46.9843" lon="0.64264">
        <ele>30.6</ele>
        <time>2026-03-14T12:48:31Z</time>
      </trkpt>
      <trkpt lat="46.98434" lon="0.64237">
        <ele>30.6</ele>
        <time>2026-03-14T12:48:34Z</time>
      </trkpt>
      <trkpt lat="46.98434" lon="0.64209">
        <ele>30.8</ele>
        <time>2026-03-14T12:48:37Z</time>
      </trkpt>
      <trkpt lat="46.9843" lon="0.64142">
        <ele>30.6</ele>
        <time>2026-03-14T12:48:44Z</time>
      </trkpt>
      <trkpt lat="46.98431" lon="0.64082">
        <ele>30.2</ele>
        <time>2026-03-14T12:48:50Z</time>
      </trkpt>
      <trkpt lat="46.98444" lon="0.64027">
        <ele>30</ele>
        <time>2026-03-14T12:48:56Z</time>
      </trkpt>
      <trkpt lat="46.98468" lon="0.63949">
        <ele>29.4</ele>
        <time>2026-03-14T12:49:05Z</time>
      </trkpt>
      <trkpt lat="46.9847" lon="0.63941">
        <ele>29.4</ele>
        <time>2026-03-14T12:49:06Z</time>
      </trkpt>
      <trkpt lat="46.98472" lon="0.63932">
        <ele>29.4</ele>
        <time>2026-03-14T12:49:07Z</time>
      </trkpt>
      <trkpt lat="46.98478" lon="0.63898">
        <ele>29.4</ele>
        <time>2026-03-14T12:49:11Z</time>
      </trkpt>
      <trkpt lat="46.98479" lon="0.63859">
        <ele>29.4</ele>
        <time>2026-03-14T12:49:16Z</time>
      </trkpt>
      <trkpt lat="46.98477" lon="0.63839">
        <ele>29.8</ele>
        <time>2026-03-14T12:49:19Z</time>
      </trkpt>
      <trkpt lat="46.98476" lon="0.63827">
        <ele>30</ele>
        <time>2026-03-14T12:49:21Z</time>
      </trkpt>
      <trkpt lat="46.98475" lon="0.63822">
        <ele>30.4</ele>
        <time>2026-03-14T12:49:22Z</time>
      </trkpt>
      <trkpt lat="46.98471" lon="0.63804">
        <ele>31.2</ele>
        <time>2026-03-14T12:49:26Z</time>
      </trkpt>
      <trkpt lat="46.9847" lon="0.638">
        <ele>31.6</ele>
        <time>2026-03-14T12:49:27Z</time>
      </trkpt>
      <trkpt lat="46.98464" lon="0.63783">
        <ele>32.2</ele>
        <time>2026-03-14T12:49:31Z</time>
      </trkpt>
      <trkpt lat="46.98461" lon="0.63775">
        <ele>33</ele>
        <time>2026-03-14T12:49:33Z</time>
      </trkpt>
      <trkpt lat="46.98459" lon="0.63771">
        <ele>33.4</ele>
        <time>2026-03-14T12:49:34Z</time>
      </trkpt>
      <trkpt lat="46.98451" lon="0.63754">
        <ele>34.6</ele>
        <time>2026-03-14T12:49:39Z</time>
      </trkpt>
      <trkpt lat="46.98441" lon="0.63736">
        <ele>35.6</ele>
        <time>2026-03-14T12:49:44Z</time>
      </trkpt>
      <trkpt lat="46.98434" lon="0.63722">
        <ele>36.6</ele>
        <time>2026-03-14T12:49:48Z</time>
      </trkpt>
      <trkpt lat="46.9843" lon="0.6371">
        <ele>37.4</ele>
        <time>2026-03-14T12:49:51Z</time>
      </trkpt>
      <trkpt lat="46.98429" lon="0.63702">
        <ele>37.8</ele>
        <time>2026-03-14T12:49:53Z</time>
      </trkpt>
      <trkpt lat="46.9843" lon="0.63684">
        <ele>39.2</ele>
        <time>2026-03-14T12:49:57Z</time>
      </trkpt>
      <trkpt lat="46.98432" lon="0.63665">
        <ele>40.4</ele>
        <time>2026-03-14T12:50:01Z</time>
      </trkpt>
      <trkpt lat="46.98437" lon="0.63647">
        <ele>41.8</ele>
        <time>2026-03-14T12:50:05Z</time>
      </trkpt>
      <trkpt lat="46.98439" lon="0.63643">
        <ele>42</ele>
        <time>2026-03-14T12:50:06Z</time>
      </trkpt>
      <trkpt lat="46.98442" lon="0.63635">
        <ele>42.8</ele>
        <time>2026-03-14T12:50:08Z</time>
      </trkpt>
      <trkpt lat="46.98448" lon="0.63618">
        <ele>43.8</ele>
        <time>2026-03-14T12:50:12Z</time>
      </trkpt>
      <trkpt lat="46.9845" lon="0.63614">
        <ele>44.2</ele>
        <time>2026-03-14T12:50:13Z</time>
      </trkpt>
      <trkpt lat="46.98454" lon="0.63606">
        <ele>44.8</ele>
        <time>2026-03-14T12:50:15Z</time>
      </trkpt>
      <trkpt lat="46.98465" lon="0.63583">
        <ele>45.8</ele>
        <time>2026-03-14T12:50:21Z</time>
      </trkpt>
      <trkpt lat="46.98472" lon="0.63567">
        <ele>47</ele>
        <time>2026-03-14T12:50:25Z</time>
      </trkpt>
      <trkpt lat="46.98479" lon="0.63552">
        <ele>48</ele>
        <time>2026-03-14T12:50:29Z</time>
      </trkpt>
      <trkpt lat="46.98481" lon="0.63548">
        <ele>48.4</ele>
        <time>2026-03-14T12:50:30Z</time>
      </trkpt>
      <trkpt lat="46.98492" lon="0.63524">
        <ele>49.4</ele>
        <time>2026-03-14T12:50:36Z</time>
      </trkpt>
      <trkpt lat="46.98494" lon="0.6352">
        <ele>49.6</ele>
        <time>2026-03-14T12:50:37Z</time>
      </trkpt>
      <trkpt lat="46.98501" lon="0.63504">
        <ele>50.6</ele>
        <time>2026-03-14T12:50:41Z</time>
      </trkpt>
      <trkpt lat="46.98512" lon="0.63481">
        <ele>51.6</ele>
        <time>2026-03-14T12:50:47Z</time>
      </trkpt>
      <trkpt lat="46.98524" lon="0.63447">
        <ele>52.2</ele>
        <time>2026-03-14T12:50:55Z</time>
      </trkpt>
      <trkpt lat="46.9852" lon="0.63422">
        <ele>52.6</ele>
        <time>2026-03-14T12:51:00Z</time>
      </trkpt>
      <trkpt lat="46.98519" lon="0.63417">
        <ele>52.6</ele>
        <time>2026-03-14T12:51:01Z</time>
      </trkpt>
      <trkpt lat="46.9851" lon="0.63392">
        <ele>53</ele>
        <time>2026-03-14T12:51:06Z</time>
      </trkpt>
      <trkpt lat="46.98504" lon="0.63377">
        <ele>53</ele>
        <time>2026-03-14T12:51:09Z</time>
      </trkpt>
      <trkpt lat="46.98495" lon="0.63357">
        <ele>53.4</ele>
        <time>2026-03-14T12:51:13Z</time>
      </trkpt>
      <trkpt lat="46.98486" lon="0.63338">
        <ele>53.8</ele>
        <time>2026-03-14T12:51:17Z</time>
      </trkpt>
      <trkpt lat="46.98472" lon="0.63306">
        <ele>54.4</ele>
        <time>2026-03-14T12:51:23Z</time>
      </trkpt>
      <trkpt lat="46.98452" lon="0.63261">
        <ele>55</ele>
        <time>2026-03-14T12:51:31Z</time>
      </trkpt>
      <trkpt lat="46.98444" lon="0.63244">
        <ele>55.4</ele>
        <time>2026-03-14T12:51:34Z</time>
      </trkpt>
      <trkpt lat="46.98422" lon="0.63192">
        <ele>56</ele>
        <time>2026-03-14T12:51:43Z</time>
      </trkpt>
      <trkpt lat="46.98401" lon="0.63141">
        <ele>57</ele>
        <time>2026-03-14T12:51:52Z</time>
      </trkpt>
      <trkpt lat="46.98382" lon="0.63096">
        <ele>58</ele>
        <time>2026-03-14T12:52:00Z</time>
      </trkpt>
      <trkpt lat="46.9838" lon="0.63091">
        <ele>58</ele>
        <time>2026-03-14T12:52:01Z</time>
      </trkpt>
      <trkpt lat="46.98357" lon="0.63039">
        <ele>59</ele>
        <time>2026-03-14T12:52:10Z</time>
      </trkpt>
      <trkpt lat="46.98336" lon="0.6299">
        <ele>59.6</ele>
        <time>2026-03-14T12:52:18Z</time>
      </trkpt>
      <trkpt lat="46.98324" lon="0.62961">
        <ele>60.2</ele>
        <time>2026-03-14T12:52:23Z</time>
      </trkpt>
      <trkpt lat="46.98308" lon="0.62924">
        <ele>60.4</ele>
        <time>2026-03-14T12:52:29Z</time>
      </trkpt>
      <trkpt lat="46.98285" lon="0.62871">
        <ele>61.2</ele>
        <time>2026-03-14T12:52:38Z</time>
      </trkpt>
      <trkpt lat="46.98282" lon="0.62864">
        <ele>61.2</ele>
        <time>2026-03-14T12:52:39Z</time>
      </trkpt>
      <trkpt lat="46.98263" lon="0.62819">
        <ele>61.8</ele>
        <time>2026-03-14T12:52:47Z</time>
      </trkpt>
      <trkpt lat="46.98253" lon="0.62794">
        <ele>62.2</ele>
        <time>2026-03-14T12:52:51Z</time>
      </trkpt>
      <trkpt lat="46.98241" lon="0.62767">
        <ele>62.4</ele>
        <time>2026-03-14T12:52:55Z</time>
      </trkpt>
      <trkpt lat="46.98211" lon="0.62698">
        <ele>62.2</ele>
        <time>2026-03-14T12:53:05Z</time>
      </trkpt>
      <trkpt lat="46.98188" lon="0.62638">
        <ele>62</ele>
        <time>2026-03-14T12:53:13Z</time>
      </trkpt>
      <trkpt lat="46.98179" lon="0.6258">
        <ele>61.8</ele>
        <time>2026-03-14T12:53:20Z</time>
      </trkpt>
      <trkpt lat="46.98178" lon="0.62507">
        <ele>61.8</ele>
        <time>2026-03-14T12:53:29Z</time>
      </trkpt>
      <trkpt lat="46.98184" lon="0.62454">
        <ele>62.2</ele>
        <time>2026-03-14T12:53:36Z</time>
      </trkpt>
      <trkpt lat="46.98193" lon="0.62417">
        <ele>62.6</ele>
        <time>2026-03-14T12:53:41Z</time>
      </trkpt>
      <trkpt lat="46.98201" lon="0.62387">
        <ele>63</ele>
        <time>2026-03-14T12:53:45Z</time>
      </trkpt>
      <trkpt lat="46.98219" lon="0.62316">
        <ele>63.2</ele>
        <time>2026-03-14T12:53:54Z</time>
      </trkpt>
      <trkpt lat="46.9822" lon="0.6231">
        <ele>63.2</ele>
        <time>2026-03-14T12:53:55Z</time>
      </trkpt>
      <trkpt lat="46.98235" lon="0.62255">
        <ele>64</ele>
        <time>2026-03-14T12:54:03Z</time>
      </trkpt>
      <trkpt lat="46.98244" lon="0.62215">
        <ele>64.6</ele>
        <time>2026-03-14T12:54:09Z</time>
      </trkpt>
      <trkpt lat="46.98246" lon="0.62209">
        <ele>64.6</ele>
        <time>2026-03-14T12:54:10Z</time>
      </trkpt>
      <trkpt lat="46.98255" lon="0.62172">
        <ele>65.6</ele>
        <time>2026-03-14T12:54:16Z</time>
      </trkpt>
      <trkpt lat="46.98258" lon="0.62158">
        <ele>65.8</ele>
        <time>2026-03-14T12:54:18Z</time>
      </trkpt>
      <trkpt lat="46.98265" lon="0.62126">
        <ele>66.4</ele>
        <time>2026-03-14T12:54:23Z</time>
      </trkpt>
      <trkpt lat="46.9827" lon="0.6211">
        <ele>66.6</ele>
        <time>2026-03-14T12:54:26Z</time>
      </trkpt>
      <trkpt lat="46.98287" lon="0.62039">
        <ele>67.6</ele>
        <time>2026-03-14T12:54:37Z</time>
      </trkpt>
      <trkpt lat="46.98289" lon="0.62032">
        <ele>67.8</ele>
        <time>2026-03-14T12:54:38Z</time>
      </trkpt>
      <trkpt lat="46.98304" lon="0.61989">
        <ele>68.2</ele>
        <time>2026-03-14T12:54:45Z</time>
      </trkpt>
      <trkpt lat="46.98309" lon="0.61974">
        <ele>68.2</ele>
        <time>2026-03-14T12:54:47Z</time>
      </trkpt>
      <trkpt lat="46.98335" lon="0.61909">
        <ele>68.2</ele>
        <time>2026-03-14T12:54:57Z</time>
      </trkpt>
      <trkpt lat="46.98364" lon="0.61836">
        <ele>68</ele>
        <time>2026-03-14T12:55:07Z</time>
      </trkpt>
      <trkpt lat="46.9839" lon="0.61764">
        <ele>67.8</ele>
        <time>2026-03-14T12:55:16Z</time>
      </trkpt>
      <trkpt lat="46.98393" lon="0.61747">
        <ele>67.6</ele>
        <time>2026-03-14T12:55:18Z</time>
      </trkpt>
      <trkpt lat="46.98406" lon="0.6167">
        <ele>67.4</ele>
        <time>2026-03-14T12:55:27Z</time>
      </trkpt>
      <trkpt lat="46.98408" lon="0.61661">
        <ele>67.4</ele>
        <time>2026-03-14T12:55:28Z</time>
      </trkpt>
      <trkpt lat="46.98412" lon="0.61631">
        <ele>67.6</ele>
        <time>2026-03-14T12:55:32Z</time>
      </trkpt>
      <trkpt lat="46.98413" lon="0.61626">
        <ele>67.6</ele>
        <time>2026-03-14T12:55:33Z</time>
      </trkpt>
      <trkpt lat="46.98412" lon="0.61621">
        <ele>67.8</ele>
        <time>2026-03-14T12:55:34Z</time>
      </trkpt>
      <trkpt lat="46.98406" lon="0.616">
        <ele>68.4</ele>
        <time>2026-03-14T12:55:37Z</time>
      </trkpt>
      <trkpt lat="46.98403" lon="0.61595">
        <ele>68.6</ele>
        <time>2026-03-14T12:55:38Z</time>
      </trkpt>
      <trkpt lat="46.98395" lon="0.61577">
        <ele>68.8</ele>
        <time>2026-03-14T12:55:41Z</time>
      </trkpt>
      <trkpt lat="46.98384" lon="0.6155">
        <ele>69.4</ele>
        <time>2026-03-14T12:55:46Z</time>
      </trkpt>
      <trkpt lat="46.9838" lon="0.6154">
        <ele>70.2</ele>
        <time>2026-03-14T12:55:48Z</time>
      </trkpt>
      <trkpt lat="46.98368" lon="0.6151">
        <ele>71</ele>
        <time>2026-03-14T12:55:54Z</time>
      </trkpt>
      <trkpt lat="46.98359" lon="0.61489">
        <ele>71.2</ele>
        <time>2026-03-14T12:55:58Z</time>
      </trkpt>
      <trkpt lat="46.98348" lon="0.61464">
        <ele>71.6</ele>
        <time>2026-03-14T12:56:03Z</time>
      </trkpt>
      <trkpt lat="46.98339" lon="0.61444">
        <ele>72.6</ele>
        <time>2026-03-14T12:56:07Z</time>
      </trkpt>
      <trkpt lat="46.9833" lon="0.61424">
        <ele>73.4</ele>
        <time>2026-03-14T12:56:11Z</time>
      </trkpt>
      <trkpt lat="46.98328" lon="0.61419">
        <ele>73.6</ele>
        <time>2026-03-14T12:56:12Z</time>
      </trkpt>
      <trkpt lat="46.9831" lon="0.6137">
        <ele>74.4</ele>
        <time>2026-03-14T12:56:21Z</time>
      </trkpt>
      <trkpt lat="46.98306" lon="0.61359">
        <ele>74.8</ele>
        <time>2026-03-14T12:56:23Z</time>
      </trkpt>
      <trkpt lat="46.98293" lon="0.61314">
        <ele>75.6</ele>
        <time>2026-03-14T12:56:30Z</time>
      </trkpt>
      <trkpt lat="46.98277" lon="0.61259">
        <ele>75.8</ele>
        <time>2026-03-14T12:56:38Z</time>
      </trkpt>
      <trkpt lat="46.98275" lon="0.61252">
        <ele>75.8</ele>
        <time>2026-03-14T12:56:39Z</time>
      </trkpt>
      <trkpt lat="46.98268" lon="0.61238">
        <ele>75.8</ele>
        <time>2026-03-14T12:56:41Z</time>
      </trkpt>
      <trkpt lat="46.9826" lon="0.61226">
        <ele>75.6</ele>
        <time>2026-03-14T12:56:43Z</time>
      </trkpt>
      <trkpt lat="46.98232" lon="0.61191">
        <ele>75</ele>
        <time>2026-03-14T12:56:49Z</time>
      </trkpt>
      <trkpt lat="46.982" lon="0.61154">
        <ele>74.6</ele>
        <time>2026-03-14T12:56:55Z</time>
      </trkpt>
      <trkpt lat="46.98194" lon="0.61148">
        <ele>74.4</ele>
        <time>2026-03-14T12:56:56Z</time>
      </trkpt>
      <trkpt lat="46.98171" lon="0.61122">
        <ele>73.6</ele>
        <time>2026-03-14T12:57:00Z</time>
      </trkpt>
      <trkpt lat="46.98152" lon="0.61101">
        <ele>72</ele>
        <time>2026-03-14T12:57:03Z</time>
      </trkpt>
      <trkpt lat="46.98146" lon="0.61093">
        <ele>71.8</ele>
        <time>2026-03-14T12:57:04Z</time>
      </trkpt>
      <trkpt lat="46.98132" lon="0.61079">
        <ele>71</ele>
        <time>2026-03-14T12:57:06Z</time>
      </trkpt>
      <trkpt lat="46.98119" lon="0.61062">
        <ele>70</ele>
        <time>2026-03-14T12:57:08Z</time>
      </trkpt>
      <trkpt lat="46.98107" lon="0.61043">
        <ele>69.2</ele>
        <time>2026-03-14T12:57:10Z</time>
      </trkpt>
      <trkpt lat="46.98101" lon="0.61032">
        <ele>68.8</ele>
        <time>2026-03-14T12:57:11Z</time>
      </trkpt>
      <trkpt lat="46.98085" lon="0.60998">
        <ele>67.8</ele>
        <time>2026-03-14T12:57:14Z</time>
      </trkpt>
      <trkpt lat="46.98068" lon="0.60961">
        <ele>65.6</ele>
        <time>2026-03-14T12:57:17Z</time>
      </trkpt>
      <trkpt lat="46.98056" lon="0.60937">
        <ele>64.2</ele>
        <time>2026-03-14T12:57:19Z</time>
      </trkpt>
      <trkpt lat="46.9804" lon="0.60899">
        <ele>62.6</ele>
        <time>2026-03-14T12:57:22Z</time>
      </trkpt>
      <trkpt lat="46.98028" lon="0.60874">
        <ele>61.6</ele>
        <time>2026-03-14T12:57:24Z</time>
      </trkpt>
      <trkpt lat="46.98017" lon="0.60849">
        <ele>59.8</ele>
        <time>2026-03-14T12:57:26Z</time>
      </trkpt>
      <trkpt lat="46.98011" lon="0.60837">
        <ele>58.8</ele>
        <time>2026-03-14T12:57:27Z</time>
      </trkpt>
      <trkpt lat="46.98005" lon="0.60824">
        <ele>58.2</ele>
        <time>2026-03-14T12:57:28Z</time>
      </trkpt>
      <trkpt lat="46.97993" lon="0.60799">
        <ele>57</ele>
        <time>2026-03-14T12:57:30Z</time>
      </trkpt>
      <trkpt lat="46.97981" lon="0.60773">
        <ele>55</ele>
        <time>2026-03-14T12:57:32Z</time>
      </trkpt>
      <trkpt lat="46.97969" lon="0.60747">
        <ele>53.8</ele>
        <time>2026-03-14T12:57:34Z</time>
      </trkpt>
      <trkpt lat="46.97957" lon="0.60722">
        <ele>52.6</ele>
        <time>2026-03-14T12:57:36Z</time>
      </trkpt>
      <trkpt lat="46.97951" lon="0.60708">
        <ele>52.2</ele>
        <time>2026-03-14T12:57:37Z</time>
      </trkpt>
      <trkpt lat="46.97945" lon="0.60695">
        <ele>51.4</ele>
        <time>2026-03-14T12:57:38Z</time>
      </trkpt>
      <trkpt lat="46.97926" lon="0.60655">
        <ele>49.8</ele>
        <time>2026-03-14T12:57:41Z</time>
      </trkpt>
      <trkpt lat="46.97913" lon="0.60627">
        <ele>48.2</ele>
        <time>2026-03-14T12:57:43Z</time>
      </trkpt>
      <trkpt lat="46.97908" lon="0.60612">
        <ele>47</ele>
        <time>2026-03-14T12:57:44Z</time>
      </trkpt>
      <trkpt lat="46.97903" lon="0.60597">
        <ele>46.4</ele>
        <time>2026-03-14T12:57:45Z</time>
      </trkpt>
      <trkpt lat="46.97899" lon="0.60582">
        <ele>45.4</ele>
        <time>2026-03-14T12:57:46Z</time>
      </trkpt>
      <trkpt lat="46.97892" lon="0.60552">
        <ele>44.6</ele>
        <time>2026-03-14T12:57:48Z</time>
      </trkpt>
      <trkpt lat="46.97887" lon="0.60524">
        <ele>43.4</ele>
        <time>2026-03-14T12:57:50Z</time>
      </trkpt>
      <trkpt lat="46.97879" lon="0.60486">
        <ele>41.8</ele>
        <time>2026-03-14T12:57:53Z</time>
      </trkpt>
      <trkpt lat="46.97866" lon="0.60424">
        <ele>40.8</ele>
        <time>2026-03-14T12:57:58Z</time>
      </trkpt>
      <trkpt lat="46.97862" lon="0.60404">
        <ele>39.8</ele>
        <time>2026-03-14T12:58:00Z</time>
      </trkpt>
      <trkpt lat="46.97861" lon="0.60396">
        <ele>39.2</ele>
        <time>2026-03-14T12:58:01Z</time>
      </trkpt>
      <trkpt lat="46.97859" lon="0.60383">
        <ele>37.4</ele>
        <time>2026-03-14T12:58:03Z</time>
      </trkpt>
      <trkpt lat="46.97858" lon="0.6038">
        <ele>37</ele>
        <time>2026-03-14T12:58:04Z</time>
      </trkpt>
      <trkpt lat="46.97858" lon="0.60377">
        <ele>36.4</ele>
        <time>2026-03-14T12:58:05Z</time>
      </trkpt>
      <trkpt lat="46.97857" lon="0.60374">
        <ele>35</ele>
        <time>2026-03-14T12:58:08Z</time>
      </trkpt>
      <trkpt lat="46.97857" lon="0.60374">
        <ele>34.2</ele>
        <time>2026-03-14T12:58:10Z</time>
      </trkpt>
      <trkpt lat="46.97856" lon="0.60367">
        <ele>33.2</ele>
        <time>2026-03-14T12:58:13Z</time>
      </trkpt>
      <trkpt lat="46.97855" lon="0.60364">
        <ele>33</ele>
        <time>2026-03-14T12:58:14Z</time>
      </trkpt>
      <trkpt lat="46.97853" lon="0.60362">
        <ele>32.8</ele>
        <time>2026-03-14T12:58:15Z</time>
      </trkpt>
      <trkpt lat="46.97844" lon="0.6036">
        <ele>32.8</ele>
        <time>2026-03-14T12:58:18Z</time>
      </trkpt>
      <trkpt lat="46.97824" lon="0.60366">
        <ele>33</ele>
        <time>2026-03-14T12:58:23Z</time>
      </trkpt>
      <trkpt lat="46.97814" lon="0.60369">
        <ele>33.4</ele>
        <time>2026-03-14T12:58:25Z</time>
      </trkpt>
      <trkpt lat="46.97793" lon="0.60378">
        <ele>33.4</ele>
        <time>2026-03-14T12:58:29Z</time>
      </trkpt>
      <trkpt lat="46.97748" lon="0.60393">
        <ele>34.2</ele>
        <time>2026-03-14T12:58:37Z</time>
      </trkpt>
      <trkpt lat="46.97715" lon="0.60406">
        <ele>35</ele>
        <time>2026-03-14T12:58:43Z</time>
      </trkpt>
      <trkpt lat="46.97663" lon="0.60428">
        <ele>34.8</ele>
        <time>2026-03-14T12:58:52Z</time>
      </trkpt>
      <trkpt lat="46.97657" lon="0.6043">
        <ele>34.8</ele>
        <time>2026-03-14T12:58:53Z</time>
      </trkpt>
      <trkpt lat="46.97604" lon="0.60449">
        <ele>34.4</ele>
        <time>2026-03-14T12:59:02Z</time>
      </trkpt>
      <trkpt lat="46.9755" lon="0.60469">
        <ele>33.8</ele>
        <time>2026-03-14T12:59:11Z</time>
      </trkpt>
      <trkpt lat="46.97496" lon="0.60491">
        <ele>33.6</ele>
        <time>2026-03-14T12:59:20Z</time>
      </trkpt>
      <trkpt lat="46.97489" lon="0.60493">
        <ele>33.6</ele>
        <time>2026-03-14T12:59:21Z</time>
      </trkpt>
      <trkpt lat="46.97483" lon="0.60495">
        <ele>33.6</ele>
        <time>2026-03-14T12:59:22Z</time>
      </trkpt>
      <trkpt lat="46.9743" lon="0.60515">
        <ele>33.6</ele>
        <time>2026-03-14T12:59:31Z</time>
      </trkpt>
      <trkpt lat="46.97412" lon="0.60521">
        <ele>33.8</ele>
        <time>2026-03-14T12:59:34Z</time>
      </trkpt>
      <trkpt lat="46.97358" lon="0.60543">
        <ele>33.4</ele>
        <time>2026-03-14T12:59:43Z</time>
      </trkpt>
      <trkpt lat="46.97346" lon="0.60548">
        <ele>33.2</ele>
        <time>2026-03-14T12:59:45Z</time>
      </trkpt>
      <trkpt lat="46.97328" lon="0.60555">
        <ele>33.2</ele>
        <time>2026-03-14T12:59:48Z</time>
      </trkpt>
      <trkpt lat="46.97291" lon="0.60569">
        <ele>32.8</ele>
        <time>2026-03-14T12:59:54Z</time>
      </trkpt>
      <trkpt lat="46.97251" lon="0.60583">
        <ele>32.6</ele>
        <time>2026-03-14T13:00:01Z</time>
      </trkpt>
      <trkpt lat="46.97194" lon="0.60604">
        <ele>32.6</ele>
        <time>2026-03-14T13:00:11Z</time>
      </trkpt>
      <trkpt lat="46.97188" lon="0.60607">
        <ele>32.6</ele>
        <time>2026-03-14T13:00:12Z</time>
      </trkpt>
      <trkpt lat="46.97136" lon="0.60627">
        <ele>32.4</ele>
        <time>2026-03-14T13:00:21Z</time>
      </trkpt>
      <trkpt lat="46.97094" lon="0.60642">
        <ele>32.4</ele>
        <time>2026-03-14T13:00:29Z</time>
      </trkpt>
      <trkpt lat="46.97081" lon="0.60646">
        <ele>32.4</ele>
        <time>2026-03-14T13:00:32Z</time>
      </trkpt>
      <trkpt lat="46.97078" lon="0.60644">
        <ele>32.4</ele>
        <time>2026-03-14T13:00:33Z</time>
      </trkpt>
      <trkpt lat="46.97077" lon="0.60641">
        <ele>32.6</ele>
        <time>2026-03-14T13:00:34Z</time>
      </trkpt>
      <trkpt lat="46.97075" lon="0.60631">
        <ele>32.6</ele>
        <time>2026-03-14T13:00:36Z</time>
      </trkpt>
      <trkpt lat="46.97074" lon="0.60603">
        <ele>32.6</ele>
        <time>2026-03-14T13:00:41Z</time>
      </trkpt>
      <trkpt lat="46.9707" lon="0.6056">
        <ele>32.4</ele>
        <time>2026-03-14T13:00:47Z</time>
      </trkpt>
      <trkpt lat="46.97064" lon="0.60497">
        <ele>32.6</ele>
        <time>2026-03-14T13:00:55Z</time>
      </trkpt>
      <trkpt lat="46.9706" lon="0.6044">
        <ele>33.4</ele>
        <time>2026-03-14T13:01:02Z</time>
      </trkpt>
      <trkpt lat="46.97059" lon="0.60432">
        <ele>33.2</ele>
        <time>2026-03-14T13:01:03Z</time>
      </trkpt>
      <trkpt lat="46.97055" lon="0.60386">
        <ele>33.4</ele>
        <time>2026-03-14T13:01:09Z</time>
      </trkpt>
      <trkpt lat="46.97055" lon="0.60379">
        <ele>33.2</ele>
        <time>2026-03-14T13:01:10Z</time>
      </trkpt>
      <trkpt lat="46.97055" lon="0.6036">
        <ele>32.8</ele>
        <time>2026-03-14T13:01:14Z</time>
      </trkpt>
      <trkpt lat="46.97052" lon="0.60338">
        <ele>32.6</ele>
        <time>2026-03-14T13:01:18Z</time>
      </trkpt>
      <trkpt lat="46.97049" lon="0.60302">
        <ele>32.2</ele>
        <time>2026-03-14T13:01:22Z</time>
      </trkpt>
      <trkpt lat="46.97044" lon="0.60229">
        <ele>31.4</ele>
        <time>2026-03-14T13:01:30Z</time>
      </trkpt>
      <trkpt lat="46.97043" lon="0.60222">
        <ele>31.4</ele>
        <time>2026-03-14T13:01:31Z</time>
      </trkpt>
      <trkpt lat="46.97041" lon="0.60193">
        <ele>31.8</ele>
        <time>2026-03-14T13:01:35Z</time>
      </trkpt>
      <trkpt lat="46.97036" lon="0.60132">
        <ele>32.4</ele>
        <time>2026-03-14T13:01:43Z</time>
      </trkpt>
      <trkpt lat="46.97031" lon="0.60083">
        <ele>32.4</ele>
        <time>2026-03-14T13:01:49Z</time>
      </trkpt>
      <trkpt lat="46.97028" lon="0.60047">
        <ele>32.2</ele>
        <time>2026-03-14T13:01:53Z</time>
      </trkpt>
      <trkpt lat="46.97021" lon="0.59994">
        <ele>31.6</ele>
        <time>2026-03-14T13:01:59Z</time>
      </trkpt>
      <trkpt lat="46.96999" lon="0.59926">
        <ele>31.4</ele>
        <time>2026-03-14T13:02:08Z</time>
      </trkpt>
      <trkpt lat="46.96972" lon="0.59847">
        <ele>31</ele>
        <time>2026-03-14T13:02:18Z</time>
      </trkpt>
      <trkpt lat="46.96953" lon="0.5979">
        <ele>31</ele>
        <time>2026-03-14T13:02:25Z</time>
      </trkpt>
      <trkpt lat="46.9694" lon="0.59752">
        <ele>31.2</ele>
        <time>2026-03-14T13:02:30Z</time>
      </trkpt>
      <trkpt lat="46.96927" lon="0.59715">
        <ele>31.6</ele>
        <time>2026-03-14T13:02:35Z</time>
      </trkpt>
      <trkpt lat="46.96907" lon="0.59656">
        <ele>31.8</ele>
        <time>2026-03-14T13:02:43Z</time>
      </trkpt>
      <trkpt lat="46.96886" lon="0.59597">
        <ele>32.2</ele>
        <time>2026-03-14T13:02:51Z</time>
      </trkpt>
      <trkpt lat="46.96881" lon="0.59582">
        <ele>32.6</ele>
        <time>2026-03-14T13:02:53Z</time>
      </trkpt>
      <trkpt lat="46.96862" lon="0.59538">
        <ele>33.6</ele>
        <time>2026-03-14T13:02:59Z</time>
      </trkpt>
      <trkpt lat="46.96854" lon="0.59525">
        <ele>33.6</ele>
        <time>2026-03-14T13:03:01Z</time>
      </trkpt>
      <trkpt lat="46.9683" lon="0.59488">
        <ele>34</ele>
        <time>2026-03-14T13:03:07Z</time>
      </trkpt>
      <trkpt lat="46.96796" lon="0.59436">
        <ele>33.8</ele>
        <time>2026-03-14T13:03:15Z</time>
      </trkpt>
      <trkpt lat="46.96779" lon="0.59396">
        <ele>33.6</ele>
        <time>2026-03-14T13:03:20Z</time>
      </trkpt>
      <trkpt lat="46.96776" lon="0.59387">
        <ele>33.6</ele>
        <time>2026-03-14T13:03:21Z</time>
      </trkpt>
      <trkpt lat="46.96761" lon="0.59345">
        <ele>33</ele>
        <time>2026-03-14T13:03:26Z</time>
      </trkpt>
      <trkpt lat="46.96756" lon="0.59328">
        <ele>32.8</ele>
        <time>2026-03-14T13:03:28Z</time>
      </trkpt>
      <trkpt lat="46.9674" lon="0.59278">
        <ele>32.6</ele>
        <time>2026-03-14T13:03:34Z</time>
      </trkpt>
      <trkpt lat="46.96715" lon="0.592">
        <ele>32.2</ele>
        <time>2026-03-14T13:03:43Z</time>
      </trkpt>
      <trkpt lat="46.96707" lon="0.59173">
        <ele>32.2</ele>
        <time>2026-03-14T13:03:46Z</time>
      </trkpt>
      <trkpt lat="46.96683" lon="0.59099">
        <ele>32</ele>
        <time>2026-03-14T13:03:54Z</time>
      </trkpt>
      <trkpt lat="46.9668" lon="0.5909">
        <ele>32</ele>
        <time>2026-03-14T13:03:55Z</time>
      </trkpt>
      <trkpt lat="46.96675" lon="0.59071">
        <ele>31.8</ele>
        <time>2026-03-14T13:03:57Z</time>
      </trkpt>
      <trkpt lat="46.96658" lon="0.59018">
        <ele>31.4</ele>
        <time>2026-03-14T13:04:03Z</time>
      </trkpt>
      <trkpt lat="46.9664" lon="0.58934">
        <ele>31.2</ele>
        <time>2026-03-14T13:04:12Z</time>
      </trkpt>
      <trkpt lat="46.96634" lon="0.58905">
        <ele>31.2</ele>
        <time>2026-03-14T13:04:15Z</time>
      </trkpt>
      <trkpt lat="46.96622" lon="0.58847">
        <ele>31</ele>
        <time>2026-03-14T13:04:21Z</time>
      </trkpt>
      <trkpt lat="46.96619" lon="0.58819">
        <ele>30.8</ele>
        <time>2026-03-14T13:04:24Z</time>
      </trkpt>
      <trkpt lat="46.9662" lon="0.58811">
        <ele>30.8</ele>
        <time>2026-03-14T13:04:25Z</time>
      </trkpt>
      <trkpt lat="46.96621" lon="0.58802">
        <ele>30.8</ele>
        <time>2026-03-14T13:04:26Z</time>
      </trkpt>
      <trkpt lat="46.96623" lon="0.58793">
        <ele>30.6</ele>
        <time>2026-03-14T13:04:27Z</time>
      </trkpt>
      <trkpt lat="46.96627" lon="0.58782">
        <ele>30.6</ele>
        <time>2026-03-14T13:04:29Z</time>
      </trkpt>
      <trkpt lat="46.96635" lon="0.58758">
        <ele>30.4</ele>
        <time>2026-03-14T13:04:34Z</time>
      </trkpt>
      <trkpt lat="46.9664" lon="0.58738">
        <ele>30.4</ele>
        <time>2026-03-14T13:04:38Z</time>
      </trkpt>
      <trkpt lat="46.9664" lon="0.58703">
        <ele>30.6</ele>
        <time>2026-03-14T13:04:43Z</time>
      </trkpt>
      <trkpt lat="46.96632" lon="0.58655">
        <ele>31</ele>
        <time>2026-03-14T13:04:49Z</time>
      </trkpt>
      <trkpt lat="46.96616" lon="0.5858">
        <ele>31.8</ele>
        <time>2026-03-14T13:04:59Z</time>
      </trkpt>
      <trkpt lat="46.96605" lon="0.58538">
        <ele>32.8</ele>
        <time>2026-03-14T13:05:06Z</time>
      </trkpt>
      <trkpt lat="46.96598" lon="0.58511">
        <ele>34</ele>
        <time>2026-03-14T13:05:11Z</time>
      </trkpt>
      <trkpt lat="46.96595" lon="0.58494">
        <ele>34.6</ele>
        <time>2026-03-14T13:05:14Z</time>
      </trkpt>
      <trkpt lat="46.96592" lon="0.58483">
        <ele>35</ele>
        <time>2026-03-14T13:05:16Z</time>
      </trkpt>
      <trkpt lat="46.96587" lon="0.58452">
        <ele>36.2</ele>
        <time>2026-03-14T13:05:21Z</time>
      </trkpt>
      <trkpt lat="46.96584" lon="0.5844">
        <ele>36.6</ele>
        <time>2026-03-14T13:05:23Z</time>
      </trkpt>
      <trkpt lat="46.96577" lon="0.58401">
        <ele>37.4</ele>
        <time>2026-03-14T13:05:29Z</time>
      </trkpt>
      <trkpt lat="46.96571" lon="0.5837">
        <ele>38.2</ele>
        <time>2026-03-14T13:05:34Z</time>
      </trkpt>
      <trkpt lat="46.9657" lon="0.58364">
        <ele>38.4</ele>
        <time>2026-03-14T13:05:35Z</time>
      </trkpt>
      <trkpt lat="46.96563" lon="0.58336">
        <ele>39.4</ele>
        <time>2026-03-14T13:05:40Z</time>
      </trkpt>
      <trkpt lat="46.96559" lon="0.58312">
        <ele>40</ele>
        <time>2026-03-14T13:05:44Z</time>
      </trkpt>
      <trkpt lat="46.96556" lon="0.583">
        <ele>40.4</ele>
        <time>2026-03-14T13:05:46Z</time>
      </trkpt>
      <trkpt lat="46.96555" lon="0.58293">
        <ele>40.6</ele>
        <time>2026-03-14T13:05:47Z</time>
      </trkpt>
      <trkpt lat="46.9655" lon="0.58268">
        <ele>41.2</ele>
        <time>2026-03-14T13:05:51Z</time>
      </trkpt>
      <trkpt lat="46.9654" lon="0.58226">
        <ele>41.6</ele>
        <time>2026-03-14T13:05:57Z</time>
      </trkpt>
      <trkpt lat="46.96524" lon="0.58171">
        <ele>42.2</ele>
        <time>2026-03-14T13:06:05Z</time>
      </trkpt>
      <trkpt lat="46.96518" lon="0.58151">
        <ele>42.6</ele>
        <time>2026-03-14T13:06:08Z</time>
      </trkpt>
      <trkpt lat="46.96513" lon="0.58139">
        <ele>43</ele>
        <time>2026-03-14T13:06:10Z</time>
      </trkpt>
      <trkpt lat="46.96509" lon="0.58128">
        <ele>43.4</ele>
        <time>2026-03-14T13:06:12Z</time>
      </trkpt>
      <trkpt lat="46.96503" lon="0.58118">
        <ele>43.4</ele>
        <time>2026-03-14T13:06:14Z</time>
      </trkpt>
      <trkpt lat="46.96498" lon="0.58108">
        <ele>44</ele>
        <time>2026-03-14T13:06:16Z</time>
      </trkpt>
      <trkpt lat="46.96496" lon="0.58104">
        <ele>44.2</ele>
        <time>2026-03-14T13:06:17Z</time>
      </trkpt>
      <trkpt lat="46.96493" lon="0.58099">
        <ele>44.2</ele>
        <time>2026-03-14T13:06:18Z</time>
      </trkpt>
      <trkpt lat="46.96487" lon="0.58082">
        <ele>45.2</ele>
        <time>2026-03-14T13:06:21Z</time>
      </trkpt>
      <trkpt lat="46.96477" lon="0.58061">
        <ele>45.8</ele>
        <time>2026-03-14T13:06:25Z</time>
      </trkpt>
      <trkpt lat="46.96467" lon="0.5803">
        <ele>46.2</ele>
        <time>2026-03-14T13:06:30Z</time>
      </trkpt>
      <trkpt lat="46.96462" lon="0.5801">
        <ele>46.4</ele>
        <time>2026-03-14T13:06:33Z</time>
      </trkpt>
      <trkpt lat="46.96453" lon="0.57972">
        <ele>47.4</ele>
        <time>2026-03-14T13:06:39Z</time>
      </trkpt>
      <trkpt lat="46.96449" lon="0.57953">
        <ele>47.6</ele>
        <time>2026-03-14T13:06:42Z</time>
      </trkpt>
      <trkpt lat="46.9644" lon="0.57912">
        <ele>48.4</ele>
        <time>2026-03-14T13:06:49Z</time>
      </trkpt>
      <trkpt lat="46.96439" lon="0.57907">
        <ele>48.6</ele>
        <time>2026-03-14T13:06:50Z</time>
      </trkpt>
      <trkpt lat="46.96434" lon="0.57889">
        <ele>49.2</ele>
        <time>2026-03-14T13:06:53Z</time>
      </trkpt>
      <trkpt lat="46.96433" lon="0.57883">
        <ele>49.4</ele>
        <time>2026-03-14T13:06:54Z</time>
      </trkpt>
      <trkpt lat="46.96431" lon="0.57871">
        <ele>49.8</ele>
        <time>2026-03-14T13:06:56Z</time>
      </trkpt>
      <trkpt lat="46.9643" lon="0.57859">
        <ele>50.2</ele>
        <time>2026-03-14T13:06:58Z</time>
      </trkpt>
      <trkpt lat="46.96429" lon="0.57846">
        <ele>50.6</ele>
        <time>2026-03-14T13:07:00Z</time>
      </trkpt>
      <trkpt lat="46.96427" lon="0.57828">
        <ele>51.2</ele>
        <time>2026-03-14T13:07:03Z</time>
      </trkpt>
      <trkpt lat="46.96426" lon="0.57823">
        <ele>51.4</ele>
        <time>2026-03-14T13:07:04Z</time>
      </trkpt>
      <trkpt lat="46.96423" lon="0.57814">
        <ele>51.8</ele>
        <time>2026-03-14T13:07:06Z</time>
      </trkpt>
      <trkpt lat="46.9642" lon="0.57811">
        <ele>52</ele>
        <time>2026-03-14T13:07:07Z</time>
      </trkpt>
      <trkpt lat="46.96406" lon="0.57795">
        <ele>53</ele>
        <time>2026-03-14T13:07:11Z</time>
      </trkpt>
      <trkpt lat="46.96398" lon="0.57787">
        <ele>53.2</ele>
        <time>2026-03-14T13:07:13Z</time>
      </trkpt>
      <trkpt lat="46.96394" lon="0.57783">
        <ele>53.2</ele>
        <time>2026-03-14T13:07:14Z</time>
      </trkpt>
      <trkpt lat="46.96386" lon="0.57773">
        <ele>53.2</ele>
        <time>2026-03-14T13:07:16Z</time>
      </trkpt>
      <trkpt lat="46.96381" lon="0.5776">
        <ele>53.2</ele>
        <time>2026-03-14T13:07:18Z</time>
      </trkpt>
      <trkpt lat="46.9638" lon="0.57752">
        <ele>53.4</ele>
        <time>2026-03-14T13:07:19Z</time>
      </trkpt>
      <trkpt lat="46.96375" lon="0.577">
        <ele>53.4</ele>
        <time>2026-03-14T13:07:26Z</time>
      </trkpt>
      <trkpt lat="46.96375" lon="0.57686">
        <ele>53.8</ele>
        <time>2026-03-14T13:07:28Z</time>
      </trkpt>
      <trkpt lat="46.96375" lon="0.57673">
        <ele>53.8</ele>
        <time>2026-03-14T13:07:30Z</time>
      </trkpt>
      <trkpt lat="46.96375" lon="0.57662">
        <ele>54</ele>
        <time>2026-03-14T13:07:32Z</time>
      </trkpt>
      <trkpt lat="46.96375" lon="0.57648">
        <ele>54.2</ele>
        <time>2026-03-14T13:07:36Z</time>
      </trkpt>
      <trkpt lat="46.96374" lon="0.57647">
        <ele>54.2</ele>
        <time>2026-03-14T13:07:38Z</time>
      </trkpt>
      <trkpt lat="46.96374" lon="0.57649">
        <ele>54.2</ele>
        <time>2026-03-14T13:07:39Z</time>
      </trkpt>
      <trkpt lat="46.96374" lon="0.57662">
        <ele>54.2</ele>
        <time>2026-03-14T13:07:44Z</time>
      </trkpt>
      <trkpt lat="46.96374" lon="0.57662">
        <ele>54</ele>
        <time>2026-03-14T13:07:45Z</time>
      </trkpt>
      <trkpt lat="46.96374" lon="0.57662">
        <ele>54</ele>
        <time>2026-03-14T13:07:47Z</time>
      </trkpt>
      <trkpt lat="46.96374" lon="0.57667">
        <ele>54</ele>
        <time>2026-03-14T13:07:51Z</time>
      </trkpt>
      <trkpt lat="46.96374" lon="0.57671">
        <ele>54</ele>
        <time>2026-03-14T13:07:53Z</time>
      </trkpt>
      <trkpt lat="46.96374" lon="0.57674">
        <ele>54</ele>
        <time>2026-03-14T13:07:54Z</time>
      </trkpt>
      <trkpt lat="46.96368" lon="0.57679">
        <ele>54</ele>
        <time>2026-03-14T13:07:58Z</time>
      </trkpt>
      <trkpt lat="46.96367" lon="0.5768">
        <ele>53.8</ele>
        <time>2026-03-14T13:07:59Z</time>
      </trkpt>
      <trkpt lat="46.96365" lon="0.57681">
        <ele>53.6</ele>
        <time>2026-03-14T13:08:03Z</time>
      </trkpt>
      <trkpt lat="46.96373" lon="0.57681">
        <ele>54.4</ele>
        <time>2026-03-14T13:33:54Z</time>
      </trkpt>
      <trkpt lat="46.96374" lon="0.57655">
        <ele>54.6</ele>
        <time>2026-03-14T13:33:59Z</time>
      </trkpt>
      <trkpt lat="46.96374" lon="0.57642">
        <ele>54.6</ele>
        <time>2026-03-14T13:34:01Z</time>
      </trkpt>
      <trkpt lat="46.96374" lon="0.5763">
        <ele>54.8</ele>
        <time>2026-03-14T13:34:03Z</time>
      </trkpt>
      <trkpt lat="46.9637" lon="0.57615">
        <ele>55</ele>
        <time>2026-03-14T13:34:05Z</time>
      </trkpt>
      <trkpt lat="46.96369" lon="0.57608">
        <ele>54.8</ele>
        <time>2026-03-14T13:34:07Z</time>
      </trkpt>
      <trkpt lat="46.96367" lon="0.57593">
        <ele>54.8</ele>
        <time>2026-03-14T13:34:08Z</time>
      </trkpt>
      <trkpt lat="46.96366" lon="0.57571">
        <ele>54.6</ele>
        <time>2026-03-14T13:34:11Z</time>
      </trkpt>
      <trkpt lat="46.96364" lon="0.57511">
        <ele>54.4</ele>
        <time>2026-03-14T13:34:19Z</time>
      </trkpt>
      <trkpt lat="46.96364" lon="0.57498">
        <ele>55</ele>
        <time>2026-03-14T13:34:21Z</time>
      </trkpt>
      <trkpt lat="46.96358" lon="0.57453">
        <ele>55.6</ele>
        <time>2026-03-14T13:34:28Z</time>
      </trkpt>
      <trkpt lat="46.96355" lon="0.57429">
        <ele>55.8</ele>
        <time>2026-03-14T13:34:32Z</time>
      </trkpt>
      <trkpt lat="46.96353" lon="0.57406">
        <ele>56.8</ele>
        <time>2026-03-14T13:34:36Z</time>
      </trkpt>
      <trkpt lat="46.96352" lon="0.57401">
        <ele>56.8</ele>
        <time>2026-03-14T13:34:37Z</time>
      </trkpt>
      <trkpt lat="46.96348" lon="0.5736">
        <ele>58</ele>
        <time>2026-03-14T13:34:44Z</time>
      </trkpt>
      <trkpt lat="46.96347" lon="0.57355">
        <ele>58.2</ele>
        <time>2026-03-14T13:34:45Z</time>
      </trkpt>
      <trkpt lat="46.96346" lon="0.57332">
        <ele>59</ele>
        <time>2026-03-14T13:34:49Z</time>
      </trkpt>
      <trkpt lat="46.96346" lon="0.57309">
        <ele>59.6</ele>
        <time>2026-03-14T13:34:54Z</time>
      </trkpt>
      <trkpt lat="46.96347" lon="0.57287">
        <ele>60</ele>
        <time>2026-03-14T13:34:57Z</time>
      </trkpt>
      <trkpt lat="46.96349" lon="0.57252">
        <ele>61.2</ele>
        <time>2026-03-14T13:35:03Z</time>
      </trkpt>
      <trkpt lat="46.96349" lon="0.57246">
        <ele>61.4</ele>
        <time>2026-03-14T13:35:04Z</time>
      </trkpt>
      <trkpt lat="46.96351" lon="0.57215">
        <ele>62</ele>
        <time>2026-03-14T13:35:09Z</time>
      </trkpt>
      <trkpt lat="46.96353" lon="0.57204">
        <ele>62.2</ele>
        <time>2026-03-14T13:35:11Z</time>
      </trkpt>
      <trkpt lat="46.96357" lon="0.57164">
        <ele>63.2</ele>
        <time>2026-03-14T13:35:19Z</time>
      </trkpt>
      <trkpt lat="46.96359" lon="0.57147">
        <ele>63.2</ele>
        <time>2026-03-14T13:35:21Z</time>
      </trkpt>
      <trkpt lat="46.96364" lon="0.57101">
        <ele>64</ele>
        <time>2026-03-14T13:35:29Z</time>
      </trkpt>
      <trkpt lat="46.96369" lon="0.57068">
        <ele>64.4</ele>
        <time>2026-03-14T13:35:36Z</time>
      </trkpt>
      <trkpt lat="46.96372" lon="0.57041">
        <ele>65</ele>
        <time>2026-03-14T13:35:41Z</time>
      </trkpt>
      <trkpt lat="46.96377" lon="0.57017">
        <ele>65.4</ele>
        <time>2026-03-14T13:35:45Z</time>
      </trkpt>
      <trkpt lat="46.96381" lon="0.56999">
        <ele>66.4</ele>
        <time>2026-03-14T13:35:49Z</time>
      </trkpt>
      <trkpt lat="46.96381" lon="0.56994">
        <ele>66.8</ele>
        <time>2026-03-14T13:35:50Z</time>
      </trkpt>
      <trkpt lat="46.96386" lon="0.56971">
        <ele>67.8</ele>
        <time>2026-03-14T13:35:55Z</time>
      </trkpt>
      <trkpt lat="46.9639" lon="0.56953">
        <ele>68.4</ele>
        <time>2026-03-14T13:35:59Z</time>
      </trkpt>
      <trkpt lat="46.96393" lon="0.56943">
        <ele>68.8</ele>
        <time>2026-03-14T13:36:01Z</time>
      </trkpt>
      <trkpt lat="46.96401" lon="0.56914">
        <ele>70</ele>
        <time>2026-03-14T13:36:07Z</time>
      </trkpt>
      <trkpt lat="46.96402" lon="0.56909">
        <ele>70.4</ele>
        <time>2026-03-14T13:36:08Z</time>
      </trkpt>
      <trkpt lat="46.96413" lon="0.56872">
        <ele>71.4</ele>
        <time>2026-03-14T13:36:15Z</time>
      </trkpt>
      <trkpt lat="46.96414" lon="0.56867">
        <ele>71.4</ele>
        <time>2026-03-14T13:36:16Z</time>
      </trkpt>
      <trkpt lat="46.96432" lon="0.56804">
        <ele>72.2</ele>
        <time>2026-03-14T13:36:27Z</time>
      </trkpt>
      <trkpt lat="46.96437" lon="0.56787">
        <ele>72.4</ele>
        <time>2026-03-14T13:36:30Z</time>
      </trkpt>
      <trkpt lat="46.96448" lon="0.56745">
        <ele>72.8</ele>
        <time>2026-03-14T13:36:37Z</time>
      </trkpt>
      <trkpt lat="46.96455" lon="0.56716">
        <ele>73.4</ele>
        <time>2026-03-14T13:36:43Z</time>
      </trkpt>
      <trkpt lat="46.96459" lon="0.56698">
        <ele>73.6</ele>
        <time>2026-03-14T13:36:45Z</time>
      </trkpt>
      <trkpt lat="46.96463" lon="0.5668">
        <ele>74</ele>
        <time>2026-03-14T13:36:48Z</time>
      </trkpt>
      <trkpt lat="46.96474" lon="0.56628">
        <ele>74.4</ele>
        <time>2026-03-14T13:36:56Z</time>
      </trkpt>
      <trkpt lat="46.96478" lon="0.56607">
        <ele>74.6</ele>
        <time>2026-03-14T13:36:59Z</time>
      </trkpt>
      <trkpt lat="46.96492" lon="0.56541">
        <ele>75.4</ele>
        <time>2026-03-14T13:37:09Z</time>
      </trkpt>
      <trkpt lat="46.96494" lon="0.56527">
        <ele>75.4</ele>
        <time>2026-03-14T13:37:11Z</time>
      </trkpt>
      <trkpt lat="46.96495" lon="0.5652">
        <ele>75.6</ele>
        <time>2026-03-14T13:37:12Z</time>
      </trkpt>
      <trkpt lat="46.96494" lon="0.56491">
        <ele>75.8</ele>
        <time>2026-03-14T13:37:16Z</time>
      </trkpt>
      <trkpt lat="46.96484" lon="0.56419">
        <ele>76.2</ele>
        <time>2026-03-14T13:37:26Z</time>
      </trkpt>
      <trkpt lat="46.9648" lon="0.56384">
        <ele>76.6</ele>
        <time>2026-03-14T13:37:31Z</time>
      </trkpt>
      <trkpt lat="46.96474" lon="0.56341">
        <ele>77.2</ele>
        <time>2026-03-14T13:37:37Z</time>
      </trkpt>
      <trkpt lat="46.96468" lon="0.56298">
        <ele>77.6</ele>
        <time>2026-03-14T13:37:43Z</time>
      </trkpt>
      <trkpt lat="46.96464" lon="0.56265">
        <ele>78.2</ele>
        <time>2026-03-14T13:37:48Z</time>
      </trkpt>
      <trkpt lat="46.9646" lon="0.56238">
        <ele>78.8</ele>
        <time>2026-03-14T13:37:52Z</time>
      </trkpt>
      <trkpt lat="46.96457" lon="0.56206">
        <ele>79.4</ele>
        <time>2026-03-14T13:37:57Z</time>
      </trkpt>
      <trkpt lat="46.96456" lon="0.56186">
        <ele>79.8</ele>
        <time>2026-03-14T13:38:00Z</time>
      </trkpt>
      <trkpt lat="46.96455" lon="0.56128">
        <ele>80.8</ele>
        <time>2026-03-14T13:38:09Z</time>
      </trkpt>
      <trkpt lat="46.96455" lon="0.56122">
        <ele>81.2</ele>
        <time>2026-03-14T13:38:10Z</time>
      </trkpt>
      <trkpt lat="46.96455" lon="0.56092">
        <ele>82</ele>
        <time>2026-03-14T13:38:15Z</time>
      </trkpt>
      <trkpt lat="46.96456" lon="0.56053">
        <ele>83</ele>
        <time>2026-03-14T13:38:21Z</time>
      </trkpt>
      <trkpt lat="46.96456" lon="0.56001">
        <ele>84</ele>
        <time>2026-03-14T13:38:29Z</time>
      </trkpt>
      <trkpt lat="46.96457" lon="0.55981">
        <ele>84</ele>
        <time>2026-03-14T13:38:32Z</time>
      </trkpt>
      <trkpt lat="46.96458" lon="0.55931">
        <ele>84.6</ele>
        <time>2026-03-14T13:38:39Z</time>
      </trkpt>
      <trkpt lat="46.96463" lon="0.55865">
        <ele>85</ele>
        <time>2026-03-14T13:38:48Z</time>
      </trkpt>
      <trkpt lat="46.96463" lon="0.55865">
        <ele>85</ele>
        <time>2026-03-14T13:38:49Z</time>
      </trkpt>
      <trkpt lat="46.96467" lon="0.5585">
        <ele>85.2</ele>
        <time>2026-03-14T13:38:50Z</time>
      </trkpt>
      <trkpt lat="46.9648" lon="0.55815">
        <ele>85.2</ele>
        <time>2026-03-14T13:38:55Z</time>
      </trkpt>
      <trkpt lat="46.9649" lon="0.55785">
        <ele>85.2</ele>
        <time>2026-03-14T13:38:59Z</time>
      </trkpt>
      <trkpt lat="46.96493" lon="0.55769">
        <ele>85</ele>
        <time>2026-03-14T13:39:01Z</time>
      </trkpt>
      <trkpt lat="46.96501" lon="0.55697">
        <ele>84.4</ele>
        <time>2026-03-14T13:39:09Z</time>
      </trkpt>
      <trkpt lat="46.96505" lon="0.55669">
        <ele>84</ele>
        <time>2026-03-14T13:39:12Z</time>
      </trkpt>
      <trkpt lat="46.96512" lon="0.55604">
        <ele>83.6</ele>
        <time>2026-03-14T13:39:19Z</time>
      </trkpt>
      <trkpt lat="46.96513" lon="0.55542">
        <ele>83.6</ele>
        <time>2026-03-14T13:39:26Z</time>
      </trkpt>
      <trkpt lat="46.96503" lon="0.55489">
        <ele>84.4</ele>
        <time>2026-03-14T13:39:33Z</time>
      </trkpt>
      <trkpt lat="46.9649" lon="0.55437">
        <ele>85.2</ele>
        <time>2026-03-14T13:39:40Z</time>
      </trkpt>
      <trkpt lat="46.96489" lon="0.55431">
        <ele>85.2</ele>
        <time>2026-03-14T13:39:41Z</time>
      </trkpt>
      <trkpt lat="46.96476" lon="0.55356">
        <ele>85.8</ele>
        <time>2026-03-14T13:39:51Z</time>
      </trkpt>
      <trkpt lat="46.96475" lon="0.5534">
        <ele>85.8</ele>
        <time>2026-03-14T13:39:53Z</time>
      </trkpt>
      <trkpt lat="46.96477" lon="0.55288">
        <ele>85.8</ele>
        <time>2026-03-14T13:39:59Z</time>
      </trkpt>
      <trkpt lat="46.96485" lon="0.5522">
        <ele>86</ele>
        <time>2026-03-14T13:40:07Z</time>
      </trkpt>
      <trkpt lat="46.96491" lon="0.5518">
        <ele>86.4</ele>
        <time>2026-03-14T13:40:12Z</time>
      </trkpt>
      <trkpt lat="46.96497" lon="0.55141">
        <ele>86.6</ele>
        <time>2026-03-14T13:40:17Z</time>
      </trkpt>
      <trkpt lat="46.96505" lon="0.55077">
        <ele>87.4</ele>
        <time>2026-03-14T13:40:25Z</time>
      </trkpt>
      <trkpt lat="46.96507" lon="0.5507">
        <ele>87.6</ele>
        <time>2026-03-14T13:40:26Z</time>
      </trkpt>
      <trkpt lat="46.96508" lon="0.55062">
        <ele>87.6</ele>
        <time>2026-03-14T13:40:27Z</time>
      </trkpt>
      <trkpt lat="46.96512" lon="0.55031">
        <ele>88</ele>
        <time>2026-03-14T13:40:31Z</time>
      </trkpt>
      <trkpt lat="46.96514" lon="0.55016">
        <ele>88.2</ele>
        <time>2026-03-14T13:40:33Z</time>
      </trkpt>
      <trkpt lat="46.96519" lon="0.54978">
        <ele>88.6</ele>
        <time>2026-03-14T13:40:38Z</time>
      </trkpt>
      <trkpt lat="46.96525" lon="0.54935">
        <ele>89</ele>
        <time>2026-03-14T13:40:44Z</time>
      </trkpt>
      <trkpt lat="46.96527" lon="0.54914">
        <ele>89.4</ele>
        <time>2026-03-14T13:40:47Z</time>
      </trkpt>
      <trkpt lat="46.9653" lon="0.54893">
        <ele>90.2</ele>
        <time>2026-03-14T13:40:51Z</time>
      </trkpt>
      <trkpt lat="46.96533" lon="0.54873">
        <ele>90.4</ele>
        <time>2026-03-14T13:40:53Z</time>
      </trkpt>
      <trkpt lat="46.96535" lon="0.54858">
        <ele>90.6</ele>
        <time>2026-03-14T13:40:55Z</time>
      </trkpt>
      <trkpt lat="46.96536" lon="0.54851">
        <ele>90.8</ele>
        <time>2026-03-14T13:40:56Z</time>
      </trkpt>
      <trkpt lat="46.96542" lon="0.54815">
        <ele>91.8</ele>
        <time>2026-03-14T13:41:02Z</time>
      </trkpt>
      <trkpt lat="46.96548" lon="0.5479">
        <ele>92.8</ele>
        <time>2026-03-14T13:41:07Z</time>
      </trkpt>
      <trkpt lat="46.96551" lon="0.54766">
        <ele>93.4</ele>
        <time>2026-03-14T13:41:11Z</time>
      </trkpt>
      <trkpt lat="46.96554" lon="0.54738">
        <ele>94</ele>
        <time>2026-03-14T13:41:15Z</time>
      </trkpt>
      <trkpt lat="46.96556" lon="0.54714">
        <ele>94.6</ele>
        <time>2026-03-14T13:41:19Z</time>
      </trkpt>
      <trkpt lat="46.96558" lon="0.54695">
        <ele>95</ele>
        <time>2026-03-14T13:41:22Z</time>
      </trkpt>
      <trkpt lat="46.96561" lon="0.54684">
        <ele>95.4</ele>
        <time>2026-03-14T13:41:24Z</time>
      </trkpt>
      <trkpt lat="46.96564" lon="0.54652">
        <ele>96</ele>
        <time>2026-03-14T13:41:29Z</time>
      </trkpt>
      <trkpt lat="46.96567" lon="0.54627">
        <ele>96.8</ele>
        <time>2026-03-14T13:41:33Z</time>
      </trkpt>
      <trkpt lat="46.9657" lon="0.54607">
        <ele>97</ele>
        <time>2026-03-14T13:41:36Z</time>
      </trkpt>
      <trkpt lat="46.96573" lon="0.54595">
        <ele>97.4</ele>
        <time>2026-03-14T13:41:39Z</time>
      </trkpt>
      <trkpt lat="46.96577" lon="0.54583">
        <ele>97.4</ele>
        <time>2026-03-14T13:41:40Z</time>
      </trkpt>
      <trkpt lat="46.96579" lon="0.54563">
        <ele>98</ele>
        <time>2026-03-14T13:41:43Z</time>
      </trkpt>
      <trkpt lat="46.96595" lon="0.54521">
        <ele>98.8</ele>
        <time>2026-03-14T13:41:50Z</time>
      </trkpt>
      <trkpt lat="46.96597" lon="0.54515">
        <ele>99</ele>
        <time>2026-03-14T13:41:51Z</time>
      </trkpt>
      <trkpt lat="46.96614" lon="0.5447">
        <ele>99.8</ele>
        <time>2026-03-14T13:41:58Z</time>
      </trkpt>
      <trkpt lat="46.96629" lon="0.54432">
        <ele>100</ele>
        <time>2026-03-14T13:42:04Z</time>
      </trkpt>
      <trkpt lat="46.96637" lon="0.54413">
        <ele>100.2</ele>
        <time>2026-03-14T13:42:07Z</time>
      </trkpt>
      <trkpt lat="46.96664" lon="0.54351">
        <ele>100.8</ele>
        <time>2026-03-14T13:42:17Z</time>
      </trkpt>
      <trkpt lat="46.96693" lon="0.54284">
        <ele>101.2</ele>
        <time>2026-03-14T13:42:27Z</time>
      </trkpt>
      <trkpt lat="46.96719" lon="0.54225">
        <ele>101.2</ele>
        <time>2026-03-14T13:42:35Z</time>
      </trkpt>
      <trkpt lat="46.96746" lon="0.54162">
        <ele>100.4</ele>
        <time>2026-03-14T13:42:43Z</time>
      </trkpt>
      <trkpt lat="46.96769" lon="0.54108">
        <ele>100.4</ele>
        <time>2026-03-14T13:42:50Z</time>
      </trkpt>
      <trkpt lat="46.96776" lon="0.54093">
        <ele>100.4</ele>
        <time>2026-03-14T13:42:52Z</time>
      </trkpt>
      <trkpt lat="46.96783" lon="0.54078">
        <ele>100</ele>
        <time>2026-03-14T13:42:54Z</time>
      </trkpt>
      <trkpt lat="46.96792" lon="0.54053">
        <ele>100</ele>
        <time>2026-03-14T13:42:57Z</time>
      </trkpt>
      <trkpt lat="46.96796" lon="0.54045">
        <ele>100</ele>
        <time>2026-03-14T13:42:58Z</time>
      </trkpt>
      <trkpt lat="46.96826" lon="0.53972">
        <ele>99.4</ele>
        <time>2026-03-14T13:43:07Z</time>
      </trkpt>
      <trkpt lat="46.9683" lon="0.53964">
        <ele>99.4</ele>
        <time>2026-03-14T13:43:08Z</time>
      </trkpt>
      <trkpt lat="46.96854" lon="0.53907">
        <ele>98.8</ele>
        <time>2026-03-14T13:43:15Z</time>
      </trkpt>
      <trkpt lat="46.9686" lon="0.53891">
        <ele>98.4</ele>
        <time>2026-03-14T13:43:17Z</time>
      </trkpt>
      <trkpt lat="46.96887" lon="0.53827">
        <ele>98</ele>
        <time>2026-03-14T13:43:25Z</time>
      </trkpt>
      <trkpt lat="46.96903" lon="0.53774">
        <ele>97.8</ele>
        <time>2026-03-14T13:43:31Z</time>
      </trkpt>
      <trkpt lat="46.96907" lon="0.53755">
        <ele>97.8</ele>
        <time>2026-03-14T13:43:33Z</time>
      </trkpt>
      <trkpt lat="46.96922" lon="0.53681">
        <ele>96.8</ele>
        <time>2026-03-14T13:43:40Z</time>
      </trkpt>
      <trkpt lat="46.96924" lon="0.53671">
        <ele>96.6</ele>
        <time>2026-03-14T13:43:41Z</time>
      </trkpt>
      <trkpt lat="46.9693" lon="0.53638">
        <ele>95.6</ele>
        <time>2026-03-14T13:43:44Z</time>
      </trkpt>
      <trkpt lat="46.96941" lon="0.53581">
        <ele>94.6</ele>
        <time>2026-03-14T13:43:49Z</time>
      </trkpt>
      <trkpt lat="46.96944" lon="0.53569">
        <ele>94.2</ele>
        <time>2026-03-14T13:43:50Z</time>
      </trkpt>
      <trkpt lat="46.9695" lon="0.53535">
        <ele>93</ele>
        <time>2026-03-14T13:43:53Z</time>
      </trkpt>
      <trkpt lat="46.96957" lon="0.535">
        <ele>91.8</ele>
        <time>2026-03-14T13:43:56Z</time>
      </trkpt>
      <trkpt lat="46.96961" lon="0.53477">
        <ele>90.8</ele>
        <time>2026-03-14T13:43:58Z</time>
      </trkpt>
      <trkpt lat="46.96972" lon="0.53423">
        <ele>89.6</ele>
        <time>2026-03-14T13:44:03Z</time>
      </trkpt>
      <trkpt lat="46.96974" lon="0.53412">
        <ele>89.4</ele>
        <time>2026-03-14T13:44:04Z</time>
      </trkpt>
      <trkpt lat="46.96985" lon="0.53355">
        <ele>89</ele>
        <time>2026-03-14T13:44:10Z</time>
      </trkpt>
      <trkpt lat="46.96993" lon="0.5331">
        <ele>88.6</ele>
        <time>2026-03-14T13:44:15Z</time>
      </trkpt>
      <trkpt lat="46.96996" lon="0.53293">
        <ele>88.4</ele>
        <time>2026-03-14T13:44:17Z</time>
      </trkpt>
      <trkpt lat="46.97005" lon="0.53247">
        <ele>88.6</ele>
        <time>2026-03-14T13:44:23Z</time>
      </trkpt>
      <trkpt lat="46.97018" lon="0.53184">
        <ele>88.6</ele>
        <time>2026-03-14T13:44:31Z</time>
      </trkpt>
      <trkpt lat="46.97022" lon="0.5316">
        <ele>88.4</ele>
        <time>2026-03-14T13:44:34Z</time>
      </trkpt>
      <trkpt lat="46.97027" lon="0.53135">
        <ele>88.4</ele>
        <time>2026-03-14T13:44:37Z</time>
      </trkpt>
      <trkpt lat="46.97042" lon="0.53053">
        <ele>88.2</ele>
        <time>2026-03-14T13:44:47Z</time>
      </trkpt>
      <trkpt lat="46.97051" lon="0.52996">
        <ele>88.8</ele>
        <time>2026-03-14T13:44:55Z</time>
      </trkpt>
      <trkpt lat="46.97055" lon="0.52951">
        <ele>89.4</ele>
        <time>2026-03-14T13:45:01Z</time>
      </trkpt>
      <trkpt lat="46.97056" lon="0.52944">
        <ele>89.6</ele>
        <time>2026-03-14T13:45:02Z</time>
      </trkpt>
      <trkpt lat="46.97059" lon="0.529">
        <ele>90</ele>
        <time>2026-03-14T13:45:08Z</time>
      </trkpt>
      <trkpt lat="46.9706" lon="0.52893">
        <ele>90.2</ele>
        <time>2026-03-14T13:45:09Z</time>
      </trkpt>
      <trkpt lat="46.97066" lon="0.52826">
        <ele>90.6</ele>
        <time>2026-03-14T13:45:18Z</time>
      </trkpt>
      <trkpt lat="46.97067" lon="0.52819">
        <ele>90.6</ele>
        <time>2026-03-14T13:45:19Z</time>
      </trkpt>
      <trkpt lat="46.9708" lon="0.52764">
        <ele>91</ele>
        <time>2026-03-14T13:45:27Z</time>
      </trkpt>
      <trkpt lat="46.97102" lon="0.52709">
        <ele>91.4</ele>
        <time>2026-03-14T13:45:36Z</time>
      </trkpt>
      <trkpt lat="46.9711" lon="0.52693">
        <ele>91.8</ele>
        <time>2026-03-14T13:45:39Z</time>
      </trkpt>
      <trkpt lat="46.97125" lon="0.52666">
        <ele>92.2</ele>
        <time>2026-03-14T13:45:44Z</time>
      </trkpt>
      <trkpt lat="46.97144" lon="0.52633">
        <ele>92.6</ele>
        <time>2026-03-14T13:45:50Z</time>
      </trkpt>
      <trkpt lat="46.97147" lon="0.52626">
        <ele>92.8</ele>
        <time>2026-03-14T13:45:51Z</time>
      </trkpt>
      <trkpt lat="46.97157" lon="0.52607">
        <ele>92.8</ele>
        <time>2026-03-14T13:45:54Z</time>
      </trkpt>
      <trkpt lat="46.97185" lon="0.52557">
        <ele>93.2</ele>
        <time>2026-03-14T13:46:02Z</time>
      </trkpt>
      <trkpt lat="46.97221" lon="0.52492">
        <ele>93</ele>
        <time>2026-03-14T13:46:12Z</time>
      </trkpt>
      <trkpt lat="46.97229" lon="0.52478">
        <ele>92.8</ele>
        <time>2026-03-14T13:46:14Z</time>
      </trkpt>
      <trkpt lat="46.97266" lon="0.5241">
        <ele>92</ele>
        <time>2026-03-14T13:46:23Z</time>
      </trkpt>
      <trkpt lat="46.97271" lon="0.52402">
        <ele>91.8</ele>
        <time>2026-03-14T13:46:24Z</time>
      </trkpt>
      <trkpt lat="46.97292" lon="0.52362">
        <ele>90.8</ele>
        <time>2026-03-14T13:46:29Z</time>
      </trkpt>
      <trkpt lat="46.97315" lon="0.52321">
        <ele>89.4</ele>
        <time>2026-03-14T13:46:34Z</time>
      </trkpt>
      <trkpt lat="46.97337" lon="0.52279">
        <ele>88.4</ele>
        <time>2026-03-14T13:46:39Z</time>
      </trkpt>
      <trkpt lat="46.9736" lon="0.52238">
        <ele>87.4</ele>
        <time>2026-03-14T13:46:44Z</time>
      </trkpt>
      <trkpt lat="46.97364" lon="0.5223">
        <ele>87.2</ele>
        <time>2026-03-14T13:46:45Z</time>
      </trkpt>
      <trkpt lat="46.97368" lon="0.52222">
        <ele>87</ele>
        <time>2026-03-14T13:46:46Z</time>
      </trkpt>
      <trkpt lat="46.97385" lon="0.52191">
        <ele>86.2</ele>
        <time>2026-03-14T13:46:50Z</time>
      </trkpt>
      <trkpt lat="46.97402" lon="0.52163">
        <ele>86</ele>
        <time>2026-03-14T13:46:54Z</time>
      </trkpt>
      <trkpt lat="46.97427" lon="0.52117">
        <ele>86.2</ele>
        <time>2026-03-14T13:47:01Z</time>
      </trkpt>
      <trkpt lat="46.97449" lon="0.52075">
        <ele>86.6</ele>
        <time>2026-03-14T13:47:08Z</time>
      </trkpt>
      <trkpt lat="46.97472" lon="0.52033">
        <ele>87</ele>
        <time>2026-03-14T13:47:15Z</time>
      </trkpt>
      <trkpt lat="46.97491" lon="0.51998">
        <ele>87.4</ele>
        <time>2026-03-14T13:47:21Z</time>
      </trkpt>
      <trkpt lat="46.97502" lon="0.5198">
        <ele>87.4</ele>
        <time>2026-03-14T13:47:24Z</time>
      </trkpt>
      <trkpt lat="46.97531" lon="0.51927">
        <ele>87.8</ele>
        <time>2026-03-14T13:47:32Z</time>
      </trkpt>
      <trkpt lat="46.97558" lon="0.51867">
        <ele>86.8</ele>
        <time>2026-03-14T13:47:39Z</time>
      </trkpt>
      <trkpt lat="46.97564" lon="0.51845">
        <ele>86.2</ele>
        <time>2026-03-14T13:47:41Z</time>
      </trkpt>
      <trkpt lat="46.97567" lon="0.51821">
        <ele>85</ele>
        <time>2026-03-14T13:47:43Z</time>
      </trkpt>
      <trkpt lat="46.97569" lon="0.51783">
        <ele>83.6</ele>
        <time>2026-03-14T13:47:46Z</time>
      </trkpt>
      <trkpt lat="46.97568" lon="0.5177">
        <ele>83.2</ele>
        <time>2026-03-14T13:47:47Z</time>
      </trkpt>
      <trkpt lat="46.97568" lon="0.51757">
        <ele>82.6</ele>
        <time>2026-03-14T13:47:48Z</time>
      </trkpt>
      <trkpt lat="46.97565" lon="0.51718">
        <ele>81</ele>
        <time>2026-03-14T13:47:51Z</time>
      </trkpt>
      <trkpt lat="46.97562" lon="0.5168">
        <ele>79.8</ele>
        <time>2026-03-14T13:47:54Z</time>
      </trkpt>
      <trkpt lat="46.97561" lon="0.51667">
        <ele>79.2</ele>
        <time>2026-03-14T13:47:55Z</time>
      </trkpt>
      <trkpt lat="46.97559" lon="0.51642">
        <ele>78.2</ele>
        <time>2026-03-14T13:47:57Z</time>
      </trkpt>
      <trkpt lat="46.97557" lon="0.51604">
        <ele>77.2</ele>
        <time>2026-03-14T13:48:00Z</time>
      </trkpt>
      <trkpt lat="46.97555" lon="0.51578">
        <ele>76</ele>
        <time>2026-03-14T13:48:02Z</time>
      </trkpt>
      <trkpt lat="46.97552" lon="0.51539">
        <ele>74.4</ele>
        <time>2026-03-14T13:48:05Z</time>
      </trkpt>
      <trkpt lat="46.97551" lon="0.51527">
        <ele>74.2</ele>
        <time>2026-03-14T13:48:06Z</time>
      </trkpt>
      <trkpt lat="46.9755" lon="0.51502">
        <ele>73</ele>
        <time>2026-03-14T13:48:08Z</time>
      </trkpt>
      <trkpt lat="46.97546" lon="0.51445">
        <ele>72</ele>
        <time>2026-03-14T13:48:13Z</time>
      </trkpt>
      <trkpt lat="46.97545" lon="0.51435">
        <ele>72</ele>
        <time>2026-03-14T13:48:14Z</time>
      </trkpt>
      <trkpt lat="46.97542" lon="0.51387">
        <ele>71.4</ele>
        <time>2026-03-14T13:48:19Z</time>
      </trkpt>
      <trkpt lat="46.97539" lon="0.51339">
        <ele>71.8</ele>
        <time>2026-03-14T13:48:25Z</time>
      </trkpt>
      <trkpt lat="46.97536" lon="0.51288">
        <ele>72.8</ele>
        <time>2026-03-14T13:48:32Z</time>
      </trkpt>
      <trkpt lat="46.97536" lon="0.51281">
        <ele>73</ele>
        <time>2026-03-14T13:48:33Z</time>
      </trkpt>
      <trkpt lat="46.97532" lon="0.5124">
        <ele>74</ele>
        <time>2026-03-14T13:48:39Z</time>
      </trkpt>
      <trkpt lat="46.97526" lon="0.51172">
        <ele>75.2</ele>
        <time>2026-03-14T13:48:49Z</time>
      </trkpt>
      <trkpt lat="46.97523" lon="0.5112">
        <ele>76.2</ele>
        <time>2026-03-14T13:48:57Z</time>
      </trkpt>
      <trkpt lat="46.97522" lon="0.51106">
        <ele>76.6</ele>
        <time>2026-03-14T13:48:59Z</time>
      </trkpt>
      <trkpt lat="46.97518" lon="0.51047">
        <ele>77.4</ele>
        <time>2026-03-14T13:49:07Z</time>
      </trkpt>
      <trkpt lat="46.97516" lon="0.51024">
        <ele>77.4</ele>
        <time>2026-03-14T13:49:10Z</time>
      </trkpt>
      <trkpt lat="46.97512" lon="0.50958">
        <ele>77.6</ele>
        <time>2026-03-14T13:49:18Z</time>
      </trkpt>
      <trkpt lat="46.97507" lon="0.50878">
        <ele>76.6</ele>
        <time>2026-03-14T13:49:26Z</time>
      </trkpt>
      <trkpt lat="46.97506" lon="0.50867">
        <ele>76.6</ele>
        <time>2026-03-14T13:49:27Z</time>
      </trkpt>
      <trkpt lat="46.97503" lon="0.50823">
        <ele>75.4</ele>
        <time>2026-03-14T13:49:31Z</time>
      </trkpt>
      <trkpt lat="46.97501" lon="0.50787">
        <ele>74.8</ele>
        <time>2026-03-14T13:49:34Z</time>
      </trkpt>
      <trkpt lat="46.97499" lon="0.50762">
        <ele>74.2</ele>
        <time>2026-03-14T13:49:36Z</time>
      </trkpt>
      <trkpt lat="46.97497" lon="0.50722">
        <ele>73</ele>
        <time>2026-03-14T13:49:39Z</time>
      </trkpt>
      <trkpt lat="46.97495" lon="0.50695">
        <ele>71.8</ele>
        <time>2026-03-14T13:49:41Z</time>
      </trkpt>
      <trkpt lat="46.97494" lon="0.50681">
        <ele>71.6</ele>
        <time>2026-03-14T13:49:42Z</time>
      </trkpt>
      <trkpt lat="46.97492" lon="0.50653">
        <ele>70.6</ele>
        <time>2026-03-14T13:49:44Z</time>
      </trkpt>
      <trkpt lat="46.9749" lon="0.50625">
        <ele>69</ele>
        <time>2026-03-14T13:49:46Z</time>
      </trkpt>
      <trkpt lat="46.97487" lon="0.50581">
        <ele>67.8</ele>
        <time>2026-03-14T13:49:49Z</time>
      </trkpt>
      <trkpt lat="46.97486" lon="0.50567">
        <ele>66.8</ele>
        <time>2026-03-14T13:49:50Z</time>
      </trkpt>
      <trkpt lat="46.97485" lon="0.50553">
        <ele>66.2</ele>
        <time>2026-03-14T13:49:51Z</time>
      </trkpt>
      <trkpt lat="46.97482" lon="0.50496">
        <ele>64.6</ele>
        <time>2026-03-14T13:49:55Z</time>
      </trkpt>
      <trkpt lat="46.97479" lon="0.50455">
        <ele>63</ele>
        <time>2026-03-14T13:49:58Z</time>
      </trkpt>
      <trkpt lat="46.97477" lon="0.50429">
        <ele>62.2</ele>
        <time>2026-03-14T13:50:00Z</time>
      </trkpt>
      <trkpt lat="46.97476" lon="0.50404">
        <ele>61.8</ele>
        <time>2026-03-14T13:50:02Z</time>
      </trkpt>
      <trkpt lat="46.97473" lon="0.50358">
        <ele>61.4</ele>
        <time>2026-03-14T13:50:06Z</time>
      </trkpt>
      <trkpt lat="46.97477" lon="0.50298">
        <ele>61.8</ele>
        <time>2026-03-14T13:50:12Z</time>
      </trkpt>
      <trkpt lat="46.9749" lon="0.50216">
        <ele>62</ele>
        <time>2026-03-14T13:50:20Z</time>
      </trkpt>
      <trkpt lat="46.97492" lon="0.50206">
        <ele>61.8</ele>
        <time>2026-03-14T13:50:21Z</time>
      </trkpt>
      <trkpt lat="46.97502" lon="0.50139">
        <ele>60.6</ele>
        <time>2026-03-14T13:50:27Z</time>
      </trkpt>
      <trkpt lat="46.97509" lon="0.50091">
        <ele>60</ele>
        <time>2026-03-14T13:50:31Z</time>
      </trkpt>
      <trkpt lat="46.97511" lon="0.50079">
        <ele>59.6</ele>
        <time>2026-03-14T13:50:32Z</time>
      </trkpt>
      <trkpt lat="46.97516" lon="0.50048">
        <ele>58.4</ele>
        <time>2026-03-14T13:50:35Z</time>
      </trkpt>
      <trkpt lat="46.97519" lon="0.50031">
        <ele>58.4</ele>
        <time>2026-03-14T13:50:37Z</time>
      </trkpt>
      <trkpt lat="46.97529" lon="0.49988">
        <ele>58.6</ele>
        <time>2026-03-14T13:50:43Z</time>
      </trkpt>
      <trkpt lat="46.97535" lon="0.49962">
        <ele>59.8</ele>
        <time>2026-03-14T13:50:48Z</time>
      </trkpt>
      <trkpt lat="46.97537" lon="0.49953">
        <ele>60.6</ele>
        <time>2026-03-14T13:50:50Z</time>
      </trkpt>
      <trkpt lat="46.97538" lon="0.49948">
        <ele>60.8</ele>
        <time>2026-03-14T13:50:51Z</time>
      </trkpt>
      <trkpt lat="46.97542" lon="0.49934">
        <ele>61.8</ele>
        <time>2026-03-14T13:50:54Z</time>
      </trkpt>
      <trkpt lat="46.97545" lon="0.4992">
        <ele>62.6</ele>
        <time>2026-03-14T13:50:57Z</time>
      </trkpt>
      <trkpt lat="46.97547" lon="0.49911">
        <ele>63</ele>
        <time>2026-03-14T13:50:59Z</time>
      </trkpt>
      <trkpt lat="46.97553" lon="0.49888">
        <ele>64.2</ele>
        <time>2026-03-14T13:51:04Z</time>
      </trkpt>
      <trkpt lat="46.97556" lon="0.49874">
        <ele>65</ele>
        <time>2026-03-14T13:51:07Z</time>
      </trkpt>
      <trkpt lat="46.97558" lon="0.4987">
        <ele>65.4</ele>
        <time>2026-03-14T13:51:08Z</time>
      </trkpt>
      <trkpt lat="46.97563" lon="0.49852">
        <ele>66.4</ele>
        <time>2026-03-14T13:51:12Z</time>
      </trkpt>
      <trkpt lat="46.97567" lon="0.49838">
        <ele>67.2</ele>
        <time>2026-03-14T13:51:15Z</time>
      </trkpt>
      <trkpt lat="46.9757" lon="0.49829">
        <ele>67.4</ele>
        <time>2026-03-14T13:51:17Z</time>
      </trkpt>
      <trkpt lat="46.97577" lon="0.49804">
        <ele>68.8</ele>
        <time>2026-03-14T13:51:23Z</time>
      </trkpt>
      <trkpt lat="46.97582" lon="0.49788">
        <ele>69.6</ele>
        <time>2026-03-14T13:51:27Z</time>
      </trkpt>
      <trkpt lat="46.97583" lon="0.49785">
        <ele>70</ele>
        <time>2026-03-14T13:51:28Z</time>
      </trkpt>
      <trkpt lat="46.9759" lon="0.49763">
        <ele>71</ele>
        <time>2026-03-14T13:51:33Z</time>
      </trkpt>
      <trkpt lat="46.97594" lon="0.49752">
        <ele>71.4</ele>
        <time>2026-03-14T13:51:36Z</time>
      </trkpt>
      <trkpt lat="46.97599" lon="0.49735">
        <ele>72.2</ele>
        <time>2026-03-14T13:51:40Z</time>
      </trkpt>
      <trkpt lat="46.97606" lon="0.49712">
        <ele>73</ele>
        <time>2026-03-14T13:51:45Z</time>
      </trkpt>
      <trkpt lat="46.97608" lon="0.49707">
        <ele>73.2</ele>
        <time>2026-03-14T13:51:46Z</time>
      </trkpt>
      <trkpt lat="46.97622" lon="0.49663">
        <ele>74.2</ele>
        <time>2026-03-14T13:51:55Z</time>
      </trkpt>
      <trkpt lat="46.97625" lon="0.49652">
        <ele>74.2</ele>
        <time>2026-03-14T13:51:57Z</time>
      </trkpt>
      <trkpt lat="46.97636" lon="0.49615">
        <ele>75.2</ele>
        <time>2026-03-14T13:52:04Z</time>
      </trkpt>
      <trkpt lat="46.97637" lon="0.49609">
        <ele>75.4</ele>
        <time>2026-03-14T13:52:05Z</time>
      </trkpt>
      <trkpt lat="46.97647" lon="0.49574">
        <ele>75.8</ele>
        <time>2026-03-14T13:52:11Z</time>
      </trkpt>
      <trkpt lat="46.97658" lon="0.49539">
        <ele>76.4</ele>
        <time>2026-03-14T13:52:17Z</time>
      </trkpt>
      <trkpt lat="46.97666" lon="0.4951">
        <ele>76.8</ele>
        <time>2026-03-14T13:52:22Z</time>
      </trkpt>
      <trkpt lat="46.97682" lon="0.49462">
        <ele>77</ele>
        <time>2026-03-14T13:52:29Z</time>
      </trkpt>
      <trkpt lat="46.977" lon="0.49415">
        <ele>76.6</ele>
        <time>2026-03-14T13:52:35Z</time>
      </trkpt>
      <trkpt lat="46.97709" lon="0.49399">
        <ele>76.4</ele>
        <time>2026-03-14T13:52:37Z</time>
      </trkpt>
      <trkpt lat="46.97726" lon="0.49377">
        <ele>75.8</ele>
        <time>2026-03-14T13:52:40Z</time>
      </trkpt>
      <trkpt lat="46.97738" lon="0.49363">
        <ele>75.2</ele>
        <time>2026-03-14T13:52:42Z</time>
      </trkpt>
      <trkpt lat="46.97763" lon="0.49336">
        <ele>74.2</ele>
        <time>2026-03-14T13:52:46Z</time>
      </trkpt>
      <trkpt lat="46.97769" lon="0.49329">
        <ele>74</ele>
        <time>2026-03-14T13:52:47Z</time>
      </trkpt>
      <trkpt lat="46.97794" lon="0.49301">
        <ele>73</ele>
        <time>2026-03-14T13:52:51Z</time>
      </trkpt>
      <trkpt lat="46.97821" lon="0.49271">
        <ele>71.8</ele>
        <time>2026-03-14T13:52:55Z</time>
      </trkpt>
      <trkpt lat="46.97833" lon="0.49259">
        <ele>71.2</ele>
        <time>2026-03-14T13:52:57Z</time>
      </trkpt>
      <trkpt lat="46.97839" lon="0.49252">
        <ele>70.8</ele>
        <time>2026-03-14T13:52:58Z</time>
      </trkpt>
      <trkpt lat="46.97858" lon="0.49231">
        <ele>69.6</ele>
        <time>2026-03-14T13:53:01Z</time>
      </trkpt>
      <trkpt lat="46.97888" lon="0.49195">
        <ele>68.2</ele>
        <time>2026-03-14T13:53:06Z</time>
      </trkpt>
      <trkpt lat="46.97894" lon="0.49188">
        <ele>68</ele>
        <time>2026-03-14T13:53:07Z</time>
      </trkpt>
      <trkpt lat="46.97912" lon="0.49165">
        <ele>67</ele>
        <time>2026-03-14T13:53:10Z</time>
      </trkpt>
      <trkpt lat="46.9794" lon="0.49128">
        <ele>66</ele>
        <time>2026-03-14T13:53:15Z</time>
      </trkpt>
      <trkpt lat="46.97945" lon="0.49119">
        <ele>65.8</ele>
        <time>2026-03-14T13:53:16Z</time>
      </trkpt>
      <trkpt lat="46.97963" lon="0.49087">
        <ele>64.8</ele>
        <time>2026-03-14T13:53:20Z</time>
      </trkpt>
      <trkpt lat="46.97975" lon="0.49065">
        <ele>64.6</ele>
        <time>2026-03-14T13:53:23Z</time>
      </trkpt>
      <trkpt lat="46.97995" lon="0.4903">
        <ele>64.8</ele>
        <time>2026-03-14T13:53:29Z</time>
      </trkpt>
      <trkpt lat="46.97998" lon="0.49026">
        <ele>64.8</ele>
        <time>2026-03-14T13:53:30Z</time>
      </trkpt>
      <trkpt lat="46.98009" lon="0.49012">
        <ele>65.6</ele>
        <time>2026-03-14T13:53:34Z</time>
      </trkpt>
      <trkpt lat="46.98014" lon="0.49006">
        <ele>66</ele>
        <time>2026-03-14T13:53:36Z</time>
      </trkpt>
      <trkpt lat="46.98023" lon="0.48999">
        <ele>67</ele>
        <time>2026-03-14T13:53:39Z</time>
      </trkpt>
      <trkpt lat="46.9803" lon="0.48992">
        <ele>67.4</ele>
        <time>2026-03-14T13:53:42Z</time>
      </trkpt>
      <trkpt lat="46.98038" lon="0.48986">
        <ele>68.2</ele>
        <time>2026-03-14T13:53:45Z</time>
      </trkpt>
      <trkpt lat="46.98051" lon="0.48971">
        <ele>69.2</ele>
        <time>2026-03-14T13:53:50Z</time>
      </trkpt>
      <trkpt lat="46.98053" lon="0.48968">
        <ele>69.4</ele>
        <time>2026-03-14T13:53:51Z</time>
      </trkpt>
      <trkpt lat="46.98061" lon="0.48956">
        <ele>70.4</ele>
        <time>2026-03-14T13:53:55Z</time>
      </trkpt>
      <trkpt lat="46.98066" lon="0.48946">
        <ele>71</ele>
        <time>2026-03-14T13:53:58Z</time>
      </trkpt>
      <trkpt lat="46.98071" lon="0.48936">
        <ele>71.6</ele>
        <time>2026-03-14T13:54:01Z</time>
      </trkpt>
      <trkpt lat="46.98077" lon="0.48926">
        <ele>72.2</ele>
        <time>2026-03-14T13:54:04Z</time>
      </trkpt>
      <trkpt lat="46.98078" lon="0.48922">
        <ele>72.6</ele>
        <time>2026-03-14T13:54:05Z</time>
      </trkpt>
      <trkpt lat="46.98088" lon="0.48907">
        <ele>73.8</ele>
        <time>2026-03-14T13:54:10Z</time>
      </trkpt>
      <trkpt lat="46.98095" lon="0.48893">
        <ele>74.8</ele>
        <time>2026-03-14T13:54:14Z</time>
      </trkpt>
      <trkpt lat="46.98098" lon="0.48887">
        <ele>75.2</ele>
        <time>2026-03-14T13:54:16Z</time>
      </trkpt>
      <trkpt lat="46.98105" lon="0.48882">
        <ele>75.8</ele>
        <time>2026-03-14T13:54:19Z</time>
      </trkpt>
      <trkpt lat="46.98108" lon="0.48882">
        <ele>76</ele>
        <time>2026-03-14T13:54:20Z</time>
      </trkpt>
      <trkpt lat="46.98119" lon="0.48878">
        <ele>77</ele>
        <time>2026-03-14T13:54:24Z</time>
      </trkpt>
      <trkpt lat="46.98131" lon="0.48877">
        <ele>77.6</ele>
        <time>2026-03-14T13:54:28Z</time>
      </trkpt>
      <trkpt lat="46.98137" lon="0.48876">
        <ele>77.8</ele>
        <time>2026-03-14T13:54:30Z</time>
      </trkpt>
      <trkpt lat="46.9814" lon="0.48875">
        <ele>78.2</ele>
        <time>2026-03-14T13:54:31Z</time>
      </trkpt>
      <trkpt lat="46.98143" lon="0.48875">
        <ele>78.4</ele>
        <time>2026-03-14T13:54:32Z</time>
      </trkpt>
      <trkpt lat="46.98155" lon="0.48873">
        <ele>79.4</ele>
        <time>2026-03-14T13:54:36Z</time>
      </trkpt>
      <trkpt lat="46.98165" lon="0.48872">
        <ele>79.8</ele>
        <time>2026-03-14T13:54:39Z</time>
      </trkpt>
      <trkpt lat="46.98178" lon="0.4887">
        <ele>80.4</ele>
        <time>2026-03-14T13:54:43Z</time>
      </trkpt>
      <trkpt lat="46.9819" lon="0.48868">
        <ele>81.6</ele>
        <time>2026-03-14T13:54:47Z</time>
      </trkpt>
      <trkpt lat="46.98209" lon="0.48866">
        <ele>82.6</ele>
        <time>2026-03-14T13:54:53Z</time>
      </trkpt>
      <trkpt lat="46.98232" lon="0.48865">
        <ele>83.6</ele>
        <time>2026-03-14T13:55:00Z</time>
      </trkpt>
      <trkpt lat="46.98235" lon="0.48865">
        <ele>83.8</ele>
        <time>2026-03-14T13:55:01Z</time>
      </trkpt>
      <trkpt lat="46.98247" lon="0.48858">
        <ele>84.8</ele>
        <time>2026-03-14T13:55:05Z</time>
      </trkpt>
      <trkpt lat="46.9825" lon="0.48855">
        <ele>85</ele>
        <time>2026-03-14T13:55:06Z</time>
      </trkpt>
      <trkpt lat="46.98261" lon="0.48839">
        <ele>85.8</ele>
        <time>2026-03-14T13:55:11Z</time>
      </trkpt>
      <trkpt lat="46.98265" lon="0.48832">
        <ele>86.8</ele>
        <time>2026-03-14T13:55:13Z</time>
      </trkpt>
      <trkpt lat="46.98268" lon="0.48828">
        <ele>87</ele>
        <time>2026-03-14T13:55:14Z</time>
      </trkpt>
      <trkpt lat="46.98274" lon="0.48812">
        <ele>88.2</ele>
        <time>2026-03-14T13:55:18Z</time>
      </trkpt>
      <trkpt lat="46.98276" lon="0.48803">
        <ele>88.4</ele>
        <time>2026-03-14T13:55:20Z</time>
      </trkpt>
      <trkpt lat="46.9828" lon="0.48781">
        <ele>89.6</ele>
        <time>2026-03-14T13:55:25Z</time>
      </trkpt>
      <trkpt lat="46.9828" lon="0.48767">
        <ele>90.8</ele>
        <time>2026-03-14T13:55:28Z</time>
      </trkpt>
      <trkpt lat="46.9828" lon="0.48762">
        <ele>91</ele>
        <time>2026-03-14T13:55:29Z</time>
      </trkpt>
      <trkpt lat="46.98278" lon="0.48743">
        <ele>91.8</ele>
        <time>2026-03-14T13:55:33Z</time>
      </trkpt>
      <trkpt lat="46.98275" lon="0.48718">
        <ele>92.8</ele>
        <time>2026-03-14T13:55:38Z</time>
      </trkpt>
      <trkpt lat="46.98274" lon="0.48713">
        <ele>93</ele>
        <time>2026-03-14T13:55:39Z</time>
      </trkpt>
      <trkpt lat="46.98269" lon="0.4867">
        <ele>94</ele>
        <time>2026-03-14T13:55:47Z</time>
      </trkpt>
      <trkpt lat="46.98262" lon="0.48619">
        <ele>95</ele>
        <time>2026-03-14T13:55:56Z</time>
      </trkpt>
      <trkpt lat="46.98261" lon="0.48608">
        <ele>95.2</ele>
        <time>2026-03-14T13:55:58Z</time>
      </trkpt>
      <trkpt lat="46.98255" lon="0.48568">
        <ele>96</ele>
        <time>2026-03-14T13:56:05Z</time>
      </trkpt>
      <trkpt lat="46.98251" lon="0.48538">
        <ele>96.4</ele>
        <time>2026-03-14T13:56:10Z</time>
      </trkpt>
      <trkpt lat="46.98248" lon="0.48501">
        <ele>97.2</ele>
        <time>2026-03-14T13:56:16Z</time>
      </trkpt>
      <trkpt lat="46.98247" lon="0.48476">
        <ele>97.4</ele>
        <time>2026-03-14T13:56:20Z</time>
      </trkpt>
      <trkpt lat="46.98246" lon="0.48411">
        <ele>98</ele>
        <time>2026-03-14T13:56:30Z</time>
      </trkpt>
      <trkpt lat="46.98246" lon="0.48391">
        <ele>98.2</ele>
        <time>2026-03-14T13:56:33Z</time>
      </trkpt>
      <trkpt lat="46.98246" lon="0.4835">
        <ele>98.4</ele>
        <time>2026-03-14T13:56:39Z</time>
      </trkpt>
      <trkpt lat="46.98245" lon="0.48286">
        <ele>99.2</ele>
        <time>2026-03-14T13:56:48Z</time>
      </trkpt>
      <trkpt lat="46.98245" lon="0.48279">
        <ele>99.2</ele>
        <time>2026-03-14T13:56:49Z</time>
      </trkpt>
      <trkpt lat="46.98244" lon="0.48226">
        <ele>100.4</ele>
        <time>2026-03-14T13:56:57Z</time>
      </trkpt>
      <trkpt lat="46.98244" lon="0.48205">
        <ele>100.8</ele>
        <time>2026-03-14T13:57:00Z</time>
      </trkpt>
      <trkpt lat="46.98243" lon="0.48131">
        <ele>101</ele>
        <time>2026-03-14T13:57:10Z</time>
      </trkpt>
      <trkpt lat="46.98242" lon="0.48059">
        <ele>101</ele>
        <time>2026-03-14T13:57:19Z</time>
      </trkpt>
      <trkpt lat="46.98241" lon="0.47985">
        <ele>100.8</ele>
        <time>2026-03-14T13:57:28Z</time>
      </trkpt>
      <trkpt lat="46.9824" lon="0.47908">
        <ele>100.8</ele>
        <time>2026-03-14T13:57:37Z</time>
      </trkpt>
      <trkpt lat="46.98238" lon="0.4782">
        <ele>100.6</ele>
        <time>2026-03-14T13:57:47Z</time>
      </trkpt>
      <trkpt lat="46.98237" lon="0.47735">
        <ele>100.6</ele>
        <time>2026-03-14T13:57:57Z</time>
      </trkpt>
      <trkpt lat="46.98236" lon="0.47669">
        <ele>101</ele>
        <time>2026-03-14T13:58:05Z</time>
      </trkpt>
      <trkpt lat="46.98235" lon="0.47618">
        <ele>101.4</ele>
        <time>2026-03-14T13:58:11Z</time>
      </trkpt>
      <trkpt lat="46.98235" lon="0.47595">
        <ele>101.4</ele>
        <time>2026-03-14T13:58:14Z</time>
      </trkpt>
      <trkpt lat="46.98234" lon="0.47526">
        <ele>102</ele>
        <time>2026-03-14T13:58:23Z</time>
      </trkpt>
      <trkpt lat="46.98234" lon="0.47488">
        <ele>102.4</ele>
        <time>2026-03-14T13:58:28Z</time>
      </trkpt>
      <trkpt lat="46.98233" lon="0.47443">
        <ele>102.6</ele>
        <time>2026-03-14T13:58:34Z</time>
      </trkpt>
      <trkpt lat="46.98232" lon="0.47368">
        <ele>103.4</ele>
        <time>2026-03-14T13:58:44Z</time>
      </trkpt>
      <trkpt lat="46.98231" lon="0.47293">
        <ele>104.6</ele>
        <time>2026-03-14T13:58:54Z</time>
      </trkpt>
      <trkpt lat="46.98231" lon="0.47285">
        <ele>104.6</ele>
        <time>2026-03-14T13:58:55Z</time>
      </trkpt>
      <trkpt lat="46.98229" lon="0.47232">
        <ele>105</ele>
        <time>2026-03-14T13:59:02Z</time>
      </trkpt>
      <trkpt lat="46.98228" lon="0.47176">
        <ele>105.2</ele>
        <time>2026-03-14T13:59:09Z</time>
      </trkpt>
      <trkpt lat="46.98226" lon="0.47128">
        <ele>105.4</ele>
        <time>2026-03-14T13:59:15Z</time>
      </trkpt>
      <trkpt lat="46.98227" lon="0.4712">
        <ele>105.4</ele>
        <time>2026-03-14T13:59:16Z</time>
      </trkpt>
      <trkpt lat="46.98226" lon="0.47112">
        <ele>105.4</ele>
        <time>2026-03-14T13:59:17Z</time>
      </trkpt>
      <trkpt lat="46.98226" lon="0.4708">
        <ele>105.4</ele>
        <time>2026-03-14T13:59:21Z</time>
      </trkpt>
      <trkpt lat="46.98225" lon="0.47072">
        <ele>105.6</ele>
        <time>2026-03-14T13:59:22Z</time>
      </trkpt>
      <trkpt lat="46.98223" lon="0.47019">
        <ele>106</ele>
        <time>2026-03-14T13:59:29Z</time>
      </trkpt>
      <trkpt lat="46.98222" lon="0.46997">
        <ele>106.4</ele>
        <time>2026-03-14T13:59:32Z</time>
      </trkpt>
      <trkpt lat="46.98223" lon="0.46982">
        <ele>106.6</ele>
        <time>2026-03-14T13:59:34Z</time>
      </trkpt>
      <trkpt lat="46.98222" lon="0.46975">
        <ele>106.6</ele>
        <time>2026-03-14T13:59:35Z</time>
      </trkpt>
      <trkpt lat="46.98223" lon="0.46947">
        <ele>107</ele>
        <time>2026-03-14T13:59:39Z</time>
      </trkpt>
      <trkpt lat="46.98222" lon="0.46933">
        <ele>107.2</ele>
        <time>2026-03-14T13:59:41Z</time>
      </trkpt>
      <trkpt lat="46.98222" lon="0.46926">
        <ele>107.2</ele>
        <time>2026-03-14T13:59:42Z</time>
      </trkpt>
      <trkpt lat="46.98222" lon="0.46918">
        <ele>107.4</ele>
        <time>2026-03-14T13:59:43Z</time>
      </trkpt>
      <trkpt lat="46.98222" lon="0.46904">
        <ele>107.4</ele>
        <time>2026-03-14T13:59:45Z</time>
      </trkpt>
      <trkpt lat="46.98222" lon="0.46897">
        <ele>107.6</ele>
        <time>2026-03-14T13:59:46Z</time>
      </trkpt>
      <trkpt lat="46.98222" lon="0.46889">
        <ele>107.8</ele>
        <time>2026-03-14T13:59:47Z</time>
      </trkpt>
      <trkpt lat="46.98222" lon="0.4684">
        <ele>108.8</ele>
        <time>2026-03-14T13:59:54Z</time>
      </trkpt>
      <trkpt lat="46.98222" lon="0.46834">
        <ele>108.8</ele>
        <time>2026-03-14T13:59:55Z</time>
      </trkpt>
      <trkpt lat="46.98223" lon="0.46793">
        <ele>109.8</ele>
        <time>2026-03-14T14:00:01Z</time>
      </trkpt>
      <trkpt lat="46.98224" lon="0.46758">
        <ele>110.4</ele>
        <time>2026-03-14T14:00:06Z</time>
      </trkpt>
      <trkpt lat="46.98223" lon="0.46724">
        <ele>110.8</ele>
        <time>2026-03-14T14:00:11Z</time>
      </trkpt>
      <trkpt lat="46.98223" lon="0.46682">
        <ele>111.6</ele>
        <time>2026-03-14T14:00:17Z</time>
      </trkpt>
      <trkpt lat="46.98223" lon="0.46668">
        <ele>112</ele>
        <time>2026-03-14T14:00:19Z</time>
      </trkpt>
      <trkpt lat="46.98223" lon="0.4662">
        <ele>113</ele>
        <time>2026-03-14T14:00:26Z</time>
      </trkpt>
      <trkpt lat="46.98223" lon="0.46552">
        <ele>113.4</ele>
        <time>2026-03-14T14:00:35Z</time>
      </trkpt>
      <trkpt lat="46.98224" lon="0.46536">
        <ele>113.4</ele>
        <time>2026-03-14T14:00:37Z</time>
      </trkpt>
      <trkpt lat="46.98228" lon="0.46514">
        <ele>113.8</ele>
        <time>2026-03-14T14:00:41Z</time>
      </trkpt>
      <trkpt lat="46.98232" lon="0.46501">
        <ele>114</ele>
        <time>2026-03-14T14:00:42Z</time>
      </trkpt>
      <trkpt lat="46.98238" lon="0.46486">
        <ele>114</ele>
        <time>2026-03-14T14:00:44Z</time>
      </trkpt>
      <trkpt lat="46.98241" lon="0.4648">
        <ele>114.2</ele>
        <time>2026-03-14T14:00:45Z</time>
      </trkpt>
      <trkpt lat="46.98267" lon="0.46439">
        <ele>114.4</ele>
        <time>2026-03-14T14:00:52Z</time>
      </trkpt>
      <trkpt lat="46.98271" lon="0.46431">
        <ele>114.4</ele>
        <time>2026-03-14T14:00:53Z</time>
      </trkpt>
      <trkpt lat="46.98276" lon="0.46425">
        <ele>114.6</ele>
        <time>2026-03-14T14:00:54Z</time>
      </trkpt>
      <trkpt lat="46.98283" lon="0.46414">
        <ele>114.8</ele>
        <time>2026-03-14T14:00:56Z</time>
      </trkpt>
      <trkpt lat="46.98295" lon="0.46395">
        <ele>115</ele>
        <time>2026-03-14T14:00:59Z</time>
      </trkpt>
      <trkpt lat="46.98331" lon="0.46337">
        <ele>115</ele>
        <time>2026-03-14T14:01:08Z</time>
      </trkpt>
      <trkpt lat="46.98336" lon="0.46331">
        <ele>114.6</ele>
        <time>2026-03-14T14:01:09Z</time>
      </trkpt>
      <trkpt lat="46.9837" lon="0.46279">
        <ele>113.8</ele>
        <time>2026-03-14T14:01:17Z</time>
      </trkpt>
      <trkpt lat="46.98396" lon="0.46234">
        <ele>113.8</ele>
        <time>2026-03-14T14:01:24Z</time>
      </trkpt>
      <trkpt lat="46.98409" lon="0.46216">
        <ele>114</ele>
        <time>2026-03-14T14:01:27Z</time>
      </trkpt>
      <trkpt lat="46.98423" lon="0.46198">
        <ele>114.4</ele>
        <time>2026-03-14T14:01:31Z</time>
      </trkpt>
      <trkpt lat="46.98428" lon="0.46193">
        <ele>114.4</ele>
        <time>2026-03-14T14:01:32Z</time>
      </trkpt>
      <trkpt lat="46.98447" lon="0.46169">
        <ele>115</ele>
        <time>2026-03-14T14:01:37Z</time>
      </trkpt>
      <trkpt lat="46.98459" lon="0.46154">
        <ele>115.4</ele>
        <time>2026-03-14T14:01:40Z</time>
      </trkpt>
      <trkpt lat="46.98474" lon="0.46134">
        <ele>116.2</ele>
        <time>2026-03-14T14:01:44Z</time>
      </trkpt>
      <trkpt lat="46.98503" lon="0.46099">
        <ele>116.6</ele>
        <time>2026-03-14T14:01:51Z</time>
      </trkpt>
      <trkpt lat="46.98541" lon="0.46055">
        <ele>117</ele>
        <time>2026-03-14T14:02:00Z</time>
      </trkpt>
      <trkpt lat="46.9855" lon="0.46044">
        <ele>117.2</ele>
        <time>2026-03-14T14:02:02Z</time>
      </trkpt>
      <trkpt lat="46.98582" lon="0.46009">
        <ele>117.6</ele>
        <time>2026-03-14T14:02:09Z</time>
      </trkpt>
      <trkpt lat="46.98618" lon="0.45967">
        <ele>118</ele>
        <time>2026-03-14T14:02:17Z</time>
      </trkpt>
      <trkpt lat="46.98627" lon="0.45957">
        <ele>118</ele>
        <time>2026-03-14T14:02:19Z</time>
      </trkpt>
      <trkpt lat="46.98671" lon="0.45908">
        <ele>118.6</ele>
        <time>2026-03-14T14:02:29Z</time>
      </trkpt>
      <trkpt lat="46.98712" lon="0.45865">
        <ele>119</ele>
        <time>2026-03-14T14:02:38Z</time>
      </trkpt>
      <trkpt lat="46.98722" lon="0.45854">
        <ele>119</ele>
        <time>2026-03-14T14:02:40Z</time>
      </trkpt>
      <trkpt lat="46.9875" lon="0.45824">
        <ele>119</ele>
        <time>2026-03-14T14:02:46Z</time>
      </trkpt>
      <trkpt lat="46.98797" lon="0.45771">
        <ele>119</ele>
        <time>2026-03-14T14:02:56Z</time>
      </trkpt>
      <trkpt lat="46.988" lon="0.45767">
        <ele>119</ele>
        <time>2026-03-14T14:02:57Z</time>
      </trkpt>
      <trkpt lat="46.98814" lon="0.45747">
        <ele>119</ele>
        <time>2026-03-14T14:03:00Z</time>
      </trkpt>
      <trkpt lat="46.98825" lon="0.45727">
        <ele>118.8</ele>
        <time>2026-03-14T14:03:03Z</time>
      </trkpt>
      <trkpt lat="46.98858" lon="0.45668">
        <ele>118.4</ele>
        <time>2026-03-14T14:03:11Z</time>
      </trkpt>
      <trkpt lat="46.98892" lon="0.45606">
        <ele>118.2</ele>
        <time>2026-03-14T14:03:20Z</time>
      </trkpt>
      <trkpt lat="46.98899" lon="0.45592">
        <ele>118</ele>
        <time>2026-03-14T14:03:22Z</time>
      </trkpt>
      <trkpt lat="46.98917" lon="0.45555">
        <ele>117.8</ele>
        <time>2026-03-14T14:03:27Z</time>
      </trkpt>
      <trkpt lat="46.9892" lon="0.45547">
        <ele>117.8</ele>
        <time>2026-03-14T14:03:28Z</time>
      </trkpt>
      <trkpt lat="46.98935" lon="0.45508">
        <ele>117.6</ele>
        <time>2026-03-14T14:03:33Z</time>
      </trkpt>
      <trkpt lat="46.9896" lon="0.45435">
        <ele>117.2</ele>
        <time>2026-03-14T14:03:42Z</time>
      </trkpt>
      <trkpt lat="46.98967" lon="0.45417">
        <ele>117.2</ele>
        <time>2026-03-14T14:03:44Z</time>
      </trkpt>
      <trkpt lat="46.98993" lon="0.45345">
        <ele>117.2</ele>
        <time>2026-03-14T14:03:53Z</time>
      </trkpt>
      <trkpt lat="46.98995" lon="0.45337">
        <ele>117.2</ele>
        <time>2026-03-14T14:03:54Z</time>
      </trkpt>
      <trkpt lat="46.99013" lon="0.45291">
        <ele>117</ele>
        <time>2026-03-14T14:04:00Z</time>
      </trkpt>
      <trkpt lat="46.99025" lon="0.45256">
        <ele>116.8</ele>
        <time>2026-03-14T14:04:04Z</time>
      </trkpt>
      <trkpt lat="46.99046" lon="0.45198">
        <ele>116.6</ele>
        <time>2026-03-14T14:04:11Z</time>
      </trkpt>
      <trkpt lat="46.99058" lon="0.45164">
        <ele>116</ele>
        <time>2026-03-14T14:04:15Z</time>
      </trkpt>
      <trkpt lat="46.99074" lon="0.4513">
        <ele>115.6</ele>
        <time>2026-03-14T14:04:19Z</time>
      </trkpt>
      <trkpt lat="46.991" lon="0.45088">
        <ele>115</ele>
        <time>2026-03-14T14:04:25Z</time>
      </trkpt>
      <trkpt lat="46.99105" lon="0.45082">
        <ele>114.8</ele>
        <time>2026-03-14T14:04:26Z</time>
      </trkpt>
      <trkpt lat="46.99148" lon="0.45043">
        <ele>114.2</ele>
        <time>2026-03-14T14:04:33Z</time>
      </trkpt>
      <trkpt lat="46.99167" lon="0.45027">
        <ele>113.8</ele>
        <time>2026-03-14T14:04:36Z</time>
      </trkpt>
      <trkpt lat="46.9919" lon="0.45006">
        <ele>112.6</ele>
        <time>2026-03-14T14:04:39Z</time>
      </trkpt>
      <trkpt lat="46.99211" lon="0.44984">
        <ele>111.2</ele>
        <time>2026-03-14T14:04:42Z</time>
      </trkpt>
      <trkpt lat="46.9923" lon="0.44961">
        <ele>110.2</ele>
        <time>2026-03-14T14:04:45Z</time>
      </trkpt>
      <trkpt lat="46.99237" lon="0.44952">
        <ele>109.8</ele>
        <time>2026-03-14T14:04:46Z</time>
      </trkpt>
      <trkpt lat="46.99245" lon="0.44941">
        <ele>109.4</ele>
        <time>2026-03-14T14:04:47Z</time>
      </trkpt>
      <trkpt lat="46.99252" lon="0.44931">
        <ele>108.8</ele>
        <time>2026-03-14T14:04:49Z</time>
      </trkpt>
      <trkpt lat="46.99263" lon="0.44911">
        <ele>108</ele>
        <time>2026-03-14T14:04:50Z</time>
      </trkpt>
      <trkpt lat="46.99269" lon="0.449">
        <ele>107.6</ele>
        <time>2026-03-14T14:04:51Z</time>
      </trkpt>
      <trkpt lat="46.99287" lon="0.44865">
        <ele>106.2</ele>
        <time>2026-03-14T14:04:54Z</time>
      </trkpt>
      <trkpt lat="46.99298" lon="0.4484">
        <ele>105.4</ele>
        <time>2026-03-14T14:04:56Z</time>
      </trkpt>
      <trkpt lat="46.99304" lon="0.44825">
        <ele>104.8</ele>
        <time>2026-03-14T14:04:57Z</time>
      </trkpt>
      <trkpt lat="46.99313" lon="0.44801">
        <ele>103.8</ele>
        <time>2026-03-14T14:04:59Z</time>
      </trkpt>
      <trkpt lat="46.99321" lon="0.44775">
        <ele>102.6</ele>
        <time>2026-03-14T14:05:01Z</time>
      </trkpt>
      <trkpt lat="46.99326" lon="0.44758">
        <ele>102</ele>
        <time>2026-03-14T14:05:02Z</time>
      </trkpt>
      <trkpt lat="46.99332" lon="0.44732">
        <ele>101.2</ele>
        <time>2026-03-14T14:05:04Z</time>
      </trkpt>
      <trkpt lat="46.99338" lon="0.44704">
        <ele>100</ele>
        <time>2026-03-14T14:05:06Z</time>
      </trkpt>
      <trkpt lat="46.99343" lon="0.44676">
        <ele>98.8</ele>
        <time>2026-03-14T14:05:08Z</time>
      </trkpt>
      <trkpt lat="46.99346" lon="0.44661">
        <ele>98</ele>
        <time>2026-03-14T14:05:09Z</time>
      </trkpt>
      <trkpt lat="46.99352" lon="0.44633">
        <ele>97.4</ele>
        <time>2026-03-14T14:05:11Z</time>
      </trkpt>
      <trkpt lat="46.99356" lon="0.44616">
        <ele>96.2</ele>
        <time>2026-03-14T14:05:13Z</time>
      </trkpt>
      <trkpt lat="46.99363" lon="0.44579">
        <ele>95.2</ele>
        <time>2026-03-14T14:05:15Z</time>
      </trkpt>
      <trkpt lat="46.99365" lon="0.44566">
        <ele>94</ele>
        <time>2026-03-14T14:05:16Z</time>
      </trkpt>
      <trkpt lat="46.99371" lon="0.4454">
        <ele>92.8</ele>
        <time>2026-03-14T14:05:18Z</time>
      </trkpt>
      <trkpt lat="46.99375" lon="0.44519">
        <ele>91.8</ele>
        <time>2026-03-14T14:05:21Z</time>
      </trkpt>
      <trkpt lat="46.99386" lon="0.44467">
        <ele>91.4</ele>
        <time>2026-03-14T14:05:25Z</time>
      </trkpt>
      <trkpt lat="46.99396" lon="0.44418">
        <ele>92.4</ele>
        <time>2026-03-14T14:05:31Z</time>
      </trkpt>
      <trkpt lat="46.99399" lon="0.44402">
        <ele>92.8</ele>
        <time>2026-03-14T14:05:33Z</time>
      </trkpt>
      <trkpt lat="46.99406" lon="0.44375">
        <ele>93.4</ele>
        <time>2026-03-14T14:05:37Z</time>
      </trkpt>
      <trkpt lat="46.99407" lon="0.44368">
        <ele>93.8</ele>
        <time>2026-03-14T14:05:38Z</time>
      </trkpt>
      <trkpt lat="46.99411" lon="0.44349">
        <ele>94.8</ele>
        <time>2026-03-14T14:05:41Z</time>
      </trkpt>
      <trkpt lat="46.99412" lon="0.44342">
        <ele>95</ele>
        <time>2026-03-14T14:05:42Z</time>
      </trkpt>
      <trkpt lat="46.99414" lon="0.44336">
        <ele>95.2</ele>
        <time>2026-03-14T14:05:43Z</time>
      </trkpt>
      <trkpt lat="46.99418" lon="0.44317">
        <ele>96</ele>
        <time>2026-03-14T14:05:46Z</time>
      </trkpt>
      <trkpt lat="46.99426" lon="0.44287">
        <ele>96.8</ele>
        <time>2026-03-14T14:05:51Z</time>
      </trkpt>
      <trkpt lat="46.99434" lon="0.44258">
        <ele>97</ele>
        <time>2026-03-14T14:05:55Z</time>
      </trkpt>
      <trkpt lat="46.9944" lon="0.44241">
        <ele>97</ele>
        <time>2026-03-14T14:05:57Z</time>
      </trkpt>
      <trkpt lat="46.99454" lon="0.4419">
        <ele>95.8</ele>
        <time>2026-03-14T14:06:03Z</time>
      </trkpt>
      <trkpt lat="46.9946" lon="0.4417">
        <ele>95.8</ele>
        <time>2026-03-14T14:06:05Z</time>
      </trkpt>
      <trkpt lat="46.99476" lon="0.44112">
        <ele>94.6</ele>
        <time>2026-03-14T14:06:11Z</time>
      </trkpt>
      <trkpt lat="46.99479" lon="0.44102">
        <ele>94.6</ele>
        <time>2026-03-14T14:06:12Z</time>
      </trkpt>
      <trkpt lat="46.9949" lon="0.44062">
        <ele>93.4</ele>
        <time>2026-03-14T14:06:16Z</time>
      </trkpt>
      <trkpt lat="46.99506" lon="0.44005">
        <ele>92.6</ele>
        <time>2026-03-14T14:06:22Z</time>
      </trkpt>
      <trkpt lat="46.99511" lon="0.43988">
        <ele>92.4</ele>
        <time>2026-03-14T14:06:24Z</time>
      </trkpt>
      <trkpt lat="46.99518" lon="0.43965">
        <ele>92.2</ele>
        <time>2026-03-14T14:06:27Z</time>
      </trkpt>
      <trkpt lat="46.99533" lon="0.43914">
        <ele>92.4</ele>
        <time>2026-03-14T14:06:34Z</time>
      </trkpt>
      <trkpt lat="46.99549" lon="0.43861">
        <ele>93.6</ele>
        <time>2026-03-14T14:06:42Z</time>
      </trkpt>
      <trkpt lat="46.99571" lon="0.43781">
        <ele>93.8</ele>
        <time>2026-03-14T14:06:53Z</time>
      </trkpt>
      <trkpt lat="46.99574" lon="0.43774">
        <ele>93.8</ele>
        <time>2026-03-14T14:06:54Z</time>
      </trkpt>
      <trkpt lat="46.99592" lon="0.43711">
        <ele>93.4</ele>
        <time>2026-03-14T14:07:02Z</time>
      </trkpt>
      <trkpt lat="46.99613" lon="0.43637">
        <ele>93</ele>
        <time>2026-03-14T14:07:11Z</time>
      </trkpt>
      <trkpt lat="46.99616" lon="0.43629">
        <ele>93</ele>
        <time>2026-03-14T14:07:12Z</time>
      </trkpt>
      <trkpt lat="46.99634" lon="0.43564">
        <ele>93</ele>
        <time>2026-03-14T14:07:21Z</time>
      </trkpt>
      <trkpt lat="46.99649" lon="0.43516">
        <ele>93.8</ele>
        <time>2026-03-14T14:07:29Z</time>
      </trkpt>
      <trkpt lat="46.99659" lon="0.43474">
        <ele>94.8</ele>
        <time>2026-03-14T14:07:36Z</time>
      </trkpt>
      <trkpt lat="46.99661" lon="0.43468">
        <ele>95</ele>
        <time>2026-03-14T14:07:37Z</time>
      </trkpt>
      <trkpt lat="46.99671" lon="0.43438">
        <ele>95.8</ele>
        <time>2026-03-14T14:07:42Z</time>
      </trkpt>
      <trkpt lat="46.99681" lon="0.43408">
        <ele>96.6</ele>
        <time>2026-03-14T14:07:47Z</time>
      </trkpt>
      <trkpt lat="46.99683" lon="0.43402">
        <ele>96.8</ele>
        <time>2026-03-14T14:07:48Z</time>
      </trkpt>
      <trkpt lat="46.99697" lon="0.43355">
        <ele>98</ele>
        <time>2026-03-14T14:07:56Z</time>
      </trkpt>
      <trkpt lat="46.9971" lon="0.43306">
        <ele>98.8</ele>
        <time>2026-03-14T14:08:04Z</time>
      </trkpt>
      <trkpt lat="46.9971" lon="0.43306">
        <ele>99</ele>
        <time>2026-03-14T14:08:05Z</time>
      </trkpt>
      <trkpt lat="46.99726" lon="0.43252">
        <ele>100</ele>
        <time>2026-03-14T14:08:13Z</time>
      </trkpt>
      <trkpt lat="46.99728" lon="0.43247">
        <ele>100.2</ele>
        <time>2026-03-14T14:08:14Z</time>
      </trkpt>
      <trkpt lat="46.99733" lon="0.43228">
        <ele>101.2</ele>
        <time>2026-03-14T14:08:18Z</time>
      </trkpt>
      <trkpt lat="46.99755" lon="0.4315">
        <ele>102</ele>
        <time>2026-03-14T14:08:29Z</time>
      </trkpt>
      <trkpt lat="46.99767" lon="0.43108">
        <ele>102.2</ele>
        <time>2026-03-14T14:08:35Z</time>
      </trkpt>
      <trkpt lat="46.99775" lon="0.43081">
        <ele>102.2</ele>
        <time>2026-03-14T14:08:39Z</time>
      </trkpt>
      <trkpt lat="46.99791" lon="0.43025">
        <ele>102.2</ele>
        <time>2026-03-14T14:08:47Z</time>
      </trkpt>
      <trkpt lat="46.99806" lon="0.42974">
        <ele>103</ele>
        <time>2026-03-14T14:08:55Z</time>
      </trkpt>
      <trkpt lat="46.99807" lon="0.42968">
        <ele>103.2</ele>
        <time>2026-03-14T14:08:56Z</time>
      </trkpt>
      <trkpt lat="46.99821" lon="0.42926">
        <ele>104.2</ele>
        <time>2026-03-14T14:09:03Z</time>
      </trkpt>
      <trkpt lat="46.99826" lon="0.42908">
        <ele>104.8</ele>
        <time>2026-03-14T14:09:06Z</time>
      </trkpt>
      <trkpt lat="46.99832" lon="0.4289">
        <ele>105.4</ele>
        <time>2026-03-14T14:09:09Z</time>
      </trkpt>
      <trkpt lat="46.99844" lon="0.42845">
        <ele>106</ele>
        <time>2026-03-14T14:09:16Z</time>
      </trkpt>
      <trkpt lat="46.99857" lon="0.42799">
        <ele>106.4</ele>
        <time>2026-03-14T14:09:23Z</time>
      </trkpt>
      <trkpt lat="46.99859" lon="0.42792">
        <ele>106.6</ele>
        <time>2026-03-14T14:09:24Z</time>
      </trkpt>
      <trkpt lat="46.99873" lon="0.42739">
        <ele>107.2</ele>
        <time>2026-03-14T14:09:32Z</time>
      </trkpt>
      <trkpt lat="46.99883" lon="0.42705">
        <ele>107.6</ele>
        <time>2026-03-14T14:09:37Z</time>
      </trkpt>
      <trkpt lat="46.9989" lon="0.42678">
        <ele>108</ele>
        <time>2026-03-14T14:09:41Z</time>
      </trkpt>
      <trkpt lat="46.99903" lon="0.42633">
        <ele>108.6</ele>
        <time>2026-03-14T14:09:48Z</time>
      </trkpt>
      <trkpt lat="46.99909" lon="0.42613">
        <ele>108.8</ele>
        <time>2026-03-14T14:09:51Z</time>
      </trkpt>
      <trkpt lat="46.99921" lon="0.42549">
        <ele>109</ele>
        <time>2026-03-14T14:10:00Z</time>
      </trkpt>
      <trkpt lat="46.99934" lon="0.42465">
        <ele>108.6</ele>
        <time>2026-03-14T14:10:11Z</time>
      </trkpt>
      <trkpt lat="46.99946" lon="0.42383">
        <ele>108.6</ele>
        <time>2026-03-14T14:10:22Z</time>
      </trkpt>
      <trkpt lat="46.99958" lon="0.42301">
        <ele>107.8</ele>
        <time>2026-03-14T14:10:32Z</time>
      </trkpt>
      <trkpt lat="46.99959" lon="0.42292">
        <ele>107.8</ele>
        <time>2026-03-14T14:10:33Z</time>
      </trkpt>
      <trkpt lat="46.99963" lon="0.42263">
        <ele>107.6</ele>
        <time>2026-03-14T14:10:36Z</time>
      </trkpt>
      <trkpt lat="46.99967" lon="0.42231">
        <ele>107</ele>
        <time>2026-03-14T14:10:39Z</time>
      </trkpt>
      <trkpt lat="46.99969" lon="0.4222">
        <ele>106.6</ele>
        <time>2026-03-14T14:10:40Z</time>
      </trkpt>
      <trkpt lat="46.99974" lon="0.42186">
        <ele>105</ele>
        <time>2026-03-14T14:10:43Z</time>
      </trkpt>
      <trkpt lat="46.99979" lon="0.42151">
        <ele>103.8</ele>
        <time>2026-03-14T14:10:46Z</time>
      </trkpt>
      <trkpt lat="46.99981" lon="0.42139">
        <ele>103.4</ele>
        <time>2026-03-14T14:10:47Z</time>
      </trkpt>
      <trkpt lat="46.99985" lon="0.42115">
        <ele>102.8</ele>
        <time>2026-03-14T14:10:49Z</time>
      </trkpt>
      <trkpt lat="46.99989" lon="0.42077">
        <ele>101.4</ele>
        <time>2026-03-14T14:10:52Z</time>
      </trkpt>
      <trkpt lat="46.99991" lon="0.42051">
        <ele>100.4</ele>
        <time>2026-03-14T14:10:54Z</time>
      </trkpt>
      <trkpt lat="46.99991" lon="0.42038">
        <ele>99.8</ele>
        <time>2026-03-14T14:10:55Z</time>
      </trkpt>
      <trkpt lat="46.99991" lon="0.42012">
        <ele>98.6</ele>
        <time>2026-03-14T14:10:57Z</time>
      </trkpt>
      <trkpt lat="46.99987" lon="0.41972">
        <ele>97.2</ele>
        <time>2026-03-14T14:11:00Z</time>
      </trkpt>
      <trkpt lat="46.99981" lon="0.41932">
        <ele>96</ele>
        <time>2026-03-14T14:11:03Z</time>
      </trkpt>
      <trkpt lat="46.99976" lon="0.41905">
        <ele>94.4</ele>
        <time>2026-03-14T14:11:05Z</time>
      </trkpt>
      <trkpt lat="46.99971" lon="0.41877">
        <ele>93.2</ele>
        <time>2026-03-14T14:11:07Z</time>
      </trkpt>
      <trkpt lat="46.99965" lon="0.41849">
        <ele>92.2</ele>
        <time>2026-03-14T14:11:09Z</time>
      </trkpt>
      <trkpt lat="46.9996" lon="0.41821">
        <ele>91</ele>
        <time>2026-03-14T14:11:11Z</time>
      </trkpt>
      <trkpt lat="46.99954" lon="0.41791">
        <ele>89.8</ele>
        <time>2026-03-14T14:11:13Z</time>
      </trkpt>
      <trkpt lat="46.99949" lon="0.41763">
        <ele>88.2</ele>
        <time>2026-03-14T14:11:15Z</time>
      </trkpt>
      <trkpt lat="46.99944" lon="0.41735">
        <ele>86.6</ele>
        <time>2026-03-14T14:11:17Z</time>
      </trkpt>
      <trkpt lat="46.99938" lon="0.41706">
        <ele>85.2</ele>
        <time>2026-03-14T14:11:19Z</time>
      </trkpt>
      <trkpt lat="46.99933" lon="0.41677">
        <ele>84.2</ele>
        <time>2026-03-14T14:11:21Z</time>
      </trkpt>
      <trkpt lat="46.99925" lon="0.41634">
        <ele>82.6</ele>
        <time>2026-03-14T14:11:24Z</time>
      </trkpt>
      <trkpt lat="46.99919" lon="0.41606">
        <ele>81.4</ele>
        <time>2026-03-14T14:11:26Z</time>
      </trkpt>
      <trkpt lat="46.99911" lon="0.41565">
        <ele>79.8</ele>
        <time>2026-03-14T14:11:29Z</time>
      </trkpt>
      <trkpt lat="46.99907" lon="0.41538">
        <ele>78.6</ele>
        <time>2026-03-14T14:11:31Z</time>
      </trkpt>
      <trkpt lat="46.999" lon="0.41499">
        <ele>77.4</ele>
        <time>2026-03-14T14:11:34Z</time>
      </trkpt>
      <trkpt lat="46.99897" lon="0.41487">
        <ele>77.4</ele>
        <time>2026-03-14T14:11:35Z</time>
      </trkpt>
      <trkpt lat="46.99892" lon="0.41461">
        <ele>76.4</ele>
        <time>2026-03-14T14:11:37Z</time>
      </trkpt>
      <trkpt lat="46.99881" lon="0.41399">
        <ele>74.8</ele>
        <time>2026-03-14T14:11:42Z</time>
      </trkpt>
      <trkpt lat="46.99873" lon="0.41361">
        <ele>73.8</ele>
        <time>2026-03-14T14:11:45Z</time>
      </trkpt>
      <trkpt lat="46.99862" lon="0.41299">
        <ele>72.6</ele>
        <time>2026-03-14T14:11:50Z</time>
      </trkpt>
      <trkpt lat="46.99852" lon="0.41249">
        <ele>71.6</ele>
        <time>2026-03-14T14:11:54Z</time>
      </trkpt>
      <trkpt lat="46.9985" lon="0.41237">
        <ele>71.4</ele>
        <time>2026-03-14T14:11:55Z</time>
      </trkpt>
      <trkpt lat="46.99843" lon="0.41201">
        <ele>70.4</ele>
        <time>2026-03-14T14:11:58Z</time>
      </trkpt>
      <trkpt lat="46.99834" lon="0.41153">
        <ele>69.4</ele>
        <time>2026-03-14T14:12:02Z</time>
      </trkpt>
      <trkpt lat="46.99826" lon="0.41094">
        <ele>68.4</ele>
        <time>2026-03-14T14:12:07Z</time>
      </trkpt>
      <trkpt lat="46.99825" lon="0.41082">
        <ele>68.2</ele>
        <time>2026-03-14T14:12:08Z</time>
      </trkpt>
      <trkpt lat="46.99827" lon="0.41026">
        <ele>67.4</ele>
        <time>2026-03-14T14:12:13Z</time>
      </trkpt>
      <trkpt lat="46.9983" lon="0.40993">
        <ele>67</ele>
        <time>2026-03-14T14:12:16Z</time>
      </trkpt>
      <trkpt lat="46.99835" lon="0.4093">
        <ele>66.4</ele>
        <time>2026-03-14T14:12:22Z</time>
      </trkpt>
      <trkpt lat="46.99837" lon="0.40899">
        <ele>66</ele>
        <time>2026-03-14T14:12:25Z</time>
      </trkpt>
      <trkpt lat="46.99842" lon="0.40836">
        <ele>65.6</ele>
        <time>2026-03-14T14:12:31Z</time>
      </trkpt>
      <trkpt lat="46.99846" lon="0.40778">
        <ele>65.2</ele>
        <time>2026-03-14T14:12:37Z</time>
      </trkpt>
      <trkpt lat="46.99848" lon="0.40751">
        <ele>65</ele>
        <time>2026-03-14T14:12:40Z</time>
      </trkpt>
      <trkpt lat="46.9985" lon="0.40733">
        <ele>65</ele>
        <time>2026-03-14T14:12:42Z</time>
      </trkpt>
      <trkpt lat="46.99853" lon="0.40683">
        <ele>65</ele>
        <time>2026-03-14T14:12:48Z</time>
      </trkpt>
      <trkpt lat="46.99858" lon="0.40614">
        <ele>66</ele>
        <time>2026-03-14T14:12:57Z</time>
      </trkpt>
      <trkpt lat="46.99863" lon="0.4055">
        <ele>66.6</ele>
        <time>2026-03-14T14:13:05Z</time>
      </trkpt>
      <trkpt lat="46.99866" lon="0.40504">
        <ele>67</ele>
        <time>2026-03-14T14:13:11Z</time>
      </trkpt>
      <trkpt lat="46.99868" lon="0.4048">
        <ele>67.4</ele>
        <time>2026-03-14T14:13:14Z</time>
      </trkpt>
      <trkpt lat="46.99873" lon="0.4041">
        <ele>68</ele>
        <time>2026-03-14T14:13:23Z</time>
      </trkpt>
      <trkpt lat="46.99873" lon="0.40402">
        <ele>68.2</ele>
        <time>2026-03-14T14:13:24Z</time>
      </trkpt>
      <trkpt lat="46.99877" lon="0.40345">
        <ele>69.2</ele>
        <time>2026-03-14T14:13:32Z</time>
      </trkpt>
      <trkpt lat="46.99878" lon="0.40338">
        <ele>69.2</ele>
        <time>2026-03-14T14:13:33Z</time>
      </trkpt>
      <trkpt lat="46.99885" lon="0.40252">
        <ele>69.8</ele>
        <time>2026-03-14T14:13:44Z</time>
      </trkpt>
      <trkpt lat="46.99885" lon="0.40244">
        <ele>69.8</ele>
        <time>2026-03-14T14:13:45Z</time>
      </trkpt>
      <trkpt lat="46.99889" lon="0.40189">
        <ele>69.8</ele>
        <time>2026-03-14T14:13:51Z</time>
      </trkpt>
      <trkpt lat="46.99895" lon="0.40109">
        <ele>69</ele>
        <time>2026-03-14T14:13:59Z</time>
      </trkpt>
      <trkpt lat="46.99896" lon="0.4009">
        <ele>69</ele>
        <time>2026-03-14T14:14:01Z</time>
      </trkpt>
      <trkpt lat="46.99902" lon="0.40013">
        <ele>68.6</ele>
        <time>2026-03-14T14:14:09Z</time>
      </trkpt>
      <trkpt lat="46.99908" lon="0.39925">
        <ele>68.4</ele>
        <time>2026-03-14T14:14:18Z</time>
      </trkpt>
      <trkpt lat="46.99909" lon="0.39915">
        <ele>68.4</ele>
        <time>2026-03-14T14:14:19Z</time>
      </trkpt>
      <trkpt lat="46.99914" lon="0.39839">
        <ele>68</ele>
        <time>2026-03-14T14:14:27Z</time>
      </trkpt>
      <trkpt lat="46.99916" lon="0.3981">
        <ele>68</ele>
        <time>2026-03-14T14:14:30Z</time>
      </trkpt>
      <trkpt lat="46.99922" lon="0.39726">
        <ele>67.4</ele>
        <time>2026-03-14T14:14:39Z</time>
      </trkpt>
      <trkpt lat="46.99922" lon="0.39716">
        <ele>67.4</ele>
        <time>2026-03-14T14:14:40Z</time>
      </trkpt>
      <trkpt lat="46.99928" lon="0.39633">
        <ele>67</ele>
        <time>2026-03-14T14:14:49Z</time>
      </trkpt>
      <trkpt lat="46.99933" lon="0.39558">
        <ele>66.4</ele>
        <time>2026-03-14T14:14:57Z</time>
      </trkpt>
      <trkpt lat="46.99938" lon="0.39504">
        <ele>66.2</ele>
        <time>2026-03-14T14:15:03Z</time>
      </trkpt>
      <trkpt lat="46.9994" lon="0.39495">
        <ele>66.2</ele>
        <time>2026-03-14T14:15:04Z</time>
      </trkpt>
      <trkpt lat="46.99961" lon="0.39439">
        <ele>66</ele>
        <time>2026-03-14T14:15:11Z</time>
      </trkpt>
      <trkpt lat="46.9997" lon="0.39418">
        <ele>66.2</ele>
        <time>2026-03-14T14:15:14Z</time>
      </trkpt>
      <trkpt lat="46.99982" lon="0.3939">
        <ele>66.2</ele>
        <time>2026-03-14T14:15:18Z</time>
      </trkpt>
      <trkpt lat="46.99986" lon="0.39381">
        <ele>66.2</ele>
        <time>2026-03-14T14:15:19Z</time>
      </trkpt>
      <trkpt lat="46.99999" lon="0.39358">
        <ele>66.4</ele>
        <time>2026-03-14T14:15:23Z</time>
      </trkpt>
      <trkpt lat="47.00023" lon="0.3931">
        <ele>67.4</ele>
        <time>2026-03-14T14:15:31Z</time>
      </trkpt>
      <trkpt lat="47.00037" lon="0.39282">
        <ele>68</ele>
        <time>2026-03-14T14:15:36Z</time>
      </trkpt>
      <trkpt lat="47.00048" lon="0.39258">
        <ele>68.4</ele>
        <time>2026-03-14T14:15:40Z</time>
      </trkpt>
      <trkpt lat="47.00065" lon="0.39221">
        <ele>69.2</ele>
        <time>2026-03-14T14:15:46Z</time>
      </trkpt>
      <trkpt lat="47.00075" lon="0.39198">
        <ele>69.6</ele>
        <time>2026-03-14T14:15:50Z</time>
      </trkpt>
      <trkpt lat="47.00088" lon="0.39171">
        <ele>70.4</ele>
        <time>2026-03-14T14:15:55Z</time>
      </trkpt>
      <trkpt lat="47.00095" lon="0.39155">
        <ele>70.6</ele>
        <time>2026-03-14T14:15:58Z</time>
      </trkpt>
      <trkpt lat="47.00104" lon="0.39141">
        <ele>71</ele>
        <time>2026-03-14T14:16:01Z</time>
      </trkpt>
      <trkpt lat="47.00108" lon="0.39132">
        <ele>71</ele>
        <time>2026-03-14T14:16:03Z</time>
      </trkpt>
      <trkpt lat="47.00117" lon="0.39111">
        <ele>71.4</ele>
        <time>2026-03-14T14:16:07Z</time>
      </trkpt>
      <trkpt lat="47.00131" lon="0.39086">
        <ele>72</ele>
        <time>2026-03-14T14:16:12Z</time>
      </trkpt>
      <trkpt lat="47.00141" lon="0.39062">
        <ele>72.4</ele>
        <time>2026-03-14T14:16:16Z</time>
      </trkpt>
      <trkpt lat="47.00148" lon="0.39042">
        <ele>72.8</ele>
        <time>2026-03-14T14:16:19Z</time>
      </trkpt>
      <trkpt lat="47.00158" lon="0.38988">
        <ele>72.8</ele>
        <time>2026-03-14T14:16:26Z</time>
      </trkpt>
      <trkpt lat="47.00167" lon="0.38912">
        <ele>72.8</ele>
        <time>2026-03-14T14:16:35Z</time>
      </trkpt>
      <trkpt lat="47.00174" lon="0.38856">
        <ele>72.4</ele>
        <time>2026-03-14T14:16:41Z</time>
      </trkpt>
      <trkpt lat="47.00185" lon="0.38776">
        <ele>72.8</ele>
        <time>2026-03-14T14:16:50Z</time>
      </trkpt>
      <trkpt lat="47.00189" lon="0.38749">
        <ele>72.6</ele>
        <time>2026-03-14T14:16:53Z</time>
      </trkpt>
      <trkpt lat="47.002" lon="0.38669">
        <ele>72</ele>
        <time>2026-03-14T14:17:02Z</time>
      </trkpt>
      <trkpt lat="47.00201" lon="0.3866">
        <ele>72</ele>
        <time>2026-03-14T14:17:03Z</time>
      </trkpt>
      <trkpt lat="47.00211" lon="0.38576">
        <ele>71.6</ele>
        <time>2026-03-14T14:17:12Z</time>
      </trkpt>
      <trkpt lat="47.00213" lon="0.38557">
        <ele>71.4</ele>
        <time>2026-03-14T14:17:14Z</time>
      </trkpt>
      <trkpt lat="47.00216" lon="0.38539">
        <ele>71.4</ele>
        <time>2026-03-14T14:17:16Z</time>
      </trkpt>
      <trkpt lat="47.00226" lon="0.38465">
        <ele>71</ele>
        <time>2026-03-14T14:17:24Z</time>
      </trkpt>
      <trkpt lat="47.00238" lon="0.38393">
        <ele>70.8</ele>
        <time>2026-03-14T14:17:32Z</time>
      </trkpt>
      <trkpt lat="47.00248" lon="0.3836">
        <ele>70.8</ele>
        <time>2026-03-14T14:17:36Z</time>
      </trkpt>
      <trkpt lat="47.00254" lon="0.38346">
        <ele>70.8</ele>
        <time>2026-03-14T14:17:38Z</time>
      </trkpt>
      <trkpt lat="47.00291" lon="0.38284">
        <ele>70.8</ele>
        <time>2026-03-14T14:17:47Z</time>
      </trkpt>
      <trkpt lat="47.00294" lon="0.38279">
        <ele>70.8</ele>
        <time>2026-03-14T14:17:48Z</time>
      </trkpt>
      <trkpt lat="47.00334" lon="0.38214">
        <ele>70.8</ele>
        <time>2026-03-14T14:17:58Z</time>
      </trkpt>
      <trkpt lat="47.00364" lon="0.38163">
        <ele>71</ele>
        <time>2026-03-14T14:18:06Z</time>
      </trkpt>
      <trkpt lat="47.00404" lon="0.38098">
        <ele>71.4</ele>
        <time>2026-03-14T14:18:16Z</time>
      </trkpt>
      <trkpt lat="47.00412" lon="0.38085">
        <ele>71.6</ele>
        <time>2026-03-14T14:18:18Z</time>
      </trkpt>
      <trkpt lat="47.0044" lon="0.38039">
        <ele>72.2</ele>
        <time>2026-03-14T14:18:25Z</time>
      </trkpt>
      <trkpt lat="47.00479" lon="0.37974">
        <ele>72.4</ele>
        <time>2026-03-14T14:18:35Z</time>
      </trkpt>
      <trkpt lat="47.00486" lon="0.37959">
        <ele>72.4</ele>
        <time>2026-03-14T14:18:37Z</time>
      </trkpt>
      <trkpt lat="47.00516" lon="0.37891">
        <ele>72.4</ele>
        <time>2026-03-14T14:18:46Z</time>
      </trkpt>
      <trkpt lat="47.00547" lon="0.37815">
        <ele>71.8</ele>
        <time>2026-03-14T14:18:55Z</time>
      </trkpt>
      <trkpt lat="47.0057" lon="0.37762">
        <ele>71.2</ele>
        <time>2026-03-14T14:19:01Z</time>
      </trkpt>
      <trkpt lat="47.00588" lon="0.37716">
        <ele>70.2</ele>
        <time>2026-03-14T14:19:06Z</time>
      </trkpt>
      <trkpt lat="47.00599" lon="0.37687">
        <ele>69.6</ele>
        <time>2026-03-14T14:19:09Z</time>
      </trkpt>
      <trkpt lat="47.00607" lon="0.37668">
        <ele>69</ele>
        <time>2026-03-14T14:19:11Z</time>
      </trkpt>
      <trkpt lat="47.00633" lon="0.37603">
        <ele>68</ele>
        <time>2026-03-14T14:19:18Z</time>
      </trkpt>
      <trkpt lat="47.0064" lon="0.37585">
        <ele>68</ele>
        <time>2026-03-14T14:19:20Z</time>
      </trkpt>
      <trkpt lat="47.0067" lon="0.37509">
        <ele>66.8</ele>
        <time>2026-03-14T14:19:28Z</time>
      </trkpt>
      <trkpt lat="47.00689" lon="0.37459">
        <ele>65.6</ele>
        <time>2026-03-14T14:19:33Z</time>
      </trkpt>
      <trkpt lat="47.007" lon="0.37431">
        <ele>64.8</ele>
        <time>2026-03-14T14:19:36Z</time>
      </trkpt>
      <trkpt lat="47.00716" lon="0.37395">
        <ele>64.2</ele>
        <time>2026-03-14T14:19:40Z</time>
      </trkpt>
      <trkpt lat="47.00732" lon="0.37362">
        <ele>64</ele>
        <time>2026-03-14T14:19:44Z</time>
      </trkpt>
      <trkpt lat="47.00768" lon="0.37291">
        <ele>63.6</ele>
        <time>2026-03-14T14:19:53Z</time>
      </trkpt>
      <trkpt lat="47.00792" lon="0.37246">
        <ele>63.2</ele>
        <time>2026-03-14T14:19:59Z</time>
      </trkpt>
      <trkpt lat="47.00815" lon="0.37201">
        <ele>62.8</ele>
        <time>2026-03-14T14:20:05Z</time>
      </trkpt>
      <trkpt lat="47.00848" lon="0.37134">
        <ele>62.4</ele>
        <time>2026-03-14T14:20:14Z</time>
      </trkpt>
      <trkpt lat="47.00863" lon="0.37105">
        <ele>62.2</ele>
        <time>2026-03-14T14:20:18Z</time>
      </trkpt>
      <trkpt lat="47.0087" lon="0.37091">
        <ele>62.2</ele>
        <time>2026-03-14T14:20:20Z</time>
      </trkpt>
      <trkpt lat="47.00891" lon="0.37049">
        <ele>62</ele>
        <time>2026-03-14T14:20:26Z</time>
      </trkpt>
      <trkpt lat="47.00924" lon="0.36983">
        <ele>62</ele>
        <time>2026-03-14T14:20:35Z</time>
      </trkpt>
      <trkpt lat="47.00936" lon="0.3696">
        <ele>61.6</ele>
        <time>2026-03-14T14:20:38Z</time>
      </trkpt>
      <trkpt lat="47.0097" lon="0.36892">
        <ele>61.2</ele>
        <time>2026-03-14T14:20:47Z</time>
      </trkpt>
      <trkpt lat="47.00978" lon="0.36876">
        <ele>61</ele>
        <time>2026-03-14T14:20:49Z</time>
      </trkpt>
      <trkpt lat="47.01013" lon="0.36807">
        <ele>60.4</ele>
        <time>2026-03-14T14:20:58Z</time>
      </trkpt>
      <trkpt lat="47.01028" lon="0.36776">
        <ele>60.2</ele>
        <time>2026-03-14T14:21:02Z</time>
      </trkpt>
      <trkpt lat="47.0104" lon="0.36753">
        <ele>60</ele>
        <time>2026-03-14T14:21:05Z</time>
      </trkpt>
      <trkpt lat="47.01052" lon="0.36719">
        <ele>59.8</ele>
        <time>2026-03-14T14:21:09Z</time>
      </trkpt>
      <trkpt lat="47.01063" lon="0.36662">
        <ele>59.8</ele>
        <time>2026-03-14T14:21:15Z</time>
      </trkpt>
      <trkpt lat="47.01069" lon="0.3658">
        <ele>59</ele>
        <time>2026-03-14T14:21:23Z</time>
      </trkpt>
      <trkpt lat="47.0107" lon="0.3657">
        <ele>58.8</ele>
        <time>2026-03-14T14:21:24Z</time>
      </trkpt>
      <trkpt lat="47.01075" lon="0.36496">
        <ele>58.4</ele>
        <time>2026-03-14T14:21:31Z</time>
      </trkpt>
      <trkpt lat="47.01078" lon="0.36456">
        <ele>57.8</ele>
        <time>2026-03-14T14:21:35Z</time>
      </trkpt>
      <trkpt lat="47.01081" lon="0.36405">
        <ele>57.2</ele>
        <time>2026-03-14T14:21:40Z</time>
      </trkpt>
      <trkpt lat="47.01084" lon="0.36374">
        <ele>56.6</ele>
        <time>2026-03-14T14:21:43Z</time>
      </trkpt>
      <trkpt lat="47.01092" lon="0.36334">
        <ele>55.8</ele>
        <time>2026-03-14T14:21:47Z</time>
      </trkpt>
      <trkpt lat="47.01098" lon="0.36316">
        <ele>55.6</ele>
        <time>2026-03-14T14:21:49Z</time>
      </trkpt>
      <trkpt lat="47.01114" lon="0.36281">
        <ele>55.2</ele>
        <time>2026-03-14T14:21:53Z</time>
      </trkpt>
      <trkpt lat="47.0114" lon="0.36227">
        <ele>54.4</ele>
        <time>2026-03-14T14:21:59Z</time>
      </trkpt>
      <trkpt lat="47.01148" lon="0.3621">
        <ele>54.2</ele>
        <time>2026-03-14T14:22:01Z</time>
      </trkpt>
      <trkpt lat="47.01168" lon="0.36166">
        <ele>53.2</ele>
        <time>2026-03-14T14:22:06Z</time>
      </trkpt>
      <trkpt lat="47.01184" lon="0.36132">
        <ele>52.4</ele>
        <time>2026-03-14T14:22:10Z</time>
      </trkpt>
      <trkpt lat="47.01198" lon="0.36109">
        <ele>52</ele>
        <time>2026-03-14T14:22:13Z</time>
      </trkpt>
      <trkpt lat="47.0123" lon="0.36057">
        <ele>51.2</ele>
        <time>2026-03-14T14:22:20Z</time>
      </trkpt>
      <trkpt lat="47.01241" lon="0.36037">
        <ele>51</ele>
        <time>2026-03-14T14:22:23Z</time>
      </trkpt>
      <trkpt lat="47.01248" lon="0.36022">
        <ele>51</ele>
        <time>2026-03-14T14:22:25Z</time>
      </trkpt>
      <trkpt lat="47.01272" lon="0.3596">
        <ele>51.4</ele>
        <time>2026-03-14T14:22:33Z</time>
      </trkpt>
      <trkpt lat="47.01304" lon="0.35905">
        <ele>51.2</ele>
        <time>2026-03-14T14:22:41Z</time>
      </trkpt>
      <trkpt lat="47.01344" lon="0.3586">
        <ele>50.6</ele>
        <time>2026-03-14T14:22:49Z</time>
      </trkpt>
      <trkpt lat="47.01385" lon="0.35832">
        <ele>50.2</ele>
        <time>2026-03-14T14:22:56Z</time>
      </trkpt>
      <trkpt lat="47.01409" lon="0.35822">
        <ele>50</ele>
        <time>2026-03-14T14:23:00Z</time>
      </trkpt>
      <trkpt lat="47.01433" lon="0.35814">
        <ele>50.2</ele>
        <time>2026-03-14T14:23:04Z</time>
      </trkpt>
      <trkpt lat="47.0148" lon="0.35794">
        <ele>50.6</ele>
        <time>2026-03-14T14:23:12Z</time>
      </trkpt>
      <trkpt lat="47.01516" lon="0.35764">
        <ele>50.2</ele>
        <time>2026-03-14T14:23:18Z</time>
      </trkpt>
      <trkpt lat="47.01547" lon="0.35727">
        <ele>49</ele>
        <time>2026-03-14T14:23:23Z</time>
      </trkpt>
      <trkpt lat="47.01553" lon="0.35719">
        <ele>48.6</ele>
        <time>2026-03-14T14:23:24Z</time>
      </trkpt>
      <trkpt lat="47.01559" lon="0.35709">
        <ele>48</ele>
        <time>2026-03-14T14:23:25Z</time>
      </trkpt>
      <trkpt lat="47.01563" lon="0.35699">
        <ele>47.8</ele>
        <time>2026-03-14T14:23:26Z</time>
      </trkpt>
      <trkpt lat="47.01571" lon="0.35677">
        <ele>47.2</ele>
        <time>2026-03-14T14:23:28Z</time>
      </trkpt>
      <trkpt lat="47.01575" lon="0.35666">
        <ele>46.4</ele>
        <time>2026-03-14T14:23:29Z</time>
      </trkpt>
      <trkpt lat="47.01585" lon="0.3563">
        <ele>45</ele>
        <time>2026-03-14T14:23:32Z</time>
      </trkpt>
      <trkpt lat="47.01602" lon="0.35572">
        <ele>44</ele>
        <time>2026-03-14T14:23:37Z</time>
      </trkpt>
      <trkpt lat="47.01605" lon="0.35561">
        <ele>43.8</ele>
        <time>2026-03-14T14:23:38Z</time>
      </trkpt>
      <trkpt lat="47.01611" lon="0.35527">
        <ele>42.8</ele>
        <time>2026-03-14T14:23:41Z</time>
      </trkpt>
      <trkpt lat="47.01618" lon="0.35493">
        <ele>42</ele>
        <time>2026-03-14T14:23:44Z</time>
      </trkpt>
      <trkpt lat="47.01624" lon="0.35473">
        <ele>41.6</ele>
        <time>2026-03-14T14:23:46Z</time>
      </trkpt>
      <trkpt lat="47.01635" lon="0.35445">
        <ele>41.2</ele>
        <time>2026-03-14T14:23:49Z</time>
      </trkpt>
      <trkpt lat="47.01655" lon="0.35403">
        <ele>40.4</ele>
        <time>2026-03-14T14:23:54Z</time>
      </trkpt>
      <trkpt lat="47.01666" lon="0.35378">
        <ele>40.4</ele>
        <time>2026-03-14T14:23:57Z</time>
      </trkpt>
      <trkpt lat="47.01701" lon="0.35306">
        <ele>39.8</ele>
        <time>2026-03-14T14:24:06Z</time>
      </trkpt>
      <trkpt lat="47.01704" lon="0.35299">
        <ele>39.8</ele>
        <time>2026-03-14T14:24:07Z</time>
      </trkpt>
      <trkpt lat="47.01726" lon="0.35252">
        <ele>39.4</ele>
        <time>2026-03-14T14:24:13Z</time>
      </trkpt>
      <trkpt lat="47.01738" lon="0.35229">
        <ele>39.2</ele>
        <time>2026-03-14T14:24:16Z</time>
      </trkpt>
      <trkpt lat="47.01761" lon="0.35196">
        <ele>39</ele>
        <time>2026-03-14T14:24:21Z</time>
      </trkpt>
      <trkpt lat="47.01795" lon="0.35168">
        <ele>38.8</ele>
        <time>2026-03-14T14:24:27Z</time>
      </trkpt>
      <trkpt lat="47.01846" lon="0.35132">
        <ele>38.8</ele>
        <time>2026-03-14T14:24:36Z</time>
      </trkpt>
      <trkpt lat="47.01852" lon="0.35128">
        <ele>38.8</ele>
        <time>2026-03-14T14:24:37Z</time>
      </trkpt>
      <trkpt lat="47.01902" lon="0.35087">
        <ele>38.6</ele>
        <time>2026-03-14T14:24:46Z</time>
      </trkpt>
      <trkpt lat="47.01907" lon="0.35082">
        <ele>38.6</ele>
        <time>2026-03-14T14:24:47Z</time>
      </trkpt>
      <trkpt lat="47.01939" lon="0.35052">
        <ele>38.6</ele>
        <time>2026-03-14T14:24:53Z</time>
      </trkpt>
      <trkpt lat="47.01985" lon="0.35024">
        <ele>38.6</ele>
        <time>2026-03-14T14:25:01Z</time>
      </trkpt>
      <trkpt lat="47.02033" lon="0.35003">
        <ele>38.4</ele>
        <time>2026-03-14T14:25:09Z</time>
      </trkpt>
      <trkpt lat="47.02053" lon="0.34997">
        <ele>38.2</ele>
        <time>2026-03-14T14:25:12Z</time>
      </trkpt>
      <trkpt lat="47.02074" lon="0.34996">
        <ele>38.2</ele>
        <time>2026-03-14T14:25:15Z</time>
      </trkpt>
      <trkpt lat="47.0213" lon="0.34994">
        <ele>38.2</ele>
        <time>2026-03-14T14:25:23Z</time>
      </trkpt>
      <trkpt lat="47.02144" lon="0.34994">
        <ele>38.2</ele>
        <time>2026-03-14T14:25:25Z</time>
      </trkpt>
      <trkpt lat="47.02184" lon="0.34986">
        <ele>38.2</ele>
        <time>2026-03-14T14:25:31Z</time>
      </trkpt>
      <trkpt lat="47.02232" lon="0.34963">
        <ele>38.8</ele>
        <time>2026-03-14T14:25:39Z</time>
      </trkpt>
      <trkpt lat="47.02278" lon="0.34939">
        <ele>38.8</ele>
        <time>2026-03-14T14:25:47Z</time>
      </trkpt>
      <trkpt lat="47.02334" lon="0.34912">
        <ele>38.4</ele>
        <time>2026-03-14T14:25:56Z</time>
      </trkpt>
      <trkpt lat="47.02386" lon="0.34889">
        <ele>38.2</ele>
        <time>2026-03-14T14:26:05Z</time>
      </trkpt>
      <trkpt lat="47.02391" lon="0.34886">
        <ele>38.2</ele>
        <time>2026-03-14T14:26:06Z</time>
      </trkpt>
      <trkpt lat="47.02441" lon="0.34865">
        <ele>39</ele>
        <time>2026-03-14T14:26:15Z</time>
      </trkpt>
      <trkpt lat="47.02456" lon="0.34855">
        <ele>39.2</ele>
        <time>2026-03-14T14:26:18Z</time>
      </trkpt>
      <trkpt lat="47.0247" lon="0.34842">
        <ele>39.4</ele>
        <time>2026-03-14T14:26:21Z</time>
      </trkpt>
      <trkpt lat="47.02474" lon="0.34837">
        <ele>39.6</ele>
        <time>2026-03-14T14:26:22Z</time>
      </trkpt>
      <trkpt lat="47.02489" lon="0.34813">
        <ele>39.8</ele>
        <time>2026-03-14T14:26:26Z</time>
      </trkpt>
      <trkpt lat="47.02511" lon="0.34769">
        <ele>40.2</ele>
        <time>2026-03-14T14:26:33Z</time>
      </trkpt>
      <trkpt lat="47.02519" lon="0.34758">
        <ele>40.4</ele>
        <time>2026-03-14T14:26:35Z</time>
      </trkpt>
      <trkpt lat="47.02533" lon="0.34745">
        <ele>40.4</ele>
        <time>2026-03-14T14:26:38Z</time>
      </trkpt>
      <trkpt lat="47.0257" lon="0.34725">
        <ele>40.6</ele>
        <time>2026-03-14T14:26:45Z</time>
      </trkpt>
      <trkpt lat="47.02603" lon="0.34716">
        <ele>41</ele>
        <time>2026-03-14T14:26:51Z</time>
      </trkpt>
      <trkpt lat="47.02608" lon="0.34717">
        <ele>41.2</ele>
        <time>2026-03-14T14:26:52Z</time>
      </trkpt>
      <trkpt lat="47.02614" lon="0.34718">
        <ele>41.2</ele>
        <time>2026-03-14T14:26:53Z</time>
      </trkpt>
      <trkpt lat="47.02624" lon="0.34723">
        <ele>41.6</ele>
        <time>2026-03-14T14:26:55Z</time>
      </trkpt>
      <trkpt lat="47.02629" lon="0.34725">
        <ele>41.6</ele>
        <time>2026-03-14T14:26:56Z</time>
      </trkpt>
      <trkpt lat="47.0264" lon="0.34724">
        <ele>41.8</ele>
        <time>2026-03-14T14:26:58Z</time>
      </trkpt>
      <trkpt lat="47.02645" lon="0.3472">
        <ele>42</ele>
        <time>2026-03-14T14:26:59Z</time>
      </trkpt>
      <trkpt lat="47.02648" lon="0.34715">
        <ele>42</ele>
        <time>2026-03-14T14:27:00Z</time>
      </trkpt>
      <trkpt lat="47.02652" lon="0.347">
        <ele>42.2</ele>
        <time>2026-03-14T14:27:02Z</time>
      </trkpt>
      <trkpt lat="47.02649" lon="0.34683">
        <ele>42.4</ele>
        <time>2026-03-14T14:27:04Z</time>
      </trkpt>
      <trkpt lat="47.02646" lon="0.34676">
        <ele>42.4</ele>
        <time>2026-03-14T14:27:05Z</time>
      </trkpt>
      <trkpt lat="47.02641" lon="0.3467">
        <ele>42.6</ele>
        <time>2026-03-14T14:27:06Z</time>
      </trkpt>
      <trkpt lat="47.02629" lon="0.34663">
        <ele>42.6</ele>
        <time>2026-03-14T14:27:08Z</time>
      </trkpt>
      <trkpt lat="47.02623" lon="0.3466">
        <ele>42.6</ele>
        <time>2026-03-14T14:27:09Z</time>
      </trkpt>
      <trkpt lat="47.02608" lon="0.34643">
        <ele>42.4</ele>
        <time>2026-03-14T14:27:12Z</time>
      </trkpt>
      <trkpt lat="47.02568" lon="0.34576">
        <ele>41.8</ele>
        <time>2026-03-14T14:27:21Z</time>
      </trkpt>
      <trkpt lat="47.02555" lon="0.34553">
        <ele>41.4</ele>
        <time>2026-03-14T14:27:24Z</time>
      </trkpt>
      <trkpt lat="47.02523" lon="0.34497">
        <ele>40.6</ele>
        <time>2026-03-14T14:27:31Z</time>
      </trkpt>
      <trkpt lat="47.02508" lon="0.34472">
        <ele>40.4</ele>
        <time>2026-03-14T14:27:34Z</time>
      </trkpt>
      <trkpt lat="47.02473" lon="0.34413">
        <ele>39.4</ele>
        <time>2026-03-14T14:27:41Z</time>
      </trkpt>
      <trkpt lat="47.02464" lon="0.34396">
        <ele>39.2</ele>
        <time>2026-03-14T14:27:43Z</time>
      </trkpt>
      <trkpt lat="47.02427" lon="0.34329">
        <ele>38.8</ele>
        <time>2026-03-14T14:27:51Z</time>
      </trkpt>
      <trkpt lat="47.02422" lon="0.3432">
        <ele>38.8</ele>
        <time>2026-03-14T14:27:52Z</time>
      </trkpt>
      <trkpt lat="47.02402" lon="0.34277">
        <ele>38.4</ele>
        <time>2026-03-14T14:27:57Z</time>
      </trkpt>
      <trkpt lat="47.02398" lon="0.34266">
        <ele>38.2</ele>
        <time>2026-03-14T14:27:58Z</time>
      </trkpt>
      <trkpt lat="47.02385" lon="0.34222">
        <ele>37.4</ele>
        <time>2026-03-14T14:28:03Z</time>
      </trkpt>
      <trkpt lat="47.02377" lon="0.34195">
        <ele>37.2</ele>
        <time>2026-03-14T14:28:06Z</time>
      </trkpt>
      <trkpt lat="47.02356" lon="0.34117">
        <ele>36.8</ele>
        <time>2026-03-14T14:28:15Z</time>
      </trkpt>
      <trkpt lat="47.02335" lon="0.34039">
        <ele>37</ele>
        <time>2026-03-14T14:28:24Z</time>
      </trkpt>
      <trkpt lat="47.0233" lon="0.34022">
        <ele>37.2</ele>
        <time>2026-03-14T14:28:26Z</time>
      </trkpt>
      <trkpt lat="47.02309" lon="0.33943">
        <ele>37.6</ele>
        <time>2026-03-14T14:28:35Z</time>
      </trkpt>
      <trkpt lat="47.02288" lon="0.33864">
        <ele>37.6</ele>
        <time>2026-03-14T14:28:44Z</time>
      </trkpt>
      <trkpt lat="47.02278" lon="0.33829">
        <ele>37.6</ele>
        <time>2026-03-14T14:28:48Z</time>
      </trkpt>
      <trkpt lat="47.0226" lon="0.3376">
        <ele>37.4</ele>
        <time>2026-03-14T14:28:56Z</time>
      </trkpt>
      <trkpt lat="47.02235" lon="0.33682">
        <ele>37.4</ele>
        <time>2026-03-14T14:29:05Z</time>
      </trkpt>
      <trkpt lat="47.02232" lon="0.33674">
        <ele>37.4</ele>
        <time>2026-03-14T14:29:06Z</time>
      </trkpt>
      <trkpt lat="47.02202" lon="0.33614">
        <ele>37.4</ele>
        <time>2026-03-14T14:29:14Z</time>
      </trkpt>
      <trkpt lat="47.02193" lon="0.33599">
        <ele>37.2</ele>
        <time>2026-03-14T14:29:16Z</time>
      </trkpt>
      <trkpt lat="47.02158" lon="0.33545">
        <ele>37</ele>
        <time>2026-03-14T14:29:24Z</time>
      </trkpt>
      <trkpt lat="47.02118" lon="0.33486">
        <ele>37</ele>
        <time>2026-03-14T14:29:33Z</time>
      </trkpt>
      <trkpt lat="47.02111" lon="0.33474">
        <ele>37</ele>
        <time>2026-03-14T14:29:35Z</time>
      </trkpt>
      <trkpt lat="47.02102" lon="0.33457">
        <ele>37</ele>
        <time>2026-03-14T14:29:38Z</time>
      </trkpt>
      <trkpt lat="47.02096" lon="0.33444">
        <ele>37</ele>
        <time>2026-03-14T14:29:40Z</time>
      </trkpt>
      <trkpt lat="47.02074" lon="0.33418">
        <ele>37.2</ele>
        <time>2026-03-14T14:29:45Z</time>
      </trkpt>
      <trkpt lat="47.0207" lon="0.33412">
        <ele>37.2</ele>
        <time>2026-03-14T14:29:46Z</time>
      </trkpt>
      <trkpt lat="47.02058" lon="0.33392">
        <ele>37.4</ele>
        <time>2026-03-14T14:29:49Z</time>
      </trkpt>
      <trkpt lat="47.02028" lon="0.33348">
        <ele>37.8</ele>
        <time>2026-03-14T14:29:56Z</time>
      </trkpt>
      <trkpt lat="47.01992" lon="0.33294">
        <ele>38.2</ele>
        <time>2026-03-14T14:30:05Z</time>
      </trkpt>
      <trkpt lat="47.01988" lon="0.33288">
        <ele>38.4</ele>
        <time>2026-03-14T14:30:06Z</time>
      </trkpt>
      <trkpt lat="47.01969" lon="0.33259">
        <ele>38.8</ele>
        <time>2026-03-14T14:30:11Z</time>
      </trkpt>
      <trkpt lat="47.01948" lon="0.33231">
        <ele>39.6</ele>
        <time>2026-03-14T14:30:16Z</time>
      </trkpt>
      <trkpt lat="47.0194" lon="0.33219">
        <ele>39.8</ele>
        <time>2026-03-14T14:30:18Z</time>
      </trkpt>
      <trkpt lat="47.01902" lon="0.3316">
        <ele>40.2</ele>
        <time>2026-03-14T14:30:27Z</time>
      </trkpt>
      <trkpt lat="47.01898" lon="0.33153">
        <ele>40.2</ele>
        <time>2026-03-14T14:30:28Z</time>
      </trkpt>
      <trkpt lat="47.01893" lon="0.33146">
        <ele>40.2</ele>
        <time>2026-03-14T14:30:29Z</time>
      </trkpt>
      <trkpt lat="47.01857" lon="0.33093">
        <ele>39.6</ele>
        <time>2026-03-14T14:30:37Z</time>
      </trkpt>
      <trkpt lat="47.01818" lon="0.33034">
        <ele>39.6</ele>
        <time>2026-03-14T14:30:46Z</time>
      </trkpt>
      <trkpt lat="47.01792" lon="0.32994">
        <ele>39.8</ele>
        <time>2026-03-14T14:30:52Z</time>
      </trkpt>
      <trkpt lat="47.01755" lon="0.32939">
        <ele>39.6</ele>
        <time>2026-03-14T14:31:00Z</time>
      </trkpt>
      <trkpt lat="47.01715" lon="0.32876">
        <ele>39.8</ele>
        <time>2026-03-14T14:31:09Z</time>
      </trkpt>
      <trkpt lat="47.01674" lon="0.32815">
        <ele>40</ele>
        <time>2026-03-14T14:31:18Z</time>
      </trkpt>
      <trkpt lat="47.01633" lon="0.32755">
        <ele>40.2</ele>
        <time>2026-03-14T14:31:27Z</time>
      </trkpt>
      <trkpt lat="47.01624" lon="0.32741">
        <ele>40.2</ele>
        <time>2026-03-14T14:31:29Z</time>
      </trkpt>
      <trkpt lat="47.01602" lon="0.32692">
        <ele>40</ele>
        <time>2026-03-14T14:31:35Z</time>
      </trkpt>
      <trkpt lat="47.016" lon="0.32682">
        <ele>40</ele>
        <time>2026-03-14T14:31:36Z</time>
      </trkpt>
      <trkpt lat="47.01593" lon="0.32643">
        <ele>39.8</ele>
        <time>2026-03-14T14:31:40Z</time>
      </trkpt>
      <trkpt lat="47.01587" lon="0.32572">
        <ele>39.6</ele>
        <time>2026-03-14T14:31:47Z</time>
      </trkpt>
      <trkpt lat="47.01584" lon="0.325">
        <ele>38.6</ele>
        <time>2026-03-14T14:31:54Z</time>
      </trkpt>
      <trkpt lat="47.01583" lon="0.32481">
        <ele>38.2</ele>
        <time>2026-03-14T14:31:56Z</time>
      </trkpt>
      <trkpt lat="47.01579" lon="0.32411">
        <ele>38.2</ele>
        <time>2026-03-14T14:32:04Z</time>
      </trkpt>
      <trkpt lat="47.01576" lon="0.32367">
        <ele>38.4</ele>
        <time>2026-03-14T14:32:10Z</time>
      </trkpt>
      <trkpt lat="47.01574" lon="0.32361">
        <ele>38.6</ele>
        <time>2026-03-14T14:32:11Z</time>
      </trkpt>
      <trkpt lat="47.01567" lon="0.32356">
        <ele>38.6</ele>
        <time>2026-03-14T14:32:13Z</time>
      </trkpt>
      <trkpt lat="47.01537" lon="0.32358">
        <ele>38.6</ele>
        <time>2026-03-14T14:32:19Z</time>
      </trkpt>
      <trkpt lat="47.01505" lon="0.32362">
        <ele>38.8</ele>
        <time>2026-03-14T14:32:25Z</time>
      </trkpt>
      <trkpt lat="47.01494" lon="0.32364">
        <ele>39</ele>
        <time>2026-03-14T14:32:27Z</time>
      </trkpt>
      <trkpt lat="47.01488" lon="0.32365">
        <ele>39</ele>
        <time>2026-03-14T14:32:28Z</time>
      </trkpt>
      <trkpt lat="47.01469" lon="0.32368">
        <ele>39.2</ele>
        <time>2026-03-14T14:32:31Z</time>
      </trkpt>
      <trkpt lat="47.01462" lon="0.32369">
        <ele>39.2</ele>
        <time>2026-03-14T14:32:32Z</time>
      </trkpt>
      <trkpt lat="47.0143" lon="0.32377">
        <ele>39</ele>
        <time>2026-03-14T14:32:37Z</time>
      </trkpt>
      <trkpt lat="47.01409" lon="0.32381">
        <ele>38.8</ele>
        <time>2026-03-14T14:32:40Z</time>
      </trkpt>
      <trkpt lat="47.01397" lon="0.32384">
        <ele>38.8</ele>
        <time>2026-03-14T14:32:42Z</time>
      </trkpt>
      <trkpt lat="47.01361" lon="0.32388">
        <ele>38.6</ele>
        <time>2026-03-14T14:32:48Z</time>
      </trkpt>
      <trkpt lat="47.01349" lon="0.3239">
        <ele>38.8</ele>
        <time>2026-03-14T14:32:50Z</time>
      </trkpt>
      <trkpt lat="47.013" lon="0.32399">
        <ele>38.8</ele>
        <time>2026-03-14T14:32:58Z</time>
      </trkpt>
      <trkpt lat="47.01273" lon="0.32402">
        <ele>39</ele>
        <time>2026-03-14T14:33:03Z</time>
      </trkpt>
      <trkpt lat="47.01268" lon="0.32403">
        <ele>39.2</ele>
        <time>2026-03-14T14:33:04Z</time>
      </trkpt>
      <trkpt lat="47.01256" lon="0.32402">
        <ele>39.2</ele>
        <time>2026-03-14T14:33:08Z</time>
      </trkpt>
      <trkpt lat="47.01246" lon="0.32395">
        <ele>39.2</ele>
        <time>2026-03-14T14:33:14Z</time>
      </trkpt>
      <trkpt lat="47.01245" lon="0.32395">
        <ele>39</ele>
        <time>2026-03-14T14:33:17Z</time>
      </trkpt>
      <trkpt lat="47.01245" lon="0.32392">
        <ele>38.4</ele>
        <time>2026-03-14T14:43:30Z</time>
      </trkpt>
      <trkpt lat="47.01237" lon="0.32371">
        <ele>38.6</ele>
        <time>2026-03-14T14:43:36Z</time>
      </trkpt>
      <trkpt lat="47.01234" lon="0.32359">
        <ele>38.6</ele>
        <time>2026-03-14T14:43:40Z</time>
      </trkpt>
      <trkpt lat="47.01233" lon="0.32357">
        <ele>38.6</ele>
        <time>2026-03-14T14:43:41Z</time>
      </trkpt>
      <trkpt lat="47.01228" lon="0.3234">
        <ele>39.2</ele>
        <time>2026-03-14T14:43:46Z</time>
      </trkpt>
      <trkpt lat="47.01228" lon="0.3232">
        <ele>39.2</ele>
        <time>2026-03-14T14:43:51Z</time>
      </trkpt>
      <trkpt lat="47.01229" lon="0.32308">
        <ele>39.2</ele>
        <time>2026-03-14T14:43:52Z</time>
      </trkpt>
      <trkpt lat="47.01229" lon="0.32302">
        <ele>39.2</ele>
        <time>2026-03-14T14:43:53Z</time>
      </trkpt>
      <trkpt lat="47.01226" lon="0.32268">
        <ele>39.6</ele>
        <time>2026-03-14T14:43:58Z</time>
      </trkpt>
      <trkpt lat="47.01223" lon="0.32221">
        <ele>39.8</ele>
        <time>2026-03-14T14:44:05Z</time>
      </trkpt>
      <trkpt lat="47.01221" lon="0.32205">
        <ele>39.8</ele>
        <time>2026-03-14T14:44:10Z</time>
      </trkpt>
      <trkpt lat="47.01221" lon="0.32203">
        <ele>39.8</ele>
        <time>2026-03-14T14:44:11Z</time>
      </trkpt>
      <trkpt lat="47.01217" lon="0.32188">
        <ele>39.8</ele>
        <time>2026-03-14T14:44:15Z</time>
      </trkpt>
      <trkpt lat="47.01214" lon="0.3216">
        <ele>39.8</ele>
        <time>2026-03-14T14:44:20Z</time>
      </trkpt>
      <trkpt lat="47.01214" lon="0.32135">
        <ele>39.6</ele>
        <time>2026-03-14T14:44:25Z</time>
      </trkpt>
      <trkpt lat="47.01212" lon="0.32104">
        <ele>39.8</ele>
        <time>2026-03-14T14:44:30Z</time>
      </trkpt>
      <trkpt lat="47.01206" lon="0.32047">
        <ele>40</ele>
        <time>2026-03-14T14:44:38Z</time>
      </trkpt>
      <trkpt lat="47.01205" lon="0.32016">
        <ele>40.2</ele>
        <time>2026-03-14T14:44:42Z</time>
      </trkpt>
      <trkpt lat="47.01202" lon="0.31977">
        <ele>40.4</ele>
        <time>2026-03-14T14:44:47Z</time>
      </trkpt>
      <trkpt lat="47.01198" lon="0.31905">
        <ele>41</ele>
        <time>2026-03-14T14:44:56Z</time>
      </trkpt>
      <trkpt lat="47.01196" lon="0.31882">
        <ele>41.2</ele>
        <time>2026-03-14T14:44:59Z</time>
      </trkpt>
      <trkpt lat="47.01194" lon="0.31858">
        <ele>41.2</ele>
        <time>2026-03-14T14:45:02Z</time>
      </trkpt>
      <trkpt lat="47.01191" lon="0.31797">
        <ele>41.4</ele>
        <time>2026-03-14T14:45:10Z</time>
      </trkpt>
      <trkpt lat="47.01186" lon="0.31744">
        <ele>41.8</ele>
        <time>2026-03-14T14:45:17Z</time>
      </trkpt>
      <trkpt lat="47.01186" lon="0.31736">
        <ele>41.8</ele>
        <time>2026-03-14T14:45:18Z</time>
      </trkpt>
      <trkpt lat="47.01185" lon="0.31722">
        <ele>41.8</ele>
        <time>2026-03-14T14:45:20Z</time>
      </trkpt>
      <trkpt lat="47.01183" lon="0.3169">
        <ele>42</ele>
        <time>2026-03-14T14:45:24Z</time>
      </trkpt>
      <trkpt lat="47.0118" lon="0.31635">
        <ele>42</ele>
        <time>2026-03-14T14:45:31Z</time>
      </trkpt>
      <trkpt lat="47.01173" lon="0.31555">
        <ele>42.2</ele>
        <time>2026-03-14T14:45:41Z</time>
      </trkpt>
      <trkpt lat="47.01172" lon="0.31539">
        <ele>42.4</ele>
        <time>2026-03-14T14:45:43Z</time>
      </trkpt>
      <trkpt lat="47.01167" lon="0.31458">
        <ele>42.4</ele>
        <time>2026-03-14T14:45:53Z</time>
      </trkpt>
      <trkpt lat="47.01161" lon="0.31384">
        <ele>43.2</ele>
        <time>2026-03-14T14:46:02Z</time>
      </trkpt>
      <trkpt lat="47.01161" lon="0.31375">
        <ele>43.4</ele>
        <time>2026-03-14T14:46:03Z</time>
      </trkpt>
      <trkpt lat="47.01157" lon="0.31321">
        <ele>43.8</ele>
        <time>2026-03-14T14:46:10Z</time>
      </trkpt>
      <trkpt lat="47.01152" lon="0.31259">
        <ele>44</ele>
        <time>2026-03-14T14:46:18Z</time>
      </trkpt>
      <trkpt lat="47.01149" lon="0.31213">
        <ele>44.6</ele>
        <time>2026-03-14T14:46:24Z</time>
      </trkpt>
      <trkpt lat="47.01145" lon="0.31173">
        <ele>44.8</ele>
        <time>2026-03-14T14:46:29Z</time>
      </trkpt>
      <trkpt lat="47.01144" lon="0.3115">
        <ele>45</ele>
        <time>2026-03-14T14:46:32Z</time>
      </trkpt>
      <trkpt lat="47.01141" lon="0.31104">
        <ele>45.6</ele>
        <time>2026-03-14T14:46:38Z</time>
      </trkpt>
      <trkpt lat="47.0114" lon="0.31096">
        <ele>45.6</ele>
        <time>2026-03-14T14:46:39Z</time>
      </trkpt>
      <trkpt lat="47.01136" lon="0.31041">
        <ele>45.8</ele>
        <time>2026-03-14T14:46:46Z</time>
      </trkpt>
      <trkpt lat="47.01131" lon="0.30959">
        <ele>46.2</ele>
        <time>2026-03-14T14:46:56Z</time>
      </trkpt>
      <trkpt lat="47.0113" lon="0.30951">
        <ele>46.2</ele>
        <time>2026-03-14T14:46:57Z</time>
      </trkpt>
      <trkpt lat="47.01123" lon="0.30864">
        <ele>46.4</ele>
        <time>2026-03-14T14:47:07Z</time>
      </trkpt>
      <trkpt lat="47.01122" lon="0.30847">
        <ele>46.4</ele>
        <time>2026-03-14T14:47:09Z</time>
      </trkpt>
      <trkpt lat="47.01115" lon="0.30767">
        <ele>46.4</ele>
        <time>2026-03-14T14:47:18Z</time>
      </trkpt>
      <trkpt lat="47.01109" lon="0.30685">
        <ele>46.4</ele>
        <time>2026-03-14T14:47:27Z</time>
      </trkpt>
      <trkpt lat="47.01108" lon="0.30675">
        <ele>46.4</ele>
        <time>2026-03-14T14:47:28Z</time>
      </trkpt>
      <trkpt lat="47.01103" lon="0.30594">
        <ele>46</ele>
        <time>2026-03-14T14:47:37Z</time>
      </trkpt>
      <trkpt lat="47.01102" lon="0.30568">
        <ele>45.8</ele>
        <time>2026-03-14T14:47:40Z</time>
      </trkpt>
      <trkpt lat="47.01104" lon="0.30552">
        <ele>45.8</ele>
        <time>2026-03-14T14:47:42Z</time>
      </trkpt>
      <trkpt lat="47.01108" lon="0.30537">
        <ele>45.8</ele>
        <time>2026-03-14T14:47:44Z</time>
      </trkpt>
      <trkpt lat="47.0111" lon="0.3053">
        <ele>45.8</ele>
        <time>2026-03-14T14:47:45Z</time>
      </trkpt>
      <trkpt lat="47.0111" lon="0.30516">
        <ele>46.2</ele>
        <time>2026-03-14T14:47:47Z</time>
      </trkpt>
      <trkpt lat="47.01104" lon="0.30502">
        <ele>46.6</ele>
        <time>2026-03-14T14:47:49Z</time>
      </trkpt>
      <trkpt lat="47.01101" lon="0.30495">
        <ele>46.8</ele>
        <time>2026-03-14T14:47:50Z</time>
      </trkpt>
      <trkpt lat="47.01099" lon="0.30487">
        <ele>47</ele>
        <time>2026-03-14T14:47:51Z</time>
      </trkpt>
      <trkpt lat="47.01096" lon="0.30464">
        <ele>47.2</ele>
        <time>2026-03-14T14:47:54Z</time>
      </trkpt>
      <trkpt lat="47.01094" lon="0.30441">
        <ele>47.4</ele>
        <time>2026-03-14T14:47:57Z</time>
      </trkpt>
      <trkpt lat="47.0109" lon="0.30403">
        <ele>47.8</ele>
        <time>2026-03-14T14:48:02Z</time>
      </trkpt>
      <trkpt lat="47.01089" lon="0.30389">
        <ele>48</ele>
        <time>2026-03-14T14:48:04Z</time>
      </trkpt>
      <trkpt lat="47.01083" lon="0.30306">
        <ele>48.8</ele>
        <time>2026-03-14T14:48:15Z</time>
      </trkpt>
      <trkpt lat="47.01079" lon="0.30254">
        <ele>50</ele>
        <time>2026-03-14T14:48:22Z</time>
      </trkpt>
      <trkpt lat="47.01076" lon="0.30207">
        <ele>50.6</ele>
        <time>2026-03-14T14:48:28Z</time>
      </trkpt>
      <trkpt lat="47.01074" lon="0.30168">
        <ele>51</ele>
        <time>2026-03-14T14:48:33Z</time>
      </trkpt>
      <trkpt lat="47.01071" lon="0.30144">
        <ele>51.2</ele>
        <time>2026-03-14T14:48:36Z</time>
      </trkpt>
      <trkpt lat="47.01068" lon="0.30096">
        <ele>52</ele>
        <time>2026-03-14T14:48:42Z</time>
      </trkpt>
      <trkpt lat="47.01066" lon="0.30064">
        <ele>52.4</ele>
        <time>2026-03-14T14:48:46Z</time>
      </trkpt>
      <trkpt lat="47.01061" lon="0.29991">
        <ele>52.6</ele>
        <time>2026-03-14T14:48:55Z</time>
      </trkpt>
      <trkpt lat="47.01055" lon="0.29906">
        <ele>53</ele>
        <time>2026-03-14T14:49:05Z</time>
      </trkpt>
      <trkpt lat="47.01049" lon="0.29822">
        <ele>53.6</ele>
        <time>2026-03-14T14:49:15Z</time>
      </trkpt>
      <trkpt lat="47.01046" lon="0.29789">
        <ele>54</ele>
        <time>2026-03-14T14:49:19Z</time>
      </trkpt>
      <trkpt lat="47.01046" lon="0.29781">
        <ele>54</ele>
        <time>2026-03-14T14:49:20Z</time>
      </trkpt>
      <trkpt lat="47.0104" lon="0.29698">
        <ele>54.6</ele>
        <time>2026-03-14T14:49:30Z</time>
      </trkpt>
      <trkpt lat="47.01037" lon="0.29657">
        <ele>55.2</ele>
        <time>2026-03-14T14:49:35Z</time>
      </trkpt>
      <trkpt lat="47.01034" lon="0.29617">
        <ele>55.8</ele>
        <time>2026-03-14T14:49:40Z</time>
      </trkpt>
      <trkpt lat="47.0103" lon="0.29564">
        <ele>56.2</ele>
        <time>2026-03-14T14:49:47Z</time>
      </trkpt>
      <trkpt lat="47.01028" lon="0.29541">
        <ele>56.6</ele>
        <time>2026-03-14T14:49:50Z</time>
      </trkpt>
      <trkpt lat="47.01023" lon="0.29475">
        <ele>57.4</ele>
        <time>2026-03-14T14:50:00Z</time>
      </trkpt>
      <trkpt lat="47.01022" lon="0.29461">
        <ele>57.6</ele>
        <time>2026-03-14T14:50:02Z</time>
      </trkpt>
      <trkpt lat="47.01018" lon="0.29397">
        <ele>58.4</ele>
        <time>2026-03-14T14:50:11Z</time>
      </trkpt>
      <trkpt lat="47.01015" lon="0.29342">
        <ele>59.4</ele>
        <time>2026-03-14T14:50:19Z</time>
      </trkpt>
      <trkpt lat="47.01014" lon="0.29327">
        <ele>59.8</ele>
        <time>2026-03-14T14:50:21Z</time>
      </trkpt>
      <trkpt lat="47.01012" lon="0.29286">
        <ele>60.6</ele>
        <time>2026-03-14T14:50:27Z</time>
      </trkpt>
      <trkpt lat="47.0101" lon="0.29261">
        <ele>61.2</ele>
        <time>2026-03-14T14:50:31Z</time>
      </trkpt>
      <trkpt lat="47.01009" lon="0.2924">
        <ele>61.6</ele>
        <time>2026-03-14T14:50:34Z</time>
      </trkpt>
      <trkpt lat="47.01004" lon="0.29178">
        <ele>62.8</ele>
        <time>2026-03-14T14:50:43Z</time>
      </trkpt>
      <trkpt lat="47.01002" lon="0.29144">
        <ele>63.4</ele>
        <time>2026-03-14T14:50:48Z</time>
      </trkpt>
      <trkpt lat="47.01" lon="0.29111">
        <ele>64.2</ele>
        <time>2026-03-14T14:50:53Z</time>
      </trkpt>
      <trkpt lat="47.00999" lon="0.29103">
        <ele>64.2</ele>
        <time>2026-03-14T14:50:54Z</time>
      </trkpt>
      <trkpt lat="47.00996" lon="0.29063">
        <ele>65.2</ele>
        <time>2026-03-14T14:51:00Z</time>
      </trkpt>
      <trkpt lat="47.00993" lon="0.29021">
        <ele>65.8</ele>
        <time>2026-03-14T14:51:06Z</time>
      </trkpt>
      <trkpt lat="47.00992" lon="0.29009">
        <ele>66.2</ele>
        <time>2026-03-14T14:51:08Z</time>
      </trkpt>
      <trkpt lat="47.00987" lon="0.28954">
        <ele>67.2</ele>
        <time>2026-03-14T14:51:16Z</time>
      </trkpt>
      <trkpt lat="47.00987" lon="0.2894">
        <ele>67.6</ele>
        <time>2026-03-14T14:51:18Z</time>
      </trkpt>
      <trkpt lat="47.00983" lon="0.28891">
        <ele>68</ele>
        <time>2026-03-14T14:51:25Z</time>
      </trkpt>
      <trkpt lat="47.00982" lon="0.28877">
        <ele>68.2</ele>
        <time>2026-03-14T14:51:27Z</time>
      </trkpt>
      <trkpt lat="47.00981" lon="0.28871">
        <ele>68.2</ele>
        <time>2026-03-14T14:51:28Z</time>
      </trkpt>
      <trkpt lat="47.00975" lon="0.28789">
        <ele>69</ele>
        <time>2026-03-14T14:51:39Z</time>
      </trkpt>
      <trkpt lat="47.00973" lon="0.28769">
        <ele>69.4</ele>
        <time>2026-03-14T14:51:42Z</time>
      </trkpt>
      <trkpt lat="47.00969" lon="0.28709">
        <ele>70</ele>
        <time>2026-03-14T14:51:50Z</time>
      </trkpt>
      <trkpt lat="47.00966" lon="0.28663">
        <ele>70.2</ele>
        <time>2026-03-14T14:51:56Z</time>
      </trkpt>
      <trkpt lat="47.00965" lon="0.28655">
        <ele>70.4</ele>
        <time>2026-03-14T14:51:57Z</time>
      </trkpt>
      <trkpt lat="47.00964" lon="0.28632">
        <ele>70.6</ele>
        <time>2026-03-14T14:52:00Z</time>
      </trkpt>
      <trkpt lat="47.00959" lon="0.28571">
        <ele>71.4</ele>
        <time>2026-03-14T14:52:08Z</time>
      </trkpt>
      <trkpt lat="47.00958" lon="0.28548">
        <ele>72</ele>
        <time>2026-03-14T14:52:11Z</time>
      </trkpt>
      <trkpt lat="47.00955" lon="0.28509">
        <ele>72.6</ele>
        <time>2026-03-14T14:52:16Z</time>
      </trkpt>
      <trkpt lat="47.00952" lon="0.2848">
        <ele>72.6</ele>
        <time>2026-03-14T14:52:20Z</time>
      </trkpt>
      <trkpt lat="47.00949" lon="0.28432">
        <ele>73.2</ele>
        <time>2026-03-14T14:52:26Z</time>
      </trkpt>
      <trkpt lat="47.00947" lon="0.28401">
        <ele>73.4</ele>
        <time>2026-03-14T14:52:30Z</time>
      </trkpt>
      <trkpt lat="47.00946" lon="0.28393">
        <ele>73.6</ele>
        <time>2026-03-14T14:52:31Z</time>
      </trkpt>
      <trkpt lat="47.00942" lon="0.28339">
        <ele>74</ele>
        <time>2026-03-14T14:52:38Z</time>
      </trkpt>
      <trkpt lat="47.00938" lon="0.28283">
        <ele>74.8</ele>
        <time>2026-03-14T14:52:45Z</time>
      </trkpt>
      <trkpt lat="47.00935" lon="0.28253">
        <ele>75</ele>
        <time>2026-03-14T14:52:49Z</time>
      </trkpt>
      <trkpt lat="47.00928" lon="0.28174">
        <ele>75.2</ele>
        <time>2026-03-14T14:52:59Z</time>
      </trkpt>
      <trkpt lat="47.00925" lon="0.28142">
        <ele>75.2</ele>
        <time>2026-03-14T14:53:03Z</time>
      </trkpt>
      <trkpt lat="47.00919" lon="0.28092">
        <ele>75.6</ele>
        <time>2026-03-14T14:53:09Z</time>
      </trkpt>
      <trkpt lat="47.00908" lon="0.28008">
        <ele>75.8</ele>
        <time>2026-03-14T14:53:19Z</time>
      </trkpt>
      <trkpt lat="47.00907" lon="0.28">
        <ele>75.8</ele>
        <time>2026-03-14T14:53:20Z</time>
      </trkpt>
      <trkpt lat="47.00906" lon="0.2799">
        <ele>75.8</ele>
        <time>2026-03-14T14:53:21Z</time>
      </trkpt>
      <trkpt lat="47.00896" lon="0.27919">
        <ele>76.6</ele>
        <time>2026-03-14T14:53:30Z</time>
      </trkpt>
      <trkpt lat="47.00887" lon="0.2784">
        <ele>76.8</ele>
        <time>2026-03-14T14:53:40Z</time>
      </trkpt>
      <trkpt lat="47.00886" lon="0.27832">
        <ele>77</ele>
        <time>2026-03-14T14:53:41Z</time>
      </trkpt>
      <trkpt lat="47.00879" lon="0.27783">
        <ele>77.2</ele>
        <time>2026-03-14T14:53:47Z</time>
      </trkpt>
      <trkpt lat="47.00874" lon="0.27741">
        <ele>77.2</ele>
        <time>2026-03-14T14:53:52Z</time>
      </trkpt>
      <trkpt lat="47.00863" lon="0.27655">
        <ele>77.6</ele>
        <time>2026-03-14T14:54:02Z</time>
      </trkpt>
      <trkpt lat="47.0086" lon="0.27629">
        <ele>77.8</ele>
        <time>2026-03-14T14:54:05Z</time>
      </trkpt>
      <trkpt lat="47.00849" lon="0.27547">
        <ele>77.8</ele>
        <time>2026-03-14T14:54:14Z</time>
      </trkpt>
      <trkpt lat="47.00847" lon="0.27537">
        <ele>78</ele>
        <time>2026-03-14T14:54:15Z</time>
      </trkpt>
      <trkpt lat="47.00846" lon="0.27528">
        <ele>78</ele>
        <time>2026-03-14T14:54:16Z</time>
      </trkpt>
      <trkpt lat="47.00839" lon="0.27461">
        <ele>78.4</ele>
        <time>2026-03-14T14:54:23Z</time>
      </trkpt>
      <trkpt lat="47.00828" lon="0.2738">
        <ele>78.6</ele>
        <time>2026-03-14T14:54:32Z</time>
      </trkpt>
      <trkpt lat="47.00827" lon="0.27371">
        <ele>78.6</ele>
        <time>2026-03-14T14:54:33Z</time>
      </trkpt>
      <trkpt lat="47.00817" lon="0.27292">
        <ele>78.6</ele>
        <time>2026-03-14T14:54:42Z</time>
      </trkpt>
      <trkpt lat="47.00812" lon="0.27256">
        <ele>78.6</ele>
        <time>2026-03-14T14:54:46Z</time>
      </trkpt>
      <trkpt lat="47.00804" lon="0.27192">
        <ele>78.6</ele>
        <time>2026-03-14T14:54:53Z</time>
      </trkpt>
      <trkpt lat="47.00798" lon="0.27137">
        <ele>79</ele>
        <time>2026-03-14T14:54:59Z</time>
      </trkpt>
      <trkpt lat="47.00796" lon="0.2711">
        <ele>79</ele>
        <time>2026-03-14T14:55:02Z</time>
      </trkpt>
      <trkpt lat="47.00792" lon="0.27031">
        <ele>79.4</ele>
        <time>2026-03-14T14:55:11Z</time>
      </trkpt>
      <trkpt lat="47.00792" lon="0.26961">
        <ele>80</ele>
        <time>2026-03-14T14:55:19Z</time>
      </trkpt>
      <trkpt lat="47.00793" lon="0.26917">
        <ele>80</ele>
        <time>2026-03-14T14:55:24Z</time>
      </trkpt>
      <trkpt lat="47.00794" lon="0.26837">
        <ele>80.4</ele>
        <time>2026-03-14T14:55:33Z</time>
      </trkpt>
      <trkpt lat="47.00795" lon="0.26819">
        <ele>80.4</ele>
        <time>2026-03-14T14:55:35Z</time>
      </trkpt>
      <trkpt lat="47.00795" lon="0.26739">
        <ele>80.8</ele>
        <time>2026-03-14T14:55:44Z</time>
      </trkpt>
      <trkpt lat="47.00796" lon="0.26658">
        <ele>80.8</ele>
        <time>2026-03-14T14:55:53Z</time>
      </trkpt>
      <trkpt lat="47.00796" lon="0.26649">
        <ele>81.2</ele>
        <time>2026-03-14T14:55:54Z</time>
      </trkpt>
      <trkpt lat="47.00796" lon="0.26595">
        <ele>81.2</ele>
        <time>2026-03-14T14:56:00Z</time>
      </trkpt>
      <trkpt lat="47.00796" lon="0.2654">
        <ele>81.2</ele>
        <time>2026-03-14T14:56:06Z</time>
      </trkpt>
      <trkpt lat="47.00797" lon="0.26458">
        <ele>81</ele>
        <time>2026-03-14T14:56:15Z</time>
      </trkpt>
      <trkpt lat="47.00797" lon="0.26421">
        <ele>81</ele>
        <time>2026-03-14T14:56:19Z</time>
      </trkpt>
      <trkpt lat="47.00798" lon="0.26339">
        <ele>81.2</ele>
        <time>2026-03-14T14:56:28Z</time>
      </trkpt>
      <trkpt lat="47.00798" lon="0.26311">
        <ele>81.2</ele>
        <time>2026-03-14T14:56:31Z</time>
      </trkpt>
      <trkpt lat="47.00798" lon="0.26281">
        <ele>81</ele>
        <time>2026-03-14T14:56:34Z</time>
      </trkpt>
      <trkpt lat="47.00799" lon="0.26224">
        <ele>80.8</ele>
        <time>2026-03-14T14:56:40Z</time>
      </trkpt>
      <trkpt lat="47.00799" lon="0.26155">
        <ele>80.2</ele>
        <time>2026-03-14T14:56:47Z</time>
      </trkpt>
      <trkpt lat="47.00799" lon="0.26115">
        <ele>79.8</ele>
        <time>2026-03-14T14:56:51Z</time>
      </trkpt>
      <trkpt lat="47.008" lon="0.26031">
        <ele>79.2</ele>
        <time>2026-03-14T14:56:59Z</time>
      </trkpt>
      <trkpt lat="47.008" lon="0.2601">
        <ele>79.2</ele>
        <time>2026-03-14T14:57:01Z</time>
      </trkpt>
      <trkpt lat="47.008" lon="0.25989">
        <ele>79.2</ele>
        <time>2026-03-14T14:57:03Z</time>
      </trkpt>
      <trkpt lat="47.00801" lon="0.25908">
        <ele>78.4</ele>
        <time>2026-03-14T14:57:10Z</time>
      </trkpt>
      <trkpt lat="47.00801" lon="0.25896">
        <ele>78.2</ele>
        <time>2026-03-14T14:57:11Z</time>
      </trkpt>
      <trkpt lat="47.00801" lon="0.25884">
        <ele>77.8</ele>
        <time>2026-03-14T14:57:12Z</time>
      </trkpt>
      <trkpt lat="47.00801" lon="0.2586">
        <ele>77</ele>
        <time>2026-03-14T14:57:14Z</time>
      </trkpt>
      <trkpt lat="47.00801" lon="0.25773">
        <ele>76.2</ele>
        <time>2026-03-14T14:57:22Z</time>
      </trkpt>
      <trkpt lat="47.00801" lon="0.25763">
        <ele>76.2</ele>
        <time>2026-03-14T14:57:23Z</time>
      </trkpt>
      <trkpt lat="47.00802" lon="0.25676">
        <ele>76.4</ele>
        <time>2026-03-14T14:57:32Z</time>
      </trkpt>
      <trkpt lat="47.00802" lon="0.25646">
        <ele>76.6</ele>
        <time>2026-03-14T14:57:35Z</time>
      </trkpt>
      <trkpt lat="47.00803" lon="0.25581">
        <ele>76.8</ele>
        <time>2026-03-14T14:57:42Z</time>
      </trkpt>
      <trkpt lat="47.00803" lon="0.255">
        <ele>76.6</ele>
        <time>2026-03-14T14:57:50Z</time>
      </trkpt>
      <trkpt lat="47.00803" lon="0.2549">
        <ele>76.6</ele>
        <time>2026-03-14T14:57:51Z</time>
      </trkpt>
      <trkpt lat="47.00804" lon="0.2541">
        <ele>76.4</ele>
        <time>2026-03-14T14:57:59Z</time>
      </trkpt>
      <trkpt lat="47.00804" lon="0.25379">
        <ele>76.2</ele>
        <time>2026-03-14T14:58:02Z</time>
      </trkpt>
      <trkpt lat="47.00804" lon="0.25339">
        <ele>76</ele>
        <time>2026-03-14T14:58:06Z</time>
      </trkpt>
      <trkpt lat="47.00805" lon="0.25288">
        <ele>76</ele>
        <time>2026-03-14T14:58:11Z</time>
      </trkpt>
      <trkpt lat="47.00806" lon="0.25207">
        <ele>76</ele>
        <time>2026-03-14T14:58:19Z</time>
      </trkpt>
      <trkpt lat="47.00806" lon="0.25165">
        <ele>76</ele>
        <time>2026-03-14T14:58:23Z</time>
      </trkpt>
      <trkpt lat="47.00806" lon="0.25083">
        <ele>75.8</ele>
        <time>2026-03-14T14:58:31Z</time>
      </trkpt>
      <trkpt lat="47.00806" lon="0.25073">
        <ele>75.8</ele>
        <time>2026-03-14T14:58:32Z</time>
      </trkpt>
      <trkpt lat="47.00807" lon="0.24985">
        <ele>76.2</ele>
        <time>2026-03-14T14:58:41Z</time>
      </trkpt>
      <trkpt lat="47.00807" lon="0.24965">
        <ele>76.2</ele>
        <time>2026-03-14T14:58:43Z</time>
      </trkpt>
      <trkpt lat="47.00808" lon="0.24883">
        <ele>75.2</ele>
        <time>2026-03-14T14:58:51Z</time>
      </trkpt>
      <trkpt lat="47.00808" lon="0.24873">
        <ele>75</ele>
        <time>2026-03-14T14:58:52Z</time>
      </trkpt>
      <trkpt lat="47.00808" lon="0.2482">
        <ele>73.8</ele>
        <time>2026-03-14T14:58:57Z</time>
      </trkpt>
      <trkpt lat="47.00808" lon="0.24777">
        <ele>73.2</ele>
        <time>2026-03-14T14:59:01Z</time>
      </trkpt>
      <trkpt lat="47.00808" lon="0.24745">
        <ele>72.8</ele>
        <time>2026-03-14T14:59:04Z</time>
      </trkpt>
      <trkpt lat="47.00809" lon="0.24671">
        <ele>71.6</ele>
        <time>2026-03-14T14:59:11Z</time>
      </trkpt>
      <trkpt lat="47.00809" lon="0.24661">
        <ele>71.4</ele>
        <time>2026-03-14T14:59:12Z</time>
      </trkpt>
      <trkpt lat="47.00809" lon="0.24578">
        <ele>70.8</ele>
        <time>2026-03-14T14:59:20Z</time>
      </trkpt>
      <trkpt lat="47.00809" lon="0.24559">
        <ele>70.6</ele>
        <time>2026-03-14T14:59:22Z</time>
      </trkpt>
      <trkpt lat="47.0081" lon="0.2448">
        <ele>70</ele>
        <time>2026-03-14T14:59:30Z</time>
      </trkpt>
      <trkpt lat="47.0081" lon="0.24451">
        <ele>69.8</ele>
        <time>2026-03-14T14:59:33Z</time>
      </trkpt>
      <trkpt lat="47.0081" lon="0.24404">
        <ele>69.4</ele>
        <time>2026-03-14T14:59:38Z</time>
      </trkpt>
      <trkpt lat="47.0081" lon="0.24339">
        <ele>69.2</ele>
        <time>2026-03-14T14:59:45Z</time>
      </trkpt>
      <trkpt lat="47.0081" lon="0.24311">
        <ele>69.2</ele>
        <time>2026-03-14T14:59:48Z</time>
      </trkpt>
      <trkpt lat="47.00811" lon="0.24225">
        <ele>69.6</ele>
        <time>2026-03-14T14:59:58Z</time>
      </trkpt>
      <trkpt lat="47.00812" lon="0.24163">
        <ele>70.2</ele>
        <time>2026-03-14T15:00:06Z</time>
      </trkpt>
      <trkpt lat="47.00811" lon="0.24129">
        <ele>70.6</ele>
        <time>2026-03-14T15:00:11Z</time>
      </trkpt>
      <trkpt lat="47.00811" lon="0.24108">
        <ele>70.8</ele>
        <time>2026-03-14T15:00:14Z</time>
      </trkpt>
      <trkpt lat="47.00811" lon="0.24069">
        <ele>71.6</ele>
        <time>2026-03-14T15:00:20Z</time>
      </trkpt>
      <trkpt lat="47.00811" lon="0.24056">
        <ele>71.8</ele>
        <time>2026-03-14T15:00:22Z</time>
      </trkpt>
      <trkpt lat="47.00812" lon="0.24016">
        <ele>72.6</ele>
        <time>2026-03-14T15:00:28Z</time>
      </trkpt>
      <trkpt lat="47.00813" lon="0.23982">
        <ele>73.4</ele>
        <time>2026-03-14T15:00:33Z</time>
      </trkpt>
      <trkpt lat="47.00813" lon="0.23967">
        <ele>73.6</ele>
        <time>2026-03-14T15:00:35Z</time>
      </trkpt>
      <trkpt lat="47.00814" lon="0.23926">
        <ele>74.6</ele>
        <time>2026-03-14T15:00:41Z</time>
      </trkpt>
      <trkpt lat="47.00814" lon="0.2392">
        <ele>74.8</ele>
        <time>2026-03-14T15:00:42Z</time>
      </trkpt>
      <trkpt lat="47.00814" lon="0.23875">
        <ele>75.8</ele>
        <time>2026-03-14T15:00:49Z</time>
      </trkpt>
      <trkpt lat="47.00814" lon="0.23861">
        <ele>76</ele>
        <time>2026-03-14T15:00:51Z</time>
      </trkpt>
      <trkpt lat="47.00814" lon="0.23855">
        <ele>76.2</ele>
        <time>2026-03-14T15:00:52Z</time>
      </trkpt>
      <trkpt lat="47.00815" lon="0.23836">
        <ele>76.8</ele>
        <time>2026-03-14T15:00:55Z</time>
      </trkpt>
      <trkpt lat="47.00816" lon="0.23822">
        <ele>77.4</ele>
        <time>2026-03-14T15:00:57Z</time>
      </trkpt>
      <trkpt lat="47.00816" lon="0.23794">
        <ele>77.8</ele>
        <time>2026-03-14T15:01:01Z</time>
      </trkpt>
      <trkpt lat="47.00815" lon="0.23749">
        <ele>78.4</ele>
        <time>2026-03-14T15:01:07Z</time>
      </trkpt>
      <trkpt lat="47.00815" lon="0.23741">
        <ele>78.4</ele>
        <time>2026-03-14T15:01:08Z</time>
      </trkpt>
      <trkpt lat="47.00815" lon="0.23724">
        <ele>78.8</ele>
        <time>2026-03-14T15:01:10Z</time>
      </trkpt>
      <trkpt lat="47.00816" lon="0.23675">
        <ele>79.8</ele>
        <time>2026-03-14T15:01:16Z</time>
      </trkpt>
      <trkpt lat="47.00816" lon="0.23667">
        <ele>80</ele>
        <time>2026-03-14T15:01:17Z</time>
      </trkpt>
      <trkpt lat="47.00816" lon="0.23594">
        <ele>80.6</ele>
        <time>2026-03-14T15:01:26Z</time>
      </trkpt>
      <trkpt lat="47.00817" lon="0.23519">
        <ele>80.2</ele>
        <time>2026-03-14T15:01:34Z</time>
      </trkpt>
      <trkpt lat="47.00818" lon="0.23437">
        <ele>79.4</ele>
        <time>2026-03-14T15:01:42Z</time>
      </trkpt>
      <trkpt lat="47.00819" lon="0.23403">
        <ele>78.8</ele>
        <time>2026-03-14T15:01:45Z</time>
      </trkpt>
      <trkpt lat="47.00819" lon="0.23344">
        <ele>77.8</ele>
        <time>2026-03-14T15:01:50Z</time>
      </trkpt>
      <trkpt lat="47.00819" lon="0.23332">
        <ele>77.6</ele>
        <time>2026-03-14T15:01:51Z</time>
      </trkpt>
      <trkpt lat="47.00819" lon="0.23285">
        <ele>76.2</ele>
        <time>2026-03-14T15:01:55Z</time>
      </trkpt>
      <trkpt lat="47.00818" lon="0.23241">
        <ele>75.6</ele>
        <time>2026-03-14T15:01:59Z</time>
      </trkpt>
      <trkpt lat="47.00819" lon="0.232">
        <ele>75</ele>
        <time>2026-03-14T15:02:03Z</time>
      </trkpt>
      <trkpt lat="47.00819" lon="0.23163">
        <ele>74.8</ele>
        <time>2026-03-14T15:02:07Z</time>
      </trkpt>
      <trkpt lat="47.00819" lon="0.23095">
        <ele>75.4</ele>
        <time>2026-03-14T15:02:15Z</time>
      </trkpt>
      <trkpt lat="47.0082" lon="0.23054">
        <ele>76.2</ele>
        <time>2026-03-14T15:02:20Z</time>
      </trkpt>
      <trkpt lat="47.0082" lon="0.23031">
        <ele>76.4</ele>
        <time>2026-03-14T15:02:23Z</time>
      </trkpt>
      <trkpt lat="47.0082" lon="0.22992">
        <ele>77.2</ele>
        <time>2026-03-14T15:02:28Z</time>
      </trkpt>
      <trkpt lat="47.0082" lon="0.22976">
        <ele>77.4</ele>
        <time>2026-03-14T15:02:30Z</time>
      </trkpt>
      <trkpt lat="47.0082" lon="0.22906">
        <ele>78.2</ele>
        <time>2026-03-14T15:02:39Z</time>
      </trkpt>
      <trkpt lat="47.0082" lon="0.22822">
        <ele>79</ele>
        <time>2026-03-14T15:02:50Z</time>
      </trkpt>
      <trkpt lat="47.0082" lon="0.22815">
        <ele>79</ele>
        <time>2026-03-14T15:02:51Z</time>
      </trkpt>
      <trkpt lat="47.0082" lon="0.22792">
        <ele>79.2</ele>
        <time>2026-03-14T15:02:54Z</time>
      </trkpt>
      <trkpt lat="47.00821" lon="0.22714">
        <ele>80.2</ele>
        <time>2026-03-14T15:03:04Z</time>
      </trkpt>
      <trkpt lat="47.00821" lon="0.22706">
        <ele>80.2</ele>
        <time>2026-03-14T15:03:05Z</time>
      </trkpt>
      <trkpt lat="47.00821" lon="0.22631">
        <ele>80.2</ele>
        <time>2026-03-14T15:03:14Z</time>
      </trkpt>
      <trkpt lat="47.00821" lon="0.22614">
        <ele>80.2</ele>
        <time>2026-03-14T15:03:16Z</time>
      </trkpt>
      <trkpt lat="47.00821" lon="0.22551">
        <ele>80.2</ele>
        <time>2026-03-14T15:03:23Z</time>
      </trkpt>
      <trkpt lat="47.00822" lon="0.22466">
        <ele>79.8</ele>
        <time>2026-03-14T15:03:32Z</time>
      </trkpt>
      <trkpt lat="47.00822" lon="0.22438">
        <ele>79.8</ele>
        <time>2026-03-14T15:03:35Z</time>
      </trkpt>
      <trkpt lat="47.00823" lon="0.22354">
        <ele>80</ele>
        <time>2026-03-14T15:03:44Z</time>
      </trkpt>
      <trkpt lat="47.00823" lon="0.22344">
        <ele>80</ele>
        <time>2026-03-14T15:03:45Z</time>
      </trkpt>
      <trkpt lat="47.00823" lon="0.22259">
        <ele>79.4</ele>
        <time>2026-03-14T15:03:54Z</time>
      </trkpt>
      <trkpt lat="47.00824" lon="0.2224">
        <ele>79.2</ele>
        <time>2026-03-14T15:03:56Z</time>
      </trkpt>
      <trkpt lat="47.00824" lon="0.22222">
        <ele>79.2</ele>
        <time>2026-03-14T15:03:58Z</time>
      </trkpt>
      <trkpt lat="47.00824" lon="0.22137">
        <ele>79.2</ele>
        <time>2026-03-14T15:04:07Z</time>
      </trkpt>
      <trkpt lat="47.00824" lon="0.22099">
        <ele>79</ele>
        <time>2026-03-14T15:04:11Z</time>
      </trkpt>
      <trkpt lat="47.00825" lon="0.22013">
        <ele>78.8</ele>
        <time>2026-03-14T15:04:20Z</time>
      </trkpt>
      <trkpt lat="47.00825" lon="0.21985">
        <ele>78.6</ele>
        <time>2026-03-14T15:04:23Z</time>
      </trkpt>
      <trkpt lat="47.00824" lon="0.21903">
        <ele>78.4</ele>
        <time>2026-03-14T15:04:32Z</time>
      </trkpt>
      <trkpt lat="47.00825" lon="0.21894">
        <ele>78.4</ele>
        <time>2026-03-14T15:04:33Z</time>
      </trkpt>
      <trkpt lat="47.00825" lon="0.21814">
        <ele>78.6</ele>
        <time>2026-03-14T15:04:42Z</time>
      </trkpt>
      <trkpt lat="47.00825" lon="0.2177">
        <ele>78.8</ele>
        <time>2026-03-14T15:04:47Z</time>
      </trkpt>
      <trkpt lat="47.00826" lon="0.21684">
        <ele>79.2</ele>
        <time>2026-03-14T15:04:57Z</time>
      </trkpt>
      <trkpt lat="47.00826" lon="0.21675">
        <ele>79.2</ele>
        <time>2026-03-14T15:04:58Z</time>
      </trkpt>
      <trkpt lat="47.00827" lon="0.21603">
        <ele>79.8</ele>
        <time>2026-03-14T15:05:07Z</time>
      </trkpt>
      <trkpt lat="47.00827" lon="0.21555">
        <ele>80.6</ele>
        <time>2026-03-14T15:05:13Z</time>
      </trkpt>
      <trkpt lat="47.00828" lon="0.21476">
        <ele>81.4</ele>
        <time>2026-03-14T15:05:23Z</time>
      </trkpt>
      <trkpt lat="47.00827" lon="0.21459">
        <ele>81.6</ele>
        <time>2026-03-14T15:05:25Z</time>
      </trkpt>
      <trkpt lat="47.00827" lon="0.21402">
        <ele>82.2</ele>
        <time>2026-03-14T15:05:32Z</time>
      </trkpt>
      <trkpt lat="47.00827" lon="0.21337">
        <ele>82.6</ele>
        <time>2026-03-14T15:05:40Z</time>
      </trkpt>
      <trkpt lat="47.00828" lon="0.21305">
        <ele>83</ele>
        <time>2026-03-14T15:05:44Z</time>
      </trkpt>
      <trkpt lat="47.00828" lon="0.21223">
        <ele>83.2</ele>
        <time>2026-03-14T15:05:54Z</time>
      </trkpt>
      <trkpt lat="47.00827" lon="0.21158">
        <ele>83.8</ele>
        <time>2026-03-14T15:06:02Z</time>
      </trkpt>
      <trkpt lat="47.00828" lon="0.21125">
        <ele>83.8</ele>
        <time>2026-03-14T15:06:06Z</time>
      </trkpt>
      <trkpt lat="47.00828" lon="0.21041">
        <ele>84.8</ele>
        <time>2026-03-14T15:06:16Z</time>
      </trkpt>
      <trkpt lat="47.00829" lon="0.20959">
        <ele>85.8</ele>
        <time>2026-03-14T15:06:26Z</time>
      </trkpt>
      <trkpt lat="47.00829" lon="0.20942">
        <ele>86</ele>
        <time>2026-03-14T15:06:28Z</time>
      </trkpt>
      <trkpt lat="47.0083" lon="0.20859">
        <ele>86.4</ele>
        <time>2026-03-14T15:06:38Z</time>
      </trkpt>
      <trkpt lat="47.0083" lon="0.20817">
        <ele>86.4</ele>
        <time>2026-03-14T15:06:43Z</time>
      </trkpt>
      <trkpt lat="47.0083" lon="0.20744">
        <ele>86.8</ele>
        <time>2026-03-14T15:06:52Z</time>
      </trkpt>
      <trkpt lat="47.0083" lon="0.20729">
        <ele>87</ele>
        <time>2026-03-14T15:06:54Z</time>
      </trkpt>
      <trkpt lat="47.0083" lon="0.20721">
        <ele>87</ele>
        <time>2026-03-14T15:06:55Z</time>
      </trkpt>
      <trkpt lat="47.0083" lon="0.20649">
        <ele>87.6</ele>
        <time>2026-03-14T15:07:04Z</time>
      </trkpt>
      <trkpt lat="47.00831" lon="0.206">
        <ele>87.8</ele>
        <time>2026-03-14T15:07:10Z</time>
      </trkpt>
      <trkpt lat="47.00832" lon="0.2052">
        <ele>88.2</ele>
        <time>2026-03-14T15:07:20Z</time>
      </trkpt>
      <trkpt lat="47.00831" lon="0.20438">
        <ele>88.8</ele>
        <time>2026-03-14T15:07:30Z</time>
      </trkpt>
      <trkpt lat="47.00832" lon="0.20414">
        <ele>88.8</ele>
        <time>2026-03-14T15:07:33Z</time>
      </trkpt>
      <trkpt lat="47.00832" lon="0.20405">
        <ele>89</ele>
        <time>2026-03-14T15:07:34Z</time>
      </trkpt>
      <trkpt lat="47.00832" lon="0.20381">
        <ele>89</ele>
        <time>2026-03-14T15:07:37Z</time>
      </trkpt>
      <trkpt lat="47.00831" lon="0.20341">
        <ele>89.4</ele>
        <time>2026-03-14T15:07:42Z</time>
      </trkpt>
      <trkpt lat="47.00832" lon="0.20262">
        <ele>89.8</ele>
        <time>2026-03-14T15:07:52Z</time>
      </trkpt>
      <trkpt lat="47.00833" lon="0.20246">
        <ele>89.8</ele>
        <time>2026-03-14T15:07:54Z</time>
      </trkpt>
      <trkpt lat="47.00833" lon="0.20214">
        <ele>90.2</ele>
        <time>2026-03-14T15:07:58Z</time>
      </trkpt>
      <trkpt lat="47.00833" lon="0.20158">
        <ele>90.4</ele>
        <time>2026-03-14T15:08:05Z</time>
      </trkpt>
      <trkpt lat="47.00833" lon="0.20086">
        <ele>90.6</ele>
        <time>2026-03-14T15:08:14Z</time>
      </trkpt>
      <trkpt lat="47.00833" lon="0.20006">
        <ele>91</ele>
        <time>2026-03-14T15:08:24Z</time>
      </trkpt>
      <trkpt lat="47.00833" lon="0.1999">
        <ele>91.2</ele>
        <time>2026-03-14T15:08:26Z</time>
      </trkpt>
      <trkpt lat="47.00833" lon="0.19933">
        <ele>91.2</ele>
        <time>2026-03-14T15:08:33Z</time>
      </trkpt>
      <trkpt lat="47.00833" lon="0.19869">
        <ele>91.4</ele>
        <time>2026-03-14T15:08:41Z</time>
      </trkpt>
      <trkpt lat="47.00834" lon="0.19846">
        <ele>91.6</ele>
        <time>2026-03-14T15:08:44Z</time>
      </trkpt>
      <trkpt lat="47.00834" lon="0.19765">
        <ele>92</ele>
        <time>2026-03-14T15:08:54Z</time>
      </trkpt>
      <trkpt lat="47.00835" lon="0.19748">
        <ele>92.2</ele>
        <time>2026-03-14T15:08:56Z</time>
      </trkpt>
      <trkpt lat="47.00834" lon="0.19715">
        <ele>92.2</ele>
        <time>2026-03-14T15:09:00Z</time>
      </trkpt>
      <trkpt lat="47.00835" lon="0.19656">
        <ele>92.4</ele>
        <time>2026-03-14T15:09:07Z</time>
      </trkpt>
      <trkpt lat="47.00835" lon="0.19577">
        <ele>92.2</ele>
        <time>2026-03-14T15:09:16Z</time>
      </trkpt>
      <trkpt lat="47.00836" lon="0.19539">
        <ele>92.2</ele>
        <time>2026-03-14T15:09:20Z</time>
      </trkpt>
      <trkpt lat="47.00836" lon="0.19521">
        <ele>92.2</ele>
        <time>2026-03-14T15:09:22Z</time>
      </trkpt>
      <trkpt lat="47.00837" lon="0.19434">
        <ele>92</ele>
        <time>2026-03-14T15:09:31Z</time>
      </trkpt>
      <trkpt lat="47.00839" lon="0.1935">
        <ele>91.4</ele>
        <time>2026-03-14T15:09:39Z</time>
      </trkpt>
      <trkpt lat="47.00839" lon="0.19328">
        <ele>91.2</ele>
        <time>2026-03-14T15:09:41Z</time>
      </trkpt>
      <trkpt lat="47.00839" lon="0.19274">
        <ele>90</ele>
        <time>2026-03-14T15:09:46Z</time>
      </trkpt>
      <trkpt lat="47.0084" lon="0.19241">
        <ele>89.8</ele>
        <time>2026-03-14T15:09:49Z</time>
      </trkpt>
      <trkpt lat="47.00841" lon="0.19164">
        <ele>89</ele>
        <time>2026-03-14T15:09:56Z</time>
      </trkpt>
      <trkpt lat="47.00841" lon="0.19153">
        <ele>88.8</ele>
        <time>2026-03-14T15:09:57Z</time>
      </trkpt>
      <trkpt lat="47.00842" lon="0.19064">
        <ele>88.2</ele>
        <time>2026-03-14T15:10:05Z</time>
      </trkpt>
      <trkpt lat="47.00842" lon="0.19052">
        <ele>88</ele>
        <time>2026-03-14T15:10:06Z</time>
      </trkpt>
      <trkpt lat="47.00842" lon="0.1904">
        <ele>88</ele>
        <time>2026-03-14T15:10:07Z</time>
      </trkpt>
      <trkpt lat="47.00843" lon="0.18955">
        <ele>86.6</ele>
        <time>2026-03-14T15:10:14Z</time>
      </trkpt>
      <trkpt lat="47.00843" lon="0.18929">
        <ele>86</ele>
        <time>2026-03-14T15:10:16Z</time>
      </trkpt>
      <trkpt lat="47.00843" lon="0.18891">
        <ele>85.4</ele>
        <time>2026-03-14T15:10:19Z</time>
      </trkpt>
      <trkpt lat="47.00843" lon="0.18826">
        <ele>84.2</ele>
        <time>2026-03-14T15:10:24Z</time>
      </trkpt>
      <trkpt lat="47.00842" lon="0.18812">
        <ele>84</ele>
        <time>2026-03-14T15:10:25Z</time>
      </trkpt>
      <trkpt lat="47.00842" lon="0.18761">
        <ele>83.2</ele>
        <time>2026-03-14T15:10:29Z</time>
      </trkpt>
      <trkpt lat="47.00842" lon="0.18697">
        <ele>82</ele>
        <time>2026-03-14T15:10:34Z</time>
      </trkpt>
      <trkpt lat="47.00842" lon="0.18659">
        <ele>81.6</ele>
        <time>2026-03-14T15:10:37Z</time>
      </trkpt>
      <trkpt lat="47.00842" lon="0.18634">
        <ele>81</ele>
        <time>2026-03-14T15:10:39Z</time>
      </trkpt>
      <trkpt lat="47.00842" lon="0.18597">
        <ele>80</ele>
        <time>2026-03-14T15:10:42Z</time>
      </trkpt>
      <trkpt lat="47.00842" lon="0.18521">
        <ele>78.8</ele>
        <time>2026-03-14T15:10:48Z</time>
      </trkpt>
      <trkpt lat="47.00842" lon="0.18469">
        <ele>77.6</ele>
        <time>2026-03-14T15:10:52Z</time>
      </trkpt>
      <trkpt lat="47.00842" lon="0.18417">
        <ele>76.6</ele>
        <time>2026-03-14T15:10:56Z</time>
      </trkpt>
      <trkpt lat="47.00842" lon="0.18355">
        <ele>75.6</ele>
        <time>2026-03-14T15:11:01Z</time>
      </trkpt>
      <trkpt lat="47.00842" lon="0.18296">
        <ele>75</ele>
        <time>2026-03-14T15:11:06Z</time>
      </trkpt>
      <trkpt lat="47.00842" lon="0.18262">
        <ele>74.6</ele>
        <time>2026-03-14T15:11:09Z</time>
      </trkpt>
      <trkpt lat="47.00842" lon="0.18251">
        <ele>74.4</ele>
        <time>2026-03-14T15:11:10Z</time>
      </trkpt>
      <trkpt lat="47.00842" lon="0.18164">
        <ele>74</ele>
        <time>2026-03-14T15:11:18Z</time>
      </trkpt>
      <trkpt lat="47.00842" lon="0.18153">
        <ele>73.8</ele>
        <time>2026-03-14T15:11:19Z</time>
      </trkpt>
      <trkpt lat="47.00843" lon="0.18069">
        <ele>73.6</ele>
        <time>2026-03-14T15:11:27Z</time>
      </trkpt>
      <trkpt lat="47.00843" lon="0.18018">
        <ele>73.6</ele>
        <time>2026-03-14T15:11:32Z</time>
      </trkpt>
      <trkpt lat="47.00843" lon="0.17968">
        <ele>73.4</ele>
        <time>2026-03-14T15:11:37Z</time>
      </trkpt>
      <trkpt lat="47.00843" lon="0.17919">
        <ele>73.2</ele>
        <time>2026-03-14T15:11:42Z</time>
      </trkpt>
      <trkpt lat="47.00843" lon="0.17838">
        <ele>73</ele>
        <time>2026-03-14T15:11:50Z</time>
      </trkpt>
      <trkpt lat="47.00843" lon="0.17828">
        <ele>73</ele>
        <time>2026-03-14T15:11:51Z</time>
      </trkpt>
      <trkpt lat="47.00844" lon="0.17746">
        <ele>72.4</ele>
        <time>2026-03-14T15:11:59Z</time>
      </trkpt>
      <trkpt lat="47.00844" lon="0.17736">
        <ele>72.4</ele>
        <time>2026-03-14T15:12:00Z</time>
      </trkpt>
      <trkpt lat="47.00845" lon="0.17655">
        <ele>72.2</ele>
        <time>2026-03-14T15:12:08Z</time>
      </trkpt>
      <trkpt lat="47.00845" lon="0.17614">
        <ele>72.2</ele>
        <time>2026-03-14T15:12:12Z</time>
      </trkpt>
      <trkpt lat="47.00845" lon="0.17533">
        <ele>72.2</ele>
        <time>2026-03-14T15:12:20Z</time>
      </trkpt>
      <trkpt lat="47.00845" lon="0.17503">
        <ele>72</ele>
        <time>2026-03-14T15:12:23Z</time>
      </trkpt>
      <trkpt lat="47.00846" lon="0.17452">
        <ele>71.8</ele>
        <time>2026-03-14T15:12:28Z</time>
      </trkpt>
      <trkpt lat="47.00846" lon="0.17392">
        <ele>71.8</ele>
        <time>2026-03-14T15:12:34Z</time>
      </trkpt>
      <trkpt lat="47.00845" lon="0.17307">
        <ele>72</ele>
        <time>2026-03-14T15:12:42Z</time>
      </trkpt>
      <trkpt lat="47.00847" lon="0.17225">
        <ele>72</ele>
        <time>2026-03-14T15:12:50Z</time>
      </trkpt>
      <trkpt lat="47.00849" lon="0.17145">
        <ele>71.8</ele>
        <time>2026-03-14T15:12:58Z</time>
      </trkpt>
      <trkpt lat="47.00849" lon="0.17115">
        <ele>72</ele>
        <time>2026-03-14T15:13:01Z</time>
      </trkpt>
      <trkpt lat="47.0085" lon="0.17036">
        <ele>72.2</ele>
        <time>2026-03-14T15:13:09Z</time>
      </trkpt>
      <trkpt lat="47.00851" lon="0.17016">
        <ele>72.2</ele>
        <time>2026-03-14T15:13:11Z</time>
      </trkpt>
      <trkpt lat="47.00852" lon="0.16928">
        <ele>72.2</ele>
        <time>2026-03-14T15:13:20Z</time>
      </trkpt>
      <trkpt lat="47.00853" lon="0.1689">
        <ele>72.2</ele>
        <time>2026-03-14T15:13:24Z</time>
      </trkpt>
      <trkpt lat="47.00854" lon="0.16803">
        <ele>72.4</ele>
        <time>2026-03-14T15:13:33Z</time>
      </trkpt>
      <trkpt lat="47.00854" lon="0.16754">
        <ele>72.4</ele>
        <time>2026-03-14T15:13:38Z</time>
      </trkpt>
      <trkpt lat="47.00855" lon="0.16674">
        <ele>72.4</ele>
        <time>2026-03-14T15:13:46Z</time>
      </trkpt>
      <trkpt lat="47.00855" lon="0.16625">
        <ele>72.4</ele>
        <time>2026-03-14T15:13:51Z</time>
      </trkpt>
      <trkpt lat="47.00856" lon="0.16538">
        <ele>72.4</ele>
        <time>2026-03-14T15:14:00Z</time>
      </trkpt>
      <trkpt lat="47.00855" lon="0.16508">
        <ele>72.4</ele>
        <time>2026-03-14T15:14:03Z</time>
      </trkpt>
      <trkpt lat="47.00856" lon="0.16421">
        <ele>72.4</ele>
        <time>2026-03-14T15:14:12Z</time>
      </trkpt>
      <trkpt lat="47.00856" lon="0.16372">
        <ele>72.2</ele>
        <time>2026-03-14T15:14:17Z</time>
      </trkpt>
      <trkpt lat="47.00855" lon="0.16314">
        <ele>72.4</ele>
        <time>2026-03-14T15:14:23Z</time>
      </trkpt>
      <trkpt lat="47.00854" lon="0.16238">
        <ele>72.6</ele>
        <time>2026-03-14T15:14:31Z</time>
      </trkpt>
      <trkpt lat="47.00854" lon="0.16155">
        <ele>72.4</ele>
        <time>2026-03-14T15:14:40Z</time>
      </trkpt>
      <trkpt lat="47.00854" lon="0.16109">
        <ele>72.8</ele>
        <time>2026-03-14T15:14:45Z</time>
      </trkpt>
      <trkpt lat="47.00854" lon="0.16029">
        <ele>73</ele>
        <time>2026-03-14T15:14:54Z</time>
      </trkpt>
      <trkpt lat="47.00854" lon="0.16002">
        <ele>73.2</ele>
        <time>2026-03-14T15:14:57Z</time>
      </trkpt>
      <trkpt lat="47.00855" lon="0.15921">
        <ele>73.6</ele>
        <time>2026-03-14T15:15:06Z</time>
      </trkpt>
      <trkpt lat="47.00855" lon="0.15912">
        <ele>73.6</ele>
        <time>2026-03-14T15:15:07Z</time>
      </trkpt>
      <trkpt lat="47.00855" lon="0.15852">
        <ele>74.2</ele>
        <time>2026-03-14T15:15:14Z</time>
      </trkpt>
      <trkpt lat="47.00856" lon="0.15766">
        <ele>74.4</ele>
        <time>2026-03-14T15:15:24Z</time>
      </trkpt>
      <trkpt lat="47.00857" lon="0.15679">
        <ele>74.6</ele>
        <time>2026-03-14T15:15:34Z</time>
      </trkpt>
      <trkpt lat="47.00857" lon="0.15671">
        <ele>74.6</ele>
        <time>2026-03-14T15:15:35Z</time>
      </trkpt>
      <trkpt lat="47.00857" lon="0.15628">
        <ele>74.6</ele>
        <time>2026-03-14T15:15:40Z</time>
      </trkpt>
      <trkpt lat="47.00857" lon="0.15547">
        <ele>75</ele>
        <time>2026-03-14T15:15:49Z</time>
      </trkpt>
      <trkpt lat="47.00857" lon="0.15465">
        <ele>75</ele>
        <time>2026-03-14T15:15:58Z</time>
      </trkpt>
      <trkpt lat="47.00858" lon="0.15447">
        <ele>75</ele>
        <time>2026-03-14T15:16:00Z</time>
      </trkpt>
      <trkpt lat="47.00858" lon="0.15364">
        <ele>75.4</ele>
        <time>2026-03-14T15:16:09Z</time>
      </trkpt>
      <trkpt lat="47.00858" lon="0.1528">
        <ele>75.4</ele>
        <time>2026-03-14T15:16:18Z</time>
      </trkpt>
      <trkpt lat="47.00859" lon="0.15198">
        <ele>75.6</ele>
        <time>2026-03-14T15:16:27Z</time>
      </trkpt>
      <trkpt lat="47.00859" lon="0.15189">
        <ele>75.6</ele>
        <time>2026-03-14T15:16:28Z</time>
      </trkpt>
      <trkpt lat="47.00859" lon="0.15103">
        <ele>75.6</ele>
        <time>2026-03-14T15:16:37Z</time>
      </trkpt>
      <trkpt lat="47.00859" lon="0.15047">
        <ele>75.8</ele>
        <time>2026-03-14T15:16:43Z</time>
      </trkpt>
      <trkpt lat="47.0086" lon="0.15029">
        <ele>75.8</ele>
        <time>2026-03-14T15:16:45Z</time>
      </trkpt>
      <trkpt lat="47.00861" lon="0.14949">
        <ele>76.2</ele>
        <time>2026-03-14T15:16:54Z</time>
      </trkpt>
      <trkpt lat="47.00861" lon="0.14941">
        <ele>76.4</ele>
        <time>2026-03-14T15:16:55Z</time>
      </trkpt>
      <trkpt lat="47.00862" lon="0.14915">
        <ele>76.8</ele>
        <time>2026-03-14T15:16:58Z</time>
      </trkpt>
      <trkpt lat="47.00861" lon="0.14883">
        <ele>77.2</ele>
        <time>2026-03-14T15:17:02Z</time>
      </trkpt>
      <trkpt lat="47.00861" lon="0.14851">
        <ele>77.8</ele>
        <time>2026-03-14T15:17:06Z</time>
      </trkpt>
      <trkpt lat="47.00861" lon="0.14812">
        <ele>78.8</ele>
        <time>2026-03-14T15:17:11Z</time>
      </trkpt>
      <trkpt lat="47.00862" lon="0.14789">
        <ele>79</ele>
        <time>2026-03-14T15:17:14Z</time>
      </trkpt>
      <trkpt lat="47.00861" lon="0.14742">
        <ele>80</ele>
        <time>2026-03-14T15:17:20Z</time>
      </trkpt>
      <trkpt lat="47.00861" lon="0.14733">
        <ele>80</ele>
        <time>2026-03-14T15:17:21Z</time>
      </trkpt>
      <trkpt lat="47.00862" lon="0.14648">
        <ele>80.4</ele>
        <time>2026-03-14T15:17:31Z</time>
      </trkpt>
      <trkpt lat="47.00862" lon="0.14639">
        <ele>80.4</ele>
        <time>2026-03-14T15:17:32Z</time>
      </trkpt>
      <trkpt lat="47.00862" lon="0.14552">
        <ele>80.2</ele>
        <time>2026-03-14T15:17:41Z</time>
      </trkpt>
      <trkpt lat="47.00862" lon="0.14466">
        <ele>79</ele>
        <time>2026-03-14T15:17:49Z</time>
      </trkpt>
      <trkpt lat="47.00862" lon="0.14455">
        <ele>79</ele>
        <time>2026-03-14T15:17:50Z</time>
      </trkpt>
      <trkpt lat="47.00862" lon="0.14444">
        <ele>79</ele>
        <time>2026-03-14T15:17:51Z</time>
      </trkpt>
      <trkpt lat="47.00862" lon="0.14375">
        <ele>78</ele>
        <time>2026-03-14T15:17:57Z</time>
      </trkpt>
      <trkpt lat="47.00862" lon="0.14349">
        <ele>77.6</ele>
        <time>2026-03-14T15:17:59Z</time>
      </trkpt>
      <trkpt lat="47.00863" lon="0.14281">
        <ele>76.8</ele>
        <time>2026-03-14T15:18:05Z</time>
      </trkpt>
      <trkpt lat="47.00863" lon="0.14222">
        <ele>75.8</ele>
        <time>2026-03-14T15:18:10Z</time>
      </trkpt>
      <trkpt lat="47.00863" lon="0.14149">
        <ele>74.6</ele>
        <time>2026-03-14T15:18:16Z</time>
      </trkpt>
      <trkpt lat="47.00863" lon="0.14101">
        <ele>74</ele>
        <time>2026-03-14T15:18:20Z</time>
      </trkpt>
      <trkpt lat="47.00863" lon="0.14064">
        <ele>73.6</ele>
        <time>2026-03-14T15:18:23Z</time>
      </trkpt>
      <trkpt lat="47.00863" lon="0.13992">
        <ele>72.6</ele>
        <time>2026-03-14T15:18:29Z</time>
      </trkpt>
      <trkpt lat="47.00863" lon="0.1398">
        <ele>72.4</ele>
        <time>2026-03-14T15:18:30Z</time>
      </trkpt>
      <trkpt lat="47.00864" lon="0.13907">
        <ele>71.6</ele>
        <time>2026-03-14T15:18:36Z</time>
      </trkpt>
      <trkpt lat="47.00864" lon="0.1387">
        <ele>71</ele>
        <time>2026-03-14T15:18:39Z</time>
      </trkpt>
      <trkpt lat="47.00864" lon="0.13821">
        <ele>70.2</ele>
        <time>2026-03-14T15:18:43Z</time>
      </trkpt>
      <trkpt lat="47.00864" lon="0.13761">
        <ele>69.2</ele>
        <time>2026-03-14T15:18:48Z</time>
      </trkpt>
      <trkpt lat="47.00865" lon="0.13712">
        <ele>68.2</ele>
        <time>2026-03-14T15:18:52Z</time>
      </trkpt>
      <trkpt lat="47.00865" lon="0.137">
        <ele>68</ele>
        <time>2026-03-14T15:18:53Z</time>
      </trkpt>
      <trkpt lat="47.00865" lon="0.13612">
        <ele>67</ele>
        <time>2026-03-14T15:19:00Z</time>
      </trkpt>
      <trkpt lat="47.00866" lon="0.13587">
        <ele>66.6</ele>
        <time>2026-03-14T15:19:02Z</time>
      </trkpt>
      <trkpt lat="47.00866" lon="0.1355">
        <ele>66</ele>
        <time>2026-03-14T15:19:05Z</time>
      </trkpt>
      <trkpt lat="47.00867" lon="0.13488">
        <ele>65</ele>
        <time>2026-03-14T15:19:10Z</time>
      </trkpt>
      <trkpt lat="47.00868" lon="0.13453">
        <ele>64.6</ele>
        <time>2026-03-14T15:19:13Z</time>
      </trkpt>
      <trkpt lat="47.0087" lon="0.13364">
        <ele>64.6</ele>
        <time>2026-03-14T15:19:21Z</time>
      </trkpt>
      <trkpt lat="47.00871" lon="0.1328">
        <ele>64.8</ele>
        <time>2026-03-14T15:19:29Z</time>
      </trkpt>
      <trkpt lat="47.00871" lon="0.1327">
        <ele>64.8</ele>
        <time>2026-03-14T15:19:30Z</time>
      </trkpt>
      <trkpt lat="47.00871" lon="0.13189">
        <ele>65</ele>
        <time>2026-03-14T15:19:38Z</time>
      </trkpt>
      <trkpt lat="47.00871" lon="0.1314">
        <ele>65</ele>
        <time>2026-03-14T15:19:43Z</time>
      </trkpt>
      <trkpt lat="47.00869" lon="0.13055">
        <ele>65.4</ele>
        <time>2026-03-14T15:19:52Z</time>
      </trkpt>
      <trkpt lat="47.00869" lon="0.1297">
        <ele>65.8</ele>
        <time>2026-03-14T15:20:01Z</time>
      </trkpt>
      <trkpt lat="47.0087" lon="0.12911">
        <ele>66</ele>
        <time>2026-03-14T15:20:07Z</time>
      </trkpt>
      <trkpt lat="47.0087" lon="0.12892">
        <ele>66</ele>
        <time>2026-03-14T15:20:09Z</time>
      </trkpt>
      <trkpt lat="47.00871" lon="0.12817">
        <ele>66.4</ele>
        <time>2026-03-14T15:20:17Z</time>
      </trkpt>
      <trkpt lat="47.00871" lon="0.12735">
        <ele>66.8</ele>
        <time>2026-03-14T15:20:26Z</time>
      </trkpt>
      <trkpt lat="47.00871" lon="0.12708">
        <ele>67</ele>
        <time>2026-03-14T15:20:29Z</time>
      </trkpt>
      <trkpt lat="47.00871" lon="0.12699">
        <ele>67</ele>
        <time>2026-03-14T15:20:30Z</time>
      </trkpt>
      <trkpt lat="47.00871" lon="0.12618">
        <ele>67.4</ele>
        <time>2026-03-14T15:20:39Z</time>
      </trkpt>
      <trkpt lat="47.00871" lon="0.12611">
        <ele>67.6</ele>
        <time>2026-03-14T15:20:40Z</time>
      </trkpt>
      <trkpt lat="47.00871" lon="0.12567">
        <ele>68</ele>
        <time>2026-03-14T15:20:45Z</time>
      </trkpt>
      <trkpt lat="47.00871" lon="0.12514">
        <ele>68.2</ele>
        <time>2026-03-14T15:20:51Z</time>
      </trkpt>
      <trkpt lat="47.00871" lon="0.12429">
        <ele>68.6</ele>
        <time>2026-03-14T15:21:01Z</time>
      </trkpt>
      <trkpt lat="47.00871" lon="0.12421">
        <ele>68.6</ele>
        <time>2026-03-14T15:21:02Z</time>
      </trkpt>
      <trkpt lat="47.00872" lon="0.12406">
        <ele>68.6</ele>
        <time>2026-03-14T15:21:04Z</time>
      </trkpt>
      <trkpt lat="47.00872" lon="0.12357">
        <ele>69</ele>
        <time>2026-03-14T15:21:10Z</time>
      </trkpt>
      <trkpt lat="47.00872" lon="0.12326">
        <ele>69.8</ele>
        <time>2026-03-14T15:21:14Z</time>
      </trkpt>
      <trkpt lat="47.00873" lon="0.1226">
        <ele>70</ele>
        <time>2026-03-14T15:21:22Z</time>
      </trkpt>
      <trkpt lat="47.00873" lon="0.12229">
        <ele>70.4</ele>
        <time>2026-03-14T15:21:26Z</time>
      </trkpt>
      <trkpt lat="47.00873" lon="0.1215">
        <ele>71</ele>
        <time>2026-03-14T15:21:36Z</time>
      </trkpt>
      <trkpt lat="47.00874" lon="0.12133">
        <ele>71.2</ele>
        <time>2026-03-14T15:21:38Z</time>
      </trkpt>
      <trkpt lat="47.00874" lon="0.12063">
        <ele>71.8</ele>
        <time>2026-03-14T15:21:47Z</time>
      </trkpt>
      <trkpt lat="47.00874" lon="0.12016">
        <ele>72.2</ele>
        <time>2026-03-14T15:21:53Z</time>
      </trkpt>
      <trkpt lat="47.00875" lon="0.11972">
        <ele>72.6</ele>
        <time>2026-03-14T15:21:59Z</time>
      </trkpt>
      <trkpt lat="47.00875" lon="0.11917">
        <ele>73.2</ele>
        <time>2026-03-14T15:22:06Z</time>
      </trkpt>
      <trkpt lat="47.00875" lon="0.11893">
        <ele>73.6</ele>
        <time>2026-03-14T15:22:09Z</time>
      </trkpt>
      <trkpt lat="47.00875" lon="0.11815">
        <ele>74.4</ele>
        <time>2026-03-14T15:22:19Z</time>
      </trkpt>
      <trkpt lat="47.00875" lon="0.118">
        <ele>74.6</ele>
        <time>2026-03-14T15:22:21Z</time>
      </trkpt>
      <trkpt lat="47.00876" lon="0.11715">
        <ele>75.4</ele>
        <time>2026-03-14T15:22:32Z</time>
      </trkpt>
      <trkpt lat="47.00876" lon="0.117">
        <ele>75.4</ele>
        <time>2026-03-14T15:22:34Z</time>
      </trkpt>
      <trkpt lat="47.00876" lon="0.11639">
        <ele>76.4</ele>
        <time>2026-03-14T15:22:42Z</time>
      </trkpt>
      <trkpt lat="47.00876" lon="0.11624">
        <ele>76.6</ele>
        <time>2026-03-14T15:22:44Z</time>
      </trkpt>
      <trkpt lat="47.00876" lon="0.11544">
        <ele>77.4</ele>
        <time>2026-03-14T15:22:55Z</time>
      </trkpt>
      <trkpt lat="47.00876" lon="0.11535">
        <ele>77.6</ele>
        <time>2026-03-14T15:22:56Z</time>
      </trkpt>
      <trkpt lat="47.00875" lon="0.11454">
        <ele>78.2</ele>
        <time>2026-03-14T15:23:07Z</time>
      </trkpt>
      <trkpt lat="47.00875" lon="0.11447">
        <ele>78.4</ele>
        <time>2026-03-14T15:23:08Z</time>
      </trkpt>
      <trkpt lat="47.00876" lon="0.11422">
        <ele>78.6</ele>
        <time>2026-03-14T15:23:11Z</time>
      </trkpt>
      <trkpt lat="47.00876" lon="0.11346">
        <ele>79.4</ele>
        <time>2026-03-14T15:23:21Z</time>
      </trkpt>
      <trkpt lat="47.00876" lon="0.11324">
        <ele>79.8</ele>
        <time>2026-03-14T15:23:24Z</time>
      </trkpt>
      <trkpt lat="47.00876" lon="0.1126">
        <ele>80.8</ele>
        <time>2026-03-14T15:23:33Z</time>
      </trkpt>
      <trkpt lat="47.00876" lon="0.1122">
        <ele>81.8</ele>
        <time>2026-03-14T15:23:39Z</time>
      </trkpt>
      <trkpt lat="47.00876" lon="0.11206">
        <ele>82</ele>
        <time>2026-03-14T15:23:41Z</time>
      </trkpt>
      <trkpt lat="47.00876" lon="0.112">
        <ele>82.2</ele>
        <time>2026-03-14T15:23:42Z</time>
      </trkpt>
      <trkpt lat="47.00877" lon="0.11174">
        <ele>82.8</ele>
        <time>2026-03-14T15:23:46Z</time>
      </trkpt>
      <trkpt lat="47.00877" lon="0.11147">
        <ele>83.4</ele>
        <time>2026-03-14T15:23:50Z</time>
      </trkpt>
      <trkpt lat="47.00877" lon="0.1114">
        <ele>83.6</ele>
        <time>2026-03-14T15:23:51Z</time>
      </trkpt>
      <trkpt lat="47.00877" lon="0.11127">
        <ele>84</ele>
        <time>2026-03-14T15:23:53Z</time>
      </trkpt>
      <trkpt lat="47.00877" lon="0.11105">
        <ele>84.4</ele>
        <time>2026-03-14T15:23:56Z</time>
      </trkpt>
      <trkpt lat="47.00875" lon="0.11073">
        <ele>85</ele>
        <time>2026-03-14T15:24:01Z</time>
      </trkpt>
      <trkpt lat="47.00875" lon="0.1106">
        <ele>85.2</ele>
        <time>2026-03-14T15:24:03Z</time>
      </trkpt>
      <trkpt lat="47.00876" lon="0.1104">
        <ele>85.8</ele>
        <time>2026-03-14T15:24:06Z</time>
      </trkpt>
      <trkpt lat="47.00876" lon="0.11026">
        <ele>86</ele>
        <time>2026-03-14T15:24:08Z</time>
      </trkpt>
      <trkpt lat="47.00876" lon="0.1102">
        <ele>86</ele>
        <time>2026-03-14T15:24:09Z</time>
      </trkpt>
      <trkpt lat="47.00877" lon="0.10988">
        <ele>86.8</ele>
        <time>2026-03-14T15:24:14Z</time>
      </trkpt>
      <trkpt lat="47.00878" lon="0.10966">
        <ele>87.2</ele>
        <time>2026-03-14T15:24:17Z</time>
      </trkpt>
      <trkpt lat="47.00878" lon="0.10911">
        <ele>88.2</ele>
        <time>2026-03-14T15:24:25Z</time>
      </trkpt>
      <trkpt lat="47.00878" lon="0.10903">
        <ele>88.4</ele>
        <time>2026-03-14T15:24:26Z</time>
      </trkpt>
      <trkpt lat="47.0088" lon="0.10842">
        <ele>89.6</ele>
        <time>2026-03-14T15:24:35Z</time>
      </trkpt>
      <trkpt lat="47.0088" lon="0.10835">
        <ele>89.6</ele>
        <time>2026-03-14T15:24:36Z</time>
      </trkpt>
      <trkpt lat="47.0088" lon="0.10787">
        <ele>90.6</ele>
        <time>2026-03-14T15:24:43Z</time>
      </trkpt>
      <trkpt lat="47.00881" lon="0.10752">
        <ele>91</ele>
        <time>2026-03-14T15:24:48Z</time>
      </trkpt>
      <trkpt lat="47.00881" lon="0.10716">
        <ele>91.6</ele>
        <time>2026-03-14T15:24:53Z</time>
      </trkpt>
      <trkpt lat="47.00881" lon="0.10669">
        <ele>92</ele>
        <time>2026-03-14T15:25:00Z</time>
      </trkpt>
      <trkpt lat="47.00882" lon="0.10628">
        <ele>92.6</ele>
        <time>2026-03-14T15:25:06Z</time>
      </trkpt>
      <trkpt lat="47.00882" lon="0.10601">
        <ele>92.8</ele>
        <time>2026-03-14T15:25:10Z</time>
      </trkpt>
      <trkpt lat="47.00885" lon="0.10545">
        <ele>93</ele>
        <time>2026-03-14T15:25:18Z</time>
      </trkpt>
      <trkpt lat="47.00887" lon="0.10533">
        <ele>93.4</ele>
        <time>2026-03-14T15:25:20Z</time>
      </trkpt>
      <trkpt lat="47.0089" lon="0.1052">
        <ele>93.8</ele>
        <time>2026-03-14T15:25:22Z</time>
      </trkpt>
      <trkpt lat="47.00897" lon="0.1051">
        <ele>93.8</ele>
        <time>2026-03-14T15:25:24Z</time>
      </trkpt>
      <trkpt lat="47.00902" lon="0.10497">
        <ele>94</ele>
        <time>2026-03-14T15:25:26Z</time>
      </trkpt>
      <trkpt lat="47.00902" lon="0.10483">
        <ele>94</ele>
        <time>2026-03-14T15:25:28Z</time>
      </trkpt>
      <trkpt lat="47.00898" lon="0.1047">
        <ele>94.2</ele>
        <time>2026-03-14T15:25:30Z</time>
      </trkpt>
      <trkpt lat="47.00893" lon="0.10454">
        <ele>94.4</ele>
        <time>2026-03-14T15:25:32Z</time>
      </trkpt>
      <trkpt lat="47.00894" lon="0.10414">
        <ele>94.4</ele>
        <time>2026-03-14T15:25:37Z</time>
      </trkpt>
      <trkpt lat="47.00901" lon="0.10344">
        <ele>93.8</ele>
        <time>2026-03-14T15:25:45Z</time>
      </trkpt>
      <trkpt lat="47.00914" lon="0.10268">
        <ele>93.4</ele>
        <time>2026-03-14T15:25:53Z</time>
      </trkpt>
      <trkpt lat="47.00928" lon="0.10191">
        <ele>93</ele>
        <time>2026-03-14T15:26:01Z</time>
      </trkpt>
      <trkpt lat="47.00929" lon="0.10181">
        <ele>92.8</ele>
        <time>2026-03-14T15:26:02Z</time>
      </trkpt>
      <trkpt lat="47.00934" lon="0.10153">
        <ele>92.4</ele>
        <time>2026-03-14T15:26:05Z</time>
      </trkpt>
      <trkpt lat="47.00942" lon="0.10107">
        <ele>91.6</ele>
        <time>2026-03-14T15:26:10Z</time>
      </trkpt>
      <trkpt lat="47.00947" lon="0.1008">
        <ele>91.4</ele>
        <time>2026-03-14T15:26:13Z</time>
      </trkpt>
      <trkpt lat="47.00957" lon="0.10017">
        <ele>90.6</ele>
        <time>2026-03-14T15:26:20Z</time>
      </trkpt>
      <trkpt lat="47.00959" lon="0.10008">
        <ele>90.2</ele>
        <time>2026-03-14T15:26:21Z</time>
      </trkpt>
      <trkpt lat="47.00968" lon="0.09944">
        <ele>89.2</ele>
        <time>2026-03-14T15:26:28Z</time>
      </trkpt>
      <trkpt lat="47.00973" lon="0.09909">
        <ele>89</ele>
        <time>2026-03-14T15:26:32Z</time>
      </trkpt>
      <trkpt lat="47.00981" lon="0.09862">
        <ele>88.2</ele>
        <time>2026-03-14T15:26:37Z</time>
      </trkpt>
      <trkpt lat="47.00986" lon="0.09824">
        <ele>87.6</ele>
        <time>2026-03-14T15:26:41Z</time>
      </trkpt>
      <trkpt lat="47.00993" lon="0.09777">
        <ele>87.2</ele>
        <time>2026-03-14T15:26:46Z</time>
      </trkpt>
      <trkpt lat="47.01005" lon="0.09694">
        <ele>86</ele>
        <time>2026-03-14T15:26:55Z</time>
      </trkpt>
      <trkpt lat="47.01015" lon="0.09628">
        <ele>85</ele>
        <time>2026-03-14T15:27:02Z</time>
      </trkpt>
      <trkpt lat="47.01024" lon="0.09572">
        <ele>84.6</ele>
        <time>2026-03-14T15:27:08Z</time>
      </trkpt>
      <trkpt lat="47.0103" lon="0.09533">
        <ele>84</ele>
        <time>2026-03-14T15:27:12Z</time>
      </trkpt>
      <trkpt lat="47.01034" lon="0.09495">
        <ele>83.4</ele>
        <time>2026-03-14T15:27:16Z</time>
      </trkpt>
      <trkpt lat="47.01036" lon="0.09476">
        <ele>83</ele>
        <time>2026-03-14T15:27:18Z</time>
      </trkpt>
      <trkpt lat="47.01045" lon="0.09419">
        <ele>82.2</ele>
        <time>2026-03-14T15:27:24Z</time>
      </trkpt>
      <trkpt lat="47.01046" lon="0.0941">
        <ele>82</ele>
        <time>2026-03-14T15:27:25Z</time>
      </trkpt>
      <trkpt lat="47.01054" lon="0.09373">
        <ele>81.6</ele>
        <time>2026-03-14T15:27:29Z</time>
      </trkpt>
      <trkpt lat="47.01055" lon="0.09364">
        <ele>81.6</ele>
        <time>2026-03-14T15:27:30Z</time>
      </trkpt>
      <trkpt lat="47.01059" lon="0.09328">
        <ele>80.6</ele>
        <time>2026-03-14T15:27:34Z</time>
      </trkpt>
      <trkpt lat="47.01061" lon="0.0932">
        <ele>80.2</ele>
        <time>2026-03-14T15:27:35Z</time>
      </trkpt>
      <trkpt lat="47.01062" lon="0.09312">
        <ele>80.2</ele>
        <time>2026-03-14T15:27:36Z</time>
      </trkpt>
      <trkpt lat="47.01065" lon="0.09298">
        <ele>80</ele>
        <time>2026-03-14T15:27:38Z</time>
      </trkpt>
      <trkpt lat="47.01065" lon="0.09292">
        <ele>80</ele>
        <time>2026-03-14T15:27:39Z</time>
      </trkpt>
      <trkpt lat="47.01064" lon="0.09286">
        <ele>79.8</ele>
        <time>2026-03-14T15:27:40Z</time>
      </trkpt>
      <trkpt lat="47.01059" lon="0.09274">
        <ele>79.8</ele>
        <time>2026-03-14T15:27:42Z</time>
      </trkpt>
      <trkpt lat="47.01056" lon="0.09266">
        <ele>79.8</ele>
        <time>2026-03-14T15:27:43Z</time>
      </trkpt>
      <trkpt lat="47.01048" lon="0.09237">
        <ele>79.6</ele>
        <time>2026-03-14T15:27:47Z</time>
      </trkpt>
      <trkpt lat="47.01037" lon="0.09197">
        <ele>79.6</ele>
        <time>2026-03-14T15:27:52Z</time>
      </trkpt>
      <trkpt lat="47.01032" lon="0.0918">
        <ele>79.4</ele>
        <time>2026-03-14T15:27:54Z</time>
      </trkpt>
      <trkpt lat="47.01009" lon="0.09104">
        <ele>78.6</ele>
        <time>2026-03-14T15:28:03Z</time>
      </trkpt>
      <trkpt lat="47.00995" lon="0.09054">
        <ele>78.6</ele>
        <time>2026-03-14T15:28:09Z</time>
      </trkpt>
      <trkpt lat="47.00973" lon="0.0899">
        <ele>78.8</ele>
        <time>2026-03-14T15:28:17Z</time>
      </trkpt>
      <trkpt lat="47.00943" lon="0.08923">
        <ele>78.6</ele>
        <time>2026-03-14T15:28:26Z</time>
      </trkpt>
      <trkpt lat="47.00933" lon="0.08901">
        <ele>78.2</ele>
        <time>2026-03-14T15:28:29Z</time>
      </trkpt>
      <trkpt lat="47.00919" lon="0.08867">
        <ele>77.6</ele>
        <time>2026-03-14T15:28:34Z</time>
      </trkpt>
      <trkpt lat="47.00913" lon="0.0885">
        <ele>77.2</ele>
        <time>2026-03-14T15:28:38Z</time>
      </trkpt>
      <trkpt lat="47.00913" lon="0.08847">
        <ele>77</ele>
        <time>2026-03-14T15:28:39Z</time>
      </trkpt>
      <trkpt lat="47.00911" lon="0.08843">
        <ele>76.8</ele>
        <time>2026-03-14T15:28:42Z</time>
      </trkpt>
      <trkpt lat="47.00911" lon="0.08843">
        <ele>76.6</ele>
        <time>2026-03-14T15:28:43Z</time>
      </trkpt>
      <trkpt lat="47.00911" lon="0.08843">
        <ele>76.2</ele>
        <time>2026-03-14T15:28:50Z</time>
      </trkpt>
      <trkpt lat="47.00911" lon="0.08843">
        <ele>76.2</ele>
        <time>2026-03-14T15:28:53Z</time>
      </trkpt>
      <trkpt lat="47.00909" lon="0.08835">
        <ele>76.6</ele>
        <time>2026-03-14T15:29:28Z</time>
      </trkpt>
      <trkpt lat="47.00908" lon="0.08831">
        <ele>76.4</ele>
        <time>2026-03-14T15:29:29Z</time>
      </trkpt>
      <trkpt lat="47.00902" lon="0.08808">
        <ele>76.4</ele>
        <time>2026-03-14T15:29:34Z</time>
      </trkpt>
      <trkpt lat="47.00901" lon="0.08804">
        <ele>76.4</ele>
        <time>2026-03-14T15:29:35Z</time>
      </trkpt>
      <trkpt lat="47.009" lon="0.08797">
        <ele>76.6</ele>
        <time>2026-03-14T15:29:38Z</time>
      </trkpt>
      <trkpt lat="47.009" lon="0.08797">
        <ele>76.4</ele>
        <time>2026-03-14T15:29:41Z</time>
      </trkpt>
      <trkpt lat="47.00897" lon="0.08787">
        <ele>76.4</ele>
        <time>2026-03-14T15:29:52Z</time>
      </trkpt>
      <trkpt lat="47.00891" lon="0.08771">
        <ele>76.6</ele>
        <time>2026-03-14T15:29:56Z</time>
      </trkpt>
      <trkpt lat="47.00892" lon="0.08766">
        <ele>76.6</ele>
        <time>2026-03-14T15:29:57Z</time>
      </trkpt>
      <trkpt lat="47.00897" lon="0.0876">
        <ele>76.8</ele>
        <time>2026-03-14T15:29:59Z</time>
      </trkpt>
      <trkpt lat="47.00919" lon="0.08758">
        <ele>77.2</ele>
        <time>2026-03-14T15:30:04Z</time>
      </trkpt>
      <trkpt lat="47.00937" lon="0.08753">
        <ele>77.8</ele>
        <time>2026-03-14T15:30:09Z</time>
      </trkpt>
      <trkpt lat="47.00942" lon="0.08752">
        <ele>78</ele>
        <time>2026-03-14T15:30:11Z</time>
      </trkpt>
      <trkpt lat="47.00944" lon="0.0875">
        <ele>78</ele>
        <time>2026-03-14T15:30:12Z</time>
      </trkpt>
      <trkpt lat="47.00945" lon="0.08749">
        <ele>78.2</ele>
        <time>2026-03-14T15:30:13Z</time>
      </trkpt>
      <trkpt lat="47.00945" lon="0.08747">
        <ele>78.2</ele>
        <time>2026-03-14T15:30:14Z</time>
      </trkpt>
      <trkpt lat="47.00941" lon="0.08746">
        <ele>78.2</ele>
        <time>2026-03-14T15:30:16Z</time>
      </trkpt>
      <trkpt lat="47.00926" lon="0.08748">
        <ele>78.4</ele>
        <time>2026-03-14T15:30:22Z</time>
      </trkpt>
      <trkpt lat="47.00918" lon="0.0875">
        <ele>78.2</ele>
        <time>2026-03-14T15:30:26Z</time>
      </trkpt>
      <trkpt lat="47.00918" lon="0.08749">
        <ele>78.2</ele>
        <time>2026-03-14T15:30:27Z</time>
      </trkpt>
      <trkpt lat="47.00918" lon="0.08749">
        <ele>78.2</ele>
        <time>2026-03-14T15:30:29Z</time>
      </trkpt>
      <trkpt lat="47.00913" lon="0.08752">
        <ele>78.2</ele>
        <time>2026-03-14T15:30:34Z</time>
      </trkpt>
      <trkpt lat="47.0091" lon="0.08751">
        <ele>78.2</ele>
        <time>2026-03-14T15:30:36Z</time>
      </trkpt>
      <trkpt lat="47.00908" lon="0.08748">
        <ele>78.2</ele>
        <time>2026-03-14T15:30:40Z</time>
      </trkpt>
      <trkpt lat="47.00905" lon="0.08739">
        <ele>78</ele>
        <time>2026-03-14T15:30:43Z</time>
      </trkpt>
      <trkpt lat="47.00904" lon="0.08734">
        <ele>78</ele>
        <time>2026-03-14T15:30:44Z</time>
      </trkpt>
      <trkpt lat="47.00904" lon="0.0873">
        <ele>78</ele>
        <time>2026-03-14T15:30:45Z</time>
      </trkpt>
      <trkpt lat="47.00903" lon="0.08716">
        <ele>78</ele>
        <time>2026-03-14T15:30:48Z</time>
      </trkpt>
      <trkpt lat="47.00904" lon="0.08692">
        <ele>78</ele>
        <time>2026-03-14T15:30:53Z</time>
      </trkpt>
      <trkpt lat="47.00908" lon="0.08671">
        <ele>78</ele>
        <time>2026-03-14T15:30:57Z</time>
      </trkpt>
      <trkpt lat="47.00911" lon="0.08659">
        <ele>78</ele>
        <time>2026-03-14T15:30:59Z</time>
      </trkpt>
      <trkpt lat="47.00918" lon="0.08635">
        <ele>78.2</ele>
        <time>2026-03-14T15:31:03Z</time>
      </trkpt>
      <trkpt lat="47.00927" lon="0.08608">
        <ele>78.8</ele>
        <time>2026-03-14T15:31:09Z</time>
      </trkpt>
      <trkpt lat="47.00932" lon="0.08591">
        <ele>79</ele>
        <time>2026-03-14T15:31:14Z</time>
      </trkpt>
      <trkpt lat="47.00932" lon="0.08588">
        <ele>79</ele>
        <time>2026-03-14T15:31:15Z</time>
      </trkpt>
      <trkpt lat="47.00933" lon="0.08581">
        <ele>79.2</ele>
        <time>2026-03-14T15:31:18Z</time>
      </trkpt>
      <trkpt lat="47.00934" lon="0.0858">
        <ele>79.2</ele>
        <time>2026-03-14T15:31:19Z</time>
      </trkpt>
      <trkpt lat="47.00934" lon="0.08579">
        <ele>79.2</ele>
        <time>2026-03-14T15:31:22Z</time>
      </trkpt>
      <trkpt lat="47.00934" lon="0.08574">
        <ele>78</ele>
        <time>2026-03-14T15:38:48Z</time>
      </trkpt>
      <trkpt lat="47.00935" lon="0.08565">
        <ele>78.2</ele>
        <time>2026-03-14T15:38:51Z</time>
      </trkpt>
      <trkpt lat="47.00936" lon="0.08559">
        <ele>78.2</ele>
        <time>2026-03-14T15:38:53Z</time>
      </trkpt>
      <trkpt lat="47.00937" lon="0.08556">
        <ele>78.2</ele>
        <time>2026-03-14T15:38:54Z</time>
      </trkpt>
      <trkpt lat="47.00936" lon="0.08543">
        <ele>78.4</ele>
        <time>2026-03-14T15:38:58Z</time>
      </trkpt>
      <trkpt lat="47.00936" lon="0.08538">
        <ele>78.4</ele>
        <time>2026-03-14T15:39:00Z</time>
      </trkpt>
      <trkpt lat="47.00935" lon="0.08532">
        <ele>78.4</ele>
        <time>2026-03-14T15:39:02Z</time>
      </trkpt>
      <trkpt lat="47.00931" lon="0.08519">
        <ele>78.6</ele>
        <time>2026-03-14T15:39:06Z</time>
      </trkpt>
      <trkpt lat="47.00925" lon="0.085">
        <ele>79.2</ele>
        <time>2026-03-14T15:39:11Z</time>
      </trkpt>
      <trkpt lat="47.00919" lon="0.0848">
        <ele>79.8</ele>
        <time>2026-03-14T15:39:16Z</time>
      </trkpt>
      <trkpt lat="47.00916" lon="0.08471">
        <ele>79.8</ele>
        <time>2026-03-14T15:39:18Z</time>
      </trkpt>
      <trkpt lat="47.00913" lon="0.08452">
        <ele>80.2</ele>
        <time>2026-03-14T15:39:23Z</time>
      </trkpt>
      <trkpt lat="47.00912" lon="0.0844">
        <ele>80.8</ele>
        <time>2026-03-14T15:39:26Z</time>
      </trkpt>
      <trkpt lat="47.00911" lon="0.08432">
        <ele>81</ele>
        <time>2026-03-14T15:39:28Z</time>
      </trkpt>
      <trkpt lat="47.00911" lon="0.08418">
        <ele>81.4</ele>
        <time>2026-03-14T15:39:32Z</time>
      </trkpt>
      <trkpt lat="47.00911" lon="0.08411">
        <ele>81.6</ele>
        <time>2026-03-14T15:39:34Z</time>
      </trkpt>
      <trkpt lat="47.00912" lon="0.08407">
        <ele>82</ele>
        <time>2026-03-14T15:39:37Z</time>
      </trkpt>
      <trkpt lat="47.00909" lon="0.08405">
        <ele>82.6</ele>
        <time>2026-03-14T15:39:42Z</time>
      </trkpt>
      <trkpt lat="47.00908" lon="0.08404">
        <ele>82.6</ele>
        <time>2026-03-14T15:39:43Z</time>
      </trkpt>
      <trkpt lat="47.00903" lon="0.08401">
        <ele>83</ele>
        <time>2026-03-14T15:39:46Z</time>
      </trkpt>
      <trkpt lat="47.00901" lon="0.08401">
        <ele>83</ele>
        <time>2026-03-14T15:39:48Z</time>
      </trkpt>
      <trkpt lat="47.00898" lon="0.084">
        <ele>83.2</ele>
        <time>2026-03-14T15:39:50Z</time>
      </trkpt>
      <trkpt lat="47.00895" lon="0.08397">
        <ele>83.2</ele>
        <time>2026-03-14T15:39:52Z</time>
      </trkpt>
      <trkpt lat="47.00895" lon="0.08397">
        <ele>83.2</ele>
        <time>2026-03-14T15:39:56Z</time>
      </trkpt>
      <trkpt lat="47.00895" lon="0.08397">
        <ele>83.2</ele>
        <time>2026-03-14T15:39:57Z</time>
      </trkpt>
      <trkpt lat="47.00893" lon="0.08393">
        <ele>82.8</ele>
        <time>2026-03-14T15:40:12Z</time>
      </trkpt>
      <trkpt lat="47.00888" lon="0.08388">
        <ele>82.8</ele>
        <time>2026-03-14T15:40:14Z</time>
      </trkpt>
      <trkpt lat="47.0088" lon="0.08379">
        <ele>82.8</ele>
        <time>2026-03-14T15:40:18Z</time>
      </trkpt>
      <trkpt lat="47.00878" lon="0.08377">
        <ele>82.8</ele>
        <time>2026-03-14T15:40:19Z</time>
      </trkpt>
      <trkpt lat="47.00874" lon="0.08372">
        <ele>82.6</ele>
        <time>2026-03-14T15:40:21Z</time>
      </trkpt>
      <trkpt lat="47.0087" lon="0.0837">
        <ele>82.4</ele>
        <time>2026-03-14T15:40:24Z</time>
      </trkpt>
      <trkpt lat="47.00866" lon="0.08369">
        <ele>82.4</ele>
        <time>2026-03-14T15:40:26Z</time>
      </trkpt>
      <trkpt lat="47.00857" lon="0.08361">
        <ele>82.2</ele>
        <time>2026-03-14T15:40:30Z</time>
      </trkpt>
      <trkpt lat="47.00845" lon="0.08349">
        <ele>81.8</ele>
        <time>2026-03-14T15:40:35Z</time>
      </trkpt>
      <trkpt lat="47.00836" lon="0.08341">
        <ele>81.4</ele>
        <time>2026-03-14T15:40:38Z</time>
      </trkpt>
      <trkpt lat="47.00831" lon="0.08333">
        <ele>81.2</ele>
        <time>2026-03-14T15:40:41Z</time>
      </trkpt>
      <trkpt lat="47.0083" lon="0.0833">
        <ele>80.8</ele>
        <time>2026-03-14T15:40:44Z</time>
      </trkpt>
      <trkpt lat="47.00829" lon="0.08327">
        <ele>77.2</ele>
        <time>2026-03-14T16:04:32Z</time>
      </trkpt>
      <trkpt lat="47.00827" lon="0.08339">
        <ele>79.8</ele>
        <time>2026-03-14T16:04:33Z</time>
      </trkpt>
      <trkpt lat="47.00822" lon="0.08336">
        <ele>80.8</ele>
        <time>2026-03-14T16:04:51Z</time>
      </trkpt>
      <trkpt lat="47.00819" lon="0.08328">
        <ele>80.8</ele>
        <time>2026-03-14T16:04:54Z</time>
      </trkpt>
      <trkpt lat="47.0081" lon="0.08318">
        <ele>80.6</ele>
        <time>2026-03-14T16:04:58Z</time>
      </trkpt>
      <trkpt lat="47.00806" lon="0.08315">
        <ele>80.2</ele>
        <time>2026-03-14T16:05:02Z</time>
      </trkpt>
      <trkpt lat="47.00803" lon="0.08311">
        <ele>79.4</ele>
        <time>2026-03-14T16:06:55Z</time>
      </trkpt>
      <trkpt lat="47.008" lon="0.08305">
        <ele>79.4</ele>
        <time>2026-03-14T16:06:58Z</time>
      </trkpt>
      <trkpt lat="47.00788" lon="0.08295">
        <ele>79.2</ele>
        <time>2026-03-14T16:07:02Z</time>
      </trkpt>
      <trkpt lat="47.00775" lon="0.08283">
        <ele>79</ele>
        <time>2026-03-14T16:07:06Z</time>
      </trkpt>
      <trkpt lat="47.00772" lon="0.0828">
        <ele>79</ele>
        <time>2026-03-14T16:07:07Z</time>
      </trkpt>
      <trkpt lat="47.00766" lon="0.08272">
        <ele>78.8</ele>
        <time>2026-03-14T16:07:09Z</time>
      </trkpt>
      <trkpt lat="47.00754" lon="0.08257">
        <ele>78</ele>
        <time>2026-03-14T16:07:13Z</time>
      </trkpt>
      <trkpt lat="47.00746" lon="0.08249">
        <ele>77.4</ele>
        <time>2026-03-14T16:07:15Z</time>
      </trkpt>
      <trkpt lat="47.00744" lon="0.08246">
        <ele>77</ele>
        <time>2026-03-14T16:07:16Z</time>
      </trkpt>
      <trkpt lat="47.00737" lon="0.08234">
        <ele>76.4</ele>
        <time>2026-03-14T16:07:18Z</time>
      </trkpt>
      <trkpt lat="47.00734" lon="0.08225">
        <ele>76.4</ele>
        <time>2026-03-14T16:07:19Z</time>
      </trkpt>
      <trkpt lat="47.00728" lon="0.08207">
        <ele>75.4</ele>
        <time>2026-03-14T16:07:21Z</time>
      </trkpt>
      <trkpt lat="47.00726" lon="0.08199">
        <ele>75.2</ele>
        <time>2026-03-14T16:07:22Z</time>
      </trkpt>
      <trkpt lat="47.00724" lon="0.0819">
        <ele>74.6</ele>
        <time>2026-03-14T16:07:23Z</time>
      </trkpt>
      <trkpt lat="47.00715" lon="0.08164">
        <ele>74</ele>
        <time>2026-03-14T16:07:26Z</time>
      </trkpt>
      <trkpt lat="47.00708" lon="0.08141">
        <ele>73.6</ele>
        <time>2026-03-14T16:07:29Z</time>
      </trkpt>
      <trkpt lat="47.00704" lon="0.08126">
        <ele>73.4</ele>
        <time>2026-03-14T16:07:31Z</time>
      </trkpt>
      <trkpt lat="47.007" lon="0.08119">
        <ele>72.8</ele>
        <time>2026-03-14T16:07:32Z</time>
      </trkpt>
      <trkpt lat="47.00698" lon="0.08113">
        <ele>72.6</ele>
        <time>2026-03-14T16:07:33Z</time>
      </trkpt>
      <trkpt lat="47.00697" lon="0.08106">
        <ele>72.6</ele>
        <time>2026-03-14T16:07:34Z</time>
      </trkpt>
      <trkpt lat="47.00684" lon="0.08074">
        <ele>71.8</ele>
        <time>2026-03-14T16:07:38Z</time>
      </trkpt>
      <trkpt lat="47.0068" lon="0.08057">
        <ele>71.4</ele>
        <time>2026-03-14T16:07:40Z</time>
      </trkpt>
      <trkpt lat="47.00674" lon="0.08041">
        <ele>71.2</ele>
        <time>2026-03-14T16:07:42Z</time>
      </trkpt>
      <trkpt lat="47.00669" lon="0.08029">
        <ele>71</ele>
        <time>2026-03-14T16:07:44Z</time>
      </trkpt>
      <trkpt lat="47.00666" lon="0.08023">
        <ele>70.8</ele>
        <time>2026-03-14T16:07:45Z</time>
      </trkpt>
      <trkpt lat="47.00662" lon="0.08017">
        <ele>70.8</ele>
        <time>2026-03-14T16:07:46Z</time>
      </trkpt>
      <trkpt lat="47.00647" lon="0.07995">
        <ele>70.2</ele>
        <time>2026-03-14T16:07:50Z</time>
      </trkpt>
      <trkpt lat="47.0064" lon="0.07984">
        <ele>70</ele>
        <time>2026-03-14T16:07:52Z</time>
      </trkpt>
      <trkpt lat="47.00638" lon="0.07978">
        <ele>70</ele>
        <time>2026-03-14T16:07:53Z</time>
      </trkpt>
      <trkpt lat="47.00639" lon="0.07973">
        <ele>69.8</ele>
        <time>2026-03-14T16:07:54Z</time>
      </trkpt>
      <trkpt lat="47.00641" lon="0.07969">
        <ele>69.6</ele>
        <time>2026-03-14T16:07:55Z</time>
      </trkpt>
      <trkpt lat="47.00644" lon="0.07966">
        <ele>69.4</ele>
        <time>2026-03-14T16:07:56Z</time>
      </trkpt>
      <trkpt lat="47.00652" lon="0.07956">
        <ele>69.2</ele>
        <time>2026-03-14T16:07:58Z</time>
      </trkpt>
      <trkpt lat="47.00655" lon="0.07949">
        <ele>69</ele>
        <time>2026-03-14T16:07:59Z</time>
      </trkpt>
      <trkpt lat="47.00671" lon="0.07919">
        <ele>68.4</ele>
        <time>2026-03-14T16:08:04Z</time>
      </trkpt>
      <trkpt lat="47.00675" lon="0.07911">
        <ele>68.4</ele>
        <time>2026-03-14T16:08:05Z</time>
      </trkpt>
      <trkpt lat="47.00689" lon="0.07881">
        <ele>68</ele>
        <time>2026-03-14T16:08:09Z</time>
      </trkpt>
      <trkpt lat="47.00694" lon="0.07867">
        <ele>68</ele>
        <time>2026-03-14T16:08:11Z</time>
      </trkpt>
      <trkpt lat="47.00711" lon="0.07804">
        <ele>67.6</ele>
        <time>2026-03-14T16:08:18Z</time>
      </trkpt>
      <trkpt lat="47.00716" lon="0.07782">
        <ele>67.4</ele>
        <time>2026-03-14T16:08:20Z</time>
      </trkpt>
      <trkpt lat="47.00719" lon="0.07765">
        <ele>67.4</ele>
        <time>2026-03-14T16:08:22Z</time>
      </trkpt>
      <trkpt lat="47.00726" lon="0.07734">
        <ele>66.8</ele>
        <time>2026-03-14T16:08:25Z</time>
      </trkpt>
      <trkpt lat="47.00733" lon="0.07707">
        <ele>66.6</ele>
        <time>2026-03-14T16:08:28Z</time>
      </trkpt>
      <trkpt lat="47.00741" lon="0.0769">
        <ele>66.4</ele>
        <time>2026-03-14T16:08:30Z</time>
      </trkpt>
      <trkpt lat="47.00748" lon="0.07674">
        <ele>66.2</ele>
        <time>2026-03-14T16:08:32Z</time>
      </trkpt>
      <trkpt lat="47.00776" lon="0.07605">
        <ele>65</ele>
        <time>2026-03-14T16:08:40Z</time>
      </trkpt>
      <trkpt lat="47.00783" lon="0.07589">
        <ele>64.8</ele>
        <time>2026-03-14T16:08:42Z</time>
      </trkpt>
      <trkpt lat="47.00794" lon="0.07563">
        <ele>64</ele>
        <time>2026-03-14T16:08:45Z</time>
      </trkpt>
      <trkpt lat="47.00804" lon="0.07538">
        <ele>63.6</ele>
        <time>2026-03-14T16:08:48Z</time>
      </trkpt>
      <trkpt lat="47.00818" lon="0.07504">
        <ele>63.2</ele>
        <time>2026-03-14T16:08:52Z</time>
      </trkpt>
      <trkpt lat="47.00843" lon="0.07443">
        <ele>62</ele>
        <time>2026-03-14T16:08:59Z</time>
      </trkpt>
      <trkpt lat="47.00871" lon="0.07374">
        <ele>61.4</ele>
        <time>2026-03-14T16:09:07Z</time>
      </trkpt>
      <trkpt lat="47.00883" lon="0.07352">
        <ele>61</ele>
        <time>2026-03-14T16:09:10Z</time>
      </trkpt>
      <trkpt lat="47.00891" lon="0.07338">
        <ele>60.8</ele>
        <time>2026-03-14T16:09:12Z</time>
      </trkpt>
      <trkpt lat="47.00906" lon="0.07307">
        <ele>60.4</ele>
        <time>2026-03-14T16:09:16Z</time>
      </trkpt>
      <trkpt lat="47.00919" lon="0.07283">
        <ele>59.8</ele>
        <time>2026-03-14T16:09:19Z</time>
      </trkpt>
      <trkpt lat="47.00932" lon="0.07259">
        <ele>59</ele>
        <time>2026-03-14T16:09:22Z</time>
      </trkpt>
      <trkpt lat="47.0094" lon="0.07245">
        <ele>58.8</ele>
        <time>2026-03-14T16:09:24Z</time>
      </trkpt>
      <trkpt lat="47.00945" lon="0.07236">
        <ele>58.6</ele>
        <time>2026-03-14T16:09:25Z</time>
      </trkpt>
      <trkpt lat="47.00978" lon="0.07181">
        <ele>57.8</ele>
        <time>2026-03-14T16:09:32Z</time>
      </trkpt>
      <trkpt lat="47.00987" lon="0.07165">
        <ele>57.6</ele>
        <time>2026-03-14T16:09:34Z</time>
      </trkpt>
      <trkpt lat="47.00997" lon="0.07151">
        <ele>57.4</ele>
        <time>2026-03-14T16:09:36Z</time>
      </trkpt>
      <trkpt lat="47.01001" lon="0.07143">
        <ele>57.2</ele>
        <time>2026-03-14T16:09:37Z</time>
      </trkpt>
      <trkpt lat="47.0102" lon="0.07111">
        <ele>56.4</ele>
        <time>2026-03-14T16:09:41Z</time>
      </trkpt>
      <trkpt lat="47.01042" lon="0.07071">
        <ele>55.6</ele>
        <time>2026-03-14T16:09:46Z</time>
      </trkpt>
      <trkpt lat="47.01051" lon="0.07055">
        <ele>55.4</ele>
        <time>2026-03-14T16:09:48Z</time>
      </trkpt>
      <trkpt lat="47.01076" lon="0.07009">
        <ele>54.8</ele>
        <time>2026-03-14T16:09:54Z</time>
      </trkpt>
      <trkpt lat="47.01079" lon="0.07002">
        <ele>54.8</ele>
        <time>2026-03-14T16:09:55Z</time>
      </trkpt>
      <trkpt lat="47.0108" lon="0.06993">
        <ele>54.8</ele>
        <time>2026-03-14T16:09:56Z</time>
      </trkpt>
      <trkpt lat="47.01077" lon="0.06976">
        <ele>54.8</ele>
        <time>2026-03-14T16:09:58Z</time>
      </trkpt>
      <trkpt lat="47.01074" lon="0.06955">
        <ele>54.6</ele>
        <time>2026-03-14T16:10:00Z</time>
      </trkpt>
      <trkpt lat="47.01072" lon="0.06936">
        <ele>54.2</ele>
        <time>2026-03-14T16:10:02Z</time>
      </trkpt>
      <trkpt lat="47.01071" lon="0.06927">
        <ele>54</ele>
        <time>2026-03-14T16:10:03Z</time>
      </trkpt>
      <trkpt lat="47.01071" lon="0.06868">
        <ele>53.8</ele>
        <time>2026-03-14T16:10:10Z</time>
      </trkpt>
      <trkpt lat="47.01072" lon="0.06811">
        <ele>54.8</ele>
        <time>2026-03-14T16:10:18Z</time>
      </trkpt>
      <trkpt lat="47.01073" lon="0.06798">
        <ele>55.4</ele>
        <time>2026-03-14T16:10:20Z</time>
      </trkpt>
      <trkpt lat="47.01074" lon="0.06779">
        <ele>56</ele>
        <time>2026-03-14T16:10:23Z</time>
      </trkpt>
      <trkpt lat="47.01075" lon="0.06773">
        <ele>56.2</ele>
        <time>2026-03-14T16:10:24Z</time>
      </trkpt>
      <trkpt lat="47.01076" lon="0.06768">
        <ele>56.4</ele>
        <time>2026-03-14T16:10:25Z</time>
      </trkpt>
      <trkpt lat="47.01077" lon="0.0675">
        <ele>57</ele>
        <time>2026-03-14T16:10:28Z</time>
      </trkpt>
      <trkpt lat="47.01077" lon="0.06744">
        <ele>57.2</ele>
        <time>2026-03-14T16:10:29Z</time>
      </trkpt>
      <trkpt lat="47.01077" lon="0.06737">
        <ele>57.4</ele>
        <time>2026-03-14T16:10:30Z</time>
      </trkpt>
      <trkpt lat="47.01076" lon="0.06714">
        <ele>58</ele>
        <time>2026-03-14T16:10:34Z</time>
      </trkpt>
      <trkpt lat="47.01077" lon="0.06699">
        <ele>58.8</ele>
        <time>2026-03-14T16:10:37Z</time>
      </trkpt>
      <trkpt lat="47.01079" lon="0.06682">
        <ele>59.4</ele>
        <time>2026-03-14T16:10:40Z</time>
      </trkpt>
      <trkpt lat="47.01079" lon="0.06677">
        <ele>59.8</ele>
        <time>2026-03-14T16:10:41Z</time>
      </trkpt>
      <trkpt lat="47.01077" lon="0.06655">
        <ele>61</ele>
        <time>2026-03-14T16:10:45Z</time>
      </trkpt>
      <trkpt lat="47.01077" lon="0.06645">
        <ele>61.4</ele>
        <time>2026-03-14T16:10:47Z</time>
      </trkpt>
      <trkpt lat="47.01076" lon="0.06628">
        <ele>62.2</ele>
        <time>2026-03-14T16:10:50Z</time>
      </trkpt>
      <trkpt lat="47.01077" lon="0.06602">
        <ele>63.4</ele>
        <time>2026-03-14T16:10:56Z</time>
      </trkpt>
      <trkpt lat="47.01076" lon="0.06574">
        <ele>63.8</ele>
        <time>2026-03-14T16:11:00Z</time>
      </trkpt>
      <trkpt lat="47.01075" lon="0.06556">
        <ele>64.4</ele>
        <time>2026-03-14T16:11:03Z</time>
      </trkpt>
      <trkpt lat="47.01076" lon="0.06541">
        <ele>65</ele>
        <time>2026-03-14T16:11:06Z</time>
      </trkpt>
      <trkpt lat="47.01076" lon="0.06516">
        <ele>65.6</ele>
        <time>2026-03-14T16:11:10Z</time>
      </trkpt>
      <trkpt lat="47.01077" lon="0.06497">
        <ele>66</ele>
        <time>2026-03-14T16:11:14Z</time>
      </trkpt>
      <trkpt lat="47.01078" lon="0.06453">
        <ele>66.8</ele>
        <time>2026-03-14T16:11:20Z</time>
      </trkpt>
      <trkpt lat="47.01078" lon="0.06428">
        <ele>67.2</ele>
        <time>2026-03-14T16:11:24Z</time>
      </trkpt>
      <trkpt lat="47.01082" lon="0.06391">
        <ele>67.8</ele>
        <time>2026-03-14T16:11:30Z</time>
      </trkpt>
      <trkpt lat="47.01083" lon="0.06378">
        <ele>68</ele>
        <time>2026-03-14T16:11:32Z</time>
      </trkpt>
      <trkpt lat="47.01089" lon="0.06326">
        <ele>68.8</ele>
        <time>2026-03-14T16:11:40Z</time>
      </trkpt>
      <trkpt lat="47.01089" lon="0.06319">
        <ele>68.8</ele>
        <time>2026-03-14T16:11:42Z</time>
      </trkpt>
      <trkpt lat="47.01091" lon="0.06305">
        <ele>69</ele>
        <time>2026-03-14T16:11:43Z</time>
      </trkpt>
      <trkpt lat="47.01095" lon="0.0627">
        <ele>69.4</ele>
        <time>2026-03-14T16:11:48Z</time>
      </trkpt>
      <trkpt lat="47.01102" lon="0.06222">
        <ele>70.2</ele>
        <time>2026-03-14T16:11:55Z</time>
      </trkpt>
      <trkpt lat="47.01105" lon="0.06209">
        <ele>70.4</ele>
        <time>2026-03-14T16:11:57Z</time>
      </trkpt>
      <trkpt lat="47.01108" lon="0.06201">
        <ele>70.6</ele>
        <time>2026-03-14T16:11:58Z</time>
      </trkpt>
      <trkpt lat="47.01119" lon="0.06171">
        <ele>71</ele>
        <time>2026-03-14T16:12:03Z</time>
      </trkpt>
      <trkpt lat="47.01127" lon="0.06152">
        <ele>71.2</ele>
        <time>2026-03-14T16:12:06Z</time>
      </trkpt>
      <trkpt lat="47.01147" lon="0.06105">
        <ele>72.4</ele>
        <time>2026-03-14T16:12:14Z</time>
      </trkpt>
      <trkpt lat="47.0115" lon="0.06099">
        <ele>72.4</ele>
        <time>2026-03-14T16:12:15Z</time>
      </trkpt>
      <trkpt lat="47.01177" lon="0.06035">
        <ele>73.4</ele>
        <time>2026-03-14T16:12:26Z</time>
      </trkpt>
      <trkpt lat="47.0118" lon="0.06029">
        <ele>73.4</ele>
        <time>2026-03-14T16:12:27Z</time>
      </trkpt>
      <trkpt lat="47.01197" lon="0.05988">
        <ele>74.4</ele>
        <time>2026-03-14T16:12:34Z</time>
      </trkpt>
      <trkpt lat="47.01202" lon="0.05976">
        <ele>74.6</ele>
        <time>2026-03-14T16:12:36Z</time>
      </trkpt>
      <trkpt lat="47.01226" lon="0.05923">
        <ele>75.6</ele>
        <time>2026-03-14T16:12:45Z</time>
      </trkpt>
      <trkpt lat="47.01247" lon="0.05871">
        <ele>76.4</ele>
        <time>2026-03-14T16:12:54Z</time>
      </trkpt>
      <trkpt lat="47.01251" lon="0.05859">
        <ele>76.6</ele>
        <time>2026-03-14T16:12:56Z</time>
      </trkpt>
      <trkpt lat="47.01265" lon="0.05812">
        <ele>77</ele>
        <time>2026-03-14T16:13:03Z</time>
      </trkpt>
      <trkpt lat="47.01281" lon="0.05754">
        <ele>77</ele>
        <time>2026-03-14T16:13:11Z</time>
      </trkpt>
      <trkpt lat="47.01303" lon="0.05689">
        <ele>76.6</ele>
        <time>2026-03-14T16:13:20Z</time>
      </trkpt>
      <trkpt lat="47.0133" lon="0.05618">
        <ele>76.4</ele>
        <time>2026-03-14T16:13:30Z</time>
      </trkpt>
      <trkpt lat="47.01341" lon="0.0559">
        <ele>76.4</ele>
        <time>2026-03-14T16:13:34Z</time>
      </trkpt>
      <trkpt lat="47.01369" lon="0.05517">
        <ele>76.4</ele>
        <time>2026-03-14T16:13:44Z</time>
      </trkpt>
      <trkpt lat="47.01374" lon="0.05504">
        <ele>76.4</ele>
        <time>2026-03-14T16:13:46Z</time>
      </trkpt>
      <trkpt lat="47.01402" lon="0.05433">
        <ele>76.2</ele>
        <time>2026-03-14T16:13:55Z</time>
      </trkpt>
      <trkpt lat="47.01416" lon="0.05402">
        <ele>75.6</ele>
        <time>2026-03-14T16:13:59Z</time>
      </trkpt>
      <trkpt lat="47.01437" lon="0.05363">
        <ele>74.8</ele>
        <time>2026-03-14T16:14:04Z</time>
      </trkpt>
      <trkpt lat="47.01446" lon="0.05348">
        <ele>74.4</ele>
        <time>2026-03-14T16:14:06Z</time>
      </trkpt>
      <trkpt lat="47.0147" lon="0.05311">
        <ele>73.2</ele>
        <time>2026-03-14T16:14:11Z</time>
      </trkpt>
      <trkpt lat="47.01476" lon="0.05301">
        <ele>73</ele>
        <time>2026-03-14T16:14:12Z</time>
      </trkpt>
      <trkpt lat="47.01501" lon="0.05263">
        <ele>72.2</ele>
        <time>2026-03-14T16:14:17Z</time>
      </trkpt>
      <trkpt lat="47.01515" lon="0.0524">
        <ele>71.6</ele>
        <time>2026-03-14T16:14:20Z</time>
      </trkpt>
      <trkpt lat="47.01543" lon="0.05196">
        <ele>71.2</ele>
        <time>2026-03-14T16:14:26Z</time>
      </trkpt>
      <trkpt lat="47.01562" lon="0.05166">
        <ele>71</ele>
        <time>2026-03-14T16:14:30Z</time>
      </trkpt>
      <trkpt lat="47.01582" lon="0.05115">
        <ele>70.8</ele>
        <time>2026-03-14T16:14:36Z</time>
      </trkpt>
      <trkpt lat="47.01599" lon="0.05048">
        <ele>70.2</ele>
        <time>2026-03-14T16:14:43Z</time>
      </trkpt>
      <trkpt lat="47.01607" lon="0.05009">
        <ele>69.8</ele>
        <time>2026-03-14T16:14:47Z</time>
      </trkpt>
      <trkpt lat="47.01613" lon="0.04946">
        <ele>68.8</ele>
        <time>2026-03-14T16:14:53Z</time>
      </trkpt>
      <trkpt lat="47.01612" lon="0.04935">
        <ele>68.8</ele>
        <time>2026-03-14T16:14:54Z</time>
      </trkpt>
      <trkpt lat="47.01609" lon="0.04877">
        <ele>67.4</ele>
        <time>2026-03-14T16:14:59Z</time>
      </trkpt>
      <trkpt lat="47.01606" lon="0.0484">
        <ele>66</ele>
        <time>2026-03-14T16:15:02Z</time>
      </trkpt>
      <trkpt lat="47.01605" lon="0.04827">
        <ele>65.4</ele>
        <time>2026-03-14T16:15:03Z</time>
      </trkpt>
      <trkpt lat="47.01603" lon="0.04801">
        <ele>64.8</ele>
        <time>2026-03-14T16:15:05Z</time>
      </trkpt>
      <trkpt lat="47.016" lon="0.04762">
        <ele>63.2</ele>
        <time>2026-03-14T16:15:08Z</time>
      </trkpt>
      <trkpt lat="47.01598" lon="0.04736">
        <ele>62</ele>
        <time>2026-03-14T16:15:10Z</time>
      </trkpt>
      <trkpt lat="47.01597" lon="0.04723">
        <ele>61.6</ele>
        <time>2026-03-14T16:15:11Z</time>
      </trkpt>
      <trkpt lat="47.01596" lon="0.04711">
        <ele>60.8</ele>
        <time>2026-03-14T16:15:12Z</time>
      </trkpt>
      <trkpt lat="47.01593" lon="0.04675">
        <ele>59.2</ele>
        <time>2026-03-14T16:15:15Z</time>
      </trkpt>
      <trkpt lat="47.01589" lon="0.04641">
        <ele>58.6</ele>
        <time>2026-03-14T16:15:18Z</time>
      </trkpt>
      <trkpt lat="47.01584" lon="0.0461">
        <ele>58.2</ele>
        <time>2026-03-14T16:15:21Z</time>
      </trkpt>
      <trkpt lat="47.01582" lon="0.046">
        <ele>58.2</ele>
        <time>2026-03-14T16:15:22Z</time>
      </trkpt>
      <trkpt lat="47.01566" lon="0.04546">
        <ele>58</ele>
        <time>2026-03-14T16:15:28Z</time>
      </trkpt>
      <trkpt lat="47.01557" lon="0.04505">
        <ele>58.2</ele>
        <time>2026-03-14T16:15:33Z</time>
      </trkpt>
      <trkpt lat="47.01557" lon="0.04488">
        <ele>58.6</ele>
        <time>2026-03-14T16:15:35Z</time>
      </trkpt>
      <trkpt lat="47.01558" lon="0.04473">
        <ele>58.8</ele>
        <time>2026-03-14T16:15:37Z</time>
      </trkpt>
      <trkpt lat="47.01568" lon="0.04434">
        <ele>59.4</ele>
        <time>2026-03-14T16:15:42Z</time>
      </trkpt>
      <trkpt lat="47.01574" lon="0.04411">
        <ele>59.8</ele>
        <time>2026-03-14T16:15:45Z</time>
      </trkpt>
      <trkpt lat="47.01595" lon="0.04339">
        <ele>59.2</ele>
        <time>2026-03-14T16:15:54Z</time>
      </trkpt>
      <trkpt lat="47.01614" lon="0.04265">
        <ele>59.4</ele>
        <time>2026-03-14T16:16:03Z</time>
      </trkpt>
      <trkpt lat="47.01616" lon="0.04257">
        <ele>59.4</ele>
        <time>2026-03-14T16:16:04Z</time>
      </trkpt>
      <trkpt lat="47.01635" lon="0.04178">
        <ele>59.8</ele>
        <time>2026-03-14T16:16:14Z</time>
      </trkpt>
      <trkpt lat="47.01639" lon="0.04115">
        <ele>60.2</ele>
        <time>2026-03-14T16:16:22Z</time>
      </trkpt>
      <trkpt lat="47.0164" lon="0.04086">
        <ele>60.6</ele>
        <time>2026-03-14T16:16:26Z</time>
      </trkpt>
      <trkpt lat="47.01641" lon="0.0406">
        <ele>61.2</ele>
        <time>2026-03-14T16:16:30Z</time>
      </trkpt>
      <trkpt lat="47.01642" lon="0.04042">
        <ele>61.8</ele>
        <time>2026-03-14T16:16:33Z</time>
      </trkpt>
      <trkpt lat="47.01644" lon="0.04002">
        <ele>62.8</ele>
        <time>2026-03-14T16:16:39Z</time>
      </trkpt>
      <trkpt lat="47.01645" lon="0.03996">
        <ele>62.8</ele>
        <time>2026-03-14T16:16:40Z</time>
      </trkpt>
      <trkpt lat="47.01652" lon="0.03955">
        <ele>64</ele>
        <time>2026-03-14T16:16:47Z</time>
      </trkpt>
      <trkpt lat="47.01661" lon="0.0391">
        <ele>65.2</ele>
        <time>2026-03-14T16:16:55Z</time>
      </trkpt>
      <trkpt lat="47.01663" lon="0.03898">
        <ele>65.4</ele>
        <time>2026-03-14T16:16:57Z</time>
      </trkpt>
      <trkpt lat="47.01671" lon="0.03863">
        <ele>66.2</ele>
        <time>2026-03-14T16:17:03Z</time>
      </trkpt>
      <trkpt lat="47.01673" lon="0.03851">
        <ele>66.4</ele>
        <time>2026-03-14T16:17:05Z</time>
      </trkpt>
      <trkpt lat="47.01685" lon="0.03796">
        <ele>67.2</ele>
        <time>2026-03-14T16:17:14Z</time>
      </trkpt>
      <trkpt lat="47.01686" lon="0.03789">
        <ele>67.4</ele>
        <time>2026-03-14T16:17:15Z</time>
      </trkpt>
      <trkpt lat="47.01698" lon="0.03731">
        <ele>68.2</ele>
        <time>2026-03-14T16:17:24Z</time>
      </trkpt>
      <trkpt lat="47.017" lon="0.03725">
        <ele>68.4</ele>
        <time>2026-03-14T16:17:25Z</time>
      </trkpt>
      <trkpt lat="47.01712" lon="0.0367">
        <ele>68.4</ele>
        <time>2026-03-14T16:17:34Z</time>
      </trkpt>
      <trkpt lat="47.01727" lon="0.03612">
        <ele>68.6</ele>
        <time>2026-03-14T16:17:43Z</time>
      </trkpt>
      <trkpt lat="47.01732" lon="0.03592">
        <ele>68.8</ele>
        <time>2026-03-14T16:17:46Z</time>
      </trkpt>
      <trkpt lat="47.01736" lon="0.03579">
        <ele>68.8</ele>
        <time>2026-03-14T16:17:48Z</time>
      </trkpt>
      <trkpt lat="47.01738" lon="0.03572">
        <ele>68.8</ele>
        <time>2026-03-14T16:17:49Z</time>
      </trkpt>
      <trkpt lat="47.01752" lon="0.03517">
        <ele>68.6</ele>
        <time>2026-03-14T16:17:56Z</time>
      </trkpt>
      <trkpt lat="47.0177" lon="0.03456">
        <ele>67.8</ele>
        <time>2026-03-14T16:18:04Z</time>
      </trkpt>
      <trkpt lat="47.01784" lon="0.03396">
        <ele>67.6</ele>
        <time>2026-03-14T16:18:12Z</time>
      </trkpt>
      <trkpt lat="47.01791" lon="0.03377">
        <ele>67.4</ele>
        <time>2026-03-14T16:18:17Z</time>
      </trkpt>
      <trkpt lat="47.01792" lon="0.03375">
        <ele>67.2</ele>
        <time>2026-03-14T16:18:18Z</time>
      </trkpt>
      <trkpt lat="47.0179" lon="0.03368">
        <ele>67</ele>
        <time>2026-03-14T16:18:21Z</time>
      </trkpt>
      <trkpt lat="47.01794" lon="0.03348">
        <ele>67</ele>
        <time>2026-03-14T16:18:25Z</time>
      </trkpt>
      <trkpt lat="47.018" lon="0.03316">
        <ele>67.2</ele>
        <time>2026-03-14T16:18:30Z</time>
      </trkpt>
      <trkpt lat="47.01806" lon="0.03266">
        <ele>68</ele>
        <time>2026-03-14T16:18:37Z</time>
      </trkpt>
      <trkpt lat="47.01807" lon="0.03258">
        <ele>68.2</ele>
        <time>2026-03-14T16:18:38Z</time>
      </trkpt>
      <trkpt lat="47.01809" lon="0.03232">
        <ele>68.4</ele>
        <time>2026-03-14T16:18:41Z</time>
      </trkpt>
      <trkpt lat="47.01809" lon="0.03223">
        <ele>68.4</ele>
        <time>2026-03-14T16:18:42Z</time>
      </trkpt>
      <trkpt lat="47.01809" lon="0.03214">
        <ele>68.4</ele>
        <time>2026-03-14T16:18:43Z</time>
      </trkpt>
      <trkpt lat="47.01814" lon="0.03175">
        <ele>68</ele>
        <time>2026-03-14T16:18:47Z</time>
      </trkpt>
      <trkpt lat="47.01821" lon="0.03121">
        <ele>66.8</ele>
        <time>2026-03-14T16:18:52Z</time>
      </trkpt>
      <trkpt lat="47.01824" lon="0.03098">
        <ele>66.4</ele>
        <time>2026-03-14T16:18:54Z</time>
      </trkpt>
      <trkpt lat="47.01831" lon="0.03063">
        <ele>65.8</ele>
        <time>2026-03-14T16:18:57Z</time>
      </trkpt>
      <trkpt lat="47.01836" lon="0.03038">
        <ele>65.2</ele>
        <time>2026-03-14T16:18:59Z</time>
      </trkpt>
      <trkpt lat="47.01839" lon="0.03025">
        <ele>64.6</ele>
        <time>2026-03-14T16:19:00Z</time>
      </trkpt>
      <trkpt lat="47.01847" lon="0.02988">
        <ele>62.8</ele>
        <time>2026-03-14T16:19:03Z</time>
      </trkpt>
      <trkpt lat="47.01856" lon="0.02951">
        <ele>61.8</ele>
        <time>2026-03-14T16:19:06Z</time>
      </trkpt>
      <trkpt lat="47.01859" lon="0.02939">
        <ele>60.8</ele>
        <time>2026-03-14T16:19:07Z</time>
      </trkpt>
      <trkpt lat="47.01862" lon="0.02926">
        <ele>60.6</ele>
        <time>2026-03-14T16:19:08Z</time>
      </trkpt>
      <trkpt lat="47.01871" lon="0.02892">
        <ele>59.6</ele>
        <time>2026-03-14T16:19:11Z</time>
      </trkpt>
      <trkpt lat="47.01874" lon="0.02881">
        <ele>59.2</ele>
        <time>2026-03-14T16:19:12Z</time>
      </trkpt>
      <trkpt lat="47.01882" lon="0.02849">
        <ele>58.6</ele>
        <time>2026-03-14T16:19:15Z</time>
      </trkpt>
      <trkpt lat="47.01887" lon="0.02799">
        <ele>58.4</ele>
        <time>2026-03-14T16:19:20Z</time>
      </trkpt>
      <trkpt lat="47.01886" lon="0.0275">
        <ele>59.2</ele>
        <time>2026-03-14T16:19:26Z</time>
      </trkpt>
      <trkpt lat="47.01883" lon="0.02708">
        <ele>60.4</ele>
        <time>2026-03-14T16:19:32Z</time>
      </trkpt>
      <trkpt lat="47.01883" lon="0.02702">
        <ele>60.4</ele>
        <time>2026-03-14T16:19:33Z</time>
      </trkpt>
      <trkpt lat="47.01885" lon="0.02646">
        <ele>61.4</ele>
        <time>2026-03-14T16:19:41Z</time>
      </trkpt>
      <trkpt lat="47.01887" lon="0.02632">
        <ele>61.6</ele>
        <time>2026-03-14T16:19:43Z</time>
      </trkpt>
      <trkpt lat="47.01893" lon="0.02585">
        <ele>62.4</ele>
        <time>2026-03-14T16:19:50Z</time>
      </trkpt>
      <trkpt lat="47.01893" lon="0.02578">
        <ele>62.4</ele>
        <time>2026-03-14T16:19:51Z</time>
      </trkpt>
      <trkpt lat="47.01898" lon="0.02526">
        <ele>63.6</ele>
        <time>2026-03-14T16:19:59Z</time>
      </trkpt>
      <trkpt lat="47.01901" lon="0.02507">
        <ele>63.8</ele>
        <time>2026-03-14T16:20:02Z</time>
      </trkpt>
      <trkpt lat="47.01905" lon="0.02469">
        <ele>64.8</ele>
        <time>2026-03-14T16:20:08Z</time>
      </trkpt>
      <trkpt lat="47.01907" lon="0.02457">
        <ele>65.2</ele>
        <time>2026-03-14T16:20:10Z</time>
      </trkpt>
      <trkpt lat="47.01914" lon="0.02413">
        <ele>65.8</ele>
        <time>2026-03-14T16:20:17Z</time>
      </trkpt>
      <trkpt lat="47.01917" lon="0.02393">
        <ele>66</ele>
        <time>2026-03-14T16:20:20Z</time>
      </trkpt>
      <trkpt lat="47.01931" lon="0.02343">
        <ele>66.8</ele>
        <time>2026-03-14T16:20:28Z</time>
      </trkpt>
      <trkpt lat="47.01957" lon="0.02286">
        <ele>67.4</ele>
        <time>2026-03-14T16:20:38Z</time>
      </trkpt>
      <trkpt lat="47.01971" lon="0.02259">
        <ele>68</ele>
        <time>2026-03-14T16:20:43Z</time>
      </trkpt>
      <trkpt lat="47.01994" lon="0.02209">
        <ele>69</ele>
        <time>2026-03-14T16:20:52Z</time>
      </trkpt>
      <trkpt lat="47.01997" lon="0.02204">
        <ele>69.2</ele>
        <time>2026-03-14T16:20:53Z</time>
      </trkpt>
      <trkpt lat="47.0202" lon="0.02148">
        <ele>70</ele>
        <time>2026-03-14T16:21:03Z</time>
      </trkpt>
      <trkpt lat="47.02039" lon="0.02094">
        <ele>71</ele>
        <time>2026-03-14T16:21:12Z</time>
      </trkpt>
      <trkpt lat="47.02041" lon="0.02088">
        <ele>71.2</ele>
        <time>2026-03-14T16:21:13Z</time>
      </trkpt>
      <trkpt lat="47.02057" lon="0.02039">
        <ele>72.2</ele>
        <time>2026-03-14T16:21:21Z</time>
      </trkpt>
      <trkpt lat="47.02059" lon="0.02033">
        <ele>72.4</ele>
        <time>2026-03-14T16:21:22Z</time>
      </trkpt>
      <trkpt lat="47.02074" lon="0.01977">
        <ele>73.4</ele>
        <time>2026-03-14T16:21:31Z</time>
      </trkpt>
      <trkpt lat="47.02079" lon="0.01959">
        <ele>73.6</ele>
        <time>2026-03-14T16:21:34Z</time>
      </trkpt>
      <trkpt lat="47.02092" lon="0.01912">
        <ele>74.6</ele>
        <time>2026-03-14T16:21:42Z</time>
      </trkpt>
      <trkpt lat="47.02099" lon="0.01889">
        <ele>75.2</ele>
        <time>2026-03-14T16:21:46Z</time>
      </trkpt>
      <trkpt lat="47.02112" lon="0.01844">
        <ele>75.8</ele>
        <time>2026-03-14T16:21:53Z</time>
      </trkpt>
      <trkpt lat="47.02119" lon="0.01818">
        <ele>76</ele>
        <time>2026-03-14T16:21:57Z</time>
      </trkpt>
      <trkpt lat="47.0213" lon="0.01778">
        <ele>76.4</ele>
        <time>2026-03-14T16:22:03Z</time>
      </trkpt>
      <trkpt lat="47.02156" lon="0.01709">
        <ele>76.6</ele>
        <time>2026-03-14T16:22:13Z</time>
      </trkpt>
      <trkpt lat="47.02178" lon="0.01645">
        <ele>76.4</ele>
        <time>2026-03-14T16:22:21Z</time>
      </trkpt>
      <trkpt lat="47.02189" lon="0.01608">
        <ele>76.4</ele>
        <time>2026-03-14T16:22:25Z</time>
      </trkpt>
      <trkpt lat="47.02192" lon="0.01589">
        <ele>76</ele>
        <time>2026-03-14T16:22:27Z</time>
      </trkpt>
      <trkpt lat="47.02206" lon="0.01539">
        <ele>75.4</ele>
        <time>2026-03-14T16:22:32Z</time>
      </trkpt>
      <trkpt lat="47.02215" lon="0.01507">
        <ele>74.8</ele>
        <time>2026-03-14T16:22:35Z</time>
      </trkpt>
      <trkpt lat="47.02228" lon="0.01464">
        <ele>73.6</ele>
        <time>2026-03-14T16:22:39Z</time>
      </trkpt>
      <trkpt lat="47.0224" lon="0.01433">
        <ele>72.4</ele>
        <time>2026-03-14T16:22:42Z</time>
      </trkpt>
      <trkpt lat="47.02257" lon="0.01389">
        <ele>71.4</ele>
        <time>2026-03-14T16:22:46Z</time>
      </trkpt>
      <trkpt lat="47.02271" lon="0.01355">
        <ele>70.2</ele>
        <time>2026-03-14T16:22:49Z</time>
      </trkpt>
      <trkpt lat="47.02292" lon="0.01311">
        <ele>69</ele>
        <time>2026-03-14T16:22:53Z</time>
      </trkpt>
      <trkpt lat="47.02302" lon="0.0129">
        <ele>67.6</ele>
        <time>2026-03-14T16:22:55Z</time>
      </trkpt>
      <trkpt lat="47.02318" lon="0.01259">
        <ele>66.4</ele>
        <time>2026-03-14T16:22:59Z</time>
      </trkpt>
      <trkpt lat="47.02339" lon="0.0122">
        <ele>65.2</ele>
        <time>2026-03-14T16:23:03Z</time>
      </trkpt>
      <trkpt lat="47.02343" lon="0.01211">
        <ele>65</ele>
        <time>2026-03-14T16:23:04Z</time>
      </trkpt>
      <trkpt lat="47.02368" lon="0.01164">
        <ele>64.6</ele>
        <time>2026-03-14T16:23:10Z</time>
      </trkpt>
      <trkpt lat="47.02385" lon="0.01134">
        <ele>64.8</ele>
        <time>2026-03-14T16:23:15Z</time>
      </trkpt>
      <trkpt lat="47.02403" lon="0.01101">
        <ele>66.2</ele>
        <time>2026-03-14T16:23:21Z</time>
      </trkpt>
      <trkpt lat="47.02409" lon="0.0109">
        <ele>67</ele>
        <time>2026-03-14T16:23:23Z</time>
      </trkpt>
      <trkpt lat="47.02416" lon="0.01078">
        <ele>67.4</ele>
        <time>2026-03-14T16:23:25Z</time>
      </trkpt>
      <trkpt lat="47.02441" lon="0.01034">
        <ele>68.2</ele>
        <time>2026-03-14T16:23:32Z</time>
      </trkpt>
      <trkpt lat="47.02463" lon="0.0099">
        <ele>68.4</ele>
        <time>2026-03-14T16:23:38Z</time>
      </trkpt>
      <trkpt lat="47.02499" lon="0.0092">
        <ele>67.8</ele>
        <time>2026-03-14T16:23:47Z</time>
      </trkpt>
      <trkpt lat="47.0253" lon="0.00844">
        <ele>66.8</ele>
        <time>2026-03-14T16:23:56Z</time>
      </trkpt>
      <trkpt lat="47.02544" lon="0.00811">
        <ele>66.4</ele>
        <time>2026-03-14T16:24:00Z</time>
      </trkpt>
      <trkpt lat="47.02576" lon="0.00736">
        <ele>65.8</ele>
        <time>2026-03-14T16:24:09Z</time>
      </trkpt>
      <trkpt lat="47.02582" lon="0.0072">
        <ele>65.8</ele>
        <time>2026-03-14T16:24:11Z</time>
      </trkpt>
      <trkpt lat="47.02598" lon="0.00657">
        <ele>65.6</ele>
        <time>2026-03-14T16:24:18Z</time>
      </trkpt>
      <trkpt lat="47.02605" lon="0.0062">
        <ele>65.2</ele>
        <time>2026-03-14T16:24:22Z</time>
      </trkpt>
      <trkpt lat="47.02616" lon="0.00565">
        <ele>65</ele>
        <time>2026-03-14T16:24:28Z</time>
      </trkpt>
      <trkpt lat="47.02635" lon="0.00481">
        <ele>64.8</ele>
        <time>2026-03-14T16:24:37Z</time>
      </trkpt>
      <trkpt lat="47.0264" lon="0.00464">
        <ele>64.6</ele>
        <time>2026-03-14T16:24:39Z</time>
      </trkpt>
      <trkpt lat="47.02657" lon="0.00401">
        <ele>64.2</ele>
        <time>2026-03-14T16:24:46Z</time>
      </trkpt>
      <trkpt lat="47.02668" lon="0.00366">
        <ele>63.8</ele>
        <time>2026-03-14T16:24:50Z</time>
      </trkpt>
      <trkpt lat="47.02691" lon="0.00293">
        <ele>63.4</ele>
        <time>2026-03-14T16:24:58Z</time>
      </trkpt>
      <trkpt lat="47.02699" lon="0.00267">
        <ele>63</ele>
        <time>2026-03-14T16:25:01Z</time>
      </trkpt>
      <trkpt lat="47.02705" lon="0.00249">
        <ele>62.8</ele>
        <time>2026-03-14T16:25:03Z</time>
      </trkpt>
      <trkpt lat="47.0273" lon="0.00173">
        <ele>62.6</ele>
        <time>2026-03-14T16:25:12Z</time>
      </trkpt>
      <trkpt lat="47.02754" lon="0.00113">
        <ele>63</ele>
        <time>2026-03-14T16:25:20Z</time>
      </trkpt>
      <trkpt lat="47.02785" lon="0.00038">
        <ele>63.2</ele>
        <time>2026-03-14T16:25:30Z</time>
      </trkpt>
      <trkpt lat="47.02792" lon="0.00022">
        <ele>63</ele>
        <time>2026-03-14T16:25:32Z</time>
      </trkpt>
      <trkpt lat="47.02812" lon="-0.0003">
        <ele>62.2</ele>
        <time>2026-03-14T16:25:38Z</time>
      </trkpt>
      <trkpt lat="47.02818" lon="-0.0005">
        <ele>62</ele>
        <time>2026-03-14T16:25:40Z</time>
      </trkpt>
      <trkpt lat="47.02824" lon="-0.00082">
        <ele>61.6</ele>
        <time>2026-03-14T16:25:43Z</time>
      </trkpt>
      <trkpt lat="47.02829" lon="-0.00103">
        <ele>61</ele>
        <time>2026-03-14T16:25:45Z</time>
      </trkpt>
      <trkpt lat="47.02836" lon="-0.00144">
        <ele>59.6</ele>
        <time>2026-03-14T16:25:49Z</time>
      </trkpt>
      <trkpt lat="47.02838" lon="-0.00154">
        <ele>59.6</ele>
        <time>2026-03-14T16:25:50Z</time>
      </trkpt>
      <trkpt lat="47.02847" lon="-0.00201">
        <ele>59.4</ele>
        <time>2026-03-14T16:25:55Z</time>
      </trkpt>
      <trkpt lat="47.02855" lon="-0.00236">
        <ele>59.4</ele>
        <time>2026-03-14T16:25:59Z</time>
      </trkpt>
      <trkpt lat="47.02858" lon="-0.00254">
        <ele>59.4</ele>
        <time>2026-03-14T16:26:01Z</time>
      </trkpt>
      <trkpt lat="47.02867" lon="-0.00302">
        <ele>60</ele>
        <time>2026-03-14T16:26:07Z</time>
      </trkpt>
      <trkpt lat="47.02869" lon="-0.00318">
        <ele>60.2</ele>
        <time>2026-03-14T16:26:09Z</time>
      </trkpt>
      <trkpt lat="47.02869" lon="-0.00335">
        <ele>60.2</ele>
        <time>2026-03-14T16:26:11Z</time>
      </trkpt>
      <trkpt lat="47.0287" lon="-0.00343">
        <ele>60.2</ele>
        <time>2026-03-14T16:26:12Z</time>
      </trkpt>
      <trkpt lat="47.02871" lon="-0.00357">
        <ele>60.6</ele>
        <time>2026-03-14T16:26:14Z</time>
      </trkpt>
      <trkpt lat="47.02872" lon="-0.00372">
        <ele>61</ele>
        <time>2026-03-14T16:26:16Z</time>
      </trkpt>
      <trkpt lat="47.02872" lon="-0.00379">
        <ele>61</ele>
        <time>2026-03-14T16:26:17Z</time>
      </trkpt>
      <trkpt lat="47.02874" lon="-0.00399">
        <ele>61</ele>
        <time>2026-03-14T16:26:20Z</time>
      </trkpt>
      <trkpt lat="47.02876" lon="-0.0042">
        <ele>61.8</ele>
        <time>2026-03-14T16:26:23Z</time>
      </trkpt>
      <trkpt lat="47.02877" lon="-0.00426">
        <ele>62</ele>
        <time>2026-03-14T16:26:24Z</time>
      </trkpt>
      <trkpt lat="47.02879" lon="-0.00449">
        <ele>62</ele>
        <time>2026-03-14T16:26:27Z</time>
      </trkpt>
      <trkpt lat="47.02881" lon="-0.00464">
        <ele>62.4</ele>
        <time>2026-03-14T16:26:29Z</time>
      </trkpt>
      <trkpt lat="47.02882" lon="-0.00472">
        <ele>62.6</ele>
        <time>2026-03-14T16:26:30Z</time>
      </trkpt>
      <trkpt lat="47.02883" lon="-0.0048">
        <ele>62.6</ele>
        <time>2026-03-14T16:26:31Z</time>
      </trkpt>
      <trkpt lat="47.02885" lon="-0.00494">
        <ele>62.8</ele>
        <time>2026-03-14T16:26:33Z</time>
      </trkpt>
      <trkpt lat="47.02888" lon="-0.005">
        <ele>63</ele>
        <time>2026-03-14T16:26:34Z</time>
      </trkpt>
      <trkpt lat="47.02892" lon="-0.00521">
        <ele>63.4</ele>
        <time>2026-03-14T16:26:37Z</time>
      </trkpt>
      <trkpt lat="47.02901" lon="-0.00546">
        <ele>63.8</ele>
        <time>2026-03-14T16:26:41Z</time>
      </trkpt>
      <trkpt lat="47.02912" lon="-0.00584">
        <ele>64.4</ele>
        <time>2026-03-14T16:26:47Z</time>
      </trkpt>
      <trkpt lat="47.02918" lon="-0.00603">
        <ele>64.8</ele>
        <time>2026-03-14T16:26:50Z</time>
      </trkpt>
      <trkpt lat="47.02925" lon="-0.00628">
        <ele>65.6</ele>
        <time>2026-03-14T16:26:54Z</time>
      </trkpt>
      <trkpt lat="47.02929" lon="-0.0064">
        <ele>66</ele>
        <time>2026-03-14T16:26:56Z</time>
      </trkpt>
      <trkpt lat="47.02937" lon="-0.0067">
        <ele>66.8</ele>
        <time>2026-03-14T16:27:01Z</time>
      </trkpt>
      <trkpt lat="47.02941" lon="-0.00683">
        <ele>67.2</ele>
        <time>2026-03-14T16:27:03Z</time>
      </trkpt>
      <trkpt lat="47.02948" lon="-0.00712">
        <ele>68.4</ele>
        <time>2026-03-14T16:27:08Z</time>
      </trkpt>
      <trkpt lat="47.02957" lon="-0.00744">
        <ele>69.6</ele>
        <time>2026-03-14T16:27:14Z</time>
      </trkpt>
      <trkpt lat="47.02961" lon="-0.00779">
        <ele>70.6</ele>
        <time>2026-03-14T16:27:20Z</time>
      </trkpt>
      <trkpt lat="47.02961" lon="-0.00786">
        <ele>70.8</ele>
        <time>2026-03-14T16:27:21Z</time>
      </trkpt>
      <trkpt lat="47.0296" lon="-0.00821">
        <ele>71.8</ele>
        <time>2026-03-14T16:27:27Z</time>
      </trkpt>
      <trkpt lat="47.0296" lon="-0.00833">
        <ele>72.2</ele>
        <time>2026-03-14T16:27:29Z</time>
      </trkpt>
      <trkpt lat="47.0296" lon="-0.00855">
        <ele>73</ele>
        <time>2026-03-14T16:27:33Z</time>
      </trkpt>
      <trkpt lat="47.02962" lon="-0.00882">
        <ele>74</ele>
        <time>2026-03-14T16:27:38Z</time>
      </trkpt>
      <trkpt lat="47.02962" lon="-0.00887">
        <ele>74</ele>
        <time>2026-03-14T16:27:39Z</time>
      </trkpt>
      <trkpt lat="47.02966" lon="-0.00906">
        <ele>74.6</ele>
        <time>2026-03-14T16:27:43Z</time>
      </trkpt>
      <trkpt lat="47.02968" lon="-0.00914">
        <ele>75.2</ele>
        <time>2026-03-14T16:27:45Z</time>
      </trkpt>
      <trkpt lat="47.02971" lon="-0.00922">
        <ele>75.6</ele>
        <time>2026-03-14T16:27:47Z</time>
      </trkpt>
      <trkpt lat="47.02974" lon="-0.00935">
        <ele>76.4</ele>
        <time>2026-03-14T16:27:50Z</time>
      </trkpt>
      <trkpt lat="47.02976" lon="-0.00948">
        <ele>76.8</ele>
        <time>2026-03-14T16:27:53Z</time>
      </trkpt>
      <trkpt lat="47.02977" lon="-0.00958">
        <ele>77.6</ele>
        <time>2026-03-14T16:27:55Z</time>
      </trkpt>
      <trkpt lat="47.0298" lon="-0.00978">
        <ele>78.8</ele>
        <time>2026-03-14T16:27:59Z</time>
      </trkpt>
      <trkpt lat="47.02985" lon="-0.00992">
        <ele>79.4</ele>
        <time>2026-03-14T16:28:02Z</time>
      </trkpt>
      <trkpt lat="47.02987" lon="-0.01007">
        <ele>80</ele>
        <time>2026-03-14T16:28:05Z</time>
      </trkpt>
      <trkpt lat="47.02989" lon="-0.01024">
        <ele>80.8</ele>
        <time>2026-03-14T16:28:08Z</time>
      </trkpt>
      <trkpt lat="47.02991" lon="-0.01028">
        <ele>81.2</ele>
        <time>2026-03-14T16:28:09Z</time>
      </trkpt>
      <trkpt lat="47.02994" lon="-0.01048">
        <ele>82.2</ele>
        <time>2026-03-14T16:28:13Z</time>
      </trkpt>
      <trkpt lat="47.02995" lon="-0.01053">
        <ele>82.6</ele>
        <time>2026-03-14T16:28:14Z</time>
      </trkpt>
      <trkpt lat="47.03001" lon="-0.01077">
        <ele>83.8</ele>
        <time>2026-03-14T16:28:19Z</time>
      </trkpt>
      <trkpt lat="47.03" lon="-0.01083">
        <ele>83.8</ele>
        <time>2026-03-14T16:28:20Z</time>
      </trkpt>
      <trkpt lat="47.03007" lon="-0.01102">
        <ele>84.8</ele>
        <time>2026-03-14T16:28:24Z</time>
      </trkpt>
      <trkpt lat="47.0301" lon="-0.01117">
        <ele>85.4</ele>
        <time>2026-03-14T16:28:27Z</time>
      </trkpt>
      <trkpt lat="47.03013" lon="-0.01126">
        <ele>85.8</ele>
        <time>2026-03-14T16:28:29Z</time>
      </trkpt>
      <trkpt lat="47.03015" lon="-0.01135">
        <ele>86</ele>
        <time>2026-03-14T16:28:31Z</time>
      </trkpt>
      <trkpt lat="47.03019" lon="-0.01144">
        <ele>86.2</ele>
        <time>2026-03-14T16:28:33Z</time>
      </trkpt>
      <trkpt lat="47.03029" lon="-0.01168">
        <ele>86.8</ele>
        <time>2026-03-14T16:28:38Z</time>
      </trkpt>
      <trkpt lat="47.03033" lon="-0.01178">
        <ele>87</ele>
        <time>2026-03-14T16:28:40Z</time>
      </trkpt>
      <trkpt lat="47.03053" lon="-0.01222">
        <ele>87.6</ele>
        <time>2026-03-14T16:28:49Z</time>
      </trkpt>
      <trkpt lat="47.03068" lon="-0.0126">
        <ele>87.8</ele>
        <time>2026-03-14T16:28:56Z</time>
      </trkpt>
      <trkpt lat="47.03071" lon="-0.01265">
        <ele>87.8</ele>
        <time>2026-03-14T16:28:57Z</time>
      </trkpt>
      <trkpt lat="47.03075" lon="-0.01276">
        <ele>88</ele>
        <time>2026-03-14T16:28:59Z</time>
      </trkpt>
      <trkpt lat="47.03082" lon="-0.01292">
        <ele>88</ele>
        <time>2026-03-14T16:29:02Z</time>
      </trkpt>
      <trkpt lat="47.03084" lon="-0.01297">
        <ele>88.2</ele>
        <time>2026-03-14T16:29:03Z</time>
      </trkpt>
      <trkpt lat="47.03107" lon="-0.01338">
        <ele>88.8</ele>
        <time>2026-03-14T16:29:11Z</time>
      </trkpt>
      <trkpt lat="47.0311" lon="-0.01343">
        <ele>89</ele>
        <time>2026-03-14T16:29:12Z</time>
      </trkpt>
      <trkpt lat="47.03129" lon="-0.01376">
        <ele>89.6</ele>
        <time>2026-03-14T16:29:18Z</time>
      </trkpt>
      <trkpt lat="47.03132" lon="-0.01382">
        <ele>89.6</ele>
        <time>2026-03-14T16:29:19Z</time>
      </trkpt>
      <trkpt lat="47.03145" lon="-0.01409">
        <ele>89.8</ele>
        <time>2026-03-14T16:29:24Z</time>
      </trkpt>
      <trkpt lat="47.03152" lon="-0.01421">
        <ele>89.8</ele>
        <time>2026-03-14T16:29:26Z</time>
      </trkpt>
      <trkpt lat="47.0317" lon="-0.0146">
        <ele>90.2</ele>
        <time>2026-03-14T16:29:32Z</time>
      </trkpt>
      <trkpt lat="47.03192" lon="-0.01517">
        <ele>90.4</ele>
        <time>2026-03-14T16:29:40Z</time>
      </trkpt>
      <trkpt lat="47.03208" lon="-0.01554">
        <ele>90.6</ele>
        <time>2026-03-14T16:29:45Z</time>
      </trkpt>
      <trkpt lat="47.03219" lon="-0.01576">
        <ele>90.4</ele>
        <time>2026-03-14T16:29:48Z</time>
      </trkpt>
      <trkpt lat="47.03227" lon="-0.01589">
        <ele>90.4</ele>
        <time>2026-03-14T16:29:50Z</time>
      </trkpt>
      <trkpt lat="47.03243" lon="-0.01606">
        <ele>90</ele>
        <time>2026-03-14T16:29:53Z</time>
      </trkpt>
      <trkpt lat="47.03249" lon="-0.0161">
        <ele>89.8</ele>
        <time>2026-03-14T16:29:54Z</time>
      </trkpt>
      <trkpt lat="47.0328" lon="-0.01633">
        <ele>89.2</ele>
        <time>2026-03-14T16:29:59Z</time>
      </trkpt>
      <trkpt lat="47.03286" lon="-0.01639">
        <ele>89.2</ele>
        <time>2026-03-14T16:30:00Z</time>
      </trkpt>
      <trkpt lat="47.03298" lon="-0.01655">
        <ele>88.8</ele>
        <time>2026-03-14T16:30:02Z</time>
      </trkpt>
      <trkpt lat="47.03303" lon="-0.01665">
        <ele>88.6</ele>
        <time>2026-03-14T16:30:03Z</time>
      </trkpt>
      <trkpt lat="47.03307" lon="-0.01676">
        <ele>88.4</ele>
        <time>2026-03-14T16:30:04Z</time>
      </trkpt>
      <trkpt lat="47.03318" lon="-0.01711">
        <ele>87.4</ele>
        <time>2026-03-14T16:30:07Z</time>
      </trkpt>
      <trkpt lat="47.03327" lon="-0.01757">
        <ele>86.2</ele>
        <time>2026-03-14T16:30:11Z</time>
      </trkpt>
      <trkpt lat="47.0333" lon="-0.01779">
        <ele>85.8</ele>
        <time>2026-03-14T16:30:13Z</time>
      </trkpt>
      <trkpt lat="47.03337" lon="-0.01819">
        <ele>85.2</ele>
        <time>2026-03-14T16:30:17Z</time>
      </trkpt>
      <trkpt lat="47.0334" lon="-0.01838">
        <ele>85.2</ele>
        <time>2026-03-14T16:30:19Z</time>
      </trkpt>
      <trkpt lat="47.03344" lon="-0.01855">
        <ele>85.2</ele>
        <time>2026-03-14T16:30:21Z</time>
      </trkpt>
      <trkpt lat="47.03346" lon="-0.01873">
        <ele>85.2</ele>
        <time>2026-03-14T16:30:23Z</time>
      </trkpt>
      <trkpt lat="47.03352" lon="-0.01927">
        <ele>85.8</ele>
        <time>2026-03-14T16:30:29Z</time>
      </trkpt>
      <trkpt lat="47.03358" lon="-0.01969">
        <ele>86.4</ele>
        <time>2026-03-14T16:30:34Z</time>
      </trkpt>
      <trkpt lat="47.03359" lon="-0.01977">
        <ele>86.4</ele>
        <time>2026-03-14T16:30:35Z</time>
      </trkpt>
      <trkpt lat="47.0336" lon="-0.01985">
        <ele>86.6</ele>
        <time>2026-03-14T16:30:36Z</time>
      </trkpt>
      <trkpt lat="47.03368" lon="-0.02028">
        <ele>87.4</ele>
        <time>2026-03-14T16:30:41Z</time>
      </trkpt>
      <trkpt lat="47.03371" lon="-0.02044">
        <ele>87.8</ele>
        <time>2026-03-14T16:30:43Z</time>
      </trkpt>
      <trkpt lat="47.0338" lon="-0.02091">
        <ele>88</ele>
        <time>2026-03-14T16:30:49Z</time>
      </trkpt>
      <trkpt lat="47.03382" lon="-0.02098">
        <ele>88.2</ele>
        <time>2026-03-14T16:30:50Z</time>
      </trkpt>
      <trkpt lat="47.03386" lon="-0.02113">
        <ele>88.6</ele>
        <time>2026-03-14T16:30:52Z</time>
      </trkpt>
      <trkpt lat="47.03392" lon="-0.02145">
        <ele>89</ele>
        <time>2026-03-14T16:30:56Z</time>
      </trkpt>
      <trkpt lat="47.03399" lon="-0.02192">
        <ele>89.2</ele>
        <time>2026-03-14T16:31:03Z</time>
      </trkpt>
      <trkpt lat="47.03404" lon="-0.02212">
        <ele>89.2</ele>
        <time>2026-03-14T16:31:07Z</time>
      </trkpt>
      <trkpt lat="47.03404" lon="-0.02225">
        <ele>89.4</ele>
        <time>2026-03-14T16:31:09Z</time>
      </trkpt>
      <trkpt lat="47.03407" lon="-0.02246">
        <ele>89.4</ele>
        <time>2026-03-14T16:31:12Z</time>
      </trkpt>
      <trkpt lat="47.03411" lon="-0.02259">
        <ele>89.6</ele>
        <time>2026-03-14T16:31:14Z</time>
      </trkpt>
      <trkpt lat="47.03414" lon="-0.02265">
        <ele>89.6</ele>
        <time>2026-03-14T16:31:15Z</time>
      </trkpt>
      <trkpt lat="47.03418" lon="-0.02279">
        <ele>89.8</ele>
        <time>2026-03-14T16:31:17Z</time>
      </trkpt>
      <trkpt lat="47.0342" lon="-0.02286">
        <ele>90</ele>
        <time>2026-03-14T16:31:18Z</time>
      </trkpt>
      <trkpt lat="47.03433" lon="-0.02312">
        <ele>90.4</ele>
        <time>2026-03-14T16:31:22Z</time>
      </trkpt>
      <trkpt lat="47.03435" lon="-0.0232">
        <ele>90.4</ele>
        <time>2026-03-14T16:31:23Z</time>
      </trkpt>
      <trkpt lat="47.03448" lon="-0.02349">
        <ele>90.6</ele>
        <time>2026-03-14T16:31:27Z</time>
      </trkpt>
      <trkpt lat="47.03464" lon="-0.02388">
        <ele>90.6</ele>
        <time>2026-03-14T16:31:32Z</time>
      </trkpt>
      <trkpt lat="47.03485" lon="-0.02443">
        <ele>90.8</ele>
        <time>2026-03-14T16:31:39Z</time>
      </trkpt>
      <trkpt lat="47.03505" lon="-0.02489">
        <ele>90.8</ele>
        <time>2026-03-14T16:31:45Z</time>
      </trkpt>
      <trkpt lat="47.03531" lon="-0.02559">
        <ele>91.8</ele>
        <time>2026-03-14T16:31:54Z</time>
      </trkpt>
      <trkpt lat="47.03555" lon="-0.02622">
        <ele>92.6</ele>
        <time>2026-03-14T16:32:02Z</time>
      </trkpt>
      <trkpt lat="47.03557" lon="-0.0263">
        <ele>92.6</ele>
        <time>2026-03-14T16:32:03Z</time>
      </trkpt>
      <trkpt lat="47.03566" lon="-0.02663">
        <ele>92.8</ele>
        <time>2026-03-14T16:32:07Z</time>
      </trkpt>
      <trkpt lat="47.03572" lon="-0.02678">
        <ele>92.8</ele>
        <time>2026-03-14T16:32:09Z</time>
      </trkpt>
      <trkpt lat="47.03573" lon="-0.02684">
        <ele>92.8</ele>
        <time>2026-03-14T16:32:10Z</time>
      </trkpt>
      <trkpt lat="47.03576" lon="-0.02694">
        <ele>92.8</ele>
        <time>2026-03-14T16:32:11Z</time>
      </trkpt>
      <trkpt lat="47.03577" lon="-0.02704">
        <ele>93</ele>
        <time>2026-03-14T16:32:12Z</time>
      </trkpt>
      <trkpt lat="47.03579" lon="-0.02711">
        <ele>93</ele>
        <time>2026-03-14T16:32:13Z</time>
      </trkpt>
      <trkpt lat="47.03583" lon="-0.02729">
        <ele>93</ele>
        <time>2026-03-14T16:32:15Z</time>
      </trkpt>
      <trkpt lat="47.03585" lon="-0.02738">
        <ele>93</ele>
        <time>2026-03-14T16:32:16Z</time>
      </trkpt>
      <trkpt lat="47.0359" lon="-0.02762">
        <ele>93.2</ele>
        <time>2026-03-14T16:32:19Z</time>
      </trkpt>
      <trkpt lat="47.03596" lon="-0.02779">
        <ele>93.2</ele>
        <time>2026-03-14T16:32:21Z</time>
      </trkpt>
      <trkpt lat="47.03601" lon="-0.02794">
        <ele>93.2</ele>
        <time>2026-03-14T16:32:23Z</time>
      </trkpt>
      <trkpt lat="47.03613" lon="-0.02828">
        <ele>93.4</ele>
        <time>2026-03-14T16:32:27Z</time>
      </trkpt>
      <trkpt lat="47.0362" lon="-0.02861">
        <ele>93.2</ele>
        <time>2026-03-14T16:32:31Z</time>
      </trkpt>
      <trkpt lat="47.03624" lon="-0.02868">
        <ele>93.2</ele>
        <time>2026-03-14T16:32:32Z</time>
      </trkpt>
      <trkpt lat="47.03625" lon="-0.02878">
        <ele>93.2</ele>
        <time>2026-03-14T16:32:33Z</time>
      </trkpt>
      <trkpt lat="47.03632" lon="-0.02916">
        <ele>93.2</ele>
        <time>2026-03-14T16:32:37Z</time>
      </trkpt>
      <trkpt lat="47.03633" lon="-0.02925">
        <ele>93.4</ele>
        <time>2026-03-14T16:32:38Z</time>
      </trkpt>
      <trkpt lat="47.03638" lon="-0.02959">
        <ele>93.4</ele>
        <time>2026-03-14T16:32:42Z</time>
      </trkpt>
      <trkpt lat="47.03647" lon="-0.03019">
        <ele>93.6</ele>
        <time>2026-03-14T16:32:49Z</time>
      </trkpt>
      <trkpt lat="47.03648" lon="-0.03027">
        <ele>93.8</ele>
        <time>2026-03-14T16:32:50Z</time>
      </trkpt>
      <trkpt lat="47.03654" lon="-0.0307">
        <ele>94</ele>
        <time>2026-03-14T16:32:55Z</time>
      </trkpt>
      <trkpt lat="47.03662" lon="-0.03128">
        <ele>94.4</ele>
        <time>2026-03-14T16:33:02Z</time>
      </trkpt>
      <trkpt lat="47.03667" lon="-0.03161">
        <ele>94.8</ele>
        <time>2026-03-14T16:33:06Z</time>
      </trkpt>
      <trkpt lat="47.0367" lon="-0.03193">
        <ele>95</ele>
        <time>2026-03-14T16:33:10Z</time>
      </trkpt>
      <trkpt lat="47.03677" lon="-0.03246">
        <ele>95.6</ele>
        <time>2026-03-14T16:33:17Z</time>
      </trkpt>
      <trkpt lat="47.03678" lon="-0.0326">
        <ele>95.8</ele>
        <time>2026-03-14T16:33:19Z</time>
      </trkpt>
      <trkpt lat="47.03682" lon="-0.03305">
        <ele>96.4</ele>
        <time>2026-03-14T16:33:25Z</time>
      </trkpt>
      <trkpt lat="47.03684" lon="-0.03335">
        <ele>97</ele>
        <time>2026-03-14T16:33:29Z</time>
      </trkpt>
      <trkpt lat="47.03684" lon="-0.03357">
        <ele>97.4</ele>
        <time>2026-03-14T16:33:32Z</time>
      </trkpt>
      <trkpt lat="47.03683" lon="-0.0341">
        <ele>98.2</ele>
        <time>2026-03-14T16:33:39Z</time>
      </trkpt>
      <trkpt lat="47.03683" lon="-0.03418">
        <ele>98.2</ele>
        <time>2026-03-14T16:33:40Z</time>
      </trkpt>
      <trkpt lat="47.03682" lon="-0.03464">
        <ele>99</ele>
        <time>2026-03-14T16:33:46Z</time>
      </trkpt>
      <trkpt lat="47.03682" lon="-0.03471">
        <ele>99.2</ele>
        <time>2026-03-14T16:33:47Z</time>
      </trkpt>
      <trkpt lat="47.03681" lon="-0.03479">
        <ele>99.2</ele>
        <time>2026-03-14T16:33:48Z</time>
      </trkpt>
      <trkpt lat="47.03678" lon="-0.03522">
        <ele>99.4</ele>
        <time>2026-03-14T16:33:53Z</time>
      </trkpt>
      <trkpt lat="47.03676" lon="-0.03568">
        <ele>99.4</ele>
        <time>2026-03-14T16:33:58Z</time>
      </trkpt>
      <trkpt lat="47.03674" lon="-0.03635">
        <ele>98.4</ele>
        <time>2026-03-14T16:34:05Z</time>
      </trkpt>
      <trkpt lat="47.03674" lon="-0.03677">
        <ele>97.8</ele>
        <time>2026-03-14T16:34:09Z</time>
      </trkpt>
      <trkpt lat="47.03673" lon="-0.03712">
        <ele>97.4</ele>
        <time>2026-03-14T16:34:12Z</time>
      </trkpt>
      <trkpt lat="47.03672" lon="-0.03749">
        <ele>96.8</ele>
        <time>2026-03-14T16:34:15Z</time>
      </trkpt>
      <trkpt lat="47.0367" lon="-0.0379">
        <ele>95.4</ele>
        <time>2026-03-14T16:34:18Z</time>
      </trkpt>
      <trkpt lat="47.03668" lon="-0.03818">
        <ele>94.2</ele>
        <time>2026-03-14T16:34:20Z</time>
      </trkpt>
      <trkpt lat="47.03665" lon="-0.03877">
        <ele>92.8</ele>
        <time>2026-03-14T16:34:24Z</time>
      </trkpt>
      <trkpt lat="47.03666" lon="-0.03907">
        <ele>91.6</ele>
        <time>2026-03-14T16:34:26Z</time>
      </trkpt>
      <trkpt lat="47.03667" lon="-0.03922">
        <ele>91.2</ele>
        <time>2026-03-14T16:34:27Z</time>
      </trkpt>
      <trkpt lat="47.03668" lon="-0.03938">
        <ele>90.4</ele>
        <time>2026-03-14T16:34:28Z</time>
      </trkpt>
      <trkpt lat="47.03669" lon="-0.03953">
        <ele>90</ele>
        <time>2026-03-14T16:34:29Z</time>
      </trkpt>
      <trkpt lat="47.03671" lon="-0.03968">
        <ele>88.8</ele>
        <time>2026-03-14T16:34:30Z</time>
      </trkpt>
      <trkpt lat="47.03674" lon="-0.03998">
        <ele>87.8</ele>
        <time>2026-03-14T16:34:32Z</time>
      </trkpt>
      <trkpt lat="47.03675" lon="-0.04028">
        <ele>86.6</ele>
        <time>2026-03-14T16:34:34Z</time>
      </trkpt>
      <trkpt lat="47.03676" lon="-0.04042">
        <ele>85.4</ele>
        <time>2026-03-14T16:34:35Z</time>
      </trkpt>
      <trkpt lat="47.03676" lon="-0.04072">
        <ele>84</ele>
        <time>2026-03-14T16:34:37Z</time>
      </trkpt>
      <trkpt lat="47.03676" lon="-0.04086">
        <ele>83</ele>
        <time>2026-03-14T16:34:38Z</time>
      </trkpt>
      <trkpt lat="47.03677" lon="-0.04115">
        <ele>81.6</ele>
        <time>2026-03-14T16:34:40Z</time>
      </trkpt>
      <trkpt lat="47.03677" lon="-0.0413">
        <ele>80.8</ele>
        <time>2026-03-14T16:34:41Z</time>
      </trkpt>
      <trkpt lat="47.03677" lon="-0.04145">
        <ele>80.4</ele>
        <time>2026-03-14T16:34:42Z</time>
      </trkpt>
      <trkpt lat="47.03677" lon="-0.04159">
        <ele>79.2</ele>
        <time>2026-03-14T16:34:43Z</time>
      </trkpt>
      <trkpt lat="47.03679" lon="-0.04189">
        <ele>78</ele>
        <time>2026-03-14T16:34:45Z</time>
      </trkpt>
      <trkpt lat="47.03681" lon="-0.04203">
        <ele>77.4</ele>
        <time>2026-03-14T16:34:46Z</time>
      </trkpt>
      <trkpt lat="47.03686" lon="-0.04231">
        <ele>76.2</ele>
        <time>2026-03-14T16:34:48Z</time>
      </trkpt>
      <trkpt lat="47.03695" lon="-0.04257">
        <ele>75.2</ele>
        <time>2026-03-14T16:34:50Z</time>
      </trkpt>
      <trkpt lat="47.037" lon="-0.04269">
        <ele>74.2</ele>
        <time>2026-03-14T16:34:51Z</time>
      </trkpt>
      <trkpt lat="47.03705" lon="-0.0428">
        <ele>73.8</ele>
        <time>2026-03-14T16:34:52Z</time>
      </trkpt>
      <trkpt lat="47.03718" lon="-0.04302">
        <ele>73.4</ele>
        <time>2026-03-14T16:34:54Z</time>
      </trkpt>
      <trkpt lat="47.03731" lon="-0.04322">
        <ele>72.8</ele>
        <time>2026-03-14T16:34:56Z</time>
      </trkpt>
      <trkpt lat="47.03743" lon="-0.04339">
        <ele>71.6</ele>
        <time>2026-03-14T16:34:58Z</time>
      </trkpt>
      <trkpt lat="47.03762" lon="-0.04373">
        <ele>70.6</ele>
        <time>2026-03-14T16:35:01Z</time>
      </trkpt>
      <trkpt lat="47.03779" lon="-0.04423">
        <ele>69.6</ele>
        <time>2026-03-14T16:35:05Z</time>
      </trkpt>
      <trkpt lat="47.03782" lon="-0.04436">
        <ele>69.4</ele>
        <time>2026-03-14T16:35:06Z</time>
      </trkpt>
      <trkpt lat="47.03789" lon="-0.04492">
        <ele>68.6</ele>
        <time>2026-03-14T16:35:10Z</time>
      </trkpt>
      <trkpt lat="47.0379" lon="-0.0452">
        <ele>68</ele>
        <time>2026-03-14T16:35:12Z</time>
      </trkpt>
      <trkpt lat="47.0379" lon="-0.04563">
        <ele>67.2</ele>
        <time>2026-03-14T16:35:15Z</time>
      </trkpt>
      <trkpt lat="47.03788" lon="-0.04591">
        <ele>66.8</ele>
        <time>2026-03-14T16:35:17Z</time>
      </trkpt>
      <trkpt lat="47.03787" lon="-0.04605">
        <ele>66.4</ele>
        <time>2026-03-14T16:35:18Z</time>
      </trkpt>
      <trkpt lat="47.03787" lon="-0.04633">
        <ele>65.6</ele>
        <time>2026-03-14T16:35:20Z</time>
      </trkpt>
      <trkpt lat="47.03788" lon="-0.04647">
        <ele>65.4</ele>
        <time>2026-03-14T16:35:21Z</time>
      </trkpt>
      <trkpt lat="47.03791" lon="-0.04675">
        <ele>64.2</ele>
        <time>2026-03-14T16:35:23Z</time>
      </trkpt>
      <trkpt lat="47.03795" lon="-0.04688">
        <ele>63.8</ele>
        <time>2026-03-14T16:35:24Z</time>
      </trkpt>
      <trkpt lat="47.03804" lon="-0.04716">
        <ele>63</ele>
        <time>2026-03-14T16:35:26Z</time>
      </trkpt>
      <trkpt lat="47.03814" lon="-0.04744">
        <ele>61.6</ele>
        <time>2026-03-14T16:35:28Z</time>
      </trkpt>
      <trkpt lat="47.03817" lon="-0.04758">
        <ele>61.2</ele>
        <time>2026-03-14T16:35:29Z</time>
      </trkpt>
      <trkpt lat="47.03819" lon="-0.04773">
        <ele>60.4</ele>
        <time>2026-03-14T16:35:30Z</time>
      </trkpt>
      <trkpt lat="47.03819" lon="-0.04788">
        <ele>59.8</ele>
        <time>2026-03-14T16:35:31Z</time>
      </trkpt>
      <trkpt lat="47.03818" lon="-0.04802">
        <ele>58.8</ele>
        <time>2026-03-14T16:35:32Z</time>
      </trkpt>
      <trkpt lat="47.03814" lon="-0.04817">
        <ele>57.4</ele>
        <time>2026-03-14T16:35:33Z</time>
      </trkpt>
      <trkpt lat="47.0381" lon="-0.04831">
        <ele>57.2</ele>
        <time>2026-03-14T16:35:34Z</time>
      </trkpt>
      <trkpt lat="47.03806" lon="-0.04846">
        <ele>56.2</ele>
        <time>2026-03-14T16:35:35Z</time>
      </trkpt>
      <trkpt lat="47.03793" lon="-0.0489">
        <ele>54.8</ele>
        <time>2026-03-14T16:35:38Z</time>
      </trkpt>
      <trkpt lat="47.03784" lon="-0.04919">
        <ele>53.6</ele>
        <time>2026-03-14T16:35:40Z</time>
      </trkpt>
      <trkpt lat="47.03775" lon="-0.04962">
        <ele>52.6</ele>
        <time>2026-03-14T16:35:43Z</time>
      </trkpt>
      <trkpt lat="47.0377" lon="-0.04989">
        <ele>51.4</ele>
        <time>2026-03-14T16:35:45Z</time>
      </trkpt>
      <trkpt lat="47.03768" lon="-0.05002">
        <ele>51.2</ele>
        <time>2026-03-14T16:35:46Z</time>
      </trkpt>
      <trkpt lat="47.03763" lon="-0.05026">
        <ele>50.6</ele>
        <time>2026-03-14T16:35:48Z</time>
      </trkpt>
      <trkpt lat="47.03757" lon="-0.05049">
        <ele>50</ele>
        <time>2026-03-14T16:35:50Z</time>
      </trkpt>
      <trkpt lat="47.03754" lon="-0.05061">
        <ele>49.8</ele>
        <time>2026-03-14T16:35:51Z</time>
      </trkpt>
      <trkpt lat="47.03749" lon="-0.05086">
        <ele>49</ele>
        <time>2026-03-14T16:35:53Z</time>
      </trkpt>
      <trkpt lat="47.03748" lon="-0.05098">
        <ele>48.2</ele>
        <time>2026-03-14T16:35:54Z</time>
      </trkpt>
      <trkpt lat="47.03748" lon="-0.0511">
        <ele>47.6</ele>
        <time>2026-03-14T16:35:55Z</time>
      </trkpt>
      <trkpt lat="47.03749" lon="-0.05122">
        <ele>47.4</ele>
        <time>2026-03-14T16:35:56Z</time>
      </trkpt>
      <trkpt lat="47.03754" lon="-0.05144">
        <ele>47</ele>
        <time>2026-03-14T16:35:58Z</time>
      </trkpt>
      <trkpt lat="47.03758" lon="-0.05153">
        <ele>46.6</ele>
        <time>2026-03-14T16:35:59Z</time>
      </trkpt>
      <trkpt lat="47.03769" lon="-0.05178">
        <ele>46.2</ele>
        <time>2026-03-14T16:36:02Z</time>
      </trkpt>
      <trkpt lat="47.03779" lon="-0.052">
        <ele>46</ele>
        <time>2026-03-14T16:36:05Z</time>
      </trkpt>
      <trkpt lat="47.03786" lon="-0.0521">
        <ele>46</ele>
        <time>2026-03-14T16:36:07Z</time>
      </trkpt>
      <trkpt lat="47.03793" lon="-0.0522">
        <ele>46.2</ele>
        <time>2026-03-14T16:36:11Z</time>
      </trkpt>
      <trkpt lat="47.03793" lon="-0.0522">
        <ele>46.2</ele>
        <time>2026-03-14T16:36:13Z</time>
      </trkpt>
      <trkpt lat="47.03794" lon="-0.05226">
        <ele>46.4</ele>
        <time>2026-03-14T16:36:21Z</time>
      </trkpt>
      <trkpt lat="47.03794" lon="-0.05229">
        <ele>46.4</ele>
        <time>2026-03-14T16:36:22Z</time>
      </trkpt>
      <trkpt lat="47.03796" lon="-0.05249">
        <ele>46.4</ele>
        <time>2026-03-14T16:36:26Z</time>
      </trkpt>
      <trkpt lat="47.03801" lon="-0.05278">
        <ele>46.4</ele>
        <time>2026-03-14T16:36:31Z</time>
      </trkpt>
      <trkpt lat="47.03803" lon="-0.05293">
        <ele>46.4</ele>
        <time>2026-03-14T16:36:33Z</time>
      </trkpt>
      <trkpt lat="47.03805" lon="-0.05308">
        <ele>46.4</ele>
        <time>2026-03-14T16:36:35Z</time>
      </trkpt>
      <trkpt lat="47.03809" lon="-0.05357">
        <ele>46.6</ele>
        <time>2026-03-14T16:36:41Z</time>
      </trkpt>
      <trkpt lat="47.03814" lon="-0.0543">
        <ele>47</ele>
        <time>2026-03-14T16:36:50Z</time>
      </trkpt>
      <trkpt lat="47.03816" lon="-0.05453">
        <ele>47</ele>
        <time>2026-03-14T16:36:53Z</time>
      </trkpt>
      <trkpt lat="47.03818" lon="-0.05467">
        <ele>47.2</ele>
        <time>2026-03-14T16:36:55Z</time>
      </trkpt>
      <trkpt lat="47.03821" lon="-0.05489">
        <ele>47.6</ele>
        <time>2026-03-14T16:36:58Z</time>
      </trkpt>
      <trkpt lat="47.03823" lon="-0.05502">
        <ele>48</ele>
        <time>2026-03-14T16:37:00Z</time>
      </trkpt>
      <trkpt lat="47.03825" lon="-0.05515">
        <ele>48.2</ele>
        <time>2026-03-14T16:37:02Z</time>
      </trkpt>
      <trkpt lat="47.03828" lon="-0.05527">
        <ele>48.8</ele>
        <time>2026-03-14T16:37:04Z</time>
      </trkpt>
      <trkpt lat="47.03833" lon="-0.05537">
        <ele>49</ele>
        <time>2026-03-14T16:37:06Z</time>
      </trkpt>
      <trkpt lat="47.03837" lon="-0.05541">
        <ele>49</ele>
        <time>2026-03-14T16:37:07Z</time>
      </trkpt>
      <trkpt lat="47.0384" lon="-0.05545">
        <ele>49.4</ele>
        <time>2026-03-14T16:37:08Z</time>
      </trkpt>
      <trkpt lat="47.03847" lon="-0.0555">
        <ele>50</ele>
        <time>2026-03-14T16:37:10Z</time>
      </trkpt>
      <trkpt lat="47.03851" lon="-0.05554">
        <ele>50.4</ele>
        <time>2026-03-14T16:37:11Z</time>
      </trkpt>
      <trkpt lat="47.03857" lon="-0.05561">
        <ele>51</ele>
        <time>2026-03-14T16:37:13Z</time>
      </trkpt>
      <trkpt lat="47.03864" lon="-0.05569">
        <ele>51.6</ele>
        <time>2026-03-14T16:37:15Z</time>
      </trkpt>
      <trkpt lat="47.03872" lon="-0.05583">
        <ele>52.4</ele>
        <time>2026-03-14T16:37:18Z</time>
      </trkpt>
      <trkpt lat="47.03875" lon="-0.05588">
        <ele>52.6</ele>
        <time>2026-03-14T16:37:19Z</time>
      </trkpt>
      <trkpt lat="47.03884" lon="-0.05601">
        <ele>53.4</ele>
        <time>2026-03-14T16:37:22Z</time>
      </trkpt>
      <trkpt lat="47.03893" lon="-0.05615">
        <ele>54.2</ele>
        <time>2026-03-14T16:37:25Z</time>
      </trkpt>
      <trkpt lat="47.03895" lon="-0.0562">
        <ele>54.6</ele>
        <time>2026-03-14T16:37:26Z</time>
      </trkpt>
      <trkpt lat="47.03907" lon="-0.05639">
        <ele>55.4</ele>
        <time>2026-03-14T16:37:30Z</time>
      </trkpt>
      <trkpt lat="47.0391" lon="-0.05643">
        <ele>55.6</ele>
        <time>2026-03-14T16:37:31Z</time>
      </trkpt>
      <trkpt lat="47.03913" lon="-0.05647">
        <ele>55.8</ele>
        <time>2026-03-14T16:37:32Z</time>
      </trkpt>
      <trkpt lat="47.0393" lon="-0.05668">
        <ele>56.8</ele>
        <time>2026-03-14T16:37:37Z</time>
      </trkpt>
      <trkpt lat="47.03936" lon="-0.05676">
        <ele>57</ele>
        <time>2026-03-14T16:37:39Z</time>
      </trkpt>
      <trkpt lat="47.03939" lon="-0.05681">
        <ele>57.2</ele>
        <time>2026-03-14T16:37:40Z</time>
      </trkpt>
      <trkpt lat="47.03961" lon="-0.05714">
        <ele>57.8</ele>
        <time>2026-03-14T16:37:47Z</time>
      </trkpt>
      <trkpt lat="47.03975" lon="-0.05731">
        <ele>58</ele>
        <time>2026-03-14T16:37:51Z</time>
      </trkpt>
      <trkpt lat="47.03998" lon="-0.05764">
        <ele>58.8</ele>
        <time>2026-03-14T16:37:58Z</time>
      </trkpt>
      <trkpt lat="47.04002" lon="-0.05769">
        <ele>59</ele>
        <time>2026-03-14T16:37:59Z</time>
      </trkpt>
      <trkpt lat="47.04027" lon="-0.05804">
        <ele>59.4</ele>
        <time>2026-03-14T16:38:06Z</time>
      </trkpt>
      <trkpt lat="47.04031" lon="-0.05809">
        <ele>59.4</ele>
        <time>2026-03-14T16:38:07Z</time>
      </trkpt>
      <trkpt lat="47.04063" lon="-0.05846">
        <ele>59.4</ele>
        <time>2026-03-14T16:38:15Z</time>
      </trkpt>
      <trkpt lat="47.04094" lon="-0.05879">
        <ele>59.8</ele>
        <time>2026-03-14T16:38:23Z</time>
      </trkpt>
      <trkpt lat="47.04102" lon="-0.05886">
        <ele>60.2</ele>
        <time>2026-03-14T16:38:25Z</time>
      </trkpt>
      <trkpt lat="47.04132" lon="-0.05917">
        <ele>61</ele>
        <time>2026-03-14T16:38:32Z</time>
      </trkpt>
      <trkpt lat="47.04136" lon="-0.05921">
        <ele>61</ele>
        <time>2026-03-14T16:38:33Z</time>
      </trkpt>
      <trkpt lat="47.04167" lon="-0.05954">
        <ele>61.4</ele>
        <time>2026-03-14T16:38:40Z</time>
      </trkpt>
      <trkpt lat="47.0421" lon="-0.06002">
        <ele>61.8</ele>
        <time>2026-03-14T16:38:50Z</time>
      </trkpt>
      <trkpt lat="47.04226" lon="-0.06023">
        <ele>62</ele>
        <time>2026-03-14T16:38:54Z</time>
      </trkpt>
      <trkpt lat="47.04245" lon="-0.06053">
        <ele>62</ele>
        <time>2026-03-14T16:38:59Z</time>
      </trkpt>
      <trkpt lat="47.04269" lon="-0.06077">
        <ele>61.8</ele>
        <time>2026-03-14T16:39:04Z</time>
      </trkpt>
      <trkpt lat="47.04276" lon="-0.06082">
        <ele>61.8</ele>
        <time>2026-03-14T16:39:05Z</time>
      </trkpt>
      <trkpt lat="47.04329" lon="-0.06111">
        <ele>61.2</ele>
        <time>2026-03-14T16:39:14Z</time>
      </trkpt>
      <trkpt lat="47.0436" lon="-0.06111">
        <ele>61</ele>
        <time>2026-03-14T16:39:19Z</time>
      </trkpt>
      <trkpt lat="47.04366" lon="-0.0611">
        <ele>60.8</ele>
        <time>2026-03-14T16:39:20Z</time>
      </trkpt>
      <trkpt lat="47.04387" lon="-0.06106">
        <ele>60.8</ele>
        <time>2026-03-14T16:39:23Z</time>
      </trkpt>
      <trkpt lat="47.04406" lon="-0.06104">
        <ele>60.8</ele>
        <time>2026-03-14T16:39:26Z</time>
      </trkpt>
      <trkpt lat="47.04465" lon="-0.06103">
        <ele>60.8</ele>
        <time>2026-03-14T16:39:35Z</time>
      </trkpt>
      <trkpt lat="47.04471" lon="-0.06103">
        <ele>60.8</ele>
        <time>2026-03-14T16:39:36Z</time>
      </trkpt>
      <trkpt lat="47.04531" lon="-0.06108">
        <ele>60.2</ele>
        <time>2026-03-14T16:39:45Z</time>
      </trkpt>
      <trkpt lat="47.04552" lon="-0.06109">
        <ele>59.8</ele>
        <time>2026-03-14T16:39:48Z</time>
      </trkpt>
      <trkpt lat="47.04606" lon="-0.06108">
        <ele>59.4</ele>
        <time>2026-03-14T16:39:56Z</time>
      </trkpt>
      <trkpt lat="47.04613" lon="-0.06108">
        <ele>59.4</ele>
        <time>2026-03-14T16:39:57Z</time>
      </trkpt>
      <trkpt lat="47.04656" lon="-0.061">
        <ele>59.2</ele>
        <time>2026-03-14T16:40:04Z</time>
      </trkpt>
      <trkpt lat="47.04673" lon="-0.06094">
        <ele>58.6</ele>
        <time>2026-03-14T16:40:08Z</time>
      </trkpt>
      <trkpt lat="47.04682" lon="-0.06088">
        <ele>58</ele>
        <time>2026-03-14T16:40:12Z</time>
      </trkpt>
      <trkpt lat="47.04698" lon="-0.06081">
        <ele>57.8</ele>
        <time>2026-03-14T16:40:16Z</time>
      </trkpt>
      <trkpt lat="47.04712" lon="-0.06073">
        <ele>57.6</ele>
        <time>2026-03-14T16:40:19Z</time>
      </trkpt>
      <trkpt lat="47.04722" lon="-0.06066">
        <ele>57.6</ele>
        <time>2026-03-14T16:40:21Z</time>
      </trkpt>
      <trkpt lat="47.04754" lon="-0.06049">
        <ele>57.8</ele>
        <time>2026-03-14T16:40:27Z</time>
      </trkpt>
      <trkpt lat="47.04792" lon="-0.06041">
        <ele>58.8</ele>
        <time>2026-03-14T16:40:34Z</time>
      </trkpt>
      <trkpt lat="47.04825" lon="-0.06038">
        <ele>59</ele>
        <time>2026-03-14T16:40:39Z</time>
      </trkpt>
      <trkpt lat="47.04867" lon="-0.06032">
        <ele>58.8</ele>
        <time>2026-03-14T16:40:45Z</time>
      </trkpt>
      <trkpt lat="47.04887" lon="-0.06031">
        <ele>58.4</ele>
        <time>2026-03-14T16:40:48Z</time>
      </trkpt>
      <trkpt lat="47.04905" lon="-0.06034">
        <ele>58.2</ele>
        <time>2026-03-14T16:40:51Z</time>
      </trkpt>
      <trkpt lat="47.04958" lon="-0.06049">
        <ele>58.4</ele>
        <time>2026-03-14T16:40:59Z</time>
      </trkpt>
      <trkpt lat="47.05012" lon="-0.06063">
        <ele>58.2</ele>
        <time>2026-03-14T16:41:07Z</time>
      </trkpt>
      <trkpt lat="47.05019" lon="-0.06065">
        <ele>58</ele>
        <time>2026-03-14T16:41:08Z</time>
      </trkpt>
      <trkpt lat="47.05045" lon="-0.06072">
        <ele>57.8</ele>
        <time>2026-03-14T16:41:12Z</time>
      </trkpt>
      <trkpt lat="47.05068" lon="-0.06083">
        <ele>57.4</ele>
        <time>2026-03-14T16:41:16Z</time>
      </trkpt>
      <trkpt lat="47.05075" lon="-0.06093">
        <ele>57.2</ele>
        <time>2026-03-14T16:41:18Z</time>
      </trkpt>
      <trkpt lat="47.05077" lon="-0.06099">
        <ele>56.8</ele>
        <time>2026-03-14T16:41:19Z</time>
      </trkpt>
      <trkpt lat="47.05076" lon="-0.06105">
        <ele>56.6</ele>
        <time>2026-03-14T16:41:20Z</time>
      </trkpt>
      <trkpt lat="47.05073" lon="-0.06118">
        <ele>56.4</ele>
        <time>2026-03-14T16:41:22Z</time>
      </trkpt>
      <trkpt lat="47.05069" lon="-0.0614">
        <ele>55.8</ele>
        <time>2026-03-14T16:41:25Z</time>
      </trkpt>
      <trkpt lat="47.05064" lon="-0.06163">
        <ele>55.6</ele>
        <time>2026-03-14T16:41:28Z</time>
      </trkpt>
      <trkpt lat="47.05062" lon="-0.06171">
        <ele>55.6</ele>
        <time>2026-03-14T16:41:29Z</time>
      </trkpt>
      <trkpt lat="47.05064" lon="-0.06185">
        <ele>55.4</ele>
        <time>2026-03-14T16:41:31Z</time>
      </trkpt>
      <trkpt lat="47.0507" lon="-0.06195">
        <ele>55.4</ele>
        <time>2026-03-14T16:41:33Z</time>
      </trkpt>
      <trkpt lat="47.05075" lon="-0.06198">
        <ele>55.4</ele>
        <time>2026-03-14T16:41:34Z</time>
      </trkpt>
      <trkpt lat="47.05112" lon="-0.06216">
        <ele>55.6</ele>
        <time>2026-03-14T16:41:41Z</time>
      </trkpt>
      <trkpt lat="47.05162" lon="-0.0624">
        <ele>55.4</ele>
        <time>2026-03-14T16:41:49Z</time>
      </trkpt>
      <trkpt lat="47.05216" lon="-0.06265">
        <ele>54.8</ele>
        <time>2026-03-14T16:41:57Z</time>
      </trkpt>
      <trkpt lat="47.05216" lon="-0.06265">
        <ele>54.8</ele>
        <time>2026-03-14T16:41:58Z</time>
      </trkpt>
      <trkpt lat="47.05254" lon="-0.06279">
        <ele>54.4</ele>
        <time>2026-03-14T16:42:02Z</time>
      </trkpt>
      <trkpt lat="47.0527" lon="-0.06286">
        <ele>54</ele>
        <time>2026-03-14T16:42:04Z</time>
      </trkpt>
      <trkpt lat="47.05297" lon="-0.06296">
        <ele>53</ele>
        <time>2026-03-14T16:42:07Z</time>
      </trkpt>
      <trkpt lat="47.05322" lon="-0.06306">
        <ele>51.8</ele>
        <time>2026-03-14T16:42:10Z</time>
      </trkpt>
      <trkpt lat="47.05339" lon="-0.06313">
        <ele>50.8</ele>
        <time>2026-03-14T16:42:12Z</time>
      </trkpt>
      <trkpt lat="47.05348" lon="-0.06316">
        <ele>50.4</ele>
        <time>2026-03-14T16:42:13Z</time>
      </trkpt>
      <trkpt lat="47.05374" lon="-0.06325">
        <ele>49.2</ele>
        <time>2026-03-14T16:42:17Z</time>
      </trkpt>
      <trkpt lat="47.05389" lon="-0.06332">
        <ele>49</ele>
        <time>2026-03-14T16:42:19Z</time>
      </trkpt>
      <trkpt lat="47.05424" lon="-0.06354">
        <ele>48.2</ele>
        <time>2026-03-14T16:42:24Z</time>
      </trkpt>
      <trkpt lat="47.05436" lon="-0.06362">
        <ele>48.2</ele>
        <time>2026-03-14T16:42:25Z</time>
      </trkpt>
      <trkpt lat="47.05459" lon="-0.06377">
        <ele>48.4</ele>
        <time>2026-03-14T16:42:29Z</time>
      </trkpt>
      <trkpt lat="47.05477" lon="-0.06389">
        <ele>49.2</ele>
        <time>2026-03-14T16:42:33Z</time>
      </trkpt>
      <trkpt lat="47.05487" lon="-0.06395">
        <ele>49.6</ele>
        <time>2026-03-14T16:42:35Z</time>
      </trkpt>
      <trkpt lat="47.05504" lon="-0.06404">
        <ele>50.4</ele>
        <time>2026-03-14T16:42:39Z</time>
      </trkpt>
      <trkpt lat="47.05513" lon="-0.06409">
        <ele>51</ele>
        <time>2026-03-14T16:42:42Z</time>
      </trkpt>
      <trkpt lat="47.05531" lon="-0.06416">
        <ele>51.6</ele>
        <time>2026-03-14T16:42:45Z</time>
      </trkpt>
      <trkpt lat="47.05554" lon="-0.06422">
        <ele>52.4</ele>
        <time>2026-03-14T16:42:50Z</time>
      </trkpt>
      <trkpt lat="47.05558" lon="-0.06423">
        <ele>52.8</ele>
        <time>2026-03-14T16:42:51Z</time>
      </trkpt>
      <trkpt lat="47.05562" lon="-0.06425">
        <ele>52.8</ele>
        <time>2026-03-14T16:42:52Z</time>
      </trkpt>
      <trkpt lat="47.05595" lon="-0.06431">
        <ele>54</ele>
        <time>2026-03-14T16:42:59Z</time>
      </trkpt>
      <trkpt lat="47.05609" lon="-0.06435">
        <ele>54.4</ele>
        <time>2026-03-14T16:43:02Z</time>
      </trkpt>
      <trkpt lat="47.05653" lon="-0.06442">
        <ele>55</ele>
        <time>2026-03-14T16:43:11Z</time>
      </trkpt>
      <trkpt lat="47.05658" lon="-0.06443">
        <ele>55</ele>
        <time>2026-03-14T16:43:12Z</time>
      </trkpt>
      <trkpt lat="47.05704" lon="-0.06451">
        <ele>55.8</ele>
        <time>2026-03-14T16:43:21Z</time>
      </trkpt>
      <trkpt lat="47.05715" lon="-0.06453">
        <ele>56</ele>
        <time>2026-03-14T16:43:23Z</time>
      </trkpt>
      <trkpt lat="47.05751" lon="-0.06459">
        <ele>56.6</ele>
        <time>2026-03-14T16:43:30Z</time>
      </trkpt>
      <trkpt lat="47.05773" lon="-0.06463">
        <ele>57</ele>
        <time>2026-03-14T16:43:34Z</time>
      </trkpt>
      <trkpt lat="47.05801" lon="-0.06472">
        <ele>57.4</ele>
        <time>2026-03-14T16:43:39Z</time>
      </trkpt>
      <trkpt lat="47.05854" lon="-0.06495">
        <ele>57.4</ele>
        <time>2026-03-14T16:43:48Z</time>
      </trkpt>
      <trkpt lat="47.05865" lon="-0.065">
        <ele>57.4</ele>
        <time>2026-03-14T16:43:50Z</time>
      </trkpt>
      <trkpt lat="47.05917" lon="-0.06523">
        <ele>56.6</ele>
        <time>2026-03-14T16:43:58Z</time>
      </trkpt>
      <trkpt lat="47.05922" lon="-0.06526">
        <ele>56.6</ele>
        <time>2026-03-14T16:43:59Z</time>
      </trkpt>
      <trkpt lat="47.0596" lon="-0.06547">
        <ele>56</ele>
        <time>2026-03-14T16:44:05Z</time>
      </trkpt>
      <trkpt lat="47.05973" lon="-0.06558">
        <ele>55.8</ele>
        <time>2026-03-14T16:44:07Z</time>
      </trkpt>
      <trkpt lat="47.06015" lon="-0.06596">
        <ele>55</ele>
        <time>2026-03-14T16:44:14Z</time>
      </trkpt>
      <trkpt lat="47.06028" lon="-0.06607">
        <ele>54.8</ele>
        <time>2026-03-14T16:44:16Z</time>
      </trkpt>
      <trkpt lat="47.06067" lon="-0.06632">
        <ele>54</ele>
        <time>2026-03-14T16:44:22Z</time>
      </trkpt>
      <trkpt lat="47.06115" lon="-0.06646">
        <ele>53</ele>
        <time>2026-03-14T16:44:29Z</time>
      </trkpt>
      <trkpt lat="47.06138" lon="-0.06651">
        <ele>52.8</ele>
        <time>2026-03-14T16:44:32Z</time>
      </trkpt>
      <trkpt lat="47.06197" lon="-0.06665">
        <ele>51.8</ele>
        <time>2026-03-14T16:44:40Z</time>
      </trkpt>
      <trkpt lat="47.06238" lon="-0.06675">
        <ele>50.8</ele>
        <time>2026-03-14T16:44:45Z</time>
      </trkpt>
      <trkpt lat="47.06277" lon="-0.06683">
        <ele>49.8</ele>
        <time>2026-03-14T16:44:50Z</time>
      </trkpt>
      <trkpt lat="47.06284" lon="-0.06685">
        <ele>49.6</ele>
        <time>2026-03-14T16:44:51Z</time>
      </trkpt>
      <trkpt lat="47.06343" lon="-0.06705">
        <ele>49</ele>
        <time>2026-03-14T16:44:59Z</time>
      </trkpt>
      <trkpt lat="47.06399" lon="-0.06731">
        <ele>48.8</ele>
        <time>2026-03-14T16:45:07Z</time>
      </trkpt>
      <trkpt lat="47.06405" lon="-0.06733">
        <ele>48.8</ele>
        <time>2026-03-14T16:45:08Z</time>
      </trkpt>
      <trkpt lat="47.06446" lon="-0.06752">
        <ele>49.2</ele>
        <time>2026-03-14T16:45:15Z</time>
      </trkpt>
      <trkpt lat="47.06486" lon="-0.0677">
        <ele>49.6</ele>
        <time>2026-03-14T16:45:23Z</time>
      </trkpt>
      <trkpt lat="47.06521" lon="-0.06787">
        <ele>51</ele>
        <time>2026-03-14T16:45:31Z</time>
      </trkpt>
      <trkpt lat="47.06525" lon="-0.06789">
        <ele>51.2</ele>
        <time>2026-03-14T16:45:32Z</time>
      </trkpt>
      <trkpt lat="47.06548" lon="-0.06799">
        <ele>52</ele>
        <time>2026-03-14T16:45:37Z</time>
      </trkpt>
      <trkpt lat="47.06565" lon="-0.06806">
        <ele>52.6</ele>
        <time>2026-03-14T16:45:41Z</time>
      </trkpt>
      <trkpt lat="47.06588" lon="-0.06814">
        <ele>53</ele>
        <time>2026-03-14T16:45:46Z</time>
      </trkpt>
      <trkpt lat="47.06606" lon="-0.06819">
        <ele>53.4</ele>
        <time>2026-03-14T16:45:50Z</time>
      </trkpt>
      <trkpt lat="47.06624" lon="-0.06823">
        <ele>54.2</ele>
        <time>2026-03-14T16:45:54Z</time>
      </trkpt>
      <trkpt lat="47.06646" lon="-0.06827">
        <ele>54.4</ele>
        <time>2026-03-14T16:45:59Z</time>
      </trkpt>
      <trkpt lat="47.06676" lon="-0.06833">
        <ele>55.2</ele>
        <time>2026-03-14T16:46:06Z</time>
      </trkpt>
      <trkpt lat="47.06693" lon="-0.06836">
        <ele>55.6</ele>
        <time>2026-03-14T16:46:10Z</time>
      </trkpt>
      <trkpt lat="47.06711" lon="-0.0684">
        <ele>56.2</ele>
        <time>2026-03-14T16:46:15Z</time>
      </trkpt>
      <trkpt lat="47.06714" lon="-0.06841">
        <ele>56.4</ele>
        <time>2026-03-14T16:46:16Z</time>
      </trkpt>
      <trkpt lat="47.06734" lon="-0.0685">
        <ele>57.4</ele>
        <time>2026-03-14T16:46:22Z</time>
      </trkpt>
      <trkpt lat="47.06741" lon="-0.0686">
        <ele>58.2</ele>
        <time>2026-03-14T16:46:25Z</time>
      </trkpt>
      <trkpt lat="47.06744" lon="-0.06869">
        <ele>58.6</ele>
        <time>2026-03-14T16:46:27Z</time>
      </trkpt>
      <trkpt lat="47.06746" lon="-0.0689">
        <ele>59.4</ele>
        <time>2026-03-14T16:46:31Z</time>
      </trkpt>
      <trkpt lat="47.06746" lon="-0.06896">
        <ele>59.6</ele>
        <time>2026-03-14T16:46:32Z</time>
      </trkpt>
      <trkpt lat="47.06745" lon="-0.06924">
        <ele>61</ele>
        <time>2026-03-14T16:46:37Z</time>
      </trkpt>
      <trkpt lat="47.06746" lon="-0.0693">
        <ele>61.2</ele>
        <time>2026-03-14T16:46:38Z</time>
      </trkpt>
      <trkpt lat="47.06751" lon="-0.06947">
        <ele>61.4</ele>
        <time>2026-03-14T16:46:41Z</time>
      </trkpt>
      <trkpt lat="47.06754" lon="-0.06951">
        <ele>61.4</ele>
        <time>2026-03-14T16:46:42Z</time>
      </trkpt>
      <trkpt lat="47.06758" lon="-0.06953">
        <ele>61.6</ele>
        <time>2026-03-14T16:46:43Z</time>
      </trkpt>
      <trkpt lat="47.0677" lon="-0.06954">
        <ele>61.8</ele>
        <time>2026-03-14T16:46:46Z</time>
      </trkpt>
      <trkpt lat="47.06777" lon="-0.06955">
        <ele>62</ele>
        <time>2026-03-14T16:46:48Z</time>
      </trkpt>
      <trkpt lat="47.06793" lon="-0.06955">
        <ele>62.4</ele>
        <time>2026-03-14T16:46:52Z</time>
      </trkpt>
      <trkpt lat="47.06805" lon="-0.06952">
        <ele>63</ele>
        <time>2026-03-14T16:46:56Z</time>
      </trkpt>
      <trkpt lat="47.06812" lon="-0.06941">
        <ele>64.4</ele>
        <time>2026-03-14T16:47:01Z</time>
      </trkpt>
      <trkpt lat="47.06815" lon="-0.06937">
        <ele>64.8</ele>
        <time>2026-03-14T16:47:03Z</time>
      </trkpt>
      <trkpt lat="47.06819" lon="-0.06933">
        <ele>65.6</ele>
        <time>2026-03-14T16:47:05Z</time>
      </trkpt>
      <trkpt lat="47.06825" lon="-0.06931">
        <ele>66.2</ele>
        <time>2026-03-14T16:47:08Z</time>
      </trkpt>
      <trkpt lat="47.06828" lon="-0.06931">
        <ele>66.6</ele>
        <time>2026-03-14T16:47:09Z</time>
      </trkpt>
      <trkpt lat="47.0684" lon="-0.06931">
        <ele>67.8</ele>
        <time>2026-03-14T16:47:14Z</time>
      </trkpt>
      <trkpt lat="47.06844" lon="-0.06933">
        <ele>68.4</ele>
        <time>2026-03-14T16:47:16Z</time>
      </trkpt>
      <trkpt lat="47.06849" lon="-0.06937">
        <ele>69</ele>
        <time>2026-03-14T16:47:18Z</time>
      </trkpt>
      <trkpt lat="47.06856" lon="-0.06947">
        <ele>70</ele>
        <time>2026-03-14T16:47:22Z</time>
      </trkpt>
      <trkpt lat="47.06858" lon="-0.06949">
        <ele>70</ele>
        <time>2026-03-14T16:47:23Z</time>
      </trkpt>
      <trkpt lat="47.06863" lon="-0.06959">
        <ele>71.2</ele>
        <time>2026-03-14T16:47:27Z</time>
      </trkpt>
      <trkpt lat="47.06867" lon="-0.06967">
        <ele>71.6</ele>
        <time>2026-03-14T16:47:30Z</time>
      </trkpt>
      <trkpt lat="47.06869" lon="-0.06972">
        <ele>72.2</ele>
        <time>2026-03-14T16:47:32Z</time>
      </trkpt>
      <trkpt lat="47.06878" lon="-0.06984">
        <ele>73.4</ele>
        <time>2026-03-14T16:47:37Z</time>
      </trkpt>
      <trkpt lat="47.06895" lon="-0.06995">
        <ele>74.4</ele>
        <time>2026-03-14T16:47:44Z</time>
      </trkpt>
      <trkpt lat="47.06901" lon="-0.06997">
        <ele>74.8</ele>
        <time>2026-03-14T16:47:46Z</time>
      </trkpt>
      <trkpt lat="47.06914" lon="-0.07001">
        <ele>75.4</ele>
        <time>2026-03-14T16:47:50Z</time>
      </trkpt>
      <trkpt lat="47.06924" lon="-0.07004">
        <ele>75.8</ele>
        <time>2026-03-14T16:47:53Z</time>
      </trkpt>
      <trkpt lat="47.06941" lon="-0.07011">
        <ele>76.6</ele>
        <time>2026-03-14T16:47:58Z</time>
      </trkpt>
      <trkpt lat="47.06962" lon="-0.07019">
        <ele>77.2</ele>
        <time>2026-03-14T16:48:04Z</time>
      </trkpt>
      <trkpt lat="47.06982" lon="-0.07028">
        <ele>77.6</ele>
        <time>2026-03-14T16:48:09Z</time>
      </trkpt>
      <trkpt lat="47.06999" lon="-0.07031">
        <ele>78</ele>
        <time>2026-03-14T16:48:13Z</time>
      </trkpt>
      <trkpt lat="47.07013" lon="-0.07032">
        <ele>78.2</ele>
        <time>2026-03-14T16:48:16Z</time>
      </trkpt>
      <trkpt lat="47.07031" lon="-0.07026">
        <ele>78.4</ele>
        <time>2026-03-14T16:48:20Z</time>
      </trkpt>
      <trkpt lat="47.07067" lon="-0.07013">
        <ele>78.6</ele>
        <time>2026-03-14T16:48:27Z</time>
      </trkpt>
      <trkpt lat="47.07093" lon="-0.07013">
        <ele>78.2</ele>
        <time>2026-03-14T16:48:31Z</time>
      </trkpt>
      <trkpt lat="47.07099" lon="-0.07016">
        <ele>78.2</ele>
        <time>2026-03-14T16:48:32Z</time>
      </trkpt>
      <trkpt lat="47.07106" lon="-0.07019">
        <ele>78</ele>
        <time>2026-03-14T16:48:33Z</time>
      </trkpt>
      <trkpt lat="47.07133" lon="-0.07037">
        <ele>77.2</ele>
        <time>2026-03-14T16:48:37Z</time>
      </trkpt>
      <trkpt lat="47.07159" lon="-0.07058">
        <ele>76.4</ele>
        <time>2026-03-14T16:48:41Z</time>
      </trkpt>
      <trkpt lat="47.07179" lon="-0.07072">
        <ele>76.2</ele>
        <time>2026-03-14T16:48:44Z</time>
      </trkpt>
      <trkpt lat="47.07193" lon="-0.0708">
        <ele>75.8</ele>
        <time>2026-03-14T16:48:46Z</time>
      </trkpt>
      <trkpt lat="47.07207" lon="-0.07085">
        <ele>75.4</ele>
        <time>2026-03-14T16:48:48Z</time>
      </trkpt>
      <trkpt lat="47.07215" lon="-0.07087">
        <ele>75.2</ele>
        <time>2026-03-14T16:48:49Z</time>
      </trkpt>
      <trkpt lat="47.07244" lon="-0.07096">
        <ele>74.2</ele>
        <time>2026-03-14T16:48:53Z</time>
      </trkpt>
      <trkpt lat="47.07281" lon="-0.07112">
        <ele>73.6</ele>
        <time>2026-03-14T16:48:58Z</time>
      </trkpt>
      <trkpt lat="47.07296" lon="-0.0712">
        <ele>73.2</ele>
        <time>2026-03-14T16:49:00Z</time>
      </trkpt>
      <trkpt lat="47.07335" lon="-0.07137">
        <ele>72</ele>
        <time>2026-03-14T16:49:05Z</time>
      </trkpt>
      <trkpt lat="47.0736" lon="-0.07138">
        <ele>70.8</ele>
        <time>2026-03-14T16:49:08Z</time>
      </trkpt>
      <trkpt lat="47.07375" lon="-0.07137">
        <ele>70.4</ele>
        <time>2026-03-14T16:49:10Z</time>
      </trkpt>
      <trkpt lat="47.07415" lon="-0.07142">
        <ele>69.6</ele>
        <time>2026-03-14T16:49:15Z</time>
      </trkpt>
      <trkpt lat="47.0746" lon="-0.07157">
        <ele>68.4</ele>
        <time>2026-03-14T16:49:20Z</time>
      </trkpt>
      <trkpt lat="47.07496" lon="-0.07172">
        <ele>66.8</ele>
        <time>2026-03-14T16:49:24Z</time>
      </trkpt>
      <trkpt lat="47.07526" lon="-0.07184">
        <ele>65.6</ele>
        <time>2026-03-14T16:49:27Z</time>
      </trkpt>
      <trkpt lat="47.07544" lon="-0.0719">
        <ele>64.6</ele>
        <time>2026-03-14T16:49:29Z</time>
      </trkpt>
      <trkpt lat="47.07553" lon="-0.07192">
        <ele>64</ele>
        <time>2026-03-14T16:49:30Z</time>
      </trkpt>
      <trkpt lat="47.07571" lon="-0.07194">
        <ele>63.6</ele>
        <time>2026-03-14T16:49:32Z</time>
      </trkpt>
      <trkpt lat="47.07615" lon="-0.07199">
        <ele>63</ele>
        <time>2026-03-14T16:49:37Z</time>
      </trkpt>
      <trkpt lat="47.07641" lon="-0.07214">
        <ele>63</ele>
        <time>2026-03-14T16:49:41Z</time>
      </trkpt>
      <trkpt lat="47.07646" lon="-0.07217">
        <ele>63.2</ele>
        <time>2026-03-14T16:49:42Z</time>
      </trkpt>
      <trkpt lat="47.07666" lon="-0.07231">
        <ele>64.2</ele>
        <time>2026-03-14T16:49:46Z</time>
      </trkpt>
      <trkpt lat="47.07671" lon="-0.07234">
        <ele>64.6</ele>
        <time>2026-03-14T16:49:47Z</time>
      </trkpt>
      <trkpt lat="47.07688" lon="-0.0725">
        <ele>65.8</ele>
        <time>2026-03-14T16:49:51Z</time>
      </trkpt>
      <trkpt lat="47.07692" lon="-0.07255">
        <ele>66.2</ele>
        <time>2026-03-14T16:49:52Z</time>
      </trkpt>
      <trkpt lat="47.07706" lon="-0.07268">
        <ele>67</ele>
        <time>2026-03-14T16:49:55Z</time>
      </trkpt>
      <trkpt lat="47.07711" lon="-0.07272">
        <ele>67.2</ele>
        <time>2026-03-14T16:49:56Z</time>
      </trkpt>
      <trkpt lat="47.07722" lon="-0.07279">
        <ele>67.8</ele>
        <time>2026-03-14T16:49:58Z</time>
      </trkpt>
      <trkpt lat="47.07727" lon="-0.07282">
        <ele>68</ele>
        <time>2026-03-14T16:49:59Z</time>
      </trkpt>
      <trkpt lat="47.07755" lon="-0.07294">
        <ele>68.4</ele>
        <time>2026-03-14T16:50:04Z</time>
      </trkpt>
      <trkpt lat="47.07801" lon="-0.073">
        <ele>69</ele>
        <time>2026-03-14T16:50:12Z</time>
      </trkpt>
      <trkpt lat="47.07833" lon="-0.07297">
        <ele>68.8</ele>
        <time>2026-03-14T16:50:17Z</time>
      </trkpt>
      <trkpt lat="47.0784" lon="-0.07297">
        <ele>68.8</ele>
        <time>2026-03-14T16:50:18Z</time>
      </trkpt>
      <trkpt lat="47.0788" lon="-0.07304">
        <ele>67.8</ele>
        <time>2026-03-14T16:50:24Z</time>
      </trkpt>
      <trkpt lat="47.07914" lon="-0.07304">
        <ele>67</ele>
        <time>2026-03-14T16:50:29Z</time>
      </trkpt>
      <trkpt lat="47.07921" lon="-0.07304">
        <ele>67</ele>
        <time>2026-03-14T16:50:30Z</time>
      </trkpt>
      <trkpt lat="47.07951" lon="-0.07307">
        <ele>65.8</ele>
        <time>2026-03-14T16:50:34Z</time>
      </trkpt>
      <trkpt lat="47.07959" lon="-0.07309">
        <ele>65.6</ele>
        <time>2026-03-14T16:50:35Z</time>
      </trkpt>
      <trkpt lat="47.07973" lon="-0.07311">
        <ele>64.6</ele>
        <time>2026-03-14T16:50:37Z</time>
      </trkpt>
      <trkpt lat="47.07986" lon="-0.07307">
        <ele>63.6</ele>
        <time>2026-03-14T16:50:39Z</time>
      </trkpt>
      <trkpt lat="47.07993" lon="-0.07291">
        <ele>62.4</ele>
        <time>2026-03-14T16:50:41Z</time>
      </trkpt>
      <trkpt lat="47.07997" lon="-0.07272">
        <ele>61.2</ele>
        <time>2026-03-14T16:50:43Z</time>
      </trkpt>
      <trkpt lat="47.08" lon="-0.07254">
        <ele>60.4</ele>
        <time>2026-03-14T16:50:45Z</time>
      </trkpt>
      <trkpt lat="47.08003" lon="-0.07245">
        <ele>60</ele>
        <time>2026-03-14T16:50:46Z</time>
      </trkpt>
      <trkpt lat="47.08011" lon="-0.07229">
        <ele>59.4</ele>
        <time>2026-03-14T16:50:48Z</time>
      </trkpt>
      <trkpt lat="47.08014" lon="-0.07223">
        <ele>59</ele>
        <time>2026-03-14T16:50:49Z</time>
      </trkpt>
      <trkpt lat="47.08026" lon="-0.07205">
        <ele>58</ele>
        <time>2026-03-14T16:50:52Z</time>
      </trkpt>
      <trkpt lat="47.0803" lon="-0.072">
        <ele>57.8</ele>
        <time>2026-03-14T16:50:53Z</time>
      </trkpt>
      <trkpt lat="47.08034" lon="-0.07198">
        <ele>56.6</ele>
        <time>2026-03-14T16:50:54Z</time>
      </trkpt>
      <trkpt lat="47.08045" lon="-0.07199">
        <ele>55.2</ele>
        <time>2026-03-14T16:50:56Z</time>
      </trkpt>
      <trkpt lat="47.08062" lon="-0.07215">
        <ele>53.4</ele>
        <time>2026-03-14T16:50:59Z</time>
      </trkpt>
      <trkpt lat="47.08071" lon="-0.07234">
        <ele>52.4</ele>
        <time>2026-03-14T16:51:01Z</time>
      </trkpt>
      <trkpt lat="47.08073" lon="-0.07245">
        <ele>52.2</ele>
        <time>2026-03-14T16:51:02Z</time>
      </trkpt>
      <trkpt lat="47.08076" lon="-0.07267">
        <ele>51.2</ele>
        <time>2026-03-14T16:51:04Z</time>
      </trkpt>
      <trkpt lat="47.08079" lon="-0.07301">
        <ele>50.2</ele>
        <time>2026-03-14T16:51:07Z</time>
      </trkpt>
      <trkpt lat="47.08081" lon="-0.07336">
        <ele>49</ele>
        <time>2026-03-14T16:51:10Z</time>
      </trkpt>
      <trkpt lat="47.08085" lon="-0.07357">
        <ele>48</ele>
        <time>2026-03-14T16:51:12Z</time>
      </trkpt>
      <trkpt lat="47.08093" lon="-0.07376">
        <ele>47</ele>
        <time>2026-03-14T16:51:14Z</time>
      </trkpt>
      <trkpt lat="47.08098" lon="-0.07384">
        <ele>46.6</ele>
        <time>2026-03-14T16:51:15Z</time>
      </trkpt>
      <trkpt lat="47.08104" lon="-0.07391">
        <ele>46</ele>
        <time>2026-03-14T16:51:16Z</time>
      </trkpt>
      <trkpt lat="47.08119" lon="-0.07402">
        <ele>45</ele>
        <time>2026-03-14T16:51:18Z</time>
      </trkpt>
      <trkpt lat="47.08125" lon="-0.07407">
        <ele>44.8</ele>
        <time>2026-03-14T16:51:19Z</time>
      </trkpt>
      <trkpt lat="47.08134" lon="-0.0741">
        <ele>43.2</ele>
        <time>2026-03-14T16:51:21Z</time>
      </trkpt>
      <trkpt lat="47.08137" lon="-0.07412">
        <ele>43</ele>
        <time>2026-03-14T16:51:22Z</time>
      </trkpt>
      <trkpt lat="47.08141" lon="-0.07421">
        <ele>42</ele>
        <time>2026-03-14T16:51:24Z</time>
      </trkpt>
      <trkpt lat="47.08141" lon="-0.07427">
        <ele>41.4</ele>
        <time>2026-03-14T16:51:25Z</time>
      </trkpt>
      <trkpt lat="47.08141" lon="-0.07433">
        <ele>41</ele>
        <time>2026-03-14T16:51:26Z</time>
      </trkpt>
      <trkpt lat="47.08141" lon="-0.0744">
        <ele>40.8</ele>
        <time>2026-03-14T16:51:27Z</time>
      </trkpt>
      <trkpt lat="47.08141" lon="-0.07446">
        <ele>40.8</ele>
        <time>2026-03-14T16:51:28Z</time>
      </trkpt>
      <trkpt lat="47.08141" lon="-0.07456">
        <ele>40.6</ele>
        <time>2026-03-14T16:51:30Z</time>
      </trkpt>
      <trkpt lat="47.0814" lon="-0.07506">
        <ele>41</ele>
        <time>2026-03-14T16:51:37Z</time>
      </trkpt>
      <trkpt lat="47.0814" lon="-0.07553">
        <ele>41</ele>
        <time>2026-03-14T16:51:43Z</time>
      </trkpt>
      <trkpt lat="47.08146" lon="-0.07619">
        <ele>40.2</ele>
        <time>2026-03-14T16:51:50Z</time>
      </trkpt>
      <trkpt lat="47.08149" lon="-0.07649">
        <ele>39.8</ele>
        <time>2026-03-14T16:51:53Z</time>
      </trkpt>
      <trkpt lat="47.08151" lon="-0.07686">
        <ele>39.4</ele>
        <time>2026-03-14T16:51:57Z</time>
      </trkpt>
      <trkpt lat="47.08157" lon="-0.07699">
        <ele>39</ele>
        <time>2026-03-14T16:51:59Z</time>
      </trkpt>
      <trkpt lat="47.08161" lon="-0.07705">
        <ele>38.8</ele>
        <time>2026-03-14T16:52:00Z</time>
      </trkpt>
      <trkpt lat="47.08166" lon="-0.07708">
        <ele>38.8</ele>
        <time>2026-03-14T16:52:01Z</time>
      </trkpt>
      <trkpt lat="47.08179" lon="-0.07712">
        <ele>38.4</ele>
        <time>2026-03-14T16:52:03Z</time>
      </trkpt>
      <trkpt lat="47.08186" lon="-0.07712">
        <ele>38.2</ele>
        <time>2026-03-14T16:52:04Z</time>
      </trkpt>
      <trkpt lat="47.08206" lon="-0.07711">
        <ele>37.6</ele>
        <time>2026-03-14T16:52:07Z</time>
      </trkpt>
      <trkpt lat="47.08234" lon="-0.07708">
        <ele>37.2</ele>
        <time>2026-03-14T16:52:11Z</time>
      </trkpt>
      <trkpt lat="47.08248" lon="-0.07709">
        <ele>36.6</ele>
        <time>2026-03-14T16:52:13Z</time>
      </trkpt>
      <trkpt lat="47.08254" lon="-0.07712">
        <ele>36.6</ele>
        <time>2026-03-14T16:52:14Z</time>
      </trkpt>
      <trkpt lat="47.0826" lon="-0.07716">
        <ele>36.4</ele>
        <time>2026-03-14T16:52:15Z</time>
      </trkpt>
      <trkpt lat="47.08272" lon="-0.0773">
        <ele>36</ele>
        <time>2026-03-14T16:52:17Z</time>
      </trkpt>
      <trkpt lat="47.08282" lon="-0.07747">
        <ele>35.6</ele>
        <time>2026-03-14T16:52:19Z</time>
      </trkpt>
      <trkpt lat="47.08287" lon="-0.07757">
        <ele>35.4</ele>
        <time>2026-03-14T16:52:20Z</time>
      </trkpt>
      <trkpt lat="47.08321" lon="-0.07823">
        <ele>34.4</ele>
        <time>2026-03-14T16:52:27Z</time>
      </trkpt>
      <trkpt lat="47.08327" lon="-0.07832">
        <ele>34.2</ele>
        <time>2026-03-14T16:52:28Z</time>
      </trkpt>
      <trkpt lat="47.08363" lon="-0.07883">
        <ele>33</ele>
        <time>2026-03-14T16:52:34Z</time>
      </trkpt>
      <trkpt lat="47.08397" lon="-0.07922">
        <ele>31.6</ele>
        <time>2026-03-14T16:52:39Z</time>
      </trkpt>
      <trkpt lat="47.08417" lon="-0.07947">
        <ele>30.6</ele>
        <time>2026-03-14T16:52:42Z</time>
      </trkpt>
      <trkpt lat="47.08437" lon="-0.07972">
        <ele>29.4</ele>
        <time>2026-03-14T16:52:45Z</time>
      </trkpt>
      <trkpt lat="47.08459" lon="-0.07994">
        <ele>28.6</ele>
        <time>2026-03-14T16:52:48Z</time>
      </trkpt>
      <trkpt lat="47.08467" lon="-0.08001">
        <ele>28.2</ele>
        <time>2026-03-14T16:52:49Z</time>
      </trkpt>
      <trkpt lat="47.08507" lon="-0.0803">
        <ele>27</ele>
        <time>2026-03-14T16:52:54Z</time>
      </trkpt>
      <trkpt lat="47.08515" lon="-0.08036">
        <ele>26.8</ele>
        <time>2026-03-14T16:52:55Z</time>
      </trkpt>
      <trkpt lat="47.08547" lon="-0.08057">
        <ele>25.6</ele>
        <time>2026-03-14T16:52:59Z</time>
      </trkpt>
      <trkpt lat="47.08576" lon="-0.08083">
        <ele>25</ele>
        <time>2026-03-14T16:53:03Z</time>
      </trkpt>
      <trkpt lat="47.0859" lon="-0.08098">
        <ele>24.6</ele>
        <time>2026-03-14T16:53:05Z</time>
      </trkpt>
      <trkpt lat="47.08641" lon="-0.08147">
        <ele>24.2</ele>
        <time>2026-03-14T16:53:12Z</time>
      </trkpt>
      <trkpt lat="47.08663" lon="-0.08168">
        <ele>24</ele>
        <time>2026-03-14T16:53:15Z</time>
      </trkpt>
      <trkpt lat="47.08691" lon="-0.08195">
        <ele>23.4</ele>
        <time>2026-03-14T16:53:19Z</time>
      </trkpt>
      <trkpt lat="47.08725" lon="-0.08228">
        <ele>22.6</ele>
        <time>2026-03-14T16:53:24Z</time>
      </trkpt>
      <trkpt lat="47.08746" lon="-0.08245">
        <ele>22.2</ele>
        <time>2026-03-14T16:53:27Z</time>
      </trkpt>
      <trkpt lat="47.08775" lon="-0.08264">
        <ele>21.8</ele>
        <time>2026-03-14T16:53:31Z</time>
      </trkpt>
      <trkpt lat="47.08812" lon="-0.08285">
        <ele>21.2</ele>
        <time>2026-03-14T16:53:36Z</time>
      </trkpt>
      <trkpt lat="47.0884" lon="-0.08307">
        <ele>21</ele>
        <time>2026-03-14T16:53:40Z</time>
      </trkpt>
      <trkpt lat="47.08883" lon="-0.08355">
        <ele>20.6</ele>
        <time>2026-03-14T16:53:47Z</time>
      </trkpt>
      <trkpt lat="47.08926" lon="-0.08413">
        <ele>20.2</ele>
        <time>2026-03-14T16:53:55Z</time>
      </trkpt>
      <trkpt lat="47.08965" lon="-0.08474">
        <ele>20.2</ele>
        <time>2026-03-14T16:54:03Z</time>
      </trkpt>
      <trkpt lat="47.08969" lon="-0.08481">
        <ele>20.2</ele>
        <time>2026-03-14T16:54:04Z</time>
      </trkpt>
      <trkpt lat="47.08996" lon="-0.08535">
        <ele>20.4</ele>
        <time>2026-03-14T16:54:11Z</time>
      </trkpt>
      <trkpt lat="47.09025" lon="-0.08597">
        <ele>20.8</ele>
        <time>2026-03-14T16:54:19Z</time>
      </trkpt>
      <trkpt lat="47.09058" lon="-0.08648">
        <ele>20.8</ele>
        <time>2026-03-14T16:54:26Z</time>
      </trkpt>
      <trkpt lat="47.09102" lon="-0.08698">
        <ele>20.2</ele>
        <time>2026-03-14T16:54:34Z</time>
      </trkpt>
      <trkpt lat="47.09107" lon="-0.08703">
        <ele>20.2</ele>
        <time>2026-03-14T16:54:35Z</time>
      </trkpt>
      <trkpt lat="47.09152" lon="-0.08759">
        <ele>20.4</ele>
        <time>2026-03-14T16:54:44Z</time>
      </trkpt>
      <trkpt lat="47.0919" lon="-0.08818">
        <ele>21</ele>
        <time>2026-03-14T16:54:53Z</time>
      </trkpt>
      <trkpt lat="47.09194" lon="-0.08824">
        <ele>21</ele>
        <time>2026-03-14T16:54:54Z</time>
      </trkpt>
      <trkpt lat="47.09206" lon="-0.08843">
        <ele>21.4</ele>
        <time>2026-03-14T16:54:57Z</time>
      </trkpt>
      <trkpt lat="47.09227" lon="-0.08875">
        <ele>21.8</ele>
        <time>2026-03-14T16:55:02Z</time>
      </trkpt>
      <trkpt lat="47.09232" lon="-0.08879">
        <ele>22</ele>
        <time>2026-03-14T16:55:03Z</time>
      </trkpt>
      <trkpt lat="47.09271" lon="-0.089">
        <ele>22.4</ele>
        <time>2026-03-14T16:55:10Z</time>
      </trkpt>
      <trkpt lat="47.09277" lon="-0.08902">
        <ele>22.4</ele>
        <time>2026-03-14T16:55:11Z</time>
      </trkpt>
      <trkpt lat="47.09315" lon="-0.08905">
        <ele>22.6</ele>
        <time>2026-03-14T16:55:17Z</time>
      </trkpt>
      <trkpt lat="47.09367" lon="-0.08906">
        <ele>22.4</ele>
        <time>2026-03-14T16:55:25Z</time>
      </trkpt>
      <trkpt lat="47.09409" lon="-0.08896">
        <ele>22.2</ele>
        <time>2026-03-14T16:55:32Z</time>
      </trkpt>
      <trkpt lat="47.09414" lon="-0.08895">
        <ele>22.2</ele>
        <time>2026-03-14T16:55:33Z</time>
      </trkpt>
      <trkpt lat="47.09451" lon="-0.08886">
        <ele>21.8</ele>
        <time>2026-03-14T16:55:39Z</time>
      </trkpt>
      <trkpt lat="47.09496" lon="-0.08877">
        <ele>21.6</ele>
        <time>2026-03-14T16:55:46Z</time>
      </trkpt>
      <trkpt lat="47.09529" lon="-0.08874">
        <ele>21.4</ele>
        <time>2026-03-14T16:55:51Z</time>
      </trkpt>
      <trkpt lat="47.09549" lon="-0.08872">
        <ele>21.2</ele>
        <time>2026-03-14T16:55:54Z</time>
      </trkpt>
      <trkpt lat="47.09582" lon="-0.08863">
        <ele>21.2</ele>
        <time>2026-03-14T16:55:59Z</time>
      </trkpt>
      <trkpt lat="47.09588" lon="-0.08859">
        <ele>21.2</ele>
        <time>2026-03-14T16:56:00Z</time>
      </trkpt>
      <trkpt lat="47.09619" lon="-0.08828">
        <ele>21</ele>
        <time>2026-03-14T16:56:06Z</time>
      </trkpt>
      <trkpt lat="47.09649" lon="-0.08795">
        <ele>20.6</ele>
        <time>2026-03-14T16:56:13Z</time>
      </trkpt>
      <trkpt lat="47.09657" lon="-0.08786">
        <ele>20.2</ele>
        <time>2026-03-14T16:56:16Z</time>
      </trkpt>
      <trkpt lat="47.09657" lon="-0.08786">
        <ele>20</ele>
        <time>2026-03-14T16:56:17Z</time>
      </trkpt>
      <trkpt lat="47.09657" lon="-0.08786">
        <ele>19.6</ele>
        <time>2026-03-14T16:56:19Z</time>
      </trkpt>
      <trkpt lat="47.09661" lon="-0.08785">
        <ele>19.4</ele>
        <time>2026-03-14T16:56:22Z</time>
      </trkpt>
      <trkpt lat="47.09665" lon="-0.08789">
        <ele>19.4</ele>
        <time>2026-03-14T16:56:24Z</time>
      </trkpt>
      <trkpt lat="47.09667" lon="-0.08794">
        <ele>19.4</ele>
        <time>2026-03-14T16:56:25Z</time>
      </trkpt>
      <trkpt lat="47.09679" lon="-0.08825">
        <ele>19.2</ele>
        <time>2026-03-14T16:56:30Z</time>
      </trkpt>
      <trkpt lat="47.09687" lon="-0.08846">
        <ele>19</ele>
        <time>2026-03-14T16:56:33Z</time>
      </trkpt>
      <trkpt lat="47.09698" lon="-0.08875">
        <ele>19</ele>
        <time>2026-03-14T16:56:37Z</time>
      </trkpt>
      <trkpt lat="47.09728" lon="-0.08931">
        <ele>18</ele>
        <time>2026-03-14T16:56:45Z</time>
      </trkpt>
      <trkpt lat="47.09734" lon="-0.08943">
        <ele>17.8</ele>
        <time>2026-03-14T16:56:47Z</time>
      </trkpt>
      <trkpt lat="47.09744" lon="-0.08959">
        <ele>17.6</ele>
        <time>2026-03-14T16:56:51Z</time>
      </trkpt>
      <trkpt lat="47.09746" lon="-0.08961">
        <ele>17.2</ele>
        <time>2026-03-14T16:56:55Z</time>
      </trkpt>
      <trkpt lat="47.09753" lon="-0.08974">
        <ele>16.6</ele>
        <time>2026-03-14T17:00:57Z</time>
      </trkpt>
      <trkpt lat="47.09757" lon="-0.0898">
        <ele>16.8</ele>
        <time>2026-03-14T17:00:59Z</time>
      </trkpt>
      <trkpt lat="47.09773" lon="-0.09009">
        <ele>16.6</ele>
        <time>2026-03-14T17:01:06Z</time>
      </trkpt>
      <trkpt lat="47.09786" lon="-0.09032">
        <ele>16.8</ele>
        <time>2026-03-14T17:01:11Z</time>
      </trkpt>
      <trkpt lat="47.09807" lon="-0.09071">
        <ele>16.8</ele>
        <time>2026-03-14T17:01:19Z</time>
      </trkpt>
      <trkpt lat="47.0983" lon="-0.09112">
        <ele>17.6</ele>
        <time>2026-03-14T17:01:27Z</time>
      </trkpt>
      <trkpt lat="47.09833" lon="-0.09117">
        <ele>17.8</ele>
        <time>2026-03-14T17:01:28Z</time>
      </trkpt>
      <trkpt lat="47.09843" lon="-0.09139">
        <ele>18</ele>
        <time>2026-03-14T17:01:32Z</time>
      </trkpt>
      <trkpt lat="47.0985" lon="-0.0915">
        <ele>18</ele>
        <time>2026-03-14T17:01:34Z</time>
      </trkpt>
      <trkpt lat="47.09882" lon="-0.09214">
        <ele>18.4</ele>
        <time>2026-03-14T17:01:45Z</time>
      </trkpt>
      <trkpt lat="47.0991" lon="-0.09272">
        <ele>18.6</ele>
        <time>2026-03-14T17:01:55Z</time>
      </trkpt>
      <trkpt lat="47.09931" lon="-0.09314">
        <ele>18.8</ele>
        <time>2026-03-14T17:02:02Z</time>
      </trkpt>
      <trkpt lat="47.09947" lon="-0.09346">
        <ele>19.2</ele>
        <time>2026-03-14T17:02:07Z</time>
      </trkpt>
      <trkpt lat="47.0998" lon="-0.09412">
        <ele>19.6</ele>
        <time>2026-03-14T17:02:17Z</time>
      </trkpt>
      <trkpt lat="47.09983" lon="-0.09418">
        <ele>19.6</ele>
        <time>2026-03-14T17:02:18Z</time>
      </trkpt>
      <trkpt lat="47.10018" lon="-0.09489">
        <ele>19.6</ele>
        <time>2026-03-14T17:02:28Z</time>
      </trkpt>
      <trkpt lat="47.10021" lon="-0.09496">
        <ele>19.6</ele>
        <time>2026-03-14T17:02:29Z</time>
      </trkpt>
      <trkpt lat="47.10053" lon="-0.09561">
        <ele>19.8</ele>
        <time>2026-03-14T17:02:38Z</time>
      </trkpt>
      <trkpt lat="47.10064" lon="-0.09584">
        <ele>19.8</ele>
        <time>2026-03-14T17:02:41Z</time>
      </trkpt>
      <trkpt lat="47.10098" lon="-0.09651">
        <ele>19.8</ele>
        <time>2026-03-14T17:02:50Z</time>
      </trkpt>
      <trkpt lat="47.10113" lon="-0.09681">
        <ele>19.8</ele>
        <time>2026-03-14T17:02:54Z</time>
      </trkpt>
      <trkpt lat="47.10146" lon="-0.09748">
        <ele>19.6</ele>
        <time>2026-03-14T17:03:03Z</time>
      </trkpt>
      <trkpt lat="47.10157" lon="-0.09771">
        <ele>19.4</ele>
        <time>2026-03-14T17:03:06Z</time>
      </trkpt>
      <trkpt lat="47.10191" lon="-0.09837">
        <ele>19.4</ele>
        <time>2026-03-14T17:03:15Z</time>
      </trkpt>
      <trkpt lat="47.10195" lon="-0.09845">
        <ele>19.4</ele>
        <time>2026-03-14T17:03:16Z</time>
      </trkpt>
      <trkpt lat="47.1022" lon="-0.09897">
        <ele>19.4</ele>
        <time>2026-03-14T17:03:23Z</time>
      </trkpt>
      <trkpt lat="47.10227" lon="-0.09912">
        <ele>19.4</ele>
        <time>2026-03-14T17:03:25Z</time>
      </trkpt>
      <trkpt lat="47.10259" lon="-0.09978">
        <ele>19.4</ele>
        <time>2026-03-14T17:03:34Z</time>
      </trkpt>
      <trkpt lat="47.10267" lon="-0.09994">
        <ele>19.6</ele>
        <time>2026-03-14T17:03:36Z</time>
      </trkpt>
      <trkpt lat="47.103" lon="-0.10061">
        <ele>19.8</ele>
        <time>2026-03-14T17:03:45Z</time>
      </trkpt>
      <trkpt lat="47.10323" lon="-0.10106">
        <ele>19.8</ele>
        <time>2026-03-14T17:03:51Z</time>
      </trkpt>
      <trkpt lat="47.10356" lon="-0.10173">
        <ele>19.8</ele>
        <time>2026-03-14T17:04:00Z</time>
      </trkpt>
      <trkpt lat="47.10371" lon="-0.10203">
        <ele>20</ele>
        <time>2026-03-14T17:04:04Z</time>
      </trkpt>
      <trkpt lat="47.10404" lon="-0.10272">
        <ele>20</ele>
        <time>2026-03-14T17:04:13Z</time>
      </trkpt>
      <trkpt lat="47.1043" lon="-0.10324">
        <ele>20</ele>
        <time>2026-03-14T17:04:20Z</time>
      </trkpt>
      <trkpt lat="47.10462" lon="-0.10389">
        <ele>20.6</ele>
        <time>2026-03-14T17:04:29Z</time>
      </trkpt>
      <trkpt lat="47.10466" lon="-0.10396">
        <ele>20.6</ele>
        <time>2026-03-14T17:04:30Z</time>
      </trkpt>
      <trkpt lat="47.10498" lon="-0.10461">
        <ele>20.4</ele>
        <time>2026-03-14T17:04:39Z</time>
      </trkpt>
      <trkpt lat="47.10505" lon="-0.10476">
        <ele>20.6</ele>
        <time>2026-03-14T17:04:41Z</time>
      </trkpt>
      <trkpt lat="47.10539" lon="-0.10543">
        <ele>20.6</ele>
        <time>2026-03-14T17:04:50Z</time>
      </trkpt>
      <trkpt lat="47.10546" lon="-0.10558">
        <ele>20.8</ele>
        <time>2026-03-14T17:04:52Z</time>
      </trkpt>
      <trkpt lat="47.10554" lon="-0.10573">
        <ele>20.8</ele>
        <time>2026-03-14T17:04:54Z</time>
      </trkpt>
      <trkpt lat="47.10587" lon="-0.10641">
        <ele>21.2</ele>
        <time>2026-03-14T17:05:03Z</time>
      </trkpt>
      <trkpt lat="47.10605" lon="-0.10679">
        <ele>21.2</ele>
        <time>2026-03-14T17:05:08Z</time>
      </trkpt>
      <trkpt lat="47.10639" lon="-0.10747">
        <ele>21.6</ele>
        <time>2026-03-14T17:05:17Z</time>
      </trkpt>
      <trkpt lat="47.10646" lon="-0.10761">
        <ele>21.6</ele>
        <time>2026-03-14T17:05:19Z</time>
      </trkpt>
      <trkpt lat="47.10653" lon="-0.10776">
        <ele>21.8</ele>
        <time>2026-03-14T17:05:21Z</time>
      </trkpt>
      <trkpt lat="47.10661" lon="-0.10791">
        <ele>21.8</ele>
        <time>2026-03-14T17:05:23Z</time>
      </trkpt>
      <trkpt lat="47.10683" lon="-0.10834">
        <ele>22</ele>
        <time>2026-03-14T17:05:29Z</time>
      </trkpt>
      <trkpt lat="47.10716" lon="-0.109">
        <ele>22.2</ele>
        <time>2026-03-14T17:05:38Z</time>
      </trkpt>
      <trkpt lat="47.10723" lon="-0.10915">
        <ele>22.2</ele>
        <time>2026-03-14T17:05:40Z</time>
      </trkpt>
      <trkpt lat="47.10755" lon="-0.10983">
        <ele>22.8</ele>
        <time>2026-03-14T17:05:49Z</time>
      </trkpt>
      <trkpt lat="47.10759" lon="-0.1099">
        <ele>22.8</ele>
        <time>2026-03-14T17:05:50Z</time>
      </trkpt>
      <trkpt lat="47.10791" lon="-0.11057">
        <ele>23.2</ele>
        <time>2026-03-14T17:05:59Z</time>
      </trkpt>
      <trkpt lat="47.10794" lon="-0.11064">
        <ele>23.4</ele>
        <time>2026-03-14T17:06:00Z</time>
      </trkpt>
      <trkpt lat="47.10827" lon="-0.11131">
        <ele>23.4</ele>
        <time>2026-03-14T17:06:09Z</time>
      </trkpt>
      <trkpt lat="47.10835" lon="-0.11146">
        <ele>23.6</ele>
        <time>2026-03-14T17:06:11Z</time>
      </trkpt>
      <trkpt lat="47.10869" lon="-0.11215">
        <ele>23.6</ele>
        <time>2026-03-14T17:06:20Z</time>
      </trkpt>
      <trkpt lat="47.10877" lon="-0.1123">
        <ele>23.6</ele>
        <time>2026-03-14T17:06:22Z</time>
      </trkpt>
      <trkpt lat="47.10911" lon="-0.11301">
        <ele>23.6</ele>
        <time>2026-03-14T17:06:31Z</time>
      </trkpt>
      <trkpt lat="47.10923" lon="-0.11324">
        <ele>23.6</ele>
        <time>2026-03-14T17:06:34Z</time>
      </trkpt>
      <trkpt lat="47.10957" lon="-0.11393">
        <ele>23.2</ele>
        <time>2026-03-14T17:06:43Z</time>
      </trkpt>
      <trkpt lat="47.10964" lon="-0.11409">
        <ele>23.2</ele>
        <time>2026-03-14T17:06:45Z</time>
      </trkpt>
      <trkpt lat="47.10999" lon="-0.11478">
        <ele>23</ele>
        <time>2026-03-14T17:06:54Z</time>
      </trkpt>
      <trkpt lat="47.11006" lon="-0.11494">
        <ele>23</ele>
        <time>2026-03-14T17:06:56Z</time>
      </trkpt>
      <trkpt lat="47.1104" lon="-0.11563">
        <ele>23</ele>
        <time>2026-03-14T17:07:05Z</time>
      </trkpt>
      <trkpt lat="47.11063" lon="-0.11609">
        <ele>22.8</ele>
        <time>2026-03-14T17:07:11Z</time>
      </trkpt>
      <trkpt lat="47.11082" lon="-0.11648">
        <ele>22.8</ele>
        <time>2026-03-14T17:07:16Z</time>
      </trkpt>
      <trkpt lat="47.11116" lon="-0.11719">
        <ele>22.8</ele>
        <time>2026-03-14T17:07:25Z</time>
      </trkpt>
      <trkpt lat="47.1112" lon="-0.11727">
        <ele>22.8</ele>
        <time>2026-03-14T17:07:26Z</time>
      </trkpt>
      <trkpt lat="47.11154" lon="-0.11797">
        <ele>23</ele>
        <time>2026-03-14T17:07:35Z</time>
      </trkpt>
      <trkpt lat="47.1117" lon="-0.11827">
        <ele>23</ele>
        <time>2026-03-14T17:07:39Z</time>
      </trkpt>
      <trkpt lat="47.11203" lon="-0.11893">
        <ele>23.4</ele>
        <time>2026-03-14T17:07:48Z</time>
      </trkpt>
      <trkpt lat="47.11236" lon="-0.11958">
        <ele>23.6</ele>
        <time>2026-03-14T17:07:57Z</time>
      </trkpt>
      <trkpt lat="47.11239" lon="-0.11965">
        <ele>23.6</ele>
        <time>2026-03-14T17:07:58Z</time>
      </trkpt>
      <trkpt lat="47.11246" lon="-0.1198">
        <ele>23.8</ele>
        <time>2026-03-14T17:08:00Z</time>
      </trkpt>
      <trkpt lat="47.11278" lon="-0.12047">
        <ele>24.4</ele>
        <time>2026-03-14T17:08:09Z</time>
      </trkpt>
      <trkpt lat="47.11289" lon="-0.12069">
        <ele>24.6</ele>
        <time>2026-03-14T17:08:12Z</time>
      </trkpt>
      <trkpt lat="47.11311" lon="-0.12114">
        <ele>25</ele>
        <time>2026-03-14T17:08:18Z</time>
      </trkpt>
      <trkpt lat="47.11325" lon="-0.12143">
        <ele>25.2</ele>
        <time>2026-03-14T17:08:22Z</time>
      </trkpt>
      <trkpt lat="47.11357" lon="-0.12207">
        <ele>25.6</ele>
        <time>2026-03-14T17:08:31Z</time>
      </trkpt>
      <trkpt lat="47.11364" lon="-0.12221">
        <ele>25.8</ele>
        <time>2026-03-14T17:08:33Z</time>
      </trkpt>
      <trkpt lat="47.11389" lon="-0.12271">
        <ele>26</ele>
        <time>2026-03-14T17:08:40Z</time>
      </trkpt>
      <trkpt lat="47.114" lon="-0.12292">
        <ele>26</ele>
        <time>2026-03-14T17:08:43Z</time>
      </trkpt>
      <trkpt lat="47.11432" lon="-0.12358">
        <ele>26.2</ele>
        <time>2026-03-14T17:08:52Z</time>
      </trkpt>
      <trkpt lat="47.11439" lon="-0.12372">
        <ele>26.4</ele>
        <time>2026-03-14T17:08:54Z</time>
      </trkpt>
      <trkpt lat="47.11474" lon="-0.12444">
        <ele>26.8</ele>
        <time>2026-03-14T17:09:04Z</time>
      </trkpt>
      <trkpt lat="47.11481" lon="-0.12458">
        <ele>27</ele>
        <time>2026-03-14T17:09:06Z</time>
      </trkpt>
      <trkpt lat="47.11484" lon="-0.12464">
        <ele>27</ele>
        <time>2026-03-14T17:09:07Z</time>
      </trkpt>
      <trkpt lat="47.11514" lon="-0.12526">
        <ele>27.4</ele>
        <time>2026-03-14T17:09:16Z</time>
      </trkpt>
      <trkpt lat="47.11545" lon="-0.12588">
        <ele>28</ele>
        <time>2026-03-14T17:09:25Z</time>
      </trkpt>
      <trkpt lat="47.1158" lon="-0.12657">
        <ele>27.8</ele>
        <time>2026-03-14T17:09:35Z</time>
      </trkpt>
      <trkpt lat="47.11583" lon="-0.12664">
        <ele>27.8</ele>
        <time>2026-03-14T17:09:36Z</time>
      </trkpt>
      <trkpt lat="47.11596" lon="-0.12692">
        <ele>28</ele>
        <time>2026-03-14T17:09:40Z</time>
      </trkpt>
      <trkpt lat="47.11617" lon="-0.12734">
        <ele>28.6</ele>
        <time>2026-03-14T17:09:46Z</time>
      </trkpt>
      <trkpt lat="47.11652" lon="-0.12803">
        <ele>28.6</ele>
        <time>2026-03-14T17:09:56Z</time>
      </trkpt>
      <trkpt lat="47.11655" lon="-0.1281">
        <ele>28.6</ele>
        <time>2026-03-14T17:09:57Z</time>
      </trkpt>
      <trkpt lat="47.11688" lon="-0.12878">
        <ele>28.6</ele>
        <time>2026-03-14T17:10:07Z</time>
      </trkpt>
      <trkpt lat="47.11695" lon="-0.12891">
        <ele>28.8</ele>
        <time>2026-03-14T17:10:09Z</time>
      </trkpt>
      <trkpt lat="47.11721" lon="-0.12943">
        <ele>29</ele>
        <time>2026-03-14T17:10:17Z</time>
      </trkpt>
      <trkpt lat="47.11746" lon="-0.12986">
        <ele>29</ele>
        <time>2026-03-14T17:10:24Z</time>
      </trkpt>
      <trkpt lat="47.1178" lon="-0.13047">
        <ele>28.8</ele>
        <time>2026-03-14T17:10:33Z</time>
      </trkpt>
      <trkpt lat="47.11794" lon="-0.13075">
        <ele>28.8</ele>
        <time>2026-03-14T17:10:37Z</time>
      </trkpt>
      <trkpt lat="47.11802" lon="-0.13087">
        <ele>29.2</ele>
        <time>2026-03-14T17:10:39Z</time>
      </trkpt>
      <trkpt lat="47.11812" lon="-0.13095">
        <ele>29.2</ele>
        <time>2026-03-14T17:10:41Z</time>
      </trkpt>
      <trkpt lat="47.11817" lon="-0.13097">
        <ele>29.4</ele>
        <time>2026-03-14T17:10:42Z</time>
      </trkpt>
      <trkpt lat="47.11823" lon="-0.131">
        <ele>29.4</ele>
        <time>2026-03-14T17:10:43Z</time>
      </trkpt>
      <trkpt lat="47.11833" lon="-0.1311">
        <ele>29.6</ele>
        <time>2026-03-14T17:10:45Z</time>
      </trkpt>
      <trkpt lat="47.11836" lon="-0.13117">
        <ele>29.6</ele>
        <time>2026-03-14T17:10:46Z</time>
      </trkpt>
      <trkpt lat="47.11839" lon="-0.13124">
        <ele>29.6</ele>
        <time>2026-03-14T17:10:47Z</time>
      </trkpt>
      <trkpt lat="47.11843" lon="-0.13149">
        <ele>29.8</ele>
        <time>2026-03-14T17:10:50Z</time>
      </trkpt>
      <trkpt lat="47.11857" lon="-0.13179">
        <ele>30</ele>
        <time>2026-03-14T17:10:54Z</time>
      </trkpt>
      <trkpt lat="47.11876" lon="-0.13227">
        <ele>30</ele>
        <time>2026-03-14T17:11:00Z</time>
      </trkpt>
      <trkpt lat="47.11898" lon="-0.13299">
        <ele>29.8</ele>
        <time>2026-03-14T17:11:09Z</time>
      </trkpt>
      <trkpt lat="47.11901" lon="-0.13306">
        <ele>29.6</ele>
        <time>2026-03-14T17:11:10Z</time>
      </trkpt>
      <trkpt lat="47.11929" lon="-0.13363">
        <ele>30</ele>
        <time>2026-03-14T17:11:18Z</time>
      </trkpt>
      <trkpt lat="47.1194" lon="-0.13385">
        <ele>30</ele>
        <time>2026-03-14T17:11:21Z</time>
      </trkpt>
      <trkpt lat="47.11963" lon="-0.13427">
        <ele>30.2</ele>
        <time>2026-03-14T17:11:27Z</time>
      </trkpt>
      <trkpt lat="47.11996" lon="-0.13481">
        <ele>30.4</ele>
        <time>2026-03-14T17:11:35Z</time>
      </trkpt>
      <trkpt lat="47.12009" lon="-0.13502">
        <ele>30.4</ele>
        <time>2026-03-14T17:11:38Z</time>
      </trkpt>
      <trkpt lat="47.12022" lon="-0.13521">
        <ele>30.4</ele>
        <time>2026-03-14T17:11:41Z</time>
      </trkpt>
      <trkpt lat="47.12044" lon="-0.13567">
        <ele>30.4</ele>
        <time>2026-03-14T17:11:47Z</time>
      </trkpt>
      <trkpt lat="47.12071" lon="-0.13641">
        <ele>30.6</ele>
        <time>2026-03-14T17:11:56Z</time>
      </trkpt>
      <trkpt lat="47.12075" lon="-0.13649">
        <ele>30.4</ele>
        <time>2026-03-14T17:11:57Z</time>
      </trkpt>
      <trkpt lat="47.12109" lon="-0.13721">
        <ele>30.2</ele>
        <time>2026-03-14T17:12:06Z</time>
      </trkpt>
      <trkpt lat="47.12113" lon="-0.13729">
        <ele>30.2</ele>
        <time>2026-03-14T17:12:07Z</time>
      </trkpt>
      <trkpt lat="47.12147" lon="-0.13798">
        <ele>30</ele>
        <time>2026-03-14T17:12:16Z</time>
      </trkpt>
      <trkpt lat="47.12151" lon="-0.13806">
        <ele>30</ele>
        <time>2026-03-14T17:12:17Z</time>
      </trkpt>
      <trkpt lat="47.12185" lon="-0.13873">
        <ele>29.8</ele>
        <time>2026-03-14T17:12:26Z</time>
      </trkpt>
      <trkpt lat="47.12218" lon="-0.13942">
        <ele>29.6</ele>
        <time>2026-03-14T17:12:35Z</time>
      </trkpt>
      <trkpt lat="47.12222" lon="-0.1395">
        <ele>29.6</ele>
        <time>2026-03-14T17:12:36Z</time>
      </trkpt>
      <trkpt lat="47.12256" lon="-0.14019">
        <ele>29.4</ele>
        <time>2026-03-14T17:12:45Z</time>
      </trkpt>
      <trkpt lat="47.12264" lon="-0.14035">
        <ele>29.4</ele>
        <time>2026-03-14T17:12:47Z</time>
      </trkpt>
      <trkpt lat="47.12299" lon="-0.14104">
        <ele>29.4</ele>
        <time>2026-03-14T17:12:56Z</time>
      </trkpt>
      <trkpt lat="47.12306" lon="-0.14119">
        <ele>29.4</ele>
        <time>2026-03-14T17:12:58Z</time>
      </trkpt>
      <trkpt lat="47.12328" lon="-0.14164">
        <ele>29.4</ele>
        <time>2026-03-14T17:13:04Z</time>
      </trkpt>
      <trkpt lat="47.1235" lon="-0.14208">
        <ele>29.4</ele>
        <time>2026-03-14T17:13:10Z</time>
      </trkpt>
      <trkpt lat="47.12379" lon="-0.14265">
        <ele>29.2</ele>
        <time>2026-03-14T17:13:18Z</time>
      </trkpt>
      <trkpt lat="47.12409" lon="-0.14337">
        <ele>29.2</ele>
        <time>2026-03-14T17:13:27Z</time>
      </trkpt>
      <trkpt lat="47.12413" lon="-0.14345">
        <ele>29.2</ele>
        <time>2026-03-14T17:13:28Z</time>
      </trkpt>
      <trkpt lat="47.12443" lon="-0.14406">
        <ele>29.4</ele>
        <time>2026-03-14T17:13:36Z</time>
      </trkpt>
      <trkpt lat="47.12477" lon="-0.14473">
        <ele>29.4</ele>
        <time>2026-03-14T17:13:45Z</time>
      </trkpt>
      <trkpt lat="47.12508" lon="-0.14541">
        <ele>29.4</ele>
        <time>2026-03-14T17:13:54Z</time>
      </trkpt>
      <trkpt lat="47.12512" lon="-0.14549">
        <ele>29.4</ele>
        <time>2026-03-14T17:13:55Z</time>
      </trkpt>
      <trkpt lat="47.12547" lon="-0.14617">
        <ele>29.8</ele>
        <time>2026-03-14T17:14:04Z</time>
      </trkpt>
      <trkpt lat="47.12573" lon="-0.1467">
        <ele>29.6</ele>
        <time>2026-03-14T17:14:11Z</time>
      </trkpt>
      <trkpt lat="47.12595" lon="-0.14714">
        <ele>30</ele>
        <time>2026-03-14T17:14:17Z</time>
      </trkpt>
      <trkpt lat="47.12627" lon="-0.1478">
        <ele>30.4</ele>
        <time>2026-03-14T17:14:26Z</time>
      </trkpt>
      <trkpt lat="47.12651" lon="-0.14829">
        <ele>30.6</ele>
        <time>2026-03-14T17:14:33Z</time>
      </trkpt>
      <trkpt lat="47.12667" lon="-0.14862">
        <ele>30.8</ele>
        <time>2026-03-14T17:14:38Z</time>
      </trkpt>
      <trkpt lat="47.12677" lon="-0.14881">
        <ele>31</ele>
        <time>2026-03-14T17:14:41Z</time>
      </trkpt>
      <trkpt lat="47.1268" lon="-0.14887">
        <ele>31.2</ele>
        <time>2026-03-14T17:14:42Z</time>
      </trkpt>
      <trkpt lat="47.12696" lon="-0.14907">
        <ele>31.4</ele>
        <time>2026-03-14T17:14:46Z</time>
      </trkpt>
      <trkpt lat="47.12706" lon="-0.14913">
        <ele>31.4</ele>
        <time>2026-03-14T17:14:48Z</time>
      </trkpt>
      <trkpt lat="47.12717" lon="-0.14916">
        <ele>31.4</ele>
        <time>2026-03-14T17:14:50Z</time>
      </trkpt>
      <trkpt lat="47.12727" lon="-0.14925">
        <ele>31.4</ele>
        <time>2026-03-14T17:14:52Z</time>
      </trkpt>
      <trkpt lat="47.12731" lon="-0.14933">
        <ele>31.4</ele>
        <time>2026-03-14T17:14:53Z</time>
      </trkpt>
      <trkpt lat="47.12733" lon="-0.14942">
        <ele>31.4</ele>
        <time>2026-03-14T17:14:54Z</time>
      </trkpt>
      <trkpt lat="47.12735" lon="-0.14965">
        <ele>31.2</ele>
        <time>2026-03-14T17:14:56Z</time>
      </trkpt>
      <trkpt lat="47.12737" lon="-0.14989">
        <ele>30.6</ele>
        <time>2026-03-14T17:14:58Z</time>
      </trkpt>
      <trkpt lat="47.1274" lon="-0.15006">
        <ele>30.4</ele>
        <time>2026-03-14T17:15:00Z</time>
      </trkpt>
      <trkpt lat="47.12752" lon="-0.15032">
        <ele>30.6</ele>
        <time>2026-03-14T17:15:04Z</time>
      </trkpt>
      <trkpt lat="47.12762" lon="-0.15048">
        <ele>32</ele>
        <time>2026-03-14T17:15:07Z</time>
      </trkpt>
      <trkpt lat="47.12777" lon="-0.1508">
        <ele>32.6</ele>
        <time>2026-03-14T17:15:12Z</time>
      </trkpt>
      <trkpt lat="47.12792" lon="-0.15111">
        <ele>33</ele>
        <time>2026-03-14T17:15:17Z</time>
      </trkpt>
      <trkpt lat="47.128" lon="-0.1513">
        <ele>33</ele>
        <time>2026-03-14T17:15:20Z</time>
      </trkpt>
      <trkpt lat="47.1283" lon="-0.15191">
        <ele>33.6</ele>
        <time>2026-03-14T17:15:30Z</time>
      </trkpt>
      <trkpt lat="47.12863" lon="-0.15258">
        <ele>34</ele>
        <time>2026-03-14T17:15:41Z</time>
      </trkpt>
      <trkpt lat="47.12897" lon="-0.15325">
        <ele>34.2</ele>
        <time>2026-03-14T17:15:52Z</time>
      </trkpt>
      <trkpt lat="47.129" lon="-0.15332">
        <ele>34.4</ele>
        <time>2026-03-14T17:15:53Z</time>
      </trkpt>
      <trkpt lat="47.12924" lon="-0.15383">
        <ele>34.6</ele>
        <time>2026-03-14T17:16:01Z</time>
      </trkpt>
      <trkpt lat="47.12927" lon="-0.15388">
        <ele>34.8</ele>
        <time>2026-03-14T17:16:02Z</time>
      </trkpt>
      <trkpt lat="47.12933" lon="-0.15399">
        <ele>34.8</ele>
        <time>2026-03-14T17:16:04Z</time>
      </trkpt>
      <trkpt lat="47.12938" lon="-0.15411">
        <ele>35</ele>
        <time>2026-03-14T17:16:06Z</time>
      </trkpt>
      <trkpt lat="47.12961" lon="-0.15456">
        <ele>35.2</ele>
        <time>2026-03-14T17:16:14Z</time>
      </trkpt>
      <trkpt lat="47.12969" lon="-0.15466">
        <ele>35.4</ele>
        <time>2026-03-14T17:16:18Z</time>
      </trkpt>
      <trkpt lat="47.12971" lon="-0.15468">
        <ele>35.4</ele>
        <time>2026-03-14T17:16:20Z</time>
      </trkpt>
      <trkpt lat="47.12973" lon="-0.1547">
        <ele>35.4</ele>
        <time>2026-03-14T17:16:22Z</time>
      </trkpt>
      <trkpt lat="47.12973" lon="-0.15471">
        <ele>35.4</ele>
        <time>2026-03-14T17:16:23Z</time>
      </trkpt>
      <trkpt lat="47.12973" lon="-0.15471">
        <ele>35.4</ele>
        <time>2026-03-14T17:16:25Z</time>
      </trkpt>
      <trkpt lat="47.12974" lon="-0.15477">
        <ele>35.2</ele>
        <time>2026-03-14T17:18:46Z</time>
      </trkpt>
      <trkpt lat="47.12975" lon="-0.15479">
        <ele>35.2</ele>
        <time>2026-03-14T17:18:47Z</time>
      </trkpt>
      <trkpt lat="47.12984" lon="-0.15496">
        <ele>35.2</ele>
        <time>2026-03-14T17:18:52Z</time>
      </trkpt>
      <trkpt lat="47.12994" lon="-0.15521">
        <ele>35.2</ele>
        <time>2026-03-14T17:18:58Z</time>
      </trkpt>
      <trkpt lat="47.13001" lon="-0.15531">
        <ele>35.2</ele>
        <time>2026-03-14T17:19:03Z</time>
      </trkpt>
      <trkpt lat="47.13011" lon="-0.1552">
        <ele>35.4</ele>
        <time>2026-03-14T17:19:08Z</time>
      </trkpt>
      <trkpt lat="47.13021" lon="-0.1551">
        <ele>35.4</ele>
        <time>2026-03-14T17:19:11Z</time>
      </trkpt>
      <trkpt lat="47.13028" lon="-0.15502">
        <ele>35.4</ele>
        <time>2026-03-14T17:19:13Z</time>
      </trkpt>
      <trkpt lat="47.1305" lon="-0.15474">
        <ele>35.4</ele>
        <time>2026-03-14T17:19:19Z</time>
      </trkpt>
      <trkpt lat="47.13058" lon="-0.15465">
        <ele>35.4</ele>
        <time>2026-03-14T17:19:21Z</time>
      </trkpt>
      <trkpt lat="47.13075" lon="-0.15446">
        <ele>35.2</ele>
        <time>2026-03-14T17:19:26Z</time>
      </trkpt>
      <trkpt lat="47.13093" lon="-0.15425">
        <ele>34.6</ele>
        <time>2026-03-14T17:19:32Z</time>
      </trkpt>
      <trkpt lat="47.131" lon="-0.15429">
        <ele>34.6</ele>
        <time>2026-03-14T17:19:35Z</time>
      </trkpt>
      <trkpt lat="47.13117" lon="-0.15454">
        <ele>34.4</ele>
        <time>2026-03-14T17:19:41Z</time>
      </trkpt>
      <trkpt lat="47.13137" lon="-0.15485">
        <ele>34.4</ele>
        <time>2026-03-14T17:19:48Z</time>
      </trkpt>
      <trkpt lat="47.13161" lon="-0.15528">
        <ele>34.6</ele>
        <time>2026-03-14T17:19:57Z</time>
      </trkpt>
      <trkpt lat="47.13169" lon="-0.15547">
        <ele>34.6</ele>
        <time>2026-03-14T17:20:02Z</time>
      </trkpt>
      <trkpt lat="47.13171" lon="-0.15554">
        <ele>34.4</ele>
        <time>2026-03-14T17:20:05Z</time>
      </trkpt>
      <trkpt lat="47.13174" lon="-0.1556">
        <ele>34.2</ele>
        <time>2026-03-14T17:20:07Z</time>
      </trkpt>
      <trkpt lat="47.13174" lon="-0.15564">
        <ele>33.8</ele>
        <time>2026-03-14T17:20:12Z</time>
      </trkpt>
      <trkpt lat="47.13174" lon="-0.15564">
        <ele>33.8</ele>
        <time>2026-03-14T17:20:13Z</time>
      </trkpt>
    </trkseg>
  </trk>
</gpx>